<?xml version='1.0' encoding='UTF-8'?><gpx version="1.1" creator="JPX - https://github.com/jenetics/jpx" xmlns="http://www.topografix.com/GPX/1/1"><trk><trkseg><trkpt lat="38.047018406891226" lon="-1.1992579111831259"><ele>108.0</ele><time>2026-04-07T07:17:29Z</time></trkpt><trkpt lat="38.04713347018309" lon="-1.1992758043088647"><ele>108.00000000000001</ele><time>2026-04-07T07:17:31Z</time></trkpt><trkpt lat="38.04720844851103" lon="-1.1993106398503741"><ele>108.00000000000001</ele><time>2026-04-07T07:17:33Z</time></trkpt><trkpt lat="38.04727739966114" lon="-1.199246911155016"><ele>108.0</ele><time>2026-04-07T07:17:35Z</time></trkpt><trkpt lat="38.04730714551123" lon="-1.1991540635658753"><ele>108.0</ele><time>2026-04-07T07:17:37Z</time></trkpt><trkpt lat="38.047355382201275" lon="-1.1990082766586307"><ele>108.80000000000001</ele><time>2026-04-07T07:17:39Z</time></trkpt><trkpt lat="38.04739409768012" lon="-1.1988791653570579"><ele>109.60000000000001</ele><time>2026-04-07T07:17:41Z</time></trkpt><trkpt lat="38.047478455038124" lon="-1.1987662671895138"><ele>110.39999999999999</ele><time>2026-04-07T07:17:43Z</time></trkpt><trkpt lat="38.04752145579598" lon="-1.198705012742059"><ele>111.19999999999999</ele><time>2026-04-07T07:17:44Z</time></trkpt><trkpt lat="38.047623897745574" lon="-1.1986585699347025"><ele>112.0</ele><time>2026-04-07T07:17:46Z</time></trkpt><trkpt lat="38.04771518737111" lon="-1.1986294353961242"><ele>113.39999999999999</ele><time>2026-04-07T07:17:48Z</time></trkpt><trkpt lat="38.04774265155056" lon="-1.1985179277105331"><ele>114.79999999999998</ele><time>2026-04-07T07:17:50Z</time></trkpt><trkpt lat="38.04775485314644" lon="-1.1984191383393286"><ele>116.2</ele><time>2026-04-07T07:17:52Z</time></trkpt><trkpt lat="38.04776769664045" lon="-1.1983013028130827"><ele>117.6</ele><time>2026-04-07T07:17:54Z</time></trkpt><trkpt lat="38.04768958961729" lon="-1.1981572296019853"><ele>119.0</ele><time>2026-04-07T07:17:56Z</time></trkpt><trkpt lat="38.04766092206407" lon="-1.1980688139637772"><ele>119.33333333333333</ele><time>2026-04-07T07:17:57Z</time></trkpt><trkpt lat="38.047631406192245" lon="-1.1979825506356536"><ele>119.66666666666666</ele><time>2026-04-07T07:17:58Z</time></trkpt><trkpt lat="38.047576885974216" lon="-1.197901571019202"><ele>120.0</ele><time>2026-04-07T07:17:59Z</time></trkpt><trkpt lat="38.04755215679456" lon="-1.1977956922541055"><ele>120.33333333333334</ele><time>2026-04-07T07:18:00Z</time></trkpt><trkpt lat="38.04750432619433" lon="-1.1976980366482703"><ele>120.66666666666667</ele><time>2026-04-07T07:18:01Z</time></trkpt><trkpt lat="38.04747257479692" lon="-1.1975940798318816"><ele>121.0</ele><time>2026-04-07T07:18:02Z</time></trkpt><trkpt lat="38.04744131051001" lon="-1.1974921613108829"><ele>120.83333333333334</ele><time>2026-04-07T07:18:03Z</time></trkpt><trkpt lat="38.04741318739104" lon="-1.1974016705216053"><ele>120.66666666666667</ele><time>2026-04-07T07:18:04Z</time></trkpt><trkpt lat="38.04742601931971" lon="-1.1973028333846798"><ele>120.5</ele><time>2026-04-07T07:18:05Z</time></trkpt><trkpt lat="38.04739893625058" lon="-1.1972275976571154"><ele>120.33333333333334</ele><time>2026-04-07T07:18:06Z</time></trkpt><trkpt lat="38.047370001713375" lon="-1.1971043791535219"><ele>120.16666666666667</ele><time>2026-04-07T07:18:08Z</time></trkpt><trkpt lat="38.04742074531552" lon="-1.197005103239302"><ele>120.0</ele><time>2026-04-07T07:18:10Z</time></trkpt><trkpt lat="38.047474111312624" lon="-1.1969589732962322"><ele>120.5</ele><time>2026-04-07T07:18:11Z</time></trkpt><trkpt lat="38.04751514947638" lon="-1.196883711932194"><ele>121.0</ele><time>2026-04-07T07:18:12Z</time></trkpt><trkpt lat="38.0475387767654" lon="-1.1968024594508384"><ele>121.5</ele><time>2026-04-07T07:18:13Z</time></trkpt><trkpt lat="38.04756501016854" lon="-1.1967091052089724"><ele>122.0</ele><time>2026-04-07T07:18:14Z</time></trkpt><trkpt lat="38.04759360292646" lon="-1.1966247298267072"><ele>122.5</ele><time>2026-04-07T07:18:15Z</time></trkpt><trkpt lat="38.047642443759585" lon="-1.1965186912128727"><ele>123.0</ele><time>2026-04-07T07:18:16Z</time></trkpt><trkpt lat="38.04770612487739" lon="-1.1964120261828197"><ele>123.60000000000001</ele><time>2026-04-07T07:18:17Z</time></trkpt><trkpt lat="38.0477682425614" lon="-1.196334270370181"><ele>124.20000000000002</ele><time>2026-04-07T07:18:18Z</time></trkpt><trkpt lat="38.04783207215906" lon="-1.1962659982507067"><ele>124.8</ele><time>2026-04-07T07:18:19Z</time></trkpt><trkpt lat="38.04791332099436" lon="-1.1961909857470874"><ele>125.4</ele><time>2026-04-07T07:18:20Z</time></trkpt><trkpt lat="38.047988018547876" lon="-1.1961165749529516"><ele>126.0</ele><time>2026-04-07T07:18:21Z</time></trkpt><trkpt lat="38.04805857958184" lon="-1.1960455977437476"><ele>126.0</ele><time>2026-04-07T07:18:22Z</time></trkpt><trkpt lat="38.048135127118435" lon="-1.1959839008863637"><ele>126.0</ele><time>2026-04-07T07:18:23Z</time></trkpt><trkpt lat="38.04820678319048" lon="-1.1958913577501813"><ele>126.0</ele><time>2026-04-07T07:18:24Z</time></trkpt><trkpt lat="38.048287152016975" lon="-1.1957749838203513"><ele>126.0</ele><time>2026-04-07T07:18:25Z</time></trkpt><trkpt lat="38.04837283662317" lon="-1.1956713508240713"><ele>126.0</ele><time>2026-04-07T07:18:26Z</time></trkpt><trkpt lat="38.048437644269136" lon="-1.1955770017889584"><ele>123.66666666666667</ele><time>2026-04-07T07:18:27Z</time></trkpt><trkpt lat="38.04848179153426" lon="-1.1954850464936506"><ele>121.33333333333334</ele><time>2026-04-07T07:18:28Z</time></trkpt><trkpt lat="38.04853050084472" lon="-1.195371140771415"><ele>119.0</ele><time>2026-04-07T07:18:30Z</time></trkpt><trkpt lat="38.04857486473695" lon="-1.1952853668958536"><ele>116.66666666666667</ele><time>2026-04-07T07:18:33Z</time></trkpt><trkpt lat="38.048619734192805" lon="-1.1951931129337623"><ele>114.33333333333334</ele><time>2026-04-07T07:18:35Z</time></trkpt><trkpt lat="38.04868178814142" lon="-1.1951266684033626"><ele>112.0</ele><time>2026-04-07T07:18:36Z</time></trkpt><trkpt lat="38.04879125067774" lon="-1.1950697093274427"><ele>112.0</ele><time>2026-04-07T07:18:38Z</time></trkpt><trkpt lat="38.04886586662507" lon="-1.1950519141688682"><ele>111.99999999999999</ele><time>2026-04-07T07:18:39Z</time></trkpt><trkpt lat="38.048977518096365" lon="-1.1950050743608065"><ele>111.99999999999999</ele><time>2026-04-07T07:18:41Z</time></trkpt><trkpt lat="38.04908296652059" lon="-1.1949822308213327"><ele>112.0</ele><time>2026-04-07T07:18:43Z</time></trkpt><trkpt lat="38.04919975713004" lon="-1.19496863954066"><ele>112.0</ele><time>2026-04-07T07:18:45Z</time></trkpt><trkpt lat="38.049277438206325" lon="-1.1949616106292644"><ele>110.66666666666667</ele><time>2026-04-07T07:18:46Z</time></trkpt><trkpt lat="38.04934237658846" lon="-1.1949452926800594"><ele>109.33333333333334</ele><time>2026-04-07T07:18:47Z</time></trkpt><trkpt lat="38.04940632398482" lon="-1.1949264184203332"><ele>108.0</ele><time>2026-04-07T07:18:48Z</time></trkpt><trkpt lat="38.049474017186576" lon="-1.194922992663964"><ele>106.66666666666666</ele><time>2026-04-07T07:18:49Z</time></trkpt><trkpt lat="38.04956267988309" lon="-1.1949478379699747"><ele>105.33333333333333</ele><time>2026-04-07T07:18:51Z</time></trkpt><trkpt lat="38.049657346823764" lon="-1.1949886002515042"><ele>104.0</ele><time>2026-04-07T07:18:54Z</time></trkpt><trkpt lat="38.049743439109825" lon="-1.1950366826976693"><ele>104.0</ele><time>2026-04-07T07:18:56Z</time></trkpt><trkpt lat="38.049858876352786" lon="-1.1950441968435217"><ele>104.0</ele><time>2026-04-07T07:18:58Z</time></trkpt><trkpt lat="38.049927936589725" lon="-1.194946053007235"><ele>104.0</ele><time>2026-04-07T07:19:00Z</time></trkpt><trkpt lat="38.04998049078932" lon="-1.1948204569728562"><ele>104.0</ele><time>2026-04-07T07:19:02Z</time></trkpt><trkpt lat="38.05008559297297" lon="-1.194757366709598"><ele>104.0</ele><time>2026-04-07T07:19:04Z</time></trkpt><trkpt lat="38.05016915715979" lon="-1.1946635822635514"><ele>106.0</ele><time>2026-04-07T07:19:06Z</time></trkpt><trkpt lat="38.05019328444239" lon="-1.1945523251298515"><ele>108.0</ele><time>2026-04-07T07:19:08Z</time></trkpt><trkpt lat="38.050212532483776" lon="-1.1944730720008048"><ele>110.0</ele><time>2026-04-07T07:19:09Z</time></trkpt><trkpt lat="38.05024319383458" lon="-1.1943967907885908"><ele>112.0</ele><time>2026-04-07T07:19:10Z</time></trkpt><trkpt lat="38.050315304286734" lon="-1.1942937027315168"><ele>114.0</ele><time>2026-04-07T07:19:12Z</time></trkpt><trkpt lat="38.05039300907132" lon="-1.1941739203278225"><ele>114.0</ele><time>2026-04-07T07:19:14Z</time></trkpt><trkpt lat="38.05045521385135" lon="-1.1940901823506602"><ele>114.0</ele><time>2026-04-07T07:19:17Z</time></trkpt><trkpt lat="38.05053899208636" lon="-1.194113591096612"><ele>114.0</ele><time>2026-04-07T07:19:19Z</time></trkpt><trkpt lat="38.05066260467931" lon="-1.194138368526839"><ele>114.0</ele><time>2026-04-07T07:19:21Z</time></trkpt><trkpt lat="38.050746903262414" lon="-1.1941231290426355"><ele>114.0</ele><time>2026-04-07T07:19:22Z</time></trkpt><trkpt lat="38.05083918779359" lon="-1.1941029687235478"><ele>114.33333333333333</ele><time>2026-04-07T07:19:23Z</time></trkpt><trkpt lat="38.050933128191296" lon="-1.1940894024091477"><ele>114.66666666666666</ele><time>2026-04-07T07:19:24Z</time></trkpt><trkpt lat="38.05102670473378" lon="-1.1940713058609926"><ele>115.0</ele><time>2026-04-07T07:19:25Z</time></trkpt><trkpt lat="38.05110255227863" lon="-1.1940395292601957"><ele>115.33333333333333</ele><time>2026-04-07T07:19:26Z</time></trkpt><trkpt lat="38.0511653345822" lon="-1.194005511187518"><ele>115.66666666666666</ele><time>2026-04-07T07:19:27Z</time></trkpt><trkpt lat="38.051221011603204" lon="-1.1939566397557977"><ele>116.0</ele><time>2026-04-07T07:19:28Z</time></trkpt><trkpt lat="38.051279587656026" lon="-1.1939121773718477"><ele>116.49999999999999</ele><time>2026-04-07T07:19:29Z</time></trkpt><trkpt lat="38.051333548198436" lon="-1.193850530815296"><ele>117.0</ele><time>2026-04-07T07:19:30Z</time></trkpt><trkpt lat="38.05136780497052" lon="-1.193770318411705"><ele>117.5</ele><time>2026-04-07T07:19:31Z</time></trkpt><trkpt lat="38.05140828526507" lon="-1.1937041054364892"><ele>118.0</ele><time>2026-04-07T07:19:32Z</time></trkpt><trkpt lat="38.051447266023" lon="-1.193638430337396"><ele>118.49999999999999</ele><time>2026-04-07T07:19:33Z</time></trkpt><trkpt lat="38.051526661294076" lon="-1.1935311147047278"><ele>119.0</ele><time>2026-04-07T07:19:35Z</time></trkpt><trkpt lat="38.05166519169953" lon="-1.1935051048334644"><ele>119.0</ele><time>2026-04-07T07:19:39Z</time></trkpt><trkpt lat="38.05175083407882" lon="-1.193445567278357"><ele>119.0</ele><time>2026-04-07T07:19:41Z</time></trkpt><trkpt lat="38.051786311072284" lon="-1.1933753326648682"><ele>119.0</ele><time>2026-04-07T07:19:43Z</time></trkpt><trkpt lat="38.051769864790494" lon="-1.1932660683703369"><ele>119.0</ele><time>2026-04-07T07:19:46Z</time></trkpt><trkpt lat="38.05185564035295" lon="-1.1931571596137114"><ele>119.0</ele><time>2026-04-07T07:19:48Z</time></trkpt><trkpt lat="38.05192843967344" lon="-1.1930800914651716"><ele>119.16666666666666</ele><time>2026-04-07T07:19:49Z</time></trkpt><trkpt lat="38.05199486220786" lon="-1.1930085834018314"><ele>119.33333333333333</ele><time>2026-04-07T07:19:50Z</time></trkpt><trkpt lat="38.05205465743163" lon="-1.1929339406718429"><ele>119.5</ele><time>2026-04-07T07:19:51Z</time></trkpt><trkpt lat="38.05209892927161" lon="-1.1928742647232633"><ele>119.66666666666666</ele><time>2026-04-07T07:19:52Z</time></trkpt><trkpt lat="38.05213218038915" lon="-1.192792149097298"><ele>119.83333333333333</ele><time>2026-04-07T07:19:54Z</time></trkpt><trkpt lat="38.05216625590177" lon="-1.1926682912485165"><ele>120.0</ele><time>2026-04-07T07:19:56Z</time></trkpt><trkpt lat="38.05223485044308" lon="-1.1926010423151023"><ele>120.0</ele><time>2026-04-07T07:19:58Z</time></trkpt><trkpt lat="38.052385493239385" lon="-1.1926096099207801"><ele>120.0</ele><time>2026-04-07T07:20:00Z</time></trkpt><trkpt lat="38.05248103862587" lon="-1.192619914459062"><ele>120.0</ele><time>2026-04-07T07:20:01Z</time></trkpt><trkpt lat="38.05256816499079" lon="-1.1926178116480257"><ele>120.0</ele><time>2026-04-07T07:20:02Z</time></trkpt><trkpt lat="38.05267634564773" lon="-1.1926022664694658"><ele>120.0</ele><time>2026-04-07T07:20:03Z</time></trkpt><trkpt lat="38.052776599660625" lon="-1.192612417779346"><ele>119.66666666666667</ele><time>2026-04-07T07:20:04Z</time></trkpt><trkpt lat="38.052873391778164" lon="-1.1926376027678989"><ele>119.33333333333334</ele><time>2026-04-07T07:20:05Z</time></trkpt><trkpt lat="38.05296811204339" lon="-1.1926522838081945"><ele>119.0</ele><time>2026-04-07T07:20:06Z</time></trkpt><trkpt lat="38.05306106657055" lon="-1.1926541139664975"><ele>118.66666666666667</ele><time>2026-04-07T07:20:07Z</time></trkpt><trkpt lat="38.05313894032722" lon="-1.1926667986433188"><ele>118.33333333333334</ele><time>2026-04-07T07:20:08Z</time></trkpt><trkpt lat="38.05320903080317" lon="-1.1926661141081987"><ele>118.0</ele><time>2026-04-07T07:20:09Z</time></trkpt><trkpt lat="38.053278981000986" lon="-1.1926184334346333"><ele>117.4</ele><time>2026-04-07T07:20:10Z</time></trkpt><trkpt lat="38.05334426416652" lon="-1.192554044605576"><ele>116.80000000000001</ele><time>2026-04-07T07:20:11Z</time></trkpt><trkpt lat="38.05339911570757" lon="-1.1925122526207768"><ele>116.2</ele><time>2026-04-07T07:20:12Z</time></trkpt><trkpt lat="38.05345768918087" lon="-1.1924687671819365"><ele>115.6</ele><time>2026-04-07T07:20:14Z</time></trkpt><trkpt lat="38.05359390390728" lon="-1.1923882429336627"><ele>115.0</ele><time>2026-04-07T07:20:17Z</time></trkpt><trkpt lat="38.05368382513133" lon="-1.1923255412758749"><ele>117.33333333333334</ele><time>2026-04-07T07:20:18Z</time></trkpt><trkpt lat="38.05373711445143" lon="-1.1921985372273447"><ele>119.66666666666666</ele><time>2026-04-07T07:20:19Z</time></trkpt><trkpt lat="38.05387131997993" lon="-1.1920759144571949"><ele>122.0</ele><time>2026-04-07T07:20:20Z</time></trkpt><trkpt lat="38.05398434110093" lon="-1.1919109489259228"><ele>121.0</ele><time>2026-04-07T07:20:21Z</time></trkpt><trkpt lat="38.05412245934554" lon="-1.1917408858586973"><ele>120.0</ele><time>2026-04-07T07:20:22Z</time></trkpt><trkpt lat="38.05425740045163" lon="-1.1916008517604284"><ele>119.0</ele><time>2026-04-07T07:20:23Z</time></trkpt><trkpt lat="38.05434293582865" lon="-1.1914871631979864"><ele>119.0</ele><time>2026-04-07T07:20:24Z</time></trkpt><trkpt lat="38.054408883821246" lon="-1.1914261687588423"><ele>119.0</ele><time>2026-04-07T07:20:25Z</time></trkpt><trkpt lat="38.05446164688951" lon="-1.1913681489905827"><ele>119.0</ele><time>2026-04-07T07:20:26Z</time></trkpt><trkpt lat="38.05451690446731" lon="-1.1913297135925789"><ele>119.0</ele><time>2026-04-07T07:20:27Z</time></trkpt><trkpt lat="38.05461204016423" lon="-1.1912430352036183"><ele>119.0</ele><time>2026-04-07T07:20:29Z</time></trkpt><trkpt lat="38.05473815189184" lon="-1.191165115085532"><ele>119.0</ele><time>2026-04-07T07:20:31Z</time></trkpt><trkpt lat="38.05468764850374" lon="-1.1907051680745828"><ele>119.0</ele><time>2026-04-07T07:20:32Z</time></trkpt><trkpt lat="38.054802157090904" lon="-1.1905704657234775"><ele>119.0</ele><time>2026-04-07T07:20:33Z</time></trkpt><trkpt lat="38.054884044822025" lon="-1.1904288500989275"><ele>119.0</ele><time>2026-04-07T07:20:34Z</time></trkpt><trkpt lat="38.054922436681494" lon="-1.1903114024190566"><ele>119.0</ele><time>2026-04-07T07:20:35Z</time></trkpt><trkpt lat="38.0549461298957" lon="-1.1902307481705474"><ele>119.0</ele><time>2026-04-07T07:20:36Z</time></trkpt><trkpt lat="38.05496801481022" lon="-1.1901467070190275"><ele>119.0</ele><time>2026-04-07T07:20:37Z</time></trkpt><trkpt lat="38.05502765225004" lon="-1.1900453776494966"><ele>117.99999999999999</ele><time>2026-04-07T07:20:39Z</time></trkpt><trkpt lat="38.055078749994905" lon="-1.1899963594497167"><ele>117.0</ele><time>2026-04-07T07:20:41Z</time></trkpt><trkpt lat="38.055163173370936" lon="-1.1899156632723773"><ele>116.0</ele><time>2026-04-07T07:20:43Z</time></trkpt><trkpt lat="38.055239028703454" lon="-1.1898835635767657"><ele>115.0</ele><time>2026-04-07T07:20:45Z</time></trkpt><trkpt lat="38.055326359765424" lon="-1.1898652806805978"><ele>113.99999999999999</ele><time>2026-04-07T07:20:47Z</time></trkpt><trkpt lat="38.05540206913613" lon="-1.1898396319834388"><ele>113.0</ele><time>2026-04-07T07:20:50Z</time></trkpt><trkpt lat="38.055466027572955" lon="-1.1898707352743916"><ele>112.99999999999999</ele><time>2026-04-07T07:20:53Z</time></trkpt><trkpt lat="38.055540588663774" lon="-1.189815922913684"><ele>113.0</ele><time>2026-04-07T07:20:55Z</time></trkpt><trkpt lat="38.05557101424014" lon="-1.1896887317416276"><ele>113.0</ele><time>2026-04-07T07:20:57Z</time></trkpt><trkpt lat="38.05558253122752" lon="-1.1896036783550694"><ele>113.0</ele><time>2026-04-07T07:20:59Z</time></trkpt><trkpt lat="38.05559225575917" lon="-1.1895110881359814"><ele>112.99999999999999</ele><time>2026-04-07T07:21:01Z</time></trkpt><trkpt lat="38.05557994830843" lon="-1.189426987767502"><ele>113.0</ele><time>2026-04-07T07:21:02Z</time></trkpt><trkpt lat="38.055564435163916" lon="-1.1893438635670832"><ele>112.99999999999999</ele><time>2026-04-07T07:21:03Z</time></trkpt><trkpt lat="38.05554816756658" lon="-1.189261829397482"><ele>113.0</ele><time>2026-04-07T07:21:04Z</time></trkpt><trkpt lat="38.05550622383911" lon="-1.1891352037858796"><ele>113.0</ele><time>2026-04-07T07:21:06Z</time></trkpt><trkpt lat="38.05545893227648" lon="-1.1890542535992787"><ele>113.0</ele><time>2026-04-07T07:21:07Z</time></trkpt><trkpt lat="38.05541750313445" lon="-1.188973813380039"><ele>112.99999999999999</ele><time>2026-04-07T07:21:08Z</time></trkpt><trkpt lat="38.055379591857296" lon="-1.1888970150517353"><ele>113.0</ele><time>2026-04-07T07:21:09Z</time></trkpt><trkpt lat="38.05533150849854" lon="-1.1888258438178037"><ele>113.66666666666666</ele><time>2026-04-07T07:21:10Z</time></trkpt><trkpt lat="38.05527589090015" lon="-1.1887391813799475"><ele>114.33333333333333</ele><time>2026-04-07T07:21:11Z</time></trkpt><trkpt lat="38.0552299314516" lon="-1.1886505900004996"><ele>115.0</ele><time>2026-04-07T07:21:12Z</time></trkpt><trkpt lat="38.05515529485132" lon="-1.1885334180543758"><ele>115.66666666666666</ele><time>2026-04-07T07:21:14Z</time></trkpt><trkpt lat="38.05510913446876" lon="-1.18846062404364"><ele>116.33333333333333</ele><time>2026-04-07T07:21:15Z</time></trkpt><trkpt lat="38.05507001689095" lon="-1.1883747683249772"><ele>117.0</ele><time>2026-04-07T07:21:16Z</time></trkpt><trkpt lat="38.0550265642306" lon="-1.18829778224352"><ele>117.0</ele><time>2026-04-07T07:21:17Z</time></trkpt><trkpt lat="38.05498528361756" lon="-1.1882216607607166"><ele>117.0</ele><time>2026-04-07T07:21:18Z</time></trkpt><trkpt lat="38.054946875707536" lon="-1.1881389399064153"><ele>117.0</ele><time>2026-04-07T07:21:19Z</time></trkpt><trkpt lat="38.054896628830505" lon="-1.1880628121542114"><ele>117.0</ele><time>2026-04-07T07:21:20Z</time></trkpt><trkpt lat="38.05485669803748" lon="-1.1879960239385912"><ele>117.0</ele><time>2026-04-07T07:21:21Z</time></trkpt><trkpt lat="38.05478543825728" lon="-1.1878805250451123"><ele>117.0</ele><time>2026-04-07T07:21:23Z</time></trkpt><trkpt lat="38.0547195781549" lon="-1.1877810245219216"><ele>118.19999999999999</ele><time>2026-04-07T07:21:25Z</time></trkpt><trkpt lat="38.054694308505695" lon="-1.1876870427388184"><ele>119.39999999999999</ele><time>2026-04-07T07:21:27Z</time></trkpt><trkpt lat="38.0546629228944" lon="-1.1875552345898004"><ele>120.60000000000001</ele><time>2026-04-07T07:21:29Z</time></trkpt><trkpt lat="38.05466552938174" lon="-1.1874242273783777"><ele>121.80000000000001</ele><time>2026-04-07T07:21:31Z</time></trkpt><trkpt lat="38.054640224706176" lon="-1.1873098749701871"><ele>123.0</ele><time>2026-04-07T07:21:33Z</time></trkpt><trkpt lat="38.05469173724162" lon="-1.187180420189114"><ele>123.0</ele><time>2026-04-07T07:21:35Z</time></trkpt><trkpt lat="38.05474214109006" lon="-1.1871272234371648"><ele>123.0</ele><time>2026-04-07T07:21:36Z</time></trkpt><trkpt lat="38.054789936981074" lon="-1.1870456857666654"><ele>123.0</ele><time>2026-04-07T07:21:37Z</time></trkpt><trkpt lat="38.054831408586644" lon="-1.1869505311948125"><ele>123.0</ele><time>2026-04-07T07:21:38Z</time></trkpt><trkpt lat="38.05486662916788" lon="-1.1868641573440464"><ele>123.0</ele><time>2026-04-07T07:21:39Z</time></trkpt><trkpt lat="38.054884168603245" lon="-1.1867294224560827"><ele>123.0</ele><time>2026-04-07T07:21:41Z</time></trkpt><trkpt lat="38.0548985559973" lon="-1.186612090267378"><ele>123.25</ele><time>2026-04-07T07:21:43Z</time></trkpt><trkpt lat="38.05487576409217" lon="-1.186475757645891"><ele>123.5</ele><time>2026-04-07T07:21:45Z</time></trkpt><trkpt lat="38.05484057436986" lon="-1.186359095089891"><ele>123.75</ele><time>2026-04-07T07:21:47Z</time></trkpt><trkpt lat="38.05471261417252" lon="-1.186175110410539"><ele>124.0</ele><time>2026-04-07T07:21:50Z</time></trkpt><trkpt lat="38.054675773016534" lon="-1.1860669418528358"><ele>124.0</ele><time>2026-04-07T07:21:53Z</time></trkpt><trkpt lat="38.05474310948544" lon="-1.185953701184344"><ele>124.0</ele><time>2026-04-07T07:21:55Z</time></trkpt><trkpt lat="38.054772987902915" lon="-1.185864383825895"><ele>124.0</ele><time>2026-04-07T07:21:56Z</time></trkpt><trkpt lat="38.05477142955155" lon="-1.1856938920563718"><ele>124.0</ele><time>2026-04-07T07:21:58Z</time></trkpt><trkpt lat="38.054791167924236" lon="-1.1855192036990747"><ele>124.00000000000001</ele><time>2026-04-07T07:22:00Z</time></trkpt><trkpt lat="38.05480266672205" lon="-1.1854314798693009"><ele>124.0</ele><time>2026-04-07T07:22:01Z</time></trkpt><trkpt lat="38.0548038553017" lon="-1.1853320933942681"><ele>124.0</ele><time>2026-04-07T07:22:02Z</time></trkpt><trkpt lat="38.05481913970427" lon="-1.185222441024801"><ele>124.0</ele><time>2026-04-07T07:22:03Z</time></trkpt><trkpt lat="38.054839624245915" lon="-1.1850951501913283"><ele>124.00000000000001</ele><time>2026-04-07T07:22:04Z</time></trkpt><trkpt lat="38.054836489687304" lon="-1.185012635893255"><ele>124.0</ele><time>2026-04-07T07:22:05Z</time></trkpt><trkpt lat="38.05478475702908" lon="-1.1849201281088155"><ele>124.0</ele><time>2026-04-07T07:22:06Z</time></trkpt><trkpt lat="38.05473804247742" lon="-1.1848465542259874"><ele>124.00000000000001</ele><time>2026-04-07T07:22:07Z</time></trkpt><trkpt lat="38.054700823016304" lon="-1.1847673776126106"><ele>124.0</ele><time>2026-04-07T07:22:08Z</time></trkpt><trkpt lat="38.05463175953043" lon="-1.1847099364957778"><ele>124.0</ele><time>2026-04-07T07:22:09Z</time></trkpt><trkpt lat="38.05458821230528" lon="-1.1846297168712638"><ele>124.00000000000001</ele><time>2026-04-07T07:22:10Z</time></trkpt><trkpt lat="38.05455291399529" lon="-1.1845569106397955"><ele>124.0</ele><time>2026-04-07T07:22:11Z</time></trkpt><trkpt lat="38.054533293850575" lon="-1.1844799958073342"><ele>124.0</ele><time>2026-04-07T07:22:12Z</time></trkpt><trkpt lat="38.05447945235073" lon="-1.1843791873559606"><ele>123.66666666666667</ele><time>2026-04-07T07:22:13Z</time></trkpt><trkpt lat="38.05443000728768" lon="-1.1842800177143393"><ele>123.33333333333334</ele><time>2026-04-07T07:22:14Z</time></trkpt><trkpt lat="38.054391738052246" lon="-1.1841867051883312"><ele>123.0</ele><time>2026-04-07T07:22:15Z</time></trkpt><trkpt lat="38.05435271173534" lon="-1.1840978399006872"><ele>122.66666666666666</ele><time>2026-04-07T07:22:16Z</time></trkpt><trkpt lat="38.05429909248936" lon="-1.1840160054621862"><ele>122.33333333333333</ele><time>2026-04-07T07:22:17Z</time></trkpt><trkpt lat="38.05423719862491" lon="-1.1839299867254272"><ele>122.0</ele><time>2026-04-07T07:22:18Z</time></trkpt><trkpt lat="38.05418388151507" lon="-1.183851782411216"><ele>121.83333333333333</ele><time>2026-04-07T07:22:19Z</time></trkpt><trkpt lat="38.05413871746314" lon="-1.1837862773240273"><ele>121.66666666666666</ele><time>2026-04-07T07:22:20Z</time></trkpt><trkpt lat="38.054086173899634" lon="-1.1837139632061104"><ele>121.5</ele><time>2026-04-07T07:22:21Z</time></trkpt><trkpt lat="38.054037320737294" lon="-1.1836287531529577"><ele>121.33333333333334</ele><time>2026-04-07T07:22:22Z</time></trkpt><trkpt lat="38.05400687310576" lon="-1.183544835172505"><ele>121.16666666666667</ele><time>2026-04-07T07:22:23Z</time></trkpt><trkpt lat="38.05399423197167" lon="-1.1834564653429502"><ele>121.0</ele><time>2026-04-07T07:22:24Z</time></trkpt><trkpt lat="38.053978470573604" lon="-1.1833579756087547"><ele>121.4</ele><time>2026-04-07T07:22:25Z</time></trkpt><trkpt lat="38.05393960287903" lon="-1.1832452316987074"><ele>121.8</ele><time>2026-04-07T07:22:27Z</time></trkpt><trkpt lat="38.05387081150691" lon="-1.1832030441414667"><ele>122.20000000000002</ele><time>2026-04-07T07:22:29Z</time></trkpt><trkpt lat="38.05381735938894" lon="-1.1831442456689496"><ele>122.60000000000001</ele><time>2026-04-07T07:22:33Z</time></trkpt><trkpt lat="38.05380806497682" lon="-1.183060448240157"><ele>123.0</ele><time>2026-04-07T07:22:35Z</time></trkpt><trkpt lat="38.05388264115634" lon="-1.1827559452178191"><ele>123.0</ele><time>2026-04-07T07:22:36Z</time></trkpt><trkpt lat="38.053894737814254" lon="-1.1826400749900878"><ele>123.00000000000001</ele><time>2026-04-07T07:22:38Z</time></trkpt><trkpt lat="38.05390715509659" lon="-1.182499274470341"><ele>123.00000000000001</ele><time>2026-04-07T07:22:40Z</time></trkpt><trkpt lat="38.05398031104656" lon="-1.1823643627149303"><ele>123.0</ele><time>2026-04-07T07:22:41Z</time></trkpt><trkpt lat="38.05404074909429" lon="-1.18227322739157"><ele>123.0</ele><time>2026-04-07T07:22:42Z</time></trkpt><trkpt lat="38.05406972601047" lon="-1.1821698926280213"><ele>123.66666666666667</ele><time>2026-04-07T07:22:43Z</time></trkpt><trkpt lat="38.05408635690596" lon="-1.1820715024184794"><ele>124.33333333333334</ele><time>2026-04-07T07:22:44Z</time></trkpt><trkpt lat="38.054079212898" lon="-1.1819044770481626"><ele>125.0</ele><time>2026-04-07T07:22:46Z</time></trkpt><trkpt lat="38.05408302062318" lon="-1.1818165444574007"><ele>125.66666666666667</ele><time>2026-04-07T07:22:47Z</time></trkpt><trkpt lat="38.05407156078692" lon="-1.1817335273636136"><ele>126.33333333333334</ele><time>2026-04-07T07:22:48Z</time></trkpt><trkpt lat="38.05414696628935" lon="-1.181645773050552"><ele>127.0</ele><time>2026-04-07T07:22:51Z</time></trkpt><trkpt lat="38.05429558442698" lon="-1.1815735396280276"><ele>127.39999999999999</ele><time>2026-04-07T07:22:53Z</time></trkpt><trkpt lat="38.05436762898836" lon="-1.1815294927840774"><ele>127.79999999999998</ele><time>2026-04-07T07:22:54Z</time></trkpt><trkpt lat="38.05443548426042" lon="-1.1814750598320212"><ele>128.2</ele><time>2026-04-07T07:22:55Z</time></trkpt><trkpt lat="38.05450806139739" lon="-1.181416146222414"><ele>128.6</ele><time>2026-04-07T07:22:56Z</time></trkpt><trkpt lat="38.054590134574894" lon="-1.181339407580247"><ele>129.0</ele><time>2026-04-07T07:22:57Z</time></trkpt><trkpt lat="38.054781689014604" lon="-1.1812236828395857"><ele>129.6</ele><time>2026-04-07T07:22:59Z</time></trkpt><trkpt lat="38.05470566618324" lon="-1.1811234424055097"><ele>130.2</ele><time>2026-04-07T07:23:00Z</time></trkpt><trkpt lat="38.05472799669966" lon="-1.1809841800855674"><ele>130.79999999999998</ele><time>2026-04-07T07:23:02Z</time></trkpt><trkpt lat="38.05471433003244" lon="-1.180885666855483"><ele>131.4</ele><time>2026-04-07T07:23:03Z</time></trkpt><trkpt lat="38.05469646730099" lon="-1.1807846796582215"><ele>132.0</ele><time>2026-04-07T07:23:04Z</time></trkpt><trkpt lat="38.05468383273895" lon="-1.1806989617304333"><ele>132.6</ele><time>2026-04-07T07:23:05Z</time></trkpt><trkpt lat="38.05463510751313" lon="-1.1805423206338943"><ele>133.2</ele><time>2026-04-07T07:23:07Z</time></trkpt><trkpt lat="38.05460321902778" lon="-1.1804588035700205"><ele>133.8</ele><time>2026-04-07T07:23:08Z</time></trkpt><trkpt lat="38.0545626449634" lon="-1.180391576017544"><ele>134.4</ele><time>2026-04-07T07:23:09Z</time></trkpt><trkpt lat="38.05451995401299" lon="-1.180277805934248"><ele>135.0</ele><time>2026-04-07T07:23:11Z</time></trkpt><trkpt lat="38.05454722903758" lon="-1.1801526400624553"><ele>135.0</ele><time>2026-04-07T07:23:13Z</time></trkpt><trkpt lat="38.05458684240895" lon="-1.180022067597166"><ele>135.0</ele><time>2026-04-07T07:23:15Z</time></trkpt><trkpt lat="38.054629619427104" lon="-1.1799214373441673"><ele>135.0</ele><time>2026-04-07T07:23:17Z</time></trkpt><trkpt lat="38.05463438056035" lon="-1.1798398366792937"><ele>135.0</ele><time>2026-04-07T07:23:18Z</time></trkpt><trkpt lat="38.05463141035765" lon="-1.1797518029562923"><ele>135.0</ele><time>2026-04-07T07:23:19Z</time></trkpt><trkpt lat="38.05465011296532" lon="-1.1796655204141506"><ele>135.0</ele><time>2026-04-07T07:23:20Z</time></trkpt><trkpt lat="38.05468535392435" lon="-1.1795920023005335"><ele>136.0</ele><time>2026-04-07T07:23:21Z</time></trkpt><trkpt lat="38.05475447407052" lon="-1.1794791139496428"><ele>137.0</ele><time>2026-04-07T07:23:23Z</time></trkpt><trkpt lat="38.054794665772896" lon="-1.1793545983807456"><ele>138.0</ele><time>2026-04-07T07:23:25Z</time></trkpt><trkpt lat="38.05485577938918" lon="-1.1792465329685549"><ele>139.0</ele><time>2026-04-07T07:23:27Z</time></trkpt><trkpt lat="38.054886942256125" lon="-1.1791703400667728"><ele>140.0</ele><time>2026-04-07T07:23:28Z</time></trkpt><trkpt lat="38.0548961336173" lon="-1.1790789014375858"><ele>140.16666666666666</ele><time>2026-04-07T07:23:29Z</time></trkpt><trkpt lat="38.05490576719033" lon="-1.1789776969542514"><ele>140.33333333333331</ele><time>2026-04-07T07:23:30Z</time></trkpt><trkpt lat="38.05491537591677" lon="-1.1788591753795366"><ele>140.5</ele><time>2026-04-07T07:23:31Z</time></trkpt><trkpt lat="38.054914322749916" lon="-1.17875212758546"><ele>140.66666666666666</ele><time>2026-04-07T07:23:32Z</time></trkpt><trkpt lat="38.05490535527911" lon="-1.178661818050003"><ele>140.83333333333334</ele><time>2026-04-07T07:23:33Z</time></trkpt><trkpt lat="38.05485245017532" lon="-1.1785287277460699"><ele>141.0</ele><time>2026-04-07T07:23:35Z</time></trkpt><trkpt lat="38.05480976827831" lon="-1.1784440740339803"><ele>141.0</ele><time>2026-04-07T07:23:36Z</time></trkpt><trkpt lat="38.054777710464876" lon="-1.1783530177704453"><ele>141.0</ele><time>2026-04-07T07:23:37Z</time></trkpt><trkpt lat="38.054731056053285" lon="-1.1782951965335442"><ele>141.0</ele><time>2026-04-07T07:23:38Z</time></trkpt><trkpt lat="38.054655225492105" lon="-1.1782358394503"><ele>141.0</ele><time>2026-04-07T07:23:39Z</time></trkpt><trkpt lat="38.054570007042926" lon="-1.17815433520009"><ele>141.0</ele><time>2026-04-07T07:23:40Z</time></trkpt><trkpt lat="38.054496554323414" lon="-1.1780714216409416"><ele>141.0</ele><time>2026-04-07T07:23:41Z</time></trkpt><trkpt lat="38.05443915634452" lon="-1.1780052000816237"><ele>140.8</ele><time>2026-04-07T07:23:42Z</time></trkpt><trkpt lat="38.054377986901514" lon="-1.1778761715127917"><ele>140.6</ele><time>2026-04-07T07:23:44Z</time></trkpt><trkpt lat="38.05437251930367" lon="-1.1777489124497387"><ele>140.4</ele><time>2026-04-07T07:23:46Z</time></trkpt><trkpt lat="38.054427550987434" lon="-1.1776280645817157"><ele>140.2</ele><time>2026-04-07T07:23:48Z</time></trkpt><trkpt lat="38.05448928141691" lon="-1.177578887451473"><ele>140.0</ele><time>2026-04-07T07:23:49Z</time></trkpt><trkpt lat="38.05455166485217" lon="-1.1775382553209843"><ele>140.0</ele><time>2026-04-07T07:23:50Z</time></trkpt><trkpt lat="38.05461898966429" lon="-1.1775054193227625"><ele>140.0</ele><time>2026-04-07T07:23:51Z</time></trkpt><trkpt lat="38.054690490701894" lon="-1.1774814383377679"><ele>140.0</ele><time>2026-04-07T07:23:52Z</time></trkpt><trkpt lat="38.05475941871854" lon="-1.177449411129828"><ele>140.0</ele><time>2026-04-07T07:23:53Z</time></trkpt><trkpt lat="38.054830830193275" lon="-1.1773938165403703"><ele>140.0</ele><time>2026-04-07T07:23:54Z</time></trkpt><trkpt lat="38.05491450931936" lon="-1.1773492924340514"><ele>140.0</ele><time>2026-04-07T07:23:55Z</time></trkpt><trkpt lat="38.054977247173646" lon="-1.177319848435915"><ele>140.0</ele><time>2026-04-07T07:23:56Z</time></trkpt><trkpt lat="38.0550359626979" lon="-1.1772780780404324"><ele>140.0</ele><time>2026-04-07T07:23:57Z</time></trkpt><trkpt lat="38.0551042316349" lon="-1.1772104166715858"><ele>140.0</ele><time>2026-04-07T07:23:59Z</time></trkpt><trkpt lat="38.055070267367626" lon="-1.1770596341049102"><ele>140.0</ele><time>2026-04-07T07:24:01Z</time></trkpt><trkpt lat="38.05498963110813" lon="-1.1769452589568037"><ele>140.0</ele><time>2026-04-07T07:24:03Z</time></trkpt><trkpt lat="38.054888351734256" lon="-1.1768648578706187"><ele>140.6</ele><time>2026-04-07T07:24:05Z</time></trkpt><trkpt lat="38.05482084107904" lon="-1.1768427575431033"><ele>141.2</ele><time>2026-04-07T07:24:06Z</time></trkpt><trkpt lat="38.05469480789987" lon="-1.1768393977942422"><ele>141.8</ele><time>2026-04-07T07:24:08Z</time></trkpt><trkpt lat="38.05462409130732" lon="-1.176834868108451"><ele>142.4</ele><time>2026-04-07T07:24:09Z</time></trkpt><trkpt lat="38.05450642811816" lon="-1.1768450381030422"><ele>143.0</ele><time>2026-04-07T07:24:11Z</time></trkpt><trkpt lat="38.054441103078304" lon="-1.176815270715004"><ele>143.0</ele><time>2026-04-07T07:24:12Z</time></trkpt><trkpt lat="38.05437041104049" lon="-1.176764990402249"><ele>143.0</ele><time>2026-04-07T07:24:13Z</time></trkpt><trkpt lat="38.05432200590286" lon="-1.1766731262267007"><ele>143.0</ele><time>2026-04-07T07:24:15Z</time></trkpt><trkpt lat="38.054373100412185" lon="-1.1765501220150003"><ele>143.0</ele><time>2026-04-07T07:24:17Z</time></trkpt><trkpt lat="38.05442681952068" lon="-1.1765054010930134"><ele>143.0</ele><time>2026-04-07T07:24:18Z</time></trkpt><trkpt lat="38.05447707334382" lon="-1.176400693639386"><ele>143.0</ele><time>2026-04-07T07:24:20Z</time></trkpt><trkpt lat="38.054467157391386" lon="-1.1763070954004782"><ele>143.6</ele><time>2026-04-07T07:24:21Z</time></trkpt><trkpt lat="38.05446225370288" lon="-1.176210190978702"><ele>144.20000000000002</ele><time>2026-04-07T07:24:22Z</time></trkpt><trkpt lat="38.054473193912266" lon="-1.1761234819783877"><ele>144.8</ele><time>2026-04-07T07:24:23Z</time></trkpt><trkpt lat="38.05449516198873" lon="-1.1759741344759145"><ele>145.4</ele><time>2026-04-07T07:24:25Z</time></trkpt><trkpt lat="38.054556306592836" lon="-1.1758632690497333"><ele>146.0</ele><time>2026-04-07T07:24:27Z</time></trkpt><trkpt lat="38.0546604488921" lon="-1.1757796926680621"><ele>146.0</ele><time>2026-04-07T07:24:29Z</time></trkpt><trkpt lat="38.05472208854985" lon="-1.1757453293765003"><ele>146.0</ele><time>2026-04-07T07:24:30Z</time></trkpt><trkpt lat="38.05476592678209" lon="-1.1756830083815755"><ele>146.0</ele><time>2026-04-07T07:24:31Z</time></trkpt><trkpt lat="38.05477480512996" lon="-1.1755478417228309"><ele>146.0</ele><time>2026-04-07T07:24:33Z</time></trkpt><trkpt lat="38.054797912841224" lon="-1.1754233002647383"><ele>146.0</ele><time>2026-04-07T07:24:35Z</time></trkpt><trkpt lat="38.05482855867759" lon="-1.1753336342679856"><ele>146.0</ele><time>2026-04-07T07:24:37Z</time></trkpt><trkpt lat="38.05483500085689" lon="-1.1752035451931662"><ele>146.33333333333331</ele><time>2026-04-07T07:24:39Z</time></trkpt><trkpt lat="38.054874948227656" lon="-1.175085565110641"><ele>146.66666666666666</ele><time>2026-04-07T07:24:41Z</time></trkpt><trkpt lat="38.05493679131659" lon="-1.175032526255902"><ele>147.0</ele><time>2026-04-07T07:24:42Z</time></trkpt><trkpt lat="38.05500559390958" lon="-1.174991178466163"><ele>147.33333333333334</ele><time>2026-04-07T07:24:43Z</time></trkpt><trkpt lat="38.055088415555296" lon="-1.1749616986434401"><ele>147.66666666666669</ele><time>2026-04-07T07:24:44Z</time></trkpt><trkpt lat="38.0551644743548" lon="-1.1749373381178188"><ele>148.0</ele><time>2026-04-07T07:24:45Z</time></trkpt><trkpt lat="38.05522656653731" lon="-1.1748997455450318"><ele>148.83333333333334</ele><time>2026-04-07T07:24:46Z</time></trkpt><trkpt lat="38.05528126561576" lon="-1.1748466870827174"><ele>149.66666666666669</ele><time>2026-04-07T07:24:47Z</time></trkpt><trkpt lat="38.0553329874816" lon="-1.174799089015075"><ele>150.5</ele><time>2026-04-07T07:24:48Z</time></trkpt><trkpt lat="38.05538008347859" lon="-1.174740669328934"><ele>151.33333333333334</ele><time>2026-04-07T07:24:49Z</time></trkpt><trkpt lat="38.05546261213926" lon="-1.1746545614979622"><ele>152.16666666666666</ele><time>2026-04-07T07:24:51Z</time></trkpt><trkpt lat="38.055575453456036" lon="-1.1746244127583034"><ele>153.0</ele><time>2026-04-07T07:24:53Z</time></trkpt><trkpt lat="38.055637429444985" lon="-1.1746088849464267"><ele>153.0</ele><time>2026-04-07T07:24:54Z</time></trkpt><trkpt lat="38.05571031936138" lon="-1.1745948824464159"><ele>153.0</ele><time>2026-04-07T07:24:55Z</time></trkpt><trkpt lat="38.05576566001477" lon="-1.174548589438916"><ele>153.0</ele><time>2026-04-07T07:24:56Z</time></trkpt><trkpt lat="38.05582851577805" lon="-1.1745049718478424"><ele>153.0</ele><time>2026-04-07T07:24:57Z</time></trkpt><trkpt lat="38.055890271767545" lon="-1.1744741181447886"><ele>153.0</ele><time>2026-04-07T07:24:58Z</time></trkpt><trkpt lat="38.056007334874316" lon="-1.1744195540701907"><ele>153.0</ele><time>2026-04-07T07:25:00Z</time></trkpt><trkpt lat="38.05607719158735" lon="-1.1743643087191549"><ele>153.4</ele><time>2026-04-07T07:25:01Z</time></trkpt><trkpt lat="38.0561378107964" lon="-1.1743072614237657"><ele>153.8</ele><time>2026-04-07T07:25:02Z</time></trkpt><trkpt lat="38.056220149829684" lon="-1.1742125473351288"><ele>154.2</ele><time>2026-04-07T07:25:04Z</time></trkpt><trkpt lat="38.05626894351552" lon="-1.1740704330256269"><ele>154.6</ele><time>2026-04-07T07:25:06Z</time></trkpt><trkpt lat="38.056334746061445" lon="-1.173978775966555"><ele>155.0</ele><time>2026-04-07T07:25:08Z</time></trkpt><trkpt lat="38.05641498649191" lon="-1.1738548790449626"><ele>155.0</ele><time>2026-04-07T07:25:10Z</time></trkpt><trkpt lat="38.05642861796833" lon="-1.1737695239945298"><ele>155.0</ele><time>2026-04-07T07:25:11Z</time></trkpt><trkpt lat="38.056465441388205" lon="-1.1736394963819994"><ele>155.0</ele><time>2026-04-07T07:25:13Z</time></trkpt><trkpt lat="38.05646631748163" lon="-1.1735447134796158"><ele>155.0</ele><time>2026-04-07T07:25:15Z</time></trkpt><trkpt lat="38.05642435728826" lon="-1.1734847343796733"><ele>155.0</ele><time>2026-04-07T07:25:16Z</time></trkpt><trkpt lat="38.056365858626506" lon="-1.17336570060827"><ele>155.0</ele><time>2026-04-07T07:25:18Z</time></trkpt><trkpt lat="38.056317673570256" lon="-1.173222344244422"><ele>156.4</ele><time>2026-04-07T07:25:20Z</time></trkpt><trkpt lat="38.05636257217229" lon="-1.1730989628014292"><ele>157.8</ele><time>2026-04-07T07:25:22Z</time></trkpt><trkpt lat="38.05646008471674" lon="-1.1729806158568126"><ele>159.2</ele><time>2026-04-07T07:25:24Z</time></trkpt><trkpt lat="38.056493412993156" lon="-1.1728725183560285"><ele>160.6</ele><time>2026-04-07T07:25:25Z</time></trkpt><trkpt lat="38.05653524876266" lon="-1.1727840269730805"><ele>162.0</ele><time>2026-04-07T07:25:26Z</time></trkpt><trkpt lat="38.056590447379776" lon="-1.1727354642489698"><ele>160.83333333333334</ele><time>2026-04-07T07:25:27Z</time></trkpt><trkpt lat="38.056663072753594" lon="-1.1727137806350603"><ele>159.66666666666666</ele><time>2026-04-07T07:25:28Z</time></trkpt><trkpt lat="38.056726751341124" lon="-1.1727077958718302"><ele>158.5</ele><time>2026-04-07T07:25:29Z</time></trkpt><trkpt lat="38.05682758844658" lon="-1.1726106749131917"><ele>157.33333333333331</ele><time>2026-04-07T07:25:33Z</time></trkpt><trkpt lat="38.056900341796286" lon="-1.1725401518958274"><ele>156.16666666666666</ele><time>2026-04-07T07:25:34Z</time></trkpt><trkpt lat="38.05695248344638" lon="-1.1724692484539387"><ele>155.0</ele><time>2026-04-07T07:25:35Z</time></trkpt><trkpt lat="38.05700661247517" lon="-1.1723686558953994"><ele>155.5</ele><time>2026-04-07T07:25:36Z</time></trkpt><trkpt lat="38.05707425916536" lon="-1.1722764466563342"><ele>156.0</ele><time>2026-04-07T07:25:37Z</time></trkpt><trkpt lat="38.05712681957503" lon="-1.1721949922386263"><ele>156.5</ele><time>2026-04-07T07:25:38Z</time></trkpt><trkpt lat="38.0571612029717" lon="-1.1721164239217028"><ele>157.0</ele><time>2026-04-07T07:25:39Z</time></trkpt><trkpt lat="38.057178890367624" lon="-1.1720192219657293"><ele>157.5</ele><time>2026-04-07T07:25:40Z</time></trkpt><trkpt lat="38.05716915356415" lon="-1.171884838625483"><ele>158.0</ele><time>2026-04-07T07:25:41Z</time></trkpt><trkpt lat="38.0571691007556" lon="-1.1717487342776562"><ele>158.0</ele><time>2026-04-07T07:25:42Z</time></trkpt><trkpt lat="38.05717952949282" lon="-1.1716334094376752"><ele>158.0</ele><time>2026-04-07T07:25:43Z</time></trkpt><trkpt lat="38.05718042701504" lon="-1.1715405153804135"><ele>158.0</ele><time>2026-04-07T07:25:44Z</time></trkpt><trkpt lat="38.05717472534577" lon="-1.1714188092263753"><ele>158.0</ele><time>2026-04-07T07:25:46Z</time></trkpt><trkpt lat="38.05718441302297" lon="-1.1713007969723035"><ele>158.0</ele><time>2026-04-07T07:25:48Z</time></trkpt><trkpt lat="38.05723060896594" lon="-1.1711514918304557"><ele>158.60000000000002</ele><time>2026-04-07T07:25:50Z</time></trkpt><trkpt lat="38.05725961310277" lon="-1.1710080804352505"><ele>159.20000000000002</ele><time>2026-04-07T07:25:52Z</time></trkpt><trkpt lat="38.05730411458778" lon="-1.17091372102632"><ele>159.8</ele><time>2026-04-07T07:25:54Z</time></trkpt><trkpt lat="38.05740849057519" lon="-1.1708461685288243"><ele>160.4</ele><time>2026-04-07T07:25:56Z</time></trkpt><trkpt lat="38.05747662692583" lon="-1.1707083509895944"><ele>161.0</ele><time>2026-04-07T07:25:58Z</time></trkpt><trkpt lat="38.05751654984761" lon="-1.1706218212877544"><ele>161.66666666666666</ele><time>2026-04-07T07:25:59Z</time></trkpt><trkpt lat="38.05755752417159" lon="-1.1705572569276432"><ele>162.33333333333331</ele><time>2026-04-07T07:26:00Z</time></trkpt><trkpt lat="38.057586180886354" lon="-1.1704646134374679"><ele>163.0</ele><time>2026-04-07T07:26:01Z</time></trkpt><trkpt lat="38.05762761812355" lon="-1.170370804158703"><ele>163.66666666666666</ele><time>2026-04-07T07:26:02Z</time></trkpt><trkpt lat="38.057684356817774" lon="-1.1703004748277874"><ele>164.33333333333334</ele><time>2026-04-07T07:26:03Z</time></trkpt><trkpt lat="38.057741698497516" lon="-1.1702493014271054"><ele>165.0</ele><time>2026-04-07T07:26:04Z</time></trkpt><trkpt lat="38.05780260070741" lon="-1.1701364657427684"><ele>165.0</ele><time>2026-04-07T07:26:06Z</time></trkpt><trkpt lat="38.05782555807659" lon="-1.169981816210258"><ele>165.0</ele><time>2026-04-07T07:26:08Z</time></trkpt><trkpt lat="38.05784055886063" lon="-1.1698958727831719"><ele>165.0</ele><time>2026-04-07T07:26:09Z</time></trkpt><trkpt lat="38.05790143550952" lon="-1.1698085227465007"><ele>165.0</ele><time>2026-04-07T07:26:11Z</time></trkpt><trkpt lat="38.05801864363689" lon="-1.1698733851787921"><ele>165.0</ele><time>2026-04-07T07:26:13Z</time></trkpt><trkpt lat="38.058067992413214" lon="-1.1699268748920535"><ele>165.0</ele><time>2026-04-07T07:26:14Z</time></trkpt><trkpt lat="38.05814353497382" lon="-1.1699357876572005"><ele>165.0</ele><time>2026-04-07T07:26:16Z</time></trkpt><trkpt lat="38.05820528926607" lon="-1.1699185441315096"><ele>165.0</ele><time>2026-04-07T07:26:17Z</time></trkpt><trkpt lat="38.058288401174615" lon="-1.169940951502216"><ele>165.0</ele><time>2026-04-07T07:26:18Z</time></trkpt><trkpt lat="38.0583899588478" lon="-1.169974690889675"><ele>165.0</ele><time>2026-04-07T07:26:20Z</time></trkpt><trkpt lat="38.05847233935474" lon="-1.1699195433225484"><ele>165.0</ele><time>2026-04-07T07:26:22Z</time></trkpt><trkpt lat="38.058577514175056" lon="-1.1698754868698127"><ele>165.16666666666666</ele><time>2026-04-07T07:26:24Z</time></trkpt><trkpt lat="38.05865384357064" lon="-1.1698839785224042"><ele>165.33333333333334</ele><time>2026-04-07T07:26:25Z</time></trkpt><trkpt lat="38.05873936841081" lon="-1.1698766957418454"><ele>165.5</ele><time>2026-04-07T07:26:26Z</time></trkpt><trkpt lat="38.05882480417284" lon="-1.1698560349713831"><ele>165.66666666666669</ele><time>2026-04-07T07:26:27Z</time></trkpt><trkpt lat="38.058912009314845" lon="-1.1698499886565197"><ele>165.83333333333334</ele><time>2026-04-07T07:26:28Z</time></trkpt><trkpt lat="38.058990117393755" lon="-1.169842094918607"><ele>166.0</ele><time>2026-04-07T07:26:29Z</time></trkpt><trkpt lat="38.05905854864692" lon="-1.169801618192838"><ele>166.66666666666669</ele><time>2026-04-07T07:26:30Z</time></trkpt><trkpt lat="38.05910059529114" lon="-1.1697345328886108"><ele>167.33333333333334</ele><time>2026-04-07T07:26:31Z</time></trkpt><trkpt lat="38.05912517240484" lon="-1.1696478619835873"><ele>168.0</ele><time>2026-04-07T07:26:32Z</time></trkpt><trkpt lat="38.05914836771194" lon="-1.1695499272150365"><ele>168.66666666666666</ele><time>2026-04-07T07:26:33Z</time></trkpt><trkpt lat="38.059154481938315" lon="-1.169433790267324"><ele>169.33333333333331</ele><time>2026-04-07T07:26:34Z</time></trkpt><trkpt lat="38.05916180062403" lon="-1.1693052266259638"><ele>170.0</ele><time>2026-04-07T07:26:35Z</time></trkpt><trkpt lat="38.05919404721969" lon="-1.1692024306960231"><ele>170.66666666666666</ele><time>2026-04-07T07:26:36Z</time></trkpt><trkpt lat="38.05924400961737" lon="-1.1691130501645979"><ele>171.33333333333331</ele><time>2026-04-07T07:26:37Z</time></trkpt><trkpt lat="38.05929882176032" lon="-1.1690344348422093"><ele>172.0</ele><time>2026-04-07T07:26:38Z</time></trkpt><trkpt lat="38.059365846713746" lon="-1.168970463115273"><ele>172.66666666666666</ele><time>2026-04-07T07:26:40Z</time></trkpt><trkpt lat="38.05947609322997" lon="-1.1690002542686804"><ele>173.33333333333334</ele><time>2026-04-07T07:26:42Z</time></trkpt><trkpt lat="38.05954749582721" lon="-1.1689794980533037"><ele>174.0</ele><time>2026-04-07T07:26:45Z</time></trkpt><trkpt lat="38.05970102608789" lon="-1.168950615253613"><ele>175.33333333333334</ele><time>2026-04-07T07:26:47Z</time></trkpt><trkpt lat="38.05976352306107" lon="-1.1689189464811138"><ele>176.66666666666666</ele><time>2026-04-07T07:26:48Z</time></trkpt><trkpt lat="38.059842650866976" lon="-1.168873902381472"><ele>178.0</ele><time>2026-04-07T07:26:49Z</time></trkpt><trkpt lat="38.05990316041231" lon="-1.168835755872167"><ele>179.33333333333331</ele><time>2026-04-07T07:26:50Z</time></trkpt><trkpt lat="38.059993587236015" lon="-1.1688215485073488"><ele>180.66666666666666</ele><time>2026-04-07T07:26:52Z</time></trkpt><trkpt lat="38.060124043066914" lon="-1.1688683810858003"><ele>182.0</ele><time>2026-04-07T07:26:54Z</time></trkpt><trkpt lat="38.06021243166214" lon="-1.1689043987471834"><ele>182.39999999999998</ele><time>2026-04-07T07:26:56Z</time></trkpt><trkpt lat="38.060281328037874" lon="-1.168991848853232"><ele>182.79999999999998</ele><time>2026-04-07T07:26:58Z</time></trkpt><trkpt lat="38.060368657928095" lon="-1.1690993806532646"><ele>183.2</ele><time>2026-04-07T07:27:00Z</time></trkpt><trkpt lat="38.06044674419234" lon="-1.1691233090402908"><ele>183.6</ele><time>2026-04-07T07:27:01Z</time></trkpt><trkpt lat="38.06051807073922" lon="-1.1691272351190245"><ele>184.0</ele><time>2026-04-07T07:27:02Z</time></trkpt><trkpt lat="38.06060226863167" lon="-1.1691182753324332"><ele>184.0</ele><time>2026-04-07T07:27:03Z</time></trkpt><trkpt lat="38.06068208320817" lon="-1.1690851012266783"><ele>184.0</ele><time>2026-04-07T07:27:04Z</time></trkpt><trkpt lat="38.06075857922931" lon="-1.1689416120113754"><ele>184.0</ele><time>2026-04-07T07:27:05Z</time></trkpt><trkpt lat="38.060848661364474" lon="-1.168856497143575"><ele>184.0</ele><time>2026-04-07T07:27:06Z</time></trkpt><trkpt lat="38.060918187987205" lon="-1.1687044324049898"><ele>183.16666666666669</ele><time>2026-04-07T07:27:08Z</time></trkpt><trkpt lat="38.060959270907595" lon="-1.1685899322211906"><ele>182.33333333333334</ele><time>2026-04-07T07:27:09Z</time></trkpt><trkpt lat="38.061013522742925" lon="-1.1685051703129425"><ele>181.5</ele><time>2026-04-07T07:27:10Z</time></trkpt><trkpt lat="38.06106043998666" lon="-1.1684306923725756"><ele>180.66666666666666</ele><time>2026-04-07T07:27:11Z</time></trkpt><trkpt lat="38.06111008707544" lon="-1.1683735574046767"><ele>179.83333333333331</ele><time>2026-04-07T07:27:12Z</time></trkpt><trkpt lat="38.061179777677054" lon="-1.1683420791385377"><ele>179.0</ele><time>2026-04-07T07:27:13Z</time></trkpt><trkpt lat="38.06123876972585" lon="-1.1683008050021995"><ele>180.5</ele><time>2026-04-07T07:27:14Z</time></trkpt><trkpt lat="38.06129632537364" lon="-1.1681765425687278"><ele>182.0</ele><time>2026-04-07T07:27:16Z</time></trkpt><trkpt lat="38.06134077916737" lon="-1.168109229337563"><ele>183.5</ele><time>2026-04-07T07:27:17Z</time></trkpt><trkpt lat="38.0614416714629" lon="-1.168032064325124"><ele>185.0</ele><time>2026-04-07T07:27:19Z</time></trkpt><trkpt lat="38.06148568594964" lon="-1.167973247477787"><ele>186.5</ele><time>2026-04-07T07:27:20Z</time></trkpt><trkpt lat="38.06151987311428" lon="-1.167898120922833"><ele>188.0</ele><time>2026-04-07T07:27:21Z</time></trkpt><trkpt lat="38.06157192646457" lon="-1.1677636306015928"><ele>187.16666666666666</ele><time>2026-04-07T07:27:23Z</time></trkpt><trkpt lat="38.06161849899759" lon="-1.1676863298473272"><ele>186.33333333333331</ele><time>2026-04-07T07:27:24Z</time></trkpt><trkpt lat="38.061680602240436" lon="-1.1676273919275475"><ele>185.5</ele><time>2026-04-07T07:27:25Z</time></trkpt><trkpt lat="38.06175973868672" lon="-1.1675844996128601"><ele>184.66666666666666</ele><time>2026-04-07T07:27:26Z</time></trkpt><trkpt lat="38.061835231386844" lon="-1.1675601911799967"><ele>183.83333333333334</ele><time>2026-04-07T07:27:27Z</time></trkpt><trkpt lat="38.061915155713855" lon="-1.167544723766032"><ele>183.0</ele><time>2026-04-07T07:27:28Z</time></trkpt><trkpt lat="38.061974621192455" lon="-1.1675161778522194"><ele>183.0</ele><time>2026-04-07T07:27:29Z</time></trkpt><trkpt lat="38.062038816507815" lon="-1.167374582410369"><ele>183.0</ele><time>2026-04-07T07:27:31Z</time></trkpt><trkpt lat="38.062057631607914" lon="-1.1672834914364836"><ele>183.0</ele><time>2026-04-07T07:27:32Z</time></trkpt><trkpt lat="38.06215262248072" lon="-1.1672184688619045"><ele>183.0</ele><time>2026-04-07T07:27:34Z</time></trkpt><trkpt lat="38.062243670398225" lon="-1.1672617184289409"><ele>183.0</ele><time>2026-04-07T07:27:35Z</time></trkpt><trkpt lat="38.062341100039916" lon="-1.1673180840747237"><ele>184.33333333333334</ele><time>2026-04-07T07:27:36Z</time></trkpt><trkpt lat="38.06241595333173" lon="-1.1673467831968831"><ele>185.66666666666666</ele><time>2026-04-07T07:27:37Z</time></trkpt><trkpt lat="38.062490550356465" lon="-1.167351884783993"><ele>187.0</ele><time>2026-04-07T07:27:38Z</time></trkpt><trkpt lat="38.06257086345207" lon="-1.1673175917167389"><ele>188.33333333333331</ele><time>2026-04-07T07:27:39Z</time></trkpt><trkpt lat="38.062630474968465" lon="-1.167272016092787"><ele>189.66666666666666</ele><time>2026-04-07T07:27:40Z</time></trkpt><trkpt lat="38.06273790610856" lon="-1.167232535824896"><ele>191.0</ele><time>2026-04-07T07:27:42Z</time></trkpt><trkpt lat="38.062822088059846" lon="-1.167246116434626"><ele>191.0</ele><time>2026-04-07T07:27:43Z</time></trkpt><trkpt lat="38.062942297965606" lon="-1.1672462554772751"><ele>191.0</ele><time>2026-04-07T07:27:44Z</time></trkpt><trkpt lat="38.06304170092496" lon="-1.1672210732253272"><ele>191.0</ele><time>2026-04-07T07:27:45Z</time></trkpt><trkpt lat="38.06312079091074" lon="-1.1671927611854034"><ele>191.0</ele><time>2026-04-07T07:27:46Z</time></trkpt><trkpt lat="38.06318611450427" lon="-1.1671804582000436"><ele>191.0</ele><time>2026-04-07T07:27:47Z</time></trkpt><trkpt lat="38.06330335567063" lon="-1.167206881443807"><ele>191.0</ele><time>2026-04-07T07:27:49Z</time></trkpt><trkpt lat="38.063388101717145" lon="-1.1671228982795299"><ele>191.0</ele><time>2026-04-07T07:27:51Z</time></trkpt><trkpt lat="38.06342229535249" lon="-1.1670201737896426"><ele>191.0</ele><time>2026-04-07T07:27:52Z</time></trkpt><trkpt lat="38.06344911412515" lon="-1.1668834452825383"><ele>191.0</ele><time>2026-04-07T07:27:53Z</time></trkpt><trkpt lat="38.06346746229867" lon="-1.166775381083581"><ele>191.0</ele><time>2026-04-07T07:27:54Z</time></trkpt><trkpt lat="38.06348085188815" lon="-1.1666833427078025"><ele>191.0</ele><time>2026-04-07T07:27:55Z</time></trkpt><trkpt lat="38.06348876978619" lon="-1.1665918344313786"><ele>191.0</ele><time>2026-04-07T07:27:56Z</time></trkpt><trkpt lat="38.06350219286382" lon="-1.166512279171301"><ele>191.0</ele><time>2026-04-07T07:27:57Z</time></trkpt><trkpt lat="38.06350329797021" lon="-1.166383216458778"><ele>191.0</ele><time>2026-04-07T07:27:59Z</time></trkpt><trkpt lat="38.063502183382575" lon="-1.1663027807166677"><ele>191.0</ele><time>2026-04-07T07:28:02Z</time></trkpt><trkpt lat="38.063534094865744" lon="-1.1662333305691344"><ele>191.0</ele><time>2026-04-07T07:28:06Z</time></trkpt><trkpt lat="38.06356077862093" lon="-1.1661321475819855"><ele>191.0</ele><time>2026-04-07T07:28:07Z</time></trkpt><trkpt lat="38.063615275330356" lon="-1.1660106755242097"><ele>192.8</ele><time>2026-04-07T07:28:09Z</time></trkpt><trkpt lat="38.06367936358275" lon="-1.16595693823663"><ele>194.60000000000002</ele><time>2026-04-07T07:28:11Z</time></trkpt><trkpt lat="38.063765070576714" lon="-1.1659576435877428"><ele>196.4</ele><time>2026-04-07T07:28:13Z</time></trkpt><trkpt lat="38.063850948453215" lon="-1.1659435130164506"><ele>198.2</ele><time>2026-04-07T07:28:17Z</time></trkpt><trkpt lat="38.0639274211786" lon="-1.1659090088940323"><ele>200.0</ele><time>2026-04-07T07:28:19Z</time></trkpt><trkpt lat="38.064092292742885" lon="-1.165855864963292"><ele>199.66666666666669</ele><time>2026-04-07T07:28:21Z</time></trkpt><trkpt lat="38.06413616557286" lon="-1.1657813092106157"><ele>199.33333333333334</ele><time>2026-04-07T07:28:22Z</time></trkpt><trkpt lat="38.06418973960109" lon="-1.1657114981180285"><ele>199.0</ele><time>2026-04-07T07:28:23Z</time></trkpt><trkpt lat="38.064237746378645" lon="-1.165649804736724"><ele>198.66666666666669</ele><time>2026-04-07T07:28:24Z</time></trkpt><trkpt lat="38.06427319387023" lon="-1.1655538883461467"><ele>198.33333333333334</ele><time>2026-04-07T07:28:25Z</time></trkpt><trkpt lat="38.06430528616453" lon="-1.1654119658769273"><ele>198.0</ele><time>2026-04-07T07:28:26Z</time></trkpt><trkpt lat="38.064357603748796" lon="-1.1653032983426894"><ele>198.0</ele><time>2026-04-07T07:28:27Z</time></trkpt><trkpt lat="38.06442266493192" lon="-1.1652245545401465"><ele>198.0</ele><time>2026-04-07T07:28:28Z</time></trkpt><trkpt lat="38.064457624834255" lon="-1.165147051577644"><ele>198.0</ele><time>2026-04-07T07:28:29Z</time></trkpt><trkpt lat="38.06453120786945" lon="-1.1650339801184824"><ele>198.0</ele><time>2026-04-07T07:28:30Z</time></trkpt><trkpt lat="38.06459168391826" lon="-1.1649495335581055"><ele>198.0</ele><time>2026-04-07T07:28:31Z</time></trkpt><trkpt lat="38.064629840251754" lon="-1.1648461568671318"><ele>199.4</ele><time>2026-04-07T07:28:32Z</time></trkpt><trkpt lat="38.064668181926216" lon="-1.164718595923021"><ele>200.8</ele><time>2026-04-07T07:28:34Z</time></trkpt><trkpt lat="38.06464486240811" lon="-1.1646110993261583"><ele>202.2</ele><time>2026-04-07T07:28:37Z</time></trkpt><trkpt lat="38.064644694721395" lon="-1.1645119102105757"><ele>203.6</ele><time>2026-04-07T07:28:38Z</time></trkpt><trkpt lat="38.06462558386744" lon="-1.164388191510225"><ele>205.0</ele><time>2026-04-07T07:28:40Z</time></trkpt><trkpt lat="38.064610661896594" lon="-1.1642913726129627"><ele>205.0</ele><time>2026-04-07T07:28:42Z</time></trkpt><trkpt lat="38.0646232347881" lon="-1.164192964176041"><ele>205.0</ele><time>2026-04-07T07:28:47Z</time></trkpt><trkpt lat="38.06460042736256" lon="-1.164095229198154"><ele>205.0</ele><time>2026-04-07T07:28:49Z</time></trkpt><trkpt lat="38.06453996923801" lon="-1.1639722910784887"><ele>205.0</ele><time>2026-04-07T07:28:52Z</time></trkpt><trkpt lat="38.06447967432792" lon="-1.1638425843166955"><ele>205.0</ele><time>2026-04-07T07:28:54Z</time></trkpt><trkpt lat="38.06445029131548" lon="-1.163754412605188"><ele>205.8</ele><time>2026-04-07T07:28:56Z</time></trkpt><trkpt lat="38.06440635551552" lon="-1.1635809560976704"><ele>206.6</ele><time>2026-04-07T07:28:58Z</time></trkpt><trkpt lat="38.06447270812685" lon="-1.1634838059376018"><ele>207.39999999999998</ele><time>2026-04-07T07:29:00Z</time></trkpt><trkpt lat="38.064535854717676" lon="-1.1634416252495792"><ele>208.2</ele><time>2026-04-07T07:29:01Z</time></trkpt><trkpt lat="38.06462843082716" lon="-1.1633785666926566"><ele>209.0</ele><time>2026-04-07T07:29:03Z</time></trkpt><trkpt lat="38.06469698338805" lon="-1.1633982080502314"><ele>209.0</ele><time>2026-04-07T07:29:05Z</time></trkpt><trkpt lat="38.06477037256769" lon="-1.1634463164486548"><ele>209.0</ele><time>2026-04-07T07:29:07Z</time></trkpt><trkpt lat="38.064911888111226" lon="-1.1634988655801235"><ele>209.0</ele><time>2026-04-07T07:29:09Z</time></trkpt><trkpt lat="38.064979459789114" lon="-1.1635277359112157"><ele>209.0</ele><time>2026-04-07T07:29:10Z</time></trkpt><trkpt lat="38.06507815581277" lon="-1.1635471395722887"><ele>209.0</ele><time>2026-04-07T07:29:12Z</time></trkpt><trkpt lat="38.065175781917056" lon="-1.1634277310483772"><ele>209.33333333333334</ele><time>2026-04-07T07:29:14Z</time></trkpt><trkpt lat="38.065208912858054" lon="-1.1633353995273232"><ele>209.66666666666669</ele><time>2026-04-07T07:29:15Z</time></trkpt><trkpt lat="38.06524613964498" lon="-1.1632446226801743"><ele>210.0</ele><time>2026-04-07T07:29:16Z</time></trkpt><trkpt lat="38.065266733682634" lon="-1.1631437684376882"><ele>210.33333333333331</ele><time>2026-04-07T07:29:17Z</time></trkpt><trkpt lat="38.065314997238495" lon="-1.1630678564215908"><ele>210.66666666666666</ele><time>2026-04-07T07:29:18Z</time></trkpt><trkpt lat="38.065356946030235" lon="-1.162963503681857"><ele>211.0</ele><time>2026-04-07T07:29:19Z</time></trkpt><trkpt lat="38.06538330114273" lon="-1.162872539681444"><ele>210.99999999999997</ele><time>2026-04-07T07:29:20Z</time></trkpt><trkpt lat="38.06542047321897" lon="-1.1628055731205629"><ele>211.0</ele><time>2026-04-07T07:29:21Z</time></trkpt><trkpt lat="38.06542742968522" lon="-1.1627102866335333"><ele>211.0</ele><time>2026-04-07T07:29:24Z</time></trkpt><trkpt lat="38.06548034817902" lon="-1.1626327284801836"><ele>211.0</ele><time>2026-04-07T07:29:26Z</time></trkpt><trkpt lat="38.065541153211896" lon="-1.1625795246740704"><ele>210.99999999999997</ele><time>2026-04-07T07:29:29Z</time></trkpt><trkpt lat="38.06561855146802" lon="-1.1624659186908628"><ele>211.0</ele><time>2026-04-07T07:29:30Z</time></trkpt><trkpt lat="38.06567137140646" lon="-1.1623725213349907"><ele>213.4</ele><time>2026-04-07T07:29:32Z</time></trkpt><trkpt lat="38.065688976643706" lon="-1.162270575038423"><ele>215.8</ele><time>2026-04-07T07:29:35Z</time></trkpt><trkpt lat="38.06571341498803" lon="-1.1621645235228926"><ele>218.20000000000002</ele><time>2026-04-07T07:29:37Z</time></trkpt><trkpt lat="38.06574331564919" lon="-1.16207595710199"><ele>220.60000000000002</ele><time>2026-04-07T07:29:39Z</time></trkpt><trkpt lat="38.06575635394975" lon="-1.1619483565607782"><ele>223.0</ele><time>2026-04-07T07:29:41Z</time></trkpt><trkpt lat="38.0657583073519" lon="-1.161811078029554"><ele>222.99999999999997</ele><time>2026-04-07T07:29:43Z</time></trkpt><trkpt lat="38.06575118500502" lon="-1.1617220486502682"><ele>223.0</ele><time>2026-04-07T07:29:44Z</time></trkpt><trkpt lat="38.065737912940165" lon="-1.1616080003109501"><ele>223.0</ele><time>2026-04-07T07:29:45Z</time></trkpt><trkpt lat="38.06572585514663" lon="-1.1615162599386482"><ele>223.0</ele><time>2026-04-07T07:29:46Z</time></trkpt><trkpt lat="38.065720380083604" lon="-1.1614334166850437"><ele>222.99999999999997</ele><time>2026-04-07T07:29:47Z</time></trkpt><trkpt lat="38.065725046130666" lon="-1.1613497479712087"><ele>223.0</ele><time>2026-04-07T07:29:48Z</time></trkpt><trkpt lat="38.065784097224146" lon="-1.1612665097980577"><ele>220.99999999999997</ele><time>2026-04-07T07:29:49Z</time></trkpt><trkpt lat="38.06579171059406" lon="-1.1611513477869742"><ele>219.0</ele><time>2026-04-07T07:29:50Z</time></trkpt><trkpt lat="38.06582307651544" lon="-1.1610792982613585"><ele>217.0</ele><time>2026-04-07T07:29:51Z</time></trkpt><trkpt lat="38.065876124659795" lon="-1.1610097747470578"><ele>215.0</ele><time>2026-04-07T07:29:52Z</time></trkpt><trkpt lat="38.06593656062074" lon="-1.1609404166785817"><ele>212.99999999999997</ele><time>2026-04-07T07:29:53Z</time></trkpt><trkpt lat="38.066003117327334" lon="-1.160831112392599"><ele>211.0</ele><time>2026-04-07T07:29:55Z</time></trkpt><trkpt lat="38.06606822560135" lon="-1.160793625905766"><ele>211.0</ele><time>2026-04-07T07:29:57Z</time></trkpt><trkpt lat="38.06612902460684" lon="-1.1609138685811298"><ele>211.0</ele><time>2026-04-07T07:30:00Z</time></trkpt><trkpt lat="38.06620333056888" lon="-1.161023520345401"><ele>211.0</ele><time>2026-04-07T07:30:02Z</time></trkpt><trkpt lat="38.066271836248326" lon="-1.1611103859021814"><ele>211.0</ele><time>2026-04-07T07:30:04Z</time></trkpt><trkpt lat="38.06635773555587" lon="-1.1610396972043757"><ele>211.0</ele><time>2026-04-07T07:30:07Z</time></trkpt><trkpt lat="38.06640808413056" lon="-1.1609830434870194"><ele>210.99999999999997</ele><time>2026-04-07T07:30:08Z</time></trkpt><trkpt lat="38.06646636746676" lon="-1.1609367072434238"><ele>211.0</ele><time>2026-04-07T07:30:09Z</time></trkpt><trkpt lat="38.06658020017999" lon="-1.1609056351687528"><ele>211.0</ele><time>2026-04-07T07:30:11Z</time></trkpt><trkpt lat="38.06664634173666" lon="-1.1608791870868629"><ele>211.0</ele><time>2026-04-07T07:30:13Z</time></trkpt><trkpt lat="38.06672892536228" lon="-1.1608791419443971"><ele>210.99999999999997</ele><time>2026-04-07T07:30:27Z</time></trkpt><trkpt lat="38.06679839571746" lon="-1.1608705123452319"><ele>211.0</ele><time>2026-04-07T07:30:29Z</time></trkpt><trkpt lat="38.06688149775398" lon="-1.1608722979987065"><ele>211.85714285714286</ele><time>2026-04-07T07:30:33Z</time></trkpt><trkpt lat="38.06694772607914" lon="-1.1608641253206784"><ele>212.71428571428572</ele><time>2026-04-07T07:30:35Z</time></trkpt><trkpt lat="38.06702043702335" lon="-1.1608274589067404"><ele>213.57142857142856</ele><time>2026-04-07T07:30:37Z</time></trkpt><trkpt lat="38.06708637154766" lon="-1.1608209378990735"><ele>214.42857142857144</ele><time>2026-04-07T07:30:38Z</time></trkpt><trkpt lat="38.06715395250689" lon="-1.160814368736392"><ele>215.28571428571428</ele><time>2026-04-07T07:30:39Z</time></trkpt><trkpt lat="38.067231935004386" lon="-1.160808918043193"><ele>216.14285714285714</ele><time>2026-04-07T07:30:40Z</time></trkpt><trkpt lat="38.06731109996746" lon="-1.1608182521623671"><ele>217.0</ele><time>2026-04-07T07:30:41Z</time></trkpt><trkpt lat="38.067394518803894" lon="-1.1608375167153464"><ele>218.83333333333331</ele><time>2026-04-07T07:30:42Z</time></trkpt><trkpt lat="38.067474220424785" lon="-1.1608551467853334"><ele>220.66666666666666</ele><time>2026-04-07T07:30:43Z</time></trkpt><trkpt lat="38.06755080641454" lon="-1.16086997639211"><ele>222.5</ele><time>2026-04-07T07:30:44Z</time></trkpt><trkpt lat="38.06762952762072" lon="-1.160895972865214"><ele>224.33333333333331</ele><time>2026-04-07T07:30:45Z</time></trkpt><trkpt lat="38.06773211114545" lon="-1.1608923395665633"><ele>226.16666666666666</ele><time>2026-04-07T07:30:46Z</time></trkpt><trkpt lat="38.06782942492095" lon="-1.1609158088949199"><ele>228.0</ele><time>2026-04-07T07:30:47Z</time></trkpt><trkpt lat="38.067913956516456" lon="-1.1609411222808004"><ele>228.0</ele><time>2026-04-07T07:30:48Z</time></trkpt><trkpt lat="38.06798504323677" lon="-1.1609538194803861"><ele>228.0</ele><time>2026-04-07T07:30:49Z</time></trkpt><trkpt lat="38.06805884587464" lon="-1.1609696612884224"><ele>228.0</ele><time>2026-04-07T07:30:50Z</time></trkpt><trkpt lat="38.06816802935765" lon="-1.1609811671899144"><ele>228.0</ele><time>2026-04-07T07:30:52Z</time></trkpt><trkpt lat="38.06827443146676" lon="-1.1611231910108275"><ele>228.0</ele><time>2026-04-07T07:30:54Z</time></trkpt><trkpt lat="38.068344769585025" lon="-1.16116823835232"><ele>228.4</ele><time>2026-04-07T07:30:55Z</time></trkpt><trkpt lat="38.06840745414989" lon="-1.161237787330629"><ele>228.8</ele><time>2026-04-07T07:30:56Z</time></trkpt><trkpt lat="38.06847912751424" lon="-1.1613104968569763"><ele>229.2</ele><time>2026-04-07T07:30:57Z</time></trkpt><trkpt lat="38.06855456173156" lon="-1.1613901007832923"><ele>229.6</ele><time>2026-04-07T07:30:58Z</time></trkpt><trkpt lat="38.06860723512218" lon="-1.1615046181197224"><ele>230.0</ele><time>2026-04-07T07:30:59Z</time></trkpt><trkpt lat="38.06869298482913" lon="-1.1616380722415498"><ele>231.00000000000003</ele><time>2026-04-07T07:31:00Z</time></trkpt><trkpt lat="38.06875731399228" lon="-1.1617403919723328"><ele>232.0</ele><time>2026-04-07T07:31:01Z</time></trkpt><trkpt lat="38.068820831392145" lon="-1.161833324432234"><ele>233.0</ele><time>2026-04-07T07:31:02Z</time></trkpt><trkpt lat="38.068872873600036" lon="-1.1619080396609112"><ele>234.0</ele><time>2026-04-07T07:31:03Z</time></trkpt><trkpt lat="38.068911340877904" lon="-1.1619728636967328"><ele>235.00000000000003</ele><time>2026-04-07T07:31:04Z</time></trkpt><trkpt lat="38.06897229602844" lon="-1.1620229908435065"><ele>236.0</ele><time>2026-04-07T07:31:06Z</time></trkpt><trkpt lat="38.06908153411573" lon="-1.1619824050045104"><ele>237.4</ele><time>2026-04-07T07:31:08Z</time></trkpt><trkpt lat="38.069173350272294" lon="-1.161919076754558"><ele>238.8</ele><time>2026-04-07T07:31:09Z</time></trkpt><trkpt lat="38.06927415301221" lon="-1.1618730282885272"><ele>240.20000000000002</ele><time>2026-04-07T07:31:10Z</time></trkpt><trkpt lat="38.06936443442372" lon="-1.161861746942369"><ele>241.60000000000002</ele><time>2026-04-07T07:31:11Z</time></trkpt><trkpt lat="38.069460107567586" lon="-1.161872606111111"><ele>243.0</ele><time>2026-04-07T07:31:12Z</time></trkpt><trkpt lat="38.0695434192996" lon="-1.161893345735011"><ele>243.0</ele><time>2026-04-07T07:31:13Z</time></trkpt><trkpt lat="38.06962419101847" lon="-1.1619248530078523"><ele>243.0</ele><time>2026-04-07T07:31:14Z</time></trkpt><trkpt lat="38.06971516825336" lon="-1.1619624238338522"><ele>243.0</ele><time>2026-04-07T07:31:15Z</time></trkpt><trkpt lat="38.06979983872857" lon="-1.161999452922119"><ele>243.0</ele><time>2026-04-07T07:31:16Z</time></trkpt><trkpt lat="38.069868073719014" lon="-1.1620287910639449"><ele>243.0</ele><time>2026-04-07T07:31:17Z</time></trkpt><trkpt lat="38.069927524311595" lon="-1.1620557891228067"><ele>243.0</ele><time>2026-04-07T07:31:18Z</time></trkpt><trkpt lat="38.070008474741655" lon="-1.162112521268208"><ele>243.16666666666666</ele><time>2026-04-07T07:31:20Z</time></trkpt><trkpt lat="38.07004120761305" lon="-1.1620335788633023"><ele>243.33333333333331</ele><time>2026-04-07T07:31:24Z</time></trkpt><trkpt lat="38.07001635311884" lon="-1.1619249714548465"><ele>243.5</ele><time>2026-04-07T07:31:28Z</time></trkpt><trkpt lat="38.070056378300734" lon="-1.1618378373872982"><ele>243.66666666666666</ele><time>2026-04-07T07:31:30Z</time></trkpt><trkpt lat="38.07009229012821" lon="-1.161754274962745"><ele>243.83333333333331</ele><time>2026-04-07T07:31:32Z</time></trkpt><trkpt lat="38.07015761027893" lon="-1.1616885333816853"><ele>244.0</ele><time>2026-04-07T07:31:34Z</time></trkpt><trkpt lat="38.070227433944794" lon="-1.1616682830525928"><ele>244.0</ele><time>2026-04-07T07:31:35Z</time></trkpt><trkpt lat="38.07031859405381" lon="-1.1616435593381769"><ele>243.99999999999997</ele><time>2026-04-07T07:31:36Z</time></trkpt><trkpt lat="38.070418815301664" lon="-1.161585117819527"><ele>243.99999999999997</ele><time>2026-04-07T07:31:37Z</time></trkpt><trkpt lat="38.070508353532915" lon="-1.1615461483151437"><ele>244.0</ele><time>2026-04-07T07:31:38Z</time></trkpt><trkpt lat="38.070593730192186" lon="-1.161508990045831"><ele>244.0</ele><time>2026-04-07T07:31:39Z</time></trkpt><trkpt lat="38.07068842027876" lon="-1.161484544212509"><ele>243.33333333333331</ele><time>2026-04-07T07:31:40Z</time></trkpt><trkpt lat="38.070777097490044" lon="-1.161440306381893"><ele>242.66666666666666</ele><time>2026-04-07T07:31:41Z</time></trkpt><trkpt lat="38.070854404465045" lon="-1.16138655873921"><ele>242.0</ele><time>2026-04-07T07:31:42Z</time></trkpt><trkpt lat="38.07091435813066" lon="-1.1613105846971863"><ele>241.33333333333331</ele><time>2026-04-07T07:31:43Z</time></trkpt><trkpt lat="38.07096535558639" lon="-1.1612215710326927"><ele>240.66666666666666</ele><time>2026-04-07T07:31:44Z</time></trkpt><trkpt lat="38.07102029643425" lon="-1.161135964644013"><ele>240.0</ele><time>2026-04-07T07:31:45Z</time></trkpt><trkpt lat="38.07106903887522" lon="-1.161068584872196"><ele>240.0</ele><time>2026-04-07T07:31:46Z</time></trkpt><trkpt lat="38.07112246668884" lon="-1.1610208606818617"><ele>240.0</ele><time>2026-04-07T07:31:47Z</time></trkpt><trkpt lat="38.071179685707015" lon="-1.16098642199322"><ele>240.0</ele><time>2026-04-07T07:31:48Z</time></trkpt><trkpt lat="38.071181972434076" lon="-1.1608770002290625"><ele>240.0</ele><time>2026-04-07T07:31:51Z</time></trkpt><trkpt lat="38.07108829493255" lon="-1.1608725101086097"><ele>240.0</ele><time>2026-04-07T07:31:52Z</time></trkpt><trkpt lat="38.071003869656806" lon="-1.1607705701265798"><ele>240.0</ele><time>2026-04-07T07:31:54Z</time></trkpt><trkpt lat="38.07095730956316" lon="-1.1607143507491522"><ele>240.14285714285717</ele><time>2026-04-07T07:31:55Z</time></trkpt><trkpt lat="38.07090626702544" lon="-1.160648623163586"><ele>240.28571428571428</ele><time>2026-04-07T07:31:56Z</time></trkpt><trkpt lat="38.07085557449471" lon="-1.1605966121593863"><ele>240.42857142857144</ele><time>2026-04-07T07:31:57Z</time></trkpt><trkpt lat="38.07081131858488" lon="-1.1605325596162144"><ele>240.57142857142858</ele><time>2026-04-07T07:31:58Z</time></trkpt><trkpt lat="38.0707710482879" lon="-1.160464610144649"><ele>240.71428571428572</ele><time>2026-04-07T07:31:59Z</time></trkpt><trkpt lat="38.07073921096937" lon="-1.1603674749949355"><ele>240.85714285714286</ele><time>2026-04-07T07:32:00Z</time></trkpt><trkpt lat="38.070730994660686" lon="-1.1602783666335648"><ele>241.0</ele><time>2026-04-07T07:32:01Z</time></trkpt><trkpt lat="38.07076338238882" lon="-1.160178062642817"><ele>240.99999999999997</ele><time>2026-04-07T07:32:02Z</time></trkpt><trkpt lat="38.07078115664615" lon="-1.1600853452192745"><ele>241.0</ele><time>2026-04-07T07:32:03Z</time></trkpt><trkpt lat="38.0708129857246" lon="-1.1600029228986157"><ele>241.0</ele><time>2026-04-07T07:32:04Z</time></trkpt><trkpt lat="38.070869163453324" lon="-1.1599215453553737"><ele>241.0</ele><time>2026-04-07T07:32:05Z</time></trkpt><trkpt lat="38.070944527904516" lon="-1.159879536386163"><ele>240.99999999999997</ele><time>2026-04-07T07:32:06Z</time></trkpt><trkpt lat="38.07101384808876" lon="-1.1598349194655915"><ele>241.0</ele><time>2026-04-07T07:32:07Z</time></trkpt><trkpt lat="38.07108352610898" lon="-1.1598018130840413"><ele>241.33333333333331</ele><time>2026-04-07T07:32:08Z</time></trkpt><trkpt lat="38.071160711233084" lon="-1.1597675583681164"><ele>241.66666666666666</ele><time>2026-04-07T07:32:09Z</time></trkpt><trkpt lat="38.071226966730805" lon="-1.159744090580979"><ele>242.0</ele><time>2026-04-07T07:32:10Z</time></trkpt><trkpt lat="38.07132193933448" lon="-1.1596683624968445"><ele>242.33333333333331</ele><time>2026-04-07T07:32:12Z</time></trkpt><trkpt lat="38.07135499336007" lon="-1.1595768669830748"><ele>242.66666666666666</ele><time>2026-04-07T07:32:14Z</time></trkpt><trkpt lat="38.07136479386809" lon="-1.1594514973986472"><ele>243.0</ele><time>2026-04-07T07:32:16Z</time></trkpt><trkpt lat="38.07135478221052" lon="-1.159363710120951"><ele>243.0</ele><time>2026-04-07T07:32:18Z</time></trkpt><trkpt lat="38.071304169940944" lon="-1.1592851600664507"><ele>243.0</ele><time>2026-04-07T07:32:21Z</time></trkpt><trkpt lat="38.071219661114846" lon="-1.1592213066864832"><ele>243.0</ele><time>2026-04-07T07:32:24Z</time></trkpt><trkpt lat="38.071111650647026" lon="-1.1591943897400432"><ele>243.0</ele><time>2026-04-07T07:32:26Z</time></trkpt><trkpt lat="38.07103689448017" lon="-1.1591682869228377"><ele>243.0</ele><time>2026-04-07T07:32:27Z</time></trkpt><trkpt lat="38.07097493626296" lon="-1.1591379594846687"><ele>243.0</ele><time>2026-04-07T07:32:28Z</time></trkpt><trkpt lat="38.07089086969653" lon="-1.1591286643384333"><ele>243.33333333333334</ele><time>2026-04-07T07:32:30Z</time></trkpt><trkpt lat="38.070900972262145" lon="-1.1589943727755119"><ele>243.66666666666669</ele><time>2026-04-07T07:32:33Z</time></trkpt><trkpt lat="38.07089556744652" lon="-1.1589010865121876"><ele>244.0</ele><time>2026-04-07T07:32:37Z</time></trkpt><trkpt lat="38.07088739041394" lon="-1.1588065777507188"><ele>244.33333333333334</ele><time>2026-04-07T07:32:42Z</time></trkpt><trkpt lat="38.07093903028769" lon="-1.158732064019699"><ele>244.66666666666669</ele><time>2026-04-07T07:32:45Z</time></trkpt><trkpt lat="38.0709480707029" lon="-1.1586428903313308"><ele>245.0</ele><time>2026-04-07T07:32:47Z</time></trkpt><trkpt lat="38.071001954274784" lon="-1.1585892257846848"><ele>245.0</ele><time>2026-04-07T07:32:49Z</time></trkpt><trkpt lat="38.07106604918934" lon="-1.1585640100590362"><ele>245.0</ele><time>2026-04-07T07:32:51Z</time></trkpt><trkpt lat="38.07113105442135" lon="-1.1585589407413404"><ele>245.0</ele><time>2026-04-07T07:32:54Z</time></trkpt><trkpt lat="38.07119678525537" lon="-1.1584915003893135"><ele>245.0</ele><time>2026-04-07T07:32:56Z</time></trkpt><trkpt lat="38.07124863117009" lon="-1.158435162811503"><ele>245.0</ele><time>2026-04-07T07:32:58Z</time></trkpt><trkpt lat="38.07133593459936" lon="-1.1584229059953934"><ele>245.0</ele><time>2026-04-07T07:33:00Z</time></trkpt><trkpt lat="38.071399492285074" lon="-1.158398801494867"><ele>245.0</ele><time>2026-04-07T07:33:02Z</time></trkpt><trkpt lat="38.07159142296558" lon="-1.1583151315965583"><ele>246.16666666666669</ele><time>2026-04-07T07:33:05Z</time></trkpt><trkpt lat="38.071660562534525" lon="-1.1583001923374643"><ele>247.33333333333334</ele><time>2026-04-07T07:33:06Z</time></trkpt><trkpt lat="38.071772740503285" lon="-1.1582948243530748"><ele>248.5</ele><time>2026-04-07T07:33:08Z</time></trkpt><trkpt lat="38.07185518458899" lon="-1.1582840324655796"><ele>249.66666666666669</ele><time>2026-04-07T07:33:10Z</time></trkpt><trkpt lat="38.07193949952049" lon="-1.1582499567772955"><ele>250.83333333333334</ele><time>2026-04-07T07:33:12Z</time></trkpt><trkpt lat="38.072016894930584" lon="-1.1582199672237252"><ele>252.0</ele><time>2026-04-07T07:33:14Z</time></trkpt><trkpt lat="38.072094211296346" lon="-1.1581829030241926"><ele>252.0</ele><time>2026-04-07T07:33:16Z</time></trkpt><trkpt lat="38.072151106308624" lon="-1.1580873494881725"><ele>252.0</ele><time>2026-04-07T07:33:18Z</time></trkpt><trkpt lat="38.07226194776722" lon="-1.1580188289714757"><ele>252.0</ele><time>2026-04-07T07:33:20Z</time></trkpt><trkpt lat="38.07234907268531" lon="-1.1579646121778133"><ele>252.0</ele><time>2026-04-07T07:33:22Z</time></trkpt><trkpt lat="38.07239594635579" lon="-1.1579008785130143"><ele>252.0</ele><time>2026-04-07T07:33:23Z</time></trkpt><trkpt lat="38.07242210031995" lon="-1.1578101863146584"><ele>252.0</ele><time>2026-04-07T07:33:24Z</time></trkpt><trkpt lat="38.07243823279761" lon="-1.157669317725589"><ele>252.0</ele><time>2026-04-07T07:33:25Z</time></trkpt><trkpt lat="38.0724575283673" lon="-1.157519752455011"><ele>252.0</ele><time>2026-04-07T07:33:26Z</time></trkpt><trkpt lat="38.072487203201916" lon="-1.1573359866303519"><ele>252.0</ele><time>2026-04-07T07:33:27Z</time></trkpt><trkpt lat="38.07255136888726" lon="-1.157171508239723"><ele>255.25</ele><time>2026-04-07T07:33:28Z</time></trkpt><trkpt lat="38.072599934835516" lon="-1.1570304075017834"><ele>258.5</ele><time>2026-04-07T07:33:29Z</time></trkpt><trkpt lat="38.07264171490184" lon="-1.1568829827386187"><ele>261.75</ele><time>2026-04-07T07:33:30Z</time></trkpt><trkpt lat="38.07267149287706" lon="-1.1567479826091653"><ele>265.0</ele><time>2026-04-07T07:33:31Z</time></trkpt><trkpt lat="38.07271961226955" lon="-1.156589492634023"><ele>263.25</ele><time>2026-04-07T07:33:32Z</time></trkpt><trkpt lat="38.07277620887869" lon="-1.1564309340782672"><ele>261.5</ele><time>2026-04-07T07:33:33Z</time></trkpt><trkpt lat="38.0728301610914" lon="-1.156279592733456"><ele>259.75</ele><time>2026-04-07T07:33:34Z</time></trkpt><trkpt lat="38.07287876049025" lon="-1.1561504905622333"><ele>258.0</ele><time>2026-04-07T07:33:35Z</time></trkpt><trkpt lat="38.0729281585363" lon="-1.1560432393862208"><ele>258.0</ele><time>2026-04-07T07:33:36Z</time></trkpt><trkpt lat="38.07297245087709" lon="-1.1559214351467926"><ele>258.0</ele><time>2026-04-07T07:33:37Z</time></trkpt><trkpt lat="38.07300688122742" lon="-1.155807019538757"><ele>258.0</ele><time>2026-04-07T07:33:38Z</time></trkpt><trkpt lat="38.0730354562102" lon="-1.1557006881263487"><ele>258.0</ele><time>2026-04-07T07:33:39Z</time></trkpt><trkpt lat="38.0730637465727" lon="-1.155614573436416"><ele>258.0</ele><time>2026-04-07T07:33:40Z</time></trkpt><trkpt lat="38.07309776438014" lon="-1.1555457194860437"><ele>258.0</ele><time>2026-04-07T07:33:41Z</time></trkpt><trkpt lat="38.07316084314352" lon="-1.1554352260844412"><ele>257.0</ele><time>2026-04-07T07:33:43Z</time></trkpt><trkpt lat="38.07320892487039" lon="-1.155350685432533"><ele>256.0</ele><time>2026-04-07T07:33:45Z</time></trkpt><trkpt lat="38.073231684009116" lon="-1.155206084846044"><ele>255.0</ele><time>2026-04-07T07:33:48Z</time></trkpt><trkpt lat="38.07321276638718" lon="-1.1551116797230756"><ele>254.0</ele><time>2026-04-07T07:33:49Z</time></trkpt><trkpt lat="38.073283613844026" lon="-1.1549917385787345"><ele>253.0</ele><time>2026-04-07T07:33:51Z</time></trkpt><trkpt lat="38.073349798148804" lon="-1.1549415956878504"><ele>256.8</ele><time>2026-04-07T07:33:52Z</time></trkpt><trkpt lat="38.073421886275455" lon="-1.1548762503400325"><ele>260.6</ele><time>2026-04-07T07:33:53Z</time></trkpt><trkpt lat="38.073484822678644" lon="-1.1548010483242266"><ele>264.4</ele><time>2026-04-07T07:33:54Z</time></trkpt><trkpt lat="38.07352811144861" lon="-1.1547264777737403"><ele>268.2</ele><time>2026-04-07T07:33:55Z</time></trkpt><trkpt lat="38.07360728633455" lon="-1.1546247502194882"><ele>272.0</ele><time>2026-04-07T07:33:57Z</time></trkpt><trkpt lat="38.07366693599576" lon="-1.1545114577033913"><ele>272.0</ele><time>2026-04-07T07:33:59Z</time></trkpt><trkpt lat="38.073754950338156" lon="-1.1544090347351488"><ele>272.0</ele><time>2026-04-07T07:34:01Z</time></trkpt><trkpt lat="38.07383099740705" lon="-1.1543035909015351"><ele>272.0</ele><time>2026-04-07T07:34:03Z</time></trkpt><trkpt lat="38.073913949987585" lon="-1.154285043187273"><ele>272.0</ele><time>2026-04-07T07:34:05Z</time></trkpt><trkpt lat="38.07396662532656" lon="-1.1542350242872224"><ele>272.0</ele><time>2026-04-07T07:34:06Z</time></trkpt><trkpt lat="38.074011093590954" lon="-1.154144743318572"><ele>272.0</ele><time>2026-04-07T07:34:07Z</time></trkpt><trkpt lat="38.07408955547536" lon="-1.1540294236172575"><ele>272.0</ele><time>2026-04-07T07:34:08Z</time></trkpt><trkpt lat="38.07416859694978" lon="-1.1539463504855412"><ele>272.0</ele><time>2026-04-07T07:34:09Z</time></trkpt><trkpt lat="38.0742426896231" lon="-1.1538478909734742"><ele>272.0</ele><time>2026-04-07T07:34:10Z</time></trkpt><trkpt lat="38.074323162440706" lon="-1.1537547133389565"><ele>272.0</ele><time>2026-04-07T07:34:11Z</time></trkpt><trkpt lat="38.07437562541919" lon="-1.153661227665857"><ele>271.83333333333337</ele><time>2026-04-07T07:34:12Z</time></trkpt><trkpt lat="38.07441000340906" lon="-1.1535758062682009"><ele>271.6666666666667</ele><time>2026-04-07T07:34:13Z</time></trkpt><trkpt lat="38.074440232948035" lon="-1.1534432817431637"><ele>271.5</ele><time>2026-04-07T07:34:14Z</time></trkpt><trkpt lat="38.074484751426276" lon="-1.1533481358620483"><ele>271.3333333333333</ele><time>2026-04-07T07:34:15Z</time></trkpt><trkpt lat="38.07453783480115" lon="-1.1532883890161547"><ele>271.16666666666663</ele><time>2026-04-07T07:34:16Z</time></trkpt><trkpt lat="38.07460981756678" lon="-1.153227373046878"><ele>271.0</ele><time>2026-04-07T07:34:18Z</time></trkpt><trkpt lat="38.074616941618125" lon="-1.153115484564064"><ele>270.0</ele><time>2026-04-07T07:34:22Z</time></trkpt><trkpt lat="38.07471737872091" lon="-1.1530375206641033"><ele>269.0</ele><time>2026-04-07T07:34:24Z</time></trkpt><trkpt lat="38.074800651685266" lon="-1.1530326636364019"><ele>268.0</ele><time>2026-04-07T07:34:25Z</time></trkpt><trkpt lat="38.07490407911215" lon="-1.1530200672041087"><ele>267.0</ele><time>2026-04-07T07:34:26Z</time></trkpt><trkpt lat="38.07501226348386" lon="-1.1529903086670297"><ele>266.0</ele><time>2026-04-07T07:34:27Z</time></trkpt><trkpt lat="38.07511267740487" lon="-1.152961750668182"><ele>268.0</ele><time>2026-04-07T07:34:28Z</time></trkpt><trkpt lat="38.07519667690667" lon="-1.1529377738344564"><ele>270.0</ele><time>2026-04-07T07:34:29Z</time></trkpt><trkpt lat="38.07526007548832" lon="-1.1528995523274361"><ele>272.0</ele><time>2026-04-07T07:34:30Z</time></trkpt><trkpt lat="38.075363037856924" lon="-1.1528506086634454"><ele>274.0</ele><time>2026-04-07T07:34:32Z</time></trkpt><trkpt lat="38.07545343854555" lon="-1.1528086014184677"><ele>276.0</ele><time>2026-04-07T07:34:34Z</time></trkpt><trkpt lat="38.07558491446384" lon="-1.1527407604542994"><ele>276.0</ele><time>2026-04-07T07:34:36Z</time></trkpt><trkpt lat="38.075669816102526" lon="-1.1526675637460726"><ele>276.0</ele><time>2026-04-07T07:34:37Z</time></trkpt><trkpt lat="38.07554454268275" lon="-1.1523360654748722"><ele>276.0</ele><time>2026-04-07T07:34:38Z</time></trkpt><trkpt lat="38.07557605826438" lon="-1.1522460685217077"><ele>275.0</ele><time>2026-04-07T07:34:39Z</time></trkpt><trkpt lat="38.075602854580886" lon="-1.1521603861741079"><ele>274.0</ele><time>2026-04-07T07:34:40Z</time></trkpt><trkpt lat="38.075616743076424" lon="-1.1519875503917392"><ele>273.0</ele><time>2026-04-07T07:34:42Z</time></trkpt><trkpt lat="38.07562532332614" lon="-1.1518764372325965"><ele>272.0</ele><time>2026-04-07T07:34:43Z</time></trkpt><trkpt lat="38.07564070246175" lon="-1.1517618849680271"><ele>271.0</ele><time>2026-04-07T07:34:44Z</time></trkpt><trkpt lat="38.07565415602937" lon="-1.151646656898133"><ele>270.2</ele><time>2026-04-07T07:34:45Z</time></trkpt><trkpt lat="38.07566501083533" lon="-1.1515286160279483"><ele>269.40000000000003</ele><time>2026-04-07T07:34:46Z</time></trkpt><trkpt lat="38.07567737683992" lon="-1.1514074106550238"><ele>268.6</ele><time>2026-04-07T07:34:47Z</time></trkpt><trkpt lat="38.075689341863395" lon="-1.151280022735181"><ele>267.8</ele><time>2026-04-07T07:34:48Z</time></trkpt><trkpt lat="38.07570240533267" lon="-1.1511604364551713"><ele>267.0</ele><time>2026-04-07T07:34:49Z</time></trkpt><trkpt lat="38.07571242785423" lon="-1.1510479067071848"><ele>267.0</ele><time>2026-04-07T07:34:50Z</time></trkpt><trkpt lat="38.075717993583154" lon="-1.1509529630227096"><ele>267.0</ele><time>2026-04-07T07:34:51Z</time></trkpt><trkpt lat="38.07571466319907" lon="-1.150807399548542"><ele>267.0</ele><time>2026-04-07T07:34:53Z</time></trkpt><trkpt lat="38.07569199768756" lon="-1.1507155757221401"><ele>267.0</ele><time>2026-04-07T07:34:55Z</time></trkpt><trkpt lat="38.07567014347391" lon="-1.150623611821581"><ele>267.0</ele><time>2026-04-07T07:34:59Z</time></trkpt><trkpt lat="38.07565891163147" lon="-1.150539899063869"><ele>267.0</ele><time>2026-04-07T07:35:04Z</time></trkpt><trkpt lat="38.07565046178662" lon="-1.150435473651641"><ele>266.1666666666667</ele><time>2026-04-07T07:35:09Z</time></trkpt><trkpt lat="38.07563298756022" lon="-1.150346359183523"><ele>265.3333333333333</ele><time>2026-04-07T07:35:12Z</time></trkpt><trkpt lat="38.07563494887308" lon="-1.1502506053179835"><ele>264.5</ele><time>2026-04-07T07:35:14Z</time></trkpt><trkpt lat="38.0756141705712" lon="-1.150141454282453"><ele>263.66666666666663</ele><time>2026-04-07T07:35:16Z</time></trkpt><trkpt lat="38.07560047179925" lon="-1.1500322985185303"><ele>262.8333333333333</ele><time>2026-04-07T07:35:18Z</time></trkpt><trkpt lat="38.0755929944206" lon="-1.1499263910716382"><ele>262.0</ele><time>2026-04-07T07:35:20Z</time></trkpt><trkpt lat="38.07557989502089" lon="-1.1498155051538705"><ele>262.0</ele><time>2026-04-07T07:35:23Z</time></trkpt><trkpt lat="38.07560335243449" lon="-1.1497000074789865"><ele>262.0</ele><time>2026-04-07T07:35:26Z</time></trkpt><trkpt lat="38.075643871590174" lon="-1.1496180730742667"><ele>262.0</ele><time>2026-04-07T07:35:27Z</time></trkpt><trkpt lat="38.07570579886919" lon="-1.1495261441070388"><ele>262.0</ele><time>2026-04-07T07:35:28Z</time></trkpt><trkpt lat="38.07578264613937" lon="-1.1494135297669126"><ele>262.0</ele><time>2026-04-07T07:35:29Z</time></trkpt><trkpt lat="38.075829795026756" lon="-1.1492852741842905"><ele>261.66666666666663</ele><time>2026-04-07T07:35:30Z</time></trkpt><trkpt lat="38.075866263608766" lon="-1.149113404978185"><ele>261.3333333333333</ele><time>2026-04-07T07:35:31Z</time></trkpt><trkpt lat="38.07589539064504" lon="-1.1489204489411433"><ele>261.0</ele><time>2026-04-07T07:35:32Z</time></trkpt><trkpt lat="38.075922513268885" lon="-1.1487160938958483"><ele>262.75</ele><time>2026-04-07T07:35:33Z</time></trkpt><trkpt lat="38.075947985407865" lon="-1.1485240898704456"><ele>264.5</ele><time>2026-04-07T07:35:34Z</time></trkpt><trkpt lat="38.07597285244477" lon="-1.1483546125939308"><ele>266.25</ele><time>2026-04-07T07:35:35Z</time></trkpt><trkpt lat="38.07599789077388" lon="-1.148209479899647"><ele>268.0</ele><time>2026-04-07T07:35:36Z</time></trkpt><trkpt lat="38.07602180564183" lon="-1.148077180881113"><ele>268.0</ele><time>2026-04-07T07:35:37Z</time></trkpt><trkpt lat="38.076055727111154" lon="-1.1479416519666419"><ele>268.0</ele><time>2026-04-07T07:35:38Z</time></trkpt><trkpt lat="38.076095380187255" lon="-1.1477887167671488"><ele>268.0</ele><time>2026-04-07T07:35:39Z</time></trkpt><trkpt lat="38.07613521105242" lon="-1.147611038680801"><ele>268.0</ele><time>2026-04-07T07:35:40Z</time></trkpt><trkpt lat="38.076166637284295" lon="-1.1474512661187246"><ele>267.16666666666663</ele><time>2026-04-07T07:35:41Z</time></trkpt><trkpt lat="38.076191461011064" lon="-1.147324802023543"><ele>266.3333333333333</ele><time>2026-04-07T07:35:42Z</time></trkpt><trkpt lat="38.0762226732473" lon="-1.1471969802677882"><ele>265.5</ele><time>2026-04-07T07:35:43Z</time></trkpt><trkpt lat="38.076262887918624" lon="-1.147095943974938"><ele>264.6666666666667</ele><time>2026-04-07T07:35:44Z</time></trkpt><trkpt lat="38.076305871656515" lon="-1.1470156745175077"><ele>263.83333333333337</ele><time>2026-04-07T07:35:45Z</time></trkpt><trkpt lat="38.076352360812855" lon="-1.146952957547676"><ele>263.0</ele><time>2026-04-07T07:35:46Z</time></trkpt><trkpt lat="38.07646395666537" lon="-1.1469221994485415"><ele>263.0</ele><time>2026-04-07T07:35:48Z</time></trkpt><trkpt lat="38.07656029925632" lon="-1.146830537734798"><ele>263.0</ele><time>2026-04-07T07:35:51Z</time></trkpt><trkpt lat="38.07663010039391" lon="-1.146814460597031"><ele>263.0</ele><time>2026-04-07T07:35:52Z</time></trkpt><trkpt lat="38.0767035673243" lon="-1.1468146976233846"><ele>263.0</ele><time>2026-04-07T07:35:53Z</time></trkpt><trkpt lat="38.076778026299635" lon="-1.1468211316430932"><ele>263.0</ele><time>2026-04-07T07:35:54Z</time></trkpt><trkpt lat="38.076846459269646" lon="-1.1468155387963548"><ele>263.0</ele><time>2026-04-07T07:35:55Z</time></trkpt><trkpt lat="38.07692386088079" lon="-1.1467766211095183"><ele>262.57142857142856</ele><time>2026-04-07T07:35:56Z</time></trkpt><trkpt lat="38.07698604078252" lon="-1.1467441902974873"><ele>262.1428571428571</ele><time>2026-04-07T07:35:57Z</time></trkpt><trkpt lat="38.07706063152087" lon="-1.1467169221306177"><ele>261.7142857142857</ele><time>2026-04-07T07:35:58Z</time></trkpt><trkpt lat="38.07712391779915" lon="-1.14670385899684"><ele>261.2857142857143</ele><time>2026-04-07T07:35:59Z</time></trkpt><trkpt lat="38.07718952938437" lon="-1.1466687163074991"><ele>260.8571428571429</ele><time>2026-04-07T07:36:00Z</time></trkpt><trkpt lat="38.0772452950736" lon="-1.1466033331025014"><ele>260.42857142857144</ele><time>2026-04-07T07:36:01Z</time></trkpt><trkpt lat="38.077302076087534" lon="-1.14652796229768"><ele>260.0</ele><time>2026-04-07T07:36:02Z</time></trkpt><trkpt lat="38.0773639527427" lon="-1.1464601293062449"><ele>261.83333333333337</ele><time>2026-04-07T07:36:03Z</time></trkpt><trkpt lat="38.07743598705766" lon="-1.146395305094663"><ele>263.6666666666667</ele><time>2026-04-07T07:36:04Z</time></trkpt><trkpt lat="38.07749227735291" lon="-1.146325402648341"><ele>265.5</ele><time>2026-04-07T07:36:05Z</time></trkpt><trkpt lat="38.07754065949058" lon="-1.1462443550826247"><ele>267.3333333333333</ele><time>2026-04-07T07:36:06Z</time></trkpt><trkpt lat="38.07758803377837" lon="-1.146186299642203"><ele>269.16666666666663</ele><time>2026-04-07T07:36:07Z</time></trkpt><trkpt lat="38.077649815463346" lon="-1.14616339754803"><ele>271.0</ele><time>2026-04-07T07:36:08Z</time></trkpt><trkpt lat="38.07773245392821" lon="-1.1461661925458806"><ele>271.0</ele><time>2026-04-07T07:36:09Z</time></trkpt><trkpt lat="38.07780169216669" lon="-1.1461504587943723"><ele>271.0</ele><time>2026-04-07T07:36:10Z</time></trkpt><trkpt lat="38.07784080655679" lon="-1.1460823500534483"><ele>271.0</ele><time>2026-04-07T07:36:11Z</time></trkpt><trkpt lat="38.077902826966614" lon="-1.1460085828444158"><ele>271.0</ele><time>2026-04-07T07:36:12Z</time></trkpt><trkpt lat="38.07793943916227" lon="-1.1459149692721067"><ele>271.0</ele><time>2026-04-07T07:36:13Z</time></trkpt><trkpt lat="38.077962949693344" lon="-1.1458165062192494"><ele>271.0</ele><time>2026-04-07T07:36:14Z</time></trkpt><trkpt lat="38.07795440430789" lon="-1.1457236839274834"><ele>271.0</ele><time>2026-04-07T07:36:15Z</time></trkpt><trkpt lat="38.07796735089661" lon="-1.1456080348046747"><ele>271.0</ele><time>2026-04-07T07:36:16Z</time></trkpt><trkpt lat="38.07796506302285" lon="-1.1454985678363896"><ele>271.0</ele><time>2026-04-07T07:36:17Z</time></trkpt><trkpt lat="38.07797445628298" lon="-1.1453801338716267"><ele>271.0</ele><time>2026-04-07T07:36:18Z</time></trkpt><trkpt lat="38.07797764891966" lon="-1.1452639582440944"><ele>271.0</ele><time>2026-04-07T07:36:19Z</time></trkpt><trkpt lat="38.07794546859906" lon="-1.1451542147124696"><ele>271.0</ele><time>2026-04-07T07:36:20Z</time></trkpt><trkpt lat="38.07793385816359" lon="-1.1450424059411661"><ele>271.0</ele><time>2026-04-07T07:36:21Z</time></trkpt><trkpt lat="38.0779046573214" lon="-1.1449322872742316"><ele>271.0</ele><time>2026-04-07T07:36:22Z</time></trkpt><trkpt lat="38.07787811236971" lon="-1.1448177774397463"><ele>271.0</ele><time>2026-04-07T07:36:23Z</time></trkpt><trkpt lat="38.077845550767584" lon="-1.1447052730899596"><ele>271.0</ele><time>2026-04-07T07:36:24Z</time></trkpt><trkpt lat="38.077822758745434" lon="-1.1445925586465584"><ele>271.0</ele><time>2026-04-07T07:36:25Z</time></trkpt><trkpt lat="38.077800067246685" lon="-1.1444628522747888"><ele>271.0</ele><time>2026-04-07T07:36:26Z</time></trkpt><trkpt lat="38.07776440661664" lon="-1.1443318494615506"><ele>271.0</ele><time>2026-04-07T07:36:27Z</time></trkpt><trkpt lat="38.0777438693457" lon="-1.1442110982437061"><ele>271.0</ele><time>2026-04-07T07:36:28Z</time></trkpt><trkpt lat="38.077730451606264" lon="-1.1441092691059431"><ele>271.0</ele><time>2026-04-07T07:36:29Z</time></trkpt><trkpt lat="38.0777298477593" lon="-1.1439721779071803"><ele>270.25</ele><time>2026-04-07T07:36:31Z</time></trkpt><trkpt lat="38.07782927933768" lon="-1.1438719288065655"><ele>269.5</ele><time>2026-04-07T07:36:33Z</time></trkpt><trkpt lat="38.07791494899396" lon="-1.1438394344113103"><ele>268.75</ele><time>2026-04-07T07:36:34Z</time></trkpt><trkpt lat="38.07800098512622" lon="-1.1437061177551664"><ele>268.0</ele><time>2026-04-07T07:36:36Z</time></trkpt><trkpt lat="38.078013323909914" lon="-1.1435792184567273"><ele>268.0</ele><time>2026-04-07T07:36:37Z</time></trkpt><trkpt lat="38.07804651099541" lon="-1.1434513566117248"><ele>268.0</ele><time>2026-04-07T07:36:38Z</time></trkpt><trkpt lat="38.07809042958813" lon="-1.1433560623910717"><ele>268.0</ele><time>2026-04-07T07:36:39Z</time></trkpt><trkpt lat="38.07811499356989" lon="-1.1432412326765355"><ele>268.0</ele><time>2026-04-07T07:36:40Z</time></trkpt><trkpt lat="38.07812471068223" lon="-1.1431122376912546"><ele>268.0</ele><time>2026-04-07T07:36:41Z</time></trkpt><trkpt lat="38.07813313626212" lon="-1.1429612314344497"><ele>266.4</ele><time>2026-04-07T07:36:42Z</time></trkpt><trkpt lat="38.07814523197563" lon="-1.1428054297523886"><ele>264.8</ele><time>2026-04-07T07:36:43Z</time></trkpt><trkpt lat="38.078138606864236" lon="-1.1426636319960064"><ele>263.2</ele><time>2026-04-07T07:36:44Z</time></trkpt><trkpt lat="38.07813570750619" lon="-1.1425556620219592"><ele>261.6</ele><time>2026-04-07T07:36:45Z</time></trkpt><trkpt lat="38.07811693047271" lon="-1.142460001904715"><ele>260.0</ele><time>2026-04-07T07:36:46Z</time></trkpt><trkpt lat="38.07806653032169" lon="-1.1423726993136063"><ele>259.1666666666667</ele><time>2026-04-07T07:36:47Z</time></trkpt><trkpt lat="38.07804052360501" lon="-1.1422975939164444"><ele>258.33333333333337</ele><time>2026-04-07T07:36:48Z</time></trkpt><trkpt lat="38.078032866581324" lon="-1.1422172823177668"><ele>257.5</ele><time>2026-04-07T07:36:49Z</time></trkpt><trkpt lat="38.07808954202526" lon="-1.1421494194315642"><ele>256.6666666666667</ele><time>2026-04-07T07:36:50Z</time></trkpt><trkpt lat="38.07815850228381" lon="-1.1421004350970636"><ele>255.83333333333334</ele><time>2026-04-07T07:36:51Z</time></trkpt><trkpt lat="38.07824568832015" lon="-1.1420683584123599"><ele>255.0</ele><time>2026-04-07T07:36:52Z</time></trkpt><trkpt lat="38.07831517670075" lon="-1.1420258988372798"><ele>257.3333333333333</ele><time>2026-04-07T07:36:53Z</time></trkpt><trkpt lat="38.07838288763949" lon="-1.1419657214508063"><ele>259.6666666666667</ele><time>2026-04-07T07:36:54Z</time></trkpt><trkpt lat="38.07841219109227" lon="-1.1418656830923928"><ele>262.0</ele><time>2026-04-07T07:36:55Z</time></trkpt><trkpt lat="38.07842959504856" lon="-1.141770144283784"><ele>264.33333333333337</ele><time>2026-04-07T07:36:56Z</time></trkpt><trkpt lat="38.078466755480186" lon="-1.1416598250070058"><ele>266.6666666666667</ele><time>2026-04-07T07:36:57Z</time></trkpt><trkpt lat="38.07847826716599" lon="-1.1415438191200489"><ele>269.0</ele><time>2026-04-07T07:36:58Z</time></trkpt><trkpt lat="38.0785057035683" lon="-1.1414250047817645"><ele>270.2</ele><time>2026-04-07T07:36:59Z</time></trkpt><trkpt lat="38.0785486403229" lon="-1.1413131549376316"><ele>271.4</ele><time>2026-04-07T07:37:00Z</time></trkpt><trkpt lat="38.07859220793817" lon="-1.1411934674962816"><ele>272.6</ele><time>2026-04-07T07:37:01Z</time></trkpt><trkpt lat="38.07863677409794" lon="-1.141086111827446"><ele>273.8</ele><time>2026-04-07T07:37:02Z</time></trkpt><trkpt lat="38.07868446971525" lon="-1.140971018756305"><ele>275.0</ele><time>2026-04-07T07:37:03Z</time></trkpt><trkpt lat="38.07873735659803" lon="-1.1408566669984614"><ele>275.0</ele><time>2026-04-07T07:37:04Z</time></trkpt><trkpt lat="38.0788026699239" lon="-1.1407426928796625"><ele>275.0</ele><time>2026-04-07T07:37:05Z</time></trkpt><trkpt lat="38.07887244038316" lon="-1.1406403939067034"><ele>275.0</ele><time>2026-04-07T07:37:06Z</time></trkpt><trkpt lat="38.07895570990284" lon="-1.1405336153707044"><ele>275.0</ele><time>2026-04-07T07:37:07Z</time></trkpt><trkpt lat="38.079055295042636" lon="-1.140442724500349"><ele>277.75</ele><time>2026-04-07T07:37:08Z</time></trkpt><trkpt lat="38.07916112706217" lon="-1.1403572074608617"><ele>280.5</ele><time>2026-04-07T07:37:09Z</time></trkpt><trkpt lat="38.07925733160417" lon="-1.1402663416114869"><ele>283.25</ele><time>2026-04-07T07:37:10Z</time></trkpt><trkpt lat="38.079349566728524" lon="-1.1401847415618034"><ele>286.0</ele><time>2026-04-07T07:37:11Z</time></trkpt><trkpt lat="38.079445493567746" lon="-1.1401092324439412"><ele>286.0</ele><time>2026-04-07T07:37:12Z</time></trkpt><trkpt lat="38.07953176612495" lon="-1.1400383846941324"><ele>286.0</ele><time>2026-04-07T07:37:13Z</time></trkpt><trkpt lat="38.079607025995195" lon="-1.1399612190997572"><ele>286.0</ele><time>2026-04-07T07:37:14Z</time></trkpt><trkpt lat="38.07967340283328" lon="-1.1398988001317722"><ele>286.0</ele><time>2026-04-07T07:37:15Z</time></trkpt><trkpt lat="38.07973579866759" lon="-1.1398294822079396"><ele>286.0</ele><time>2026-04-07T07:37:16Z</time></trkpt><trkpt lat="38.07977708287213" lon="-1.1397680747405534"><ele>286.0</ele><time>2026-04-07T07:37:17Z</time></trkpt><trkpt lat="38.079817344145724" lon="-1.1396956327299963"><ele>285.66666666666663</ele><time>2026-04-07T07:37:18Z</time></trkpt><trkpt lat="38.07986341198129" lon="-1.139586079578525"><ele>285.3333333333333</ele><time>2026-04-07T07:37:19Z</time></trkpt><trkpt lat="38.07989092712754" lon="-1.1394923396422834"><ele>285.0</ele><time>2026-04-07T07:37:20Z</time></trkpt><trkpt lat="38.079902475103616" lon="-1.139377568129004"><ele>284.6666666666667</ele><time>2026-04-07T07:37:21Z</time></trkpt><trkpt lat="38.07991467117143" lon="-1.1392687866301248"><ele>284.33333333333337</ele><time>2026-04-07T07:37:22Z</time></trkpt><trkpt lat="38.07993090721014" lon="-1.1391626049522263"><ele>284.0</ele><time>2026-04-07T07:37:23Z</time></trkpt><trkpt lat="38.07994764898073" lon="-1.1390769421661917"><ele>282.4</ele><time>2026-04-07T07:37:24Z</time></trkpt><trkpt lat="38.080003837797314" lon="-1.13894129014423"><ele>280.79999999999995</ele><time>2026-04-07T07:37:26Z</time></trkpt><trkpt lat="38.08007732775295" lon="-1.138859039769393"><ele>279.20000000000005</ele><time>2026-04-07T07:37:28Z</time></trkpt><trkpt lat="38.080129906412836" lon="-1.1387697869188578"><ele>277.6</ele><time>2026-04-07T07:37:31Z</time></trkpt><trkpt lat="38.08020912413742" lon="-1.138747920343215"><ele>276.0</ele><time>2026-04-07T07:37:33Z</time></trkpt><trkpt lat="38.08026997157971" lon="-1.1387192224821534"><ele>276.0</ele><time>2026-04-07T07:37:34Z</time></trkpt><trkpt lat="38.08035899694123" lon="-1.1386768566828076"><ele>276.0</ele><time>2026-04-07T07:37:36Z</time></trkpt><trkpt lat="38.08046418007538" lon="-1.1386161033837503"><ele>276.0</ele><time>2026-04-07T07:37:37Z</time></trkpt><trkpt lat="38.08054579169138" lon="-1.1385104623360967"><ele>276.0</ele><time>2026-04-07T07:37:39Z</time></trkpt><trkpt lat="38.080582520817764" lon="-1.1384239372104288"><ele>276.0</ele><time>2026-04-07T07:37:40Z</time></trkpt><trkpt lat="38.08052749971102" lon="-1.1382003935778002"><ele>273.2</ele><time>2026-04-07T07:37:41Z</time></trkpt><trkpt lat="38.080516185314565" lon="-1.1381111736598144"><ele>270.40000000000003</ele><time>2026-04-07T07:37:43Z</time></trkpt><trkpt lat="38.08047491132677" lon="-1.1380291049917581"><ele>267.6</ele><time>2026-04-07T07:37:45Z</time></trkpt><trkpt lat="38.08052335283129" lon="-1.1378730273408981"><ele>264.8</ele><time>2026-04-07T07:37:47Z</time></trkpt><trkpt lat="38.08053945739296" lon="-1.137762208697214"><ele>262.0</ele><time>2026-04-07T07:37:48Z</time></trkpt><trkpt lat="38.08057357466426" lon="-1.13763870399701"><ele>262.0</ele><time>2026-04-07T07:37:49Z</time></trkpt><trkpt lat="38.080672207473974" lon="-1.1375281844788498"><ele>262.0</ele><time>2026-04-07T07:37:50Z</time></trkpt><trkpt lat="38.0807837080629" lon="-1.1374238050601526"><ele>262.0</ele><time>2026-04-07T07:37:51Z</time></trkpt><trkpt lat="38.080882096422926" lon="-1.1373300160086373"><ele>262.0</ele><time>2026-04-07T07:37:52Z</time></trkpt><trkpt lat="38.08097493572352" lon="-1.1372364597702884"><ele>265.5</ele><time>2026-04-07T07:37:53Z</time></trkpt><trkpt lat="38.08107467329358" lon="-1.1371462956136005"><ele>269.0</ele><time>2026-04-07T07:37:54Z</time></trkpt><trkpt lat="38.081180015899506" lon="-1.1370777375732601"><ele>272.5</ele><time>2026-04-07T07:37:55Z</time></trkpt><trkpt lat="38.081292250664376" lon="-1.1370176996744852"><ele>276.0</ele><time>2026-04-07T07:37:56Z</time></trkpt><trkpt lat="38.08141741052266" lon="-1.136967443628369"><ele>276.0</ele><time>2026-04-07T07:37:57Z</time></trkpt><trkpt lat="38.081561493176125" lon="-1.1369349853475512"><ele>276.0</ele><time>2026-04-07T07:37:58Z</time></trkpt><trkpt lat="38.081699673719065" lon="-1.1369058325891555"><ele>276.0</ele><time>2026-04-07T07:37:59Z</time></trkpt><trkpt lat="38.08181768355098" lon="-1.1368803065214237"><ele>276.0</ele><time>2026-04-07T07:38:00Z</time></trkpt><trkpt lat="38.0819089830647" lon="-1.1368691829278719"><ele>277.3333333333333</ele><time>2026-04-07T07:38:01Z</time></trkpt><trkpt lat="38.081984956831555" lon="-1.1368698981048186"><ele>278.6666666666667</ele><time>2026-04-07T07:38:02Z</time></trkpt><trkpt lat="38.082120019252464" lon="-1.1368359290655006"><ele>280.0</ele><time>2026-04-07T07:38:04Z</time></trkpt><trkpt lat="38.082189918322484" lon="-1.1367893122288926"><ele>281.33333333333337</ele><time>2026-04-07T07:38:05Z</time></trkpt><trkpt lat="38.08226466680017" lon="-1.1367543758736967"><ele>282.6666666666667</ele><time>2026-04-07T07:38:06Z</time></trkpt><trkpt lat="38.082339089975164" lon="-1.1367489782189282"><ele>284.0</ele><time>2026-04-07T07:38:07Z</time></trkpt><trkpt lat="38.08241654290304" lon="-1.1367702411063643"><ele>284.33333333333337</ele><time>2026-04-07T07:38:08Z</time></trkpt><trkpt lat="38.08249163135719" lon="-1.1368023776916596"><ele>284.6666666666667</ele><time>2026-04-07T07:38:09Z</time></trkpt><trkpt lat="38.08256918615576" lon="-1.136837647260946"><ele>285.0</ele><time>2026-04-07T07:38:10Z</time></trkpt><trkpt lat="38.08264424969013" lon="-1.1368748431177773"><ele>285.3333333333333</ele><time>2026-04-07T07:38:11Z</time></trkpt><trkpt lat="38.08271947722889" lon="-1.1369169850017233"><ele>285.66666666666663</ele><time>2026-04-07T07:38:12Z</time></trkpt><trkpt lat="38.082796102812914" lon="-1.13696471439064"><ele>286.0</ele><time>2026-04-07T07:38:13Z</time></trkpt><trkpt lat="38.082869144273374" lon="-1.1370221818411008"><ele>286.0</ele><time>2026-04-07T07:38:14Z</time></trkpt><trkpt lat="38.08294088006304" lon="-1.1370927927131569"><ele>286.0</ele><time>2026-04-07T07:38:15Z</time></trkpt><trkpt lat="38.08302793404112" lon="-1.137160123086418"><ele>286.0</ele><time>2026-04-07T07:38:16Z</time></trkpt><trkpt lat="38.083133877113" lon="-1.137213059298515"><ele>286.0</ele><time>2026-04-07T07:38:17Z</time></trkpt><trkpt lat="38.083243908559595" lon="-1.1372652285715763"><ele>286.0</ele><time>2026-04-07T07:38:18Z</time></trkpt><trkpt lat="38.083345666096605" lon="-1.137320781368816"><ele>285.2</ele><time>2026-04-07T07:38:19Z</time></trkpt><trkpt lat="38.083450748242" lon="-1.137388686622748"><ele>284.40000000000003</ele><time>2026-04-07T07:38:20Z</time></trkpt><trkpt lat="38.08355267760532" lon="-1.1374543073301677"><ele>283.6</ele><time>2026-04-07T07:38:21Z</time></trkpt><trkpt lat="38.083642583968484" lon="-1.137517544675246"><ele>282.8</ele><time>2026-04-07T07:38:22Z</time></trkpt><trkpt lat="38.08371941048607" lon="-1.1375742450722304"><ele>282.0</ele><time>2026-04-07T07:38:23Z</time></trkpt><trkpt lat="38.083788472171314" lon="-1.1376102576765699"><ele>282.0</ele><time>2026-04-07T07:38:24Z</time></trkpt><trkpt lat="38.083863007203334" lon="-1.137614367237126"><ele>282.0</ele><time>2026-04-07T07:38:25Z</time></trkpt><trkpt lat="38.083941178005354" lon="-1.1375955284159114"><ele>282.0</ele><time>2026-04-07T07:38:26Z</time></trkpt><trkpt lat="38.08403265382101" lon="-1.1375510818274135"><ele>282.0</ele><time>2026-04-07T07:38:27Z</time></trkpt><trkpt lat="38.0841301062122" lon="-1.137486133087232"><ele>282.0</ele><time>2026-04-07T07:38:28Z</time></trkpt><trkpt lat="38.08423611168275" lon="-1.1373913329025915"><ele>280.5</ele><time>2026-04-07T07:38:29Z</time></trkpt><trkpt lat="38.08434087653825" lon="-1.137292498059168"><ele>279.0</ele><time>2026-04-07T07:38:30Z</time></trkpt><trkpt lat="38.08443298697454" lon="-1.1372041952380543"><ele>277.5</ele><time>2026-04-07T07:38:31Z</time></trkpt><trkpt lat="38.08452452466285" lon="-1.137126774786842"><ele>276.0</ele><time>2026-04-07T07:38:32Z</time></trkpt><trkpt lat="38.08461561668587" lon="-1.1370486502678596"><ele>276.0</ele><time>2026-04-07T07:38:33Z</time></trkpt><trkpt lat="38.08468934134261" lon="-1.136959106892998"><ele>276.0</ele><time>2026-04-07T07:38:34Z</time></trkpt><trkpt lat="38.08475644146788" lon="-1.1368456271955263"><ele>276.0</ele><time>2026-04-07T07:38:35Z</time></trkpt><trkpt lat="38.084818395732164" lon="-1.1367365720018516"><ele>276.0</ele><time>2026-04-07T07:38:36Z</time></trkpt><trkpt lat="38.0848877938144" lon="-1.136640326547368"><ele>276.0</ele><time>2026-04-07T07:38:37Z</time></trkpt><trkpt lat="38.08496734602415" lon="-1.1365566369522264"><ele>275.0</ele><time>2026-04-07T07:38:38Z</time></trkpt><trkpt lat="38.08505734425377" lon="-1.136497894477139"><ele>274.0</ele><time>2026-04-07T07:38:39Z</time></trkpt><trkpt lat="38.085158970197305" lon="-1.1364618290122297"><ele>273.0</ele><time>2026-04-07T07:38:40Z</time></trkpt><trkpt lat="38.08528379162159" lon="-1.136444018642973"><ele>272.0</ele><time>2026-04-07T07:38:41Z</time></trkpt><trkpt lat="38.0854192701666" lon="-1.1364429259032638"><ele>272.0</ele><time>2026-04-07T07:38:42Z</time></trkpt><trkpt lat="38.085541505637394" lon="-1.136442147601161"><ele>272.0</ele><time>2026-04-07T07:38:43Z</time></trkpt><trkpt lat="38.08566858366013" lon="-1.1364312586821075"><ele>272.0</ele><time>2026-04-07T07:38:44Z</time></trkpt><trkpt lat="38.08579674179588" lon="-1.1364136402991376"><ele>272.0</ele><time>2026-04-07T07:38:45Z</time></trkpt><trkpt lat="38.08592604496502" lon="-1.1364173582367971"><ele>273.5</ele><time>2026-04-07T07:38:46Z</time></trkpt><trkpt lat="38.086055301810944" lon="-1.1364443376245963"><ele>275.0</ele><time>2026-04-07T07:38:47Z</time></trkpt><trkpt lat="38.08618987291353" lon="-1.1364911156751387"><ele>276.5</ele><time>2026-04-07T07:38:48Z</time></trkpt><trkpt lat="38.086314209712306" lon="-1.1365478931329973"><ele>278.0</ele><time>2026-04-07T07:38:49Z</time></trkpt><trkpt lat="38.08643953051688" lon="-1.1366270527353035"><ele>279.0</ele><time>2026-04-07T07:38:50Z</time></trkpt><trkpt lat="38.086539414937825" lon="-1.1367137607769469"><ele>280.0</ele><time>2026-04-07T07:38:51Z</time></trkpt><trkpt lat="38.08663524589279" lon="-1.1367933014742557"><ele>281.0</ele><time>2026-04-07T07:38:52Z</time></trkpt><trkpt lat="38.08673180997558" lon="-1.136847726472957"><ele>282.0</ele><time>2026-04-07T07:38:53Z</time></trkpt><trkpt lat="38.086823984707685" lon="-1.1368687240658921"><ele>283.0</ele><time>2026-04-07T07:38:54Z</time></trkpt><trkpt lat="38.08693732446301" lon="-1.13686307270863"><ele>283.25</ele><time>2026-04-07T07:38:55Z</time></trkpt><trkpt lat="38.08707047471575" lon="-1.1368314198988692"><ele>283.5</ele><time>2026-04-07T07:38:56Z</time></trkpt><trkpt lat="38.087196462457044" lon="-1.1367986609439207"><ele>283.75</ele><time>2026-04-07T07:38:57Z</time></trkpt><trkpt lat="38.087305982269946" lon="-1.1367630463588605"><ele>284.0</ele><time>2026-04-07T07:38:58Z</time></trkpt><trkpt lat="38.08740759450936" lon="-1.1367426215272585"><ele>284.33333333333337</ele><time>2026-04-07T07:38:59Z</time></trkpt><trkpt lat="38.087501411108796" lon="-1.1367261829472042"><ele>284.6666666666667</ele><time>2026-04-07T07:39:00Z</time></trkpt><trkpt lat="38.087587852399245" lon="-1.1367229113926456"><ele>285.0</ele><time>2026-04-07T07:39:01Z</time></trkpt><trkpt lat="38.087666187572765" lon="-1.1367310873366654"><ele>285.3333333333333</ele><time>2026-04-07T07:39:02Z</time></trkpt><trkpt lat="38.08773339039522" lon="-1.1367493692317028"><ele>285.66666666666663</ele><time>2026-04-07T07:39:03Z</time></trkpt><trkpt lat="38.08782979458627" lon="-1.1367918484100241"><ele>286.0</ele><time>2026-04-07T07:39:05Z</time></trkpt><trkpt lat="38.08787007909981" lon="-1.1368732067596032"><ele>286.0</ele><time>2026-04-07T07:39:07Z</time></trkpt><trkpt lat="38.0878967794108" lon="-1.1369648551061766"><ele>286.0</ele><time>2026-04-07T07:39:08Z</time></trkpt><trkpt lat="38.08794125502989" lon="-1.1370653606213863"><ele>286.0</ele><time>2026-04-07T07:39:09Z</time></trkpt><trkpt lat="38.088005632649136" lon="-1.1371445439857246"><ele>286.0</ele><time>2026-04-07T07:39:10Z</time></trkpt><trkpt lat="38.088071477240575" lon="-1.1372166793056318"><ele>286.0</ele><time>2026-04-07T07:39:11Z</time></trkpt><trkpt lat="38.08812650654028" lon="-1.1372619281651186"><ele>286.0</ele><time>2026-04-07T07:39:12Z</time></trkpt><trkpt lat="38.08819482708813" lon="-1.1372868990788276"><ele>285.8</ele><time>2026-04-07T07:39:14Z</time></trkpt><trkpt lat="38.08829320294548" lon="-1.1372664240458765"><ele>285.6</ele><time>2026-04-07T07:39:16Z</time></trkpt><trkpt lat="38.0883611844914" lon="-1.137211008903901"><ele>285.4</ele><time>2026-04-07T07:39:17Z</time></trkpt><trkpt lat="38.08843421421137" lon="-1.1371336396790461"><ele>285.2</ele><time>2026-04-07T07:39:18Z</time></trkpt><trkpt lat="38.08851823671884" lon="-1.1370576601794982"><ele>285.0</ele><time>2026-04-07T07:39:19Z</time></trkpt><trkpt lat="38.088606472131374" lon="-1.1369984239170075"><ele>285.0</ele><time>2026-04-07T07:39:20Z</time></trkpt><trkpt lat="38.08870538179116" lon="-1.13695014378118"><ele>285.0</ele><time>2026-04-07T07:39:21Z</time></trkpt><trkpt lat="38.088821485744774" lon="-1.1369107393516253"><ele>285.0</ele><time>2026-04-07T07:39:22Z</time></trkpt><trkpt lat="38.088927083523934" lon="-1.1368747393752712"><ele>285.0</ele><time>2026-04-07T07:39:23Z</time></trkpt><trkpt lat="38.08901541893941" lon="-1.1368286999870516"><ele>285.0</ele><time>2026-04-07T07:39:24Z</time></trkpt><trkpt lat="38.089083562866804" lon="-1.1367746541619008"><ele>285.6666666666667</ele><time>2026-04-07T07:39:25Z</time></trkpt><trkpt lat="38.08912953934718" lon="-1.1367066580186183"><ele>286.3333333333333</ele><time>2026-04-07T07:39:26Z</time></trkpt><trkpt lat="38.08916332274344" lon="-1.1366266014730528"><ele>287.0</ele><time>2026-04-07T07:39:27Z</time></trkpt><trkpt lat="38.08920742869374" lon="-1.1365514215245347"><ele>287.66666666666663</ele><time>2026-04-07T07:39:28Z</time></trkpt><trkpt lat="38.08927689435632" lon="-1.1364927376545986"><ele>288.3333333333333</ele><time>2026-04-07T07:39:29Z</time></trkpt><trkpt lat="38.08938231399557" lon="-1.1364436574392796"><ele>289.0</ele><time>2026-04-07T07:39:30Z</time></trkpt><trkpt lat="38.089508729141734" lon="-1.1364040852640174"><ele>287.4</ele><time>2026-04-07T07:39:31Z</time></trkpt><trkpt lat="38.08962098677627" lon="-1.1363687344688436"><ele>285.79999999999995</ele><time>2026-04-07T07:39:32Z</time></trkpt><trkpt lat="38.08972047279633" lon="-1.136316281301671"><ele>284.20000000000005</ele><time>2026-04-07T07:39:33Z</time></trkpt><trkpt lat="38.089805689358776" lon="-1.1362760976751858"><ele>282.6</ele><time>2026-04-07T07:39:34Z</time></trkpt><trkpt lat="38.08988885721971" lon="-1.1362457876207974"><ele>281.0</ele><time>2026-04-07T07:39:35Z</time></trkpt><trkpt lat="38.08997460678011" lon="-1.1362311652793444"><ele>280.6</ele><time>2026-04-07T07:39:36Z</time></trkpt><trkpt lat="38.09006545335923" lon="-1.1362180922903233"><ele>280.20000000000005</ele><time>2026-04-07T07:39:37Z</time></trkpt><trkpt lat="38.090161640797746" lon="-1.1362241341170296"><ele>279.79999999999995</ele><time>2026-04-07T07:39:38Z</time></trkpt><trkpt lat="38.09025693690944" lon="-1.1362545829515263"><ele>279.4</ele><time>2026-04-07T07:39:39Z</time></trkpt><trkpt lat="38.090362952657365" lon="-1.1363111686018212"><ele>279.0</ele><time>2026-04-07T07:39:40Z</time></trkpt><trkpt lat="38.090468097509586" lon="-1.1363832508140956"><ele>279.0</ele><time>2026-04-07T07:39:41Z</time></trkpt><trkpt lat="38.09055661337498" lon="-1.1364524356186594"><ele>279.0</ele><time>2026-04-07T07:39:42Z</time></trkpt><trkpt lat="38.09064302615197" lon="-1.136517563562699"><ele>279.0</ele><time>2026-04-07T07:39:43Z</time></trkpt><trkpt lat="38.0907259773445" lon="-1.1365886569361154"><ele>279.0</ele><time>2026-04-07T07:39:44Z</time></trkpt><trkpt lat="38.09080910122208" lon="-1.1366292124193085"><ele>279.0</ele><time>2026-04-07T07:39:45Z</time></trkpt><trkpt lat="38.090890211556896" lon="-1.1366690146408984"><ele>279.0</ele><time>2026-04-07T07:39:46Z</time></trkpt><trkpt lat="38.090972819231744" lon="-1.1367330998752234"><ele>279.0</ele><time>2026-04-07T07:39:47Z</time></trkpt><trkpt lat="38.09108055708161" lon="-1.136768830636885"><ele>279.0</ele><time>2026-04-07T07:39:48Z</time></trkpt><trkpt lat="38.09117293221836" lon="-1.1368348025008819"><ele>279.0</ele><time>2026-04-07T07:39:49Z</time></trkpt><trkpt lat="38.091270896035816" lon="-1.1368800365221694"><ele>279.0</ele><time>2026-04-07T07:39:50Z</time></trkpt><trkpt lat="38.09137014894847" lon="-1.1369443353701825"><ele>279.0</ele><time>2026-04-07T07:39:51Z</time></trkpt><trkpt lat="38.09147648812465" lon="-1.13702522344148"><ele>279.0</ele><time>2026-04-07T07:39:52Z</time></trkpt><trkpt lat="38.091581610578814" lon="-1.1370927295180735"><ele>279.0</ele><time>2026-04-07T07:39:53Z</time></trkpt><trkpt lat="38.091654262031405" lon="-1.1371816827074248"><ele>279.0</ele><time>2026-04-07T07:39:54Z</time></trkpt><trkpt lat="38.09173999888093" lon="-1.1372440856174353"><ele>279.0</ele><time>2026-04-07T07:39:55Z</time></trkpt><trkpt lat="38.091821203160826" lon="-1.1373367465805273"><ele>279.0</ele><time>2026-04-07T07:39:56Z</time></trkpt><trkpt lat="38.09190224786194" lon="-1.1374363808914967"><ele>279.0</ele><time>2026-04-07T07:39:57Z</time></trkpt><trkpt lat="38.09198422256095" lon="-1.1375872275467278"><ele>279.0</ele><time>2026-04-07T07:39:58Z</time></trkpt><trkpt lat="38.09207137304744" lon="-1.1376930210703127"><ele>279.0</ele><time>2026-04-07T07:39:59Z</time></trkpt><trkpt lat="38.09217541692756" lon="-1.1377683426673302"><ele>279.0</ele><time>2026-04-07T07:40:00Z</time></trkpt><trkpt lat="38.092274683848245" lon="-1.1378148319880035"><ele>279.0</ele><time>2026-04-07T07:40:01Z</time></trkpt><trkpt lat="38.092368726952685" lon="-1.137851236468397"><ele>279.0</ele><time>2026-04-07T07:40:02Z</time></trkpt><trkpt lat="38.09244836126168" lon="-1.1378568058392837"><ele>279.0</ele><time>2026-04-07T07:40:03Z</time></trkpt><trkpt lat="38.09256450985891" lon="-1.1380142744053057"><ele>278.59999999999997</ele><time>2026-04-07T07:40:05Z</time></trkpt><trkpt lat="38.09260805798706" lon="-1.1381019936371044"><ele>278.2</ele><time>2026-04-07T07:40:06Z</time></trkpt><trkpt lat="38.09265934143398" lon="-1.1382024813998233"><ele>277.79999999999995</ele><time>2026-04-07T07:40:07Z</time></trkpt><trkpt lat="38.09270953580307" lon="-1.1383305306621032"><ele>277.4</ele><time>2026-04-07T07:40:08Z</time></trkpt><trkpt lat="38.09279406338513" lon="-1.1384378507095358"><ele>277.0</ele><time>2026-04-07T07:40:09Z</time></trkpt><trkpt lat="38.092868620081816" lon="-1.1385501231621826"><ele>276.6</ele><time>2026-04-07T07:40:10Z</time></trkpt><trkpt lat="38.09293550129258" lon="-1.1386450122534206"><ele>276.2</ele><time>2026-04-07T07:40:11Z</time></trkpt><trkpt lat="38.09299439135488" lon="-1.1387056654412213"><ele>275.8</ele><time>2026-04-07T07:40:12Z</time></trkpt><trkpt lat="38.09309064478076" lon="-1.1387809386742636"><ele>275.4</ele><time>2026-04-07T07:40:14Z</time></trkpt><trkpt lat="38.093211133058844" lon="-1.1388124526390206"><ele>275.0</ele><time>2026-04-07T07:40:16Z</time></trkpt><trkpt lat="38.093281016605225" lon="-1.1388387577552819"><ele>275.0</ele><time>2026-04-07T07:40:17Z</time></trkpt><trkpt lat="38.09334831225621" lon="-1.138894992952768"><ele>275.0</ele><time>2026-04-07T07:40:18Z</time></trkpt><trkpt lat="38.0934176555774" lon="-1.1389743513047272"><ele>275.0</ele><time>2026-04-07T07:40:19Z</time></trkpt><trkpt lat="38.093497123549206" lon="-1.1390696544792802"><ele>275.0</ele><time>2026-04-07T07:40:20Z</time></trkpt><trkpt lat="38.09358505333345" lon="-1.1391674930799207"><ele>275.0</ele><time>2026-04-07T07:40:21Z</time></trkpt><trkpt lat="38.09366810529947" lon="-1.139246650901123"><ele>274.8</ele><time>2026-04-07T07:40:22Z</time></trkpt><trkpt lat="38.09374588446041" lon="-1.1393190737733214"><ele>274.6</ele><time>2026-04-07T07:40:23Z</time></trkpt><trkpt lat="38.09380787557958" lon="-1.1393782968737614"><ele>274.4</ele><time>2026-04-07T07:40:24Z</time></trkpt><trkpt lat="38.0938904744865" lon="-1.1394769488530265"><ele>274.2</ele><time>2026-04-07T07:40:26Z</time></trkpt><trkpt lat="38.09394477482353" lon="-1.1395441908551367"><ele>274.0</ele><time>2026-04-07T07:40:27Z</time></trkpt><trkpt lat="38.09400455693043" lon="-1.1396355101134963"><ele>274.0</ele><time>2026-04-07T07:40:28Z</time></trkpt><trkpt lat="38.09406654164939" lon="-1.1397363764063768"><ele>274.0</ele><time>2026-04-07T07:40:29Z</time></trkpt><trkpt lat="38.094118783963395" lon="-1.1398491890773763"><ele>274.0</ele><time>2026-04-07T07:40:30Z</time></trkpt><trkpt lat="38.09417690281011" lon="-1.1399414364404945"><ele>274.0</ele><time>2026-04-07T07:40:31Z</time></trkpt><trkpt lat="38.094230695831655" lon="-1.1400031716941765"><ele>274.0</ele><time>2026-04-07T07:40:32Z</time></trkpt><trkpt lat="38.09429571949223" lon="-1.1400496020609463"><ele>274.0</ele><time>2026-04-07T07:40:33Z</time></trkpt><trkpt lat="38.094383586719005" lon="-1.140088383230533"><ele>273.0</ele><time>2026-04-07T07:40:34Z</time></trkpt><trkpt lat="38.094478630350906" lon="-1.1401413844511368"><ele>272.0</ele><time>2026-04-07T07:40:35Z</time></trkpt><trkpt lat="38.094576212629526" lon="-1.1402311694832545"><ele>271.0</ele><time>2026-04-07T07:40:36Z</time></trkpt><trkpt lat="38.09466031620665" lon="-1.1403210864800426"><ele>270.0</ele><time>2026-04-07T07:40:37Z</time></trkpt><trkpt lat="38.09474270997178" lon="-1.1403746092694795"><ele>269.0</ele><time>2026-04-07T07:40:38Z</time></trkpt><trkpt lat="38.094821719272204" lon="-1.140402893476274"><ele>269.0</ele><time>2026-04-07T07:40:39Z</time></trkpt><trkpt lat="38.09491307746261" lon="-1.1404223829089164"><ele>269.0</ele><time>2026-04-07T07:40:40Z</time></trkpt><trkpt lat="38.09502062632146" lon="-1.1404252122299268"><ele>269.0</ele><time>2026-04-07T07:40:41Z</time></trkpt><trkpt lat="38.09513165027016" lon="-1.1404164051356418"><ele>269.0</ele><time>2026-04-07T07:40:42Z</time></trkpt><trkpt lat="38.095238225865664" lon="-1.1404070111312425"><ele>269.0</ele><time>2026-04-07T07:40:43Z</time></trkpt><trkpt lat="38.09534010364983" lon="-1.1404073579049439"><ele>268.8</ele><time>2026-04-07T07:40:44Z</time></trkpt><trkpt lat="38.09544055822039" lon="-1.1404435583047687"><ele>268.59999999999997</ele><time>2026-04-07T07:40:45Z</time></trkpt><trkpt lat="38.09553303081724" lon="-1.140495194162048"><ele>268.4</ele><time>2026-04-07T07:40:46Z</time></trkpt><trkpt lat="38.09562117930695" lon="-1.1405305113591102"><ele>268.2</ele><time>2026-04-07T07:40:47Z</time></trkpt><trkpt lat="38.09571086849664" lon="-1.1405459413564156"><ele>268.0</ele><time>2026-04-07T07:40:48Z</time></trkpt><trkpt lat="38.09579425939951" lon="-1.1405444829171172"><ele>267.2</ele><time>2026-04-07T07:40:49Z</time></trkpt><trkpt lat="38.095882871120025" lon="-1.1405587286404937"><ele>266.4</ele><time>2026-04-07T07:40:50Z</time></trkpt><trkpt lat="38.09596687843017" lon="-1.140586839176311"><ele>265.59999999999997</ele><time>2026-04-07T07:40:51Z</time></trkpt><trkpt lat="38.09605364584441" lon="-1.1406209219130372"><ele>264.8</ele><time>2026-04-07T07:40:52Z</time></trkpt><trkpt lat="38.09614324913261" lon="-1.140656763228995"><ele>264.0</ele><time>2026-04-07T07:40:53Z</time></trkpt><trkpt lat="38.09622642147732" lon="-1.1407031462181385"><ele>264.2</ele><time>2026-04-07T07:40:54Z</time></trkpt><trkpt lat="38.0963045792209" lon="-1.1407478297656444"><ele>264.4</ele><time>2026-04-07T07:40:55Z</time></trkpt><trkpt lat="38.09639127165647" lon="-1.1407697660800096"><ele>264.6</ele><time>2026-04-07T07:40:56Z</time></trkpt><trkpt lat="38.096489510581065" lon="-1.140782046321979"><ele>264.8</ele><time>2026-04-07T07:40:57Z</time></trkpt><trkpt lat="38.096597962995915" lon="-1.14083156492058"><ele>265.0</ele><time>2026-04-07T07:40:58Z</time></trkpt><trkpt lat="38.0966965787956" lon="-1.1409043484260597"><ele>262.5</ele><time>2026-04-07T07:40:59Z</time></trkpt><trkpt lat="38.096800238904166" lon="-1.1410046631457735"><ele>260.0</ele><time>2026-04-07T07:41:00Z</time></trkpt><trkpt lat="38.09690344590814" lon="-1.1411036204375544"><ele>257.5</ele><time>2026-04-07T07:41:01Z</time></trkpt><trkpt lat="38.09699822787221" lon="-1.141186905738785"><ele>255.0</ele><time>2026-04-07T07:41:02Z</time></trkpt><trkpt lat="38.09708701380664" lon="-1.1412614333621627"><ele>255.0</ele><time>2026-04-07T07:41:03Z</time></trkpt><trkpt lat="38.09718511392524" lon="-1.1413158898308597"><ele>255.0</ele><time>2026-04-07T07:41:04Z</time></trkpt><trkpt lat="38.09728121155671" lon="-1.1413577928004133"><ele>255.0</ele><time>2026-04-07T07:41:05Z</time></trkpt><trkpt lat="38.09736042986662" lon="-1.1413953692388301"><ele>255.0</ele><time>2026-04-07T07:41:06Z</time></trkpt><trkpt lat="38.0974207342376" lon="-1.1414354158518105"><ele>255.0</ele><time>2026-04-07T07:41:07Z</time></trkpt><trkpt lat="38.097509772710474" lon="-1.1415464340142207"><ele>253.83333333333334</ele><time>2026-04-07T07:41:09Z</time></trkpt><trkpt lat="38.0975292228946" lon="-1.1416266716464605"><ele>252.66666666666669</ele><time>2026-04-07T07:41:10Z</time></trkpt><trkpt lat="38.097535246344556" lon="-1.1417259103767763"><ele>251.5</ele><time>2026-04-07T07:41:11Z</time></trkpt><trkpt lat="38.09754676011782" lon="-1.1418203055803757"><ele>250.33333333333334</ele><time>2026-04-07T07:41:12Z</time></trkpt><trkpt lat="38.097591644952146" lon="-1.1418925267063074"><ele>249.16666666666669</ele><time>2026-04-07T07:41:13Z</time></trkpt><trkpt lat="38.09766232982199" lon="-1.141936782063343"><ele>248.0</ele><time>2026-04-07T07:41:14Z</time></trkpt><trkpt lat="38.097735206411116" lon="-1.1419799928870753"><ele>248.0</ele><time>2026-04-07T07:41:15Z</time></trkpt><trkpt lat="38.097835888357224" lon="-1.1420287699311378"><ele>248.0</ele><time>2026-04-07T07:41:16Z</time></trkpt><trkpt lat="38.09792480115382" lon="-1.1420894895365141"><ele>248.0</ele><time>2026-04-07T07:41:17Z</time></trkpt><trkpt lat="38.09801643215636" lon="-1.142164162481189"><ele>248.0</ele><time>2026-04-07T07:41:18Z</time></trkpt><trkpt lat="38.09811799899814" lon="-1.1422207887661282"><ele>248.0</ele><time>2026-04-07T07:41:19Z</time></trkpt><trkpt lat="38.098228710240654" lon="-1.1422608996589119"><ele>245.75</ele><time>2026-04-07T07:41:20Z</time></trkpt><trkpt lat="38.098346196342554" lon="-1.142300648971271"><ele>243.5</ele><time>2026-04-07T07:41:21Z</time></trkpt><trkpt lat="38.09846441618578" lon="-1.1423346106335035"><ele>241.25</ele><time>2026-04-07T07:41:22Z</time></trkpt><trkpt lat="38.09858164823159" lon="-1.142354826442332"><ele>239.0</ele><time>2026-04-07T07:41:23Z</time></trkpt><trkpt lat="38.098701204592764" lon="-1.1423709352448175"><ele>238.39999999999998</ele><time>2026-04-07T07:41:24Z</time></trkpt><trkpt lat="38.09880993944813" lon="-1.1423906240469817"><ele>237.79999999999998</ele><time>2026-04-07T07:41:25Z</time></trkpt><trkpt lat="38.09890571506751" lon="-1.1424105872647592"><ele>237.20000000000002</ele><time>2026-04-07T07:41:26Z</time></trkpt><trkpt lat="38.09898954215716" lon="-1.1424168608177758"><ele>236.60000000000002</ele><time>2026-04-07T07:41:27Z</time></trkpt><trkpt lat="38.09909322167807" lon="-1.14234182805124"><ele>236.0</ele><time>2026-04-07T07:41:29Z</time></trkpt><trkpt lat="38.09912842754096" lon="-1.1422564275341387"><ele>236.00000000000003</ele><time>2026-04-07T07:41:30Z</time></trkpt><trkpt lat="38.099164139508865" lon="-1.142177471715239"><ele>236.0</ele><time>2026-04-07T07:41:31Z</time></trkpt><trkpt lat="38.09922140531058" lon="-1.1421048522081343"><ele>236.0</ele><time>2026-04-07T07:41:32Z</time></trkpt><trkpt lat="38.09929412996179" lon="-1.142025582647443"><ele>236.0</ele><time>2026-04-07T07:41:33Z</time></trkpt><trkpt lat="38.099359382633104" lon="-1.141973051542294"><ele>236.00000000000003</ele><time>2026-04-07T07:41:34Z</time></trkpt><trkpt lat="38.09943205430543" lon="-1.1419513697417023"><ele>236.0</ele><time>2026-04-07T07:41:35Z</time></trkpt><trkpt lat="38.09951603156399" lon="-1.141960069665429"><ele>236.0</ele><time>2026-04-07T07:41:36Z</time></trkpt><trkpt lat="38.09961229071042" lon="-1.1419766506424456"><ele>236.00000000000003</ele><time>2026-04-07T07:41:37Z</time></trkpt><trkpt lat="38.099710933071876" lon="-1.141992464076066"><ele>236.00000000000003</ele><time>2026-04-07T07:41:38Z</time></trkpt><trkpt lat="38.09979913584808" lon="-1.142028513472671"><ele>236.0</ele><time>2026-04-07T07:41:39Z</time></trkpt><trkpt lat="38.09989932958585" lon="-1.1420840130018488"><ele>236.0</ele><time>2026-04-07T07:41:40Z</time></trkpt><trkpt lat="38.10000757480053" lon="-1.1421384796052148"><ele>235.8</ele><time>2026-04-07T07:41:41Z</time></trkpt><trkpt lat="38.10012014531875" lon="-1.142186274671545"><ele>235.60000000000002</ele><time>2026-04-07T07:41:42Z</time></trkpt><trkpt lat="38.10022936068875" lon="-1.1422237332391527"><ele>235.4</ele><time>2026-04-07T07:41:43Z</time></trkpt><trkpt lat="38.10033092192196" lon="-1.1422565022674198"><ele>235.2</ele><time>2026-04-07T07:41:44Z</time></trkpt><trkpt lat="38.10043455430976" lon="-1.1422804562666307"><ele>235.0</ele><time>2026-04-07T07:41:45Z</time></trkpt><trkpt lat="38.100541412695556" lon="-1.1423027360480242"><ele>235.0</ele><time>2026-04-07T07:41:46Z</time></trkpt><trkpt lat="38.10064616186435" lon="-1.1423373875913982"><ele>235.0</ele><time>2026-04-07T07:41:47Z</time></trkpt><trkpt lat="38.10074670370434" lon="-1.1423624285838438"><ele>235.0</ele><time>2026-04-07T07:41:48Z</time></trkpt><trkpt lat="38.100839009940124" lon="-1.1423991898639316"><ele>235.0</ele><time>2026-04-07T07:41:49Z</time></trkpt><trkpt lat="38.100919089109965" lon="-1.1424575567683224"><ele>235.0</ele><time>2026-04-07T07:41:50Z</time></trkpt><trkpt lat="38.10099945696499" lon="-1.1425486281942279"><ele>234.6</ele><time>2026-04-07T07:41:51Z</time></trkpt><trkpt lat="38.10106757357716" lon="-1.1426362443908302"><ele>234.2</ele><time>2026-04-07T07:41:52Z</time></trkpt><trkpt lat="38.10114387511669" lon="-1.1427003449908968"><ele>233.8</ele><time>2026-04-07T07:41:53Z</time></trkpt><trkpt lat="38.10123315370123" lon="-1.1427449386276556"><ele>233.4</ele><time>2026-04-07T07:41:54Z</time></trkpt><trkpt lat="38.10133318511282" lon="-1.142783965708839"><ele>233.0</ele><time>2026-04-07T07:41:55Z</time></trkpt><trkpt lat="38.10141806144426" lon="-1.1428264003941835"><ele>233.00000000000003</ele><time>2026-04-07T07:41:56Z</time></trkpt><trkpt lat="38.10148657926348" lon="-1.1428868719310534"><ele>233.0</ele><time>2026-04-07T07:41:57Z</time></trkpt><trkpt lat="38.10154041387617" lon="-1.142963958143366"><ele>233.0</ele><time>2026-04-07T07:41:58Z</time></trkpt><trkpt lat="38.101588384128576" lon="-1.143054617322357"><ele>233.0</ele><time>2026-04-07T07:41:59Z</time></trkpt><trkpt lat="38.101624214289274" lon="-1.1431428305097677"><ele>233.00000000000003</ele><time>2026-04-07T07:42:00Z</time></trkpt><trkpt lat="38.10163747953169" lon="-1.1432487195544376"><ele>233.0</ele><time>2026-04-07T07:42:01Z</time></trkpt><trkpt lat="38.101626042037964" lon="-1.1433710250648108"><ele>231.8</ele><time>2026-04-07T07:42:02Z</time></trkpt><trkpt lat="38.10159951796105" lon="-1.1435029145107345"><ele>230.60000000000002</ele><time>2026-04-07T07:42:03Z</time></trkpt><trkpt lat="38.10158253174409" lon="-1.1436167165261524"><ele>229.39999999999998</ele><time>2026-04-07T07:42:04Z</time></trkpt><trkpt lat="38.10158717184314" lon="-1.1437055431669274"><ele>228.2</ele><time>2026-04-07T07:42:05Z</time></trkpt><trkpt lat="38.10161660511549" lon="-1.1438419204270907"><ele>227.0</ele><time>2026-04-07T07:42:07Z</time></trkpt><trkpt lat="38.10166719809797" lon="-1.1439313237343114"><ele>227.0</ele><time>2026-04-07T07:42:08Z</time></trkpt><trkpt lat="38.101739246017004" lon="-1.144022001713046"><ele>227.0</ele><time>2026-04-07T07:42:09Z</time></trkpt><trkpt lat="38.10182388017285" lon="-1.1441088197020315"><ele>227.0</ele><time>2026-04-07T07:42:10Z</time></trkpt><trkpt lat="38.101910934348076" lon="-1.1442066690717747"><ele>227.0</ele><time>2026-04-07T07:42:11Z</time></trkpt><trkpt lat="38.10199903884211" lon="-1.1443012599261455"><ele>227.0</ele><time>2026-04-07T07:42:12Z</time></trkpt><trkpt lat="38.10208485411227" lon="-1.144399227067676"><ele>227.75</ele><time>2026-04-07T07:42:13Z</time></trkpt><trkpt lat="38.10217069483435" lon="-1.1445044823336716"><ele>228.5</ele><time>2026-04-07T07:42:14Z</time></trkpt><trkpt lat="38.102252330325456" lon="-1.1446120817414416"><ele>229.25</ele><time>2026-04-07T07:42:15Z</time></trkpt><trkpt lat="38.102335984896584" lon="-1.1447210392338287"><ele>230.0</ele><time>2026-04-07T07:42:16Z</time></trkpt><trkpt lat="38.102423081071585" lon="-1.1448347271447208"><ele>229.4</ele><time>2026-04-07T07:42:17Z</time></trkpt><trkpt lat="38.102503359870745" lon="-1.1449484460734618"><ele>228.8</ele><time>2026-04-07T07:42:18Z</time></trkpt><trkpt lat="38.10257889273137" lon="-1.1450448695220017"><ele>228.2</ele><time>2026-04-07T07:42:19Z</time></trkpt><trkpt lat="38.102654158969145" lon="-1.1451297555130948"><ele>227.6</ele><time>2026-04-07T07:42:20Z</time></trkpt><trkpt lat="38.1027307718162" lon="-1.1452100316487897"><ele>227.0</ele><time>2026-04-07T07:42:21Z</time></trkpt><trkpt lat="38.10280812519113" lon="-1.1452866542808993"><ele>227.00000000000003</ele><time>2026-04-07T07:42:22Z</time></trkpt><trkpt lat="38.10287050631989" lon="-1.14534480249151"><ele>227.0</ele><time>2026-04-07T07:42:23Z</time></trkpt><trkpt lat="38.10292754548451" lon="-1.1453923054394282"><ele>227.0</ele><time>2026-04-07T07:42:24Z</time></trkpt><trkpt lat="38.102983398617305" lon="-1.1454333501731615"><ele>227.0</ele><time>2026-04-07T07:42:25Z</time></trkpt><trkpt lat="38.1030730529885" lon="-1.1455105777477006"><ele>227.00000000000003</ele><time>2026-04-07T07:42:27Z</time></trkpt><trkpt lat="38.103142080975026" lon="-1.1456287806906311"><ele>227.0</ele><time>2026-04-07T07:42:29Z</time></trkpt><trkpt lat="38.10318448710791" lon="-1.1456920197167302"><ele>226.85714285714286</ele><time>2026-04-07T07:42:30Z</time></trkpt><trkpt lat="38.10322611358211" lon="-1.1457530087162269"><ele>226.71428571428572</ele><time>2026-04-07T07:42:31Z</time></trkpt><trkpt lat="38.10326808879356" lon="-1.1458200442096658"><ele>226.57142857142858</ele><time>2026-04-07T07:42:32Z</time></trkpt><trkpt lat="38.103317856414236" lon="-1.1458811441627275"><ele>226.42857142857144</ele><time>2026-04-07T07:42:33Z</time></trkpt><trkpt lat="38.1033711942302" lon="-1.145930041691695"><ele>226.28571428571428</ele><time>2026-04-07T07:42:34Z</time></trkpt><trkpt lat="38.103426699164125" lon="-1.1459857190188365"><ele>226.14285714285717</ele><time>2026-04-07T07:42:35Z</time></trkpt><trkpt lat="38.10349525156041" lon="-1.1460492183604305"><ele>226.0</ele><time>2026-04-07T07:42:36Z</time></trkpt><trkpt lat="38.103574606570156" lon="-1.14612278646412"><ele>225.5</ele><time>2026-04-07T07:42:37Z</time></trkpt><trkpt lat="38.103667210284115" lon="-1.146206977966566"><ele>225.0</ele><time>2026-04-07T07:42:38Z</time></trkpt><trkpt lat="38.103769065856554" lon="-1.1462964694158786"><ele>224.5</ele><time>2026-04-07T07:42:39Z</time></trkpt><trkpt lat="38.10386831007949" lon="-1.146391250291832"><ele>224.0</ele><time>2026-04-07T07:42:40Z</time></trkpt><trkpt lat="38.103981435662156" lon="-1.1464591763629246"><ele>224.00000000000003</ele><time>2026-04-07T07:42:41Z</time></trkpt><trkpt lat="38.10405852987911" lon="-1.1465470348212072"><ele>224.0</ele><time>2026-04-07T07:42:42Z</time></trkpt><trkpt lat="38.10413765588673" lon="-1.146603188163325"><ele>224.0</ele><time>2026-04-07T07:42:43Z</time></trkpt><trkpt lat="38.10421274469912" lon="-1.1466552889373673"><ele>224.0</ele><time>2026-04-07T07:42:44Z</time></trkpt><trkpt lat="38.10428717968348" lon="-1.1467045123505313"><ele>224.00000000000003</ele><time>2026-04-07T07:42:45Z</time></trkpt><trkpt lat="38.104360174527045" lon="-1.1467386498372845"><ele>224.0</ele><time>2026-04-07T07:42:46Z</time></trkpt><trkpt lat="38.1044136171729" lon="-1.1468016920990218"><ele>223.6</ele><time>2026-04-07T07:42:47Z</time></trkpt><trkpt lat="38.104470650575514" lon="-1.1468510214954672"><ele>223.2</ele><time>2026-04-07T07:42:48Z</time></trkpt><trkpt lat="38.10459108111337" lon="-1.1468104830841015"><ele>222.79999999999998</ele><time>2026-04-07T07:42:49Z</time></trkpt><trkpt lat="38.104670338846624" lon="-1.1467337341548993"><ele>222.39999999999998</ele><time>2026-04-07T07:42:50Z</time></trkpt><trkpt lat="38.104733709699104" lon="-1.1466286081515031"><ele>222.0</ele><time>2026-04-07T07:42:51Z</time></trkpt><trkpt lat="38.10481872628633" lon="-1.1465222952207972"><ele>221.5</ele><time>2026-04-07T07:42:52Z</time></trkpt><trkpt lat="38.104875439319194" lon="-1.146391937688506"><ele>221.0</ele><time>2026-04-07T07:42:53Z</time></trkpt><trkpt lat="38.10491175451089" lon="-1.1462551895342283"><ele>220.5</ele><time>2026-04-07T07:42:54Z</time></trkpt><trkpt lat="38.104951601847816" lon="-1.1460879641868726"><ele>220.0</ele><time>2026-04-07T07:42:55Z</time></trkpt><trkpt lat="38.10499373286117" lon="-1.1459154157556255"><ele>220.0</ele><time>2026-04-07T07:42:56Z</time></trkpt><trkpt lat="38.105050763322744" lon="-1.1457375538708183"><ele>220.0</ele><time>2026-04-07T07:42:57Z</time></trkpt><trkpt lat="38.10509669474868" lon="-1.145565724538742"><ele>220.0</ele><time>2026-04-07T07:42:58Z</time></trkpt><trkpt lat="38.105184139006006" lon="-1.1454227916701343"><ele>220.0</ele><time>2026-04-07T07:42:59Z</time></trkpt><trkpt lat="38.10525305168137" lon="-1.1452768229495278"><ele>218.0</ele><time>2026-04-07T07:43:00Z</time></trkpt><trkpt lat="38.10533322269404" lon="-1.1451453732706836"><ele>216.0</ele><time>2026-04-07T07:43:01Z</time></trkpt><trkpt lat="38.10545477136925" lon="-1.1450447337381524"><ele>214.0</ele><time>2026-04-07T07:43:02Z</time></trkpt><trkpt lat="38.10557164613739" lon="-1.1449176440408924"><ele>212.0</ele><time>2026-04-07T07:43:03Z</time></trkpt><trkpt lat="38.105684497794115" lon="-1.144801661362356"><ele>211.6</ele><time>2026-04-07T07:43:04Z</time></trkpt><trkpt lat="38.10578682904411" lon="-1.1446932005450368"><ele>211.2</ele><time>2026-04-07T07:43:05Z</time></trkpt><trkpt lat="38.10586857147023" lon="-1.1446038062454018"><ele>210.8</ele><time>2026-04-07T07:43:06Z</time></trkpt><trkpt lat="38.10593279548132" lon="-1.144526598816262"><ele>210.4</ele><time>2026-04-07T07:43:07Z</time></trkpt><trkpt lat="38.1059866842887" lon="-1.1444613202120533"><ele>210.0</ele><time>2026-04-07T07:43:08Z</time></trkpt><trkpt lat="38.1060585075774" lon="-1.1444046595739539"><ele>210.0</ele><time>2026-04-07T07:43:09Z</time></trkpt><trkpt lat="38.106167050819174" lon="-1.1443716593072562"><ele>210.0</ele><time>2026-04-07T07:43:10Z</time></trkpt><trkpt lat="38.10630081150049" lon="-1.1443633006323501"><ele>210.0</ele><time>2026-04-07T07:43:11Z</time></trkpt><trkpt lat="38.10642411156337" lon="-1.1443414141540689"><ele>210.0</ele><time>2026-04-07T07:43:12Z</time></trkpt><trkpt lat="38.10652667909827" lon="-1.1443030689952072"><ele>209.5</ele><time>2026-04-07T07:43:13Z</time></trkpt><trkpt lat="38.10662558036915" lon="-1.1442645020171094"><ele>209.0</ele><time>2026-04-07T07:43:14Z</time></trkpt><trkpt lat="38.10669881175292" lon="-1.144226646046637"><ele>208.5</ele><time>2026-04-07T07:43:15Z</time></trkpt><trkpt lat="38.10675004946917" lon="-1.1441797505119733"><ele>208.0</ele><time>2026-04-07T07:43:16Z</time></trkpt><trkpt lat="38.106780616937556" lon="-1.1441025018955198"><ele>207.5</ele><time>2026-04-07T07:43:17Z</time></trkpt><trkpt lat="38.10679176282089" lon="-1.143992935198728"><ele>207.0</ele><time>2026-04-07T07:43:18Z</time></trkpt><trkpt lat="38.10680631298745" lon="-1.1438598544617742"><ele>206.25</ele><time>2026-04-07T07:43:19Z</time></trkpt><trkpt lat="38.10685603401565" lon="-1.1437163688961458"><ele>205.5</ele><time>2026-04-07T07:43:20Z</time></trkpt><trkpt lat="38.10694051114736" lon="-1.1435774490881216"><ele>204.75</ele><time>2026-04-07T07:43:21Z</time></trkpt><trkpt lat="38.10703005619993" lon="-1.1434570563980935"><ele>204.0</ele><time>2026-04-07T07:43:22Z</time></trkpt><trkpt lat="38.10709369351004" lon="-1.1433541570426158"><ele>204.0</ele><time>2026-04-07T07:43:23Z</time></trkpt><trkpt lat="38.10713524327435" lon="-1.143230558124522"><ele>204.0</ele><time>2026-04-07T07:43:24Z</time></trkpt><trkpt lat="38.107156090871015" lon="-1.143097782137236"><ele>204.0</ele><time>2026-04-07T07:43:25Z</time></trkpt><trkpt lat="38.1071731634354" lon="-1.1429436799429478"><ele>204.0</ele><time>2026-04-07T07:43:26Z</time></trkpt><trkpt lat="38.10717605227712" lon="-1.1427899793640839"><ele>203.2</ele><time>2026-04-07T07:43:27Z</time></trkpt><trkpt lat="38.107176376059996" lon="-1.1426445435631396"><ele>202.39999999999998</ele><time>2026-04-07T07:43:28Z</time></trkpt><trkpt lat="38.10717047769232" lon="-1.1425068360629498"><ele>201.6</ele><time>2026-04-07T07:43:29Z</time></trkpt><trkpt lat="38.10716327752439" lon="-1.1423813985708116"><ele>200.8</ele><time>2026-04-07T07:43:30Z</time></trkpt><trkpt lat="38.10716645637942" lon="-1.1422727281308849"><ele>200.0</ele><time>2026-04-07T07:43:31Z</time></trkpt><trkpt lat="38.107184313313674" lon="-1.1421820613655576"><ele>199.00000000000003</ele><time>2026-04-07T07:43:32Z</time></trkpt><trkpt lat="38.10721285477236" lon="-1.14210264138833"><ele>198.0</ele><time>2026-04-07T07:43:33Z</time></trkpt><trkpt lat="38.10724839750795" lon="-1.1420304445056464"><ele>197.0</ele><time>2026-04-07T07:43:34Z</time></trkpt><trkpt lat="38.10728037240221" lon="-1.1419560052324256"><ele>196.0</ele><time>2026-04-07T07:43:35Z</time></trkpt><trkpt lat="38.10731280046517" lon="-1.1418751778095013"><ele>195.00000000000003</ele><time>2026-04-07T07:43:36Z</time></trkpt><trkpt lat="38.10735126515313" lon="-1.1417739182553277"><ele>194.0</ele><time>2026-04-07T07:43:37Z</time></trkpt><trkpt lat="38.10738722744886" lon="-1.1416589469381335"><ele>193.79999999999998</ele><time>2026-04-07T07:43:38Z</time></trkpt><trkpt lat="38.107413727177864" lon="-1.1415557983056654"><ele>193.6</ele><time>2026-04-07T07:43:39Z</time></trkpt><trkpt lat="38.10744996304439" lon="-1.1414579345734623"><ele>193.4</ele><time>2026-04-07T07:43:40Z</time></trkpt><trkpt lat="38.10747747914396" lon="-1.1413451536461443"><ele>193.2</ele><time>2026-04-07T07:43:41Z</time></trkpt><trkpt lat="38.1074920856538" lon="-1.1412272030640338"><ele>193.0</ele><time>2026-04-07T07:43:42Z</time></trkpt><trkpt lat="38.10751069833597" lon="-1.1411077057358394"><ele>193.0</ele><time>2026-04-07T07:43:43Z</time></trkpt><trkpt lat="38.10754070881791" lon="-1.1410044595064208"><ele>193.0</ele><time>2026-04-07T07:43:44Z</time></trkpt><trkpt lat="38.107572465756014" lon="-1.140894813980884"><ele>193.0</ele><time>2026-04-07T07:43:45Z</time></trkpt><trkpt lat="38.10761414268168" lon="-1.1407910023854058"><ele>193.0</ele><time>2026-04-07T07:43:46Z</time></trkpt><trkpt lat="38.10765811101969" lon="-1.1406862295538616"><ele>193.0</ele><time>2026-04-07T07:43:47Z</time></trkpt><trkpt lat="38.10769712292253" lon="-1.1405816122388677"><ele>191.66666666666666</ele><time>2026-04-07T07:43:48Z</time></trkpt><trkpt lat="38.107742110272014" lon="-1.1404970493257058"><ele>190.33333333333331</ele><time>2026-04-07T07:43:49Z</time></trkpt><trkpt lat="38.10780361858823" lon="-1.1404305785903956"><ele>189.0</ele><time>2026-04-07T07:43:50Z</time></trkpt><trkpt lat="38.1078669509734" lon="-1.1403694482178575"><ele>187.66666666666666</ele><time>2026-04-07T07:43:51Z</time></trkpt><trkpt lat="38.1079094749497" lon="-1.1402983201831502"><ele>186.33333333333331</ele><time>2026-04-07T07:43:52Z</time></trkpt><trkpt lat="38.10797598060892" lon="-1.1402255794810259"><ele>185.0</ele><time>2026-04-07T07:43:54Z</time></trkpt><trkpt lat="38.10803050576945" lon="-1.1401646168914092"><ele>185.0</ele><time>2026-04-07T07:43:55Z</time></trkpt><trkpt lat="38.108097300745506" lon="-1.1401064304188668"><ele>185.0</ele><time>2026-04-07T07:43:56Z</time></trkpt><trkpt lat="38.10817348580804" lon="-1.1400473157746271"><ele>185.0</ele><time>2026-04-07T07:43:57Z</time></trkpt><trkpt lat="38.10822966925567" lon="-1.139992755828755"><ele>185.0</ele><time>2026-04-07T07:43:58Z</time></trkpt><trkpt lat="38.10826307256279" lon="-1.1398829313494507"><ele>185.0</ele><time>2026-04-07T07:44:00Z</time></trkpt><trkpt lat="38.108270296487625" lon="-1.1397998377782526"><ele>185.0</ele><time>2026-04-07T07:44:01Z</time></trkpt><trkpt lat="38.108288166447544" lon="-1.1397012572851473"><ele>184.0</ele><time>2026-04-07T07:44:02Z</time></trkpt><trkpt lat="38.10829481134337" lon="-1.1395809333225202"><ele>183.0</ele><time>2026-04-07T07:44:03Z</time></trkpt><trkpt lat="38.108297887454995" lon="-1.1394591995392858"><ele>182.0</ele><time>2026-04-07T07:44:05Z</time></trkpt><trkpt lat="38.10830270546104" lon="-1.1393621886455976"><ele>181.0</ele><time>2026-04-07T07:44:07Z</time></trkpt><trkpt lat="38.108297085132634" lon="-1.1392677440209982"><ele>180.0</ele><time>2026-04-07T07:44:11Z</time></trkpt><trkpt lat="38.10829759633679" lon="-1.1391839201143354"><ele>179.0</ele><time>2026-04-07T07:44:12Z</time></trkpt><trkpt lat="38.108267295469346" lon="-1.1390903160543664"><ele>179.83333333333331</ele><time>2026-04-07T07:44:14Z</time></trkpt><trkpt lat="38.1082013115383" lon="-1.1390531447237164"><ele>180.66666666666666</ele><time>2026-04-07T07:44:16Z</time></trkpt><trkpt lat="38.108125374503665" lon="-1.1390212547020455"><ele>181.5</ele><time>2026-04-07T07:44:17Z</time></trkpt><trkpt lat="38.1080286269951" lon="-1.138958457284889"><ele>182.33333333333334</ele><time>2026-04-07T07:44:18Z</time></trkpt><trkpt lat="38.10797130266094" lon="-1.1389204000723399"><ele>183.16666666666669</ele><time>2026-04-07T07:44:19Z</time></trkpt><trkpt lat="38.10786741789468" lon="-1.1388662401717824"><ele>184.0</ele><time>2026-04-07T07:44:21Z</time></trkpt><trkpt lat="38.10779834513508" lon="-1.1388590993301735"><ele>184.5</ele><time>2026-04-07T07:44:22Z</time></trkpt><trkpt lat="38.10774173325585" lon="-1.1388955346552316"><ele>185.0</ele><time>2026-04-07T07:44:23Z</time></trkpt><trkpt lat="38.10763122762505" lon="-1.1389367670690773"><ele>185.5</ele><time>2026-04-07T07:44:25Z</time></trkpt><trkpt lat="38.10748365795542" lon="-1.1389339623013937"><ele>186.0</ele><time>2026-04-07T07:44:27Z</time></trkpt><trkpt lat="38.107347959728074" lon="-1.1389256871698954"><ele>186.0</ele><time>2026-04-07T07:44:29Z</time></trkpt><trkpt lat="38.10726319180175" lon="-1.1388180571585622"><ele>186.0</ele><time>2026-04-07T07:44:31Z</time></trkpt><trkpt lat="38.10724201126077" lon="-1.1387256788202627"><ele>186.0</ele><time>2026-04-07T07:44:32Z</time></trkpt><trkpt lat="38.107186650728316" lon="-1.1386248472958702"><ele>186.0</ele><time>2026-04-07T07:44:33Z</time></trkpt><trkpt lat="38.10713184167741" lon="-1.138546340029422"><ele>186.0</ele><time>2026-04-07T07:44:34Z</time></trkpt><trkpt lat="38.10706598535853" lon="-1.138474680787231"><ele>186.0</ele><time>2026-04-07T07:44:35Z</time></trkpt><trkpt lat="38.10701652078296" lon="-1.1384144224492212"><ele>186.0</ele><time>2026-04-07T07:44:36Z</time></trkpt><trkpt lat="38.106959076676766" lon="-1.138355279108435"><ele>186.0</ele><time>2026-04-07T07:44:37Z</time></trkpt><trkpt lat="38.10691452694421" lon="-1.1382987019384878"><ele>186.0</ele><time>2026-04-07T07:44:38Z</time></trkpt><trkpt lat="38.10685988153404" lon="-1.1382195988221109"><ele>186.0</ele><time>2026-04-07T07:44:40Z</time></trkpt><trkpt lat="38.10684818611341" lon="-1.1380396559536188"><ele>186.0</ele><time>2026-04-07T07:44:42Z</time></trkpt><trkpt lat="38.10684227327276" lon="-1.1378734339276881"><ele>186.0</ele><time>2026-04-07T07:44:43Z</time></trkpt><trkpt lat="38.106830459102596" lon="-1.1377085457504286"><ele>186.0</ele><time>2026-04-07T07:44:44Z</time></trkpt><trkpt lat="38.106814456659244" lon="-1.1375242248143071"><ele>186.0</ele><time>2026-04-07T07:44:45Z</time></trkpt><trkpt lat="38.106783953927376" lon="-1.1373488186624543"><ele>186.0</ele><time>2026-04-07T07:44:46Z</time></trkpt><trkpt lat="38.10675210701372" lon="-1.137172635174301"><ele>186.25</ele><time>2026-04-07T07:44:47Z</time></trkpt><trkpt lat="38.10672693980117" lon="-1.1370012328603183"><ele>186.5</ele><time>2026-04-07T07:44:48Z</time></trkpt><trkpt lat="38.10670767273415" lon="-1.1368379229981609"><ele>186.75</ele><time>2026-04-07T07:44:49Z</time></trkpt><trkpt lat="38.10670913475909" lon="-1.1366697529171228"><ele>187.0</ele><time>2026-04-07T07:44:50Z</time></trkpt><trkpt lat="38.10672921439938" lon="-1.1364882843222188"><ele>187.0</ele><time>2026-04-07T07:44:51Z</time></trkpt><trkpt lat="38.10675026202745" lon="-1.1363018205373328"><ele>187.0</ele><time>2026-04-07T07:44:52Z</time></trkpt><trkpt lat="38.106763654084006" lon="-1.136105877869384"><ele>187.0</ele><time>2026-04-07T07:44:53Z</time></trkpt><trkpt lat="38.106779127078426" lon="-1.135917564841016"><ele>187.0</ele><time>2026-04-07T07:44:54Z</time></trkpt><trkpt lat="38.106790190939435" lon="-1.135728406910693"><ele>187.0</ele><time>2026-04-07T07:44:55Z</time></trkpt><trkpt lat="38.10680022811062" lon="-1.1355433676224487"><ele>187.0</ele><time>2026-04-07T07:44:56Z</time></trkpt><trkpt lat="38.10680475460313" lon="-1.1353612275929377"><ele>187.0</ele><time>2026-04-07T07:44:57Z</time></trkpt><trkpt lat="38.10680999744521" lon="-1.135186253569202"><ele>187.5</ele><time>2026-04-07T07:44:58Z</time></trkpt><trkpt lat="38.10681586305005" lon="-1.135003522375999"><ele>188.0</ele><time>2026-04-07T07:44:59Z</time></trkpt><trkpt lat="38.10681819151349" lon="-1.13482320396638"><ele>188.5</ele><time>2026-04-07T07:45:00Z</time></trkpt><trkpt lat="38.106825482182636" lon="-1.1346442529857632"><ele>189.0</ele><time>2026-04-07T07:45:01Z</time></trkpt><trkpt lat="38.10683099651067" lon="-1.1344605117697713"><ele>189.0</ele><time>2026-04-07T07:45:02Z</time></trkpt><trkpt lat="38.10683689367951" lon="-1.1342694225076666"><ele>189.0</ele><time>2026-04-07T07:45:03Z</time></trkpt><trkpt lat="38.10683832760961" lon="-1.1340843957928488"><ele>189.0</ele><time>2026-04-07T07:45:04Z</time></trkpt><trkpt lat="38.10683977978556" lon="-1.133910747516103"><ele>189.0</ele><time>2026-04-07T07:45:05Z</time></trkpt><trkpt lat="38.1068420603117" lon="-1.1337476379448095"><ele>189.25</ele><time>2026-04-07T07:45:06Z</time></trkpt><trkpt lat="38.10684291874825" lon="-1.1335877029910677"><ele>189.5</ele><time>2026-04-07T07:45:07Z</time></trkpt><trkpt lat="38.10684597062789" lon="-1.1334413507291656"><ele>189.75</ele><time>2026-04-07T07:45:08Z</time></trkpt><trkpt lat="38.10685439303114" lon="-1.1332801681010876"><ele>190.0</ele><time>2026-04-07T07:45:09Z</time></trkpt><trkpt lat="38.10686205899966" lon="-1.1331180727454093"><ele>190.0</ele><time>2026-04-07T07:45:10Z</time></trkpt><trkpt lat="38.10686097497176" lon="-1.1329795124997373"><ele>190.0</ele><time>2026-04-07T07:45:11Z</time></trkpt><trkpt lat="38.10685637503033" lon="-1.13286695369789"><ele>190.0</ele><time>2026-04-07T07:45:12Z</time></trkpt><trkpt lat="38.106861226049844" lon="-1.1327746704891128"><ele>190.0</ele><time>2026-04-07T07:45:13Z</time></trkpt><trkpt lat="38.10685710704049" lon="-1.1326887110418284"><ele>190.0</ele><time>2026-04-07T07:45:14Z</time></trkpt><trkpt lat="38.106860109902016" lon="-1.1325328095736364"><ele>189.75</ele><time>2026-04-07T07:45:16Z</time></trkpt><trkpt lat="38.10685829568157" lon="-1.1322830629333125"><ele>189.5</ele><time>2026-04-07T07:45:17Z</time></trkpt><trkpt lat="38.1069101167064" lon="-1.1322023294922907"><ele>189.25</ele><time>2026-04-07T07:45:18Z</time></trkpt><trkpt lat="38.10695163651699" lon="-1.1321376450204497"><ele>189.0</ele><time>2026-04-07T07:45:19Z</time></trkpt><trkpt lat="38.10707199477" lon="-1.1320794661346099"><ele>189.0</ele><time>2026-04-07T07:45:20Z</time></trkpt><trkpt lat="38.10713192990384" lon="-1.1321176856793487"><ele>189.0</ele><time>2026-04-07T07:45:23Z</time></trkpt><trkpt lat="38.10713326296714" lon="-1.1320242319344958"><ele>189.0</ele><time>2026-04-07T07:45:26Z</time></trkpt><trkpt lat="38.1072675331675" lon="-1.1319725630170157"><ele>189.0</ele><time>2026-04-07T07:45:28Z</time></trkpt><trkpt lat="38.107350451597604" lon="-1.131936495009683"><ele>189.0</ele><time>2026-04-07T07:45:29Z</time></trkpt><trkpt lat="38.10744235241269" lon="-1.1318948731810359"><ele>188.39999999999998</ele><time>2026-04-07T07:45:30Z</time></trkpt><trkpt lat="38.10754957316181" lon="-1.131855408291443"><ele>187.8</ele><time>2026-04-07T07:45:31Z</time></trkpt><trkpt lat="38.1076611851846" lon="-1.131810786609825"><ele>187.2</ele><time>2026-04-07T07:45:32Z</time></trkpt><trkpt lat="38.107764362357926" lon="-1.131780446648292"><ele>186.60000000000002</ele><time>2026-04-07T07:45:33Z</time></trkpt><trkpt lat="38.10786412050206" lon="-1.131761227785131"><ele>186.0</ele><time>2026-04-07T07:45:34Z</time></trkpt><trkpt lat="38.107960628761695" lon="-1.1317465923119376"><ele>186.0</ele><time>2026-04-07T07:45:35Z</time></trkpt><trkpt lat="38.10805537561332" lon="-1.13172061505336"><ele>186.0</ele><time>2026-04-07T07:45:36Z</time></trkpt><trkpt lat="38.10816554478072" lon="-1.1316861690377926"><ele>186.0</ele><time>2026-04-07T07:45:37Z</time></trkpt><trkpt lat="38.108278654861024" lon="-1.131639025736142"><ele>186.0</ele><time>2026-04-07T07:45:38Z</time></trkpt><trkpt lat="38.1083796129547" lon="-1.1315767312935954"><ele>186.0</ele><time>2026-04-07T07:45:39Z</time></trkpt><trkpt lat="38.1084774876624" lon="-1.1315168726041684"><ele>185.0</ele><time>2026-04-07T07:45:40Z</time></trkpt><trkpt lat="38.10857321558681" lon="-1.1314587809545855"><ele>184.0</ele><time>2026-04-07T07:45:41Z</time></trkpt><trkpt lat="38.10868607989693" lon="-1.1314215628758262"><ele>183.0</ele><time>2026-04-07T07:45:42Z</time></trkpt><trkpt lat="38.108807830101334" lon="-1.13140596021764"><ele>182.0</ele><time>2026-04-07T07:45:43Z</time></trkpt><trkpt lat="38.1089165339405" lon="-1.1314006992822028"><ele>182.0</ele><time>2026-04-07T07:45:44Z</time></trkpt><trkpt lat="38.10901000352356" lon="-1.1313709016925269"><ele>182.0</ele><time>2026-04-07T07:45:45Z</time></trkpt><trkpt lat="38.10908754166147" lon="-1.1313353237873733"><ele>182.0</ele><time>2026-04-07T07:45:46Z</time></trkpt><trkpt lat="38.10916067290286" lon="-1.1312857969038796"><ele>182.0</ele><time>2026-04-07T07:45:47Z</time></trkpt><trkpt lat="38.10924624636436" lon="-1.1311942996566033"><ele>182.0</ele><time>2026-04-07T07:45:48Z</time></trkpt><trkpt lat="38.10932625522536" lon="-1.1310960508002477"><ele>182.2</ele><time>2026-04-07T07:45:49Z</time></trkpt><trkpt lat="38.109398858614576" lon="-1.1310112365302167"><ele>182.39999999999998</ele><time>2026-04-07T07:45:50Z</time></trkpt><trkpt lat="38.109465119449155" lon="-1.1309361056029728"><ele>182.60000000000002</ele><time>2026-04-07T07:45:51Z</time></trkpt><trkpt lat="38.109524952044595" lon="-1.1308544344107132"><ele>182.8</ele><time>2026-04-07T07:45:52Z</time></trkpt><trkpt lat="38.109589407322574" lon="-1.1307263893476316"><ele>183.0</ele><time>2026-04-07T07:45:53Z</time></trkpt><trkpt lat="38.10965098233981" lon="-1.130577504446351"><ele>182.0</ele><time>2026-04-07T07:45:54Z</time></trkpt><trkpt lat="38.10972369897559" lon="-1.1304002287608457"><ele>181.0</ele><time>2026-04-07T07:45:55Z</time></trkpt><trkpt lat="38.109797803216104" lon="-1.1302074983619048"><ele>180.0</ele><time>2026-04-07T07:45:56Z</time></trkpt><trkpt lat="38.109864821857826" lon="-1.1300399617064223"><ele>178.5</ele><time>2026-04-07T07:45:57Z</time></trkpt><trkpt lat="38.10993219379767" lon="-1.1298876618349383"><ele>177.0</ele><time>2026-04-07T07:45:58Z</time></trkpt><trkpt lat="38.1100026027333" lon="-1.1297457298636657"><ele>175.5</ele><time>2026-04-07T07:45:59Z</time></trkpt><trkpt lat="38.11008438347259" lon="-1.129610593901547"><ele>174.0</ele><time>2026-04-07T07:46:00Z</time></trkpt><trkpt lat="38.110170554132615" lon="-1.1294819991716218"><ele>174.0</ele><time>2026-04-07T07:46:01Z</time></trkpt><trkpt lat="38.11026462566052" lon="-1.1293436216717594"><ele>174.0</ele><time>2026-04-07T07:46:02Z</time></trkpt><trkpt lat="38.11036543270466" lon="-1.1291754091156765"><ele>174.0</ele><time>2026-04-07T07:46:03Z</time></trkpt><trkpt lat="38.110459577776744" lon="-1.1290126037372294"><ele>174.0</ele><time>2026-04-07T07:46:04Z</time></trkpt><trkpt lat="38.11055363113618" lon="-1.1288686952783982"><ele>174.0</ele><time>2026-04-07T07:46:05Z</time></trkpt><trkpt lat="38.11065194329844" lon="-1.1287211038662892"><ele>174.0</ele><time>2026-04-07T07:46:06Z</time></trkpt><trkpt lat="38.110739371890034" lon="-1.128584516665098"><ele>174.0</ele><time>2026-04-07T07:46:07Z</time></trkpt><trkpt lat="38.11082218141791" lon="-1.1284499822906993"><ele>174.0</ele><time>2026-04-07T07:46:08Z</time></trkpt><trkpt lat="38.1109050189968" lon="-1.1283155527436008"><ele>174.0</ele><time>2026-04-07T07:46:09Z</time></trkpt><trkpt lat="38.11098642939902" lon="-1.128183944549338"><ele>174.0</ele><time>2026-04-07T07:46:10Z</time></trkpt><trkpt lat="38.11107591155526" lon="-1.128038308647245"><ele>174.0</ele><time>2026-04-07T07:46:11Z</time></trkpt><trkpt lat="38.111172912752444" lon="-1.1278751534300215"><ele>173.33333333333334</ele><time>2026-04-07T07:46:12Z</time></trkpt><trkpt lat="38.11127101679052" lon="-1.127700666700571"><ele>172.66666666666669</ele><time>2026-04-07T07:46:13Z</time></trkpt><trkpt lat="38.11138423358468" lon="-1.1275107219952172"><ele>172.0</ele><time>2026-04-07T07:46:14Z</time></trkpt><trkpt lat="38.11150718308945" lon="-1.1273114456771867"><ele>172.0</ele><time>2026-04-07T07:46:15Z</time></trkpt><trkpt lat="38.11161828235658" lon="-1.1271410865446638"><ele>172.0</ele><time>2026-04-07T07:46:16Z</time></trkpt><trkpt lat="38.111720717163976" lon="-1.12698076596266"><ele>172.0</ele><time>2026-04-07T07:46:17Z</time></trkpt><trkpt lat="38.11182082102508" lon="-1.126828496444765"><ele>172.0</ele><time>2026-04-07T07:46:18Z</time></trkpt><trkpt lat="38.11191338638729" lon="-1.126677808855478"><ele>172.0</ele><time>2026-04-07T07:46:19Z</time></trkpt><trkpt lat="38.1120079524846" lon="-1.1265206336348992"><ele>172.0</ele><time>2026-04-07T07:46:20Z</time></trkpt><trkpt lat="38.11210255171858" lon="-1.126366611388436"><ele>172.5</ele><time>2026-04-07T07:46:21Z</time></trkpt><trkpt lat="38.112185431032415" lon="-1.1262220826572016"><ele>173.0</ele><time>2026-04-07T07:46:22Z</time></trkpt><trkpt lat="38.112265701490145" lon="-1.1260775715647064"><ele>173.5</ele><time>2026-04-07T07:46:23Z</time></trkpt><trkpt lat="38.112346344899514" lon="-1.1259537217533848"><ele>174.0</ele><time>2026-04-07T07:46:24Z</time></trkpt><trkpt lat="38.112418008655034" lon="-1.125849047400488"><ele>174.0</ele><time>2026-04-07T07:46:25Z</time></trkpt><trkpt lat="38.11249157522368" lon="-1.1257342041167162"><ele>174.0</ele><time>2026-04-07T07:46:26Z</time></trkpt><trkpt lat="38.11256835765194" lon="-1.1255877827756735"><ele>174.0</ele><time>2026-04-07T07:46:27Z</time></trkpt><trkpt lat="38.11265953408983" lon="-1.125428734564694"><ele>174.0</ele><time>2026-04-07T07:46:28Z</time></trkpt><trkpt lat="38.112761897991284" lon="-1.1252775736881995"><ele>173.39999999999998</ele><time>2026-04-07T07:46:29Z</time></trkpt><trkpt lat="38.1128473943922" lon="-1.1251441495716326"><ele>172.8</ele><time>2026-04-07T07:46:30Z</time></trkpt><trkpt lat="38.11292878016867" lon="-1.1250333171317186"><ele>172.2</ele><time>2026-04-07T07:46:31Z</time></trkpt><trkpt lat="38.112999632637305" lon="-1.1249392420539335"><ele>171.60000000000002</ele><time>2026-04-07T07:46:32Z</time></trkpt><trkpt lat="38.11305034898214" lon="-1.124858020216572"><ele>171.0</ele><time>2026-04-07T07:46:33Z</time></trkpt><trkpt lat="38.11310238967975" lon="-1.1247861221070852"><ele>171.0</ele><time>2026-04-07T07:46:34Z</time></trkpt><trkpt lat="38.11317350986098" lon="-1.124691563511841"><ele>171.0</ele><time>2026-04-07T07:46:35Z</time></trkpt><trkpt lat="38.11326995120819" lon="-1.1245692856623486"><ele>171.0</ele><time>2026-04-07T07:46:36Z</time></trkpt><trkpt lat="38.113373559855305" lon="-1.1244458313092835"><ele>171.0</ele><time>2026-04-07T07:46:37Z</time></trkpt><trkpt lat="38.11349604181054" lon="-1.1243041798310731"><ele>170.33333333333334</ele><time>2026-04-07T07:46:38Z</time></trkpt><trkpt lat="38.11363073630077" lon="-1.1241602369685975"><ele>169.66666666666669</ele><time>2026-04-07T07:46:39Z</time></trkpt><trkpt lat="38.11375508323331" lon="-1.1240431186735929"><ele>169.0</ele><time>2026-04-07T07:46:40Z</time></trkpt><trkpt lat="38.113875209952354" lon="-1.123928687288901"><ele>169.0</ele><time>2026-04-07T07:46:41Z</time></trkpt><trkpt lat="38.113990866466956" lon="-1.123808988574487"><ele>169.0</ele><time>2026-04-07T07:46:42Z</time></trkpt><trkpt lat="38.11411720123592" lon="-1.123684707246422"><ele>169.0</ele><time>2026-04-07T07:46:43Z</time></trkpt><trkpt lat="38.114237756734504" lon="-1.1235609389149492"><ele>168.5</ele><time>2026-04-07T07:46:44Z</time></trkpt><trkpt lat="38.11434687286068" lon="-1.123442124526726"><ele>168.0</ele><time>2026-04-07T07:46:45Z</time></trkpt><trkpt lat="38.11445050658477" lon="-1.1233333790996416"><ele>167.5</ele><time>2026-04-07T07:46:46Z</time></trkpt><trkpt lat="38.11455331546047" lon="-1.1232375991084051"><ele>167.0</ele><time>2026-04-07T07:46:47Z</time></trkpt><trkpt lat="38.11465210497005" lon="-1.1231506855660076"><ele>166.2</ele><time>2026-04-07T07:46:48Z</time></trkpt><trkpt lat="38.114740568240734" lon="-1.1230609266784846"><ele>165.39999999999998</ele><time>2026-04-07T07:46:49Z</time></trkpt><trkpt lat="38.11482595123727" lon="-1.1229705026153618"><ele>164.60000000000002</ele><time>2026-04-07T07:46:50Z</time></trkpt><trkpt lat="38.11491419950719" lon="-1.1228901285874833"><ele>163.8</ele><time>2026-04-07T07:46:51Z</time></trkpt><trkpt lat="38.11501041770269" lon="-1.122821257212637"><ele>163.0</ele><time>2026-04-07T07:46:52Z</time></trkpt><trkpt lat="38.1151130461468" lon="-1.1227837476403666"><ele>163.0</ele><time>2026-04-07T07:46:53Z</time></trkpt><trkpt lat="38.115226754744604" lon="-1.12276384204061"><ele>163.0</ele><time>2026-04-07T07:46:54Z</time></trkpt><trkpt lat="38.11535895621929" lon="-1.122751515271594"><ele>163.0</ele><time>2026-04-07T07:46:55Z</time></trkpt><trkpt lat="38.115496404718165" lon="-1.1227301460662173"><ele>163.0</ele><time>2026-04-07T07:46:56Z</time></trkpt><trkpt lat="38.11563858080999" lon="-1.1227184325063906"><ele>163.5</ele><time>2026-04-07T07:46:57Z</time></trkpt><trkpt lat="38.11577539421087" lon="-1.1227062220017252"><ele>164.0</ele><time>2026-04-07T07:46:58Z</time></trkpt><trkpt lat="38.1158984758221" lon="-1.1226950153953195"><ele>164.5</ele><time>2026-04-07T07:46:59Z</time></trkpt><trkpt lat="38.11601243595237" lon="-1.1226738240394287"><ele>165.0</ele><time>2026-04-07T07:47:00Z</time></trkpt><trkpt lat="38.11612322741394" lon="-1.1226615256731194"><ele>165.0</ele><time>2026-04-07T07:47:01Z</time></trkpt><trkpt lat="38.11622145037907" lon="-1.1226526210927554"><ele>165.0</ele><time>2026-04-07T07:47:02Z</time></trkpt><trkpt lat="38.11630964604894" lon="-1.1226417649823703"><ele>165.0</ele><time>2026-04-07T07:47:03Z</time></trkpt><trkpt lat="38.116397940098366" lon="-1.1226286876012204"><ele>165.0</ele><time>2026-04-07T07:47:04Z</time></trkpt><trkpt lat="38.116485136485416" lon="-1.122615771970874"><ele>165.0</ele><time>2026-04-07T07:47:05Z</time></trkpt><trkpt lat="38.11655269980758" lon="-1.1225988294520322"><ele>165.0</ele><time>2026-04-07T07:47:06Z</time></trkpt><trkpt lat="38.11661031976944" lon="-1.1225665873114277"><ele>164.2</ele><time>2026-04-07T07:47:07Z</time></trkpt><trkpt lat="38.11670798817122" lon="-1.1224557809349305"><ele>163.4</ele><time>2026-04-07T07:47:09Z</time></trkpt><trkpt lat="38.11676169336954" lon="-1.1223675757516467"><ele>162.60000000000002</ele><time>2026-04-07T07:47:10Z</time></trkpt><trkpt lat="38.11682568018068" lon="-1.1222511496613785"><ele>161.8</ele><time>2026-04-07T07:47:11Z</time></trkpt><trkpt lat="38.11689084198646" lon="-1.1221500808112723"><ele>161.0</ele><time>2026-04-07T07:47:12Z</time></trkpt><trkpt lat="38.11694988208815" lon="-1.1220491635754106"><ele>160.8</ele><time>2026-04-07T07:47:13Z</time></trkpt><trkpt lat="38.11701158150757" lon="-1.1219567897957212"><ele>160.60000000000002</ele><time>2026-04-07T07:47:14Z</time></trkpt><trkpt lat="38.117073638067474" lon="-1.1218772958300964"><ele>160.4</ele><time>2026-04-07T07:47:15Z</time></trkpt><trkpt lat="38.11714469394283" lon="-1.1217952838175114"><ele>160.2</ele><time>2026-04-07T07:47:16Z</time></trkpt><trkpt lat="38.11722774610559" lon="-1.12173253341655"><ele>160.0</ele><time>2026-04-07T07:47:17Z</time></trkpt><trkpt lat="38.117336244881024" lon="-1.1216720834840976"><ele>159.0</ele><time>2026-04-07T07:47:18Z</time></trkpt><trkpt lat="38.11746061581395" lon="-1.1216323562758417"><ele>158.0</ele><time>2026-04-07T07:47:19Z</time></trkpt><trkpt lat="38.11757613291038" lon="-1.1216275698539706"><ele>157.0</ele><time>2026-04-07T07:47:20Z</time></trkpt><trkpt lat="38.117707030865134" lon="-1.1216505442473474"><ele>156.0</ele><time>2026-04-07T07:47:21Z</time></trkpt><trkpt lat="38.11784992830152" lon="-1.12168466762076"><ele>156.0</ele><time>2026-04-07T07:47:22Z</time></trkpt><trkpt lat="38.11798260347612" lon="-1.1217112765795114"><ele>156.0</ele><time>2026-04-07T07:47:23Z</time></trkpt><trkpt lat="38.11809150173947" lon="-1.1217089320243738"><ele>156.0</ele><time>2026-04-07T07:47:24Z</time></trkpt><trkpt lat="38.11818647277758" lon="-1.1216796869473062"><ele>156.0</ele><time>2026-04-07T07:47:25Z</time></trkpt><trkpt lat="38.11827164363256" lon="-1.1216343380732947"><ele>156.0</ele><time>2026-04-07T07:47:26Z</time></trkpt><trkpt lat="38.11834351407753" lon="-1.1215664016849305"><ele>155.6</ele><time>2026-04-07T07:47:27Z</time></trkpt><trkpt lat="38.118400755899145" lon="-1.1214740318641168"><ele>155.2</ele><time>2026-04-07T07:47:28Z</time></trkpt><trkpt lat="38.118435307171126" lon="-1.121365286207301"><ele>154.8</ele><time>2026-04-07T07:47:29Z</time></trkpt><trkpt lat="38.118457600717846" lon="-1.1212422800117512"><ele>154.4</ele><time>2026-04-07T07:47:30Z</time></trkpt><trkpt lat="38.11846887667615" lon="-1.1211208300204296"><ele>154.0</ele><time>2026-04-07T07:47:31Z</time></trkpt><trkpt lat="38.11849136040546" lon="-1.1210047954057787"><ele>154.0</ele><time>2026-04-07T07:47:32Z</time></trkpt><trkpt lat="38.11851050268857" lon="-1.1208831986247156"><ele>154.0</ele><time>2026-04-07T07:47:33Z</time></trkpt><trkpt lat="38.118533942630464" lon="-1.1207696265623497"><ele>154.0</ele><time>2026-04-07T07:47:34Z</time></trkpt><trkpt lat="38.11857647273453" lon="-1.120668720609279"><ele>154.0</ele><time>2026-04-07T07:47:35Z</time></trkpt><trkpt lat="38.11865106812956" lon="-1.1205858473457753"><ele>154.0</ele><time>2026-04-07T07:47:36Z</time></trkpt><trkpt lat="38.1187454195436" lon="-1.12052032471996"><ele>153.0</ele><time>2026-04-07T07:47:37Z</time></trkpt><trkpt lat="38.118845544731485" lon="-1.1204659399818762"><ele>152.0</ele><time>2026-04-07T07:47:38Z</time></trkpt><trkpt lat="38.118944079810085" lon="-1.1204173883168376"><ele>151.0</ele><time>2026-04-07T07:47:39Z</time></trkpt><trkpt lat="38.11903828773203" lon="-1.1203618105177096"><ele>150.0</ele><time>2026-04-07T07:47:40Z</time></trkpt><trkpt lat="38.119135103940174" lon="-1.1202995400204636"><ele>149.0</ele><time>2026-04-07T07:47:41Z</time></trkpt><trkpt lat="38.11923783233738" lon="-1.1202369221340007"><ele>149.0</ele><time>2026-04-07T07:47:42Z</time></trkpt><trkpt lat="38.11934022520404" lon="-1.1201798275330335"><ele>149.0</ele><time>2026-04-07T07:47:43Z</time></trkpt><trkpt lat="38.11943739152169" lon="-1.1201197659341666"><ele>149.0</ele><time>2026-04-07T07:47:44Z</time></trkpt><trkpt lat="38.11953370885048" lon="-1.1200614749974807"><ele>149.0</ele><time>2026-04-07T07:47:45Z</time></trkpt><trkpt lat="38.11963013858434" lon="-1.1200058515270386"><ele>149.0</ele><time>2026-04-07T07:47:46Z</time></trkpt><trkpt lat="38.11971730144071" lon="-1.119956841861286"><ele>149.0</ele><time>2026-04-07T07:47:47Z</time></trkpt><trkpt lat="38.11980072303742" lon="-1.119905034423426"><ele>149.0</ele><time>2026-04-07T07:47:48Z</time></trkpt><trkpt lat="38.11987197887593" lon="-1.1198586102900459"><ele>149.0</ele><time>2026-04-07T07:47:49Z</time></trkpt><trkpt lat="38.11994107553812" lon="-1.1198309066827812"><ele>149.0</ele><time>2026-04-07T07:47:50Z</time></trkpt><trkpt lat="38.120006505180406" lon="-1.1197961006843777"><ele>149.0</ele><time>2026-04-07T07:47:51Z</time></trkpt><trkpt lat="38.12015903915876" lon="-1.119867547973505"><ele>148.66666666666666</ele><time>2026-04-07T07:47:53Z</time></trkpt><trkpt lat="38.12024004209243" lon="-1.1199286068746703"><ele>148.33333333333331</ele><time>2026-04-07T07:47:54Z</time></trkpt><trkpt lat="38.120319589147826" lon="-1.1199847864407952"><ele>148.0</ele><time>2026-04-07T07:47:55Z</time></trkpt><trkpt lat="38.12039383870502" lon="-1.1200368753625736"><ele>147.66666666666666</ele><time>2026-04-07T07:47:56Z</time></trkpt><trkpt lat="38.12046926171636" lon="-1.1200877383131935"><ele>147.33333333333334</ele><time>2026-04-07T07:47:57Z</time></trkpt><trkpt lat="38.12054075993241" lon="-1.120135452526236"><ele>147.0</ele><time>2026-04-07T07:47:58Z</time></trkpt><trkpt lat="38.120609570427334" lon="-1.120188663369061"><ele>147.0</ele><time>2026-04-07T07:47:59Z</time></trkpt><trkpt lat="38.12067164165747" lon="-1.120261146132785"><ele>147.0</ele><time>2026-04-07T07:48:00Z</time></trkpt><trkpt lat="38.1207149101271" lon="-1.120365786387122"><ele>147.0</ele><time>2026-04-07T07:48:01Z</time></trkpt><trkpt lat="38.12073140571247" lon="-1.1205095240024354"><ele>147.0</ele><time>2026-04-07T07:48:02Z</time></trkpt><trkpt lat="38.12074797915744" lon="-1.1206553526950458"><ele>147.0</ele><time>2026-04-07T07:48:03Z</time></trkpt><trkpt lat="38.120761931600065" lon="-1.1208005691344505"><ele>145.4</ele><time>2026-04-07T07:48:04Z</time></trkpt><trkpt lat="38.12077809139092" lon="-1.1209395352136236"><ele>143.79999999999998</ele><time>2026-04-07T07:48:05Z</time></trkpt><trkpt lat="38.120795149838905" lon="-1.1210793067337337"><ele>142.2</ele><time>2026-04-07T07:48:06Z</time></trkpt><trkpt lat="38.12081241650777" lon="-1.121219855986951"><ele>140.6</ele><time>2026-04-07T07:48:07Z</time></trkpt><trkpt lat="38.12081367527014" lon="-1.121365151079368"><ele>139.0</ele><time>2026-04-07T07:48:08Z</time></trkpt><trkpt lat="38.12084899910159" lon="-1.1215009327684682"><ele>139.0</ele><time>2026-04-07T07:48:09Z</time></trkpt><trkpt lat="38.120852002241215" lon="-1.1216455738506745"><ele>139.0</ele><time>2026-04-07T07:48:10Z</time></trkpt><trkpt lat="38.12087521113012" lon="-1.1217908171171107"><ele>139.0</ele><time>2026-04-07T07:48:11Z</time></trkpt><trkpt lat="38.120897102198526" lon="-1.1219325318392066"><ele>139.0</ele><time>2026-04-07T07:48:12Z</time></trkpt><trkpt lat="38.12091655142281" lon="-1.122070663670428"><ele>139.0</ele><time>2026-04-07T07:48:13Z</time></trkpt><trkpt lat="38.12092921227333" lon="-1.1222032262761465"><ele>139.0</ele><time>2026-04-07T07:48:14Z</time></trkpt><trkpt lat="38.120937178361274" lon="-1.1223312147204356"><ele>139.0</ele><time>2026-04-07T07:48:15Z</time></trkpt><trkpt lat="38.120944711518966" lon="-1.1224563015032"><ele>139.0</ele><time>2026-04-07T07:48:16Z</time></trkpt><trkpt lat="38.12095849533891" lon="-1.1225820236036341"><ele>139.0</ele><time>2026-04-07T07:48:17Z</time></trkpt><trkpt lat="38.12096655478488" lon="-1.1227074875174647"><ele>139.0</ele><time>2026-04-07T07:48:18Z</time></trkpt><trkpt lat="38.12096515302044" lon="-1.1228250099989852"><ele>139.0</ele><time>2026-04-07T07:48:19Z</time></trkpt><trkpt lat="38.1209742757391" lon="-1.1229341363229728"><ele>139.0</ele><time>2026-04-07T07:48:20Z</time></trkpt><trkpt lat="38.12095966080299" lon="-1.1230342964761797"><ele>139.0</ele><time>2026-04-07T07:48:21Z</time></trkpt><trkpt lat="38.12094218606667" lon="-1.123111511125462"><ele>139.0</ele><time>2026-04-07T07:48:22Z</time></trkpt><trkpt lat="38.12090260679174" lon="-1.1232502498529495"><ele>139.0</ele><time>2026-04-07T07:48:24Z</time></trkpt><trkpt lat="38.120875202030895" lon="-1.1233274819608194"><ele>139.0</ele><time>2026-04-07T07:48:25Z</time></trkpt><trkpt lat="38.120842622951805" lon="-1.1234112613729388"><ele>139.0</ele><time>2026-04-07T07:48:26Z</time></trkpt><trkpt lat="38.12084315764805" lon="-1.123492319752742"><ele>139.0</ele><time>2026-04-07T07:48:27Z</time></trkpt><trkpt lat="38.1208289922988" lon="-1.123582298212186"><ele>139.0</ele><time>2026-04-07T07:48:28Z</time></trkpt><trkpt lat="38.12080364253346" lon="-1.1236691668627268"><ele>139.0</ele><time>2026-04-07T07:48:29Z</time></trkpt><trkpt lat="38.120791077452175" lon="-1.1238311603209923"><ele>139.0</ele><time>2026-04-07T07:48:31Z</time></trkpt><trkpt lat="38.12078331957764" lon="-1.1239314993436011"><ele>139.0</ele><time>2026-04-07T07:48:32Z</time></trkpt><trkpt lat="38.12077087421258" lon="-1.1240299126718807"><ele>139.0</ele><time>2026-04-07T07:48:33Z</time></trkpt><trkpt lat="38.12075519525569" lon="-1.1241231334400381"><ele>139.0</ele><time>2026-04-07T07:48:34Z</time></trkpt><trkpt lat="38.120737526040045" lon="-1.124222767157677"><ele>139.0</ele><time>2026-04-07T07:48:35Z</time></trkpt><trkpt lat="38.12073861562549" lon="-1.1243351465128195"><ele>139.0</ele><time>2026-04-07T07:48:36Z</time></trkpt><trkpt lat="38.12071210692421" lon="-1.1244502752839234"><ele>139.0</ele><time>2026-04-07T07:48:37Z</time></trkpt><trkpt lat="38.12070203168748" lon="-1.124574466830839"><ele>140.2</ele><time>2026-04-07T07:48:38Z</time></trkpt><trkpt lat="38.120687310094524" lon="-1.1246892481215065"><ele>141.4</ele><time>2026-04-07T07:48:39Z</time></trkpt><trkpt lat="38.120679895468676" lon="-1.124818908379904"><ele>142.6</ele><time>2026-04-07T07:48:40Z</time></trkpt><trkpt lat="38.12068896373958" lon="-1.124954777590016"><ele>143.8</ele><time>2026-04-07T07:48:41Z</time></trkpt><trkpt lat="38.12067877424999" lon="-1.1250814331687937"><ele>145.0</ele><time>2026-04-07T07:48:42Z</time></trkpt><trkpt lat="38.12069005837723" lon="-1.1252124746483632"><ele>145.4</ele><time>2026-04-07T07:48:43Z</time></trkpt><trkpt lat="38.12070951821284" lon="-1.1253427094641781"><ele>145.8</ele><time>2026-04-07T07:48:44Z</time></trkpt><trkpt lat="38.120747682050805" lon="-1.1254642783940239"><ele>146.2</ele><time>2026-04-07T07:48:45Z</time></trkpt><trkpt lat="38.12082136303504" lon="-1.125570024150726"><ele>146.6</ele><time>2026-04-07T07:48:46Z</time></trkpt><trkpt lat="38.12087653949051" lon="-1.1256809824580507"><ele>147.0</ele><time>2026-04-07T07:48:47Z</time></trkpt><trkpt lat="38.12093365882818" lon="-1.1257918946156362"><ele>147.4</ele><time>2026-04-07T07:48:48Z</time></trkpt><trkpt lat="38.12099372096647" lon="-1.1258919035259796"><ele>147.79999999999998</ele><time>2026-04-07T07:48:49Z</time></trkpt><trkpt lat="38.12104987865535" lon="-1.1259840953001565"><ele>148.2</ele><time>2026-04-07T07:48:50Z</time></trkpt><trkpt lat="38.12110535528015" lon="-1.126091647488662"><ele>148.6</ele><time>2026-04-07T07:48:51Z</time></trkpt><trkpt lat="38.12110741373807" lon="-1.1262376378407255"><ele>149.0</ele><time>2026-04-07T07:48:52Z</time></trkpt><trkpt lat="38.12111812444671" lon="-1.126367410939181"><ele>149.0</ele><time>2026-04-07T07:48:53Z</time></trkpt><trkpt lat="38.1211441528087" lon="-1.1264920428565408"><ele>149.0</ele><time>2026-04-07T07:48:54Z</time></trkpt><trkpt lat="38.12116098216687" lon="-1.1266172246112278"><ele>149.0</ele><time>2026-04-07T07:48:55Z</time></trkpt><trkpt lat="38.121180542273045" lon="-1.1267418392265642"><ele>149.0</ele><time>2026-04-07T07:48:56Z</time></trkpt><trkpt lat="38.12120954770368" lon="-1.1268618263042707"><ele>149.0</ele><time>2026-04-07T07:48:57Z</time></trkpt><trkpt lat="38.12124392490138" lon="-1.1269712052286576"><ele>149.66666666666666</ele><time>2026-04-07T07:48:58Z</time></trkpt><trkpt lat="38.121276774771765" lon="-1.1270750871182684"><ele>150.33333333333331</ele><time>2026-04-07T07:48:59Z</time></trkpt><trkpt lat="38.121305768112926" lon="-1.1271642042283245"><ele>151.0</ele><time>2026-04-07T07:49:00Z</time></trkpt><trkpt lat="38.12132198194768" lon="-1.1272519282790974"><ele>151.66666666666666</ele><time>2026-04-07T07:49:01Z</time></trkpt><trkpt lat="38.12137809519514" lon="-1.1273501287458036"><ele>152.33333333333334</ele><time>2026-04-07T07:49:03Z</time></trkpt><trkpt lat="38.12140089339527" lon="-1.1274278233087591"><ele>153.0</ele><time>2026-04-07T07:49:18Z</time></trkpt><trkpt lat="38.12127408013529" lon="-1.1274868932078712"><ele>153.5</ele><time>2026-04-07T07:49:22Z</time></trkpt><trkpt lat="38.121204792644136" lon="-1.1275270913919888"><ele>154.0</ele><time>2026-04-07T07:49:23Z</time></trkpt><trkpt lat="38.121142854979816" lon="-1.1275838661199618"><ele>154.5</ele><time>2026-04-07T07:49:24Z</time></trkpt><trkpt lat="38.12110699413068" lon="-1.1276680281644273"><ele>155.0</ele><time>2026-04-07T07:49:25Z</time></trkpt><trkpt lat="38.12106470472393" lon="-1.1277720669289404"><ele>155.5</ele><time>2026-04-07T07:49:26Z</time></trkpt><trkpt lat="38.1210277162571" lon="-1.1278941489372851"><ele>156.0</ele><time>2026-04-07T07:49:27Z</time></trkpt><trkpt lat="38.12099765864585" lon="-1.1280245327538734"><ele>156.0</ele><time>2026-04-07T07:49:28Z</time></trkpt><trkpt lat="38.120987008687145" lon="-1.1281533554756693"><ele>156.0</ele><time>2026-04-07T07:49:29Z</time></trkpt><trkpt lat="38.12100289334016" lon="-1.1282844073294112"><ele>156.0</ele><time>2026-04-07T07:49:30Z</time></trkpt><trkpt lat="38.12102008523862" lon="-1.1284173651474314"><ele>156.0</ele><time>2026-04-07T07:49:31Z</time></trkpt><trkpt lat="38.121013407705085" lon="-1.1285478201227719"><ele>156.0</ele><time>2026-04-07T07:49:32Z</time></trkpt><trkpt lat="38.12103185885481" lon="-1.1286605978392097"><ele>154.83333333333334</ele><time>2026-04-07T07:49:33Z</time></trkpt><trkpt lat="38.121043465118625" lon="-1.1287710350694093"><ele>153.66666666666666</ele><time>2026-04-07T07:49:34Z</time></trkpt><trkpt lat="38.121056077222065" lon="-1.1288781498087885"><ele>152.5</ele><time>2026-04-07T07:49:35Z</time></trkpt><trkpt lat="38.12106453260772" lon="-1.1289847836775377"><ele>151.33333333333331</ele><time>2026-04-07T07:49:36Z</time></trkpt><trkpt lat="38.121078806928175" lon="-1.1290929129421061"><ele>150.16666666666666</ele><time>2026-04-07T07:49:37Z</time></trkpt><trkpt lat="38.12108432483917" lon="-1.1292045631406635"><ele>149.0</ele><time>2026-04-07T07:49:38Z</time></trkpt><trkpt lat="38.12110542470571" lon="-1.129317435566961"><ele>147.8</ele><time>2026-04-07T07:49:39Z</time></trkpt><trkpt lat="38.12114562188594" lon="-1.1294335472904624"><ele>146.60000000000002</ele><time>2026-04-07T07:49:40Z</time></trkpt><trkpt lat="38.12120567872696" lon="-1.1295356877058604"><ele>145.4</ele><time>2026-04-07T07:49:41Z</time></trkpt><trkpt lat="38.12127840037263" lon="-1.1296212890551935"><ele>144.20000000000002</ele><time>2026-04-07T07:49:42Z</time></trkpt><trkpt lat="38.121346671897015" lon="-1.1297093287250226"><ele>143.0</ele><time>2026-04-07T07:49:43Z</time></trkpt><trkpt lat="38.1214168362359" lon="-1.1298037255874245"><ele>142.20000000000002</ele><time>2026-04-07T07:49:44Z</time></trkpt><trkpt lat="38.121488848249" lon="-1.1298957812135166"><ele>141.4</ele><time>2026-04-07T07:49:45Z</time></trkpt><trkpt lat="38.12156304623702" lon="-1.12998039347722"><ele>140.60000000000002</ele><time>2026-04-07T07:49:46Z</time></trkpt><trkpt lat="38.12164086824481" lon="-1.130060262120975"><ele>139.8</ele><time>2026-04-07T07:49:47Z</time></trkpt><trkpt lat="38.12171480783324" lon="-1.1301368807669439"><ele>139.0</ele><time>2026-04-07T07:49:48Z</time></trkpt><trkpt lat="38.12180076763848" lon="-1.1301873295496967"><ele>138.8</ele><time>2026-04-07T07:49:49Z</time></trkpt><trkpt lat="38.121870844863714" lon="-1.130264318483926"><ele>138.60000000000002</ele><time>2026-04-07T07:49:50Z</time></trkpt><trkpt lat="38.12195696141388" lon="-1.1303224334236979"><ele>138.4</ele><time>2026-04-07T07:49:51Z</time></trkpt><trkpt lat="38.12205062831016" lon="-1.1303685519422184"><ele>138.20000000000002</ele><time>2026-04-07T07:49:52Z</time></trkpt><trkpt lat="38.122124020992665" lon="-1.1304580274035467"><ele>138.0</ele><time>2026-04-07T07:49:53Z</time></trkpt><trkpt lat="38.122178927045596" lon="-1.1305749875080198"><ele>138.0</ele><time>2026-04-07T07:49:54Z</time></trkpt><trkpt lat="38.122229308946395" lon="-1.1306860951323991"><ele>138.0</ele><time>2026-04-07T07:49:55Z</time></trkpt><trkpt lat="38.12227840434284" lon="-1.130797286646466"><ele>138.0</ele><time>2026-04-07T07:49:56Z</time></trkpt><trkpt lat="38.12233032130165" lon="-1.1309080781865026"><ele>138.0</ele><time>2026-04-07T07:49:57Z</time></trkpt><trkpt lat="38.1223764540614" lon="-1.1310241377039236"><ele>138.0</ele><time>2026-04-07T07:49:58Z</time></trkpt><trkpt lat="38.12246359584281" lon="-1.1311056693632722"><ele>136.6</ele><time>2026-04-07T07:49:59Z</time></trkpt><trkpt lat="38.12253842372167" lon="-1.131204572487053"><ele>135.20000000000002</ele><time>2026-04-07T07:50:00Z</time></trkpt><trkpt lat="38.122620925371564" lon="-1.1312766059573143"><ele>133.8</ele><time>2026-04-07T07:50:01Z</time></trkpt><trkpt lat="38.12270254635378" lon="-1.1313523296726147"><ele>132.4</ele><time>2026-04-07T07:50:02Z</time></trkpt><trkpt lat="38.12278101754218" lon="-1.1314200407032076"><ele>131.0</ele><time>2026-04-07T07:50:03Z</time></trkpt><trkpt lat="38.1228603775939" lon="-1.1314853406390193"><ele>131.0</ele><time>2026-04-07T07:50:04Z</time></trkpt><trkpt lat="38.12294060998501" lon="-1.1315500313000493"><ele>131.0</ele><time>2026-04-07T07:50:05Z</time></trkpt><trkpt lat="38.12302306789696" lon="-1.131612144811419"><ele>131.0</ele><time>2026-04-07T07:50:06Z</time></trkpt><trkpt lat="38.123107526642954" lon="-1.131672756057157"><ele>131.0</ele><time>2026-04-07T07:50:07Z</time></trkpt><trkpt lat="38.12318799290776" lon="-1.1317402268832502"><ele>131.0</ele><time>2026-04-07T07:50:08Z</time></trkpt><trkpt lat="38.123270347232506" lon="-1.1318084733650584"><ele>129.8</ele><time>2026-04-07T07:50:09Z</time></trkpt><trkpt lat="38.12335325219019" lon="-1.1318749096605398"><ele>128.6</ele><time>2026-04-07T07:50:10Z</time></trkpt><trkpt lat="38.12344016578285" lon="-1.131938082614423"><ele>127.4</ele><time>2026-04-07T07:50:11Z</time></trkpt><trkpt lat="38.12352460002196" lon="-1.1319990409726917"><ele>126.2</ele><time>2026-04-07T07:50:12Z</time></trkpt><trkpt lat="38.1236016093359" lon="-1.1320560894215255"><ele>125.0</ele><time>2026-04-07T07:50:13Z</time></trkpt><trkpt lat="38.12367112510494" lon="-1.1321094103762626"><ele>124.99999999999999</ele><time>2026-04-07T07:50:14Z</time></trkpt><trkpt lat="38.12373746074288" lon="-1.1321600836021866"><ele>125.0</ele><time>2026-04-07T07:50:15Z</time></trkpt><trkpt lat="38.12380594889763" lon="-1.1321976657339456"><ele>125.0</ele><time>2026-04-07T07:50:16Z</time></trkpt><trkpt lat="38.12387947813745" lon="-1.1322183650229525"><ele>125.0</ele><time>2026-04-07T07:50:17Z</time></trkpt><trkpt lat="38.12396112036164" lon="-1.1322187966434358"><ele>124.99999999999999</ele><time>2026-04-07T07:50:18Z</time></trkpt><trkpt lat="38.12404357122479" lon="-1.1322014162757543"><ele>125.0</ele><time>2026-04-07T07:50:19Z</time></trkpt><trkpt lat="38.124128703161276" lon="-1.1321827308770083"><ele>123.8</ele><time>2026-04-07T07:50:20Z</time></trkpt><trkpt lat="38.12421945880802" lon="-1.1321683992404858"><ele>122.6</ele><time>2026-04-07T07:50:21Z</time></trkpt><trkpt lat="38.12431704696572" lon="-1.1321515120884795"><ele>121.4</ele><time>2026-04-07T07:50:22Z</time></trkpt><trkpt lat="38.12441600354555" lon="-1.1321390924169537"><ele>120.2</ele><time>2026-04-07T07:50:23Z</time></trkpt><trkpt lat="38.1245136975741" lon="-1.1321410255322133"><ele>119.0</ele><time>2026-04-07T07:50:24Z</time></trkpt><trkpt lat="38.1246104494782" lon="-1.1321502675571995"><ele>119.0</ele><time>2026-04-07T07:50:25Z</time></trkpt><trkpt lat="38.12470809263514" lon="-1.1321470820299981"><ele>119.0</ele><time>2026-04-07T07:50:26Z</time></trkpt><trkpt lat="38.124800702155525" lon="-1.1321587402308613"><ele>119.0</ele><time>2026-04-07T07:50:27Z</time></trkpt><trkpt lat="38.124895289573175" lon="-1.13218322153379"><ele>119.0</ele><time>2026-04-07T07:50:28Z</time></trkpt><trkpt lat="38.124982992458" lon="-1.1322170001037768"><ele>119.0</ele><time>2026-04-07T07:50:29Z</time></trkpt><trkpt lat="38.12507015169176" lon="-1.1322598368812027"><ele>118.0</ele><time>2026-04-07T07:50:30Z</time></trkpt><trkpt lat="38.125152739671314" lon="-1.132303220136214"><ele>117.0</ele><time>2026-04-07T07:50:31Z</time></trkpt><trkpt lat="38.125227247921806" lon="-1.1323652717166945"><ele>116.0</ele><time>2026-04-07T07:50:32Z</time></trkpt><trkpt lat="38.12530879968952" lon="-1.1324122728465538"><ele>115.0</ele><time>2026-04-07T07:50:33Z</time></trkpt><trkpt lat="38.12539900744385" lon="-1.1324436685483972"><ele>114.0</ele><time>2026-04-07T07:50:34Z</time></trkpt><trkpt lat="38.125484325248536" lon="-1.1324949482512043"><ele>113.83333333333333</ele><time>2026-04-07T07:50:35Z</time></trkpt><trkpt lat="38.125564817942" lon="-1.132544720128695"><ele>113.66666666666666</ele><time>2026-04-07T07:50:36Z</time></trkpt><trkpt lat="38.12563656733283" lon="-1.1326108720075967"><ele>113.5</ele><time>2026-04-07T07:50:37Z</time></trkpt><trkpt lat="38.1257098410964" lon="-1.1326559043006872"><ele>113.33333333333333</ele><time>2026-04-07T07:50:38Z</time></trkpt><trkpt lat="38.12577278278298" lon="-1.1326949652323224"><ele>113.16666666666666</ele><time>2026-04-07T07:50:39Z</time></trkpt><trkpt lat="38.12586866089273" lon="-1.1327367433564666"><ele>113.0</ele><time>2026-04-07T07:50:41Z</time></trkpt><trkpt lat="38.125861974099" lon="-1.1329358063992392"><ele>113.33333333333333</ele><time>2026-04-07T07:50:42Z</time></trkpt><trkpt lat="38.12584939746436" lon="-1.1330443963277834"><ele>113.66666666666666</ele><time>2026-04-07T07:50:43Z</time></trkpt><trkpt lat="38.12583660676606" lon="-1.133152088350248"><ele>114.0</ele><time>2026-04-07T07:50:44Z</time></trkpt><trkpt lat="38.12582563574779" lon="-1.1332571076846814"><ele>114.33333333333334</ele><time>2026-04-07T07:50:45Z</time></trkpt><trkpt lat="38.12582327249975" lon="-1.1333585974030573"><ele>114.66666666666667</ele><time>2026-04-07T07:50:46Z</time></trkpt><trkpt lat="38.12583603852786" lon="-1.13345579055179"><ele>115.0</ele><time>2026-04-07T07:50:47Z</time></trkpt><trkpt lat="38.125856935236556" lon="-1.1335478609933745"><ele>115.00000000000001</ele><time>2026-04-07T07:50:48Z</time></trkpt><trkpt lat="38.125922055904226" lon="-1.1336013461253407"><ele>115.0</ele><time>2026-04-07T07:50:49Z</time></trkpt><trkpt lat="38.125994728770955" lon="-1.1336360569638129"><ele>115.0</ele><time>2026-04-07T07:50:50Z</time></trkpt><trkpt lat="38.12607384050958" lon="-1.1336534660344153"><ele>115.0</ele><time>2026-04-07T07:50:51Z</time></trkpt><trkpt lat="38.12615359990012" lon="-1.1336494373046693"><ele>115.00000000000001</ele><time>2026-04-07T07:50:52Z</time></trkpt><trkpt lat="38.12623906045672" lon="-1.1336314928738782"><ele>115.0</ele><time>2026-04-07T07:50:53Z</time></trkpt><trkpt lat="38.12632430223858" lon="-1.1336012524362735"><ele>115.0</ele><time>2026-04-07T07:50:54Z</time></trkpt><trkpt lat="38.126411618825436" lon="-1.1335610925091726"><ele>115.0</ele><time>2026-04-07T07:50:55Z</time></trkpt><trkpt lat="38.12650302373536" lon="-1.1335207579430255"><ele>115.0</ele><time>2026-04-07T07:50:56Z</time></trkpt><trkpt lat="38.12659722767278" lon="-1.1334745313213173"><ele>115.0</ele><time>2026-04-07T07:50:57Z</time></trkpt><trkpt lat="38.1266920380321" lon="-1.1334259123666721"><ele>115.0</ele><time>2026-04-07T07:50:58Z</time></trkpt><trkpt lat="38.12678829908981" lon="-1.1333725830267642"><ele>115.2</ele><time>2026-04-07T07:50:59Z</time></trkpt><trkpt lat="38.126885855603874" lon="-1.1333203264222897"><ele>115.4</ele><time>2026-04-07T07:51:00Z</time></trkpt><trkpt lat="38.12698689392197" lon="-1.133268504307755"><ele>115.6</ele><time>2026-04-07T07:51:01Z</time></trkpt><trkpt lat="38.127087850187614" lon="-1.133214854580522"><ele>115.8</ele><time>2026-04-07T07:51:02Z</time></trkpt><trkpt lat="38.127187369204556" lon="-1.1331602064194122"><ele>116.0</ele><time>2026-04-07T07:51:03Z</time></trkpt><trkpt lat="38.127286198070166" lon="-1.1331033551509764"><ele>116.8</ele><time>2026-04-07T07:51:04Z</time></trkpt><trkpt lat="38.127383451514994" lon="-1.1330471656963217"><ele>117.6</ele><time>2026-04-07T07:51:05Z</time></trkpt><trkpt lat="38.12748217653364" lon="-1.132998621743569"><ele>118.4</ele><time>2026-04-07T07:51:06Z</time></trkpt><trkpt lat="38.12758187674339" lon="-1.132962529486703"><ele>119.2</ele><time>2026-04-07T07:51:07Z</time></trkpt><trkpt lat="38.127685738335856" lon="-1.132933363181694"><ele>120.0</ele><time>2026-04-07T07:51:08Z</time></trkpt><trkpt lat="38.127793141556495" lon="-1.1329183992703413"><ele>120.4</ele><time>2026-04-07T07:51:09Z</time></trkpt><trkpt lat="38.12790011361453" lon="-1.1329144501171657"><ele>120.8</ele><time>2026-04-07T07:51:10Z</time></trkpt><trkpt lat="38.12800689146551" lon="-1.132911003787337"><ele>121.19999999999999</ele><time>2026-04-07T07:51:11Z</time></trkpt><trkpt lat="38.128110589427564" lon="-1.132905290040323"><ele>121.6</ele><time>2026-04-07T07:51:12Z</time></trkpt><trkpt lat="38.12821366969783" lon="-1.132899403247668"><ele>122.0</ele><time>2026-04-07T07:51:13Z</time></trkpt><trkpt lat="38.12831682743432" lon="-1.132891104632284"><ele>122.0</ele><time>2026-04-07T07:51:14Z</time></trkpt><trkpt lat="38.12841978437136" lon="-1.132881688723512"><ele>121.99999999999999</ele><time>2026-04-07T07:51:15Z</time></trkpt><trkpt lat="38.128524342175545" lon="-1.1328635020081788"><ele>121.99999999999999</ele><time>2026-04-07T07:51:16Z</time></trkpt><trkpt lat="38.128630268158055" lon="-1.1328443787134186"><ele>122.0</ele><time>2026-04-07T07:51:17Z</time></trkpt><trkpt lat="38.12873519396843" lon="-1.1328251052790868"><ele>122.0</ele><time>2026-04-07T07:51:18Z</time></trkpt><trkpt lat="38.128842565663504" lon="-1.1328096164095254"><ele>122.0</ele><time>2026-04-07T07:51:19Z</time></trkpt><trkpt lat="38.12895063629753" lon="-1.132796231742473"><ele>121.99999999999999</ele><time>2026-04-07T07:51:20Z</time></trkpt><trkpt lat="38.12905779366525" lon="-1.1327807790174294"><ele>121.99999999999999</ele><time>2026-04-07T07:51:21Z</time></trkpt><trkpt lat="38.12916366892157" lon="-1.132764296110052"><ele>122.0</ele><time>2026-04-07T07:51:22Z</time></trkpt><trkpt lat="38.129268812719985" lon="-1.132747295259522"><ele>122.0</ele><time>2026-04-07T07:51:23Z</time></trkpt><trkpt lat="38.12937406507926" lon="-1.1327307024465854"><ele>123.0</ele><time>2026-04-07T07:51:24Z</time></trkpt><trkpt lat="38.12947164411427" lon="-1.1327146894123648"><ele>123.99999999999999</ele><time>2026-04-07T07:51:25Z</time></trkpt><trkpt lat="38.12955836882308" lon="-1.132701323770673"><ele>124.99999999999999</ele><time>2026-04-07T07:51:26Z</time></trkpt><trkpt lat="38.1296355883841" lon="-1.1326920731325238"><ele>126.0</ele><time>2026-04-07T07:51:27Z</time></trkpt><trkpt lat="38.12974365218539" lon="-1.1326779997082004"><ele>127.0</ele><time>2026-04-07T07:51:29Z</time></trkpt><trkpt lat="38.129818629007765" lon="-1.132723981992399"><ele>127.6</ele><time>2026-04-07T07:51:31Z</time></trkpt><trkpt lat="38.12990925801305" lon="-1.1327745942256298"><ele>128.2</ele><time>2026-04-07T07:51:33Z</time></trkpt><trkpt lat="38.1299835713341" lon="-1.1327679611426937"><ele>128.8</ele><time>2026-04-07T07:51:34Z</time></trkpt><trkpt lat="38.13007258426653" lon="-1.1327531149673458"><ele>129.4</ele><time>2026-04-07T07:51:35Z</time></trkpt><trkpt lat="38.13017952379894" lon="-1.1327416819812548"><ele>130.0</ele><time>2026-04-07T07:51:36Z</time></trkpt><trkpt lat="38.130305625626136" lon="-1.1327385182523046"><ele>130.0</ele><time>2026-04-07T07:51:37Z</time></trkpt><trkpt lat="38.1304110200071" lon="-1.1327389745144907"><ele>130.0</ele><time>2026-04-07T07:51:38Z</time></trkpt><trkpt lat="38.13048879268258" lon="-1.132729319505707"><ele>130.0</ele><time>2026-04-07T07:51:39Z</time></trkpt><trkpt lat="38.13056417478431" lon="-1.1327211899245224"><ele>130.0</ele><time>2026-04-07T07:51:40Z</time></trkpt><trkpt lat="38.13062550437028" lon="-1.1326833816235673"><ele>130.0</ele><time>2026-04-07T07:51:41Z</time></trkpt><trkpt lat="38.13070621779442" lon="-1.132646884273381"><ele>130.0</ele><time>2026-04-07T07:51:42Z</time></trkpt><trkpt lat="38.13082245786001" lon="-1.1326157498906264"><ele>130.0</ele><time>2026-04-07T07:51:43Z</time></trkpt><trkpt lat="38.13092952336986" lon="-1.1325731008874176"><ele>130.0</ele><time>2026-04-07T07:51:44Z</time></trkpt><trkpt lat="38.131034183600576" lon="-1.1325401964952535"><ele>130.0</ele><time>2026-04-07T07:51:45Z</time></trkpt><trkpt lat="38.13113478525266" lon="-1.1325114785972243"><ele>130.0</ele><time>2026-04-07T07:51:46Z</time></trkpt><trkpt lat="38.131226932809184" lon="-1.1324856264311751"><ele>130.0</ele><time>2026-04-07T07:51:47Z</time></trkpt><trkpt lat="38.13131535499751" lon="-1.1324326059509857"><ele>130.0</ele><time>2026-04-07T07:51:48Z</time></trkpt><trkpt lat="38.13139844716139" lon="-1.1324292647079752"><ele>130.0</ele><time>2026-04-07T07:51:49Z</time></trkpt><trkpt lat="38.131459820553566" lon="-1.1323980184374196"><ele>130.0</ele><time>2026-04-07T07:51:50Z</time></trkpt><trkpt lat="38.13152933293909" lon="-1.1323969004183492"><ele>130.0</ele><time>2026-04-07T07:51:51Z</time></trkpt><trkpt lat="38.13166018097271" lon="-1.132533049669866"><ele>130.0</ele><time>2026-04-07T07:51:53Z</time></trkpt><trkpt lat="38.13173182902099" lon="-1.1326034865648127"><ele>130.33333333333334</ele><time>2026-04-07T07:51:54Z</time></trkpt><trkpt lat="38.131797540186284" lon="-1.1326602419462368"><ele>130.66666666666669</ele><time>2026-04-07T07:51:55Z</time></trkpt><trkpt lat="38.13185519724103" lon="-1.1327236891462116"><ele>131.0</ele><time>2026-04-07T07:51:56Z</time></trkpt><trkpt lat="38.131927861572606" lon="-1.1327564496010707"><ele>131.33333333333334</ele><time>2026-04-07T07:51:57Z</time></trkpt><trkpt lat="38.13200657219932" lon="-1.1327864733155217"><ele>131.66666666666666</ele><time>2026-04-07T07:51:58Z</time></trkpt><trkpt lat="38.13208714750172" lon="-1.1328107845198807"><ele>132.0</ele><time>2026-04-07T07:51:59Z</time></trkpt><trkpt lat="38.132169694580135" lon="-1.1328234121856804"><ele>132.0</ele><time>2026-04-07T07:52:00Z</time></trkpt><trkpt lat="38.132256199573966" lon="-1.132827628804105"><ele>132.0</ele><time>2026-04-07T07:52:01Z</time></trkpt><trkpt lat="38.13233461685331" lon="-1.1328336670131225"><ele>132.0</ele><time>2026-04-07T07:52:02Z</time></trkpt><trkpt lat="38.13240797070363" lon="-1.1328404638635678"><ele>132.0</ele><time>2026-04-07T07:52:03Z</time></trkpt><trkpt lat="38.13247600419608" lon="-1.132814416825721"><ele>132.0</ele><time>2026-04-07T07:52:04Z</time></trkpt><trkpt lat="38.13254212913682" lon="-1.1328088106524565"><ele>132.0</ele><time>2026-04-07T07:52:05Z</time></trkpt><trkpt lat="38.13266817406644" lon="-1.132825951937883"><ele>131.83333333333334</ele><time>2026-04-07T07:52:07Z</time></trkpt><trkpt lat="38.1327612415761" lon="-1.1328747567564357"><ele>131.66666666666666</ele><time>2026-04-07T07:52:09Z</time></trkpt><trkpt lat="38.13286556878232" lon="-1.1328323564491456"><ele>131.5</ele><time>2026-04-07T07:52:11Z</time></trkpt><trkpt lat="38.13292458359252" lon="-1.13279010266893"><ele>131.33333333333331</ele><time>2026-04-07T07:52:12Z</time></trkpt><trkpt lat="38.132984790172046" lon="-1.1327659741868428"><ele>131.16666666666666</ele><time>2026-04-07T07:52:13Z</time></trkpt><trkpt lat="38.13304651608942" lon="-1.1327438494833777"><ele>131.0</ele><time>2026-04-07T07:52:14Z</time></trkpt><trkpt lat="38.13315611890669" lon="-1.1326722180024797"><ele>131.33333333333331</ele><time>2026-04-07T07:52:16Z</time></trkpt><trkpt lat="38.13323163357677" lon="-1.1327024380500093"><ele>131.66666666666666</ele><time>2026-04-07T07:52:17Z</time></trkpt><trkpt lat="38.13330035655086" lon="-1.132716036477415"><ele>132.0</ele><time>2026-04-07T07:52:18Z</time></trkpt><trkpt lat="38.13342615344715" lon="-1.1326897299216832"><ele>132.33333333333334</ele><time>2026-04-07T07:52:20Z</time></trkpt><trkpt lat="38.133494684578366" lon="-1.132675573558007"><ele>132.66666666666669</ele><time>2026-04-07T07:52:21Z</time></trkpt><trkpt lat="38.13357032616321" lon="-1.13276072990817"><ele>133.0</ele><time>2026-04-07T07:52:23Z</time></trkpt><trkpt lat="38.13360132580761" lon="-1.1328389086907154"><ele>133.0</ele><time>2026-04-07T07:52:24Z</time></trkpt><trkpt lat="38.133643537401646" lon="-1.132910585261215"><ele>133.0</ele><time>2026-04-07T07:52:25Z</time></trkpt><trkpt lat="38.13370651471756" lon="-1.1329648751134407"><ele>133.0</ele><time>2026-04-07T07:52:26Z</time></trkpt><trkpt lat="38.13378105240517" lon="-1.133024166005399"><ele>133.0</ele><time>2026-04-07T07:52:27Z</time></trkpt><trkpt lat="38.13385934407292" lon="-1.133089127405455"><ele>133.0</ele><time>2026-04-07T07:52:28Z</time></trkpt><trkpt lat="38.133939944564375" lon="-1.1331509883626052"><ele>133.0</ele><time>2026-04-07T07:52:29Z</time></trkpt><trkpt lat="38.13401058186548" lon="-1.1332004851155786"><ele>134.0</ele><time>2026-04-07T07:52:30Z</time></trkpt><trkpt lat="38.13408607547161" lon="-1.133238187262868"><ele>135.0</ele><time>2026-04-07T07:52:31Z</time></trkpt><trkpt lat="38.13416928005839" lon="-1.1332677583593707"><ele>136.0</ele><time>2026-04-07T07:52:32Z</time></trkpt><trkpt lat="38.134255863955154" lon="-1.1332922264951997"><ele>137.0</ele><time>2026-04-07T07:52:33Z</time></trkpt><trkpt lat="38.13433324483618" lon="-1.1333168433105367"><ele>138.0</ele><time>2026-04-07T07:52:34Z</time></trkpt><trkpt lat="38.13440780589023" lon="-1.1333497822489573"><ele>139.0</ele><time>2026-04-07T07:52:35Z</time></trkpt><trkpt lat="38.13448311035934" lon="-1.1333990569825605"><ele>139.0</ele><time>2026-04-07T07:52:36Z</time></trkpt><trkpt lat="38.1345538759905" lon="-1.1334664832333605"><ele>139.0</ele><time>2026-04-07T07:52:37Z</time></trkpt><trkpt lat="38.13463535140845" lon="-1.1335306737514352"><ele>139.0</ele><time>2026-04-07T07:52:38Z</time></trkpt><trkpt lat="38.13472056974443" lon="-1.1335708558731525"><ele>139.0</ele><time>2026-04-07T07:52:39Z</time></trkpt><trkpt lat="38.13481368659199" lon="-1.1336013501665982"><ele>139.0</ele><time>2026-04-07T07:52:40Z</time></trkpt><trkpt lat="38.13489734825929" lon="-1.1336377567222364"><ele>139.5</ele><time>2026-04-07T07:52:41Z</time></trkpt><trkpt lat="38.13498251325351" lon="-1.1336816450441056"><ele>140.0</ele><time>2026-04-07T07:52:42Z</time></trkpt><trkpt lat="38.135061579330134" lon="-1.1337255195476537"><ele>140.5</ele><time>2026-04-07T07:52:43Z</time></trkpt><trkpt lat="38.13514205783583" lon="-1.1337789361698447"><ele>141.0</ele><time>2026-04-07T07:52:44Z</time></trkpt><trkpt lat="38.135204114567486" lon="-1.133834579875883"><ele>141.5</ele><time>2026-04-07T07:52:45Z</time></trkpt><trkpt lat="38.13525697789452" lon="-1.1338880659553259"><ele>142.0</ele><time>2026-04-07T07:52:46Z</time></trkpt><trkpt lat="38.13533137088689" lon="-1.1339674066124992"><ele>142.0</ele><time>2026-04-07T07:52:48Z</time></trkpt><trkpt lat="38.135396721859294" lon="-1.1340409723153222"><ele>142.0</ele><time>2026-04-07T07:52:50Z</time></trkpt><trkpt lat="38.13545103249958" lon="-1.1340904380360515"><ele>142.0</ele><time>2026-04-07T07:52:51Z</time></trkpt><trkpt lat="38.135526440235395" lon="-1.1341362817813723"><ele>142.0</ele><time>2026-04-07T07:52:52Z</time></trkpt><trkpt lat="38.13560650148936" lon="-1.1341656880801487"><ele>142.0</ele><time>2026-04-07T07:52:53Z</time></trkpt><trkpt lat="38.13568169127806" lon="-1.134172584313978"><ele>142.0</ele><time>2026-04-07T07:52:54Z</time></trkpt><trkpt lat="38.135755108618845" lon="-1.1341889550346629"><ele>142.16666666666669</ele><time>2026-04-07T07:52:55Z</time></trkpt><trkpt lat="38.13582412588564" lon="-1.1342270013281508"><ele>142.33333333333334</ele><time>2026-04-07T07:52:56Z</time></trkpt><trkpt lat="38.13587189961363" lon="-1.1342814497898361"><ele>142.5</ele><time>2026-04-07T07:52:57Z</time></trkpt><trkpt lat="38.135901121221956" lon="-1.1343683864689076"><ele>142.66666666666666</ele><time>2026-04-07T07:52:58Z</time></trkpt><trkpt lat="38.13592439622557" lon="-1.1344824918017862"><ele>142.83333333333331</ele><time>2026-04-07T07:52:59Z</time></trkpt><trkpt lat="38.13597549860964" lon="-1.1345833435453048"><ele>143.0</ele><time>2026-04-07T07:53:00Z</time></trkpt><trkpt lat="38.13604563553416" lon="-1.134668118061245"><ele>143.0</ele><time>2026-04-07T07:53:01Z</time></trkpt><trkpt lat="38.13612681949721" lon="-1.1347588936431552"><ele>143.0</ele><time>2026-04-07T07:53:02Z</time></trkpt><trkpt lat="38.13621268445702" lon="-1.1348468937412892"><ele>143.0</ele><time>2026-04-07T07:53:03Z</time></trkpt><trkpt lat="38.136300915924686" lon="-1.134924171174913"><ele>143.0</ele><time>2026-04-07T07:53:04Z</time></trkpt><trkpt lat="38.136389229315064" lon="-1.1350033324021895"><ele>143.0</ele><time>2026-04-07T07:53:05Z</time></trkpt><trkpt lat="38.1364808687417" lon="-1.135076370779702"><ele>142.83333333333331</ele><time>2026-04-07T07:53:06Z</time></trkpt><trkpt lat="38.13656266374526" lon="-1.1351385721592555"><ele>142.66666666666666</ele><time>2026-04-07T07:53:07Z</time></trkpt><trkpt lat="38.136635955999495" lon="-1.1351922619532118"><ele>142.5</ele><time>2026-04-07T07:53:08Z</time></trkpt><trkpt lat="38.1367098028788" lon="-1.1352448729931712"><ele>142.33333333333334</ele><time>2026-04-07T07:53:09Z</time></trkpt><trkpt lat="38.13677432514808" lon="-1.1352971049719693"><ele>142.16666666666669</ele><time>2026-04-07T07:53:10Z</time></trkpt><trkpt lat="38.13683560130257" lon="-1.1353387192259965"><ele>142.0</ele><time>2026-04-07T07:53:11Z</time></trkpt><trkpt lat="38.13692696946819" lon="-1.1354387541501318"><ele>142.0</ele><time>2026-04-07T07:53:13Z</time></trkpt><trkpt lat="38.13698112289643" lon="-1.1354856411890633"><ele>142.0</ele><time>2026-04-07T07:53:14Z</time></trkpt><trkpt lat="38.13705211711853" lon="-1.1355179040345773"><ele>142.0</ele><time>2026-04-07T07:53:15Z</time></trkpt><trkpt lat="38.13712197583732" lon="-1.1355507273039647"><ele>142.0</ele><time>2026-04-07T07:53:16Z</time></trkpt><trkpt lat="38.13719577343058" lon="-1.1356047474136095"><ele>142.0</ele><time>2026-04-07T07:53:17Z</time></trkpt><trkpt lat="38.13727216087524" lon="-1.1356916398759445"><ele>142.0</ele><time>2026-04-07T07:53:18Z</time></trkpt><trkpt lat="38.13735767755618" lon="-1.1357917471797836"><ele>142.0</ele><time>2026-04-07T07:53:19Z</time></trkpt><trkpt lat="38.13744257958357" lon="-1.1358727406925124"><ele>142.0</ele><time>2026-04-07T07:53:20Z</time></trkpt><trkpt lat="38.13752131652575" lon="-1.1359476870315766"><ele>142.0</ele><time>2026-04-07T07:53:21Z</time></trkpt><trkpt lat="38.137595472205746" lon="-1.1360201278543303"><ele>142.0</ele><time>2026-04-07T07:53:22Z</time></trkpt><trkpt lat="38.13767773732234" lon="-1.1360768350387054"><ele>142.0</ele><time>2026-04-07T07:53:23Z</time></trkpt><trkpt lat="38.13777232971169" lon="-1.136097186272134"><ele>142.0</ele><time>2026-04-07T07:53:24Z</time></trkpt><trkpt lat="38.137862356630194" lon="-1.1360834169981073"><ele>142.0</ele><time>2026-04-07T07:53:25Z</time></trkpt><trkpt lat="38.13793592492013" lon="-1.1360373782100823"><ele>142.0</ele><time>2026-04-07T07:53:26Z</time></trkpt><trkpt lat="38.138002016693825" lon="-1.1359983333473767"><ele>142.0</ele><time>2026-04-07T07:53:27Z</time></trkpt><trkpt lat="38.13808953424543" lon="-1.1359838428479812"><ele>142.0</ele><time>2026-04-07T07:53:28Z</time></trkpt><trkpt lat="38.13820056283283" lon="-1.1359894224589333"><ele>142.0</ele><time>2026-04-07T07:53:29Z</time></trkpt><trkpt lat="38.13831814932948" lon="-1.1359895446674877"><ele>142.6</ele><time>2026-04-07T07:53:30Z</time></trkpt><trkpt lat="38.13842155548818" lon="-1.1359780770970949"><ele>143.2</ele><time>2026-04-07T07:53:31Z</time></trkpt><trkpt lat="38.138524207970455" lon="-1.135975054594338"><ele>143.8</ele><time>2026-04-07T07:53:32Z</time></trkpt><trkpt lat="38.13862390423841" lon="-1.1360084983783265"><ele>144.4</ele><time>2026-04-07T07:53:33Z</time></trkpt><trkpt lat="38.138702733882546" lon="-1.1360838310066044"><ele>145.0</ele><time>2026-04-07T07:53:34Z</time></trkpt><trkpt lat="38.138783365172095" lon="-1.1361769179147323"><ele>145.0</ele><time>2026-04-07T07:53:35Z</time></trkpt><trkpt lat="38.13886085818543" lon="-1.1362749394749911"><ele>145.0</ele><time>2026-04-07T07:53:36Z</time></trkpt><trkpt lat="38.13893760055938" lon="-1.136363250014085"><ele>145.0</ele><time>2026-04-07T07:53:37Z</time></trkpt><trkpt lat="38.139039489586615" lon="-1.1364149931924858"><ele>145.0</ele><time>2026-04-07T07:53:38Z</time></trkpt><trkpt lat="38.139145411990455" lon="-1.1364805047486655"><ele>145.0</ele><time>2026-04-07T07:53:39Z</time></trkpt><trkpt lat="38.139250418700016" lon="-1.1365437507956366"><ele>144.5</ele><time>2026-04-07T07:53:40Z</time></trkpt><trkpt lat="38.1393586101131" lon="-1.1366127126489425"><ele>144.0</ele><time>2026-04-07T07:53:41Z</time></trkpt><trkpt lat="38.139465350813865" lon="-1.1366890153195457"><ele>143.5</ele><time>2026-04-07T07:53:42Z</time></trkpt><trkpt lat="38.13956932779039" lon="-1.1367623479951139"><ele>143.0</ele><time>2026-04-07T07:53:43Z</time></trkpt><trkpt lat="38.13966965069249" lon="-1.1368355264776304"><ele>143.0</ele><time>2026-04-07T07:53:44Z</time></trkpt><trkpt lat="38.139765297642214" lon="-1.1369177514213253"><ele>143.0</ele><time>2026-04-07T07:53:45Z</time></trkpt><trkpt lat="38.13986918804219" lon="-1.1369855565516975"><ele>143.0</ele><time>2026-04-07T07:53:46Z</time></trkpt><trkpt lat="38.13994161256521" lon="-1.137092897523709"><ele>143.0</ele><time>2026-04-07T07:53:47Z</time></trkpt><trkpt lat="38.140031018038464" lon="-1.1371748833475455"><ele>143.8</ele><time>2026-04-07T07:53:48Z</time></trkpt><trkpt lat="38.14012838235402" lon="-1.1372376803313633"><ele>144.60000000000002</ele><time>2026-04-07T07:53:49Z</time></trkpt><trkpt lat="38.140236093031426" lon="-1.1372681044586324"><ele>145.39999999999998</ele><time>2026-04-07T07:53:50Z</time></trkpt><trkpt lat="38.14034888107312" lon="-1.1372832388562246"><ele>146.2</ele><time>2026-04-07T07:53:51Z</time></trkpt><trkpt lat="38.14046097723096" lon="-1.1372984212788488"><ele>147.0</ele><time>2026-04-07T07:53:52Z</time></trkpt><trkpt lat="38.14057501929578" lon="-1.137334938767871"><ele>147.0</ele><time>2026-04-07T07:53:53Z</time></trkpt><trkpt lat="38.1406859861552" lon="-1.1373840843101162"><ele>147.0</ele><time>2026-04-07T07:53:54Z</time></trkpt><trkpt lat="38.14079185380621" lon="-1.1374456818850847"><ele>147.0</ele><time>2026-04-07T07:53:55Z</time></trkpt><trkpt lat="38.140897676214166" lon="-1.1375145904974198"><ele>147.0</ele><time>2026-04-07T07:53:56Z</time></trkpt><trkpt lat="38.14100313454056" lon="-1.1375826266047855"><ele>147.25</ele><time>2026-04-07T07:53:57Z</time></trkpt><trkpt lat="38.14111251261535" lon="-1.1376429480323489"><ele>147.5</ele><time>2026-04-07T07:53:58Z</time></trkpt><trkpt lat="38.14122372729318" lon="-1.1376917451721644"><ele>147.75</ele><time>2026-04-07T07:53:59Z</time></trkpt><trkpt lat="38.14134122844376" lon="-1.1377173959005662"><ele>148.0</ele><time>2026-04-07T07:54:00Z</time></trkpt><trkpt lat="38.14146195685204" lon="-1.1377290082655405"><ele>148.5</ele><time>2026-04-07T07:54:01Z</time></trkpt><trkpt lat="38.14158651657392" lon="-1.137735258417636"><ele>149.0</ele><time>2026-04-07T07:54:02Z</time></trkpt><trkpt lat="38.14171067225989" lon="-1.13772795332745"><ele>149.5</ele><time>2026-04-07T07:54:03Z</time></trkpt><trkpt lat="38.14183589389629" lon="-1.1377037340465568"><ele>150.0</ele><time>2026-04-07T07:54:04Z</time></trkpt><trkpt lat="38.14196081466772" lon="-1.137674380214861"><ele>150.0</ele><time>2026-04-07T07:54:05Z</time></trkpt><trkpt lat="38.14208398992857" lon="-1.1376388107135065"><ele>150.0</ele><time>2026-04-07T07:54:06Z</time></trkpt><trkpt lat="38.142208372221376" lon="-1.1375920485010398"><ele>150.0</ele><time>2026-04-07T07:54:07Z</time></trkpt><trkpt lat="38.14232763604986" lon="-1.1375361100402024"><ele>150.0</ele><time>2026-04-07T07:54:08Z</time></trkpt><trkpt lat="38.142446863673676" lon="-1.1374816990534804"><ele>150.5</ele><time>2026-04-07T07:54:09Z</time></trkpt><trkpt lat="38.14256720227612" lon="-1.1374284943017337"><ele>151.0</ele><time>2026-04-07T07:54:10Z</time></trkpt><trkpt lat="38.142684939261294" lon="-1.1373762453158127"><ele>151.5</ele><time>2026-04-07T07:54:11Z</time></trkpt><trkpt lat="38.142790043854475" lon="-1.1373310084022346"><ele>152.0</ele><time>2026-04-07T07:54:12Z</time></trkpt><trkpt lat="38.14287771430894" lon="-1.1372916474453392"><ele>152.4</ele><time>2026-04-07T07:54:13Z</time></trkpt><trkpt lat="38.14296242709861" lon="-1.1372626666137697"><ele>152.79999999999998</ele><time>2026-04-07T07:54:14Z</time></trkpt><trkpt lat="38.143061130208565" lon="-1.137247549919964"><ele>153.2</ele><time>2026-04-07T07:54:15Z</time></trkpt><trkpt lat="38.143172590396055" lon="-1.1372449220905414"><ele>153.6</ele><time>2026-04-07T07:54:16Z</time></trkpt><trkpt lat="38.143294185003676" lon="-1.1372547371689008"><ele>154.0</ele><time>2026-04-07T07:54:17Z</time></trkpt><trkpt lat="38.14341881586714" lon="-1.137265010357235"><ele>154.5</ele><time>2026-04-07T07:54:18Z</time></trkpt><trkpt lat="38.143538577686435" lon="-1.137268703701571"><ele>155.0</ele><time>2026-04-07T07:54:19Z</time></trkpt><trkpt lat="38.143660238495" lon="-1.1372542900012061"><ele>155.5</ele><time>2026-04-07T07:54:20Z</time></trkpt><trkpt lat="38.14377781338356" lon="-1.1372217254563448"><ele>156.0</ele><time>2026-04-07T07:54:21Z</time></trkpt><trkpt lat="38.143891591073874" lon="-1.1371678490537314"><ele>156.0</ele><time>2026-04-07T07:54:22Z</time></trkpt><trkpt lat="38.14400608815184" lon="-1.1371091521306835"><ele>156.0</ele><time>2026-04-07T07:54:23Z</time></trkpt><trkpt lat="38.144120646015544" lon="-1.137055335272373"><ele>156.0</ele><time>2026-04-07T07:54:24Z</time></trkpt><trkpt lat="38.14423413394102" lon="-1.137008268902656"><ele>156.0</ele><time>2026-04-07T07:54:25Z</time></trkpt><trkpt lat="38.144338392529676" lon="-1.1369740845413838"><ele>156.8</ele><time>2026-04-07T07:54:26Z</time></trkpt><trkpt lat="38.14443906422226" lon="-1.1369626514732936"><ele>157.6</ele><time>2026-04-07T07:54:27Z</time></trkpt><trkpt lat="38.14454207500922" lon="-1.136981986422139"><ele>158.4</ele><time>2026-04-07T07:54:28Z</time></trkpt><trkpt lat="38.14464600342788" lon="-1.1370164926301485"><ele>159.2</ele><time>2026-04-07T07:54:29Z</time></trkpt><trkpt lat="38.14475491430199" lon="-1.1370445444279704"><ele>160.0</ele><time>2026-04-07T07:54:30Z</time></trkpt><trkpt lat="38.14486974027957" lon="-1.1370668140290592"><ele>161.25</ele><time>2026-04-07T07:54:31Z</time></trkpt><trkpt lat="38.14498209831545" lon="-1.1370847742037478"><ele>162.5</ele><time>2026-04-07T07:54:32Z</time></trkpt><trkpt lat="38.14509877721399" lon="-1.1370769869581112"><ele>163.75</ele><time>2026-04-07T07:54:33Z</time></trkpt><trkpt lat="38.14521442645497" lon="-1.1370905448058761"><ele>165.0</ele><time>2026-04-07T07:54:34Z</time></trkpt><trkpt lat="38.145329861641954" lon="-1.1371176875425681"><ele>165.0</ele><time>2026-04-07T07:54:35Z</time></trkpt><trkpt lat="38.14544436564654" lon="-1.1371230116020494"><ele>165.0</ele><time>2026-04-07T07:54:36Z</time></trkpt><trkpt lat="38.1455548433773" lon="-1.1371287434944752"><ele>165.0</ele><time>2026-04-07T07:54:37Z</time></trkpt><trkpt lat="38.14565194926862" lon="-1.1371311664402142"><ele>165.0</ele><time>2026-04-07T07:54:38Z</time></trkpt><trkpt lat="38.1457403261432" lon="-1.1371260445139626"><ele>165.0</ele><time>2026-04-07T07:54:39Z</time></trkpt><trkpt lat="38.145838653356606" lon="-1.1370949413711635"><ele>165.4</ele><time>2026-04-07T07:54:40Z</time></trkpt><trkpt lat="38.14594490301843" lon="-1.137045415780901"><ele>165.8</ele><time>2026-04-07T07:54:41Z</time></trkpt><trkpt lat="38.146045628198785" lon="-1.1369950901872852"><ele>166.2</ele><time>2026-04-07T07:54:42Z</time></trkpt><trkpt lat="38.146130472314674" lon="-1.1369511853756835"><ele>166.6</ele><time>2026-04-07T07:54:43Z</time></trkpt><trkpt lat="38.1462081351394" lon="-1.1369095059465932"><ele>167.0</ele><time>2026-04-07T07:54:44Z</time></trkpt><trkpt lat="38.14628232999279" lon="-1.1368693738799733"><ele>167.0</ele><time>2026-04-07T07:54:45Z</time></trkpt><trkpt lat="38.14636118899347" lon="-1.1368475619177025"><ele>167.0</ele><time>2026-04-07T07:54:46Z</time></trkpt><trkpt lat="38.1464512600928" lon="-1.136826622937251"><ele>167.0</ele><time>2026-04-07T07:54:47Z</time></trkpt><trkpt lat="38.14654326331487" lon="-1.1368108030620812"><ele>167.0</ele><time>2026-04-07T07:54:48Z</time></trkpt><trkpt lat="38.14663447032935" lon="-1.136792931425966"><ele>167.0</ele><time>2026-04-07T07:54:49Z</time></trkpt><trkpt lat="38.146715254855344" lon="-1.1367908564413916"><ele>167.0</ele><time>2026-04-07T07:54:50Z</time></trkpt><trkpt lat="38.14679168696456" lon="-1.136799268429278"><ele>167.8</ele><time>2026-04-07T07:54:51Z</time></trkpt><trkpt lat="38.1468572722166" lon="-1.136831142721817"><ele>168.6</ele><time>2026-04-07T07:54:52Z</time></trkpt><trkpt lat="38.146923537166906" lon="-1.1368966661240112"><ele>169.4</ele><time>2026-04-07T07:54:53Z</time></trkpt><trkpt lat="38.14699460083019" lon="-1.1369850374777508"><ele>170.20000000000002</ele><time>2026-04-07T07:54:54Z</time></trkpt><trkpt lat="38.147073721501755" lon="-1.1370863049044744"><ele>171.0</ele><time>2026-04-07T07:54:55Z</time></trkpt><trkpt lat="38.147169675306266" lon="-1.1371705358798316"><ele>171.0</ele><time>2026-04-07T07:54:56Z</time></trkpt><trkpt lat="38.147234226580245" lon="-1.1372815545802382"><ele>171.0</ele><time>2026-04-07T07:54:57Z</time></trkpt><trkpt lat="38.147305394401734" lon="-1.1373644078657559"><ele>171.0</ele><time>2026-04-07T07:54:58Z</time></trkpt><trkpt lat="38.14736938263443" lon="-1.1374296266263055"><ele>171.0</ele><time>2026-04-07T07:54:59Z</time></trkpt><trkpt lat="38.14743310456532" lon="-1.1374858689442502"><ele>171.0</ele><time>2026-04-07T07:55:00Z</time></trkpt><trkpt lat="38.147543768604045" lon="-1.13751078849701"><ele>171.20000000000002</ele><time>2026-04-07T07:55:02Z</time></trkpt><trkpt lat="38.14764641878466" lon="-1.137439974279928"><ele>171.4</ele><time>2026-04-07T07:55:04Z</time></trkpt><trkpt lat="38.147710000279815" lon="-1.1373881665708763"><ele>171.6</ele><time>2026-04-07T07:55:05Z</time></trkpt><trkpt lat="38.14779588538251" lon="-1.1373351209923839"><ele>171.8</ele><time>2026-04-07T07:55:06Z</time></trkpt><trkpt lat="38.14788676390414" lon="-1.1372553173978732"><ele>172.0</ele><time>2026-04-07T07:55:07Z</time></trkpt><trkpt lat="38.147991881579046" lon="-1.1371960350900183"><ele>172.0</ele><time>2026-04-07T07:55:08Z</time></trkpt><trkpt lat="38.14808640714162" lon="-1.1371174943139124"><ele>172.0</ele><time>2026-04-07T07:55:09Z</time></trkpt><trkpt lat="38.14819667627356" lon="-1.1370443623814177"><ele>172.0</ele><time>2026-04-07T07:55:10Z</time></trkpt><trkpt lat="38.148312509396334" lon="-1.136966873979206"><ele>172.0</ele><time>2026-04-07T07:55:11Z</time></trkpt><trkpt lat="38.14842678726142" lon="-1.1368777756335404"><ele>172.25</ele><time>2026-04-07T07:55:12Z</time></trkpt><trkpt lat="38.14853715212606" lon="-1.1367930491254865"><ele>172.5</ele><time>2026-04-07T07:55:13Z</time></trkpt><trkpt lat="38.148648913926856" lon="-1.136711490743787"><ele>172.75</ele><time>2026-04-07T07:55:14Z</time></trkpt><trkpt lat="38.148760837646975" lon="-1.1366386021764663"><ele>173.0</ele><time>2026-04-07T07:55:15Z</time></trkpt><trkpt lat="38.14887399981311" lon="-1.136565706604799"><ele>173.0</ele><time>2026-04-07T07:55:16Z</time></trkpt><trkpt lat="38.14898934366751" lon="-1.1364942599136225"><ele>173.0</ele><time>2026-04-07T07:55:17Z</time></trkpt><trkpt lat="38.14910353518875" lon="-1.136427043594974"><ele>173.0</ele><time>2026-04-07T07:55:18Z</time></trkpt><trkpt lat="38.149216905438" lon="-1.1363629850170507"><ele>173.0</ele><time>2026-04-07T07:55:19Z</time></trkpt><trkpt lat="38.149323468261045" lon="-1.136299106449035"><ele>173.0</ele><time>2026-04-07T07:55:20Z</time></trkpt><trkpt lat="38.149438658249295" lon="-1.1362359786336853"><ele>173.0</ele><time>2026-04-07T07:55:21Z</time></trkpt><trkpt lat="38.149547493937966" lon="-1.1361793290727265"><ele>173.0</ele><time>2026-04-07T07:55:22Z</time></trkpt><trkpt lat="38.149643003107116" lon="-1.136118647625492"><ele>173.0</ele><time>2026-04-07T07:55:23Z</time></trkpt><trkpt lat="38.149735144734414" lon="-1.136053935627708"><ele>173.0</ele><time>2026-04-07T07:55:24Z</time></trkpt><trkpt lat="38.14982527824045" lon="-1.135983799027315"><ele>173.0</ele><time>2026-04-07T07:55:25Z</time></trkpt><trkpt lat="38.149912256457974" lon="-1.135920127228493"><ele>173.0</ele><time>2026-04-07T07:55:26Z</time></trkpt><trkpt lat="38.149997127551735" lon="-1.1358567794682164"><ele>173.0</ele><time>2026-04-07T07:55:27Z</time></trkpt><trkpt lat="38.15008428706552" lon="-1.1357960603888224"><ele>173.0</ele><time>2026-04-07T07:55:28Z</time></trkpt><trkpt lat="38.15017712662561" lon="-1.1357440910096983"><ele>172.60000000000002</ele><time>2026-04-07T07:55:29Z</time></trkpt><trkpt lat="38.150272322259916" lon="-1.135705460585751"><ele>172.20000000000002</ele><time>2026-04-07T07:55:30Z</time></trkpt><trkpt lat="38.15035968202233" lon="-1.1356782249213264"><ele>171.8</ele><time>2026-04-07T07:55:31Z</time></trkpt><trkpt lat="38.15044908035719" lon="-1.13564732453774"><ele>171.4</ele><time>2026-04-07T07:55:32Z</time></trkpt><trkpt lat="38.150530259919606" lon="-1.1356157792908532"><ele>171.0</ele><time>2026-04-07T07:55:33Z</time></trkpt><trkpt lat="38.1506200673536" lon="-1.1355834268074756"><ele>171.20000000000002</ele><time>2026-04-07T07:55:34Z</time></trkpt><trkpt lat="38.15071446771355" lon="-1.1355363856752085"><ele>171.4</ele><time>2026-04-07T07:55:35Z</time></trkpt><trkpt lat="38.150806294408724" lon="-1.135458785144578"><ele>171.6</ele><time>2026-04-07T07:55:36Z</time></trkpt><trkpt lat="38.150893903731834" lon="-1.135374957567926"><ele>171.8</ele><time>2026-04-07T07:55:37Z</time></trkpt><trkpt lat="38.15098797891233" lon="-1.1352896558815047"><ele>172.0</ele><time>2026-04-07T07:55:38Z</time></trkpt><trkpt lat="38.15108017905826" lon="-1.1351995058439726"><ele>172.0</ele><time>2026-04-07T07:55:39Z</time></trkpt><trkpt lat="38.151172284234946" lon="-1.1351014298984692"><ele>172.0</ele><time>2026-04-07T07:55:40Z</time></trkpt><trkpt lat="38.15126832757481" lon="-1.1350019808600933"><ele>172.0</ele><time>2026-04-07T07:55:41Z</time></trkpt><trkpt lat="38.15136209571904" lon="-1.1349028007861557"><ele>172.0</ele><time>2026-04-07T07:55:42Z</time></trkpt><trkpt lat="38.15147168948476" lon="-1.134830535257008"><ele>172.75</ele><time>2026-04-07T07:55:43Z</time></trkpt><trkpt lat="38.15158411142879" lon="-1.134758294751473"><ele>173.5</ele><time>2026-04-07T07:55:44Z</time></trkpt><trkpt lat="38.151697595354186" lon="-1.1346888767182037"><ele>174.25</ele><time>2026-04-07T07:55:45Z</time></trkpt><trkpt lat="38.15180450944142" lon="-1.1346219784269087"><ele>175.0</ele><time>2026-04-07T07:55:46Z</time></trkpt><trkpt lat="38.151911065756046" lon="-1.1345572620911404"><ele>175.0</ele><time>2026-04-07T07:55:47Z</time></trkpt><trkpt lat="38.15200749999457" lon="-1.1344988419042996"><ele>175.0</ele><time>2026-04-07T07:55:48Z</time></trkpt><trkpt lat="38.15209159226341" lon="-1.1344396978620848"><ele>175.0</ele><time>2026-04-07T07:55:49Z</time></trkpt><trkpt lat="38.15215731365772" lon="-1.1343873758678527"><ele>175.0</ele><time>2026-04-07T07:55:50Z</time></trkpt><trkpt lat="38.15222489909441" lon="-1.1343412812338172"><ele>175.0</ele><time>2026-04-07T07:55:51Z</time></trkpt><trkpt lat="38.15231144973895" lon="-1.134291271530817"><ele>175.8</ele><time>2026-04-07T07:55:52Z</time></trkpt><trkpt lat="38.15240237924743" lon="-1.1342336324678988"><ele>176.6</ele><time>2026-04-07T07:55:53Z</time></trkpt><trkpt lat="38.15250422620802" lon="-1.1341803968123656"><ele>177.39999999999998</ele><time>2026-04-07T07:55:54Z</time></trkpt><trkpt lat="38.15261702972744" lon="-1.1341381351603959"><ele>178.2</ele><time>2026-04-07T07:55:55Z</time></trkpt><trkpt lat="38.15272988894018" lon="-1.1341069865746427"><ele>179.0</ele><time>2026-04-07T07:55:56Z</time></trkpt><trkpt lat="38.15284464179976" lon="-1.1340693721829003"><ele>179.0</ele><time>2026-04-07T07:55:57Z</time></trkpt><trkpt lat="38.15296771887224" lon="-1.134082268605258"><ele>179.0</ele><time>2026-04-07T07:55:58Z</time></trkpt><trkpt lat="38.15308340322866" lon="-1.134111808451928"><ele>179.0</ele><time>2026-04-07T07:55:59Z</time></trkpt><trkpt lat="38.153202853975976" lon="-1.1340988033468202"><ele>179.0</ele><time>2026-04-07T07:56:00Z</time></trkpt><trkpt lat="38.15332372906582" lon="-1.134065805412535"><ele>178.0</ele><time>2026-04-07T07:56:01Z</time></trkpt><trkpt lat="38.15344290576437" lon="-1.1340235760458086"><ele>177.0</ele><time>2026-04-07T07:56:02Z</time></trkpt><trkpt lat="38.153564459177" lon="-1.1339867700872142"><ele>176.0</ele><time>2026-04-07T07:56:03Z</time></trkpt><trkpt lat="38.15368727999448" lon="-1.1339623290889576"><ele>175.0</ele><time>2026-04-07T07:56:04Z</time></trkpt><trkpt lat="38.15381075507072" lon="-1.1339350951291234"><ele>175.0</ele><time>2026-04-07T07:56:05Z</time></trkpt><trkpt lat="38.15393032094521" lon="-1.1339058841135061"><ele>175.0</ele><time>2026-04-07T07:56:06Z</time></trkpt><trkpt lat="38.15404989113016" lon="-1.133873458829471"><ele>175.0</ele><time>2026-04-07T07:56:07Z</time></trkpt><trkpt lat="38.15416717651185" lon="-1.1338413441096693"><ele>175.0</ele><time>2026-04-07T07:56:08Z</time></trkpt><trkpt lat="38.15428291308401" lon="-1.1338083700095563"><ele>175.6</ele><time>2026-04-07T07:56:09Z</time></trkpt><trkpt lat="38.15439907280569" lon="-1.1337748767906461"><ele>176.2</ele><time>2026-04-07T07:56:10Z</time></trkpt><trkpt lat="38.154514293859194" lon="-1.1337388553534107"><ele>176.8</ele><time>2026-04-07T07:56:11Z</time></trkpt><trkpt lat="38.15461647312552" lon="-1.133692333851089"><ele>177.4</ele><time>2026-04-07T07:56:12Z</time></trkpt><trkpt lat="38.15469994641622" lon="-1.133638053055258"><ele>178.0</ele><time>2026-04-07T07:56:13Z</time></trkpt><trkpt lat="38.15477941122218" lon="-1.1335843692988026"><ele>178.0</ele><time>2026-04-07T07:56:14Z</time></trkpt><trkpt lat="38.15485417448327" lon="-1.1335441707663152"><ele>178.0</ele><time>2026-04-07T07:56:15Z</time></trkpt><trkpt lat="38.15492588961195" lon="-1.1335247532202706"><ele>178.0</ele><time>2026-04-07T07:56:16Z</time></trkpt><trkpt lat="38.15500007902005" lon="-1.1335495275445673"><ele>178.0</ele><time>2026-04-07T07:56:17Z</time></trkpt><trkpt lat="38.155068284893375" lon="-1.1336103362908028"><ele>178.0</ele><time>2026-04-07T07:56:18Z</time></trkpt><trkpt lat="38.15515276827329" lon="-1.1336577718005252"><ele>178.0</ele><time>2026-04-07T07:56:19Z</time></trkpt><trkpt lat="38.15523024056866" lon="-1.1337094340070235"><ele>178.60000000000002</ele><time>2026-04-07T07:56:20Z</time></trkpt><trkpt lat="38.155322854855726" lon="-1.1337053403200397"><ele>179.20000000000002</ele><time>2026-04-07T07:56:21Z</time></trkpt><trkpt lat="38.1554111041756" lon="-1.1336641571172268"><ele>179.8</ele><time>2026-04-07T07:56:22Z</time></trkpt><trkpt lat="38.155487364756425" lon="-1.1335879163404068"><ele>180.4</ele><time>2026-04-07T07:56:23Z</time></trkpt><trkpt lat="38.155554392669146" lon="-1.1334855435893194"><ele>181.0</ele><time>2026-04-07T07:56:24Z</time></trkpt><trkpt lat="38.15563095279741" lon="-1.133382852830221"><ele>180.5</ele><time>2026-04-07T07:56:25Z</time></trkpt><trkpt lat="38.155720865068474" lon="-1.1332963444592796"><ele>180.0</ele><time>2026-04-07T07:56:26Z</time></trkpt><trkpt lat="38.15582361401284" lon="-1.133207009277922"><ele>179.5</ele><time>2026-04-07T07:56:27Z</time></trkpt><trkpt lat="38.155921316705545" lon="-1.1331178725343574"><ele>179.0</ele><time>2026-04-07T07:56:28Z</time></trkpt><trkpt lat="38.156012646539615" lon="-1.133025649380172"><ele>178.5</ele><time>2026-04-07T07:56:29Z</time></trkpt><trkpt lat="38.15609379364606" lon="-1.1329253711972807"><ele>178.0</ele><time>2026-04-07T07:56:30Z</time></trkpt><trkpt lat="38.156179192680135" lon="-1.1328302136468589"><ele>177.5</ele><time>2026-04-07T07:56:31Z</time></trkpt><trkpt lat="38.15627323909228" lon="-1.132748858883187"><ele>177.0</ele><time>2026-04-07T07:56:32Z</time></trkpt><trkpt lat="38.15637353531284" lon="-1.132685666753248"><ele>177.0</ele><time>2026-04-07T07:56:33Z</time></trkpt><trkpt lat="38.15648170714958" lon="-1.1326536875230033"><ele>177.0</ele><time>2026-04-07T07:56:34Z</time></trkpt><trkpt lat="38.15659301744818" lon="-1.132647383308453"><ele>177.0</ele><time>2026-04-07T07:56:35Z</time></trkpt><trkpt lat="38.156702900310286" lon="-1.1326607131252906"><ele>177.0</ele><time>2026-04-07T07:56:36Z</time></trkpt><trkpt lat="38.15681135262714" lon="-1.1326818397583232"><ele>177.0</ele><time>2026-04-07T07:56:37Z</time></trkpt><trkpt lat="38.156915392317295" lon="-1.132693157371951"><ele>177.8</ele><time>2026-04-07T07:56:38Z</time></trkpt><trkpt lat="38.15700916302991" lon="-1.1327047717082828"><ele>178.6</ele><time>2026-04-07T07:56:39Z</time></trkpt><trkpt lat="38.15709498416019" lon="-1.132726472121388"><ele>179.4</ele><time>2026-04-07T07:56:40Z</time></trkpt><trkpt lat="38.15718639817236" lon="-1.1327601561575729"><ele>180.20000000000002</ele><time>2026-04-07T07:56:41Z</time></trkpt><trkpt lat="38.157268540706596" lon="-1.1328118259038733"><ele>181.0</ele><time>2026-04-07T07:56:42Z</time></trkpt><trkpt lat="38.15733643141936" lon="-1.1328735088918658"><ele>181.16666666666669</ele><time>2026-04-07T07:56:43Z</time></trkpt><trkpt lat="38.157397644589025" lon="-1.1329138061530535"><ele>181.33333333333334</ele><time>2026-04-07T07:56:44Z</time></trkpt><trkpt lat="38.15745308701403" lon="-1.1329892221876656"><ele>181.5</ele><time>2026-04-07T07:56:47Z</time></trkpt><trkpt lat="38.15750078146666" lon="-1.133060426457473"><ele>181.66666666666666</ele><time>2026-04-07T07:56:49Z</time></trkpt><trkpt lat="38.15755943868964" lon="-1.1331820468532945"><ele>181.83333333333331</ele><time>2026-04-07T07:56:51Z</time></trkpt><trkpt lat="38.15759056065605" lon="-1.1332619887518154"><ele>182.0</ele><time>2026-04-07T07:56:52Z</time></trkpt><trkpt lat="38.157623456050025" lon="-1.1333493480764438"><ele>182.5</ele><time>2026-04-07T07:56:53Z</time></trkpt><trkpt lat="38.1576614053599" lon="-1.1334566589353472"><ele>183.0</ele><time>2026-04-07T07:56:54Z</time></trkpt><trkpt lat="38.15769720803806" lon="-1.133563667632975"><ele>183.5</ele><time>2026-04-07T07:56:55Z</time></trkpt><trkpt lat="38.15773123102598" lon="-1.1336688987997787"><ele>184.0</ele><time>2026-04-07T07:56:56Z</time></trkpt><trkpt lat="38.1577659125391" lon="-1.1337700566998248"><ele>184.5</ele><time>2026-04-07T07:56:57Z</time></trkpt><trkpt lat="38.15779652596209" lon="-1.133852092563021"><ele>185.0</ele><time>2026-04-07T07:56:58Z</time></trkpt><trkpt lat="38.157826821498055" lon="-1.1339299658273945"><ele>184.99999999999997</ele><time>2026-04-07T07:56:59Z</time></trkpt><trkpt lat="38.15785846343545" lon="-1.134006274151152"><ele>185.0</ele><time>2026-04-07T07:57:00Z</time></trkpt><trkpt lat="38.15788951028034" lon="-1.1340831898523684"><ele>185.0</ele><time>2026-04-07T07:57:01Z</time></trkpt><trkpt lat="38.157920442282375" lon="-1.1341667229580141"><ele>185.0</ele><time>2026-04-07T07:57:02Z</time></trkpt><trkpt lat="38.15794821491269" lon="-1.1342437681155924"><ele>185.0</ele><time>2026-04-07T07:57:03Z</time></trkpt><trkpt lat="38.157970750269655" lon="-1.1343186572177824"><ele>184.99999999999997</ele><time>2026-04-07T07:57:04Z</time></trkpt><trkpt lat="38.15798377105164" lon="-1.1344271023812547"><ele>185.0</ele><time>2026-04-07T07:57:06Z</time></trkpt><trkpt lat="38.15794081299668" lon="-1.1343025958464548"><ele>185.0</ele><time>2026-04-07T07:57:21Z</time></trkpt><trkpt lat="38.1579155470282" lon="-1.1342061363162377"><ele>185.0</ele><time>2026-04-07T07:57:22Z</time></trkpt><trkpt lat="38.157865273646756" lon="-1.1340948898475307"><ele>185.0</ele><time>2026-04-07T07:57:23Z</time></trkpt><trkpt lat="38.15781478664383" lon="-1.1339905904942134"><ele>185.0</ele><time>2026-04-07T07:57:24Z</time></trkpt><trkpt lat="38.15777745445077" lon="-1.1338873315576405"><ele>185.0</ele><time>2026-04-07T07:57:25Z</time></trkpt><trkpt lat="38.1577459295378" lon="-1.1337782801367928"><ele>185.0</ele><time>2026-04-07T07:57:26Z</time></trkpt><trkpt lat="38.15771384208411" lon="-1.1336795349313913"><ele>185.0</ele><time>2026-04-07T07:57:27Z</time></trkpt><trkpt lat="38.157676944279714" lon="-1.1335791210732886"><ele>185.0</ele><time>2026-04-07T07:57:28Z</time></trkpt><trkpt lat="38.15763463832204" lon="-1.1334813689499843"><ele>185.0</ele><time>2026-04-07T07:57:29Z</time></trkpt><trkpt lat="38.15759856123025" lon="-1.1333900612753944"><ele>185.0</ele><time>2026-04-07T07:57:30Z</time></trkpt><trkpt lat="38.157561395812834" lon="-1.1333019275755667"><ele>185.0</ele><time>2026-04-07T07:57:31Z</time></trkpt><trkpt lat="38.157534278653884" lon="-1.1332195475869453"><ele>184.4</ele><time>2026-04-07T07:57:32Z</time></trkpt><trkpt lat="38.15750597788913" lon="-1.1331467934592825"><ele>183.8</ele><time>2026-04-07T07:57:33Z</time></trkpt><trkpt lat="38.157587581116644" lon="-1.132988557029998"><ele>183.2</ele><time>2026-04-07T07:57:35Z</time></trkpt><trkpt lat="38.15765041007588" lon="-1.1329253074959307"><ele>182.6</ele><time>2026-04-07T07:57:36Z</time></trkpt><trkpt lat="38.15771565179404" lon="-1.1328301942935894"><ele>182.0</ele><time>2026-04-07T07:57:37Z</time></trkpt><trkpt lat="38.157821461005724" lon="-1.1327645141901121"><ele>182.0</ele><time>2026-04-07T07:57:38Z</time></trkpt><trkpt lat="38.15791756624162" lon="-1.1326976901045447"><ele>182.0</ele><time>2026-04-07T07:57:39Z</time></trkpt><trkpt lat="38.15802577710822" lon="-1.1326296869483123"><ele>182.0</ele><time>2026-04-07T07:57:40Z</time></trkpt><trkpt lat="38.15813592795848" lon="-1.1325647186799142"><ele>182.0</ele><time>2026-04-07T07:57:41Z</time></trkpt><trkpt lat="38.15824005316272" lon="-1.1324992765899284"><ele>182.39999999999998</ele><time>2026-04-07T07:57:42Z</time></trkpt><trkpt lat="38.15833012273153" lon="-1.1324304387753814"><ele>182.79999999999998</ele><time>2026-04-07T07:57:43Z</time></trkpt><trkpt lat="38.15841697621989" lon="-1.13234326319392"><ele>183.2</ele><time>2026-04-07T07:57:44Z</time></trkpt><trkpt lat="38.15849973019168" lon="-1.13226513546624"><ele>183.6</ele><time>2026-04-07T07:57:45Z</time></trkpt><trkpt lat="38.15857961036226" lon="-1.132147540633154"><ele>184.0</ele><time>2026-04-07T07:57:46Z</time></trkpt><trkpt lat="38.158650843067996" lon="-1.1320316548270513"><ele>184.0</ele><time>2026-04-07T07:57:47Z</time></trkpt><trkpt lat="38.1587270055039" lon="-1.131907255270364"><ele>184.0</ele><time>2026-04-07T07:57:48Z</time></trkpt><trkpt lat="38.15880872418537" lon="-1.131772590251543"><ele>184.0</ele><time>2026-04-07T07:57:49Z</time></trkpt><trkpt lat="38.15889064221442" lon="-1.131638895233033"><ele>184.0</ele><time>2026-04-07T07:57:50Z</time></trkpt><trkpt lat="38.15897796415999" lon="-1.131531631874414"><ele>184.39999999999998</ele><time>2026-04-07T07:57:51Z</time></trkpt><trkpt lat="38.15906505993687" lon="-1.1314400521015444"><ele>184.8</ele><time>2026-04-07T07:57:52Z</time></trkpt><trkpt lat="38.159147292553996" lon="-1.1313507289237121"><ele>185.2</ele><time>2026-04-07T07:57:53Z</time></trkpt><trkpt lat="38.15922597993324" lon="-1.1312744006440194"><ele>185.60000000000002</ele><time>2026-04-07T07:57:54Z</time></trkpt><trkpt lat="38.15930421425539" lon="-1.1312159348945907"><ele>186.0</ele><time>2026-04-07T07:57:55Z</time></trkpt><trkpt lat="38.15939285823069" lon="-1.1311774094545046"><ele>186.0</ele><time>2026-04-07T07:57:56Z</time></trkpt><trkpt lat="38.159478066309966" lon="-1.131146943558904"><ele>186.0</ele><time>2026-04-07T07:57:57Z</time></trkpt><trkpt lat="38.15955581410245" lon="-1.13113331520079"><ele>186.0</ele><time>2026-04-07T07:57:58Z</time></trkpt><trkpt lat="38.159636003312166" lon="-1.1311263403157275"><ele>186.0</ele><time>2026-04-07T07:57:59Z</time></trkpt><trkpt lat="38.159707641162264" lon="-1.1310629900886628"><ele>186.0</ele><time>2026-04-07T07:58:00Z</time></trkpt><trkpt lat="38.15977533134719" lon="-1.1309782705259572"><ele>186.0</ele><time>2026-04-07T07:58:01Z</time></trkpt><trkpt lat="38.15983849960729" lon="-1.130885715775372"><ele>186.20000000000002</ele><time>2026-04-07T07:58:02Z</time></trkpt><trkpt lat="38.159900355808965" lon="-1.1307895881287113"><ele>186.4</ele><time>2026-04-07T07:58:03Z</time></trkpt><trkpt lat="38.15997216270553" lon="-1.1306908471069266"><ele>186.6</ele><time>2026-04-07T07:58:04Z</time></trkpt><trkpt lat="38.160054682673916" lon="-1.1306110443777575"><ele>186.8</ele><time>2026-04-07T07:58:05Z</time></trkpt><trkpt lat="38.16014778687309" lon="-1.1305380883103298"><ele>187.0</ele><time>2026-04-07T07:58:06Z</time></trkpt><trkpt lat="38.16023439422408" lon="-1.1304626735442427"><ele>186.0</ele><time>2026-04-07T07:58:07Z</time></trkpt><trkpt lat="38.16032466432382" lon="-1.1303981382477775"><ele>185.0</ele><time>2026-04-07T07:58:08Z</time></trkpt><trkpt lat="38.16042888627348" lon="-1.1303470862720688"><ele>184.0</ele><time>2026-04-07T07:58:09Z</time></trkpt><trkpt lat="38.16054165234837" lon="-1.1303537135393669"><ele>183.0</ele><time>2026-04-07T07:58:10Z</time></trkpt><trkpt lat="38.16064940701917" lon="-1.130339168775028"><ele>182.0</ele><time>2026-04-07T07:58:11Z</time></trkpt><trkpt lat="38.16075515905941" lon="-1.1303102811753536"><ele>182.0</ele><time>2026-04-07T07:58:12Z</time></trkpt><trkpt lat="38.16085846143628" lon="-1.130269308698508"><ele>182.0</ele><time>2026-04-07T07:58:13Z</time></trkpt><trkpt lat="38.16096868645008" lon="-1.1302265033063343"><ele>182.0</ele><time>2026-04-07T07:58:14Z</time></trkpt><trkpt lat="38.16107278480727" lon="-1.130161296457862"><ele>182.0</ele><time>2026-04-07T07:58:15Z</time></trkpt><trkpt lat="38.16118320429414" lon="-1.1301100193790445"><ele>182.0</ele><time>2026-04-07T07:58:16Z</time></trkpt><trkpt lat="38.16129296598179" lon="-1.13005904779883"><ele>182.0</ele><time>2026-04-07T07:58:17Z</time></trkpt><trkpt lat="38.16140172324937" lon="-1.1300104886724833"><ele>182.0</ele><time>2026-04-07T07:58:18Z</time></trkpt><trkpt lat="38.161518545841915" lon="-1.1299793701637246"><ele>182.0</ele><time>2026-04-07T07:58:19Z</time></trkpt><trkpt lat="38.16162521633659" lon="-1.1299261062890644"><ele>182.33333333333331</ele><time>2026-04-07T07:58:20Z</time></trkpt><trkpt lat="38.16171794105041" lon="-1.1298714661081863"><ele>182.66666666666666</ele><time>2026-04-07T07:58:21Z</time></trkpt><trkpt lat="38.16178748365338" lon="-1.1298261656613673"><ele>183.0</ele><time>2026-04-07T07:58:22Z</time></trkpt><trkpt lat="38.16184936544385" lon="-1.1297542380480778"><ele>183.33333333333334</ele><time>2026-04-07T07:58:24Z</time></trkpt><trkpt lat="38.16189127110458" lon="-1.129693430528971"><ele>183.66666666666669</ele><time>2026-04-07T07:58:26Z</time></trkpt><trkpt lat="38.161809198727404" lon="-1.1295870360921978"><ele>184.0</ele><time>2026-04-07T07:58:27Z</time></trkpt><trkpt lat="38.161785425514566" lon="-1.1294959608669788"><ele>184.0</ele><time>2026-04-07T07:58:28Z</time></trkpt><trkpt lat="38.161766983239374" lon="-1.129411397879017"><ele>184.0</ele><time>2026-04-07T07:58:29Z</time></trkpt><trkpt lat="38.161787328715725" lon="-1.1293118768426715"><ele>184.0</ele><time>2026-04-07T07:58:30Z</time></trkpt><trkpt lat="38.16181661724139" lon="-1.1292101014541813"><ele>184.0</ele><time>2026-04-07T07:58:31Z</time></trkpt><trkpt lat="38.16184024811494" lon="-1.129114579170011"><ele>184.0</ele><time>2026-04-07T07:58:32Z</time></trkpt><trkpt lat="38.16186449372104" lon="-1.129024560888727"><ele>184.0</ele><time>2026-04-07T07:58:33Z</time></trkpt><trkpt lat="38.161941392703646" lon="-1.128967396487176"><ele>184.0</ele><time>2026-04-07T07:58:34Z</time></trkpt><trkpt lat="38.162037862698064" lon="-1.1289697794763347"><ele>184.0</ele><time>2026-04-07T07:58:35Z</time></trkpt><trkpt lat="38.16213032400982" lon="-1.1289694247563513"><ele>184.0</ele><time>2026-04-07T07:58:36Z</time></trkpt><trkpt lat="38.16223014604121" lon="-1.1289552406014516"><ele>184.0</ele><time>2026-04-07T07:58:37Z</time></trkpt><trkpt lat="38.16232301671588" lon="-1.1289893678257525"><ele>184.0</ele><time>2026-04-07T07:58:38Z</time></trkpt><trkpt lat="38.16242502127447" lon="-1.1290147759979339"><ele>184.39999999999998</ele><time>2026-04-07T07:58:39Z</time></trkpt><trkpt lat="38.16251490141113" lon="-1.1290675541907291"><ele>184.8</ele><time>2026-04-07T07:58:40Z</time></trkpt><trkpt lat="38.16259784758279" lon="-1.1291092865819559"><ele>185.2</ele><time>2026-04-07T07:58:41Z</time></trkpt><trkpt lat="38.16269136461966" lon="-1.12913885937411"><ele>185.60000000000002</ele><time>2026-04-07T07:58:42Z</time></trkpt><trkpt lat="38.16279003993049" lon="-1.1291500581797074"><ele>186.0</ele><time>2026-04-07T07:58:43Z</time></trkpt><trkpt lat="38.16289635933264" lon="-1.129150159562842"><ele>186.0</ele><time>2026-04-07T07:58:44Z</time></trkpt><trkpt lat="38.163010710367395" lon="-1.1291459125817622"><ele>186.0</ele><time>2026-04-07T07:58:45Z</time></trkpt><trkpt lat="38.16311961834212" lon="-1.129100256063914"><ele>186.0</ele><time>2026-04-07T07:58:46Z</time></trkpt><trkpt lat="38.16324322235818" lon="-1.1290778392137872"><ele>186.0</ele><time>2026-04-07T07:58:47Z</time></trkpt><trkpt lat="38.16335083477874" lon="-1.1290160735323964"><ele>184.75</ele><time>2026-04-07T07:58:48Z</time></trkpt><trkpt lat="38.16346375959089" lon="-1.1289716784322752"><ele>183.5</ele><time>2026-04-07T07:58:49Z</time></trkpt><trkpt lat="38.16357950901886" lon="-1.1289227042204382"><ele>182.25</ele><time>2026-04-07T07:58:50Z</time></trkpt><trkpt lat="38.16370717110029" lon="-1.1288816653128577"><ele>181.0</ele><time>2026-04-07T07:58:51Z</time></trkpt><trkpt lat="38.16382963758766" lon="-1.128824715130522"><ele>181.0</ele><time>2026-04-07T07:58:52Z</time></trkpt><trkpt lat="38.1639519224627" lon="-1.128766322447479"><ele>181.0</ele><time>2026-04-07T07:58:53Z</time></trkpt><trkpt lat="38.164068228304416" lon="-1.1287059712835208"><ele>181.0</ele><time>2026-04-07T07:58:54Z</time></trkpt><trkpt lat="38.16418001115125" lon="-1.128620590543262"><ele>181.0</ele><time>2026-04-07T07:58:55Z</time></trkpt><trkpt lat="38.16430394250288" lon="-1.1285608471940376"><ele>181.25</ele><time>2026-04-07T07:58:56Z</time></trkpt><trkpt lat="38.16442702547841" lon="-1.1284739952624565"><ele>181.5</ele><time>2026-04-07T07:58:57Z</time></trkpt><trkpt lat="38.16455140768872" lon="-1.1283895916083517"><ele>181.75</ele><time>2026-04-07T07:58:58Z</time></trkpt><trkpt lat="38.164671638989994" lon="-1.128299836356237"><ele>182.0</ele><time>2026-04-07T07:58:59Z</time></trkpt><trkpt lat="38.164792975869155" lon="-1.1282056284344841"><ele>182.75</ele><time>2026-04-07T07:59:00Z</time></trkpt><trkpt lat="38.16491378741024" lon="-1.128109089831018"><ele>183.5</ele><time>2026-04-07T07:59:01Z</time></trkpt><trkpt lat="38.16502816781442" lon="-1.1280079531516465"><ele>184.25</ele><time>2026-04-07T07:59:02Z</time></trkpt><trkpt lat="38.165133442312865" lon="-1.127896493295385"><ele>185.0</ele><time>2026-04-07T07:59:03Z</time></trkpt><trkpt lat="38.165236176737444" lon="-1.1277899801796236"><ele>185.0</ele><time>2026-04-07T07:59:04Z</time></trkpt><trkpt lat="38.16534387693697" lon="-1.1276935935175552"><ele>185.0</ele><time>2026-04-07T07:59:05Z</time></trkpt><trkpt lat="38.16544419304059" lon="-1.1276085436434335"><ele>185.0</ele><time>2026-04-07T07:59:06Z</time></trkpt><trkpt lat="38.16553910649878" lon="-1.1275217071895822"><ele>185.0</ele><time>2026-04-07T07:59:07Z</time></trkpt><trkpt lat="38.16562947986946" lon="-1.1274430895361258"><ele>185.66666666666666</ele><time>2026-04-07T07:59:08Z</time></trkpt><trkpt lat="38.165707736444844" lon="-1.127373434507392"><ele>186.33333333333331</ele><time>2026-04-07T07:59:09Z</time></trkpt><trkpt lat="38.16576513891462" lon="-1.1273264227429303"><ele>187.0</ele><time>2026-04-07T07:59:10Z</time></trkpt><trkpt lat="38.16582517802572" lon="-1.1272486200581966"><ele>187.66666666666666</ele><time>2026-04-07T07:59:12Z</time></trkpt><trkpt lat="38.16587024731923" lon="-1.1271925748853275"><ele>188.33333333333334</ele><time>2026-04-07T07:59:14Z</time></trkpt><trkpt lat="38.165952710925836" lon="-1.1270900269965398"><ele>189.0</ele><time>2026-04-07T07:59:16Z</time></trkpt><trkpt lat="38.16608570103695" lon="-1.127167291754411"><ele>189.0</ele><time>2026-04-07T07:59:17Z</time></trkpt><trkpt lat="38.16617133563124" lon="-1.1271656142949413"><ele>189.0</ele><time>2026-04-07T07:59:18Z</time></trkpt><trkpt lat="38.1662660758133" lon="-1.1271480687902071"><ele>189.0</ele><time>2026-04-07T07:59:19Z</time></trkpt><trkpt lat="38.16636485176532" lon="-1.1271179314374735"><ele>189.0</ele><time>2026-04-07T07:59:20Z</time></trkpt><trkpt lat="38.16646005654692" lon="-1.1270862635621859"><ele>189.0</ele><time>2026-04-07T07:59:21Z</time></trkpt><trkpt lat="38.16656558375296" lon="-1.1270382159647159"><ele>191.5</ele><time>2026-04-07T07:59:22Z</time></trkpt><trkpt lat="38.16667265900504" lon="-1.1269792751951808"><ele>194.0</ele><time>2026-04-07T07:59:23Z</time></trkpt><trkpt lat="38.166783348504474" lon="-1.1269055297221646"><ele>196.5</ele><time>2026-04-07T07:59:24Z</time></trkpt><trkpt lat="38.16689092389566" lon="-1.126831924381851"><ele>199.0</ele><time>2026-04-07T07:59:25Z</time></trkpt><trkpt lat="38.16700400254927" lon="-1.1267508459671598"><ele>199.0</ele><time>2026-04-07T07:59:26Z</time></trkpt><trkpt lat="38.16712278681385" lon="-1.1266678897848148"><ele>199.0</ele><time>2026-04-07T07:59:27Z</time></trkpt><trkpt lat="38.167246935544085" lon="-1.1265824828291968"><ele>199.0</ele><time>2026-04-07T07:59:28Z</time></trkpt><trkpt lat="38.16737980645851" lon="-1.1264916070330515"><ele>199.0</ele><time>2026-04-07T07:59:29Z</time></trkpt><trkpt lat="38.16751708903562" lon="-1.1264042622592954"><ele>196.0</ele><time>2026-04-07T07:59:30Z</time></trkpt><trkpt lat="38.167657250483714" lon="-1.1263117804913911"><ele>193.0</ele><time>2026-04-07T07:59:31Z</time></trkpt><trkpt lat="38.167798195925464" lon="-1.126215519842203"><ele>190.0</ele><time>2026-04-07T07:59:32Z</time></trkpt><trkpt lat="38.16794189229403" lon="-1.126113547944285"><ele>190.0</ele><time>2026-04-07T07:59:33Z</time></trkpt><trkpt lat="38.16808624037652" lon="-1.1260095480864376"><ele>190.0</ele><time>2026-04-07T07:59:34Z</time></trkpt><trkpt lat="38.168232428607205" lon="-1.1259023605438088"><ele>190.0</ele><time>2026-04-07T07:59:35Z</time></trkpt><trkpt lat="38.16837659135071" lon="-1.125794113485353"><ele>187.66666666666669</ele><time>2026-04-07T07:59:36Z</time></trkpt><trkpt lat="38.16851579672038" lon="-1.12567810406057"><ele>185.33333333333334</ele><time>2026-04-07T07:59:37Z</time></trkpt><trkpt lat="38.168654424633175" lon="-1.1255605787142389"><ele>183.0</ele><time>2026-04-07T07:59:38Z</time></trkpt><trkpt lat="38.16878535756949" lon="-1.1254369856087278"><ele>183.0</ele><time>2026-04-07T07:59:39Z</time></trkpt><trkpt lat="38.16891471374164" lon="-1.125302632098381"><ele>183.0</ele><time>2026-04-07T07:59:40Z</time></trkpt><trkpt lat="38.169043795871524" lon="-1.1251618679760695"><ele>183.0</ele><time>2026-04-07T07:59:41Z</time></trkpt><trkpt lat="38.169176436022695" lon="-1.125026666277077"><ele>181.66666666666666</ele><time>2026-04-07T07:59:42Z</time></trkpt><trkpt lat="38.169307723094185" lon="-1.1248884599693763"><ele>180.33333333333331</ele><time>2026-04-07T07:59:43Z</time></trkpt><trkpt lat="38.169441239185666" lon="-1.1247502370719835"><ele>179.0</ele><time>2026-04-07T07:59:44Z</time></trkpt><trkpt lat="38.16957454212823" lon="-1.1246096101239695"><ele>179.0</ele><time>2026-04-07T07:59:45Z</time></trkpt><trkpt lat="38.169705390185214" lon="-1.1244678767352128"><ele>179.0</ele><time>2026-04-07T07:59:46Z</time></trkpt><trkpt lat="38.16983811732524" lon="-1.1243307052712865"><ele>179.0</ele><time>2026-04-07T07:59:47Z</time></trkpt><trkpt lat="38.16997479307078" lon="-1.1241995292773361"><ele>178.0</ele><time>2026-04-07T07:59:48Z</time></trkpt><trkpt lat="38.17011233819527" lon="-1.1240831228667822"><ele>177.0</ele><time>2026-04-07T07:59:49Z</time></trkpt><trkpt lat="38.170252130825915" lon="-1.123978276386785"><ele>176.0</ele><time>2026-04-07T07:59:50Z</time></trkpt><trkpt lat="38.170397162328634" lon="-1.1239010488477947"><ele>175.66666666666666</ele><time>2026-04-07T07:59:51Z</time></trkpt><trkpt lat="38.17054190789857" lon="-1.1238398525897075"><ele>175.33333333333334</ele><time>2026-04-07T07:59:52Z</time></trkpt><trkpt lat="38.17068899935513" lon="-1.1237965850945766"><ele>175.0</ele><time>2026-04-07T07:59:53Z</time></trkpt><trkpt lat="38.170839230297844" lon="-1.1237658309949612"><ele>175.0</ele><time>2026-04-07T07:59:54Z</time></trkpt><trkpt lat="38.170988380003905" lon="-1.1237460572949953"><ele>175.0</ele><time>2026-04-07T07:59:55Z</time></trkpt><trkpt lat="38.171140188501845" lon="-1.1237432950591824"><ele>175.0</ele><time>2026-04-07T07:59:56Z</time></trkpt><trkpt lat="38.17129314678228" lon="-1.1237515581074535"><ele>175.0</ele><time>2026-04-07T07:59:57Z</time></trkpt><trkpt lat="38.17144723397743" lon="-1.1237571697480158"><ele>175.0</ele><time>2026-04-07T07:59:58Z</time></trkpt><trkpt lat="38.171603278506865" lon="-1.1237601722373074"><ele>175.0</ele><time>2026-04-07T07:59:59Z</time></trkpt><trkpt lat="38.171760227491916" lon="-1.123763760141415"><ele>174.66666666666669</ele><time>2026-04-07T08:00:00Z</time></trkpt><trkpt lat="38.17191963185879" lon="-1.1237694196501038"><ele>174.33333333333334</ele><time>2026-04-07T08:00:01Z</time></trkpt><trkpt lat="38.1720756874751" lon="-1.1237749489357023"><ele>174.0</ele><time>2026-04-07T08:00:02Z</time></trkpt><trkpt lat="38.17223447112232" lon="-1.123778325979018"><ele>175.0</ele><time>2026-04-07T08:00:03Z</time></trkpt><trkpt lat="38.1723920189328" lon="-1.1237829857919548"><ele>176.0</ele><time>2026-04-07T08:00:04Z</time></trkpt><trkpt lat="38.17254862793698" lon="-1.1237911350248218"><ele>177.0</ele><time>2026-04-07T08:00:05Z</time></trkpt><trkpt lat="38.17270606282594" lon="-1.1237950638915586"><ele>177.0</ele><time>2026-04-07T08:00:06Z</time></trkpt><trkpt lat="38.172862145133536" lon="-1.1237970334533915"><ele>177.0</ele><time>2026-04-07T08:00:07Z</time></trkpt><trkpt lat="38.17301550643804" lon="-1.1237974618423567"><ele>177.0</ele><time>2026-04-07T08:00:08Z</time></trkpt><trkpt lat="38.173167117639466" lon="-1.1238008658322818"><ele>178.0</ele><time>2026-04-07T08:00:09Z</time></trkpt><trkpt lat="38.17332132499403" lon="-1.1238077551276757"><ele>179.0</ele><time>2026-04-07T08:00:10Z</time></trkpt><trkpt lat="38.173476742695684" lon="-1.1238132242468295"><ele>180.0</ele><time>2026-04-07T08:00:11Z</time></trkpt><trkpt lat="38.173633761759845" lon="-1.1238200235350018"><ele>180.0</ele><time>2026-04-07T08:00:12Z</time></trkpt><trkpt lat="38.17378989398162" lon="-1.123822694821234"><ele>180.0</ele><time>2026-04-07T08:00:13Z</time></trkpt><trkpt lat="38.173945490905744" lon="-1.123824128375697"><ele>180.0</ele><time>2026-04-07T08:00:14Z</time></trkpt><trkpt lat="38.17410100120197" lon="-1.1238281347788424"><ele>180.33333333333334</ele><time>2026-04-07T08:00:15Z</time></trkpt><trkpt lat="38.174254852555805" lon="-1.1238361163251194"><ele>180.66666666666669</ele><time>2026-04-07T08:00:16Z</time></trkpt><trkpt lat="38.174407869083524" lon="-1.1238400004087592"><ele>181.0</ele><time>2026-04-07T08:00:17Z</time></trkpt><trkpt lat="38.17456018080953" lon="-1.1238433153998781"><ele>181.0</ele><time>2026-04-07T08:00:18Z</time></trkpt><trkpt lat="38.174711573231235" lon="-1.1238473625127823"><ele>181.0</ele><time>2026-04-07T08:00:19Z</time></trkpt><trkpt lat="38.17486214020564" lon="-1.1238524778725203"><ele>181.0</ele><time>2026-04-07T08:00:20Z</time></trkpt><trkpt lat="38.175011479470484" lon="-1.123855659666613"><ele>181.33333333333334</ele><time>2026-04-07T08:00:21Z</time></trkpt><trkpt lat="38.17516350195517" lon="-1.1238569992913974"><ele>181.66666666666666</ele><time>2026-04-07T08:00:22Z</time></trkpt><trkpt lat="38.1753156547894" lon="-1.1238605934377033"><ele>182.0</ele><time>2026-04-07T08:00:23Z</time></trkpt><trkpt lat="38.17546418208674" lon="-1.1238660483707918"><ele>182.0</ele><time>2026-04-07T08:00:24Z</time></trkpt><trkpt lat="38.175610601382346" lon="-1.123869138595494"><ele>182.0</ele><time>2026-04-07T08:00:25Z</time></trkpt><trkpt lat="38.17575426535064" lon="-1.1238743266129763"><ele>182.0</ele><time>2026-04-07T08:00:26Z</time></trkpt><trkpt lat="38.17589977473791" lon="-1.1238744310614486"><ele>182.0</ele><time>2026-04-07T08:00:27Z</time></trkpt><trkpt lat="38.17604632769784" lon="-1.1238811451100619"><ele>183.0</ele><time>2026-04-07T08:00:28Z</time></trkpt><trkpt lat="38.17619158919446" lon="-1.1238836346087038"><ele>184.0</ele><time>2026-04-07T08:00:29Z</time></trkpt><trkpt lat="38.17634243074945" lon="-1.1238885892713875"><ele>185.0</ele><time>2026-04-07T08:00:30Z</time></trkpt><trkpt lat="38.17649245430968" lon="-1.123888466271929"><ele>186.0</ele><time>2026-04-07T08:00:31Z</time></trkpt><trkpt lat="38.17664047649471" lon="-1.123896177290094"><ele>186.75</ele><time>2026-04-07T08:00:32Z</time></trkpt><trkpt lat="38.17678989183447" lon="-1.1239024380633307"><ele>187.5</ele><time>2026-04-07T08:00:33Z</time></trkpt><trkpt lat="38.17693549630651" lon="-1.1239079425488814"><ele>188.25</ele><time>2026-04-07T08:00:34Z</time></trkpt><trkpt lat="38.17707912556175" lon="-1.1239095021565553"><ele>189.0</ele><time>2026-04-07T08:00:35Z</time></trkpt><trkpt lat="38.177219234960155" lon="-1.123913382085994"><ele>189.25</ele><time>2026-04-07T08:00:36Z</time></trkpt><trkpt lat="38.17735544460682" lon="-1.12392934862168"><ele>189.5</ele><time>2026-04-07T08:00:37Z</time></trkpt><trkpt lat="38.177489782379155" lon="-1.1239370556695203"><ele>189.75</ele><time>2026-04-07T08:00:38Z</time></trkpt><trkpt lat="38.17761501014347" lon="-1.1239826895450045"><ele>190.0</ele><time>2026-04-07T08:00:39Z</time></trkpt><trkpt lat="38.17773522407865" lon="-1.1240498777207946"><ele>190.75</ele><time>2026-04-07T08:00:40Z</time></trkpt><trkpt lat="38.177840248448" lon="-1.1241513232767977"><ele>191.5</ele><time>2026-04-07T08:00:41Z</time></trkpt><trkpt lat="38.17792948672696" lon="-1.1242743440232879"><ele>192.25</ele><time>2026-04-07T08:00:42Z</time></trkpt><trkpt lat="38.1780332432022" lon="-1.1243829806187957"><ele>193.0</ele><time>2026-04-07T08:00:43Z</time></trkpt><trkpt lat="38.178091537435655" lon="-1.1245232996192862"><ele>193.0</ele><time>2026-04-07T08:00:44Z</time></trkpt><trkpt lat="38.178158837313916" lon="-1.124639517733781"><ele>193.0</ele><time>2026-04-07T08:00:45Z</time></trkpt><trkpt lat="38.17822088716815" lon="-1.1247463867220415"><ele>193.0</ele><time>2026-04-07T08:00:46Z</time></trkpt><trkpt lat="38.178293205889084" lon="-1.1248390343188615"><ele>193.0</ele><time>2026-04-07T08:00:47Z</time></trkpt><trkpt lat="38.178349341118" lon="-1.1249332618632157"><ele>193.0</ele><time>2026-04-07T08:00:48Z</time></trkpt><trkpt lat="38.17840259435064" lon="-1.125022752869288"><ele>193.83333333333331</ele><time>2026-04-07T08:00:49Z</time></trkpt><trkpt lat="38.17845078757638" lon="-1.1251037406095248"><ele>194.66666666666666</ele><time>2026-04-07T08:00:50Z</time></trkpt><trkpt lat="38.17849745708664" lon="-1.1251821775309423"><ele>195.5</ele><time>2026-04-07T08:00:51Z</time></trkpt><trkpt lat="38.17854023946381" lon="-1.1252541019244786"><ele>196.33333333333331</ele><time>2026-04-07T08:00:52Z</time></trkpt><trkpt lat="38.17858145871641" lon="-1.1253233984558633"><ele>197.16666666666666</ele><time>2026-04-07T08:00:53Z</time></trkpt><trkpt lat="38.17862628602968" lon="-1.1253987607240523"><ele>198.0</ele><time>2026-04-07T08:00:54Z</time></trkpt><trkpt lat="38.17867510510632" lon="-1.1254813714075351"><ele>198.0</ele><time>2026-04-07T08:00:55Z</time></trkpt><trkpt lat="38.178721711536255" lon="-1.1255604043719212"><ele>198.0</ele><time>2026-04-07T08:00:56Z</time></trkpt><trkpt lat="38.178753190675366" lon="-1.1256472268004352"><ele>198.0</ele><time>2026-04-07T08:00:57Z</time></trkpt><trkpt lat="38.178829904332254" lon="-1.1257603657498394"><ele>198.0</ele><time>2026-04-07T08:00:59Z</time></trkpt><trkpt lat="38.17889942720084" lon="-1.1258735428584363"><ele>198.0</ele><time>2026-04-07T08:01:01Z</time></trkpt><trkpt lat="38.17896621988002" lon="-1.1259812786015915"><ele>198.4</ele><time>2026-04-07T08:01:03Z</time></trkpt><trkpt lat="38.17904393938026" lon="-1.1261142802739934"><ele>198.8</ele><time>2026-04-07T08:01:05Z</time></trkpt><trkpt lat="38.17908055420789" lon="-1.1261795731242432"><ele>199.2</ele><time>2026-04-07T08:01:06Z</time></trkpt><trkpt lat="38.17916301121957" lon="-1.126298313411468"><ele>199.6</ele><time>2026-04-07T08:01:08Z</time></trkpt><trkpt lat="38.17919773076528" lon="-1.1263666468576545"><ele>200.0</ele><time>2026-04-07T08:01:09Z</time></trkpt><trkpt lat="38.179267391405475" lon="-1.1264786902731176"><ele>200.00000000000003</ele><time>2026-04-07T08:01:11Z</time></trkpt><trkpt lat="38.17930536002854" lon="-1.1265497308790748"><ele>200.0</ele><time>2026-04-07T08:01:12Z</time></trkpt><trkpt lat="38.179346693875544" lon="-1.1266230785681968"><ele>200.0</ele><time>2026-04-07T08:01:13Z</time></trkpt><trkpt lat="38.179392861397695" lon="-1.1267003612580109"><ele>200.0</ele><time>2026-04-07T08:01:14Z</time></trkpt><trkpt lat="38.17944015995384" lon="-1.126779078144441"><ele>200.00000000000003</ele><time>2026-04-07T08:01:15Z</time></trkpt><trkpt lat="38.17948636813138" lon="-1.1268604686655876"><ele>200.0</ele><time>2026-04-07T08:01:16Z</time></trkpt><trkpt lat="38.17953111230752" lon="-1.126943691906249"><ele>199.83333333333334</ele><time>2026-04-07T08:01:17Z</time></trkpt><trkpt lat="38.17957952751578" lon="-1.1270266640940847"><ele>199.66666666666669</ele><time>2026-04-07T08:01:18Z</time></trkpt><trkpt lat="38.17962908841157" lon="-1.127108697131738"><ele>199.5</ele><time>2026-04-07T08:01:19Z</time></trkpt><trkpt lat="38.17967602805717" lon="-1.127190207040074"><ele>199.33333333333331</ele><time>2026-04-07T08:01:20Z</time></trkpt><trkpt lat="38.17972455985251" lon="-1.1272699961908013"><ele>199.16666666666666</ele><time>2026-04-07T08:01:21Z</time></trkpt><trkpt lat="38.179769397068185" lon="-1.1273506837702956"><ele>199.0</ele><time>2026-04-07T08:01:22Z</time></trkpt><trkpt lat="38.1798155789269" lon="-1.1274288596995616"><ele>199.33333333333331</ele><time>2026-04-07T08:01:23Z</time></trkpt><trkpt lat="38.1798616317712" lon="-1.1275058874337103"><ele>199.66666666666666</ele><time>2026-04-07T08:01:24Z</time></trkpt><trkpt lat="38.17990835633835" lon="-1.1275838679275185"><ele>200.0</ele><time>2026-04-07T08:01:25Z</time></trkpt><trkpt lat="38.17995592072154" lon="-1.1276652005263403"><ele>200.33333333333331</ele><time>2026-04-07T08:01:26Z</time></trkpt><trkpt lat="38.18000552941504" lon="-1.1277468391373457"><ele>200.66666666666666</ele><time>2026-04-07T08:01:27Z</time></trkpt><trkpt lat="38.18005535055854" lon="-1.1278209104284942"><ele>201.0</ele><time>2026-04-07T08:01:28Z</time></trkpt><trkpt lat="38.18010659730527" lon="-1.1278945788246995"><ele>201.0</ele><time>2026-04-07T08:01:29Z</time></trkpt><trkpt lat="38.18016701568077" lon="-1.127970077278876"><ele>201.0</ele><time>2026-04-07T08:01:30Z</time></trkpt><trkpt lat="38.180242052583054" lon="-1.1280441550883675"><ele>201.0</ele><time>2026-04-07T08:01:31Z</time></trkpt><trkpt lat="38.18031570787061" lon="-1.1280966974163429"><ele>201.0</ele><time>2026-04-07T08:01:32Z</time></trkpt><trkpt lat="38.18039245796056" lon="-1.1281376821172175"><ele>201.0</ele><time>2026-04-07T08:01:33Z</time></trkpt><trkpt lat="38.1804649111662" lon="-1.128158128330632"><ele>201.0</ele><time>2026-04-07T08:01:34Z</time></trkpt><trkpt lat="38.18053609015101" lon="-1.1281760220004253"><ele>201.0</ele><time>2026-04-07T08:01:35Z</time></trkpt><trkpt lat="38.1806039755932" lon="-1.1281836748176015"><ele>201.0</ele><time>2026-04-07T08:01:36Z</time></trkpt><trkpt lat="38.180719267030184" lon="-1.1281945343541497"><ele>201.0</ele><time>2026-04-07T08:01:38Z</time></trkpt><trkpt lat="38.18082155515014" lon="-1.1281880479351494"><ele>201.0</ele><time>2026-04-07T08:01:40Z</time></trkpt><trkpt lat="38.18091430458709" lon="-1.1281643642605883"><ele>201.0</ele><time>2026-04-07T08:01:42Z</time></trkpt><trkpt lat="38.18099732769891" lon="-1.128140301565507"><ele>201.4</ele><time>2026-04-07T08:01:44Z</time></trkpt><trkpt lat="38.18107477618785" lon="-1.1281175455041221"><ele>201.8</ele><time>2026-04-07T08:01:46Z</time></trkpt><trkpt lat="38.18113699210594" lon="-1.128088910633221"><ele>202.20000000000002</ele><time>2026-04-07T08:01:48Z</time></trkpt><trkpt lat="38.18122880752903" lon="-1.1280418990118375"><ele>202.60000000000002</ele><time>2026-04-07T08:01:50Z</time></trkpt><trkpt lat="38.18132744999905" lon="-1.1280039316618353"><ele>203.0</ele><time>2026-04-07T08:01:52Z</time></trkpt><trkpt lat="38.181452555475694" lon="-1.127952133392166"><ele>203.0</ele><time>2026-04-07T08:01:54Z</time></trkpt><trkpt lat="38.181512147602554" lon="-1.1279199507324837"><ele>203.0</ele><time>2026-04-07T08:01:55Z</time></trkpt><trkpt lat="38.18157264899948" lon="-1.1278960290801716"><ele>203.0</ele><time>2026-04-07T08:01:56Z</time></trkpt><trkpt lat="38.1816786652557" lon="-1.1278440340513982"><ele>203.0</ele><time>2026-04-07T08:01:58Z</time></trkpt><trkpt lat="38.1817918098769" lon="-1.1277975188629903"><ele>203.0</ele><time>2026-04-07T08:02:00Z</time></trkpt><trkpt lat="38.18192916651876" lon="-1.1278684807269521"><ele>203.50000000000003</ele><time>2026-04-07T08:02:02Z</time></trkpt><trkpt lat="38.181998452467084" lon="-1.127927804529492"><ele>204.0</ele><time>2026-04-07T08:02:03Z</time></trkpt><trkpt lat="38.18206863644293" lon="-1.127985382642386"><ele>204.5</ele><time>2026-04-07T08:02:04Z</time></trkpt><trkpt lat="38.182143503454895" lon="-1.128041223961422"><ele>205.0</ele><time>2026-04-07T08:02:05Z</time></trkpt><trkpt lat="38.18221788380803" lon="-1.1281018199338546"><ele>205.50000000000003</ele><time>2026-04-07T08:02:06Z</time></trkpt><trkpt lat="38.18229205155017" lon="-1.1281594826647876"><ele>206.0</ele><time>2026-04-07T08:02:07Z</time></trkpt><trkpt lat="38.1823644070501" lon="-1.1282193046893292"><ele>206.16666666666669</ele><time>2026-04-07T08:02:08Z</time></trkpt><trkpt lat="38.18244215840299" lon="-1.128284429365509"><ele>206.33333333333334</ele><time>2026-04-07T08:02:09Z</time></trkpt><trkpt lat="38.182515235241155" lon="-1.1283465984535261"><ele>206.5</ele><time>2026-04-07T08:02:10Z</time></trkpt><trkpt lat="38.182589184129256" lon="-1.1284057740493318"><ele>206.66666666666669</ele><time>2026-04-07T08:02:11Z</time></trkpt><trkpt lat="38.18266006518855" lon="-1.1284617143636606"><ele>206.83333333333334</ele><time>2026-04-07T08:02:12Z</time></trkpt><trkpt lat="38.18272713157202" lon="-1.1285227160743612"><ele>207.0</ele><time>2026-04-07T08:02:13Z</time></trkpt><trkpt lat="38.182795826592375" lon="-1.1285783467460404"><ele>207.0</ele><time>2026-04-07T08:02:14Z</time></trkpt><trkpt lat="38.1828578171434" lon="-1.1286300244173082"><ele>207.0</ele><time>2026-04-07T08:02:15Z</time></trkpt><trkpt lat="38.18290344868117" lon="-1.128690375434119"><ele>207.0</ele><time>2026-04-07T08:02:16Z</time></trkpt><trkpt lat="38.18303737221614" lon="-1.1287100142006201"><ele>207.0</ele><time>2026-04-07T08:02:18Z</time></trkpt><trkpt lat="38.18314040458681" lon="-1.1287232388679986"><ele>207.0</ele><time>2026-04-07T08:02:20Z</time></trkpt><trkpt lat="38.18320351663227" lon="-1.1287247881941602"><ele>207.0</ele><time>2026-04-07T08:02:24Z</time></trkpt><trkpt lat="38.183300135811855" lon="-1.1287260330103228"><ele>207.25</ele><time>2026-04-07T08:02:28Z</time></trkpt><trkpt lat="38.183416167941985" lon="-1.1286935109823582"><ele>207.5</ele><time>2026-04-07T08:02:30Z</time></trkpt><trkpt lat="38.18350455637562" lon="-1.1289312214063614"><ele>207.75</ele><time>2026-04-07T08:02:31Z</time></trkpt><trkpt lat="38.18356648943573" lon="-1.12905672900022"><ele>208.0</ele><time>2026-04-07T08:02:32Z</time></trkpt><trkpt lat="38.18363487442085" lon="-1.1292053523124213"><ele>208.25</ele><time>2026-04-07T08:02:33Z</time></trkpt><trkpt lat="38.183709902189044" lon="-1.1293506660347932"><ele>208.5</ele><time>2026-04-07T08:02:34Z</time></trkpt><trkpt lat="38.18380436217643" lon="-1.129482442603613"><ele>208.75</ele><time>2026-04-07T08:02:35Z</time></trkpt><trkpt lat="38.18387876526133" lon="-1.1296271424965856"><ele>209.0</ele><time>2026-04-07T08:02:36Z</time></trkpt><trkpt lat="38.18394124131297" lon="-1.1297868509126103"><ele>210.0</ele><time>2026-04-07T08:02:37Z</time></trkpt><trkpt lat="38.184015699144986" lon="-1.1299290101403079"><ele>211.0</ele><time>2026-04-07T08:02:38Z</time></trkpt><trkpt lat="38.184088084116574" lon="-1.130075471504599"><ele>212.0</ele><time>2026-04-07T08:02:39Z</time></trkpt><trkpt lat="38.184159448482426" lon="-1.1302177251132601"><ele>213.0</ele><time>2026-04-07T08:02:40Z</time></trkpt><trkpt lat="38.18423054580591" lon="-1.1303574248572144"><ele>213.0</ele><time>2026-04-07T08:02:41Z</time></trkpt><trkpt lat="38.18430235752644" lon="-1.1304953456895885"><ele>213.0</ele><time>2026-04-07T08:02:42Z</time></trkpt><trkpt lat="38.184372228890595" lon="-1.1306347502654637"><ele>213.0</ele><time>2026-04-07T08:02:43Z</time></trkpt><trkpt lat="38.18444653494043" lon="-1.1307700158730134"><ele>213.0</ele><time>2026-04-07T08:02:44Z</time></trkpt><trkpt lat="38.184521235264874" lon="-1.130908022569244"><ele>211.75</ele><time>2026-04-07T08:02:45Z</time></trkpt><trkpt lat="38.18459369337848" lon="-1.1310459517667497"><ele>210.5</ele><time>2026-04-07T08:02:46Z</time></trkpt><trkpt lat="38.184660361743276" lon="-1.1311812384042905"><ele>209.25</ele><time>2026-04-07T08:02:47Z</time></trkpt><trkpt lat="38.18473310846849" lon="-1.1313164133038964"><ele>208.0</ele><time>2026-04-07T08:02:48Z</time></trkpt><trkpt lat="38.18481444402418" lon="-1.1314488823099123"><ele>208.4</ele><time>2026-04-07T08:02:49Z</time></trkpt><trkpt lat="38.1848892050016" lon="-1.1315730691691215"><ele>208.8</ele><time>2026-04-07T08:02:50Z</time></trkpt><trkpt lat="38.18495937746886" lon="-1.1316963658910324"><ele>209.2</ele><time>2026-04-07T08:02:51Z</time></trkpt><trkpt lat="38.18502569833919" lon="-1.1317967709267602"><ele>209.6</ele><time>2026-04-07T08:02:52Z</time></trkpt><trkpt lat="38.185090949413" lon="-1.1318974968564184"><ele>210.0</ele><time>2026-04-07T08:02:53Z</time></trkpt><trkpt lat="38.18515414525471" lon="-1.1319835258217903"><ele>210.0</ele><time>2026-04-07T08:02:54Z</time></trkpt><trkpt lat="38.18522915072655" lon="-1.132066819972824"><ele>210.0</ele><time>2026-04-07T08:02:56Z</time></trkpt><trkpt lat="38.18532651441591" lon="-1.1318842287067277"><ele>210.0</ele><time>2026-04-07T08:02:59Z</time></trkpt><trkpt lat="38.18538002999151" lon="-1.1317996303804194"><ele>210.0</ele><time>2026-04-07T08:03:00Z</time></trkpt><trkpt lat="38.18543504017612" lon="-1.1317006330644834"><ele>210.0</ele><time>2026-04-07T08:03:01Z</time></trkpt><trkpt lat="38.18547795401757" lon="-1.131600014344765"><ele>210.0</ele><time>2026-04-07T08:03:02Z</time></trkpt><trkpt lat="38.18552306854469" lon="-1.1315000447209254"><ele>210.0</ele><time>2026-04-07T08:03:03Z</time></trkpt><trkpt lat="38.18556087618192" lon="-1.1314164151646615"><ele>210.0</ele><time>2026-04-07T08:03:04Z</time></trkpt><trkpt lat="38.18560900726418" lon="-1.1313071109873558"><ele>210.0</ele><time>2026-04-07T08:03:06Z</time></trkpt><trkpt lat="38.18567066430717" lon="-1.1312773722967375"><ele>210.0</ele><time>2026-04-07T08:03:47Z</time></trkpt><trkpt lat="38.18567834734028" lon="-1.1311945436777446"><ele>210.2</ele><time>2026-04-07T08:05:01Z</time></trkpt><trkpt lat="38.185744557537994" lon="-1.1310997388033361"><ele>210.4</ele><time>2026-04-07T08:05:03Z</time></trkpt><trkpt lat="38.18583643586467" lon="-1.13113500257465"><ele>210.60000000000002</ele><time>2026-04-07T08:05:05Z</time></trkpt><trkpt lat="38.18591732363289" lon="-1.1311770083815063"><ele>210.8</ele><time>2026-04-07T08:05:06Z</time></trkpt><trkpt lat="38.186000935856875" lon="-1.1312472948296348"><ele>211.0</ele><time>2026-04-07T08:05:07Z</time></trkpt><trkpt lat="38.186088861948576" lon="-1.131321150563688"><ele>211.0</ele><time>2026-04-07T08:05:08Z</time></trkpt><trkpt lat="38.186173579222285" lon="-1.1314163440545628"><ele>211.0</ele><time>2026-04-07T08:05:09Z</time></trkpt><trkpt lat="38.18626344351618" lon="-1.131496349469422"><ele>211.0</ele><time>2026-04-07T08:05:10Z</time></trkpt><trkpt lat="38.18636939522434" lon="-1.13156301777027"><ele>211.0</ele><time>2026-04-07T08:05:11Z</time></trkpt><trkpt lat="38.186475608849136" lon="-1.1316538171498989"><ele>210.75</ele><time>2026-04-07T08:05:12Z</time></trkpt><trkpt lat="38.18658629817293" lon="-1.1317493274153168"><ele>210.5</ele><time>2026-04-07T08:05:13Z</time></trkpt><trkpt lat="38.18669221140555" lon="-1.1318474737979645"><ele>210.25</ele><time>2026-04-07T08:05:14Z</time></trkpt><trkpt lat="38.18679615598577" lon="-1.1319592859814738"><ele>210.0</ele><time>2026-04-07T08:05:15Z</time></trkpt><trkpt lat="38.18689450425693" lon="-1.1320653757146115"><ele>210.0</ele><time>2026-04-07T08:05:16Z</time></trkpt><trkpt lat="38.18699596425873" lon="-1.1321599833859801"><ele>210.0</ele><time>2026-04-07T08:05:17Z</time></trkpt><trkpt lat="38.18710187623913" lon="-1.1322481166966083"><ele>210.0</ele><time>2026-04-07T08:05:18Z</time></trkpt><trkpt lat="38.18721292532226" lon="-1.1323330794708064"><ele>210.0</ele><time>2026-04-07T08:05:19Z</time></trkpt><trkpt lat="38.18732314432231" lon="-1.1324230222652203"><ele>210.25</ele><time>2026-04-07T08:05:20Z</time></trkpt><trkpt lat="38.18743714331424" lon="-1.1324992903725357"><ele>210.5</ele><time>2026-04-07T08:05:21Z</time></trkpt><trkpt lat="38.18756195201965" lon="-1.1325598346352441"><ele>210.75</ele><time>2026-04-07T08:05:22Z</time></trkpt><trkpt lat="38.18766761083623" lon="-1.132650537375536"><ele>211.0</ele><time>2026-04-07T08:05:23Z</time></trkpt><trkpt lat="38.187775885961514" lon="-1.132734115656364"><ele>211.0</ele><time>2026-04-07T08:05:24Z</time></trkpt><trkpt lat="38.18788152914639" lon="-1.1328313420117666"><ele>211.0</ele><time>2026-04-07T08:05:25Z</time></trkpt><trkpt lat="38.18797816807407" lon="-1.1329381130876384"><ele>211.0</ele><time>2026-04-07T08:05:26Z</time></trkpt><trkpt lat="38.18806387896957" lon="-1.133060239597123"><ele>211.0</ele><time>2026-04-07T08:05:27Z</time></trkpt><trkpt lat="38.18813477825425" lon="-1.1331934789674207"><ele>211.0</ele><time>2026-04-07T08:05:28Z</time></trkpt><trkpt lat="38.18819627293126" lon="-1.1333365742307149"><ele>211.0</ele><time>2026-04-07T08:05:29Z</time></trkpt><trkpt lat="38.18825429288117" lon="-1.1334830652858618"><ele>211.0</ele><time>2026-04-07T08:05:30Z</time></trkpt><trkpt lat="38.18833447294479" lon="-1.133611360672024"><ele>211.0</ele><time>2026-04-07T08:05:31Z</time></trkpt><trkpt lat="38.188426606626564" lon="-1.1337254796413552"><ele>211.0</ele><time>2026-04-07T08:05:32Z</time></trkpt><trkpt lat="38.18853010848602" lon="-1.133825146580736"><ele>211.0</ele><time>2026-04-07T08:05:33Z</time></trkpt><trkpt lat="38.18864062533818" lon="-1.1339164726690334"><ele>211.0</ele><time>2026-04-07T08:05:34Z</time></trkpt><trkpt lat="38.188755185092575" lon="-1.1339949245669434"><ele>211.0</ele><time>2026-04-07T08:05:35Z</time></trkpt><trkpt lat="38.188873856659576" lon="-1.1340532657687825"><ele>211.75</ele><time>2026-04-07T08:05:36Z</time></trkpt><trkpt lat="38.188994531425934" lon="-1.1341101591883649"><ele>212.5</ele><time>2026-04-07T08:05:37Z</time></trkpt><trkpt lat="38.18911295044933" lon="-1.1341642844106057"><ele>213.25</ele><time>2026-04-07T08:05:38Z</time></trkpt><trkpt lat="38.189231901894345" lon="-1.1342274149096756"><ele>214.0</ele><time>2026-04-07T08:05:39Z</time></trkpt><trkpt lat="38.189345290575986" lon="-1.1343046728529285"><ele>214.0</ele><time>2026-04-07T08:05:40Z</time></trkpt><trkpt lat="38.18945182272705" lon="-1.1343964293910613"><ele>214.0</ele><time>2026-04-07T08:05:41Z</time></trkpt><trkpt lat="38.189550624318905" lon="-1.134503340712948"><ele>214.0</ele><time>2026-04-07T08:05:42Z</time></trkpt><trkpt lat="38.18965256831709" lon="-1.134600714910823"><ele>214.0</ele><time>2026-04-07T08:05:43Z</time></trkpt><trkpt lat="38.18973425691347" lon="-1.1347213069716007"><ele>214.0</ele><time>2026-04-07T08:05:44Z</time></trkpt><trkpt lat="38.189832950873104" lon="-1.1348104438043214"><ele>214.0</ele><time>2026-04-07T08:05:45Z</time></trkpt><trkpt lat="38.18993951820123" lon="-1.1348748819137255"><ele>214.0</ele><time>2026-04-07T08:05:46Z</time></trkpt><trkpt lat="38.190057077752634" lon="-1.1349237836270891"><ele>214.0</ele><time>2026-04-07T08:05:47Z</time></trkpt><trkpt lat="38.19017546849696" lon="-1.1349599098305774"><ele>214.75</ele><time>2026-04-07T08:05:48Z</time></trkpt><trkpt lat="38.1902950198411" lon="-1.1349957964846076"><ele>215.5</ele><time>2026-04-07T08:05:49Z</time></trkpt><trkpt lat="38.19041264781781" lon="-1.1350364934672363"><ele>216.25</ele><time>2026-04-07T08:05:50Z</time></trkpt><trkpt lat="38.19052968316816" lon="-1.1350757116283496"><ele>217.0</ele><time>2026-04-07T08:05:51Z</time></trkpt><trkpt lat="38.190644458563774" lon="-1.1351111376650076"><ele>218.0</ele><time>2026-04-07T08:05:52Z</time></trkpt><trkpt lat="38.19076093853738" lon="-1.1351460226388017"><ele>219.0</ele><time>2026-04-07T08:05:53Z</time></trkpt><trkpt lat="38.1908736776305" lon="-1.1351824763573082"><ele>220.0</ele><time>2026-04-07T08:05:54Z</time></trkpt><trkpt lat="38.19098288605467" lon="-1.1352194084360208"><ele>221.0</ele><time>2026-04-07T08:05:55Z</time></trkpt><trkpt lat="38.191067698238044" lon="-1.1352483848137809"><ele>222.0</ele><time>2026-04-07T08:05:56Z</time></trkpt><trkpt lat="38.19113124586828" lon="-1.1352731248691337"><ele>222.0</ele><time>2026-04-07T08:05:57Z</time></trkpt><trkpt lat="38.19121121302575" lon="-1.135319034110117"><ele>222.0</ele><time>2026-04-07T08:05:58Z</time></trkpt><trkpt lat="38.19130432034905" lon="-1.1353707890181775"><ele>222.0</ele><time>2026-04-07T08:05:59Z</time></trkpt><trkpt lat="38.191403573628286" lon="-1.1354227049931076"><ele>222.0</ele><time>2026-04-07T08:06:00Z</time></trkpt><trkpt lat="38.19150255111361" lon="-1.1354801794880809"><ele>222.0</ele><time>2026-04-07T08:06:01Z</time></trkpt><trkpt lat="38.1915996908493" lon="-1.1355308531233774"><ele>222.0</ele><time>2026-04-07T08:06:02Z</time></trkpt><trkpt lat="38.19168757530722" lon="-1.135582046204461"><ele>222.0</ele><time>2026-04-07T08:06:03Z</time></trkpt><trkpt lat="38.191768979921974" lon="-1.1356257799111351"><ele>222.0</ele><time>2026-04-07T08:06:04Z</time></trkpt><trkpt lat="38.19184357409386" lon="-1.1356396665154502"><ele>222.0</ele><time>2026-04-07T08:06:05Z</time></trkpt><trkpt lat="38.191920133856264" lon="-1.1356652176397728"><ele>222.0</ele><time>2026-04-07T08:06:07Z</time></trkpt><trkpt lat="38.19199365945033" lon="-1.1354269557940024"><ele>222.0</ele><time>2026-04-07T08:06:08Z</time></trkpt><trkpt lat="38.19205431324326" lon="-1.1353170466130795"><ele>222.0</ele><time>2026-04-07T08:06:09Z</time></trkpt><trkpt lat="38.192092061724566" lon="-1.1352069239474352"><ele>222.0</ele><time>2026-04-07T08:06:10Z</time></trkpt><trkpt lat="38.192131784563614" lon="-1.1351086463852762"><ele>222.0</ele><time>2026-04-07T08:06:11Z</time></trkpt><trkpt lat="38.1921726057522" lon="-1.1350120128727765"><ele>222.0</ele><time>2026-04-07T08:06:12Z</time></trkpt><trkpt lat="38.192215139316495" lon="-1.1349179717326328"><ele>221.5</ele><time>2026-04-07T08:06:13Z</time></trkpt><trkpt lat="38.19226021258087" lon="-1.1348444137412967"><ele>221.0</ele><time>2026-04-07T08:06:14Z</time></trkpt><trkpt lat="38.192321431472145" lon="-1.1347934188566664"><ele>220.5</ele><time>2026-04-07T08:06:15Z</time></trkpt><trkpt lat="38.19239871790491" lon="-1.1347797115501392"><ele>220.0</ele><time>2026-04-07T08:06:16Z</time></trkpt><trkpt lat="38.19248833142299" lon="-1.1347992249529384"><ele>219.5</ele><time>2026-04-07T08:06:17Z</time></trkpt><trkpt lat="38.192584406948804" lon="-1.1348361161290608"><ele>219.0</ele><time>2026-04-07T08:06:18Z</time></trkpt><trkpt lat="38.1926883502726" lon="-1.1348682720969478"><ele>219.6</ele><time>2026-04-07T08:06:19Z</time></trkpt><trkpt lat="38.19278264739216" lon="-1.1348888586268482"><ele>220.2</ele><time>2026-04-07T08:06:20Z</time></trkpt><trkpt lat="38.19287394118222" lon="-1.1349059831256292"><ele>220.79999999999998</ele><time>2026-04-07T08:06:21Z</time></trkpt><trkpt lat="38.19296286591693" lon="-1.1349155849331898"><ele>221.39999999999998</ele><time>2026-04-07T08:06:22Z</time></trkpt><trkpt lat="38.19305441732076" lon="-1.1349316628237311"><ele>222.0</ele><time>2026-04-07T08:06:23Z</time></trkpt><trkpt lat="38.19313976463181" lon="-1.1349448395767276"><ele>221.33333333333334</ele><time>2026-04-07T08:06:24Z</time></trkpt><trkpt lat="38.193220980271334" lon="-1.1349439763371332"><ele>220.66666666666669</ele><time>2026-04-07T08:06:25Z</time></trkpt><trkpt lat="38.19330389262326" lon="-1.1349363786904696"><ele>220.0</ele><time>2026-04-07T08:06:26Z</time></trkpt><trkpt lat="38.19338778261556" lon="-1.134922066469338"><ele>219.33333333333334</ele><time>2026-04-07T08:06:27Z</time></trkpt><trkpt lat="38.19346973787524" lon="-1.1349019739191162"><ele>218.66666666666669</ele><time>2026-04-07T08:06:28Z</time></trkpt><trkpt lat="38.19355532491245" lon="-1.1348846026741113"><ele>218.0</ele><time>2026-04-07T08:06:29Z</time></trkpt><trkpt lat="38.193645876591" lon="-1.1348658563928546"><ele>218.0</ele><time>2026-04-07T08:06:30Z</time></trkpt><trkpt lat="38.193738076158674" lon="-1.1348529532026739"><ele>218.0</ele><time>2026-04-07T08:06:31Z</time></trkpt><trkpt lat="38.19383327971332" lon="-1.1348442167646586"><ele>218.0</ele><time>2026-04-07T08:06:32Z</time></trkpt><trkpt lat="38.193929977134594" lon="-1.1348388858295166"><ele>218.0</ele><time>2026-04-07T08:06:33Z</time></trkpt><trkpt lat="38.19403018044754" lon="-1.1348344587385402"><ele>218.0</ele><time>2026-04-07T08:06:34Z</time></trkpt><trkpt lat="38.19413191015695" lon="-1.1348362812899393"><ele>218.0</ele><time>2026-04-07T08:06:35Z</time></trkpt><trkpt lat="38.19423613073677" lon="-1.1348422894170358"><ele>218.0</ele><time>2026-04-07T08:06:36Z</time></trkpt><trkpt lat="38.194338549267485" lon="-1.1348542472069945"><ele>218.0</ele><time>2026-04-07T08:06:37Z</time></trkpt><trkpt lat="38.194441108629995" lon="-1.1348634811391332"><ele>218.0</ele><time>2026-04-07T08:06:38Z</time></trkpt><trkpt lat="38.19454573569036" lon="-1.1348731518031427"><ele>218.0</ele><time>2026-04-07T08:06:39Z</time></trkpt><trkpt lat="38.1946515029276" lon="-1.134879546531201"><ele>218.0</ele><time>2026-04-07T08:06:40Z</time></trkpt><trkpt lat="38.19475686315156" lon="-1.1348839969330504"><ele>218.0</ele><time>2026-04-07T08:06:41Z</time></trkpt><trkpt lat="38.194864320095895" lon="-1.1348843701216373"><ele>218.0</ele><time>2026-04-07T08:06:42Z</time></trkpt><trkpt lat="38.19496913940994" lon="-1.1348724151691194"><ele>218.0</ele><time>2026-04-07T08:06:43Z</time></trkpt><trkpt lat="38.19507435821553" lon="-1.1348498596877585"><ele>218.0</ele><time>2026-04-07T08:06:44Z</time></trkpt><trkpt lat="38.195177552331124" lon="-1.1348177591986168"><ele>218.0</ele><time>2026-04-07T08:06:45Z</time></trkpt><trkpt lat="38.19528190345682" lon="-1.1347807325879082"><ele>218.0</ele><time>2026-04-07T08:06:46Z</time></trkpt><trkpt lat="38.195387281599636" lon="-1.1347478889096434"><ele>218.0</ele><time>2026-04-07T08:06:47Z</time></trkpt><trkpt lat="38.19549416921094" lon="-1.134717579111237"><ele>218.0</ele><time>2026-04-07T08:06:48Z</time></trkpt><trkpt lat="38.195597565308994" lon="-1.1346861761288434"><ele>218.0</ele><time>2026-04-07T08:06:49Z</time></trkpt><trkpt lat="38.195701434746645" lon="-1.1346563331418424"><ele>218.0</ele><time>2026-04-07T08:06:50Z</time></trkpt><trkpt lat="38.19580791939821" lon="-1.1346270220389265"><ele>218.0</ele><time>2026-04-07T08:06:51Z</time></trkpt><trkpt lat="38.19591421768584" lon="-1.1345943534533094"><ele>218.0</ele><time>2026-04-07T08:06:52Z</time></trkpt><trkpt lat="38.19601458791332" lon="-1.1345626351187637"><ele>218.0</ele><time>2026-04-07T08:06:53Z</time></trkpt><trkpt lat="38.196109740616066" lon="-1.1345336277896056"><ele>218.0</ele><time>2026-04-07T08:06:54Z</time></trkpt><trkpt lat="38.196197542430085" lon="-1.134508267617782"><ele>218.0</ele><time>2026-04-07T08:06:55Z</time></trkpt><trkpt lat="38.19627414186331" lon="-1.1344896788860608"><ele>218.0</ele><time>2026-04-07T08:06:56Z</time></trkpt><trkpt lat="38.19633613200323" lon="-1.1344753488518624"><ele>218.0</ele><time>2026-04-07T08:06:57Z</time></trkpt><trkpt lat="38.19640712767384" lon="-1.1344458806252122"><ele>218.0</ele><time>2026-04-07T08:06:59Z</time></trkpt><trkpt lat="38.19636037317953" lon="-1.1342314874008839"><ele>218.0</ele><time>2026-04-07T08:07:05Z</time></trkpt><trkpt lat="38.196336220509096" lon="-1.1341495790842553"><ele>218.0</ele><time>2026-04-07T08:07:06Z</time></trkpt><trkpt lat="38.196311368834095" lon="-1.134065910243571"><ele>218.0</ele><time>2026-04-07T08:07:07Z</time></trkpt><trkpt lat="38.196280156822716" lon="-1.1339856829414274"><ele>218.0</ele><time>2026-04-07T08:07:08Z</time></trkpt><trkpt lat="38.196247577470615" lon="-1.1339130083112812"><ele>218.0</ele><time>2026-04-07T08:07:09Z</time></trkpt><trkpt lat="38.196216339109974" lon="-1.1338228188141797"><ele>218.0</ele><time>2026-04-07T08:07:10Z</time></trkpt><trkpt lat="38.196181321756534" lon="-1.133737707615849"><ele>218.0</ele><time>2026-04-07T08:07:11Z</time></trkpt><trkpt lat="38.196143040132746" lon="-1.1336516136401753"><ele>218.0</ele><time>2026-04-07T08:07:12Z</time></trkpt><trkpt lat="38.196100544184" lon="-1.133570819982128"><ele>217.66666666666669</ele><time>2026-04-07T08:07:13Z</time></trkpt><trkpt lat="38.19604956897357" lon="-1.1334970372637967"><ele>217.33333333333334</ele><time>2026-04-07T08:07:14Z</time></trkpt><trkpt lat="38.19600621329147" lon="-1.1334236471356567"><ele>217.0</ele><time>2026-04-07T08:07:15Z</time></trkpt><trkpt lat="38.19598182457095" lon="-1.1333405400940642"><ele>216.66666666666669</ele><time>2026-04-07T08:07:16Z</time></trkpt><trkpt lat="38.195961274910566" lon="-1.13319813563494"><ele>216.33333333333334</ele><time>2026-04-07T08:07:18Z</time></trkpt><trkpt lat="38.19594424400774" lon="-1.1331120593995785"><ele>216.0</ele><time>2026-04-07T08:07:19Z</time></trkpt><trkpt lat="38.195911744785484" lon="-1.133020508607322"><ele>215.57142857142856</ele><time>2026-04-07T08:07:20Z</time></trkpt><trkpt lat="38.19590959058489" lon="-1.1329298121194298"><ele>215.14285714285714</ele><time>2026-04-07T08:07:21Z</time></trkpt><trkpt lat="38.19588881899151" lon="-1.1328488623023056"><ele>214.71428571428572</ele><time>2026-04-07T08:07:22Z</time></trkpt><trkpt lat="38.19586492631665" lon="-1.1327700067066118"><ele>214.28571428571428</ele><time>2026-04-07T08:07:23Z</time></trkpt><trkpt lat="38.19583555667962" lon="-1.1326935087010679"><ele>213.85714285714286</ele><time>2026-04-07T08:07:24Z</time></trkpt><trkpt lat="38.1957953722861" lon="-1.1326027757127817"><ele>213.42857142857142</ele><time>2026-04-07T08:07:25Z</time></trkpt><trkpt lat="38.195757429706255" lon="-1.132518036906809"><ele>213.0</ele><time>2026-04-07T08:07:26Z</time></trkpt><trkpt lat="38.19572197111054" lon="-1.1324299956092854"><ele>212.33333333333334</ele><time>2026-04-07T08:07:27Z</time></trkpt><trkpt lat="38.19568505284754" lon="-1.1323474517376888"><ele>211.66666666666669</ele><time>2026-04-07T08:07:28Z</time></trkpt><trkpt lat="38.195673989136644" lon="-1.132259930944763"><ele>211.0</ele><time>2026-04-07T08:07:29Z</time></trkpt><trkpt lat="38.19568792304035" lon="-1.1321290153490446"><ele>210.33333333333334</ele><time>2026-04-07T08:07:31Z</time></trkpt><trkpt lat="38.195708280593955" lon="-1.132007759185105"><ele>209.66666666666669</ele><time>2026-04-07T08:07:34Z</time></trkpt><trkpt lat="38.19580657879532" lon="-1.1319865214973577"><ele>209.0</ele><time>2026-04-07T08:07:35Z</time></trkpt><trkpt lat="38.19590122570938" lon="-1.1320060720689757"><ele>209.0</ele><time>2026-04-07T08:07:36Z</time></trkpt><trkpt lat="38.195986122155844" lon="-1.1320234731529157"><ele>209.0</ele><time>2026-04-07T08:07:37Z</time></trkpt><trkpt lat="38.196087884883774" lon="-1.1320447481824385"><ele>209.0</ele><time>2026-04-07T08:07:38Z</time></trkpt><trkpt lat="38.19619414902867" lon="-1.1320279442771504"><ele>209.0</ele><time>2026-04-07T08:07:39Z</time></trkpt><trkpt lat="38.19629443567389" lon="-1.1319806191756434"><ele>209.0</ele><time>2026-04-07T08:07:40Z</time></trkpt><trkpt lat="38.19640090039892" lon="-1.1319629055301657"><ele>209.0</ele><time>2026-04-07T08:07:41Z</time></trkpt><trkpt lat="38.19649676088531" lon="-1.1319120560690623"><ele>209.0</ele><time>2026-04-07T08:07:42Z</time></trkpt><trkpt lat="38.1965847878352" lon="-1.1318418021187933"><ele>209.0</ele><time>2026-04-07T08:07:43Z</time></trkpt><trkpt lat="38.19665063277043" lon="-1.1317396063560807"><ele>209.0</ele><time>2026-04-07T08:07:44Z</time></trkpt><trkpt lat="38.196735401703684" lon="-1.1316624431477835"><ele>209.0</ele><time>2026-04-07T08:07:45Z</time></trkpt><trkpt lat="38.19681224909145" lon="-1.1315681461878604"><ele>208.39999999999998</ele><time>2026-04-07T08:07:46Z</time></trkpt><trkpt lat="38.196906684791976" lon="-1.1314996627396774"><ele>207.8</ele><time>2026-04-07T08:07:47Z</time></trkpt><trkpt lat="38.19700490019" lon="-1.1314454052324376"><ele>207.2</ele><time>2026-04-07T08:07:48Z</time></trkpt><trkpt lat="38.19710585413347" lon="-1.1314311584705623"><ele>206.60000000000002</ele><time>2026-04-07T08:07:49Z</time></trkpt><trkpt lat="38.19720116772604" lon="-1.1314854779121664"><ele>206.0</ele><time>2026-04-07T08:07:50Z</time></trkpt><trkpt lat="38.19727206676059" lon="-1.1315611077848424"><ele>206.33333333333334</ele><time>2026-04-07T08:07:51Z</time></trkpt><trkpt lat="38.197343047356014" lon="-1.131641460710449"><ele>206.66666666666669</ele><time>2026-04-07T08:07:52Z</time></trkpt><trkpt lat="38.19740993983451" lon="-1.1317231038971292"><ele>207.0</ele><time>2026-04-07T08:07:53Z</time></trkpt><trkpt lat="38.19747465468129" lon="-1.131798628490342"><ele>207.33333333333331</ele><time>2026-04-07T08:07:54Z</time></trkpt><trkpt lat="38.197525965006264" lon="-1.1318669557089471"><ele>207.66666666666666</ele><time>2026-04-07T08:07:55Z</time></trkpt><trkpt lat="38.19756080018699" lon="-1.131948353528576"><ele>208.0</ele><time>2026-04-07T08:07:56Z</time></trkpt><trkpt lat="38.197595171518785" lon="-1.1320397224936134"><ele>207.99999999999997</ele><time>2026-04-07T08:07:57Z</time></trkpt><trkpt lat="38.19762377524335" lon="-1.132134688001173"><ele>208.0</ele><time>2026-04-07T08:07:58Z</time></trkpt><trkpt lat="38.197657660961276" lon="-1.1322303722187217"><ele>208.0</ele><time>2026-04-07T08:07:59Z</time></trkpt><trkpt lat="38.197694510656504" lon="-1.1323279789777674"><ele>208.0</ele><time>2026-04-07T08:08:00Z</time></trkpt><trkpt lat="38.19773164465349" lon="-1.1324222935458033"><ele>207.99999999999997</ele><time>2026-04-07T08:08:01Z</time></trkpt><trkpt lat="38.197784449240366" lon="-1.1325127846351184"><ele>208.0</ele><time>2026-04-07T08:08:02Z</time></trkpt><trkpt lat="38.19784478845008" lon="-1.1325963431600998"><ele>208.8</ele><time>2026-04-07T08:08:03Z</time></trkpt><trkpt lat="38.19790915429887" lon="-1.13267566546947"><ele>209.60000000000002</ele><time>2026-04-07T08:08:04Z</time></trkpt><trkpt lat="38.19797761661579" lon="-1.1327531947806375"><ele>210.39999999999998</ele><time>2026-04-07T08:08:05Z</time></trkpt><trkpt lat="38.19804605136174" lon="-1.1328320018571492"><ele>211.2</ele><time>2026-04-07T08:08:06Z</time></trkpt><trkpt lat="38.19811869276727" lon="-1.1329113709313123"><ele>212.0</ele><time>2026-04-07T08:08:07Z</time></trkpt><trkpt lat="38.19819483049851" lon="-1.132988486515691"><ele>212.2</ele><time>2026-04-07T08:08:08Z</time></trkpt><trkpt lat="38.198269866124846" lon="-1.1330713122373035"><ele>212.39999999999998</ele><time>2026-04-07T08:08:09Z</time></trkpt><trkpt lat="38.19834652907672" lon="-1.1331553215520604"><ele>212.60000000000002</ele><time>2026-04-07T08:08:10Z</time></trkpt><trkpt lat="38.198425978252956" lon="-1.133241869066696"><ele>212.8</ele><time>2026-04-07T08:08:11Z</time></trkpt><trkpt lat="38.19852040337529" lon="-1.133337504249684"><ele>213.0</ele><time>2026-04-07T08:08:12Z</time></trkpt><trkpt lat="38.198617002991895" lon="-1.1334258235353567"><ele>214.0</ele><time>2026-04-07T08:08:13Z</time></trkpt><trkpt lat="38.19871056524124" lon="-1.1335003293080779"><ele>215.0</ele><time>2026-04-07T08:08:14Z</time></trkpt><trkpt lat="38.1988076035999" lon="-1.1335698075917753"><ele>216.0</ele><time>2026-04-07T08:08:15Z</time></trkpt><trkpt lat="38.19889824021935" lon="-1.1336222642047546"><ele>217.0</ele><time>2026-04-07T08:08:16Z</time></trkpt><trkpt lat="38.198986130722055" lon="-1.133672395345112"><ele>218.0</ele><time>2026-04-07T08:08:17Z</time></trkpt><trkpt lat="38.199070027103055" lon="-1.13372542623326"><ele>218.4</ele><time>2026-04-07T08:08:18Z</time></trkpt><trkpt lat="38.19915839879936" lon="-1.133787879345833"><ele>218.8</ele><time>2026-04-07T08:08:19Z</time></trkpt><trkpt lat="38.19924963279211" lon="-1.1338390331685886"><ele>219.2</ele><time>2026-04-07T08:08:20Z</time></trkpt><trkpt lat="38.199350329153965" lon="-1.1338809455789305"><ele>219.6</ele><time>2026-04-07T08:08:21Z</time></trkpt><trkpt lat="38.19944865827985" lon="-1.133899039450056"><ele>220.0</ele><time>2026-04-07T08:08:22Z</time></trkpt><trkpt lat="38.19954969953801" lon="-1.133925694261745"><ele>220.0</ele><time>2026-04-07T08:08:23Z</time></trkpt><trkpt lat="38.199655458106974" lon="-1.1339784467057308"><ele>220.0</ele><time>2026-04-07T08:08:24Z</time></trkpt><trkpt lat="38.19975388943162" lon="-1.1340431802789286"><ele>220.0</ele><time>2026-04-07T08:08:25Z</time></trkpt><trkpt lat="38.199846192188666" lon="-1.1341175814515523"><ele>220.0</ele><time>2026-04-07T08:08:26Z</time></trkpt><trkpt lat="38.199946033077055" lon="-1.1341852208838044"><ele>220.0</ele><time>2026-04-07T08:08:27Z</time></trkpt><trkpt lat="38.200023253013434" lon="-1.1342795330561057"><ele>220.8</ele><time>2026-04-07T08:08:28Z</time></trkpt><trkpt lat="38.20011085745195" lon="-1.1343546199382195"><ele>221.6</ele><time>2026-04-07T08:08:29Z</time></trkpt><trkpt lat="38.20019750055896" lon="-1.1344334124338042"><ele>222.39999999999998</ele><time>2026-04-07T08:08:30Z</time></trkpt><trkpt lat="38.200286464775004" lon="-1.134514619990285"><ele>223.2</ele><time>2026-04-07T08:08:31Z</time></trkpt><trkpt lat="38.20037684068178" lon="-1.134587541321034"><ele>224.0</ele><time>2026-04-07T08:08:32Z</time></trkpt><trkpt lat="38.20046974860315" lon="-1.1346574433823626"><ele>224.0</ele><time>2026-04-07T08:08:33Z</time></trkpt><trkpt lat="38.20056451140675" lon="-1.1347249482251904"><ele>223.99999999999997</ele><time>2026-04-07T08:08:34Z</time></trkpt><trkpt lat="38.20065759020766" lon="-1.1347952305448243"><ele>223.99999999999997</ele><time>2026-04-07T08:08:35Z</time></trkpt><trkpt lat="38.20074433861209" lon="-1.1348616801841245"><ele>224.0</ele><time>2026-04-07T08:08:36Z</time></trkpt><trkpt lat="38.20083510849475" lon="-1.1349265761026326"><ele>224.0</ele><time>2026-04-07T08:08:37Z</time></trkpt><trkpt lat="38.20092448848314" lon="-1.1349866332619076"><ele>225.0</ele><time>2026-04-07T08:08:38Z</time></trkpt><trkpt lat="38.20101610899478" lon="-1.135052346669412"><ele>225.99999999999997</ele><time>2026-04-07T08:08:39Z</time></trkpt><trkpt lat="38.201105187819564" lon="-1.1351208336610095"><ele>226.99999999999997</ele><time>2026-04-07T08:08:40Z</time></trkpt><trkpt lat="38.201197590797854" lon="-1.1351823421087543"><ele>228.0</ele><time>2026-04-07T08:08:41Z</time></trkpt><trkpt lat="38.20129340698549" lon="-1.1352436225004852"><ele>229.0</ele><time>2026-04-07T08:08:42Z</time></trkpt><trkpt lat="38.20138496678686" lon="-1.1353040851463065"><ele>229.0</ele><time>2026-04-07T08:08:43Z</time></trkpt><trkpt lat="38.201474212564136" lon="-1.1353705115875572"><ele>228.99999999999997</ele><time>2026-04-07T08:08:44Z</time></trkpt><trkpt lat="38.201562181600245" lon="-1.1354359816348365"><ele>228.99999999999997</ele><time>2026-04-07T08:08:45Z</time></trkpt><trkpt lat="38.20164691941639" lon="-1.1354969130860415"><ele>229.0</ele><time>2026-04-07T08:08:46Z</time></trkpt><trkpt lat="38.20172349743011" lon="-1.135551758892547"><ele>229.0</ele><time>2026-04-07T08:08:47Z</time></trkpt><trkpt lat="38.20179484927279" lon="-1.135611274297765"><ele>229.79999999999998</ele><time>2026-04-07T08:08:48Z</time></trkpt><trkpt lat="38.20186446164758" lon="-1.1356832584654288"><ele>230.59999999999997</ele><time>2026-04-07T08:08:49Z</time></trkpt><trkpt lat="38.20193818360216" lon="-1.1357611484856942"><ele>231.4</ele><time>2026-04-07T08:08:50Z</time></trkpt><trkpt lat="38.202014859009914" lon="-1.1358429437028164"><ele>232.2</ele><time>2026-04-07T08:08:51Z</time></trkpt><trkpt lat="38.202087572385224" lon="-1.1359224095352378"><ele>233.0</ele><time>2026-04-07T08:08:52Z</time></trkpt><trkpt lat="38.202163576955016" lon="-1.135986417206736"><ele>233.2</ele><time>2026-04-07T08:08:53Z</time></trkpt><trkpt lat="38.20225153114402" lon="-1.1360252128517851"><ele>233.4</ele><time>2026-04-07T08:08:54Z</time></trkpt><trkpt lat="38.20234223213524" lon="-1.136049354160882"><ele>233.59999999999997</ele><time>2026-04-07T08:08:55Z</time></trkpt><trkpt lat="38.20243452232951" lon="-1.136069550444213"><ele>233.79999999999998</ele><time>2026-04-07T08:08:56Z</time></trkpt><trkpt lat="38.2025242662766" lon="-1.136106299640281"><ele>234.0</ele><time>2026-04-07T08:08:57Z</time></trkpt><trkpt lat="38.20261308993528" lon="-1.1361606118326808"><ele>234.39999999999998</ele><time>2026-04-07T08:08:58Z</time></trkpt><trkpt lat="38.20269373596756" lon="-1.1362187547015803"><ele>234.79999999999998</ele><time>2026-04-07T08:08:59Z</time></trkpt><trkpt lat="38.20275993649253" lon="-1.1362800689962669"><ele>235.20000000000002</ele><time>2026-04-07T08:09:00Z</time></trkpt><trkpt lat="38.20282404970746" lon="-1.1363301235915821"><ele>235.60000000000002</ele><time>2026-04-07T08:09:01Z</time></trkpt><trkpt lat="38.20291056002822" lon="-1.136362843608561"><ele>236.0</ele><time>2026-04-07T08:09:03Z</time></trkpt><trkpt lat="38.20294696469188" lon="-1.1362287015363852"><ele>236.0</ele><time>2026-04-07T08:09:05Z</time></trkpt><trkpt lat="38.202972799992025" lon="-1.136115043393711"><ele>236.00000000000003</ele><time>2026-04-07T08:09:06Z</time></trkpt><trkpt lat="38.203017320048986" lon="-1.1360083562947112"><ele>236.00000000000003</ele><time>2026-04-07T08:09:07Z</time></trkpt><trkpt lat="38.20306365017872" lon="-1.1359168199973735"><ele>236.0</ele><time>2026-04-07T08:09:08Z</time></trkpt><trkpt lat="38.20311996980029" lon="-1.1358185810235413"><ele>236.0</ele><time>2026-04-07T08:09:09Z</time></trkpt><trkpt lat="38.203189073109435" lon="-1.135714496185007"><ele>235.8</ele><time>2026-04-07T08:09:10Z</time></trkpt><trkpt lat="38.2032494648253" lon="-1.1355944028137686"><ele>235.60000000000002</ele><time>2026-04-07T08:09:11Z</time></trkpt><trkpt lat="38.20332195981052" lon="-1.1354955946582257"><ele>235.4</ele><time>2026-04-07T08:09:12Z</time></trkpt><trkpt lat="38.20335979244991" lon="-1.1353721961638485"><ele>235.2</ele><time>2026-04-07T08:09:13Z</time></trkpt><trkpt lat="38.20335270001263" lon="-1.1352655479139029"><ele>235.0</ele><time>2026-04-07T08:09:14Z</time></trkpt><trkpt lat="38.20336745368647" lon="-1.1351475650662568"><ele>235.0</ele><time>2026-04-07T08:09:15Z</time></trkpt><trkpt lat="38.20338894265091" lon="-1.135015560152843"><ele>235.0</ele><time>2026-04-07T08:09:16Z</time></trkpt><trkpt lat="38.20339829800831" lon="-1.1348781229813902"><ele>235.0</ele><time>2026-04-07T08:09:17Z</time></trkpt><trkpt lat="38.203399441981475" lon="-1.1347427431585535"><ele>235.0</ele><time>2026-04-07T08:09:18Z</time></trkpt><trkpt lat="38.203387961992576" lon="-1.1346114437843307"><ele>235.0</ele><time>2026-04-07T08:09:19Z</time></trkpt><trkpt lat="38.20337851247066" lon="-1.1344805228881185"><ele>235.4</ele><time>2026-04-07T08:09:20Z</time></trkpt><trkpt lat="38.203370099726996" lon="-1.1343823439493623"><ele>235.8</ele><time>2026-04-07T08:09:21Z</time></trkpt><trkpt lat="38.203369258805374" lon="-1.1342778671070568"><ele>236.2</ele><time>2026-04-07T08:09:22Z</time></trkpt><trkpt lat="38.203393280721926" lon="-1.1341520760789094"><ele>236.6</ele><time>2026-04-07T08:09:23Z</time></trkpt><trkpt lat="38.20342820405844" lon="-1.1340300360626812"><ele>237.0</ele><time>2026-04-07T08:09:24Z</time></trkpt><trkpt lat="38.203459633245394" lon="-1.1338965579097646"><ele>237.2</ele><time>2026-04-07T08:09:25Z</time></trkpt><trkpt lat="38.20349220061976" lon="-1.1337561531937994"><ele>237.39999999999998</ele><time>2026-04-07T08:09:26Z</time></trkpt><trkpt lat="38.20352612100827" lon="-1.1336192114863928"><ele>237.60000000000002</ele><time>2026-04-07T08:09:27Z</time></trkpt><trkpt lat="38.20354214157454" lon="-1.133477963977782"><ele>237.8</ele><time>2026-04-07T08:09:28Z</time></trkpt><trkpt lat="38.20357228544787" lon="-1.1333489889574386"><ele>238.0</ele><time>2026-04-07T08:09:29Z</time></trkpt><trkpt lat="38.203611516967555" lon="-1.1332420523706512"><ele>238.16666666666666</ele><time>2026-04-07T08:09:30Z</time></trkpt><trkpt lat="38.20362129004053" lon="-1.133138961631461"><ele>238.33333333333331</ele><time>2026-04-07T08:09:31Z</time></trkpt><trkpt lat="38.20361629995322" lon="-1.1330507925803133"><ele>238.5</ele><time>2026-04-07T08:09:32Z</time></trkpt><trkpt lat="38.20358874064726" lon="-1.1329635230986363"><ele>238.66666666666669</ele><time>2026-04-07T08:09:33Z</time></trkpt><trkpt lat="38.20353749798431" lon="-1.1328999110716171"><ele>238.83333333333334</ele><time>2026-04-07T08:09:34Z</time></trkpt><trkpt lat="38.20340675519093" lon="-1.1328065382313142"><ele>239.0</ele><time>2026-04-07T08:09:36Z</time></trkpt><trkpt lat="38.203341059325766" lon="-1.1327294974736977"><ele>239.00000000000003</ele><time>2026-04-07T08:09:37Z</time></trkpt><trkpt lat="38.20331098979776" lon="-1.1326344341850507"><ele>239.0</ele><time>2026-04-07T08:09:38Z</time></trkpt><trkpt lat="38.20331200664228" lon="-1.1325325896896596"><ele>239.0</ele><time>2026-04-07T08:09:39Z</time></trkpt><trkpt lat="38.20335329012675" lon="-1.1324295981943504"><ele>239.0</ele><time>2026-04-07T08:09:40Z</time></trkpt><trkpt lat="38.20337200099207" lon="-1.1323111684755343"><ele>239.00000000000003</ele><time>2026-04-07T08:09:41Z</time></trkpt><trkpt lat="38.20339751384357" lon="-1.1322250121874349"><ele>239.0</ele><time>2026-04-07T08:09:42Z</time></trkpt><trkpt lat="38.203418160726265" lon="-1.1321313568652365"><ele>238.33333333333334</ele><time>2026-04-07T08:09:43Z</time></trkpt><trkpt lat="38.203439311636224" lon="-1.1320429557065355"><ele>237.66666666666669</ele><time>2026-04-07T08:09:44Z</time></trkpt><trkpt lat="38.20342904250611" lon="-1.131947744418225"><ele>237.0</ele><time>2026-04-07T08:09:45Z</time></trkpt><trkpt lat="38.203412251051944" lon="-1.1318440968201324"><ele>236.33333333333331</ele><time>2026-04-07T08:09:46Z</time></trkpt><trkpt lat="38.20337679541177" lon="-1.1317408678052976"><ele>235.66666666666666</ele><time>2026-04-07T08:09:47Z</time></trkpt><trkpt lat="38.20332432644548" lon="-1.1316587861811387"><ele>235.0</ele><time>2026-04-07T08:09:48Z</time></trkpt><trkpt lat="38.203262284471414" lon="-1.1316018566184853"><ele>234.49999999999997</ele><time>2026-04-07T08:09:49Z</time></trkpt><trkpt lat="38.203209475553244" lon="-1.1315385835665346"><ele>234.0</ele><time>2026-04-07T08:09:50Z</time></trkpt><trkpt lat="38.20316959599643" lon="-1.131466102366141"><ele>233.5</ele><time>2026-04-07T08:09:51Z</time></trkpt><trkpt lat="38.20316810467278" lon="-1.1313700894193577"><ele>233.0</ele><time>2026-04-07T08:09:52Z</time></trkpt><trkpt lat="38.203238035230406" lon="-1.1312674995397132"><ele>232.49999999999997</ele><time>2026-04-07T08:09:53Z</time></trkpt><trkpt lat="38.203258147414466" lon="-1.1311484520846402"><ele>232.0</ele><time>2026-04-07T08:09:54Z</time></trkpt><trkpt lat="38.20328154101241" lon="-1.1310120644667379"><ele>232.0</ele><time>2026-04-07T08:09:55Z</time></trkpt><trkpt lat="38.203299704639214" lon="-1.1308768421646984"><ele>232.0</ele><time>2026-04-07T08:09:56Z</time></trkpt><trkpt lat="38.20331632793966" lon="-1.130752523971402"><ele>232.0</ele><time>2026-04-07T08:09:57Z</time></trkpt><trkpt lat="38.20334666800846" lon="-1.1306420335721779"><ele>232.0</ele><time>2026-04-07T08:09:58Z</time></trkpt><trkpt lat="38.20335799792071" lon="-1.1305411041594557"><ele>232.0</ele><time>2026-04-07T08:09:59Z</time></trkpt><trkpt lat="38.20337794427187" lon="-1.130431832653314"><ele>232.42857142857144</ele><time>2026-04-07T08:10:00Z</time></trkpt><trkpt lat="38.203389759596135" lon="-1.1303524836779169"><ele>232.85714285714286</ele><time>2026-04-07T08:10:01Z</time></trkpt><trkpt lat="38.203407876035364" lon="-1.130272241615935"><ele>233.28571428571428</ele><time>2026-04-07T08:10:02Z</time></trkpt><trkpt lat="38.20341672590922" lon="-1.1301783975052955"><ele>233.71428571428572</ele><time>2026-04-07T08:10:05Z</time></trkpt><trkpt lat="38.203508893132515" lon="-1.1301743538280928"><ele>234.1428571428571</ele><time>2026-04-07T08:10:06Z</time></trkpt><trkpt lat="38.20358373444366" lon="-1.1301771859979695"><ele>234.57142857142856</ele><time>2026-04-07T08:10:07Z</time></trkpt><trkpt lat="38.2036565126373" lon="-1.130158174799934"><ele>235.0</ele><time>2026-04-07T08:10:08Z</time></trkpt><trkpt lat="38.20372909001715" lon="-1.130152321245499"><ele>234.99999999999997</ele><time>2026-04-07T08:10:09Z</time></trkpt><trkpt lat="38.203809329337375" lon="-1.13014474437348"><ele>235.0</ele><time>2026-04-07T08:10:10Z</time></trkpt><trkpt lat="38.20389737189593" lon="-1.1301351213150388"><ele>235.0</ele><time>2026-04-07T08:10:11Z</time></trkpt><trkpt lat="38.20398362802354" lon="-1.130125940208995"><ele>235.0</ele><time>2026-04-07T08:10:12Z</time></trkpt><trkpt lat="38.2040678823634" lon="-1.1301212841306896"><ele>234.99999999999997</ele><time>2026-04-07T08:10:13Z</time></trkpt><trkpt lat="38.204140097126896" lon="-1.130106080837653"><ele>235.0</ele><time>2026-04-07T08:10:14Z</time></trkpt><trkpt lat="38.20420526818141" lon="-1.1300874863840467"><ele>235.16666666666666</ele><time>2026-04-07T08:10:15Z</time></trkpt><trkpt lat="38.204248948687585" lon="-1.1300115663876362"><ele>235.33333333333331</ele><time>2026-04-07T08:10:16Z</time></trkpt><trkpt lat="38.20427933854182" lon="-1.1299124928563467"><ele>235.5</ele><time>2026-04-07T08:10:17Z</time></trkpt><trkpt lat="38.20430975142893" lon="-1.1298242539922383"><ele>235.66666666666669</ele><time>2026-04-07T08:10:18Z</time></trkpt><trkpt lat="38.20437286677794" lon="-1.129727848135109"><ele>235.83333333333334</ele><time>2026-04-07T08:10:20Z</time></trkpt><trkpt lat="38.20444317742175" lon="-1.1297241552775632"><ele>236.0</ele><time>2026-04-07T08:10:22Z</time></trkpt><trkpt lat="38.204516362047066" lon="-1.1297223087494939"><ele>236.0</ele><time>2026-04-07T08:10:23Z</time></trkpt><trkpt lat="38.20459871618974" lon="-1.129691637514574"><ele>236.00000000000003</ele><time>2026-04-07T08:10:24Z</time></trkpt><trkpt lat="38.204689006363274" lon="-1.1296598985209545"><ele>236.00000000000003</ele><time>2026-04-07T08:10:25Z</time></trkpt><trkpt lat="38.20477697635123" lon="-1.129635377256102"><ele>236.0</ele><time>2026-04-07T08:10:26Z</time></trkpt><trkpt lat="38.20486743807186" lon="-1.12961700812765"><ele>236.0</ele><time>2026-04-07T08:10:27Z</time></trkpt><trkpt lat="38.204960000334786" lon="-1.1296066509962073"><ele>236.8</ele><time>2026-04-07T08:10:28Z</time></trkpt><trkpt lat="38.20505806751118" lon="-1.1296090454975565"><ele>237.60000000000002</ele><time>2026-04-07T08:10:29Z</time></trkpt><trkpt lat="38.20516440312651" lon="-1.129622261384137"><ele>238.4</ele><time>2026-04-07T08:10:30Z</time></trkpt><trkpt lat="38.20526884908412" lon="-1.1296361126664491"><ele>239.2</ele><time>2026-04-07T08:10:31Z</time></trkpt><trkpt lat="38.205381812193444" lon="-1.129615255917806"><ele>240.0</ele><time>2026-04-07T08:10:32Z</time></trkpt><trkpt lat="38.20548191243527" lon="-1.1296595640746527"><ele>240.0</ele><time>2026-04-07T08:10:33Z</time></trkpt><trkpt lat="38.20558504885818" lon="-1.1296987821867301"><ele>240.0</ele><time>2026-04-07T08:10:34Z</time></trkpt><trkpt lat="38.205690331875495" lon="-1.1297339939586937"><ele>240.0</ele><time>2026-04-07T08:10:35Z</time></trkpt><trkpt lat="38.20579105695165" lon="-1.1297644625144354"><ele>240.0</ele><time>2026-04-07T08:10:36Z</time></trkpt><trkpt lat="38.2058878409662" lon="-1.1297833486035522"><ele>240.0</ele><time>2026-04-07T08:10:37Z</time></trkpt><trkpt lat="38.205974079407774" lon="-1.129786079628279"><ele>241.2</ele><time>2026-04-07T08:10:38Z</time></trkpt><trkpt lat="38.206053828542295" lon="-1.12978842900118"><ele>242.4</ele><time>2026-04-07T08:10:39Z</time></trkpt><trkpt lat="38.20614708500298" lon="-1.1298057268405595"><ele>243.60000000000002</ele><time>2026-04-07T08:10:41Z</time></trkpt><trkpt lat="38.206191589763314" lon="-1.1296578471765342"><ele>244.8</ele><time>2026-04-07T08:10:44Z</time></trkpt><trkpt lat="38.206226920656036" lon="-1.1295567295568698"><ele>246.0</ele><time>2026-04-07T08:10:45Z</time></trkpt><trkpt lat="38.20624390088895" lon="-1.1294592086786623"><ele>246.0</ele><time>2026-04-07T08:10:46Z</time></trkpt><trkpt lat="38.20625004657169" lon="-1.1293219718729006"><ele>246.00000000000003</ele><time>2026-04-07T08:10:48Z</time></trkpt><trkpt lat="38.20625372580928" lon="-1.1294440732076405"><ele>246.00000000000003</ele><time>2026-04-07T08:10:53Z</time></trkpt><trkpt lat="38.206234096081694" lon="-1.1295332920504457"><ele>246.0</ele><time>2026-04-07T08:10:54Z</time></trkpt><trkpt lat="38.20622132679857" lon="-1.1296330889970203"><ele>246.0</ele><time>2026-04-07T08:10:55Z</time></trkpt><trkpt lat="38.20619926895421" lon="-1.1297497721463639"><ele>246.0</ele><time>2026-04-07T08:10:56Z</time></trkpt><trkpt lat="38.2061740746422" lon="-1.129858394326783"><ele>246.0</ele><time>2026-04-07T08:10:57Z</time></trkpt><trkpt lat="38.20616799265605" lon="-1.129958649727532"><ele>246.0</ele><time>2026-04-07T08:10:58Z</time></trkpt><trkpt lat="38.206152957000214" lon="-1.1300428258413675"><ele>246.0</ele><time>2026-04-07T08:10:59Z</time></trkpt><trkpt lat="38.20618131369067" lon="-1.1301679918087946"><ele>246.0</ele><time>2026-04-07T08:11:01Z</time></trkpt><trkpt lat="38.20626374633016" lon="-1.1301661151472897"><ele>246.0</ele><time>2026-04-07T08:11:02Z</time></trkpt><trkpt lat="38.20633164060513" lon="-1.1302335593060078"><ele>246.4</ele><time>2026-04-07T08:11:03Z</time></trkpt><trkpt lat="38.20640692562293" lon="-1.130279153756201"><ele>246.8</ele><time>2026-04-07T08:11:04Z</time></trkpt><trkpt lat="38.20649182377351" lon="-1.1303213822651397"><ele>247.20000000000002</ele><time>2026-04-07T08:11:05Z</time></trkpt><trkpt lat="38.206577301630574" lon="-1.130379572605492"><ele>247.60000000000002</ele><time>2026-04-07T08:11:06Z</time></trkpt><trkpt lat="38.206660957197066" lon="-1.1304365223797932"><ele>248.0</ele><time>2026-04-07T08:11:07Z</time></trkpt><trkpt lat="38.20674972533353" lon="-1.130496952617494"><ele>248.8</ele><time>2026-04-07T08:11:08Z</time></trkpt><trkpt lat="38.206845436460675" lon="-1.130563422530512"><ele>249.60000000000002</ele><time>2026-04-07T08:11:09Z</time></trkpt><trkpt lat="38.20692025760877" lon="-1.1306154391506635"><ele>250.39999999999998</ele><time>2026-04-07T08:11:10Z</time></trkpt><trkpt lat="38.20698051217951" lon="-1.1306573289387507"><ele>251.2</ele><time>2026-04-07T08:11:11Z</time></trkpt><trkpt lat="38.20707741485975" lon="-1.1306811689390557"><ele>252.0</ele><time>2026-04-07T08:11:13Z</time></trkpt><trkpt lat="38.20713004947297" lon="-1.1305103351412145"><ele>252.0</ele><time>2026-04-07T08:11:15Z</time></trkpt><trkpt lat="38.20714365705516" lon="-1.130383275935007"><ele>252.0</ele><time>2026-04-07T08:11:16Z</time></trkpt><trkpt lat="38.20716023111596" lon="-1.1302656662523354"><ele>252.0</ele><time>2026-04-07T08:11:17Z</time></trkpt><trkpt lat="38.207181966931465" lon="-1.1301420467278105"><ele>252.0</ele><time>2026-04-07T08:11:18Z</time></trkpt><trkpt lat="38.20720682081265" lon="-1.130003797029908"><ele>252.0</ele><time>2026-04-07T08:11:19Z</time></trkpt><trkpt lat="38.20723615191634" lon="-1.1298675337914315"><ele>251.8</ele><time>2026-04-07T08:11:20Z</time></trkpt><trkpt lat="38.20726577765701" lon="-1.1297302278484034"><ele>251.6</ele><time>2026-04-07T08:11:21Z</time></trkpt><trkpt lat="38.20729195339267" lon="-1.1295902198619583"><ele>251.40000000000003</ele><time>2026-04-07T08:11:22Z</time></trkpt><trkpt lat="38.20732066282953" lon="-1.1294543076886459"><ele>251.20000000000002</ele><time>2026-04-07T08:11:23Z</time></trkpt><trkpt lat="38.20734494998523" lon="-1.1293270282095726"><ele>251.0</ele><time>2026-04-07T08:11:24Z</time></trkpt><trkpt lat="38.20737098700547" lon="-1.12920168333825"><ele>252.16666666666669</ele><time>2026-04-07T08:11:25Z</time></trkpt><trkpt lat="38.20738662158119" lon="-1.1290925707993305"><ele>253.33333333333334</ele><time>2026-04-07T08:11:26Z</time></trkpt><trkpt lat="38.20741121490266" lon="-1.128993072785551"><ele>254.5</ele><time>2026-04-07T08:11:27Z</time></trkpt><trkpt lat="38.20743578305274" lon="-1.1288923899320846"><ele>255.66666666666669</ele><time>2026-04-07T08:11:28Z</time></trkpt><trkpt lat="38.20745030386534" lon="-1.1288115199545703"><ele>256.8333333333333</ele><time>2026-04-07T08:11:29Z</time></trkpt><trkpt lat="38.20741866209262" lon="-1.1286634258608992"><ele>258.0</ele><time>2026-04-07T08:11:31Z</time></trkpt><trkpt lat="38.2073577736052" lon="-1.1286217468382862"><ele>258.0</ele><time>2026-04-07T08:11:32Z</time></trkpt><trkpt lat="38.20731024267437" lon="-1.1285642419076476"><ele>258.0</ele><time>2026-04-07T08:11:33Z</time></trkpt><trkpt lat="38.20731208672368" lon="-1.1284766750421857"><ele>258.0</ele><time>2026-04-07T08:11:34Z</time></trkpt><trkpt lat="38.20733716340301" lon="-1.1283844008841437"><ele>258.0</ele><time>2026-04-07T08:11:35Z</time></trkpt><trkpt lat="38.207353433451885" lon="-1.1282688834212347"><ele>258.0</ele><time>2026-04-07T08:11:36Z</time></trkpt><trkpt lat="38.2073793804982" lon="-1.1281364729943226"><ele>258.0</ele><time>2026-04-07T08:11:37Z</time></trkpt><trkpt lat="38.20740210381475" lon="-1.128020513628189"><ele>258.0</ele><time>2026-04-07T08:11:38Z</time></trkpt><trkpt lat="38.20742702156317" lon="-1.1278933557892818"><ele>258.0</ele><time>2026-04-07T08:11:39Z</time></trkpt><trkpt lat="38.20746625522723" lon="-1.1277673509160027"><ele>258.0</ele><time>2026-04-07T08:11:40Z</time></trkpt><trkpt lat="38.20748275508773" lon="-1.1276551935399717"><ele>258.0</ele><time>2026-04-07T08:11:41Z</time></trkpt><trkpt lat="38.20749513526801" lon="-1.1275613276896372"><ele>258.0</ele><time>2026-04-07T08:11:42Z</time></trkpt><trkpt lat="38.20751568136827" lon="-1.127457752363473"><ele>257.6</ele><time>2026-04-07T08:11:44Z</time></trkpt><trkpt lat="38.2075266669043" lon="-1.1273387865936304"><ele>257.20000000000005</ele><time>2026-04-07T08:11:48Z</time></trkpt><trkpt lat="38.20755565985581" lon="-1.1272338737399843"><ele>256.8</ele><time>2026-04-07T08:11:50Z</time></trkpt><trkpt lat="38.20769809291884" lon="-1.1272141502904471"><ele>256.40000000000003</ele><time>2026-04-07T08:11:55Z</time></trkpt><trkpt lat="38.20775614373922" lon="-1.1272640894983212"><ele>256.0</ele><time>2026-04-07T08:11:56Z</time></trkpt><trkpt lat="38.207831415654105" lon="-1.1273227640721595"><ele>256.0</ele><time>2026-04-07T08:11:57Z</time></trkpt><trkpt lat="38.207910331546664" lon="-1.1273851455047117"><ele>256.0</ele><time>2026-04-07T08:11:58Z</time></trkpt><trkpt lat="38.20799813443827" lon="-1.1274545517841827"><ele>256.0</ele><time>2026-04-07T08:11:59Z</time></trkpt><trkpt lat="38.20807714294625" lon="-1.1275216052217643"><ele>256.0</ele><time>2026-04-07T08:12:00Z</time></trkpt><trkpt lat="38.20818422429053" lon="-1.1275252689281725"><ele>256.0</ele><time>2026-04-07T08:12:01Z</time></trkpt><trkpt lat="38.20829604242867" lon="-1.1275499959023534"><ele>257.3333333333333</ele><time>2026-04-07T08:12:02Z</time></trkpt><trkpt lat="38.20840542411516" lon="-1.1275741826947323"><ele>258.66666666666663</ele><time>2026-04-07T08:12:03Z</time></trkpt><trkpt lat="38.20849601694742" lon="-1.1275942159940495"><ele>260.0</ele><time>2026-04-07T08:12:04Z</time></trkpt><trkpt lat="38.20858312112457" lon="-1.12761347783527"><ele>261.3333333333333</ele><time>2026-04-07T08:12:05Z</time></trkpt><trkpt lat="38.208658534179" lon="-1.1276301543451726"><ele>262.6666666666667</ele><time>2026-04-07T08:12:06Z</time></trkpt><trkpt lat="38.2087085810202" lon="-1.1275571030716889"><ele>264.0</ele><time>2026-04-07T08:12:09Z</time></trkpt><trkpt lat="38.20872367754603" lon="-1.1274443440698292"><ele>263.6666666666667</ele><time>2026-04-07T08:12:10Z</time></trkpt><trkpt lat="38.20874539650154" lon="-1.1273237932722429"><ele>263.3333333333333</ele><time>2026-04-07T08:12:11Z</time></trkpt><trkpt lat="38.208761818440024" lon="-1.1272212180768317"><ele>263.0</ele><time>2026-04-07T08:12:12Z</time></trkpt><trkpt lat="38.208776892601826" lon="-1.127127045739697"><ele>262.66666666666663</ele><time>2026-04-07T08:12:13Z</time></trkpt><trkpt lat="38.208808607430946" lon="-1.1270393809358723"><ele>262.3333333333333</ele><time>2026-04-07T08:12:15Z</time></trkpt><trkpt lat="38.20885884080255" lon="-1.1269594054924728"><ele>262.0</ele><time>2026-04-07T08:12:18Z</time></trkpt><trkpt lat="38.20883421615234" lon="-1.126856053878384"><ele>262.0</ele><time>2026-04-07T08:12:20Z</time></trkpt><trkpt lat="38.20878884373721" lon="-1.1267377042307252"><ele>262.0</ele><time>2026-04-07T08:12:22Z</time></trkpt><trkpt lat="38.20874006977745" lon="-1.1266066751489527"><ele>262.0</ele><time>2026-04-07T08:12:24Z</time></trkpt><trkpt lat="38.208649968631555" lon="-1.1265250096838426"><ele>262.0</ele><time>2026-04-07T08:12:26Z</time></trkpt><trkpt lat="38.208596549963026" lon="-1.126443544756072"><ele>262.0</ele><time>2026-04-07T08:12:28Z</time></trkpt><trkpt lat="38.20853851039158" lon="-1.1263793374502837"><ele>262.0</ele><time>2026-04-07T08:12:30Z</time></trkpt><trkpt lat="38.20845632173558" lon="-1.1263444168786474"><ele>262.0</ele><time>2026-04-07T08:12:32Z</time></trkpt><trkpt lat="38.208363271654676" lon="-1.1263241505361758"><ele>262.0</ele><time>2026-04-07T08:12:34Z</time></trkpt><trkpt lat="38.20826133927227" lon="-1.1263209627710618"><ele>262.0</ele><time>2026-04-07T08:12:36Z</time></trkpt><trkpt lat="38.20817021069168" lon="-1.1263271248070066"><ele>262.0</ele><time>2026-04-07T08:12:38Z</time></trkpt><trkpt lat="38.20810867229722" lon="-1.1263037134419267"><ele>262.0</ele><time>2026-04-07T08:12:40Z</time></trkpt><trkpt lat="38.20807726891026" lon="-1.1262076747096839"><ele>262.0</ele><time>2026-04-07T08:12:42Z</time></trkpt><trkpt lat="38.20807926619154" lon="-1.1261262434961612"><ele>262.0</ele><time>2026-04-07T08:12:43Z</time></trkpt><trkpt lat="38.208099826704796" lon="-1.1260247911355918"><ele>262.0</ele><time>2026-04-07T08:12:44Z</time></trkpt><trkpt lat="38.2081271269658" lon="-1.1259199427466218"><ele>262.0</ele><time>2026-04-07T08:12:45Z</time></trkpt><trkpt lat="38.208155215571125" lon="-1.1258237792218129"><ele>262.0</ele><time>2026-04-07T08:12:46Z</time></trkpt><trkpt lat="38.20816245983162" lon="-1.125743811529261"><ele>262.0</ele><time>2026-04-07T08:12:48Z</time></trkpt><trkpt lat="38.20809034175356" lon="-1.12569146179266"><ele>262.0</ele><time>2026-04-07T08:12:50Z</time></trkpt><trkpt lat="38.20806351060567" lon="-1.125613772573901"><ele>262.0</ele><time>2026-04-07T08:12:52Z</time></trkpt><trkpt lat="38.20813327124146" lon="-1.1256233838310667"><ele>262.0</ele><time>2026-04-07T08:12:59Z</time></trkpt><trkpt lat="38.20821227550493" lon="-1.1257180910012292"><ele>262.0</ele><time>2026-04-07T08:13:01Z</time></trkpt><trkpt lat="38.20827733029878" lon="-1.1257627991679688"><ele>262.0</ele><time>2026-04-07T08:13:02Z</time></trkpt><trkpt lat="38.208340278350555" lon="-1.125800566682323"><ele>262.0</ele><time>2026-04-07T08:13:03Z</time></trkpt><trkpt lat="38.208416976986015" lon="-1.125786259876743"><ele>262.0</ele><time>2026-04-07T08:13:05Z</time></trkpt><trkpt lat="38.208308930923025" lon="-1.1257637636521123"><ele>262.0</ele><time>2026-04-07T08:13:12Z</time></trkpt><trkpt lat="38.2082197925087" lon="-1.1257011486129969"><ele>262.0</ele><time>2026-04-07T08:13:13Z</time></trkpt><trkpt lat="38.20815181292567" lon="-1.1256391843874236"><ele>262.0</ele><time>2026-04-07T08:13:14Z</time></trkpt><trkpt lat="38.20809207149378" lon="-1.125575616484348"><ele>262.0</ele><time>2026-04-07T08:13:15Z</time></trkpt><trkpt lat="38.208036163813645" lon="-1.1255147175402207"><ele>262.0</ele><time>2026-04-07T08:13:16Z</time></trkpt><trkpt lat="38.20798648602157" lon="-1.1254545652861816"><ele>260.66666666666663</ele><time>2026-04-07T08:13:17Z</time></trkpt><trkpt lat="38.20793362216225" lon="-1.1254042805362465"><ele>259.3333333333333</ele><time>2026-04-07T08:13:18Z</time></trkpt><trkpt lat="38.207857701104686" lon="-1.1253242675003752"><ele>258.0</ele><time>2026-04-07T08:13:20Z</time></trkpt><trkpt lat="38.20786212607071" lon="-1.1252051384611466"><ele>256.6666666666667</ele><time>2026-04-07T08:13:23Z</time></trkpt><trkpt lat="38.207873162552225" lon="-1.1251121710824812"><ele>255.33333333333334</ele><time>2026-04-07T08:13:24Z</time></trkpt><trkpt lat="38.20789011573445" lon="-1.1250024447796523"><ele>254.0</ele><time>2026-04-07T08:13:25Z</time></trkpt><trkpt lat="38.207897544701545" lon="-1.1249122799136315"><ele>253.50000000000003</ele><time>2026-04-07T08:13:26Z</time></trkpt><trkpt lat="38.20790787279571" lon="-1.1248213823363262"><ele>253.0</ele><time>2026-04-07T08:13:27Z</time></trkpt><trkpt lat="38.20791465573586" lon="-1.1246797987805646"><ele>252.5</ele><time>2026-04-07T08:13:29Z</time></trkpt><trkpt lat="38.207924617234866" lon="-1.1245888100134525"><ele>252.0</ele><time>2026-04-07T08:13:31Z</time></trkpt><trkpt lat="38.20795318116075" lon="-1.1245069229363902"><ele>251.50000000000003</ele><time>2026-04-07T08:21:13Z</time></trkpt><trkpt lat="38.20801080885255" lon="-1.1244205573398212"><ele>251.0</ele><time>2026-04-07T08:21:15Z</time></trkpt><trkpt lat="38.20807668534726" lon="-1.1244139404037972"><ele>250.99999999999997</ele><time>2026-04-07T08:21:17Z</time></trkpt><trkpt lat="38.20813931693715" lon="-1.1244420868936662"><ele>251.0</ele><time>2026-04-07T08:22:50Z</time></trkpt><trkpt lat="38.20808242073064" lon="-1.1244001868364049"><ele>250.99999999999997</ele><time>2026-04-07T08:30:40Z</time></trkpt><trkpt lat="38.208016153416985" lon="-1.124439288168721"><ele>250.99999999999997</ele><time>2026-04-07T08:30:43Z</time></trkpt><trkpt lat="38.2079705657897" lon="-1.1245044866276455"><ele>251.0</ele><time>2026-04-07T08:30:46Z</time></trkpt><trkpt lat="38.207945687053346" lon="-1.1245951086519785"><ele>250.99999999999997</ele><time>2026-04-07T08:31:52Z</time></trkpt><trkpt lat="38.207936178869204" lon="-1.1246815048467398"><ele>250.99999999999997</ele><time>2026-04-07T08:31:54Z</time></trkpt><trkpt lat="38.20789797958101" lon="-1.1247663838523974"><ele>251.0</ele><time>2026-04-07T08:31:57Z</time></trkpt><trkpt lat="38.20779712102685" lon="-1.1247495816242297"><ele>251.00000000000003</ele><time>2026-04-07T08:32:00Z</time></trkpt><trkpt lat="38.20770540927018" lon="-1.1247534829047339"><ele>251.00000000000003</ele><time>2026-04-07T08:32:02Z</time></trkpt><trkpt lat="38.20761607702588" lon="-1.124735883588656"><ele>251.0</ele><time>2026-04-07T08:32:04Z</time></trkpt><trkpt lat="38.207515388912405" lon="-1.1247421062845027"><ele>251.0</ele><time>2026-04-07T08:32:06Z</time></trkpt><trkpt lat="38.207435850195786" lon="-1.1248103786754615"><ele>251.00000000000003</ele><time>2026-04-07T08:32:08Z</time></trkpt><trkpt lat="38.207387999474115" lon="-1.124866598369753"><ele>251.0</ele><time>2026-04-07T08:32:09Z</time></trkpt><trkpt lat="38.20729946284864" lon="-1.1249463702615141"><ele>251.0</ele><time>2026-04-07T08:32:11Z</time></trkpt><trkpt lat="38.20722107950258" lon="-1.1249639332821608"><ele>251.0</ele><time>2026-04-07T08:32:13Z</time></trkpt><trkpt lat="38.20717096547791" lon="-1.1249029536242003"><ele>251.00000000000003</ele><time>2026-04-07T08:32:15Z</time></trkpt><trkpt lat="38.207166675715115" lon="-1.1247647846572626"><ele>251.0</ele><time>2026-04-07T08:32:17Z</time></trkpt><trkpt lat="38.207185074975534" lon="-1.1246872339332894"><ele>251.00000000000003</ele><time>2026-04-07T08:32:18Z</time></trkpt><trkpt lat="38.20722821323918" lon="-1.1245740577494105"><ele>251.0</ele><time>2026-04-07T08:32:20Z</time></trkpt><trkpt lat="38.20726754320828" lon="-1.1244897325873515"><ele>251.0</ele><time>2026-04-07T08:32:22Z</time></trkpt><trkpt lat="38.20730208336455" lon="-1.1244072222309642"><ele>251.0</ele><time>2026-04-07T08:32:24Z</time></trkpt><trkpt lat="38.207329690794886" lon="-1.1243344496789072"><ele>251.00000000000003</ele><time>2026-04-07T08:32:26Z</time></trkpt><trkpt lat="38.20736970891858" lon="-1.124266740501777"><ele>251.0</ele><time>2026-04-07T08:32:28Z</time></trkpt><trkpt lat="38.20741307504296" lon="-1.124179537889341"><ele>250.99999999999997</ele><time>2026-04-07T08:32:30Z</time></trkpt><trkpt lat="38.20746014734611" lon="-1.1240985959568226"><ele>251.0</ele><time>2026-04-07T08:32:32Z</time></trkpt><trkpt lat="38.20750205173973" lon="-1.1240140674804717"><ele>250.99999999999997</ele><time>2026-04-07T08:32:34Z</time></trkpt><trkpt lat="38.20752594253051" lon="-1.1239254880194476"><ele>250.99999999999997</ele><time>2026-04-07T08:32:36Z</time></trkpt><trkpt lat="38.20754595564908" lon="-1.12384563413725"><ele>251.0</ele><time>2026-04-07T08:32:38Z</time></trkpt><trkpt lat="38.20758374534226" lon="-1.1237734322650053"><ele>250.99999999999997</ele><time>2026-04-07T08:32:41Z</time></trkpt><trkpt lat="38.20765915493231" lon="-1.1237830337700687"><ele>250.99999999999997</ele><time>2026-04-07T08:32:43Z</time></trkpt><trkpt lat="38.20774911626276" lon="-1.1238673087007351"><ele>250.83333333333334</ele><time>2026-04-07T08:32:45Z</time></trkpt><trkpt lat="38.2078336603686" lon="-1.1239309310245647"><ele>250.66666666666669</ele><time>2026-04-07T08:32:47Z</time></trkpt><trkpt lat="38.20791685147855" lon="-1.123952366606155"><ele>250.5</ele><time>2026-04-07T08:32:49Z</time></trkpt><trkpt lat="38.20799797134692" lon="-1.1239143611799356"><ele>250.33333333333331</ele><time>2026-04-07T08:32:52Z</time></trkpt><trkpt lat="38.20802258146137" lon="-1.1238035902262957"><ele>250.16666666666666</ele><time>2026-04-07T08:32:54Z</time></trkpt><trkpt lat="38.2080276601496" lon="-1.123717499402102"><ele>250.0</ele><time>2026-04-07T08:32:56Z</time></trkpt><trkpt lat="38.208050007125884" lon="-1.123623023440359"><ele>249.99999999999997</ele><time>2026-04-07T08:32:58Z</time></trkpt><trkpt lat="38.20809144891285" lon="-1.1235233587181468"><ele>250.0</ele><time>2026-04-07T08:33:00Z</time></trkpt><trkpt lat="38.20815623196403" lon="-1.1234744561388894"><ele>250.0</ele><time>2026-04-07T08:33:02Z</time></trkpt><trkpt lat="38.20822811710996" lon="-1.1234615279471276"><ele>250.0</ele><time>2026-04-07T08:33:04Z</time></trkpt><trkpt lat="38.20828895439046" lon="-1.1233849602275459"><ele>249.99999999999997</ele><time>2026-04-07T08:33:07Z</time></trkpt><trkpt lat="38.20835137390146" lon="-1.12331131165967"><ele>250.0</ele><time>2026-04-07T08:33:11Z</time></trkpt><trkpt lat="38.208426700162825" lon="-1.1232891909551097"><ele>251.33333333333331</ele><time>2026-04-07T08:33:13Z</time></trkpt><trkpt lat="38.208498911414544" lon="-1.123287013208737"><ele>252.66666666666666</ele><time>2026-04-07T08:33:23Z</time></trkpt><trkpt lat="38.20857453856318" lon="-1.1232529753358889"><ele>254.0</ele><time>2026-04-07T08:34:04Z</time></trkpt><trkpt lat="38.2086502005966" lon="-1.1231916952301646"><ele>255.33333333333331</ele><time>2026-04-07T08:34:06Z</time></trkpt><trkpt lat="38.20872180255417" lon="-1.1231644117599904"><ele>256.6666666666667</ele><time>2026-04-07T08:35:11Z</time></trkpt><trkpt lat="38.20878867578835" lon="-1.123136022353548"><ele>258.0</ele><time>2026-04-07T08:35:32Z</time></trkpt><trkpt lat="38.208843486262786" lon="-1.1231852990657478"><ele>257.99999999999994</ele><time>2026-04-07T08:35:45Z</time></trkpt><trkpt lat="38.20886260273143" lon="-1.1232743812849584"><ele>258.0</ele><time>2026-04-07T08:35:49Z</time></trkpt><trkpt lat="38.20888506833054" lon="-1.1233495549436585"><ele>258.0</ele><time>2026-04-07T08:35:59Z</time></trkpt><trkpt lat="38.208875312067605" lon="-1.1234513462468532"><ele>258.0</ele><time>2026-04-07T08:36:03Z</time></trkpt><trkpt lat="38.2088386890992" lon="-1.12352249941393"><ele>258.0</ele><time>2026-04-07T08:36:06Z</time></trkpt><trkpt lat="38.20877475576182" lon="-1.123549544656422"><ele>257.99999999999994</ele><time>2026-04-07T08:36:10Z</time></trkpt><trkpt lat="38.20871227550755" lon="-1.1235120500717135"><ele>258.0</ele><time>2026-04-07T08:36:13Z</time></trkpt><trkpt lat="38.20863310799112" lon="-1.123502076741315"><ele>258.0</ele><time>2026-04-07T08:36:16Z</time></trkpt><trkpt lat="38.20856193929912" lon="-1.1235428518111876"><ele>258.0</ele><time>2026-04-07T08:36:19Z</time></trkpt><trkpt lat="38.20852501108046" lon="-1.1236170681333069"><ele>258.0</ele><time>2026-04-07T08:36:21Z</time></trkpt><trkpt lat="38.208460002990414" lon="-1.12368432692161"><ele>258.0</ele><time>2026-04-07T08:36:24Z</time></trkpt><trkpt lat="38.20838216849545" lon="-1.1236688067613156"><ele>258.0</ele><time>2026-04-07T08:36:27Z</time></trkpt><trkpt lat="38.20846870305031" lon="-1.123687244592841"><ele>258.0</ele><time>2026-04-07T08:36:38Z</time></trkpt><trkpt lat="38.208545343173014" lon="-1.1236729392017841"><ele>257.99999999999994</ele><time>2026-04-07T08:36:42Z</time></trkpt><trkpt lat="38.20861421825854" lon="-1.1236833069316894"><ele>258.0</ele><time>2026-04-07T08:37:15Z</time></trkpt><trkpt lat="38.208617397439866" lon="-1.1235986407210485"><ele>258.0</ele><time>2026-04-07T08:37:30Z</time></trkpt><trkpt lat="38.208614882262005" lon="-1.1235063347737109"><ele>258.0</ele><time>2026-04-07T08:37:39Z</time></trkpt><trkpt lat="38.20856890781341" lon="-1.1234447663915"><ele>258.0</ele><time>2026-04-07T08:37:42Z</time></trkpt><trkpt lat="38.2085093468235" lon="-1.1234776722246393"><ele>257.99999999999994</ele><time>2026-04-07T08:37:45Z</time></trkpt><trkpt lat="38.20847506095557" lon="-1.1235692991266952"><ele>258.0</ele><time>2026-04-07T08:37:49Z</time></trkpt><trkpt lat="38.208491523473" lon="-1.123659410656862"><ele>258.0</ele><time>2026-04-07T08:37:53Z</time></trkpt><trkpt lat="38.208422959403784" lon="-1.1236674325674583"><ele>258.0</ele><time>2026-04-07T08:37:56Z</time></trkpt><trkpt lat="38.20835013113239" lon="-1.1236170992118273"><ele>258.0</ele><time>2026-04-07T08:38:00Z</time></trkpt><trkpt lat="38.20826250171336" lon="-1.1235700418088497"><ele>258.0</ele><time>2026-04-07T08:38:04Z</time></trkpt><trkpt lat="38.208157360741936" lon="-1.1235535303269062"><ele>258.0</ele><time>2026-04-07T08:38:06Z</time></trkpt><trkpt lat="38.20809245079955" lon="-1.123605147258894"><ele>258.0</ele><time>2026-04-07T08:38:09Z</time></trkpt><trkpt lat="38.20803547581665" lon="-1.1237569119183661"><ele>256.6666666666667</ele><time>2026-04-07T08:38:12Z</time></trkpt><trkpt lat="38.207990208324375" lon="-1.1238447822114892"><ele>255.33333333333331</ele><time>2026-04-07T08:38:13Z</time></trkpt><trkpt lat="38.20796849142953" lon="-1.1239439454926123"><ele>254.0</ele><time>2026-04-07T08:38:15Z</time></trkpt><trkpt lat="38.20791019182402" lon="-1.123977041433547"><ele>252.66666666666666</ele><time>2026-04-07T08:38:17Z</time></trkpt><trkpt lat="38.207817927392036" lon="-1.1239636453960062"><ele>251.33333333333331</ele><time>2026-04-07T08:38:19Z</time></trkpt><trkpt lat="38.20771064003286" lon="-1.1239034590651908"><ele>250.0</ele><time>2026-04-07T08:38:21Z</time></trkpt><trkpt lat="38.20766378750123" lon="-1.1238493131866196"><ele>249.99999999999997</ele><time>2026-04-07T08:38:22Z</time></trkpt><trkpt lat="38.20761844632296" lon="-1.1237454323996747"><ele>250.0</ele><time>2026-04-07T08:38:24Z</time></trkpt><trkpt lat="38.20755426989073" lon="-1.1237265348103338"><ele>250.0</ele><time>2026-04-07T08:38:27Z</time></trkpt><trkpt lat="38.207518371949526" lon="-1.123818865429534"><ele>250.0</ele><time>2026-04-07T08:38:29Z</time></trkpt><trkpt lat="38.20750780817727" lon="-1.1239120022806883"><ele>249.99999999999997</ele><time>2026-04-07T08:38:31Z</time></trkpt><trkpt lat="38.20748371162375" lon="-1.1240073586317416"><ele>250.0</ele><time>2026-04-07T08:38:33Z</time></trkpt><trkpt lat="38.20747235008632" lon="-1.1240938803965936"><ele>250.2</ele><time>2026-04-07T08:38:36Z</time></trkpt><trkpt lat="38.2074490407627" lon="-1.1241979994120452"><ele>250.4</ele><time>2026-04-07T08:38:38Z</time></trkpt><trkpt lat="38.207409776755995" lon="-1.1243094945228984"><ele>250.60000000000002</ele><time>2026-04-07T08:38:40Z</time></trkpt><trkpt lat="38.207376865663136" lon="-1.1244701828347659"><ele>250.8</ele><time>2026-04-07T08:38:44Z</time></trkpt><trkpt lat="38.20736151639011" lon="-1.124565597798203"><ele>251.0</ele><time>2026-04-07T08:38:46Z</time></trkpt><trkpt lat="38.207332870399696" lon="-1.1246683763728447"><ele>250.00000000000003</ele><time>2026-04-07T08:38:47Z</time></trkpt><trkpt lat="38.20730774654098" lon="-1.124755809588002"><ele>249.0</ele><time>2026-04-07T08:38:48Z</time></trkpt><trkpt lat="38.20727479145361" lon="-1.1248243951938102"><ele>248.0</ele><time>2026-04-07T08:38:49Z</time></trkpt><trkpt lat="38.207189004687805" lon="-1.1248359631254488"><ele>247.0</ele><time>2026-04-07T08:38:51Z</time></trkpt><trkpt lat="38.20717366987566" lon="-1.1247201334554031"><ele>246.00000000000003</ele><time>2026-04-07T08:38:53Z</time></trkpt><trkpt lat="38.20720560563196" lon="-1.1246306305154343"><ele>245.0</ele><time>2026-04-07T08:38:54Z</time></trkpt><trkpt lat="38.207239864153046" lon="-1.124532417508141"><ele>245.00000000000003</ele><time>2026-04-07T08:38:55Z</time></trkpt><trkpt lat="38.20727233081582" lon="-1.1244428144220515"><ele>245.0</ele><time>2026-04-07T08:38:56Z</time></trkpt><trkpt lat="38.207292143897945" lon="-1.1243664009366643"><ele>245.0</ele><time>2026-04-07T08:38:57Z</time></trkpt><trkpt lat="38.20731044730982" lon="-1.124232905700124"><ele>245.0</ele><time>2026-04-07T08:38:59Z</time></trkpt><trkpt lat="38.20731517607394" lon="-1.1241295568529228"><ele>245.00000000000003</ele><time>2026-04-07T08:39:02Z</time></trkpt><trkpt lat="38.20733256909996" lon="-1.1240415333153626"><ele>245.0</ele><time>2026-04-07T08:39:05Z</time></trkpt><trkpt lat="38.20733335163076" lon="-1.123960265536338"><ele>246.0</ele><time>2026-04-07T08:39:07Z</time></trkpt><trkpt lat="38.20733294437919" lon="-1.1237842537574008"><ele>247.0</ele><time>2026-04-07T08:39:08Z</time></trkpt><trkpt lat="38.20742020537312" lon="-1.1237915837677173"><ele>248.0</ele><time>2026-04-07T08:39:10Z</time></trkpt><trkpt lat="38.207374786120134" lon="-1.1239598021833932"><ele>249.0</ele><time>2026-04-07T08:39:11Z</time></trkpt><trkpt lat="38.207366351553425" lon="-1.1240534043312096"><ele>250.0</ele><time>2026-04-07T08:39:13Z</time></trkpt><trkpt lat="38.20736463649667" lon="-1.1241476001577564"><ele>250.0</ele><time>2026-04-07T08:39:15Z</time></trkpt><trkpt lat="38.2073352877093" lon="-1.1242904206283197"><ele>250.0</ele><time>2026-04-07T08:39:18Z</time></trkpt><trkpt lat="38.207423830207354" lon="-1.124188338419961"><ele>250.0</ele><time>2026-04-07T08:39:20Z</time></trkpt><trkpt lat="38.20739364198522" lon="-1.1241125024007652"><ele>250.0</ele><time>2026-04-07T08:39:22Z</time></trkpt><trkpt lat="38.20743051307414" lon="-1.124022410661879"><ele>250.0</ele><time>2026-04-07T08:39:26Z</time></trkpt><trkpt lat="38.2074506181504" lon="-1.1241184331889253"><ele>250.14285714285714</ele><time>2026-04-07T08:39:47Z</time></trkpt><trkpt lat="38.20741193897785" lon="-1.1242073708193356"><ele>250.28571428571428</ele><time>2026-04-07T08:39:50Z</time></trkpt><trkpt lat="38.20735441424725" lon="-1.1242491516233624"><ele>250.42857142857142</ele><time>2026-04-07T08:39:53Z</time></trkpt><trkpt lat="38.20729787728445" lon="-1.1242125647501064"><ele>250.57142857142856</ele><time>2026-04-07T08:39:56Z</time></trkpt><trkpt lat="38.20727847277972" lon="-1.1242898637134764"><ele>250.71428571428572</ele><time>2026-04-07T08:39:58Z</time></trkpt><trkpt lat="38.20733658473946" lon="-1.1243238512427105"><ele>250.85714285714283</ele><time>2026-04-07T08:40:02Z</time></trkpt><trkpt lat="38.20736771689107" lon="-1.124220119515075"><ele>250.99999999999997</ele><time>2026-04-07T08:40:04Z</time></trkpt><trkpt lat="38.20740142731642" lon="-1.124138027450862"><ele>250.99999999999997</ele><time>2026-04-07T08:40:07Z</time></trkpt><trkpt lat="38.20744419788524" lon="-1.1240609819457485"><ele>251.0</ele><time>2026-04-07T08:40:12Z</time></trkpt><trkpt lat="38.20745878231226" lon="-1.1239824601623922"><ele>250.99999999999997</ele><time>2026-04-07T08:40:14Z</time></trkpt><trkpt lat="38.2074640866041" lon="-1.1238920431870782"><ele>250.99999999999997</ele><time>2026-04-07T08:40:17Z</time></trkpt><trkpt lat="38.2075296419726" lon="-1.1238865234691628"><ele>251.0</ele><time>2026-04-07T08:40:21Z</time></trkpt><trkpt lat="38.20748626926513" lon="-1.1239907843603596"><ele>250.99999999999997</ele><time>2026-04-07T08:40:25Z</time></trkpt><trkpt lat="38.20744604190771" lon="-1.124081409369266"><ele>250.99999999999997</ele><time>2026-04-07T08:40:27Z</time></trkpt><trkpt lat="38.2074137473956" lon="-1.1241737722274738"><ele>251.00000000000003</ele><time>2026-04-07T08:40:29Z</time></trkpt><trkpt lat="38.207390215217934" lon="-1.1242661329738006"><ele>251.0</ele><time>2026-04-07T08:40:31Z</time></trkpt><trkpt lat="38.20734707932094" lon="-1.12417567459475"><ele>251.0</ele><time>2026-04-07T08:40:34Z</time></trkpt><trkpt lat="38.20733711766042" lon="-1.1240436604053232"><ele>251.0</ele><time>2026-04-07T08:40:36Z</time></trkpt><trkpt lat="38.20732563532833" lon="-1.1239385476334536"><ele>251.00000000000003</ele><time>2026-04-07T08:40:37Z</time></trkpt><trkpt lat="38.20732532036074" lon="-1.1238436063696926"><ele>251.0</ele><time>2026-04-07T08:40:38Z</time></trkpt><trkpt lat="38.207390372223664" lon="-1.1238069783781541"><ele>251.00000000000003</ele><time>2026-04-07T08:40:40Z</time></trkpt><trkpt lat="38.207399896870534" lon="-1.1239073702710256"><ele>251.0</ele><time>2026-04-07T08:40:41Z</time></trkpt><trkpt lat="38.2073802002213" lon="-1.123989314643568"><ele>251.0</ele><time>2026-04-07T08:40:42Z</time></trkpt><trkpt lat="38.207371033493196" lon="-1.1240752573898642"><ele>251.0</ele><time>2026-04-07T08:40:44Z</time></trkpt><trkpt lat="38.207364965857664" lon="-1.1241554372812352"><ele>251.00000000000003</ele><time>2026-04-07T08:40:46Z</time></trkpt><trkpt lat="38.20734566333149" lon="-1.1242607462967922"><ele>251.0</ele><time>2026-04-07T08:40:48Z</time></trkpt><trkpt lat="38.2074281319872" lon="-1.1242173552962462"><ele>251.00000000000003</ele><time>2026-04-07T08:40:51Z</time></trkpt><trkpt lat="38.207442864854656" lon="-1.1241098144375135"><ele>251.0</ele><time>2026-04-07T08:40:53Z</time></trkpt><trkpt lat="38.20744696619628" lon="-1.1240290791360683"><ele>251.0</ele><time>2026-04-07T08:40:54Z</time></trkpt><trkpt lat="38.20744949374772" lon="-1.1239095693855305"><ele>251.0</ele><time>2026-04-07T08:40:56Z</time></trkpt><trkpt lat="38.2075182179251" lon="-1.1238569551122728"><ele>251.00000000000003</ele><time>2026-04-07T08:40:59Z</time></trkpt><trkpt lat="38.20751887933957" lon="-1.1239379326572756"><ele>251.0</ele><time>2026-04-07T08:41:01Z</time></trkpt><trkpt lat="38.20748548905025" lon="-1.1240318287558269"><ele>251.00000000000003</ele><time>2026-04-07T08:41:03Z</time></trkpt><trkpt lat="38.207454244151194" lon="-1.124117569714722"><ele>251.0</ele><time>2026-04-07T08:41:05Z</time></trkpt><trkpt lat="38.20742827715742" lon="-1.1242149999130624"><ele>251.0</ele><time>2026-04-07T08:41:08Z</time></trkpt><trkpt lat="38.207392740250484" lon="-1.1243284707965855"><ele>251.0</ele><time>2026-04-07T08:41:11Z</time></trkpt><trkpt lat="38.2073718996084" lon="-1.124434335370251"><ele>251.00000000000003</ele><time>2026-04-07T08:41:13Z</time></trkpt><trkpt lat="38.207347516787806" lon="-1.1245430659756153"><ele>251.0</ele><time>2026-04-07T08:41:15Z</time></trkpt><trkpt lat="38.20729377130882" lon="-1.1246858204242136"><ele>249.8</ele><time>2026-04-07T08:41:17Z</time></trkpt><trkpt lat="38.2072831034987" lon="-1.1247713975663163"><ele>248.60000000000002</ele><time>2026-04-07T08:41:18Z</time></trkpt><trkpt lat="38.20720224216061" lon="-1.1248437266148656"><ele>247.4</ele><time>2026-04-07T08:41:20Z</time></trkpt><trkpt lat="38.207146437533915" lon="-1.124777115614016"><ele>246.2</ele><time>2026-04-07T08:41:22Z</time></trkpt><trkpt lat="38.207205521356045" lon="-1.1246165232329661"><ele>245.0</ele><time>2026-04-07T08:41:24Z</time></trkpt><trkpt lat="38.20723308630012" lon="-1.1245344374641215"><ele>245.00000000000003</ele><time>2026-04-07T08:41:25Z</time></trkpt><trkpt lat="38.20728022683373" lon="-1.1244071839354144"><ele>245.0</ele><time>2026-04-07T08:41:27Z</time></trkpt><trkpt lat="38.20730946628877" lon="-1.124282279321266"><ele>245.0</ele><time>2026-04-07T08:41:29Z</time></trkpt><trkpt lat="38.20731037235503" lon="-1.1241841959485745"><ele>245.0</ele><time>2026-04-07T08:41:31Z</time></trkpt><trkpt lat="38.20731440955496" lon="-1.1240902268466735"><ele>245.00000000000003</ele><time>2026-04-07T08:41:35Z</time></trkpt><trkpt lat="38.207330548644656" lon="-1.1239974409888456"><ele>245.0</ele><time>2026-04-07T08:41:37Z</time></trkpt><trkpt lat="38.20734649396185" lon="-1.1238715126611354"><ele>245.00000000000003</ele><time>2026-04-07T08:41:38Z</time></trkpt><trkpt lat="38.20734601274026" lon="-1.1237909520049485"><ele>245.0</ele><time>2026-04-07T08:41:39Z</time></trkpt><trkpt lat="38.20741391850021" lon="-1.1238507400946491"><ele>245.0</ele><time>2026-04-07T08:41:41Z</time></trkpt><trkpt lat="38.207373026885314" lon="-1.123947456535048"><ele>245.0</ele><time>2026-04-07T08:43:21Z</time></trkpt><trkpt lat="38.20732348135083" lon="-1.124096788751734"><ele>245.00000000000003</ele><time>2026-04-07T08:43:23Z</time></trkpt><trkpt lat="38.20731625951958" lon="-1.124188565809651"><ele>245.0</ele><time>2026-04-07T08:43:24Z</time></trkpt><trkpt lat="38.207313873350444" lon="-1.1242858875381088"><ele>245.00000000000003</ele><time>2026-04-07T08:43:25Z</time></trkpt><trkpt lat="38.20729733656146" lon="-1.1244140640838618"><ele>245.0</ele><time>2026-04-07T08:43:27Z</time></trkpt><trkpt lat="38.20726899660553" lon="-1.1244996137603007"><ele>245.0</ele><time>2026-04-07T08:43:29Z</time></trkpt><trkpt lat="38.20719764888514" lon="-1.1245992446049327"><ele>245.0</ele><time>2026-04-07T08:43:31Z</time></trkpt><trkpt lat="38.20716860765606" lon="-1.124692090495937"><ele>245.00000000000003</ele><time>2026-04-07T08:43:33Z</time></trkpt><trkpt lat="38.207162395203135" lon="-1.1247731937270777"><ele>245.0</ele><time>2026-04-07T08:43:35Z</time></trkpt><trkpt lat="38.20717030266573" lon="-1.124893928917986"><ele>245.2</ele><time>2026-04-07T08:43:37Z</time></trkpt><trkpt lat="38.207223482659366" lon="-1.1249925070320588"><ele>245.4</ele><time>2026-04-07T08:43:39Z</time></trkpt><trkpt lat="38.2073438691087" lon="-1.125064492499318"><ele>245.60000000000002</ele><time>2026-04-07T08:43:41Z</time></trkpt><trkpt lat="38.20743647238357" lon="-1.1250943974866547"><ele>245.8</ele><time>2026-04-07T08:43:42Z</time></trkpt><trkpt lat="38.20750906874593" lon="-1.1251285893247078"><ele>246.0</ele><time>2026-04-07T08:43:43Z</time></trkpt><trkpt lat="38.20761220065079" lon="-1.1251836724570539"><ele>247.14285714285717</ele><time>2026-04-07T08:43:45Z</time></trkpt><trkpt lat="38.20768081907482" lon="-1.1252118074425714"><ele>248.28571428571428</ele><time>2026-04-07T08:43:47Z</time></trkpt><trkpt lat="38.207768551945705" lon="-1.1252626310943108"><ele>249.42857142857144</ele><time>2026-04-07T08:43:49Z</time></trkpt><trkpt lat="38.20782368261791" lon="-1.125307177687573"><ele>250.57142857142858</ele><time>2026-04-07T08:43:50Z</time></trkpt><trkpt lat="38.207877520713865" lon="-1.125351660739097"><ele>251.71428571428572</ele><time>2026-04-07T08:43:51Z</time></trkpt><trkpt lat="38.20793180560908" lon="-1.1254018900373908"><ele>252.85714285714286</ele><time>2026-04-07T08:43:52Z</time></trkpt><trkpt lat="38.20798512655341" lon="-1.1254590486825657"><ele>254.0</ele><time>2026-04-07T08:43:53Z</time></trkpt><trkpt lat="38.20802970309885" lon="-1.1255311999705169"><ele>254.0</ele><time>2026-04-07T08:43:54Z</time></trkpt><trkpt lat="38.20810015993359" lon="-1.1256363308268529"><ele>253.99999999999997</ele><time>2026-04-07T08:43:56Z</time></trkpt><trkpt lat="38.20815875264143" lon="-1.1257266387459022"><ele>253.99999999999997</ele><time>2026-04-07T08:43:58Z</time></trkpt><trkpt lat="38.20814806616668" lon="-1.1258797561261642"><ele>254.0</ele><time>2026-04-07T08:44:00Z</time></trkpt><trkpt lat="38.208130178507865" lon="-1.12596141431564"><ele>254.0</ele><time>2026-04-07T08:44:01Z</time></trkpt><trkpt lat="38.208103324235346" lon="-1.1261040742540127"><ele>254.2</ele><time>2026-04-07T08:44:03Z</time></trkpt><trkpt lat="38.208082798279236" lon="-1.1262172350067337"><ele>254.39999999999998</ele><time>2026-04-07T08:44:05Z</time></trkpt><trkpt lat="38.20812812984414" lon="-1.1263041022233335"><ele>254.6</ele><time>2026-04-07T08:44:08Z</time></trkpt><trkpt lat="38.20821896021172" lon="-1.12632429617124"><ele>254.8</ele><time>2026-04-07T08:44:10Z</time></trkpt><trkpt lat="38.20830194449787" lon="-1.1263186515495294"><ele>255.0</ele><time>2026-04-07T08:44:12Z</time></trkpt><trkpt lat="38.20842437003987" lon="-1.1263678036884972"><ele>256.4</ele><time>2026-04-07T08:44:14Z</time></trkpt><trkpt lat="38.208494369759535" lon="-1.1264159850539701"><ele>257.8</ele><time>2026-04-07T08:44:15Z</time></trkpt><trkpt lat="38.2085494280257" lon="-1.1264621476112595"><ele>259.2</ele><time>2026-04-07T08:44:16Z</time></trkpt><trkpt lat="38.20863745860643" lon="-1.1265319467862223"><ele>260.6</ele><time>2026-04-07T08:44:18Z</time></trkpt><trkpt lat="38.20873065019385" lon="-1.1265965630837542"><ele>262.0</ele><time>2026-04-07T08:44:20Z</time></trkpt><trkpt lat="38.20880112199862" lon="-1.1266839289932713"><ele>262.0</ele><time>2026-04-07T08:44:22Z</time></trkpt><trkpt lat="38.2088306688916" lon="-1.1267911963898898"><ele>262.0</ele><time>2026-04-07T08:44:24Z</time></trkpt><trkpt lat="38.20886146580905" lon="-1.1268745041811352"><ele>262.0</ele><time>2026-04-07T08:44:26Z</time></trkpt><trkpt lat="38.20886301596919" lon="-1.1269864539957435"><ele>262.0</ele><time>2026-04-07T08:44:29Z</time></trkpt><trkpt lat="38.20880016583271" lon="-1.127081089496457"><ele>262.0</ele><time>2026-04-07T08:44:31Z</time></trkpt><trkpt lat="38.20875057454253" lon="-1.1272404016554558"><ele>262.0</ele><time>2026-04-07T08:44:33Z</time></trkpt><trkpt lat="38.20873523256494" lon="-1.1273404911867315"><ele>262.0</ele><time>2026-04-07T08:44:34Z</time></trkpt><trkpt lat="38.20871673487653" lon="-1.1274298175803703"><ele>262.0</ele><time>2026-04-07T08:44:35Z</time></trkpt><trkpt lat="38.208703182299914" lon="-1.1275151678572215"><ele>262.0</ele><time>2026-04-07T08:44:36Z</time></trkpt><trkpt lat="38.20870680827154" lon="-1.1276387407606678"><ele>262.0</ele><time>2026-04-07T08:44:38Z</time></trkpt><trkpt lat="38.20879287198956" lon="-1.1277167935749937"><ele>262.0</ele><time>2026-04-07T08:44:40Z</time></trkpt><trkpt lat="38.20890986253474" lon="-1.1276854431988454"><ele>266.2</ele><time>2026-04-07T08:44:42Z</time></trkpt><trkpt lat="38.209025308414795" lon="-1.1277591305635348"><ele>270.4</ele><time>2026-04-07T08:44:44Z</time></trkpt><trkpt lat="38.20907408305097" lon="-1.1278294662342676"><ele>274.6</ele><time>2026-04-07T08:44:46Z</time></trkpt><trkpt lat="38.20910646626864" lon="-1.1279055178832185"><ele>278.8</ele><time>2026-04-07T08:44:48Z</time></trkpt><trkpt lat="38.209114827015284" lon="-1.128006215300941"><ele>283.0</ele><time>2026-04-07T08:44:50Z</time></trkpt><trkpt lat="38.20913986969865" lon="-1.1281412744090793"><ele>283.4</ele><time>2026-04-07T08:44:52Z</time></trkpt><trkpt lat="38.209143007281455" lon="-1.1282638597891712"><ele>283.8</ele><time>2026-04-07T08:44:54Z</time></trkpt><trkpt lat="38.209141191077535" lon="-1.128392597226939"><ele>284.2</ele><time>2026-04-07T08:44:56Z</time></trkpt><trkpt lat="38.20912806883049" lon="-1.1285364901778467"><ele>284.6</ele><time>2026-04-07T08:44:58Z</time></trkpt><trkpt lat="38.209136449621866" lon="-1.1286830956774612"><ele>285.0</ele><time>2026-04-07T08:45:00Z</time></trkpt><trkpt lat="38.20912760003463" lon="-1.1288437258103663"><ele>285.0</ele><time>2026-04-07T08:45:02Z</time></trkpt><trkpt lat="38.20913405779701" lon="-1.1289657834914357"><ele>285.0</ele><time>2026-04-07T08:45:04Z</time></trkpt><trkpt lat="38.209172137760945" lon="-1.1290640547259632"><ele>285.0</ele><time>2026-04-07T08:45:06Z</time></trkpt><trkpt lat="38.20921671506776" lon="-1.1291669563132762"><ele>285.0</ele><time>2026-04-07T08:45:08Z</time></trkpt><trkpt lat="38.20924386881685" lon="-1.1293041739972352"><ele>285.0</ele><time>2026-04-07T08:45:10Z</time></trkpt><trkpt lat="38.20928789054637" lon="-1.1294300359797855"><ele>286.4</ele><time>2026-04-07T08:45:12Z</time></trkpt><trkpt lat="38.20930817774611" lon="-1.129508473404182"><ele>287.8</ele><time>2026-04-07T08:45:13Z</time></trkpt><trkpt lat="38.209322778678384" lon="-1.1296308245520656"><ele>289.2</ele><time>2026-04-07T08:45:15Z</time></trkpt><trkpt lat="38.209360311680236" lon="-1.1297790576576912"><ele>290.6</ele><time>2026-04-07T08:45:17Z</time></trkpt><trkpt lat="38.20940052557268" lon="-1.129893163026407"><ele>292.0</ele><time>2026-04-07T08:45:19Z</time></trkpt><trkpt lat="38.20943768804693" lon="-1.1300063473991884"><ele>292.0</ele><time>2026-04-07T08:45:21Z</time></trkpt><trkpt lat="38.20944744643695" lon="-1.1301230815859533"><ele>292.0</ele><time>2026-04-07T08:45:23Z</time></trkpt><trkpt lat="38.20943814701196" lon="-1.1302121503083307"><ele>292.0</ele><time>2026-04-07T08:45:25Z</time></trkpt><trkpt lat="38.20943678142124" lon="-1.1303001859103532"><ele>292.0</ele><time>2026-04-07T08:45:29Z</time></trkpt><trkpt lat="38.209473588245054" lon="-1.1303896732553749"><ele>292.0</ele><time>2026-04-07T08:46:45Z</time></trkpt><trkpt lat="38.20949890846215" lon="-1.1304675158908488"><ele>292.0</ele><time>2026-04-07T08:46:47Z</time></trkpt><trkpt lat="38.209538953305746" lon="-1.130538945473559"><ele>292.0</ele><time>2026-04-07T08:47:48Z</time></trkpt><trkpt lat="38.209625162764546" lon="-1.1305462415029062"><ele>292.0</ele><time>2026-04-07T08:48:01Z</time></trkpt><trkpt lat="38.20968551938111" lon="-1.1305775294254312"><ele>292.0</ele><time>2026-04-07T08:48:04Z</time></trkpt><trkpt lat="38.20976028970802" lon="-1.1305697833617951"><ele>292.0</ele><time>2026-04-07T08:48:09Z</time></trkpt><trkpt lat="38.20982521440837" lon="-1.1305719102713"><ele>292.0</ele><time>2026-04-07T08:48:12Z</time></trkpt><trkpt lat="38.209888753027286" lon="-1.1305697157826327"><ele>292.0</ele><time>2026-04-07T08:49:27Z</time></trkpt><trkpt lat="38.20981242084385" lon="-1.1305576306224208"><ele>292.0</ele><time>2026-04-07T08:55:43Z</time></trkpt><trkpt lat="38.20973740453082" lon="-1.1305536807232917"><ele>292.0</ele><time>2026-04-07T08:55:47Z</time></trkpt><trkpt lat="38.209662568536814" lon="-1.1305874922799561"><ele>292.0</ele><time>2026-04-07T08:55:52Z</time></trkpt><trkpt lat="38.20959957099741" lon="-1.1305412552798728"><ele>292.0</ele><time>2026-04-07T08:55:56Z</time></trkpt><trkpt lat="38.20953009294902" lon="-1.130513289504922"><ele>292.0</ele><time>2026-04-07T08:56:19Z</time></trkpt><trkpt lat="38.20948474371742" lon="-1.1304067540870668"><ele>292.0</ele><time>2026-04-07T08:56:47Z</time></trkpt><trkpt lat="38.20945502486011" lon="-1.130316893705533"><ele>292.0</ele><time>2026-04-07T08:56:49Z</time></trkpt><trkpt lat="38.20943954021772" lon="-1.130230247560561"><ele>292.0</ele><time>2026-04-07T08:56:51Z</time></trkpt><trkpt lat="38.209464026136274" lon="-1.1300976393118078"><ele>292.0</ele><time>2026-04-07T08:56:53Z</time></trkpt><trkpt lat="38.209430950965505" lon="-1.1299509296539865"><ele>292.0</ele><time>2026-04-07T08:56:55Z</time></trkpt><trkpt lat="38.20938959983793" lon="-1.1298399019323884"><ele>292.0</ele><time>2026-04-07T08:56:57Z</time></trkpt><trkpt lat="38.20935098075035" lon="-1.1297284719323928"><ele>292.0</ele><time>2026-04-07T08:56:59Z</time></trkpt><trkpt lat="38.20933354123976" lon="-1.129610287018971"><ele>292.0</ele><time>2026-04-07T08:57:01Z</time></trkpt><trkpt lat="38.20931386991232" lon="-1.1295166169550097"><ele>292.0</ele><time>2026-04-07T08:57:03Z</time></trkpt><trkpt lat="38.20928278187633" lon="-1.129385009825372"><ele>292.0</ele><time>2026-04-07T08:57:05Z</time></trkpt><trkpt lat="38.209244380226906" lon="-1.1292658448806812"><ele>292.0</ele><time>2026-04-07T08:57:07Z</time></trkpt><trkpt lat="38.20921264240566" lon="-1.1291548429700338"><ele>292.0</ele><time>2026-04-07T08:57:09Z</time></trkpt><trkpt lat="38.209169845939044" lon="-1.1290521649202088"><ele>292.0</ele><time>2026-04-07T08:57:11Z</time></trkpt><trkpt lat="38.20914015993309" lon="-1.128953058231674"><ele>290.8333333333333</ele><time>2026-04-07T08:57:13Z</time></trkpt><trkpt lat="38.20912797419931" lon="-1.1288738335380222"><ele>289.66666666666663</ele><time>2026-04-07T08:57:14Z</time></trkpt><trkpt lat="38.20912412592676" lon="-1.1287868010995215"><ele>288.5</ele><time>2026-04-07T08:57:15Z</time></trkpt><trkpt lat="38.209138850349184" lon="-1.1287057276884225"><ele>287.3333333333333</ele><time>2026-04-07T08:57:16Z</time></trkpt><trkpt lat="38.20914231274671" lon="-1.1285710931186437"><ele>286.1666666666667</ele><time>2026-04-07T08:57:18Z</time></trkpt><trkpt lat="38.2091426213133" lon="-1.1284070957853063"><ele>285.0</ele><time>2026-04-07T08:57:20Z</time></trkpt><trkpt lat="38.20915279059657" lon="-1.1283248589378208"><ele>284.6</ele><time>2026-04-07T08:57:21Z</time></trkpt><trkpt lat="38.20914041577" lon="-1.1281741051697722"><ele>284.2</ele><time>2026-04-07T08:57:23Z</time></trkpt><trkpt lat="38.20912796712613" lon="-1.128033405463933"><ele>283.8</ele><time>2026-04-07T08:57:25Z</time></trkpt><trkpt lat="38.20909892104309" lon="-1.1279228991866124"><ele>283.4</ele><time>2026-04-07T08:57:27Z</time></trkpt><trkpt lat="38.20902993843628" lon="-1.1278038742377925"><ele>283.0</ele><time>2026-04-07T08:57:30Z</time></trkpt><trkpt lat="38.208955570331625" lon="-1.1277537485963816"><ele>279.8333333333333</ele><time>2026-04-07T08:57:31Z</time></trkpt><trkpt lat="38.20887361679399" lon="-1.1277233426213809"><ele>276.66666666666663</ele><time>2026-04-07T08:57:32Z</time></trkpt><trkpt lat="38.20879863614163" lon="-1.1277115116369527"><ele>273.5</ele><time>2026-04-07T08:57:33Z</time></trkpt><trkpt lat="38.208722776490916" lon="-1.1277057502389747"><ele>270.3333333333333</ele><time>2026-04-07T08:57:34Z</time></trkpt><trkpt lat="38.2086417359571" lon="-1.1276950338624125"><ele>267.1666666666667</ele><time>2026-04-07T08:57:35Z</time></trkpt><trkpt lat="38.20856908241105" lon="-1.127675857394909"><ele>264.0</ele><time>2026-04-07T08:57:36Z</time></trkpt><trkpt lat="38.20850408702922" lon="-1.1276591432261014"><ele>264.0</ele><time>2026-04-07T08:57:37Z</time></trkpt><trkpt lat="38.20843546602939" lon="-1.1276307590961974"><ele>264.0</ele><time>2026-04-07T08:57:38Z</time></trkpt><trkpt lat="38.20836789866903" lon="-1.1276163832483064"><ele>264.0</ele><time>2026-04-07T08:57:39Z</time></trkpt><trkpt lat="38.20826499964093" lon="-1.1275810130995592"><ele>264.0</ele><time>2026-04-07T08:57:41Z</time></trkpt><trkpt lat="38.20814428817705" lon="-1.1275649886351111"><ele>264.0</ele><time>2026-04-07T08:57:43Z</time></trkpt><trkpt lat="38.20807426482126" lon="-1.1275532112903408"><ele>264.0</ele><time>2026-04-07T08:57:44Z</time></trkpt><trkpt lat="38.20801062639928" lon="-1.127540260903044"><ele>263.1428571428571</ele><time>2026-04-07T08:57:45Z</time></trkpt><trkpt lat="38.20794375121851" lon="-1.1275260909458493"><ele>262.2857142857143</ele><time>2026-04-07T08:57:46Z</time></trkpt><trkpt lat="38.20788090722599" lon="-1.127512062815343"><ele>261.42857142857144</ele><time>2026-04-07T08:57:47Z</time></trkpt><trkpt lat="38.2078165640519" lon="-1.1274966518052267"><ele>260.57142857142856</ele><time>2026-04-07T08:57:48Z</time></trkpt><trkpt lat="38.20774716661411" lon="-1.127483782602931"><ele>259.7142857142857</ele><time>2026-04-07T08:57:49Z</time></trkpt><trkpt lat="38.20766178347603" lon="-1.127460607870292"><ele>258.85714285714283</ele><time>2026-04-07T08:57:50Z</time></trkpt><trkpt lat="38.20757205426226" lon="-1.127433803111439"><ele>258.0</ele><time>2026-04-07T08:57:51Z</time></trkpt><trkpt lat="38.20747683242357" lon="-1.1274154861492718"><ele>258.0</ele><time>2026-04-07T08:57:52Z</time></trkpt><trkpt lat="38.20736613205841" lon="-1.1273956789376651"><ele>258.0</ele><time>2026-04-07T08:57:53Z</time></trkpt><trkpt lat="38.20725826326306" lon="-1.1273766759701795"><ele>258.0</ele><time>2026-04-07T08:57:54Z</time></trkpt><trkpt lat="38.20716002365835" lon="-1.1273587980126354"><ele>258.0</ele><time>2026-04-07T08:57:55Z</time></trkpt><trkpt lat="38.207073585958234" lon="-1.1273387731633964"><ele>258.0</ele><time>2026-04-07T08:57:56Z</time></trkpt><trkpt lat="38.206999460767875" lon="-1.1273245177745488"><ele>256.71428571428567</ele><time>2026-04-07T08:57:57Z</time></trkpt><trkpt lat="38.20693601095778" lon="-1.1273104474782674"><ele>255.42857142857142</ele><time>2026-04-07T08:57:58Z</time></trkpt><trkpt lat="38.20687545365597" lon="-1.1272856956567758"><ele>254.1428571428571</ele><time>2026-04-07T08:57:59Z</time></trkpt><trkpt lat="38.20680233548192" lon="-1.1272616925734293"><ele>252.85714285714283</ele><time>2026-04-07T08:58:00Z</time></trkpt><trkpt lat="38.206729995500865" lon="-1.1272431413806234"><ele>251.57142857142856</ele><time>2026-04-07T08:58:01Z</time></trkpt><trkpt lat="38.20665496132773" lon="-1.1272250370599493"><ele>250.28571428571428</ele><time>2026-04-07T08:58:02Z</time></trkpt><trkpt lat="38.206578303996636" lon="-1.1272095745647355"><ele>249.0</ele><time>2026-04-07T08:58:03Z</time></trkpt><trkpt lat="38.20649167601224" lon="-1.127201173508975"><ele>248.16666666666666</ele><time>2026-04-07T08:58:04Z</time></trkpt><trkpt lat="38.206409376587835" lon="-1.127191999588462"><ele>247.33333333333331</ele><time>2026-04-07T08:58:05Z</time></trkpt><trkpt lat="38.20632638916614" lon="-1.127169768102254"><ele>246.5</ele><time>2026-04-07T08:58:06Z</time></trkpt><trkpt lat="38.20623939472147" lon="-1.127144430890979"><ele>245.66666666666666</ele><time>2026-04-07T08:58:07Z</time></trkpt><trkpt lat="38.20614695132775" lon="-1.1271199585941434"><ele>244.83333333333331</ele><time>2026-04-07T08:58:08Z</time></trkpt><trkpt lat="38.20605913740442" lon="-1.1270985574610113"><ele>244.0</ele><time>2026-04-07T08:58:09Z</time></trkpt><trkpt lat="38.2059757344325" lon="-1.127073650187866"><ele>243.99999999999997</ele><time>2026-04-07T08:58:10Z</time></trkpt><trkpt lat="38.20589371315046" lon="-1.1270505739468928"><ele>244.0</ele><time>2026-04-07T08:58:11Z</time></trkpt><trkpt lat="38.20581107519275" lon="-1.12702462990165"><ele>244.0</ele><time>2026-04-07T08:58:12Z</time></trkpt><trkpt lat="38.205733640910736" lon="-1.127004714855962"><ele>244.0</ele><time>2026-04-07T08:58:13Z</time></trkpt><trkpt lat="38.20565561348058" lon="-1.126981616501029"><ele>243.99999999999997</ele><time>2026-04-07T08:58:14Z</time></trkpt><trkpt lat="38.20557651265279" lon="-1.1269652882723875"><ele>244.0</ele><time>2026-04-07T08:58:15Z</time></trkpt><trkpt lat="38.20549666905195" lon="-1.12694549820406"><ele>243.16666666666666</ele><time>2026-04-07T08:58:16Z</time></trkpt><trkpt lat="38.20541553550408" lon="-1.1269211370638395"><ele>242.33333333333331</ele><time>2026-04-07T08:58:17Z</time></trkpt><trkpt lat="38.20533585545316" lon="-1.1269047826739769"><ele>241.5</ele><time>2026-04-07T08:58:18Z</time></trkpt><trkpt lat="38.20526260332989" lon="-1.1268846619344588"><ele>240.66666666666669</ele><time>2026-04-07T08:58:19Z</time></trkpt><trkpt lat="38.20518867304948" lon="-1.1268594346600251"><ele>239.83333333333334</ele><time>2026-04-07T08:58:20Z</time></trkpt><trkpt lat="38.20511809988379" lon="-1.1268348687317813"><ele>239.0</ele><time>2026-04-07T08:58:21Z</time></trkpt><trkpt lat="38.205052227222914" lon="-1.1268113178463697"><ele>239.00000000000003</ele><time>2026-04-07T08:58:22Z</time></trkpt><trkpt lat="38.204989932876195" lon="-1.12679619434724"><ele>239.0</ele><time>2026-04-07T08:58:23Z</time></trkpt><trkpt lat="38.20492508883132" lon="-1.12681269801565"><ele>239.0</ele><time>2026-04-07T08:58:24Z</time></trkpt><trkpt lat="38.204865230630816" lon="-1.1267828297610178"><ele>239.0</ele><time>2026-04-07T08:58:26Z</time></trkpt><trkpt lat="38.2048097822407" lon="-1.1269659866653223"><ele>239.00000000000003</ele><time>2026-04-07T08:58:27Z</time></trkpt><trkpt lat="38.204781921512996" lon="-1.1270728345313754"><ele>239.0</ele><time>2026-04-07T08:58:28Z</time></trkpt><trkpt lat="38.20477136819323" lon="-1.127187621915591"><ele>238.2</ele><time>2026-04-07T08:58:29Z</time></trkpt><trkpt lat="38.20475525423269" lon="-1.12730482219695"><ele>237.39999999999998</ele><time>2026-04-07T08:58:30Z</time></trkpt><trkpt lat="38.204723310657755" lon="-1.1274579409576568"><ele>236.6</ele><time>2026-04-07T08:58:31Z</time></trkpt><trkpt lat="38.204696531231974" lon="-1.1275865723105585"><ele>235.8</ele><time>2026-04-07T08:58:32Z</time></trkpt><trkpt lat="38.20467440916107" lon="-1.1277065653899638"><ele>235.0</ele><time>2026-04-07T08:58:33Z</time></trkpt><trkpt lat="38.20465634296037" lon="-1.1278203456103189"><ele>234.99999999999997</ele><time>2026-04-07T08:58:34Z</time></trkpt><trkpt lat="38.20463088467337" lon="-1.1279304668606083"><ele>235.0</ele><time>2026-04-07T08:58:35Z</time></trkpt><trkpt lat="38.20460607153048" lon="-1.1280381875655119"><ele>235.0</ele><time>2026-04-07T08:58:36Z</time></trkpt><trkpt lat="38.20458749439099" lon="-1.1281453706712523"><ele>235.0</ele><time>2026-04-07T08:58:37Z</time></trkpt><trkpt lat="38.20457141088082" lon="-1.128254106266503"><ele>234.99999999999997</ele><time>2026-04-07T08:58:38Z</time></trkpt><trkpt lat="38.20454628362053" lon="-1.1283639311979232"><ele>235.0</ele><time>2026-04-07T08:58:39Z</time></trkpt><trkpt lat="38.20452429043776" lon="-1.1284697156743166"><ele>234.8</ele><time>2026-04-07T08:58:40Z</time></trkpt><trkpt lat="38.204505319312304" lon="-1.1285816917532534"><ele>234.6</ele><time>2026-04-07T08:58:41Z</time></trkpt><trkpt lat="38.204485245976215" lon="-1.1286974160649597"><ele>234.39999999999998</ele><time>2026-04-07T08:58:42Z</time></trkpt><trkpt lat="38.20446374331339" lon="-1.1288118564623553"><ele>234.2</ele><time>2026-04-07T08:58:43Z</time></trkpt><trkpt lat="38.20444078607128" lon="-1.1289313810969457"><ele>234.0</ele><time>2026-04-07T08:58:44Z</time></trkpt><trkpt lat="38.20441777307605" lon="-1.1290485115909847"><ele>234.39999999999998</ele><time>2026-04-07T08:58:45Z</time></trkpt><trkpt lat="38.20439323517977" lon="-1.1291698666482235"><ele>234.79999999999998</ele><time>2026-04-07T08:58:46Z</time></trkpt><trkpt lat="38.20436993698505" lon="-1.1292894505420588"><ele>235.20000000000002</ele><time>2026-04-07T08:58:47Z</time></trkpt><trkpt lat="38.20434635876237" lon="-1.1294128090382074"><ele>235.60000000000002</ele><time>2026-04-07T08:58:48Z</time></trkpt><trkpt lat="38.20432211247291" lon="-1.1295330287882188"><ele>236.0</ele><time>2026-04-07T08:58:49Z</time></trkpt><trkpt lat="38.20430242070736" lon="-1.1296473342981435"><ele>236.00000000000003</ele><time>2026-04-07T08:58:50Z</time></trkpt><trkpt lat="38.20429109774714" lon="-1.1297521810866675"><ele>236.0</ele><time>2026-04-07T08:58:51Z</time></trkpt><trkpt lat="38.20428395340225" lon="-1.129852401099141"><ele>236.0</ele><time>2026-04-07T08:58:52Z</time></trkpt><trkpt lat="38.204268490274565" lon="-1.1299445884073043"><ele>236.0</ele><time>2026-04-07T08:58:53Z</time></trkpt><trkpt lat="38.20426500951701" lon="-1.1300351720882729"><ele>236.00000000000003</ele><time>2026-04-07T08:58:54Z</time></trkpt><trkpt lat="38.20419261843044" lon="-1.130099180969961"><ele>236.0</ele><time>2026-04-07T08:58:55Z</time></trkpt><trkpt lat="38.20412884122704" lon="-1.1301425826173506"><ele>235.8</ele><time>2026-04-07T08:58:56Z</time></trkpt><trkpt lat="38.20403893460804" lon="-1.1301667164114517"><ele>235.60000000000002</ele><time>2026-04-07T08:58:57Z</time></trkpt><trkpt lat="38.203933310244636" lon="-1.130177917101799"><ele>235.4</ele><time>2026-04-07T08:58:58Z</time></trkpt><trkpt lat="38.20383831922713" lon="-1.130186733169061"><ele>235.2</ele><time>2026-04-07T08:58:59Z</time></trkpt><trkpt lat="38.20374740370554" lon="-1.130192624654354"><ele>235.0</ele><time>2026-04-07T08:59:00Z</time></trkpt><trkpt lat="38.20365979871379" lon="-1.1301943681134063"><ele>234.99999999999997</ele><time>2026-04-07T08:59:01Z</time></trkpt><trkpt lat="38.20358667981625" lon="-1.1301968609333608"><ele>235.0</ele><time>2026-04-07T08:59:02Z</time></trkpt><trkpt lat="38.203524059058175" lon="-1.1302085136636826"><ele>235.0</ele><time>2026-04-07T08:59:03Z</time></trkpt><trkpt lat="38.20343976517595" lon="-1.1301980235335976"><ele>235.0</ele><time>2026-04-07T08:59:05Z</time></trkpt><trkpt lat="38.203416293436156" lon="-1.1303458330609677"><ele>234.99999999999997</ele><time>2026-04-07T08:59:07Z</time></trkpt><trkpt lat="38.20338374501743" lon="-1.130434129972797"><ele>235.0</ele><time>2026-04-07T08:59:08Z</time></trkpt><trkpt lat="38.20337134286343" lon="-1.1305358338689155"><ele>234.99999999999997</ele><time>2026-04-07T08:59:09Z</time></trkpt><trkpt lat="38.20335447055214" lon="-1.1306295498118637"><ele>235.0</ele><time>2026-04-07T08:59:10Z</time></trkpt><trkpt lat="38.20334095859969" lon="-1.1307290358084383"><ele>235.0</ele><time>2026-04-07T08:59:11Z</time></trkpt><trkpt lat="38.20332513493305" lon="-1.1308346589319327"><ele>235.0</ele><time>2026-04-07T08:59:12Z</time></trkpt><trkpt lat="38.203312839035654" lon="-1.130937101836289"><ele>234.99999999999997</ele><time>2026-04-07T08:59:13Z</time></trkpt><trkpt lat="38.20330062298675" lon="-1.1310342528929227"><ele>235.0</ele><time>2026-04-07T08:59:14Z</time></trkpt><trkpt lat="38.20328325188903" lon="-1.1311404115614787"><ele>234.99999999999997</ele><time>2026-04-07T08:59:15Z</time></trkpt><trkpt lat="38.2032587987788" lon="-1.1312489297248218"><ele>235.0</ele><time>2026-04-07T08:59:16Z</time></trkpt><trkpt lat="38.20323641900208" lon="-1.131360368079538"><ele>235.0</ele><time>2026-04-07T08:59:17Z</time></trkpt><trkpt lat="38.20320185116013" lon="-1.131435128417028"><ele>235.0</ele><time>2026-04-07T08:59:18Z</time></trkpt><trkpt lat="38.20321355251492" lon="-1.1315199106939557"><ele>234.99999999999997</ele><time>2026-04-07T08:59:19Z</time></trkpt><trkpt lat="38.203272951130806" lon="-1.1315785605324673"><ele>235.0</ele><time>2026-04-07T08:59:20Z</time></trkpt><trkpt lat="38.20333504368528" lon="-1.131630619797375"><ele>234.99999999999997</ele><time>2026-04-07T08:59:21Z</time></trkpt><trkpt lat="38.20338757304797" lon="-1.131701228665928"><ele>235.0</ele><time>2026-04-07T08:59:22Z</time></trkpt><trkpt lat="38.20341179049161" lon="-1.131813667829181"><ele>235.0</ele><time>2026-04-07T08:59:23Z</time></trkpt><trkpt lat="38.203433223168275" lon="-1.131915958651959"><ele>235.0</ele><time>2026-04-07T08:59:24Z</time></trkpt><trkpt lat="38.203444601883184" lon="-1.1320197935814849"><ele>234.99999999999997</ele><time>2026-04-07T08:59:25Z</time></trkpt><trkpt lat="38.20344281445578" lon="-1.1321276167773262"><ele>235.0</ele><time>2026-04-07T08:59:26Z</time></trkpt><trkpt lat="38.20343437592922" lon="-1.1322456792460929"><ele>234.99999999999997</ele><time>2026-04-07T08:59:27Z</time></trkpt><trkpt lat="38.2033813285056" lon="-1.132346595970436"><ele>235.0</ele><time>2026-04-07T08:59:28Z</time></trkpt><trkpt lat="38.20334966962893" lon="-1.132448379206776"><ele>235.0</ele><time>2026-04-07T08:59:29Z</time></trkpt><trkpt lat="38.20334286647596" lon="-1.13255105248634"><ele>235.0</ele><time>2026-04-07T08:59:30Z</time></trkpt><trkpt lat="38.203316923845" lon="-1.1326328475980973"><ele>234.99999999999997</ele><time>2026-04-07T08:59:31Z</time></trkpt><trkpt lat="38.2033557212076" lon="-1.1327161962179155"><ele>235.0</ele><time>2026-04-07T08:59:32Z</time></trkpt><trkpt lat="38.20340288285866" lon="-1.1327811740879934"><ele>235.49999999999997</ele><time>2026-04-07T08:59:33Z</time></trkpt><trkpt lat="38.20347239842206" lon="-1.1328211766813054"><ele>236.0</ele><time>2026-04-07T08:59:34Z</time></trkpt><trkpt lat="38.20355268155705" lon="-1.132864137158145"><ele>236.5</ele><time>2026-04-07T08:59:35Z</time></trkpt><trkpt lat="38.203615770854626" lon="-1.1329221893278205"><ele>237.0</ele><time>2026-04-07T08:59:36Z</time></trkpt><trkpt lat="38.203668214171685" lon="-1.1330107739543018"><ele>237.49999999999997</ele><time>2026-04-07T08:59:37Z</time></trkpt><trkpt lat="38.20367622358306" lon="-1.1331344294826224"><ele>238.0</ele><time>2026-04-07T08:59:38Z</time></trkpt><trkpt lat="38.203625120224885" lon="-1.1332513537752504"><ele>237.99999999999997</ele><time>2026-04-07T08:59:39Z</time></trkpt><trkpt lat="38.203595690325045" lon="-1.1333609316187347"><ele>238.0</ele><time>2026-04-07T08:59:40Z</time></trkpt><trkpt lat="38.20356593843311" lon="-1.1334632124949655"><ele>238.0</ele><time>2026-04-07T08:59:41Z</time></trkpt><trkpt lat="38.203545228819124" lon="-1.1335677673376112"><ele>238.0</ele><time>2026-04-07T08:59:42Z</time></trkpt><trkpt lat="38.20351978043353" lon="-1.133670919763427"><ele>237.99999999999997</ele><time>2026-04-07T08:59:43Z</time></trkpt><trkpt lat="38.20349402085448" lon="-1.1337754451664837"><ele>238.0</ele><time>2026-04-07T08:59:44Z</time></trkpt><trkpt lat="38.203469908785024" lon="-1.133877565563959"><ele>237.99999999999997</ele><time>2026-04-07T08:59:45Z</time></trkpt><trkpt lat="38.20344569229417" lon="-1.1339816810216257"><ele>238.0</ele><time>2026-04-07T08:59:46Z</time></trkpt><trkpt lat="38.20342215402735" lon="-1.134082081354499"><ele>238.0</ele><time>2026-04-07T08:59:47Z</time></trkpt><trkpt lat="38.20340192875122" lon="-1.1341831977463166"><ele>238.0</ele><time>2026-04-07T08:59:48Z</time></trkpt><trkpt lat="38.20338476902221" lon="-1.1342867216600068"><ele>237.99999999999997</ele><time>2026-04-07T08:59:49Z</time></trkpt><trkpt lat="38.203380171256065" lon="-1.1343992881993654"><ele>238.0</ele><time>2026-04-07T08:59:50Z</time></trkpt><trkpt lat="38.203393969051945" lon="-1.1345201164517476"><ele>237.8</ele><time>2026-04-07T08:59:51Z</time></trkpt><trkpt lat="38.203404903249144" lon="-1.1346427509562302"><ele>237.60000000000002</ele><time>2026-04-07T08:59:52Z</time></trkpt><trkpt lat="38.20340904628724" lon="-1.1347730505082927"><ele>237.39999999999998</ele><time>2026-04-07T08:59:53Z</time></trkpt><trkpt lat="38.20341023726356" lon="-1.134918525231524"><ele>237.2</ele><time>2026-04-07T08:59:54Z</time></trkpt><trkpt lat="38.20340048502575" lon="-1.1350788707201382"><ele>237.0</ele><time>2026-04-07T08:59:55Z</time></trkpt><trkpt lat="38.20338523409523" lon="-1.1352260390200517"><ele>237.2</ele><time>2026-04-07T08:59:56Z</time></trkpt><trkpt lat="38.20336959413308" lon="-1.1353477965192609"><ele>237.39999999999998</ele><time>2026-04-07T08:59:57Z</time></trkpt><trkpt lat="38.20334285432284" lon="-1.1354627201984173"><ele>237.60000000000002</ele><time>2026-04-07T08:59:58Z</time></trkpt><trkpt lat="38.203293439936964" lon="-1.135567532599328"><ele>237.8</ele><time>2026-04-07T08:59:59Z</time></trkpt><trkpt lat="38.20321924655427" lon="-1.1356742805871909"><ele>238.0</ele><time>2026-04-07T09:00:00Z</time></trkpt><trkpt lat="38.20317512442495" lon="-1.1357763059889792"><ele>237.60000000000002</ele><time>2026-04-07T09:00:01Z</time></trkpt><trkpt lat="38.203122040193676" lon="-1.1358680301171356"><ele>237.20000000000002</ele><time>2026-04-07T09:00:02Z</time></trkpt><trkpt lat="38.203063267688066" lon="-1.1359465229669885"><ele>236.8</ele><time>2026-04-07T09:00:03Z</time></trkpt><trkpt lat="38.20302048259487" lon="-1.136046957775277"><ele>236.4</ele><time>2026-04-07T09:00:04Z</time></trkpt><trkpt lat="38.20298522536539" lon="-1.136159709568906"><ele>236.0</ele><time>2026-04-07T09:00:05Z</time></trkpt><trkpt lat="38.202958319523574" lon="-1.136282004640754"><ele>236.0</ele><time>2026-04-07T09:00:06Z</time></trkpt><trkpt lat="38.20293897012094" lon="-1.1364090118001786"><ele>236.00000000000003</ele><time>2026-04-07T09:00:07Z</time></trkpt><trkpt lat="38.202922747362116" lon="-1.1365429389663257"><ele>236.00000000000003</ele><time>2026-04-07T09:00:08Z</time></trkpt><trkpt lat="38.202907768181866" lon="-1.1366842800736208"><ele>236.0</ele><time>2026-04-07T09:00:09Z</time></trkpt><trkpt lat="38.202886746067605" lon="-1.1368285628599546"><ele>236.0</ele><time>2026-04-07T09:00:10Z</time></trkpt><trkpt lat="38.20285924099185" lon="-1.1369687219522808"><ele>236.0</ele><time>2026-04-07T09:00:11Z</time></trkpt><trkpt lat="38.202830336374134" lon="-1.137101297162787"><ele>236.00000000000003</ele><time>2026-04-07T09:00:12Z</time></trkpt><trkpt lat="38.2028025778963" lon="-1.1372283837078643"><ele>236.00000000000003</ele><time>2026-04-07T09:00:13Z</time></trkpt><trkpt lat="38.202774552308426" lon="-1.1373534970376233"><ele>236.0</ele><time>2026-04-07T09:00:14Z</time></trkpt><trkpt lat="38.20274651167756" lon="-1.1374743286143916"><ele>236.0</ele><time>2026-04-07T09:00:15Z</time></trkpt><trkpt lat="38.2027199445199" lon="-1.1375988032639326"><ele>236.16666666666669</ele><time>2026-04-07T09:00:16Z</time></trkpt><trkpt lat="38.20269031094681" lon="-1.1377189570071293"><ele>236.33333333333334</ele><time>2026-04-07T09:00:17Z</time></trkpt><trkpt lat="38.20265944224668" lon="-1.137825071976852"><ele>236.5</ele><time>2026-04-07T09:00:18Z</time></trkpt><trkpt lat="38.20263092574947" lon="-1.1379316162222914"><ele>236.66666666666669</ele><time>2026-04-07T09:00:19Z</time></trkpt><trkpt lat="38.20260921423727" lon="-1.1380343746501431"><ele>236.83333333333334</ele><time>2026-04-07T09:00:20Z</time></trkpt><trkpt lat="38.202590585726945" lon="-1.138115751434319"><ele>237.0</ele><time>2026-04-07T09:00:21Z</time></trkpt><trkpt lat="38.20257560929208" lon="-1.138223450481653"><ele>237.0</ele><time>2026-04-07T09:00:23Z</time></trkpt><trkpt lat="38.20265310521082" lon="-1.138306812277316"><ele>237.0</ele><time>2026-04-07T09:00:26Z</time></trkpt><trkpt lat="38.20273163381857" lon="-1.1382991799697693"><ele>237.0</ele><time>2026-04-07T09:00:27Z</time></trkpt><trkpt lat="38.20280661802055" lon="-1.1383189259812947"><ele>237.0</ele><time>2026-04-07T09:00:28Z</time></trkpt><trkpt lat="38.20288999626507" lon="-1.1383350063535256"><ele>237.0</ele><time>2026-04-07T09:00:29Z</time></trkpt><trkpt lat="38.202963428034614" lon="-1.1383530099341874"><ele>237.0</ele><time>2026-04-07T09:00:30Z</time></trkpt><trkpt lat="38.20305067334533" lon="-1.1383798895706625"><ele>237.0</ele><time>2026-04-07T09:00:31Z</time></trkpt><trkpt lat="38.203139046700386" lon="-1.1384127125171004"><ele>237.0</ele><time>2026-04-07T09:00:32Z</time></trkpt><trkpt lat="38.20322462003772" lon="-1.1384448668037181"><ele>237.0</ele><time>2026-04-07T09:00:33Z</time></trkpt><trkpt lat="38.20330614648711" lon="-1.1384707655785347"><ele>237.0</ele><time>2026-04-07T09:00:34Z</time></trkpt><trkpt lat="38.20339148038209" lon="-1.1384987197920406"><ele>237.0</ele><time>2026-04-07T09:00:35Z</time></trkpt><trkpt lat="38.20347938268199" lon="-1.1385288720843696"><ele>237.0</ele><time>2026-04-07T09:00:36Z</time></trkpt><trkpt lat="38.20358463215967" lon="-1.1385424422802375"><ele>237.8</ele><time>2026-04-07T09:00:37Z</time></trkpt><trkpt lat="38.20368480002454" lon="-1.138544457556707"><ele>238.6</ele><time>2026-04-07T09:00:38Z</time></trkpt><trkpt lat="38.20378244638122" lon="-1.1385453134643289"><ele>239.40000000000003</ele><time>2026-04-07T09:00:39Z</time></trkpt><trkpt lat="38.203876601426295" lon="-1.1385249497768575"><ele>240.20000000000002</ele><time>2026-04-07T09:00:40Z</time></trkpt><trkpt lat="38.203967204305535" lon="-1.1384914734743776"><ele>241.0</ele><time>2026-04-07T09:00:41Z</time></trkpt><trkpt lat="38.20405667466909" lon="-1.1384410515305605"><ele>241.8</ele><time>2026-04-07T09:00:42Z</time></trkpt><trkpt lat="38.204154375695445" lon="-1.1383853759653488"><ele>242.60000000000002</ele><time>2026-04-07T09:00:43Z</time></trkpt><trkpt lat="38.20425302630806" lon="-1.1383305961885282"><ele>243.4</ele><time>2026-04-07T09:00:44Z</time></trkpt><trkpt lat="38.204341132486306" lon="-1.1382821893818718"><ele>244.2</ele><time>2026-04-07T09:00:45Z</time></trkpt><trkpt lat="38.20442705441603" lon="-1.1382404475961987"><ele>245.0</ele><time>2026-04-07T09:00:46Z</time></trkpt><trkpt lat="38.20451612550198" lon="-1.138214071165756"><ele>245.0</ele><time>2026-04-07T09:00:47Z</time></trkpt><trkpt lat="38.20461628501137" lon="-1.1382069002772663"><ele>245.0</ele><time>2026-04-07T09:00:48Z</time></trkpt><trkpt lat="38.20471475001297" lon="-1.1382355670626685"><ele>245.0</ele><time>2026-04-07T09:00:49Z</time></trkpt><trkpt lat="38.20480817926443" lon="-1.138276836306203"><ele>245.0</ele><time>2026-04-07T09:00:50Z</time></trkpt><trkpt lat="38.20490256010617" lon="-1.1383260954874925"><ele>245.0</ele><time>2026-04-07T09:00:51Z</time></trkpt><trkpt lat="38.2049915054592" lon="-1.1383851561687734"><ele>246.2</ele><time>2026-04-07T09:00:52Z</time></trkpt><trkpt lat="38.20507687585712" lon="-1.1384423154410885"><ele>247.4</ele><time>2026-04-07T09:00:53Z</time></trkpt><trkpt lat="38.20516234562004" lon="-1.1385069319870376"><ele>248.60000000000002</ele><time>2026-04-07T09:00:54Z</time></trkpt><trkpt lat="38.20524524744571" lon="-1.1385810867874036"><ele>249.8</ele><time>2026-04-07T09:00:55Z</time></trkpt><trkpt lat="38.20532409636129" lon="-1.1386611389957242"><ele>251.0</ele><time>2026-04-07T09:00:56Z</time></trkpt><trkpt lat="38.20539610517094" lon="-1.1387411450589286"><ele>251.0</ele><time>2026-04-07T09:00:57Z</time></trkpt><trkpt lat="38.205463229287695" lon="-1.1388200651902143"><ele>251.00000000000003</ele><time>2026-04-07T09:00:58Z</time></trkpt><trkpt lat="38.205520990891266" lon="-1.1389090442031793"><ele>251.00000000000003</ele><time>2026-04-07T09:00:59Z</time></trkpt><trkpt lat="38.20556803695279" lon="-1.1390140674135618"><ele>251.0</ele><time>2026-04-07T09:01:00Z</time></trkpt><trkpt lat="38.205619342482244" lon="-1.1391198639034328"><ele>251.0</ele><time>2026-04-07T09:01:01Z</time></trkpt><trkpt lat="38.205637354875556" lon="-1.1392471775431596"><ele>251.8</ele><time>2026-04-07T09:01:02Z</time></trkpt><trkpt lat="38.20562581509753" lon="-1.1393752744309038"><ele>252.60000000000002</ele><time>2026-04-07T09:01:03Z</time></trkpt><trkpt lat="38.20563380868909" lon="-1.1394914557906142"><ele>253.4</ele><time>2026-04-07T09:01:04Z</time></trkpt><trkpt lat="38.20565440700755" lon="-1.1396070783390948"><ele>254.2</ele><time>2026-04-07T09:01:05Z</time></trkpt><trkpt lat="38.20568359503352" lon="-1.1397156754440199"><ele>255.0</ele><time>2026-04-07T09:01:06Z</time></trkpt><trkpt lat="38.20572845626735" lon="-1.1398193342460348"><ele>256.2</ele><time>2026-04-07T09:01:07Z</time></trkpt><trkpt lat="38.20576854439182" lon="-1.1399156955303789"><ele>257.4</ele><time>2026-04-07T09:01:08Z</time></trkpt><trkpt lat="38.2058026768535" lon="-1.1400124365028073"><ele>258.6</ele><time>2026-04-07T09:01:09Z</time></trkpt><trkpt lat="38.205780287141536" lon="-1.1401287306433294"><ele>259.8</ele><time>2026-04-07T09:01:10Z</time></trkpt><trkpt lat="38.205749004706895" lon="-1.1402207975986163"><ele>261.0</ele><time>2026-04-07T09:01:11Z</time></trkpt><trkpt lat="38.20570521730612" lon="-1.140362579725155"><ele>261.0</ele><time>2026-04-07T09:01:13Z</time></trkpt><trkpt lat="38.205728004025346" lon="-1.1404455308310826"><ele>261.0</ele><time>2026-04-07T09:01:14Z</time></trkpt><trkpt lat="38.20578577887407" lon="-1.14052240157217"><ele>261.0</ele><time>2026-04-07T09:01:15Z</time></trkpt><trkpt lat="38.20585112974299" lon="-1.1405824974710064"><ele>261.0</ele><time>2026-04-07T09:01:16Z</time></trkpt><trkpt lat="38.20591397501907" lon="-1.140650717867645"><ele>261.0</ele><time>2026-04-07T09:01:17Z</time></trkpt><trkpt lat="38.20597739403014" lon="-1.1407229692731213"><ele>261.0</ele><time>2026-04-07T09:01:18Z</time></trkpt><trkpt lat="38.20604413119602" lon="-1.1407934980677739"><ele>261.8</ele><time>2026-04-07T09:01:19Z</time></trkpt><trkpt lat="38.20611963162223" lon="-1.1408591244154076"><ele>262.6</ele><time>2026-04-07T09:01:20Z</time></trkpt><trkpt lat="38.206201590636915" lon="-1.1409047520978883"><ele>263.4</ele><time>2026-04-07T09:01:21Z</time></trkpt><trkpt lat="38.206285888131866" lon="-1.1409543311390122"><ele>264.2</ele><time>2026-04-07T09:01:22Z</time></trkpt><trkpt lat="38.20636734384568" lon="-1.1410070000252814"><ele>265.0</ele><time>2026-04-07T09:01:23Z</time></trkpt><trkpt lat="38.20644045271118" lon="-1.1410732419424525"><ele>265.5</ele><time>2026-04-07T09:01:24Z</time></trkpt><trkpt lat="38.206502539300345" lon="-1.1411591353014783"><ele>266.0</ele><time>2026-04-07T09:01:25Z</time></trkpt><trkpt lat="38.20654997986763" lon="-1.1412542937647345"><ele>266.5</ele><time>2026-04-07T09:01:26Z</time></trkpt><trkpt lat="38.20658992972721" lon="-1.141353262251692"><ele>267.0</ele><time>2026-04-07T09:01:27Z</time></trkpt><trkpt lat="38.20662804455737" lon="-1.1414464512696947"><ele>267.5</ele><time>2026-04-07T09:01:28Z</time></trkpt><trkpt lat="38.20666506956301" lon="-1.1415337517808943"><ele>268.0</ele><time>2026-04-07T09:01:29Z</time></trkpt><trkpt lat="38.20669736987668" lon="-1.141618480890242"><ele>268.4</ele><time>2026-04-07T09:01:30Z</time></trkpt><trkpt lat="38.20673541567605" lon="-1.1416975279449495"><ele>268.8</ele><time>2026-04-07T09:01:31Z</time></trkpt><trkpt lat="38.206779804347256" lon="-1.1417713280871116"><ele>269.2</ele><time>2026-04-07T09:01:32Z</time></trkpt><trkpt lat="38.20681955066375" lon="-1.1418374336964998"><ele>269.6</ele><time>2026-04-07T09:01:33Z</time></trkpt><trkpt lat="38.20687598968503" lon="-1.1418948185696154"><ele>270.0</ele><time>2026-04-07T09:01:35Z</time></trkpt><trkpt lat="38.20671755131057" lon="-1.141964585295695"><ele>270.0</ele><time>2026-04-07T09:01:37Z</time></trkpt><trkpt lat="38.20665317333693" lon="-1.1419538776095455"><ele>270.0</ele><time>2026-04-07T09:01:38Z</time></trkpt><trkpt lat="38.20659397117157" lon="-1.1419209433589248"><ele>270.0</ele><time>2026-04-07T09:01:40Z</time></trkpt><trkpt lat="38.2066242895758" lon="-1.1420334893444106"><ele>270.0</ele><time>2026-04-07T09:01:43Z</time></trkpt><trkpt lat="38.20663350439848" lon="-1.142114839103768"><ele>270.0</ele><time>2026-04-07T09:01:44Z</time></trkpt><trkpt lat="38.20666882661196" lon="-1.1421825433679276"><ele>270.0</ele><time>2026-04-07T09:01:45Z</time></trkpt><trkpt lat="38.20666350525724" lon="-1.1423385631989376"><ele>270.1666666666667</ele><time>2026-04-07T09:01:47Z</time></trkpt><trkpt lat="38.20662256464276" lon="-1.1424045301354397"><ele>270.3333333333333</ele><time>2026-04-07T09:01:48Z</time></trkpt><trkpt lat="38.20655365458238" lon="-1.142438159666318"><ele>270.5</ele><time>2026-04-07T09:01:49Z</time></trkpt><trkpt lat="38.20646900841692" lon="-1.1423826925046316"><ele>270.66666666666663</ele><time>2026-04-07T09:01:50Z</time></trkpt><trkpt lat="38.20639621661104" lon="-1.142400810858659"><ele>270.8333333333333</ele><time>2026-04-07T09:01:51Z</time></trkpt><trkpt lat="38.20631865313911" lon="-1.1424712900019207"><ele>271.0</ele><time>2026-04-07T09:01:53Z</time></trkpt><trkpt lat="38.206252416008695" lon="-1.1426332192686206"><ele>270.57142857142856</ele><time>2026-04-07T09:01:55Z</time></trkpt><trkpt lat="38.20620041240002" lon="-1.1427088872860345"><ele>270.14285714285717</ele><time>2026-04-07T09:01:56Z</time></trkpt><trkpt lat="38.20617535560171" lon="-1.1428143373672766"><ele>269.7142857142857</ele><time>2026-04-07T09:01:57Z</time></trkpt><trkpt lat="38.20613587297798" lon="-1.1428991575963028"><ele>269.2857142857143</ele><time>2026-04-07T09:01:58Z</time></trkpt><trkpt lat="38.20612130638332" lon="-1.142988779524831"><ele>268.85714285714283</ele><time>2026-04-07T09:01:59Z</time></trkpt><trkpt lat="38.20610541408024" lon="-1.1430757077277274"><ele>268.42857142857144</ele><time>2026-04-07T09:02:00Z</time></trkpt><trkpt lat="38.20610515584417" lon="-1.1431570896863446"><ele>268.0</ele><time>2026-04-07T09:02:01Z</time></trkpt><trkpt lat="38.20614307317984" lon="-1.1432373264365783"><ele>268.0</ele><time>2026-04-07T09:02:02Z</time></trkpt><trkpt lat="38.206154145962955" lon="-1.1433328069979904"><ele>268.0</ele><time>2026-04-07T09:02:03Z</time></trkpt><trkpt lat="38.20617390407016" lon="-1.1434188015836697"><ele>268.0</ele><time>2026-04-07T09:02:04Z</time></trkpt><trkpt lat="38.206188661751725" lon="-1.1435128508697587"><ele>268.0</ele><time>2026-04-07T09:02:05Z</time></trkpt><trkpt lat="38.20620512530475" lon="-1.1436056460456008"><ele>268.0</ele><time>2026-04-07T09:02:06Z</time></trkpt><trkpt lat="38.2062301975537" lon="-1.143693891589378"><ele>268.0</ele><time>2026-04-07T09:02:07Z</time></trkpt><trkpt lat="38.20623528508697" lon="-1.1437904302037973"><ele>268.0</ele><time>2026-04-07T09:02:08Z</time></trkpt><trkpt lat="38.20622534687111" lon="-1.143888638054801"><ele>268.0</ele><time>2026-04-07T09:02:09Z</time></trkpt><trkpt lat="38.206152794881305" lon="-1.1439580012424675"><ele>268.0</ele><time>2026-04-07T09:02:10Z</time></trkpt><trkpt lat="38.20613152078431" lon="-1.1440392654791387"><ele>268.0</ele><time>2026-04-07T09:02:11Z</time></trkpt><trkpt lat="38.20610480234588" lon="-1.1441848245944404"><ele>268.0</ele><time>2026-04-07T09:02:13Z</time></trkpt><trkpt lat="38.206098087633556" lon="-1.1442692690364193"><ele>268.0</ele><time>2026-04-07T09:02:14Z</time></trkpt><trkpt lat="38.20613582050097" lon="-1.1443656185489228"><ele>268.0</ele><time>2026-04-07T09:02:15Z</time></trkpt><trkpt lat="38.20614195906397" lon="-1.144469554061083"><ele>268.66666666666663</ele><time>2026-04-07T09:02:16Z</time></trkpt><trkpt lat="38.206107933982125" lon="-1.1445676334777182"><ele>269.3333333333333</ele><time>2026-04-07T09:02:17Z</time></trkpt><trkpt lat="38.20608285984383" lon="-1.144661666558333"><ele>270.0</ele><time>2026-04-07T09:02:18Z</time></trkpt><trkpt lat="38.206098265867745" lon="-1.1447455861276485"><ele>270.6666666666667</ele><time>2026-04-07T09:02:19Z</time></trkpt><trkpt lat="38.20610541423296" lon="-1.1448326923204468"><ele>271.33333333333337</ele><time>2026-04-07T09:02:20Z</time></trkpt><trkpt lat="38.206113071597294" lon="-1.1449191118488575"><ele>272.0</ele><time>2026-04-07T09:02:21Z</time></trkpt><trkpt lat="38.20615335091393" lon="-1.1450373532123679"><ele>273.6666666666667</ele><time>2026-04-07T09:02:23Z</time></trkpt><trkpt lat="38.206189968306674" lon="-1.1451762247577377"><ele>275.33333333333337</ele><time>2026-04-07T09:02:25Z</time></trkpt><trkpt lat="38.20619379363844" lon="-1.145269459727698"><ele>277.0</ele><time>2026-04-07T09:02:26Z</time></trkpt><trkpt lat="38.20624268353827" lon="-1.1453594754303529"><ele>278.6666666666667</ele><time>2026-04-07T09:02:27Z</time></trkpt><trkpt lat="38.20629885626136" lon="-1.1454548119587225"><ele>280.3333333333333</ele><time>2026-04-07T09:02:28Z</time></trkpt><trkpt lat="38.20634324494843" lon="-1.145531197713279"><ele>282.0</ele><time>2026-04-07T09:02:29Z</time></trkpt><trkpt lat="38.206388819553965" lon="-1.145610762857369"><ele>282.0</ele><time>2026-04-07T09:02:30Z</time></trkpt><trkpt lat="38.20643084234692" lon="-1.1456944546530408"><ele>282.0</ele><time>2026-04-07T09:02:31Z</time></trkpt><trkpt lat="38.20648225103988" lon="-1.1457834366721833"><ele>282.0</ele><time>2026-04-07T09:02:32Z</time></trkpt><trkpt lat="38.206531184439065" lon="-1.1458819529127993"><ele>282.0</ele><time>2026-04-07T09:02:33Z</time></trkpt><trkpt lat="38.20656840784177" lon="-1.1459540574067175"><ele>282.0</ele><time>2026-04-07T09:02:34Z</time></trkpt><trkpt lat="38.20661339876355" lon="-1.1460158641709794"><ele>282.0</ele><time>2026-04-07T09:02:35Z</time></trkpt><trkpt lat="38.206681104492404" lon="-1.1460837024114379"><ele>284.5</ele><time>2026-04-07T09:02:36Z</time></trkpt><trkpt lat="38.20674750554222" lon="-1.146161143519296"><ele>287.0</ele><time>2026-04-07T09:02:37Z</time></trkpt><trkpt lat="38.206794866800216" lon="-1.1462414591168706"><ele>289.5</ele><time>2026-04-07T09:02:38Z</time></trkpt><trkpt lat="38.20683021288644" lon="-1.146330096429756"><ele>292.0</ele><time>2026-04-07T09:02:39Z</time></trkpt><trkpt lat="38.20686216929259" lon="-1.1464273956014277"><ele>294.5</ele><time>2026-04-07T09:02:40Z</time></trkpt><trkpt lat="38.2068821839431" lon="-1.1465287805000342"><ele>297.0</ele><time>2026-04-07T09:02:41Z</time></trkpt><trkpt lat="38.206883475818934" lon="-1.146635852508635"><ele>299.0</ele><time>2026-04-07T09:02:42Z</time></trkpt><trkpt lat="38.20688114724797" lon="-1.146745596795041"><ele>301.0</ele><time>2026-04-07T09:02:43Z</time></trkpt><trkpt lat="38.20688609255674" lon="-1.1468677801332379"><ele>303.0</ele><time>2026-04-07T09:02:44Z</time></trkpt><trkpt lat="38.20688401686873" lon="-1.1469922482352133"><ele>305.0</ele><time>2026-04-07T09:02:45Z</time></trkpt><trkpt lat="38.20687175626086" lon="-1.1471233541944525"><ele>307.0</ele><time>2026-04-07T09:02:46Z</time></trkpt><trkpt lat="38.20686377821835" lon="-1.1472461416809938"><ele>307.0</ele><time>2026-04-07T09:02:47Z</time></trkpt><trkpt lat="38.20686208339858" lon="-1.1473627803875825"><ele>307.0</ele><time>2026-04-07T09:02:48Z</time></trkpt><trkpt lat="38.2068726057361" lon="-1.1474847506732615"><ele>307.0</ele><time>2026-04-07T09:02:49Z</time></trkpt><trkpt lat="38.20692007415172" lon="-1.147607494616137"><ele>307.0</ele><time>2026-04-07T09:02:50Z</time></trkpt><trkpt lat="38.20696521618426" lon="-1.1477084677509084"><ele>307.0</ele><time>2026-04-07T09:02:51Z</time></trkpt><trkpt lat="38.20700888338739" lon="-1.1477846177771875"><ele>309.0</ele><time>2026-04-07T09:02:52Z</time></trkpt><trkpt lat="38.20709871336185" lon="-1.1478648176467494"><ele>311.0</ele><time>2026-04-07T09:02:54Z</time></trkpt><trkpt lat="38.20717042885061" lon="-1.1478955844037873"><ele>313.0</ele><time>2026-04-07T09:02:55Z</time></trkpt><trkpt lat="38.20727378159251" lon="-1.1479254216056942"><ele>315.0</ele><time>2026-04-07T09:02:56Z</time></trkpt><trkpt lat="38.20737617373961" lon="-1.1479597762728695"><ele>317.0</ele><time>2026-04-07T09:02:57Z</time></trkpt><trkpt lat="38.20744870497069" lon="-1.1480108465282888"><ele>318.1666666666667</ele><time>2026-04-07T09:02:58Z</time></trkpt><trkpt lat="38.20749601485959" lon="-1.1480869101565454"><ele>319.33333333333337</ele><time>2026-04-07T09:02:59Z</time></trkpt><trkpt lat="38.20752273752733" lon="-1.1481868650302354"><ele>320.5</ele><time>2026-04-07T09:03:00Z</time></trkpt><trkpt lat="38.20754050271242" lon="-1.148281085990493"><ele>321.6666666666667</ele><time>2026-04-07T09:03:01Z</time></trkpt><trkpt lat="38.20757112788687" lon="-1.1483645983562307"><ele>322.8333333333333</ele><time>2026-04-07T09:03:02Z</time></trkpt><trkpt lat="38.207613387667834" lon="-1.1484554334203099"><ele>324.0</ele><time>2026-04-07T09:03:03Z</time></trkpt><trkpt lat="38.207641824228745" lon="-1.1485585085592038"><ele>325.1666666666667</ele><time>2026-04-07T09:03:04Z</time></trkpt><trkpt lat="38.20764658672705" lon="-1.148668469155368"><ele>326.3333333333333</ele><time>2026-04-07T09:03:05Z</time></trkpt><trkpt lat="38.20764505438418" lon="-1.148765774343017"><ele>327.5</ele><time>2026-04-07T09:03:06Z</time></trkpt><trkpt lat="38.207639933066254" lon="-1.148863829311941"><ele>328.66666666666663</ele><time>2026-04-07T09:03:07Z</time></trkpt><trkpt lat="38.207629068435025" lon="-1.1489538868021374"><ele>329.8333333333333</ele><time>2026-04-07T09:03:08Z</time></trkpt><trkpt lat="38.20763666024044" lon="-1.149044803521224"><ele>331.0</ele><time>2026-04-07T09:03:09Z</time></trkpt><trkpt lat="38.20765674632674" lon="-1.1491642752680493"><ele>331.0</ele><time>2026-04-07T09:03:10Z</time></trkpt><trkpt lat="38.207670879654025" lon="-1.1492928146263337"><ele>331.0</ele><time>2026-04-07T09:03:11Z</time></trkpt><trkpt lat="38.207689584467595" lon="-1.1494077072640496"><ele>331.0</ele><time>2026-04-07T09:03:12Z</time></trkpt><trkpt lat="38.20772176731798" lon="-1.149515367588983"><ele>331.0</ele><time>2026-04-07T09:03:13Z</time></trkpt><trkpt lat="38.20776467899835" lon="-1.149623260865662"><ele>331.0</ele><time>2026-04-07T09:03:14Z</time></trkpt><trkpt lat="38.20782077694297" lon="-1.1497360034886748"><ele>331.0</ele><time>2026-04-07T09:03:15Z</time></trkpt><trkpt lat="38.207880445055444" lon="-1.1498478082066081"><ele>331.0</ele><time>2026-04-07T09:03:16Z</time></trkpt><trkpt lat="38.20793884538629" lon="-1.14996234130141"><ele>331.0</ele><time>2026-04-07T09:03:17Z</time></trkpt><trkpt lat="38.20798758291494" lon="-1.1500598250093712"><ele>331.0</ele><time>2026-04-07T09:03:18Z</time></trkpt><trkpt lat="38.20802068069268" lon="-1.1501468090463869"><ele>331.0</ele><time>2026-04-07T09:03:19Z</time></trkpt><trkpt lat="38.208080517583504" lon="-1.150252059967759"><ele>332.0</ele><time>2026-04-07T09:03:21Z</time></trkpt><trkpt lat="38.20815629440466" lon="-1.1502771865897752"><ele>333.0</ele><time>2026-04-07T09:03:23Z</time></trkpt><trkpt lat="38.20815554756595" lon="-1.150404113746826"><ele>334.0</ele><time>2026-04-07T09:03:25Z</time></trkpt><trkpt lat="38.208176905977496" lon="-1.1505477317902586"><ele>335.0</ele><time>2026-04-07T09:03:27Z</time></trkpt><trkpt lat="38.20821555052314" lon="-1.1506145812316433"><ele>336.0</ele><time>2026-04-07T09:03:28Z</time></trkpt><trkpt lat="38.208310525028345" lon="-1.150682103807362"><ele>337.4</ele><time>2026-04-07T09:03:30Z</time></trkpt><trkpt lat="38.20838007818585" lon="-1.1507820388967895"><ele>338.8</ele><time>2026-04-07T09:03:32Z</time></trkpt><trkpt lat="38.20840380804302" lon="-1.150916971748241"><ele>340.2</ele><time>2026-04-07T09:03:34Z</time></trkpt><trkpt lat="38.20842546616267" lon="-1.1510185683014134"><ele>341.59999999999997</ele><time>2026-04-07T09:03:36Z</time></trkpt><trkpt lat="38.20847436833205" lon="-1.1510701405061563"><ele>343.0</ele><time>2026-04-07T09:03:37Z</time></trkpt><trkpt lat="38.208526130104424" lon="-1.1511882599050103"><ele>343.0</ele><time>2026-04-07T09:03:39Z</time></trkpt><trkpt lat="38.208543693260864" lon="-1.1512695066237828"><ele>343.0</ele><time>2026-04-07T09:03:40Z</time></trkpt><trkpt lat="38.20857591865168" lon="-1.1514233150336857"><ele>343.0</ele><time>2026-04-07T09:03:42Z</time></trkpt><trkpt lat="38.208602376344615" lon="-1.1515095722688373"><ele>343.0</ele><time>2026-04-07T09:03:43Z</time></trkpt><trkpt lat="38.20864765248425" lon="-1.1515780969099223"><ele>343.0</ele><time>2026-04-07T09:03:44Z</time></trkpt><trkpt lat="38.20869891763835" lon="-1.1516271851877555"><ele>343.0</ele><time>2026-04-07T09:03:45Z</time></trkpt><trkpt lat="38.208751805089626" lon="-1.1516731175876842"><ele>341.2</ele><time>2026-04-07T09:03:46Z</time></trkpt><trkpt lat="38.208860393694586" lon="-1.151713576367783"><ele>339.4</ele><time>2026-04-07T09:03:48Z</time></trkpt><trkpt lat="38.20895324454266" lon="-1.151713171543411"><ele>337.59999999999997</ele><time>2026-04-07T09:03:50Z</time></trkpt><trkpt lat="38.20906441063508" lon="-1.1517419812586274"><ele>335.79999999999995</ele><time>2026-04-07T09:03:52Z</time></trkpt><trkpt lat="38.209166761474556" lon="-1.1518133606474734"><ele>334.0</ele><time>2026-04-07T09:03:54Z</time></trkpt><trkpt lat="38.20923965132244" lon="-1.151830963171695"><ele>338.0</ele><time>2026-04-07T09:03:55Z</time></trkpt><trkpt lat="38.20931917364483" lon="-1.1518656840434898"><ele>342.0</ele><time>2026-04-07T09:03:56Z</time></trkpt><trkpt lat="38.209385112164085" lon="-1.1518983398740992"><ele>346.0</ele><time>2026-04-07T09:03:57Z</time></trkpt><trkpt lat="38.20949490324534" lon="-1.1519079306134559"><ele>350.0</ele><time>2026-04-07T09:03:59Z</time></trkpt><trkpt lat="38.20959887307832" lon="-1.151947348227273"><ele>354.0</ele><time>2026-04-07T09:04:01Z</time></trkpt><trkpt lat="38.209639808134305" lon="-1.1520178258444074"><ele>358.0</ele><time>2026-04-07T09:04:02Z</time></trkpt><trkpt lat="38.20967784713489" lon="-1.1521159332499413"><ele>358.0</ele><time>2026-04-07T09:04:03Z</time></trkpt><trkpt lat="38.20971746062039" lon="-1.1522013347559052"><ele>358.0</ele><time>2026-04-07T09:04:04Z</time></trkpt><trkpt lat="38.20977759221071" lon="-1.152279188080042"><ele>358.0</ele><time>2026-04-07T09:04:05Z</time></trkpt><trkpt lat="38.20985198774193" lon="-1.152338297816247"><ele>358.0</ele><time>2026-04-07T09:04:06Z</time></trkpt><trkpt lat="38.209912164085125" lon="-1.1523896902093165"><ele>358.0</ele><time>2026-04-07T09:04:07Z</time></trkpt><trkpt lat="38.209977277026255" lon="-1.1524266458825136"><ele>358.0</ele><time>2026-04-07T09:04:08Z</time></trkpt><trkpt lat="38.21004004703148" lon="-1.1524703826273088"><ele>357.00000000000006</ele><time>2026-04-07T09:04:09Z</time></trkpt><trkpt lat="38.210096781492666" lon="-1.1525227999504557"><ele>356.0</ele><time>2026-04-07T09:04:10Z</time></trkpt><trkpt lat="38.21014300074182" lon="-1.1525981115207768"><ele>355.0</ele><time>2026-04-07T09:04:11Z</time></trkpt><trkpt lat="38.21018438039153" lon="-1.1526848306778505"><ele>354.0</ele><time>2026-04-07T09:04:12Z</time></trkpt><trkpt lat="38.21023727123855" lon="-1.1527501811169556"><ele>353.0</ele><time>2026-04-07T09:04:13Z</time></trkpt><trkpt lat="38.21029791314936" lon="-1.1528051408724138"><ele>352.00000000000006</ele><time>2026-04-07T09:04:14Z</time></trkpt><trkpt lat="38.21035769515675" lon="-1.1528499699912138"><ele>351.0</ele><time>2026-04-07T09:04:15Z</time></trkpt><trkpt lat="38.21047000304173" lon="-1.1529033404619309"><ele>351.0</ele><time>2026-04-07T09:04:17Z</time></trkpt><trkpt lat="38.21057873404809" lon="-1.1528650564617724"><ele>351.0</ele><time>2026-04-07T09:04:19Z</time></trkpt><trkpt lat="38.210701955765046" lon="-1.1528735660022422"><ele>351.0</ele><time>2026-04-07T09:04:21Z</time></trkpt><trkpt lat="38.2107614635173" lon="-1.1529230718692"><ele>351.0</ele><time>2026-04-07T09:04:22Z</time></trkpt><trkpt lat="38.210818059067236" lon="-1.1529842209127585"><ele>351.0</ele><time>2026-04-07T09:04:23Z</time></trkpt><trkpt lat="38.210884865759496" lon="-1.1530278695655434"><ele>349.5</ele><time>2026-04-07T09:04:24Z</time></trkpt><trkpt lat="38.21096448928688" lon="-1.1530679636746772"><ele>348.0</ele><time>2026-04-07T09:04:25Z</time></trkpt><trkpt lat="38.2110406785857" lon="-1.1531114480897804"><ele>346.5</ele><time>2026-04-07T09:04:26Z</time></trkpt><trkpt lat="38.211111458656816" lon="-1.1531781160017356"><ele>345.0</ele><time>2026-04-07T09:04:27Z</time></trkpt><trkpt lat="38.21118430621503" lon="-1.1532426040143846"><ele>343.5</ele><time>2026-04-07T09:04:28Z</time></trkpt><trkpt lat="38.21125325974321" lon="-1.1533018836583422"><ele>342.0</ele><time>2026-04-07T09:04:29Z</time></trkpt><trkpt lat="38.21131277490309" lon="-1.1533592507036776"><ele>342.0</ele><time>2026-04-07T09:04:30Z</time></trkpt><trkpt lat="38.21137998178246" lon="-1.1534172337964337"><ele>342.0</ele><time>2026-04-07T09:04:31Z</time></trkpt><trkpt lat="38.21145518273742" lon="-1.1534656077790963"><ele>342.0</ele><time>2026-04-07T09:04:32Z</time></trkpt><trkpt lat="38.21152582805034" lon="-1.1535079133947688"><ele>342.0</ele><time>2026-04-07T09:04:33Z</time></trkpt><trkpt lat="38.211597058436666" lon="-1.153538412441181"><ele>342.0</ele><time>2026-04-07T09:04:34Z</time></trkpt><trkpt lat="38.211680836774086" lon="-1.1535436268587886"><ele>342.0</ele><time>2026-04-07T09:04:35Z</time></trkpt><trkpt lat="38.21176420891835" lon="-1.1535405368230365"><ele>345.20000000000005</ele><time>2026-04-07T09:04:36Z</time></trkpt><trkpt lat="38.211856659117856" lon="-1.1535468056601488"><ele>348.4</ele><time>2026-04-07T09:04:37Z</time></trkpt><trkpt lat="38.21196015102701" lon="-1.1535517248457292"><ele>351.6</ele><time>2026-04-07T09:04:38Z</time></trkpt><trkpt lat="38.21205842147238" lon="-1.1535556065704515"><ele>354.79999999999995</ele><time>2026-04-07T09:04:39Z</time></trkpt><trkpt lat="38.212147817147454" lon="-1.1535585012196834"><ele>358.0</ele><time>2026-04-07T09:04:40Z</time></trkpt><trkpt lat="38.21222409882941" lon="-1.1535680363758507"><ele>358.0</ele><time>2026-04-07T09:04:41Z</time></trkpt><trkpt lat="38.212286691194514" lon="-1.1535850346962007"><ele>358.0</ele><time>2026-04-07T09:04:42Z</time></trkpt><trkpt lat="38.21235332583661" lon="-1.1535945662859657"><ele>358.0</ele><time>2026-04-07T09:04:43Z</time></trkpt><trkpt lat="38.21242877611838" lon="-1.15360910855326"><ele>358.0</ele><time>2026-04-07T09:04:44Z</time></trkpt><trkpt lat="38.21251163378587" lon="-1.1536387584411387"><ele>358.0</ele><time>2026-04-07T09:04:45Z</time></trkpt><trkpt lat="38.21258546764395" lon="-1.1536596358684563"><ele>358.0</ele><time>2026-04-07T09:04:46Z</time></trkpt><trkpt lat="38.212696975104805" lon="-1.1536432824177154"><ele>359.4</ele><time>2026-04-07T09:04:48Z</time></trkpt><trkpt lat="38.21278179161282" lon="-1.153693326753219"><ele>360.79999999999995</ele><time>2026-04-07T09:04:50Z</time></trkpt><trkpt lat="38.212879221292795" lon="-1.1536141635089372"><ele>362.2</ele><time>2026-04-07T09:04:52Z</time></trkpt><trkpt lat="38.21294140745393" lon="-1.1535643770358321"><ele>363.6</ele><time>2026-04-07T09:04:53Z</time></trkpt><trkpt lat="38.213032693485054" lon="-1.1535653330877518"><ele>365.0</ele><time>2026-04-07T09:04:54Z</time></trkpt><trkpt lat="38.21312669530935" lon="-1.1535856681210443"><ele>364.7142857142857</ele><time>2026-04-07T09:04:55Z</time></trkpt><trkpt lat="38.21319923257704" lon="-1.153598351941585"><ele>364.42857142857144</ele><time>2026-04-07T09:04:56Z</time></trkpt><trkpt lat="38.21326712131627" lon="-1.1535985969195224"><ele>364.1428571428571</ele><time>2026-04-07T09:04:57Z</time></trkpt><trkpt lat="38.21333450028441" lon="-1.1535784094992472"><ele>363.8571428571429</ele><time>2026-04-07T09:04:58Z</time></trkpt><trkpt lat="38.213397539022225" lon="-1.1535519261962819"><ele>363.57142857142856</ele><time>2026-04-07T09:04:59Z</time></trkpt><trkpt lat="38.21345524929893" lon="-1.1535098593392064"><ele>363.2857142857143</ele><time>2026-04-07T09:05:00Z</time></trkpt><trkpt lat="38.213515755459234" lon="-1.153450258240377"><ele>363.0</ele><time>2026-04-07T09:05:01Z</time></trkpt><trkpt lat="38.21358600458456" lon="-1.153396859804819"><ele>363.0</ele><time>2026-04-07T09:05:02Z</time></trkpt><trkpt lat="38.21367094138742" lon="-1.1533556552729762"><ele>363.0</ele><time>2026-04-07T09:05:03Z</time></trkpt><trkpt lat="38.21375447764446" lon="-1.1533427114616857"><ele>363.0</ele><time>2026-04-07T09:05:04Z</time></trkpt><trkpt lat="38.213825703187325" lon="-1.153318364392426"><ele>363.0</ele><time>2026-04-07T09:05:05Z</time></trkpt><trkpt lat="38.21389303215305" lon="-1.1532702940135333"><ele>363.0</ele><time>2026-04-07T09:05:06Z</time></trkpt><trkpt lat="38.21395355677556" lon="-1.1532256369788418"><ele>363.0</ele><time>2026-04-07T09:05:07Z</time></trkpt><trkpt lat="38.2140378124419" lon="-1.1531213655955252"><ele>366.79999999999995</ele><time>2026-04-07T09:05:09Z</time></trkpt><trkpt lat="38.214075650155266" lon="-1.1530480313059335"><ele>370.6</ele><time>2026-04-07T09:05:10Z</time></trkpt><trkpt lat="38.21419440523005" lon="-1.1530566182892947"><ele>374.4</ele><time>2026-04-07T09:05:12Z</time></trkpt><trkpt lat="38.214273771753255" lon="-1.1530569303437774"><ele>378.20000000000005</ele><time>2026-04-07T09:05:13Z</time></trkpt><trkpt lat="38.214370982241675" lon="-1.1530769158598286"><ele>382.0</ele><time>2026-04-07T09:05:15Z</time></trkpt><trkpt lat="38.21447071350294" lon="-1.153071291512674"><ele>382.0</ele><time>2026-04-07T09:05:17Z</time></trkpt><trkpt lat="38.21455082016325" lon="-1.1531642910316315"><ele>382.0</ele><time>2026-04-07T09:05:19Z</time></trkpt><trkpt lat="38.21459449335577" lon="-1.1532254803492241"><ele>382.0</ele><time>2026-04-07T09:05:20Z</time></trkpt><trkpt lat="38.21464425159997" lon="-1.1532875687973225"><ele>382.0</ele><time>2026-04-07T09:05:21Z</time></trkpt><trkpt lat="38.214690925942925" lon="-1.1533454946103634"><ele>382.0</ele><time>2026-04-07T09:05:22Z</time></trkpt><trkpt lat="38.21474822748476" lon="-1.1533993256550437"><ele>382.0</ele><time>2026-04-07T09:05:23Z</time></trkpt><trkpt lat="38.2148559226424" lon="-1.1534695974463063"><ele>379.0</ele><time>2026-04-07T09:05:25Z</time></trkpt><trkpt lat="38.214920474757456" lon="-1.1534784956933057"><ele>376.0</ele><time>2026-04-07T09:05:26Z</time></trkpt><trkpt lat="38.21498534296533" lon="-1.153470254507483"><ele>373.0</ele><time>2026-04-07T09:05:27Z</time></trkpt><trkpt lat="38.21510015104917" lon="-1.1534497237800883"><ele>370.0</ele><time>2026-04-07T09:05:29Z</time></trkpt><trkpt lat="38.21520135245651" lon="-1.1535170394730596"><ele>367.0</ele><time>2026-04-07T09:05:31Z</time></trkpt><trkpt lat="38.215299485649034" lon="-1.1535848026760855"><ele>367.0</ele><time>2026-04-07T09:05:33Z</time></trkpt><trkpt lat="38.215413851749894" lon="-1.1536273308635199"><ele>367.0</ele><time>2026-04-07T09:05:35Z</time></trkpt><trkpt lat="38.21551394445943" lon="-1.1536379265053438"><ele>367.0</ele><time>2026-04-07T09:05:37Z</time></trkpt><trkpt lat="38.21558471448722" lon="-1.153558878950799"><ele>367.0</ele><time>2026-04-07T09:05:39Z</time></trkpt><trkpt lat="38.21562971301245" lon="-1.1534869276945372"><ele>367.0</ele><time>2026-04-07T09:05:41Z</time></trkpt><trkpt lat="38.215684201858366" lon="-1.1535637693455623"><ele>367.40000000000003</ele><time>2026-04-07T09:05:44Z</time></trkpt><trkpt lat="38.215678027595196" lon="-1.1536684229041303"><ele>367.8</ele><time>2026-04-07T09:05:46Z</time></trkpt><trkpt lat="38.21567005271598" lon="-1.1537754717122637"><ele>368.2</ele><time>2026-04-07T09:05:47Z</time></trkpt><trkpt lat="38.215657420371755" lon="-1.1539416812978778"><ele>368.6</ele><time>2026-04-07T09:05:48Z</time></trkpt><trkpt lat="38.21564846537083" lon="-1.154084803929621"><ele>369.0</ele><time>2026-04-07T09:05:50Z</time></trkpt><trkpt lat="38.21561192006727" lon="-1.1541975904662614"><ele>366.0</ele><time>2026-04-07T09:05:52Z</time></trkpt><trkpt lat="38.21554400344553" lon="-1.1542657691899851"><ele>363.0</ele><time>2026-04-07T09:05:53Z</time></trkpt><trkpt lat="38.21545337108492" lon="-1.1543377631704845"><ele>360.0</ele><time>2026-04-07T09:05:54Z</time></trkpt><trkpt lat="38.21539184535084" lon="-1.154381354228748"><ele>357.0</ele><time>2026-04-07T09:05:55Z</time></trkpt><trkpt lat="38.21527125283604" lon="-1.1544308262828888"><ele>354.0</ele><time>2026-04-07T09:05:57Z</time></trkpt><trkpt lat="38.21517880639492" lon="-1.1544537823952037"><ele>354.0</ele><time>2026-04-07T09:05:58Z</time></trkpt><trkpt lat="38.2150962058456" lon="-1.1544693961788484"><ele>354.0</ele><time>2026-04-07T09:05:59Z</time></trkpt><trkpt lat="38.21501112227374" lon="-1.1544694132770232"><ele>354.0</ele><time>2026-04-07T09:06:00Z</time></trkpt><trkpt lat="38.21492557737828" lon="-1.1544819987238408"><ele>354.0</ele><time>2026-04-07T09:06:01Z</time></trkpt><trkpt lat="38.21483388820959" lon="-1.1544896912014386"><ele>354.0</ele><time>2026-04-07T09:06:02Z</time></trkpt><trkpt lat="38.21476044330468" lon="-1.1545448963282834"><ele>354.0</ele><time>2026-04-07T09:06:03Z</time></trkpt><trkpt lat="38.214666656912755" lon="-1.154578529860307"><ele>353.2</ele><time>2026-04-07T09:06:04Z</time></trkpt><trkpt lat="38.21457251324674" lon="-1.1546080380518733"><ele>352.4</ele><time>2026-04-07T09:06:05Z</time></trkpt><trkpt lat="38.21446510304507" lon="-1.1546501291795124"><ele>351.6</ele><time>2026-04-07T09:06:06Z</time></trkpt><trkpt lat="38.21438102261556" lon="-1.1546893870887796"><ele>350.8</ele><time>2026-04-07T09:06:07Z</time></trkpt><trkpt lat="38.214299858673144" lon="-1.154740323844092"><ele>350.0</ele><time>2026-04-07T09:06:08Z</time></trkpt><trkpt lat="38.21421947348629" lon="-1.1548088099927456"><ele>350.0</ele><time>2026-04-07T09:06:09Z</time></trkpt><trkpt lat="38.21411958022161" lon="-1.1548517715197744"><ele>350.0</ele><time>2026-04-07T09:06:10Z</time></trkpt><trkpt lat="38.2140140717325" lon="-1.1548760176242527"><ele>350.0</ele><time>2026-04-07T09:06:11Z</time></trkpt><trkpt lat="38.213904163110215" lon="-1.1548880408058855"><ele>350.0</ele><time>2026-04-07T09:06:12Z</time></trkpt><trkpt lat="38.2138062890785" lon="-1.154898613540645"><ele>350.0</ele><time>2026-04-07T09:06:13Z</time></trkpt><trkpt lat="38.21371615542001" lon="-1.154943274699862"><ele>349.0</ele><time>2026-04-07T09:06:14Z</time></trkpt><trkpt lat="38.21363435667879" lon="-1.1549839882542203"><ele>348.0</ele><time>2026-04-07T09:06:15Z</time></trkpt><trkpt lat="38.21355989468879" lon="-1.155033373469516"><ele>347.0</ele><time>2026-04-07T09:06:16Z</time></trkpt><trkpt lat="38.2134848687435" lon="-1.1550889898263175"><ele>346.0</ele><time>2026-04-07T09:06:17Z</time></trkpt><trkpt lat="38.21341802893251" lon="-1.1551569646791098"><ele>345.0</ele><time>2026-04-07T09:06:18Z</time></trkpt><trkpt lat="38.21336169771095" lon="-1.155229896982612"><ele>344.0</ele><time>2026-04-07T09:06:19Z</time></trkpt><trkpt lat="38.21330931404245" lon="-1.1553011438775431"><ele>344.0</ele><time>2026-04-07T09:06:20Z</time></trkpt><trkpt lat="38.21326028441962" lon="-1.1553664641121877"><ele>344.0</ele><time>2026-04-07T09:06:21Z</time></trkpt><trkpt lat="38.21320632938262" lon="-1.1554230611959118"><ele>344.0</ele><time>2026-04-07T09:06:22Z</time></trkpt><trkpt lat="38.21310180427459" lon="-1.1554748751343586"><ele>344.0</ele><time>2026-04-07T09:06:24Z</time></trkpt><trkpt lat="38.21303654197909" lon="-1.1554862842370153"><ele>344.0</ele><time>2026-04-07T09:06:27Z</time></trkpt><trkpt lat="38.213147029998375" lon="-1.1555458524064055"><ele>344.0</ele><time>2026-04-07T09:06:31Z</time></trkpt><trkpt lat="38.21323737552208" lon="-1.1556247031449778"><ele>345.4</ele><time>2026-04-07T09:06:33Z</time></trkpt><trkpt lat="38.213318116460805" lon="-1.1557124638936642"><ele>346.79999999999995</ele><time>2026-04-07T09:06:35Z</time></trkpt><trkpt lat="38.21335455381966" lon="-1.1557780269649547"><ele>348.20000000000005</ele><time>2026-04-07T09:06:36Z</time></trkpt><trkpt lat="38.21339218933357" lon="-1.1558430890948899"><ele>349.6</ele><time>2026-04-07T09:06:37Z</time></trkpt><trkpt lat="38.21345268716801" lon="-1.155963632979138"><ele>351.0</ele><time>2026-04-07T09:06:39Z</time></trkpt><trkpt lat="38.213506514357775" lon="-1.1560838538407534"><ele>351.0</ele><time>2026-04-07T09:06:41Z</time></trkpt><trkpt lat="38.21355338015523" lon="-1.156200424680123"><ele>351.0</ele><time>2026-04-07T09:06:43Z</time></trkpt><trkpt lat="38.21363371045008" lon="-1.15631663793761"><ele>351.0</ele><time>2026-04-07T09:06:45Z</time></trkpt><trkpt lat="38.213678329766196" lon="-1.1563922534444742"><ele>351.0</ele><time>2026-04-07T09:06:46Z</time></trkpt><trkpt lat="38.213726606820316" lon="-1.1564687749379432"><ele>351.0</ele><time>2026-04-07T09:06:47Z</time></trkpt><trkpt lat="38.2138067102287" lon="-1.156591335035862"><ele>354.1666666666667</ele><time>2026-04-07T09:06:49Z</time></trkpt><trkpt lat="38.21384783109091" lon="-1.1566573197063212"><ele>357.3333333333333</ele><time>2026-04-07T09:06:50Z</time></trkpt><trkpt lat="38.21392529155835" lon="-1.1567870902640298"><ele>360.5</ele><time>2026-04-07T09:06:52Z</time></trkpt><trkpt lat="38.21395979358448" lon="-1.1568563329249495"><ele>363.66666666666663</ele><time>2026-04-07T09:06:53Z</time></trkpt><trkpt lat="38.213989369138964" lon="-1.1569281476471986"><ele>366.8333333333333</ele><time>2026-04-07T09:06:54Z</time></trkpt><trkpt lat="38.21406586519923" lon="-1.1570520865490868"><ele>370.0</ele><time>2026-04-07T09:06:56Z</time></trkpt><trkpt lat="38.21413684861328" lon="-1.157175032201383"><ele>371.8333333333333</ele><time>2026-04-07T09:06:58Z</time></trkpt><trkpt lat="38.21418358730803" lon="-1.1572344661646679"><ele>373.66666666666663</ele><time>2026-04-07T09:06:59Z</time></trkpt><trkpt lat="38.21423604893725" lon="-1.1572934658746024"><ele>375.5</ele><time>2026-04-07T09:07:00Z</time></trkpt><trkpt lat="38.214285328408444" lon="-1.1573733658658867"><ele>377.3333333333333</ele><time>2026-04-07T09:07:01Z</time></trkpt><trkpt lat="38.21432696901982" lon="-1.1574429031201423"><ele>379.1666666666667</ele><time>2026-04-07T09:07:02Z</time></trkpt><trkpt lat="38.21441610248458" lon="-1.1575672728954596"><ele>381.0</ele><time>2026-04-07T09:07:04Z</time></trkpt><trkpt lat="38.21444820722628" lon="-1.1576801928668257"><ele>382.8333333333333</ele><time>2026-04-07T09:07:06Z</time></trkpt><trkpt lat="38.214535317269046" lon="-1.1577950599436289"><ele>384.66666666666663</ele><time>2026-04-07T09:07:08Z</time></trkpt><trkpt lat="38.21458868561671" lon="-1.1578782021038583"><ele>386.5</ele><time>2026-04-07T09:07:09Z</time></trkpt><trkpt lat="38.214641841403754" lon="-1.157955337378914"><ele>388.3333333333333</ele><time>2026-04-07T09:07:10Z</time></trkpt><trkpt lat="38.21468785551442" lon="-1.1580302898346633"><ele>390.16666666666663</ele><time>2026-04-07T09:07:11Z</time></trkpt><trkpt lat="38.214726861339486" lon="-1.1580980202633118"><ele>392.0</ele><time>2026-04-07T09:07:12Z</time></trkpt><trkpt lat="38.214764939568546" lon="-1.158165662524356"><ele>394.16666666666663</ele><time>2026-04-07T09:07:13Z</time></trkpt><trkpt lat="38.2148167766736" lon="-1.1582235938378866"><ele>396.3333333333333</ele><time>2026-04-07T09:07:14Z</time></trkpt><trkpt lat="38.21487163493317" lon="-1.158283215868267"><ele>398.5</ele><time>2026-04-07T09:07:15Z</time></trkpt><trkpt lat="38.21491390213283" lon="-1.158348863991695"><ele>400.66666666666663</ele><time>2026-04-07T09:07:16Z</time></trkpt><trkpt lat="38.2149576383444" lon="-1.1584079427648597"><ele>402.8333333333333</ele><time>2026-04-07T09:07:17Z</time></trkpt><trkpt lat="38.2150263245481" lon="-1.1585415398933403"><ele>405.0</ele><time>2026-04-07T09:07:19Z</time></trkpt><trkpt lat="38.21507523022028" lon="-1.1586229374688601"><ele>407.6</ele><time>2026-04-07T09:07:20Z</time></trkpt><trkpt lat="38.215138117369065" lon="-1.158689150086017"><ele>410.2</ele><time>2026-04-07T09:07:21Z</time></trkpt><trkpt lat="38.21522178638636" lon="-1.1587240810322403"><ele>412.79999999999995</ele><time>2026-04-07T09:07:22Z</time></trkpt><trkpt lat="38.21531792343935" lon="-1.158751249059958"><ele>415.4</ele><time>2026-04-07T09:07:23Z</time></trkpt><trkpt lat="38.21542013207846" lon="-1.1587956383097775"><ele>418.0</ele><time>2026-04-07T09:07:24Z</time></trkpt><trkpt lat="38.2155065736848" lon="-1.158849413608641"><ele>418.0</ele><time>2026-04-07T09:07:25Z</time></trkpt><trkpt lat="38.215578339416204" lon="-1.15891512791943"><ele>418.0</ele><time>2026-04-07T09:07:26Z</time></trkpt><trkpt lat="38.215647164260155" lon="-1.158970479332525"><ele>418.0</ele><time>2026-04-07T09:07:27Z</time></trkpt><trkpt lat="38.215737747135236" lon="-1.1590375810481703"><ele>418.0</ele><time>2026-04-07T09:07:28Z</time></trkpt><trkpt lat="38.21582878595358" lon="-1.1591014340185364"><ele>418.0</ele><time>2026-04-07T09:07:29Z</time></trkpt><trkpt lat="38.21590546098231" lon="-1.159155444174585"><ele>420.50000000000006</ele><time>2026-04-07T09:07:30Z</time></trkpt><trkpt lat="38.215963067370666" lon="-1.1591996192792007"><ele>423.0</ele><time>2026-04-07T09:07:31Z</time></trkpt><trkpt lat="38.21603045267793" lon="-1.1592505910659618"><ele>425.5</ele><time>2026-04-07T09:07:33Z</time></trkpt><trkpt lat="38.21601989249365" lon="-1.1593774476771148"><ele>428.0</ele><time>2026-04-07T09:08:16Z</time></trkpt><trkpt lat="38.21596402622927" lon="-1.1594718569153717"><ele>430.50000000000006</ele><time>2026-04-07T09:08:18Z</time></trkpt><trkpt lat="38.2159053259045" lon="-1.1595546696199341"><ele>433.0</ele><time>2026-04-07T09:08:20Z</time></trkpt><trkpt lat="38.215841287121144" lon="-1.159615547548497"><ele>433.00000000000006</ele><time>2026-04-07T09:08:22Z</time></trkpt><trkpt lat="38.2157834684209" lon="-1.1596722044118073"><ele>433.0</ele><time>2026-04-07T09:08:24Z</time></trkpt><trkpt lat="38.21573037262235" lon="-1.1597304351081952"><ele>433.0</ele><time>2026-04-07T09:08:27Z</time></trkpt><trkpt lat="38.21577247885149" lon="-1.15983218932656"><ele>433.0</ele><time>2026-04-07T09:08:30Z</time></trkpt><trkpt lat="38.21577765220574" lon="-1.1599290759155696"><ele>433.00000000000006</ele><time>2026-04-07T09:08:33Z</time></trkpt><trkpt lat="38.21579361503722" lon="-1.160056717459567"><ele>433.0</ele><time>2026-04-07T09:08:36Z</time></trkpt><trkpt lat="38.215796890380474" lon="-1.1601375828427434"><ele>433.1666666666667</ele><time>2026-04-07T09:08:38Z</time></trkpt><trkpt lat="38.215779440724" lon="-1.160223874181875"><ele>433.33333333333337</ele><time>2026-04-07T09:08:40Z</time></trkpt><trkpt lat="38.21575865166524" lon="-1.1603178836294958"><ele>433.5</ele><time>2026-04-07T09:08:42Z</time></trkpt><trkpt lat="38.21575488404439" lon="-1.1604437007714963"><ele>433.66666666666663</ele><time>2026-04-07T09:08:45Z</time></trkpt><trkpt lat="38.21572076008067" lon="-1.1605163619059193"><ele>433.8333333333333</ele><time>2026-04-07T09:08:48Z</time></trkpt><trkpt lat="38.21571837358552" lon="-1.1606224158139762"><ele>434.0</ele><time>2026-04-07T09:08:51Z</time></trkpt><trkpt lat="38.21573371591293" lon="-1.1607120324692044"><ele>436.16666666666663</ele><time>2026-04-07T09:08:55Z</time></trkpt><trkpt lat="38.21573673631637" lon="-1.1608131043427354"><ele>438.3333333333333</ele><time>2026-04-07T09:08:58Z</time></trkpt><trkpt lat="38.2157799395255" lon="-1.16090092850356"><ele>440.5</ele><time>2026-04-07T09:09:19Z</time></trkpt><trkpt lat="38.21579438214508" lon="-1.1610068241453886"><ele>442.66666666666663</ele><time>2026-04-07T09:09:22Z</time></trkpt><trkpt lat="38.21582559182987" lon="-1.1611178912625715"><ele>444.8333333333333</ele><time>2026-04-07T09:09:29Z</time></trkpt><trkpt lat="38.215887501259296" lon="-1.1612033698497917"><ele>447.0</ele><time>2026-04-07T09:09:32Z</time></trkpt><trkpt lat="38.215932054259895" lon="-1.16126766419715"><ele>447.0</ele><time>2026-04-07T09:09:35Z</time></trkpt><trkpt lat="38.21597894802849" lon="-1.161322237182509"><ele>447.0</ele><time>2026-04-07T09:09:48Z</time></trkpt><trkpt lat="38.21601873513951" lon="-1.1614176312089928"><ele>447.0</ele><time>2026-04-07T09:11:14Z</time></trkpt><trkpt lat="38.21606645675092" lon="-1.1614965185853507"><ele>447.0</ele><time>2026-04-07T09:11:18Z</time></trkpt><trkpt lat="38.21611277946547" lon="-1.1615673869214154"><ele>447.0</ele><time>2026-04-07T09:11:28Z</time></trkpt><trkpt lat="38.21618300163514" lon="-1.1616115357519683"><ele>447.0</ele><time>2026-04-07T09:11:33Z</time></trkpt><trkpt lat="38.21625036023907" lon="-1.1616460202995151"><ele>448.71428571428567</ele><time>2026-04-07T09:12:29Z</time></trkpt><trkpt lat="38.21629251026956" lon="-1.1617336506685871"><ele>450.42857142857144</ele><time>2026-04-07T09:12:32Z</time></trkpt><trkpt lat="38.21632122732375" lon="-1.1618141022467583"><ele>452.1428571428571</ele><time>2026-04-07T09:12:34Z</time></trkpt><trkpt lat="38.21638821015985" lon="-1.1618277946031232"><ele>453.85714285714283</ele><time>2026-04-07T09:12:56Z</time></trkpt><trkpt lat="38.21645953397022" lon="-1.1618422030616595"><ele>455.57142857142856</ele><time>2026-04-07T09:13:11Z</time></trkpt><trkpt lat="38.216468302627064" lon="-1.161941735610511"><ele>457.2857142857143</ele><time>2026-04-07T09:13:21Z</time></trkpt><trkpt lat="38.21640903829226" lon="-1.1620048784072032"><ele>459.0</ele><time>2026-04-07T09:13:23Z</time></trkpt><trkpt lat="38.216334978017294" lon="-1.1620029390208633"><ele>459.0</ele><time>2026-04-07T09:13:25Z</time></trkpt><trkpt lat="38.216246130797025" lon="-1.1619985203361392"><ele>459.0</ele><time>2026-04-07T09:13:27Z</time></trkpt><trkpt lat="38.21618165555284" lon="-1.1619885988465537"><ele>459.0</ele><time>2026-04-07T09:13:28Z</time></trkpt><trkpt lat="38.216085156550356" lon="-1.1619655994251994"><ele>459.0</ele><time>2026-04-07T09:13:30Z</time></trkpt><trkpt lat="38.2160084166669" lon="-1.161874854256602"><ele>459.0</ele><time>2026-04-07T09:13:32Z</time></trkpt><trkpt lat="38.21592671153543" lon="-1.1618117493546338"><ele>459.0</ele><time>2026-04-07T09:13:34Z</time></trkpt><trkpt lat="38.21584165881408" lon="-1.1617128698318517"><ele>459.0</ele><time>2026-04-07T09:13:37Z</time></trkpt><trkpt lat="38.21571117681126" lon="-1.1616139619011747"><ele>459.0</ele><time>2026-04-07T09:13:40Z</time></trkpt><trkpt lat="38.215617491814726" lon="-1.1615509582035293"><ele>459.0</ele><time>2026-04-07T09:13:42Z</time></trkpt><trkpt lat="38.215565309601956" lon="-1.161496393774251"><ele>459.0</ele><time>2026-04-07T09:13:43Z</time></trkpt><trkpt lat="38.21548143985051" lon="-1.161388277935986"><ele>456.79999999999995</ele><time>2026-04-07T09:13:45Z</time></trkpt><trkpt lat="38.21539934904996" lon="-1.161304433053623"><ele>454.59999999999997</ele><time>2026-04-07T09:13:47Z</time></trkpt><trkpt lat="38.21531528256601" lon="-1.1611999251700797"><ele>452.4</ele><time>2026-04-07T09:13:49Z</time></trkpt><trkpt lat="38.215253204628674" lon="-1.161082518472257"><ele>450.2</ele><time>2026-04-07T09:13:51Z</time></trkpt><trkpt lat="38.21521189001224" lon="-1.1610070196834283"><ele>448.0</ele><time>2026-04-07T09:13:53Z</time></trkpt><trkpt lat="38.215136150872155" lon="-1.160990651764703"><ele>448.00000000000006</ele><time>2026-04-07T09:13:56Z</time></trkpt><trkpt lat="38.21506430719863" lon="-1.1609827721378656"><ele>448.0</ele><time>2026-04-07T09:13:58Z</time></trkpt><trkpt lat="38.21500624169748" lon="-1.160916586761188"><ele>448.0</ele><time>2026-04-07T09:14:01Z</time></trkpt><trkpt lat="38.214931989306585" lon="-1.160869023905424"><ele>448.0</ele><time>2026-04-07T09:14:03Z</time></trkpt><trkpt lat="38.21489752599117" lon="-1.1607512953936836"><ele>448.00000000000006</ele><time>2026-04-07T09:14:07Z</time></trkpt><trkpt lat="38.21484108990924" lon="-1.1606723936903542"><ele>448.0</ele><time>2026-04-07T09:14:09Z</time></trkpt><trkpt lat="38.21480601738727" lon="-1.1605863836790655"><ele>446.0</ele><time>2026-04-07T09:14:10Z</time></trkpt><trkpt lat="38.21471894573246" lon="-1.1606637818571264"><ele>443.99999999999994</ele><time>2026-04-07T09:14:23Z</time></trkpt><trkpt lat="38.21466711634703" lon="-1.160761331513067"><ele>441.99999999999994</ele><time>2026-04-07T09:14:25Z</time></trkpt><trkpt lat="38.21462723193018" lon="-1.1608860624346307"><ele>440.0</ele><time>2026-04-07T09:14:27Z</time></trkpt><trkpt lat="38.21465157768477" lon="-1.1610588042209473"><ele>438.0</ele><time>2026-04-07T09:14:29Z</time></trkpt><trkpt lat="38.21464964222687" lon="-1.1611452083526266"><ele>438.0</ele><time>2026-04-07T09:14:30Z</time></trkpt><trkpt lat="38.21464071088938" lon="-1.1612295336888765"><ele>438.0</ele><time>2026-04-07T09:14:31Z</time></trkpt><trkpt lat="38.21466404832287" lon="-1.161361876838993"><ele>438.0</ele><time>2026-04-07T09:14:33Z</time></trkpt><trkpt lat="38.21474750490975" lon="-1.1614530487402475"><ele>438.0</ele><time>2026-04-07T09:14:35Z</time></trkpt><trkpt lat="38.21480210775587" lon="-1.1615296003296747"><ele>438.0</ele><time>2026-04-07T09:14:36Z</time></trkpt><trkpt lat="38.214857528444476" lon="-1.1616027788437846"><ele>438.0</ele><time>2026-04-07T09:14:37Z</time></trkpt><trkpt lat="38.2149120169101" lon="-1.161679453317665"><ele>440.5</ele><time>2026-04-07T09:14:38Z</time></trkpt><trkpt lat="38.21496367793029" lon="-1.161761336123174"><ele>443.0</ele><time>2026-04-07T09:14:39Z</time></trkpt><trkpt lat="38.21499941684874" lon="-1.161841531703084"><ele>445.5</ele><time>2026-04-07T09:14:40Z</time></trkpt><trkpt lat="38.21503247726609" lon="-1.161925034729629"><ele>448.0</ele><time>2026-04-07T09:14:41Z</time></trkpt><trkpt lat="38.21506879232025" lon="-1.1620036454724074"><ele>450.5</ele><time>2026-04-07T09:14:42Z</time></trkpt><trkpt lat="38.21509467983854" lon="-1.1620818221643412"><ele>453.0</ele><time>2026-04-07T09:14:43Z</time></trkpt><trkpt lat="38.21515080139896" lon="-1.1621826536048048"><ele>453.0</ele><time>2026-04-07T09:14:45Z</time></trkpt><trkpt lat="38.21524497213587" lon="-1.162249259926564"><ele>453.0</ele><time>2026-04-07T09:14:47Z</time></trkpt><trkpt lat="38.21530772852824" lon="-1.1623201124359095"><ele>453.0</ele><time>2026-04-07T09:14:48Z</time></trkpt><trkpt lat="38.21536265063288" lon="-1.1623924494532196"><ele>453.0</ele><time>2026-04-07T09:14:49Z</time></trkpt><trkpt lat="38.21541315234299" lon="-1.1624647277965472"><ele>453.0</ele><time>2026-04-07T09:14:50Z</time></trkpt><trkpt lat="38.21546525134016" lon="-1.1625392723717187"><ele>453.0</ele><time>2026-04-07T09:14:51Z</time></trkpt><trkpt lat="38.21551729701862" lon="-1.1626042687176392"><ele>452.5714285714285</ele><time>2026-04-07T09:14:52Z</time></trkpt><trkpt lat="38.21557366645342" lon="-1.16266226094908"><ele>452.1428571428571</ele><time>2026-04-07T09:14:53Z</time></trkpt><trkpt lat="38.21563130165501" lon="-1.1627180085368847"><ele>451.7142857142857</ele><time>2026-04-07T09:14:54Z</time></trkpt><trkpt lat="38.2156906415667" lon="-1.1627643341478593"><ele>451.2857142857143</ele><time>2026-04-07T09:14:55Z</time></trkpt><trkpt lat="38.215755769957035" lon="-1.1628115477904661"><ele>450.8571428571429</ele><time>2026-04-07T09:14:56Z</time></trkpt><trkpt lat="38.215821299206524" lon="-1.1628463676517449"><ele>450.4285714285715</ele><time>2026-04-07T09:14:57Z</time></trkpt><trkpt lat="38.21588552056548" lon="-1.16287155611318"><ele>450.00000000000006</ele><time>2026-04-07T09:14:58Z</time></trkpt><trkpt lat="38.21595676998528" lon="-1.1629011249091643"><ele>450.0</ele><time>2026-04-07T09:14:59Z</time></trkpt><trkpt lat="38.2160484874469" lon="-1.1629796724724688"><ele>450.0</ele><time>2026-04-07T09:15:01Z</time></trkpt><trkpt lat="38.216052598366424" lon="-1.1631279132138097"><ele>450.0</ele><time>2026-04-07T09:15:03Z</time></trkpt><trkpt lat="38.2160249226618" lon="-1.1632121580387464"><ele>450.0</ele><time>2026-04-07T09:15:04Z</time></trkpt><trkpt lat="38.21599856357687" lon="-1.1632968795988536"><ele>450.0</ele><time>2026-04-07T09:15:05Z</time></trkpt><trkpt lat="38.215974252002276" lon="-1.1633857002757693"><ele>450.0</ele><time>2026-04-07T09:15:06Z</time></trkpt><trkpt lat="38.215946724098636" lon="-1.1634803934852758"><ele>446.0</ele><time>2026-04-07T09:15:07Z</time></trkpt><trkpt lat="38.215922159143595" lon="-1.1635716630417654"><ele>442.0</ele><time>2026-04-07T09:15:08Z</time></trkpt><trkpt lat="38.215919934715856" lon="-1.1636556500380184"><ele>438.0</ele><time>2026-04-07T09:15:09Z</time></trkpt><trkpt lat="38.215976722079766" lon="-1.163787512863629"><ele>434.0</ele><time>2026-04-07T09:15:11Z</time></trkpt><trkpt lat="38.215915340679445" lon="-1.1639029567688204"><ele>430.0</ele><time>2026-04-07T09:15:13Z</time></trkpt><trkpt lat="38.215810604962265" lon="-1.1639205307331093"><ele>430.00000000000006</ele><time>2026-04-07T09:15:14Z</time></trkpt><trkpt lat="38.215717797963954" lon="-1.1639369616253405"><ele>430.0</ele><time>2026-04-07T09:15:15Z</time></trkpt><trkpt lat="38.215643326470904" lon="-1.1639882088380287"><ele>430.0</ele><time>2026-04-07T09:15:16Z</time></trkpt><trkpt lat="38.215571591348954" lon="-1.16404299917361"><ele>430.0</ele><time>2026-04-07T09:15:17Z</time></trkpt><trkpt lat="38.215518416861904" lon="-1.164098694284932"><ele>430.00000000000006</ele><time>2026-04-07T09:15:18Z</time></trkpt><trkpt lat="38.215460066601786" lon="-1.1641356582385936"><ele>430.0</ele><time>2026-04-07T09:15:19Z</time></trkpt><trkpt lat="38.215361697401704" lon="-1.1642133891776687"><ele>425.2</ele><time>2026-04-07T09:15:21Z</time></trkpt><trkpt lat="38.215317432145284" lon="-1.1643213998322879"><ele>420.4</ele><time>2026-04-07T09:15:23Z</time></trkpt><trkpt lat="38.215324328382366" lon="-1.1644465897630785"><ele>415.6</ele><time>2026-04-07T09:15:25Z</time></trkpt><trkpt lat="38.21535779162212" lon="-1.1645784253782716"><ele>410.8</ele><time>2026-04-07T09:15:27Z</time></trkpt><trkpt lat="38.21540026775989" lon="-1.1647287367414565"><ele>406.0</ele><time>2026-04-07T09:15:29Z</time></trkpt><trkpt lat="38.21542143370138" lon="-1.1648207178625771"><ele>405.50000000000006</ele><time>2026-04-07T09:15:30Z</time></trkpt><trkpt lat="38.21543488201329" lon="-1.164921551737531"><ele>405.0</ele><time>2026-04-07T09:15:31Z</time></trkpt><trkpt lat="38.215435872970154" lon="-1.1650251037040043"><ele>404.5</ele><time>2026-04-07T09:15:32Z</time></trkpt><trkpt lat="38.21543378043189" lon="-1.1651312853373514"><ele>404.0</ele><time>2026-04-07T09:15:33Z</time></trkpt><trkpt lat="38.215420686080236" lon="-1.1652412321208978"><ele>403.50000000000006</ele><time>2026-04-07T09:15:34Z</time></trkpt><trkpt lat="38.215402744260544" lon="-1.165348711451254"><ele>403.0</ele><time>2026-04-07T09:15:35Z</time></trkpt><trkpt lat="38.21537652746116" lon="-1.1654513835990425"><ele>403.00000000000006</ele><time>2026-04-07T09:15:36Z</time></trkpt><trkpt lat="38.215343364203086" lon="-1.1655282773697875"><ele>403.0</ele><time>2026-04-07T09:15:37Z</time></trkpt><trkpt lat="38.21529449130078" lon="-1.1655979134888859"><ele>403.0</ele><time>2026-04-07T09:15:38Z</time></trkpt><trkpt lat="38.21523298443078" lon="-1.1656619635404657"><ele>403.0</ele><time>2026-04-07T09:15:39Z</time></trkpt><trkpt lat="38.21516074519262" lon="-1.1657274883346818"><ele>403.00000000000006</ele><time>2026-04-07T09:15:40Z</time></trkpt><trkpt lat="38.215081925868944" lon="-1.165815631556207"><ele>403.0</ele><time>2026-04-07T09:15:41Z</time></trkpt><trkpt lat="38.2150104100305" lon="-1.1659133766719567"><ele>401.4</ele><time>2026-04-07T09:15:42Z</time></trkpt><trkpt lat="38.21494615878647" lon="-1.1660149253476844"><ele>399.79999999999995</ele><time>2026-04-07T09:15:43Z</time></trkpt><trkpt lat="38.21488473399624" lon="-1.1661207798345026"><ele>398.2</ele><time>2026-04-07T09:15:44Z</time></trkpt><trkpt lat="38.21483003262794" lon="-1.1662236550375602"><ele>396.6</ele><time>2026-04-07T09:15:45Z</time></trkpt><trkpt lat="38.21477906468593" lon="-1.166320025412517"><ele>395.0</ele><time>2026-04-07T09:15:46Z</time></trkpt><trkpt lat="38.214727450495566" lon="-1.1664067710622703"><ele>393.66666666666663</ele><time>2026-04-07T09:15:47Z</time></trkpt><trkpt lat="38.21466903737023" lon="-1.1664783254848818"><ele>392.3333333333333</ele><time>2026-04-07T09:15:48Z</time></trkpt><trkpt lat="38.21460405904564" lon="-1.1665409947531893"><ele>391.0</ele><time>2026-04-07T09:15:49Z</time></trkpt><trkpt lat="38.21454894656477" lon="-1.1666009728500553"><ele>389.66666666666663</ele><time>2026-04-07T09:15:50Z</time></trkpt><trkpt lat="38.21449788880533" lon="-1.1666623636295563"><ele>388.3333333333333</ele><time>2026-04-07T09:15:51Z</time></trkpt><trkpt lat="38.21445479910346" lon="-1.166721662656997"><ele>387.0</ele><time>2026-04-07T09:15:52Z</time></trkpt><trkpt lat="38.214401114305204" lon="-1.166854865056542"><ele>385.5</ele><time>2026-04-07T09:15:54Z</time></trkpt><trkpt lat="38.21440239262656" lon="-1.1669728853312633"><ele>384.0</ele><time>2026-04-07T09:15:56Z</time></trkpt><trkpt lat="38.214361985394405" lon="-1.167058232871395"><ele>382.5</ele><time>2026-04-07T09:16:00Z</time></trkpt><trkpt lat="38.214298884523785" lon="-1.16704974082271"><ele>381.0</ele><time>2026-04-07T09:16:01Z</time></trkpt><trkpt lat="38.2142242695919" lon="-1.1670265536216486"><ele>379.5</ele><time>2026-04-07T09:16:02Z</time></trkpt><trkpt lat="38.21413854191901" lon="-1.1669976796340877"><ele>378.0</ele><time>2026-04-07T09:16:03Z</time></trkpt><trkpt lat="38.214048129533126" lon="-1.1669583180051857"><ele>377.0</ele><time>2026-04-07T09:16:04Z</time></trkpt><trkpt lat="38.21396478449926" lon="-1.1669221828642435"><ele>376.0</ele><time>2026-04-07T09:16:05Z</time></trkpt><trkpt lat="38.21388168903748" lon="-1.1668847564253386"><ele>375.0</ele><time>2026-04-07T09:16:06Z</time></trkpt><trkpt lat="38.21379560376017" lon="-1.1668378769647316"><ele>374.0</ele><time>2026-04-07T09:16:07Z</time></trkpt><trkpt lat="38.21370643021436" lon="-1.166795634071303"><ele>373.0</ele><time>2026-04-07T09:16:08Z</time></trkpt><trkpt lat="38.21361227836916" lon="-1.1667616031565635"><ele>373.0</ele><time>2026-04-07T09:16:09Z</time></trkpt><trkpt lat="38.21352842908286" lon="-1.1667315564774652"><ele>373.0</ele><time>2026-04-07T09:16:10Z</time></trkpt><trkpt lat="38.21344546950764" lon="-1.1666955377781205"><ele>373.0</ele><time>2026-04-07T09:16:11Z</time></trkpt><trkpt lat="38.2133719281874" lon="-1.1666595220454827"><ele>373.0</ele><time>2026-04-07T09:16:12Z</time></trkpt><trkpt lat="38.21330406399698" lon="-1.1666325424005601"><ele>373.0</ele><time>2026-04-07T09:16:13Z</time></trkpt><trkpt lat="38.213193050097566" lon="-1.16661808073149"><ele>373.0</ele><time>2026-04-07T09:16:15Z</time></trkpt><trkpt lat="38.21309237633267" lon="-1.1665944882949395"><ele>372.4</ele><time>2026-04-07T09:16:17Z</time></trkpt><trkpt lat="38.2129848976958" lon="-1.1666141974426454"><ele>371.79999999999995</ele><time>2026-04-07T09:16:19Z</time></trkpt><trkpt lat="38.212889620027745" lon="-1.1666556977372489"><ele>371.2</ele><time>2026-04-07T09:16:21Z</time></trkpt><trkpt lat="38.21277977451755" lon="-1.1667145730638162"><ele>370.6</ele><time>2026-04-07T09:16:23Z</time></trkpt><trkpt lat="38.21270187795329" lon="-1.1667464453916363"><ele>370.0</ele><time>2026-04-07T09:16:25Z</time></trkpt><trkpt lat="38.21263538721548" lon="-1.166403055733637"><ele>371.75</ele><time>2026-04-07T09:16:28Z</time></trkpt><trkpt lat="38.21258699575113" lon="-1.1662762808162415"><ele>373.5</ele><time>2026-04-07T09:16:30Z</time></trkpt><trkpt lat="38.21260605287776" lon="-1.166121314369762"><ele>375.25</ele><time>2026-04-07T09:16:32Z</time></trkpt><trkpt lat="38.21264686086284" lon="-1.1659819213938805"><ele>377.0</ele><time>2026-04-07T09:16:34Z</time></trkpt><trkpt lat="38.21268481066195" lon="-1.1658437709347773"><ele>377.0</ele><time>2026-04-07T09:16:36Z</time></trkpt><trkpt lat="38.21273756452986" lon="-1.165701968785345"><ele>377.0</ele><time>2026-04-07T09:16:38Z</time></trkpt><trkpt lat="38.21278277805994" lon="-1.1655951742258546"><ele>377.0</ele><time>2026-04-07T09:16:40Z</time></trkpt><trkpt lat="38.212839794137075" lon="-1.1655588978936418"><ele>377.0</ele><time>2026-04-07T09:16:42Z</time></trkpt><trkpt lat="38.21291562768358" lon="-1.1655379366749459"><ele>377.0</ele><time>2026-04-07T09:16:44Z</time></trkpt><trkpt lat="38.21299005354164" lon="-1.1654916784943605"><ele>377.0</ele><time>2026-04-07T09:16:46Z</time></trkpt><trkpt lat="38.2130815737626" lon="-1.1654776483501772"><ele>378.6666666666667</ele><time>2026-04-07T09:16:48Z</time></trkpt><trkpt lat="38.213143827044156" lon="-1.1653944323580778"><ele>380.33333333333337</ele><time>2026-04-07T09:16:50Z</time></trkpt><trkpt lat="38.21318342064741" lon="-1.1653269949454426"><ele>382.0</ele><time>2026-04-07T09:16:52Z</time></trkpt><trkpt lat="38.21325276233513" lon="-1.16525723757306"><ele>383.6666666666667</ele><time>2026-04-07T09:16:55Z</time></trkpt><trkpt lat="38.21329848176168" lon="-1.1651856289775202"><ele>385.3333333333333</ele><time>2026-04-07T09:16:57Z</time></trkpt><trkpt lat="38.213360827957956" lon="-1.1652138512322632"><ele>387.0</ele><time>2026-04-07T09:17:01Z</time></trkpt><trkpt lat="38.21342667089394" lon="-1.1652324513131613"><ele>387.0</ele><time>2026-04-07T09:17:03Z</time></trkpt><trkpt lat="38.21348788622349" lon="-1.1651231487976281"><ele>387.0</ele><time>2026-04-07T09:17:06Z</time></trkpt><trkpt lat="38.213530530889315" lon="-1.1650439837354465"><ele>387.0</ele><time>2026-04-07T09:17:07Z</time></trkpt><trkpt lat="38.213602255059094" lon="-1.1649439621257496"><ele>387.0</ele><time>2026-04-07T09:17:09Z</time></trkpt><trkpt lat="38.213646553063846" lon="-1.164869222574042"><ele>387.0</ele><time>2026-04-07T09:17:11Z</time></trkpt><trkpt lat="38.21368198518263" lon="-1.1647927427860376"><ele>387.0</ele><time>2026-04-07T09:17:13Z</time></trkpt><trkpt lat="38.21374472580359" lon="-1.164762204464407"><ele>388.57142857142856</ele><time>2026-04-07T09:17:15Z</time></trkpt><trkpt lat="38.213820937785705" lon="-1.1647772305133828"><ele>390.14285714285717</ele><time>2026-04-07T09:17:18Z</time></trkpt><trkpt lat="38.213852622508334" lon="-1.1646982673112405"><ele>391.71428571428567</ele><time>2026-04-07T09:17:20Z</time></trkpt><trkpt lat="38.21389337909246" lon="-1.1646332267817658"><ele>393.2857142857143</ele><time>2026-04-07T09:17:22Z</time></trkpt><trkpt lat="38.21396972375883" lon="-1.164631916489461"><ele>394.85714285714283</ele><time>2026-04-07T09:17:24Z</time></trkpt><trkpt lat="38.214035304749835" lon="-1.1646185522862826"><ele>396.4285714285714</ele><time>2026-04-07T09:17:26Z</time></trkpt><trkpt lat="38.21409374718456" lon="-1.1645874222012904"><ele>398.0</ele><time>2026-04-07T09:17:29Z</time></trkpt><trkpt lat="38.21419585432162" lon="-1.164561232954096"><ele>397.99999999999994</ele><time>2026-04-07T09:17:56Z</time></trkpt><trkpt lat="38.21423835530385" lon="-1.1644787469131266"><ele>398.0</ele><time>2026-04-07T09:18:00Z</time></trkpt><trkpt lat="38.21426178282058" lon="-1.1643834959684594"><ele>398.0</ele><time>2026-04-07T09:18:45Z</time></trkpt><trkpt lat="38.21425948379485" lon="-1.1642905249025202"><ele>398.0</ele><time>2026-04-07T09:18:49Z</time></trkpt><trkpt lat="38.21425442939406" lon="-1.1641839476909126"><ele>397.99999999999994</ele><time>2026-04-07T09:18:52Z</time></trkpt><trkpt lat="38.214254637694275" lon="-1.164063919577228"><ele>398.0</ele><time>2026-04-07T09:18:55Z</time></trkpt><trkpt lat="38.21426057575033" lon="-1.1639143646005583"><ele>401.49999999999994</ele><time>2026-04-07T09:18:58Z</time></trkpt><trkpt lat="38.2142610562883" lon="-1.1638254321741026"><ele>405.0</ele><time>2026-04-07T09:18:59Z</time></trkpt><trkpt lat="38.214271511027434" lon="-1.1637303615848018"><ele>408.5</ele><time>2026-04-07T09:19:01Z</time></trkpt><trkpt lat="38.214292727175525" lon="-1.1636179622378415"><ele>412.0</ele><time>2026-04-07T09:19:03Z</time></trkpt><trkpt lat="38.214297674078566" lon="-1.1634999940371993"><ele>415.49999999999994</ele><time>2026-04-07T09:19:05Z</time></trkpt><trkpt lat="38.21430742058597" lon="-1.1634062893977515"><ele>419.0</ele><time>2026-04-07T09:19:07Z</time></trkpt><trkpt lat="38.21434329744265" lon="-1.1633298740349873"><ele>419.0</ele><time>2026-04-07T09:19:09Z</time></trkpt><trkpt lat="38.21439463591254" lon="-1.16325550501669"><ele>419.0</ele><time>2026-04-07T09:19:11Z</time></trkpt><trkpt lat="38.21445524694253" lon="-1.1632122053572498"><ele>419.0</ele><time>2026-04-07T09:19:14Z</time></trkpt><trkpt lat="38.21451557397211" lon="-1.1631752881023656"><ele>419.0</ele><time>2026-04-07T09:19:16Z</time></trkpt><trkpt lat="38.214585471421074" lon="-1.1631617419953086"><ele>419.0</ele><time>2026-04-07T09:19:19Z</time></trkpt><trkpt lat="38.21473650708127" lon="-1.1630523894709806"><ele>422.71428571428567</ele><time>2026-04-07T09:19:22Z</time></trkpt><trkpt lat="38.214768970575825" lon="-1.1629607149037924"><ele>426.42857142857144</ele><time>2026-04-07T09:19:24Z</time></trkpt><trkpt lat="38.21478897443467" lon="-1.162870442557069"><ele>430.1428571428571</ele><time>2026-04-07T09:19:26Z</time></trkpt><trkpt lat="38.21482917844837" lon="-1.1627999204578559"><ele>433.85714285714283</ele><time>2026-04-07T09:19:28Z</time></trkpt><trkpt lat="38.214887319154954" lon="-1.1627648872661929"><ele>437.57142857142856</ele><time>2026-04-07T09:19:30Z</time></trkpt><trkpt lat="38.2149527919367" lon="-1.1627065099949723"><ele>441.2857142857143</ele><time>2026-04-07T09:19:32Z</time></trkpt><trkpt lat="38.21499887277546" lon="-1.1626432095548862"><ele>445.0</ele><time>2026-04-07T09:19:34Z</time></trkpt><trkpt lat="38.21503746435258" lon="-1.1625770318076187"><ele>445.00000000000006</ele><time>2026-04-07T09:19:36Z</time></trkpt><trkpt lat="38.215066680575006" lon="-1.162505722671759"><ele>445.0</ele><time>2026-04-07T09:19:38Z</time></trkpt><trkpt lat="38.215060997453925" lon="-1.1624221966337533"><ele>445.0</ele><time>2026-04-07T09:19:40Z</time></trkpt><trkpt lat="38.21515046672522" lon="-1.16232710490461"><ele>445.0</ele><time>2026-04-07T09:19:42Z</time></trkpt><trkpt lat="38.21521368224151" lon="-1.1622773216427373"><ele>445.00000000000006</ele><time>2026-04-07T09:19:44Z</time></trkpt><trkpt lat="38.21524954853458" lon="-1.1621967508916737"><ele>445.0</ele><time>2026-04-07T09:19:47Z</time></trkpt><trkpt lat="38.215152543818036" lon="-1.1621764640462537"><ele>446.6</ele><time>2026-04-07T09:19:56Z</time></trkpt><trkpt lat="38.215086795961135" lon="-1.16210695711094"><ele>448.2</ele><time>2026-04-07T09:21:53Z</time></trkpt><trkpt lat="38.21503854074759" lon="-1.1619701121444646"><ele>449.79999999999995</ele><time>2026-04-07T09:21:55Z</time></trkpt><trkpt lat="38.214999819493684" lon="-1.1618831088314527"><ele>451.4</ele><time>2026-04-07T09:21:56Z</time></trkpt><trkpt lat="38.21494795995017" lon="-1.161780910184195"><ele>453.0</ele><time>2026-04-07T09:21:57Z</time></trkpt><trkpt lat="38.21489609850025" lon="-1.161688521775614"><ele>453.0</ele><time>2026-04-07T09:21:58Z</time></trkpt><trkpt lat="38.21484190324861" lon="-1.16160695009104"><ele>453.0</ele><time>2026-04-07T09:21:59Z</time></trkpt><trkpt lat="38.214785337371545" lon="-1.1615343358232946"><ele>453.0</ele><time>2026-04-07T09:22:00Z</time></trkpt><trkpt lat="38.21473595492807" lon="-1.1614708531531244"><ele>453.0</ele><time>2026-04-07T09:22:01Z</time></trkpt><trkpt lat="38.21469254091358" lon="-1.1614086499503873"><ele>453.0</ele><time>2026-04-07T09:22:02Z</time></trkpt><trkpt lat="38.21465177853207" lon="-1.1613393101172271"><ele>453.0</ele><time>2026-04-07T09:22:03Z</time></trkpt><trkpt lat="38.21461794772064" lon="-1.161198542815762"><ele>450.5</ele><time>2026-04-07T09:22:05Z</time></trkpt><trkpt lat="38.214623802638165" lon="-1.1611172273416708"><ele>448.0</ele><time>2026-04-07T09:22:06Z</time></trkpt><trkpt lat="38.21463699489479" lon="-1.1610360020926664"><ele>445.5</ele><time>2026-04-07T09:22:07Z</time></trkpt><trkpt lat="38.2146422332962" lon="-1.1609525566635464"><ele>443.0</ele><time>2026-04-07T09:22:08Z</time></trkpt><trkpt lat="38.21464372571625" lon="-1.1608719922867257"><ele>440.5</ele><time>2026-04-07T09:22:09Z</time></trkpt><trkpt lat="38.21468359415063" lon="-1.160734610246481"><ele>438.0</ele><time>2026-04-07T09:22:11Z</time></trkpt><trkpt lat="38.2147315898612" lon="-1.1606436700350182"><ele>436.79999999999995</ele><time>2026-04-07T09:22:12Z</time></trkpt><trkpt lat="38.21478379077003" lon="-1.160554025578127"><ele>435.59999999999997</ele><time>2026-04-07T09:22:13Z</time></trkpt><trkpt lat="38.21482924501137" lon="-1.1604722311450553"><ele>434.40000000000003</ele><time>2026-04-07T09:22:14Z</time></trkpt><trkpt lat="38.21489087097813" lon="-1.1603721167580692"><ele>433.20000000000005</ele><time>2026-04-07T09:22:16Z</time></trkpt><trkpt lat="38.21498688743066" lon="-1.1602735479452495"><ele>432.0</ele><time>2026-04-07T09:22:18Z</time></trkpt><trkpt lat="38.21509954597723" lon="-1.16020497393468"><ele>432.0</ele><time>2026-04-07T09:22:20Z</time></trkpt><trkpt lat="38.215159838057865" lon="-1.1601667942751495"><ele>432.0</ele><time>2026-04-07T09:22:21Z</time></trkpt><trkpt lat="38.21522581153727" lon="-1.1601278318767647"><ele>432.0</ele><time>2026-04-07T09:22:22Z</time></trkpt><trkpt lat="38.21528303182425" lon="-1.1600870314263763"><ele>432.0</ele><time>2026-04-07T09:22:23Z</time></trkpt><trkpt lat="38.215388141167665" lon="-1.1600053920489648"><ele>432.0</ele><time>2026-04-07T09:22:25Z</time></trkpt><trkpt lat="38.215445684343656" lon="-1.159961705974804"><ele>432.0</ele><time>2026-04-07T09:22:26Z</time></trkpt><trkpt lat="38.21550562384163" lon="-1.159913391864071"><ele>432.1666666666667</ele><time>2026-04-07T09:22:27Z</time></trkpt><trkpt lat="38.21556202209287" lon="-1.159863813138264"><ele>432.33333333333337</ele><time>2026-04-07T09:22:28Z</time></trkpt><trkpt lat="38.21562421795886" lon="-1.1598127991149776"><ele>432.5</ele><time>2026-04-07T09:22:29Z</time></trkpt><trkpt lat="38.215691383284124" lon="-1.1597640180772946"><ele>432.6666666666667</ele><time>2026-04-07T09:22:30Z</time></trkpt><trkpt lat="38.215750068909095" lon="-1.1597158084757424"><ele>432.83333333333337</ele><time>2026-04-07T09:22:31Z</time></trkpt><trkpt lat="38.21581450226646" lon="-1.1596527724837504"><ele>433.0</ele><time>2026-04-07T09:22:32Z</time></trkpt><trkpt lat="38.21587990086922" lon="-1.1595847421144148"><ele>433.00000000000006</ele><time>2026-04-07T09:22:33Z</time></trkpt><trkpt lat="38.21593991302734" lon="-1.1595159918550821"><ele>433.0</ele><time>2026-04-07T09:22:34Z</time></trkpt><trkpt lat="38.2159928582687" lon="-1.1594434495735542"><ele>433.0</ele><time>2026-04-07T09:22:35Z</time></trkpt><trkpt lat="38.21602905225161" lon="-1.1593670423630034"><ele>433.0</ele><time>2026-04-07T09:22:36Z</time></trkpt><trkpt lat="38.21606280700868" lon="-1.1592621517685016"><ele>433.00000000000006</ele><time>2026-04-07T09:22:38Z</time></trkpt><trkpt lat="38.216171176887286" lon="-1.1591684447960684"><ele>433.0</ele><time>2026-04-07T09:22:40Z</time></trkpt><trkpt lat="38.21625686748477" lon="-1.1591031367122626"><ele>433.00000000000006</ele><time>2026-04-07T09:22:41Z</time></trkpt><trkpt lat="38.21633814355219" lon="-1.1590636457874068"><ele>433.0</ele><time>2026-04-07T09:22:42Z</time></trkpt><trkpt lat="38.21640851284139" lon="-1.15904021899458"><ele>433.0</ele><time>2026-04-07T09:22:43Z</time></trkpt><trkpt lat="38.21652088421878" lon="-1.1589986868030062"><ele>433.0</ele><time>2026-04-07T09:22:45Z</time></trkpt><trkpt lat="38.21658811021939" lon="-1.1589532204983632"><ele>433.00000000000006</ele><time>2026-04-07T09:22:47Z</time></trkpt><trkpt lat="38.21663407875555" lon="-1.1588838960872974"><ele>433.0</ele><time>2026-04-07T09:22:49Z</time></trkpt><trkpt lat="38.21663617085489" lon="-1.158775657121353"><ele>431.79999999999995</ele><time>2026-04-07T09:22:51Z</time></trkpt><trkpt lat="38.21662756180558" lon="-1.1586688575178183"><ele>430.59999999999997</ele><time>2026-04-07T09:22:53Z</time></trkpt><trkpt lat="38.216606094447" lon="-1.1585510725507409"><ele>429.40000000000003</ele><time>2026-04-07T09:22:55Z</time></trkpt><trkpt lat="38.21653375586933" lon="-1.158490740935235"><ele>428.20000000000005</ele><time>2026-04-07T09:22:56Z</time></trkpt><trkpt lat="38.216520931333356" lon="-1.1583418976479731"><ele>427.0</ele><time>2026-04-07T09:22:58Z</time></trkpt><trkpt lat="38.216525449995146" lon="-1.1581915271437213"><ele>424.83333333333337</ele><time>2026-04-07T09:23:00Z</time></trkpt><trkpt lat="38.21654063154992" lon="-1.158048613097999"><ele>422.6666666666667</ele><time>2026-04-07T09:23:02Z</time></trkpt><trkpt lat="38.216554148869214" lon="-1.1578932530852795"><ele>420.5</ele><time>2026-04-07T09:23:04Z</time></trkpt><trkpt lat="38.216558112675905" lon="-1.1578080829496673"><ele>418.33333333333337</ele><time>2026-04-07T09:23:05Z</time></trkpt><trkpt lat="38.21655899424928" lon="-1.1577270369896764"><ele>416.1666666666667</ele><time>2026-04-07T09:23:06Z</time></trkpt><trkpt lat="38.21655976570446" lon="-1.1576463939448853"><ele>414.0</ele><time>2026-04-07T09:23:07Z</time></trkpt><trkpt lat="38.21656038060133" lon="-1.1575600648380573"><ele>414.0</ele><time>2026-04-07T09:23:08Z</time></trkpt><trkpt lat="38.21655203611807" lon="-1.1574794882343515"><ele>414.0</ele><time>2026-04-07T09:23:09Z</time></trkpt><trkpt lat="38.21647403877218" lon="-1.157336336516799"><ele>414.0</ele><time>2026-04-07T09:23:11Z</time></trkpt><trkpt lat="38.21641221901356" lon="-1.1572404794206042"><ele>414.0</ele><time>2026-04-07T09:23:12Z</time></trkpt><trkpt lat="38.21635186785977" lon="-1.157158241880209"><ele>414.0</ele><time>2026-04-07T09:23:13Z</time></trkpt><trkpt lat="38.21630476630707" lon="-1.1570748693214885"><ele>412.28571428571433</ele><time>2026-04-07T09:23:14Z</time></trkpt><trkpt lat="38.2162669473091" lon="-1.156994845460082"><ele>410.57142857142856</ele><time>2026-04-07T09:23:15Z</time></trkpt><trkpt lat="38.216241516909136" lon="-1.1569174113047418"><ele>408.8571428571429</ele><time>2026-04-07T09:23:16Z</time></trkpt><trkpt lat="38.21622637149548" lon="-1.1568286383386261"><ele>407.14285714285717</ele><time>2026-04-07T09:23:17Z</time></trkpt><trkpt lat="38.21622233824884" lon="-1.1567332332049731"><ele>405.42857142857144</ele><time>2026-04-07T09:23:18Z</time></trkpt><trkpt lat="38.21622645261881" lon="-1.1566362407320674"><ele>403.7142857142857</ele><time>2026-04-07T09:23:19Z</time></trkpt><trkpt lat="38.216230457654376" lon="-1.1565347695856127"><ele>402.0</ele><time>2026-04-07T09:23:20Z</time></trkpt><trkpt lat="38.216233360140556" lon="-1.1564306520190692"><ele>399.6666666666667</ele><time>2026-04-07T09:23:21Z</time></trkpt><trkpt lat="38.21624955941758" lon="-1.1563201249617059"><ele>397.33333333333337</ele><time>2026-04-07T09:23:22Z</time></trkpt><trkpt lat="38.216277731581314" lon="-1.1562233316681352"><ele>395.0</ele><time>2026-04-07T09:23:23Z</time></trkpt><trkpt lat="38.21629162091214" lon="-1.156144493854236"><ele>392.6666666666667</ele><time>2026-04-07T09:23:24Z</time></trkpt><trkpt lat="38.21627394007714" lon="-1.1560278480571695"><ele>390.33333333333337</ele><time>2026-04-07T09:23:26Z</time></trkpt><trkpt lat="38.21620490121629" lon="-1.1559737858431625"><ele>388.0</ele><time>2026-04-07T09:23:28Z</time></trkpt><trkpt lat="38.2160942243853" lon="-1.1559843109284405"><ele>388.00000000000006</ele><time>2026-04-07T09:23:30Z</time></trkpt><trkpt lat="38.21603558602684" lon="-1.1560268842613188"><ele>388.0</ele><time>2026-04-07T09:23:31Z</time></trkpt><trkpt lat="38.21598540097794" lon="-1.1560866615726495"><ele>388.0</ele><time>2026-04-07T09:23:32Z</time></trkpt><trkpt lat="38.215912004405766" lon="-1.15618297290895"><ele>388.0</ele><time>2026-04-07T09:23:34Z</time></trkpt><trkpt lat="38.215837990288435" lon="-1.1561949419903095"><ele>388.00000000000006</ele><time>2026-04-07T09:23:36Z</time></trkpt><trkpt lat="38.21575847407058" lon="-1.15615940506757"><ele>388.0</ele><time>2026-04-07T09:23:38Z</time></trkpt><trkpt lat="38.21566103064015" lon="-1.1560947798033783"><ele>386.6666666666667</ele><time>2026-04-07T09:23:40Z</time></trkpt><trkpt lat="38.21560004875285" lon="-1.156036314797381"><ele>385.33333333333337</ele><time>2026-04-07T09:23:41Z</time></trkpt><trkpt lat="38.215537808311886" lon="-1.1559722308910894"><ele>384.0</ele><time>2026-04-07T09:23:42Z</time></trkpt><trkpt lat="38.21548429940142" lon="-1.1559036990964855"><ele>382.6666666666667</ele><time>2026-04-07T09:23:43Z</time></trkpt><trkpt lat="38.215440102834656" lon="-1.1558196069001498"><ele>381.33333333333337</ele><time>2026-04-07T09:23:44Z</time></trkpt><trkpt lat="38.21541292417296" lon="-1.155716633744376"><ele>380.0</ele><time>2026-04-07T09:23:45Z</time></trkpt><trkpt lat="38.21539452610035" lon="-1.1556160717385149"><ele>377.2</ele><time>2026-04-07T09:23:46Z</time></trkpt><trkpt lat="38.21538122041168" lon="-1.1555255638235364"><ele>374.4</ele><time>2026-04-07T09:23:47Z</time></trkpt><trkpt lat="38.215350938959276" lon="-1.1553792384040111"><ele>371.6</ele><time>2026-04-07T09:23:49Z</time></trkpt><trkpt lat="38.215303238701594" lon="-1.1552424263959835"><ele>368.8</ele><time>2026-04-07T09:23:51Z</time></trkpt><trkpt lat="38.21526296441184" lon="-1.1551183944999495"><ele>366.0</ele><time>2026-04-07T09:23:53Z</time></trkpt><trkpt lat="38.21522070401696" lon="-1.1549973925931345"><ele>366.0</ele><time>2026-04-07T09:23:55Z</time></trkpt><trkpt lat="38.2151548057438" lon="-1.1548893742878907"><ele>366.0</ele><time>2026-04-07T09:23:57Z</time></trkpt><trkpt lat="38.21510426123257" lon="-1.1548397573905829"><ele>366.0</ele><time>2026-04-07T09:23:58Z</time></trkpt><trkpt lat="38.215045782301026" lon="-1.154805278787264"><ele>366.0</ele><time>2026-04-07T09:23:59Z</time></trkpt><trkpt lat="38.21498198760926" lon="-1.154773303000663"><ele>366.0</ele><time>2026-04-07T09:24:00Z</time></trkpt><trkpt lat="38.214917972434236" lon="-1.1547369619340162"><ele>366.0</ele><time>2026-04-07T09:24:01Z</time></trkpt><trkpt lat="38.21480251764759" lon="-1.1546744220307907"><ele>363.6</ele><time>2026-04-07T09:24:03Z</time></trkpt><trkpt lat="38.214731287221646" lon="-1.1546210123238643"><ele>361.20000000000005</ele><time>2026-04-07T09:24:05Z</time></trkpt><trkpt lat="38.21474150397692" lon="-1.1545274400459506"><ele>358.79999999999995</ele><time>2026-04-07T09:24:08Z</time></trkpt><trkpt lat="38.21486310272028" lon="-1.1544818701776733"><ele>356.4</ele><time>2026-04-07T09:24:10Z</time></trkpt><trkpt lat="38.21495574941957" lon="-1.1544847461289047"><ele>354.0</ele><time>2026-04-07T09:24:11Z</time></trkpt><trkpt lat="38.21505668131643" lon="-1.1544797727511387"><ele>354.0</ele><time>2026-04-07T09:24:12Z</time></trkpt><trkpt lat="38.21516548929983" lon="-1.1544536332822384"><ele>354.0</ele><time>2026-04-07T09:24:13Z</time></trkpt><trkpt lat="38.21527460782402" lon="-1.154420675803786"><ele>354.0</ele><time>2026-04-07T09:24:14Z</time></trkpt><trkpt lat="38.215366396193495" lon="-1.1543775494135182"><ele>354.0</ele><time>2026-04-07T09:24:15Z</time></trkpt><trkpt lat="38.215447138046564" lon="-1.154328065336337"><ele>354.0</ele><time>2026-04-07T09:24:16Z</time></trkpt><trkpt lat="38.21551686204016" lon="-1.1542731833001472"><ele>354.0</ele><time>2026-04-07T09:24:17Z</time></trkpt><trkpt lat="38.21558269327662" lon="-1.1542027847423668"><ele>354.0</ele><time>2026-04-07T09:24:18Z</time></trkpt><trkpt lat="38.21561490542367" lon="-1.1541183183003214"><ele>354.0</ele><time>2026-04-07T09:24:19Z</time></trkpt><trkpt lat="38.21565334888618" lon="-1.1540027027581072"><ele>354.0</ele><time>2026-04-07T09:24:21Z</time></trkpt><trkpt lat="38.21571585769665" lon="-1.1538974874402124"><ele>354.0</ele><time>2026-04-07T09:24:23Z</time></trkpt><trkpt lat="38.21577568461134" lon="-1.1538281005590671"><ele>354.0</ele><time>2026-04-07T09:24:24Z</time></trkpt><trkpt lat="38.21582563612513" lon="-1.1537341694698986"><ele>358.3333333333333</ele><time>2026-04-07T09:24:25Z</time></trkpt><trkpt lat="38.21585588521192" lon="-1.153625250042906"><ele>362.66666666666663</ele><time>2026-04-07T09:24:27Z</time></trkpt><trkpt lat="38.21558872599375" lon="-1.153531406092755"><ele>367.0</ele><time>2026-04-07T09:24:32Z</time></trkpt><trkpt lat="38.215503533890676" lon="-1.1536205116767755"><ele>367.0</ele><time>2026-04-07T09:24:35Z</time></trkpt><trkpt lat="38.21539105881617" lon="-1.1536244104869375"><ele>367.0</ele><time>2026-04-07T09:24:37Z</time></trkpt><trkpt lat="38.21528044386725" lon="-1.1535627543307712"><ele>367.0</ele><time>2026-04-07T09:24:39Z</time></trkpt><trkpt lat="38.21515728531371" lon="-1.153498353062722"><ele>367.0</ele><time>2026-04-07T09:24:41Z</time></trkpt><trkpt lat="38.21509341219942" lon="-1.1534594972060168"><ele>367.0</ele><time>2026-04-07T09:24:42Z</time></trkpt><trkpt lat="38.21499710512199" lon="-1.153428406903967"><ele>367.0</ele><time>2026-04-07T09:24:44Z</time></trkpt><trkpt lat="38.21492907619425" lon="-1.1534509311765444"><ele>367.0</ele><time>2026-04-07T09:24:45Z</time></trkpt><trkpt lat="38.214861374977616" lon="-1.1534680026390172"><ele>367.0</ele><time>2026-04-07T09:24:46Z</time></trkpt><trkpt lat="38.214795194356945" lon="-1.1534394672855064"><ele>367.0</ele><time>2026-04-07T09:24:47Z</time></trkpt><trkpt lat="38.21474129561578" lon="-1.1533938416393168"><ele>367.0</ele><time>2026-04-07T09:24:48Z</time></trkpt><trkpt lat="38.214691275880746" lon="-1.1533303133308317"><ele>367.0</ele><time>2026-04-07T09:24:49Z</time></trkpt><trkpt lat="38.21460852296315" lon="-1.1532327961402689"><ele>370.0</ele><time>2026-04-07T09:24:51Z</time></trkpt><trkpt lat="38.21454388123851" lon="-1.1531568254468079"><ele>373.0</ele><time>2026-04-07T09:24:53Z</time></trkpt><trkpt lat="38.21448402057364" lon="-1.1530885662617758"><ele>376.0</ele><time>2026-04-07T09:24:55Z</time></trkpt><trkpt lat="38.214366397926455" lon="-1.1530741769687487"><ele>379.0</ele><time>2026-04-07T09:24:58Z</time></trkpt><trkpt lat="38.214261506856914" lon="-1.1530638460233484"><ele>382.0</ele><time>2026-04-07T09:25:00Z</time></trkpt><trkpt lat="38.21416495103791" lon="-1.1530616259079685"><ele>382.0</ele><time>2026-04-07T09:25:02Z</time></trkpt><trkpt lat="38.21405944362873" lon="-1.153062281251321"><ele>382.0</ele><time>2026-04-07T09:25:04Z</time></trkpt><trkpt lat="38.21399969477587" lon="-1.153098268366015"><ele>382.0</ele><time>2026-04-07T09:25:05Z</time></trkpt><trkpt lat="38.21395420621922" lon="-1.1531649396226984"><ele>382.0</ele><time>2026-04-07T09:25:06Z</time></trkpt><trkpt lat="38.21391571644213" lon="-1.1532434870565578"><ele>382.0</ele><time>2026-04-07T09:25:07Z</time></trkpt><trkpt lat="38.213873794606116" lon="-1.1533036012193623"><ele>382.0</ele><time>2026-04-07T09:25:08Z</time></trkpt><trkpt lat="38.213816506440025" lon="-1.1533430778261842"><ele>382.0</ele><time>2026-04-07T09:25:09Z</time></trkpt><trkpt lat="38.213733381054475" lon="-1.1533746706846761"><ele>378.8333333333333</ele><time>2026-04-07T09:25:10Z</time></trkpt><trkpt lat="38.21363345106864" lon="-1.1533820932780443"><ele>375.66666666666663</ele><time>2026-04-07T09:25:11Z</time></trkpt><trkpt lat="38.21353550485141" lon="-1.1534069902273079"><ele>372.5</ele><time>2026-04-07T09:25:12Z</time></trkpt><trkpt lat="38.21346362244031" lon="-1.153451880374847"><ele>369.3333333333333</ele><time>2026-04-07T09:25:13Z</time></trkpt><trkpt lat="38.21341216130616" lon="-1.153516015247886"><ele>366.1666666666667</ele><time>2026-04-07T09:25:14Z</time></trkpt><trkpt lat="38.21335676878547" lon="-1.1535761216129206"><ele>363.0</ele><time>2026-04-07T09:25:15Z</time></trkpt><trkpt lat="38.21328605364604" lon="-1.1536004424421769"><ele>363.0</ele><time>2026-04-07T09:25:16Z</time></trkpt><trkpt lat="38.21318885741109" lon="-1.1536049107954196"><ele>363.0</ele><time>2026-04-07T09:25:17Z</time></trkpt><trkpt lat="38.213114655885114" lon="-1.1536026229927434"><ele>363.0</ele><time>2026-04-07T09:25:18Z</time></trkpt><trkpt lat="38.212995232336844" lon="-1.153599804089354"><ele>363.0</ele><time>2026-04-07T09:25:20Z</time></trkpt><trkpt lat="38.21292667800945" lon="-1.1536436080360508"><ele>363.0</ele><time>2026-04-07T09:25:21Z</time></trkpt><trkpt lat="38.212853184302226" lon="-1.1536975853921803"><ele>363.3333333333333</ele><time>2026-04-07T09:25:22Z</time></trkpt><trkpt lat="38.21278115420368" lon="-1.1537043735955665"><ele>363.6666666666667</ele><time>2026-04-07T09:25:23Z</time></trkpt><trkpt lat="38.21266535129038" lon="-1.153655749902335"><ele>364.0</ele><time>2026-04-07T09:25:25Z</time></trkpt><trkpt lat="38.212601046783135" lon="-1.1536384127528783"><ele>364.33333333333337</ele><time>2026-04-07T09:25:26Z</time></trkpt><trkpt lat="38.21253647877864" lon="-1.1536481163134713"><ele>364.6666666666667</ele><time>2026-04-07T09:25:27Z</time></trkpt><trkpt lat="38.212462389809076" lon="-1.1536380577150431"><ele>365.0</ele><time>2026-04-07T09:25:28Z</time></trkpt><trkpt lat="38.21238373716219" lon="-1.1536081558446865"><ele>363.6</ele><time>2026-04-07T09:25:29Z</time></trkpt><trkpt lat="38.212320177985475" lon="-1.153582651780767"><ele>362.2</ele><time>2026-04-07T09:25:30Z</time></trkpt><trkpt lat="38.21219300949255" lon="-1.1535693311439217"><ele>360.79999999999995</ele><time>2026-04-07T09:25:32Z</time></trkpt><trkpt lat="38.21211328897817" lon="-1.1535583801697522"><ele>359.4</ele><time>2026-04-07T09:25:33Z</time></trkpt><trkpt lat="38.212021333963904" lon="-1.1535464819671575"><ele>358.0</ele><time>2026-04-07T09:25:34Z</time></trkpt><trkpt lat="38.21192729922092" lon="-1.1535455180237386"><ele>358.0</ele><time>2026-04-07T09:25:35Z</time></trkpt><trkpt lat="38.2118332965675" lon="-1.1535440757184472"><ele>358.0</ele><time>2026-04-07T09:25:36Z</time></trkpt><trkpt lat="38.21175447393141" lon="-1.1535409019419485"><ele>358.0</ele><time>2026-04-07T09:25:37Z</time></trkpt><trkpt lat="38.21167972759224" lon="-1.153534364568377"><ele>358.0</ele><time>2026-04-07T09:25:38Z</time></trkpt><trkpt lat="38.21161098961259" lon="-1.1535275399106923"><ele>358.0</ele><time>2026-04-07T09:25:39Z</time></trkpt><trkpt lat="38.21154499350709" lon="-1.153517242828177"><ele>358.0</ele><time>2026-04-07T09:25:40Z</time></trkpt><trkpt lat="38.21148122733408" lon="-1.1534914142010264"><ele>359.16666666666663</ele><time>2026-04-07T09:25:41Z</time></trkpt><trkpt lat="38.211409197727" lon="-1.1534447136617438"><ele>360.3333333333333</ele><time>2026-04-07T09:25:42Z</time></trkpt><trkpt lat="38.21133958008721" lon="-1.1533896403080113"><ele>361.5</ele><time>2026-04-07T09:25:43Z</time></trkpt><trkpt lat="38.21127365620409" lon="-1.153338354990808"><ele>362.6666666666667</ele><time>2026-04-07T09:25:44Z</time></trkpt><trkpt lat="38.211209030568035" lon="-1.1532773836302863"><ele>363.83333333333337</ele><time>2026-04-07T09:25:45Z</time></trkpt><trkpt lat="38.21112794989918" lon="-1.1532037215859576"><ele>365.0</ele><time>2026-04-07T09:25:46Z</time></trkpt><trkpt lat="38.2110350953085" lon="-1.1531260704091946"><ele>365.0</ele><time>2026-04-07T09:25:47Z</time></trkpt><trkpt lat="38.210956259599755" lon="-1.153062755261184"><ele>365.0</ele><time>2026-04-07T09:25:48Z</time></trkpt><trkpt lat="38.21088768300575" lon="-1.1530086331271185"><ele>365.0</ele><time>2026-04-07T09:25:49Z</time></trkpt><trkpt lat="38.21081212185638" lon="-1.152983267133708"><ele>365.0</ele><time>2026-04-07T09:25:50Z</time></trkpt><trkpt lat="38.21074924003314" lon="-1.1529470370373962"><ele>365.0</ele><time>2026-04-07T09:25:51Z</time></trkpt><trkpt lat="38.210685973918075" lon="-1.1528902575741626"><ele>365.0</ele><time>2026-04-07T09:25:52Z</time></trkpt><trkpt lat="38.210627976858234" lon="-1.1528487577856583"><ele>362.6666666666667</ele><time>2026-04-07T09:25:53Z</time></trkpt><trkpt lat="38.21056391487612" lon="-1.1528510715833062"><ele>360.33333333333337</ele><time>2026-04-07T09:25:54Z</time></trkpt><trkpt lat="38.210500818378016" lon="-1.152873568297741"><ele>358.0</ele><time>2026-04-07T09:25:55Z</time></trkpt><trkpt lat="38.210428867608556" lon="-1.1528824994764797"><ele>355.6666666666667</ele><time>2026-04-07T09:25:56Z</time></trkpt><trkpt lat="38.21030509634843" lon="-1.1528326047640531"><ele>353.3333333333333</ele><time>2026-04-07T09:25:58Z</time></trkpt><trkpt lat="38.21023885283676" lon="-1.1527622406539315"><ele>351.0</ele><time>2026-04-07T09:25:59Z</time></trkpt><trkpt lat="38.21017784361274" lon="-1.1526868916221622"><ele>351.0</ele><time>2026-04-07T09:26:00Z</time></trkpt><trkpt lat="38.2101248791982" lon="-1.1526142998955862"><ele>351.0</ele><time>2026-04-07T09:26:01Z</time></trkpt><trkpt lat="38.21007711972967" lon="-1.1525284751113019"><ele>351.0</ele><time>2026-04-07T09:26:02Z</time></trkpt><trkpt lat="38.21001721659452" lon="-1.1524452969307308"><ele>351.0</ele><time>2026-04-07T09:26:03Z</time></trkpt><trkpt lat="38.2099465750031" lon="-1.152393408567484"><ele>351.0</ele><time>2026-04-07T09:26:04Z</time></trkpt><trkpt lat="38.20987142749806" lon="-1.1523507090133274"><ele>351.0</ele><time>2026-04-07T09:26:05Z</time></trkpt><trkpt lat="38.20979508574557" lon="-1.1522924181481933"><ele>352.1666666666667</ele><time>2026-04-07T09:26:06Z</time></trkpt><trkpt lat="38.20972370742983" lon="-1.1522085009936704"><ele>353.3333333333333</ele><time>2026-04-07T09:26:07Z</time></trkpt><trkpt lat="38.209660073998975" lon="-1.152110814001751"><ele>354.5</ele><time>2026-04-07T09:26:08Z</time></trkpt><trkpt lat="38.20961286280226" lon="-1.152021714991538"><ele>355.66666666666663</ele><time>2026-04-07T09:26:09Z</time></trkpt><trkpt lat="38.209571598630376" lon="-1.1519384394942647"><ele>356.8333333333333</ele><time>2026-04-07T09:26:10Z</time></trkpt><trkpt lat="38.20952301478181" lon="-1.15188240370989"><ele>358.0</ele><time>2026-04-07T09:26:11Z</time></trkpt><trkpt lat="38.20939388281783" lon="-1.1518868889891432"><ele>358.0</ele><time>2026-04-07T09:26:13Z</time></trkpt><trkpt lat="38.20932251550517" lon="-1.1518915713331748"><ele>358.0</ele><time>2026-04-07T09:26:14Z</time></trkpt><trkpt lat="38.2092445104674" lon="-1.1518598943633682"><ele>358.0</ele><time>2026-04-07T09:26:15Z</time></trkpt><trkpt lat="38.209174944452364" lon="-1.151810556388655"><ele>358.0</ele><time>2026-04-07T09:26:16Z</time></trkpt><trkpt lat="38.20907974860128" lon="-1.1517664434094714"><ele>358.0</ele><time>2026-04-07T09:26:18Z</time></trkpt><trkpt lat="38.208973405462956" lon="-1.151718409146101"><ele>358.0</ele><time>2026-04-07T09:26:20Z</time></trkpt><trkpt lat="38.20886556398532" lon="-1.1517189941577461"><ele>355.5</ele><time>2026-04-07T09:26:22Z</time></trkpt><trkpt lat="38.208756139949344" lon="-1.1517023391216195"><ele>353.0</ele><time>2026-04-07T09:26:24Z</time></trkpt><trkpt lat="38.208693418560934" lon="-1.1516418768332948"><ele>350.5</ele><time>2026-04-07T09:26:25Z</time></trkpt><trkpt lat="38.20863930794892" lon="-1.1515820878850362"><ele>348.0</ele><time>2026-04-07T09:26:26Z</time></trkpt><trkpt lat="38.20859012237649" lon="-1.1515160460740514"><ele>345.5</ele><time>2026-04-07T09:26:27Z</time></trkpt><trkpt lat="38.20855424427553" lon="-1.151441748282822"><ele>343.0</ele><time>2026-04-07T09:26:28Z</time></trkpt><trkpt lat="38.20853436922545" lon="-1.1513489365810448"><ele>343.0</ele><time>2026-04-07T09:26:29Z</time></trkpt><trkpt lat="38.20851574814412" lon="-1.1512663774879979"><ele>343.0</ele><time>2026-04-07T09:26:30Z</time></trkpt><trkpt lat="38.20849735606299" lon="-1.1511326302503766"><ele>343.0</ele><time>2026-04-07T09:26:32Z</time></trkpt><trkpt lat="38.20842989224227" lon="-1.1509997606625297"><ele>343.0</ele><time>2026-04-07T09:26:34Z</time></trkpt><trkpt lat="38.20836500316443" lon="-1.1508823583520262"><ele>343.0</ele><time>2026-04-07T09:26:36Z</time></trkpt><trkpt lat="38.208346911786855" lon="-1.1507213417092637"><ele>341.8333333333333</ele><time>2026-04-07T09:26:38Z</time></trkpt><trkpt lat="38.20830537388573" lon="-1.1506499342045162"><ele>340.66666666666663</ele><time>2026-04-07T09:26:39Z</time></trkpt><trkpt lat="38.20824689485552" lon="-1.1506059536982078"><ele>339.5</ele><time>2026-04-07T09:26:40Z</time></trkpt><trkpt lat="38.20817049343394" lon="-1.1505182767500326"><ele>338.3333333333333</ele><time>2026-04-07T09:26:42Z</time></trkpt><trkpt lat="38.20814426190069" lon="-1.1503810548070144"><ele>337.1666666666667</ele><time>2026-04-07T09:26:44Z</time></trkpt><trkpt lat="38.20814735291838" lon="-1.150295855175592"><ele>336.0</ele><time>2026-04-07T09:26:45Z</time></trkpt><trkpt lat="38.208091403090414" lon="-1.1502184744988224"><ele>336.0</ele><time>2026-04-07T09:26:47Z</time></trkpt><trkpt lat="38.20802341913636" lon="-1.1501848254318277"><ele>336.0</ele><time>2026-04-07T09:26:48Z</time></trkpt><trkpt lat="38.207982559961934" lon="-1.1501074404283578"><ele>336.0</ele><time>2026-04-07T09:26:49Z</time></trkpt><trkpt lat="38.207946937088785" lon="-1.1499988188073356"><ele>336.0</ele><time>2026-04-07T09:26:50Z</time></trkpt><trkpt lat="38.207900324974084" lon="-1.1498825373694417"><ele>336.0</ele><time>2026-04-07T09:26:51Z</time></trkpt><trkpt lat="38.207842759819734" lon="-1.149779466902629"><ele>336.0</ele><time>2026-04-07T09:26:52Z</time></trkpt><trkpt lat="38.20779341741899" lon="-1.14968316393134"><ele>335.0</ele><time>2026-04-07T09:26:53Z</time></trkpt><trkpt lat="38.207751547985204" lon="-1.1495939033114349"><ele>334.0</ele><time>2026-04-07T09:26:54Z</time></trkpt><trkpt lat="38.20771420822334" lon="-1.1495024016666364"><ele>333.0</ele><time>2026-04-07T09:26:55Z</time></trkpt><trkpt lat="38.20767508153175" lon="-1.1493961651660267"><ele>332.0</ele><time>2026-04-07T09:26:56Z</time></trkpt><trkpt lat="38.207647543923585" lon="-1.149273258735381"><ele>331.0</ele><time>2026-04-07T09:26:57Z</time></trkpt><trkpt lat="38.20763942601239" lon="-1.1491350623097198"><ele>331.3333333333333</ele><time>2026-04-07T09:26:58Z</time></trkpt><trkpt lat="38.20763081758578" lon="-1.1490108162441977"><ele>331.66666666666663</ele><time>2026-04-07T09:26:59Z</time></trkpt><trkpt lat="38.20762509354225" lon="-1.1488983582085186"><ele>332.0</ele><time>2026-04-07T09:27:00Z</time></trkpt><trkpt lat="38.20763669604304" lon="-1.148797272978453"><ele>332.3333333333333</ele><time>2026-04-07T09:27:01Z</time></trkpt><trkpt lat="38.20763705928059" lon="-1.1487017555234544"><ele>332.6666666666667</ele><time>2026-04-07T09:27:02Z</time></trkpt><trkpt lat="38.20763112473844" lon="-1.1485829552828564"><ele>333.0</ele><time>2026-04-07T09:27:03Z</time></trkpt><trkpt lat="38.207611168033246" lon="-1.1484644701267488"><ele>333.0</ele><time>2026-04-07T09:27:04Z</time></trkpt><trkpt lat="38.207584353254404" lon="-1.1483658913715364"><ele>333.0</ele><time>2026-04-07T09:27:05Z</time></trkpt><trkpt lat="38.207542873003845" lon="-1.1482769766360639"><ele>333.0</ele><time>2026-04-07T09:27:06Z</time></trkpt><trkpt lat="38.20749754535983" lon="-1.1481943314220755"><ele>333.0</ele><time>2026-04-07T09:27:07Z</time></trkpt><trkpt lat="38.20747065139343" lon="-1.1480915274638406"><ele>333.0</ele><time>2026-04-07T09:27:08Z</time></trkpt><trkpt lat="38.20744215052662" lon="-1.1480170087413701"><ele>333.0</ele><time>2026-04-07T09:27:09Z</time></trkpt><trkpt lat="38.20738409806653" lon="-1.1479585979675488"><ele>330.3333333333333</ele><time>2026-04-07T09:27:10Z</time></trkpt><trkpt lat="38.207313798816536" lon="-1.1479194466452929"><ele>327.6666666666667</ele><time>2026-04-07T09:27:11Z</time></trkpt><trkpt lat="38.20723117145268" lon="-1.1479019890859876"><ele>325.0</ele><time>2026-04-07T09:27:12Z</time></trkpt><trkpt lat="38.20713901342195" lon="-1.1478814106411508"><ele>322.33333333333337</ele><time>2026-04-07T09:27:13Z</time></trkpt><trkpt lat="38.20706266495916" lon="-1.1478459629029802"><ele>319.6666666666667</ele><time>2026-04-07T09:27:14Z</time></trkpt><trkpt lat="38.206980868325616" lon="-1.147766002712799"><ele>317.0</ele><time>2026-04-07T09:27:16Z</time></trkpt><trkpt lat="38.20695312083185" lon="-1.1476940245258567"><ele>317.0</ele><time>2026-04-07T09:27:17Z</time></trkpt><trkpt lat="38.20692128021488" lon="-1.1476021989291136"><ele>317.0</ele><time>2026-04-07T09:27:18Z</time></trkpt><trkpt lat="38.2068909515441" lon="-1.1475051301378685"><ele>317.0</ele><time>2026-04-07T09:27:19Z</time></trkpt><trkpt lat="38.20686101513863" lon="-1.1474086264352947"><ele>317.0</ele><time>2026-04-07T09:27:20Z</time></trkpt><trkpt lat="38.20684677694706" lon="-1.1473000912342293"><ele>317.0</ele><time>2026-04-07T09:27:21Z</time></trkpt><trkpt lat="38.20685206833447" lon="-1.1471756600446568"><ele>317.0</ele><time>2026-04-07T09:27:22Z</time></trkpt><trkpt lat="38.206859257009654" lon="-1.1470661930921318"><ele>315.33333333333337</ele><time>2026-04-07T09:27:23Z</time></trkpt><trkpt lat="38.20687373229429" lon="-1.146975776401785"><ele>313.6666666666667</ele><time>2026-04-07T09:27:24Z</time></trkpt><trkpt lat="38.206884868736" lon="-1.1468851945153626"><ele>312.0</ele><time>2026-04-07T09:27:25Z</time></trkpt><trkpt lat="38.20688936085" lon="-1.1467940634080729"><ele>310.3333333333333</ele><time>2026-04-07T09:27:26Z</time></trkpt><trkpt lat="38.2068917907747" lon="-1.1467067389539658"><ele>308.66666666666663</ele><time>2026-04-07T09:27:27Z</time></trkpt><trkpt lat="38.20688874102379" lon="-1.1466184746181258"><ele>307.0</ele><time>2026-04-07T09:27:28Z</time></trkpt><trkpt lat="38.2068632484624" lon="-1.1464566469793418"><ele>305.3333333333333</ele><time>2026-04-07T09:27:30Z</time></trkpt><trkpt lat="38.20683696182659" lon="-1.1463691077205564"><ele>303.66666666666663</ele><time>2026-04-07T09:27:31Z</time></trkpt><trkpt lat="38.20680046462732" lon="-1.146282100735471"><ele>302.0</ele><time>2026-04-07T09:27:32Z</time></trkpt><trkpt lat="38.20676025078514" lon="-1.1461926745717002"><ele>300.3333333333333</ele><time>2026-04-07T09:27:33Z</time></trkpt><trkpt lat="38.20671659607793" lon="-1.1461072064107156"><ele>298.6666666666667</ele><time>2026-04-07T09:27:34Z</time></trkpt><trkpt lat="38.206656531802274" lon="-1.146039063931797"><ele>297.0</ele><time>2026-04-07T09:27:35Z</time></trkpt><trkpt lat="38.20659539471389" lon="-1.1459873495142276"><ele>297.0</ele><time>2026-04-07T09:27:36Z</time></trkpt><trkpt lat="38.20652538770833" lon="-1.14589527200873"><ele>297.0</ele><time>2026-04-07T09:27:38Z</time></trkpt><trkpt lat="38.2064705771803" lon="-1.1457570719730503"><ele>297.0</ele><time>2026-04-07T09:27:40Z</time></trkpt><trkpt lat="38.206434687386995" lon="-1.145674519693998"><ele>297.0</ele><time>2026-04-07T09:27:41Z</time></trkpt><trkpt lat="38.20639805069075" lon="-1.1455914569412664"><ele>297.0</ele><time>2026-04-07T09:27:42Z</time></trkpt><trkpt lat="38.206356710137236" lon="-1.1455183380258034"><ele>297.0</ele><time>2026-04-07T09:27:43Z</time></trkpt><trkpt lat="38.20630187630375" lon="-1.1454548617563898"><ele>294.5</ele><time>2026-04-07T09:27:44Z</time></trkpt><trkpt lat="38.20625425468537" lon="-1.1453816121988218"><ele>292.0</ele><time>2026-04-07T09:27:45Z</time></trkpt><trkpt lat="38.20621026806207" lon="-1.1452959304299082"><ele>289.5</ele><time>2026-04-07T09:27:46Z</time></trkpt><trkpt lat="38.20617047244015" lon="-1.1452106779862272"><ele>287.0</ele><time>2026-04-07T09:27:47Z</time></trkpt><trkpt lat="38.20614107280823" lon="-1.1451297229367832"><ele>284.5</ele><time>2026-04-07T09:27:48Z</time></trkpt><trkpt lat="38.20609757681083" lon="-1.144984049380952"><ele>282.0</ele><time>2026-04-07T09:27:50Z</time></trkpt><trkpt lat="38.20608288453172" lon="-1.1448832970293996"><ele>280.3333333333333</ele><time>2026-04-07T09:27:51Z</time></trkpt><trkpt lat="38.20607655572528" lon="-1.1447483475710167"><ele>278.6666666666667</ele><time>2026-04-07T09:27:52Z</time></trkpt><trkpt lat="38.206083031724376" lon="-1.1446310175236538"><ele>277.0</ele><time>2026-04-07T09:27:53Z</time></trkpt><trkpt lat="38.206101648626046" lon="-1.14452015932688"><ele>275.33333333333337</ele><time>2026-04-07T09:27:54Z</time></trkpt><trkpt lat="38.20612356009472" lon="-1.1444207909945625"><ele>273.6666666666667</ele><time>2026-04-07T09:27:55Z</time></trkpt><trkpt lat="38.20612499490748" lon="-1.144323089142904"><ele>272.0</ele><time>2026-04-07T09:27:56Z</time></trkpt><trkpt lat="38.206104605309946" lon="-1.1442258947395771"><ele>272.0</ele><time>2026-04-07T09:27:57Z</time></trkpt><trkpt lat="38.206090257109736" lon="-1.1441446436710088"><ele>272.0</ele><time>2026-04-07T09:27:58Z</time></trkpt><trkpt lat="38.20611975932823" lon="-1.1440165743419715"><ele>272.0</ele><time>2026-04-07T09:28:00Z</time></trkpt><trkpt lat="38.20615744771221" lon="-1.1439332193271605"><ele>272.0</ele><time>2026-04-07T09:28:01Z</time></trkpt><trkpt lat="38.20619963489653" lon="-1.1438260180802895"><ele>272.0</ele><time>2026-04-07T09:28:02Z</time></trkpt><trkpt lat="38.206228289004834" lon="-1.1437266697966912"><ele>272.0</ele><time>2026-04-07T09:28:03Z</time></trkpt><trkpt lat="38.206215411097524" lon="-1.14361925880384"><ele>271.33333333333337</ele><time>2026-04-07T09:28:04Z</time></trkpt><trkpt lat="38.206185840347096" lon="-1.1435058297231127"><ele>270.6666666666667</ele><time>2026-04-07T09:28:05Z</time></trkpt><trkpt lat="38.206158724348725" lon="-1.14339400449028"><ele>270.0</ele><time>2026-04-07T09:28:06Z</time></trkpt><trkpt lat="38.20613568618225" lon="-1.1433005638822913"><ele>269.3333333333333</ele><time>2026-04-07T09:28:07Z</time></trkpt><trkpt lat="38.206119504651944" lon="-1.1432110111934757"><ele>268.66666666666663</ele><time>2026-04-07T09:28:08Z</time></trkpt><trkpt lat="38.20610882815619" lon="-1.1431227218787818"><ele>268.0</ele><time>2026-04-07T09:28:09Z</time></trkpt><trkpt lat="38.20611084416279" lon="-1.1430255298009182"><ele>267.0</ele><time>2026-04-07T09:28:10Z</time></trkpt><trkpt lat="38.20612706880975" lon="-1.1429244391413078"><ele>266.0</ele><time>2026-04-07T09:28:11Z</time></trkpt><trkpt lat="38.20615806057857" lon="-1.1428328304310849"><ele>265.0</ele><time>2026-04-07T09:28:12Z</time></trkpt><trkpt lat="38.20618586911663" lon="-1.1427371814044387"><ele>264.0</ele><time>2026-04-07T09:28:13Z</time></trkpt><trkpt lat="38.2062222002608" lon="-1.1426513300933063"><ele>263.0</ele><time>2026-04-07T09:28:14Z</time></trkpt><trkpt lat="38.206264115132825" lon="-1.1425706682407408"><ele>262.0</ele><time>2026-04-07T09:28:15Z</time></trkpt><trkpt lat="38.20629903299777" lon="-1.1424941091251786"><ele>262.0</ele><time>2026-04-07T09:28:16Z</time></trkpt><trkpt lat="38.206374219081816" lon="-1.1424003591570848"><ele>262.0</ele><time>2026-04-07T09:28:18Z</time></trkpt><trkpt lat="38.20647139964378" lon="-1.1423529578524865"><ele>262.0</ele><time>2026-04-07T09:28:20Z</time></trkpt><trkpt lat="38.206578283255396" lon="-1.1423784418554512"><ele>262.0</ele><time>2026-04-07T09:28:22Z</time></trkpt><trkpt lat="38.20665219121063" lon="-1.1423088053292736"><ele>262.0</ele><time>2026-04-07T09:28:24Z</time></trkpt><trkpt lat="38.20665780493768" lon="-1.142163410790707"><ele>263.3333333333333</ele><time>2026-04-07T09:28:26Z</time></trkpt><trkpt lat="38.20660391410422" lon="-1.1420776551295528"><ele>264.66666666666663</ele><time>2026-04-07T09:28:27Z</time></trkpt><trkpt lat="38.20658939616145" lon="-1.141963790797187"><ele>266.0</ele><time>2026-04-07T09:28:29Z</time></trkpt><trkpt lat="38.206684934282286" lon="-1.1419402558051168"><ele>267.3333333333333</ele><time>2026-04-07T09:28:32Z</time></trkpt><trkpt lat="38.206750589815606" lon="-1.1419482477476364"><ele>268.6666666666667</ele><time>2026-04-07T09:28:33Z</time></trkpt><trkpt lat="38.20683058879105" lon="-1.1419490699574772"><ele>270.0</ele><time>2026-04-07T09:28:35Z</time></trkpt><trkpt lat="38.206814589429726" lon="-1.1418679171791046"><ele>270.0</ele><time>2026-04-07T09:28:37Z</time></trkpt><trkpt lat="38.20676676958845" lon="-1.1417806654928684"><ele>270.0</ele><time>2026-04-07T09:28:38Z</time></trkpt><trkpt lat="38.20671198530771" lon="-1.1416961264420873"><ele>270.0</ele><time>2026-04-07T09:28:39Z</time></trkpt><trkpt lat="38.206671440486254" lon="-1.141600799601921"><ele>270.0</ele><time>2026-04-07T09:28:40Z</time></trkpt><trkpt lat="38.20663800770754" lon="-1.1415163003622621"><ele>270.0</ele><time>2026-04-07T09:28:41Z</time></trkpt><trkpt lat="38.20660642474504" lon="-1.1414367761101434"><ele>270.0</ele><time>2026-04-07T09:28:42Z</time></trkpt><trkpt lat="38.20657212433927" lon="-1.1413662399348459"><ele>269.6666666666667</ele><time>2026-04-07T09:28:43Z</time></trkpt><trkpt lat="38.206539854949426" lon="-1.1412900141543392"><ele>269.3333333333333</ele><time>2026-04-07T09:28:44Z</time></trkpt><trkpt lat="38.20649982259824" lon="-1.141206503214484"><ele>269.0</ele><time>2026-04-07T09:28:45Z</time></trkpt><trkpt lat="38.206443190039565" lon="-1.1411280759043358"><ele>268.66666666666663</ele><time>2026-04-07T09:28:46Z</time></trkpt><trkpt lat="38.206372632701736" lon="-1.141056041800479"><ele>268.3333333333333</ele><time>2026-04-07T09:28:47Z</time></trkpt><trkpt lat="38.20628868496062" lon="-1.1409947533952336"><ele>268.0</ele><time>2026-04-07T09:28:48Z</time></trkpt><trkpt lat="38.20619982957442" lon="-1.1409450066359788"><ele>267.5</ele><time>2026-04-07T09:28:49Z</time></trkpt><trkpt lat="38.20612013365098" lon="-1.1409032387406033"><ele>267.0</ele><time>2026-04-07T09:28:50Z</time></trkpt><trkpt lat="38.2060465308171" lon="-1.1408493871676315"><ele>266.5</ele><time>2026-04-07T09:28:51Z</time></trkpt><trkpt lat="38.2059723024952" lon="-1.1407834694881438"><ele>266.0</ele><time>2026-04-07T09:28:52Z</time></trkpt><trkpt lat="38.205909949573005" lon="-1.1407016713344056"><ele>265.5</ele><time>2026-04-07T09:28:53Z</time></trkpt><trkpt lat="38.20584732806954" lon="-1.140623840286137"><ele>265.0</ele><time>2026-04-07T09:28:54Z</time></trkpt><trkpt lat="38.205783116265444" lon="-1.1405556961026224"><ele>264.3333333333333</ele><time>2026-04-07T09:28:55Z</time></trkpt><trkpt lat="38.20572807687039" lon="-1.1404913251203002"><ele>263.66666666666663</ele><time>2026-04-07T09:28:56Z</time></trkpt><trkpt lat="38.20568856906333" lon="-1.1404098528296922"><ele>263.0</ele><time>2026-04-07T09:28:57Z</time></trkpt><trkpt lat="38.20565915027452" lon="-1.1403156787967623"><ele>262.3333333333333</ele><time>2026-04-07T09:28:58Z</time></trkpt><trkpt lat="38.20571988877135" lon="-1.1402150567037443"><ele>261.6666666666667</ele><time>2026-04-07T09:28:59Z</time></trkpt><trkpt lat="38.205747324186895" lon="-1.140118704319284"><ele>261.0</ele><time>2026-04-07T09:29:00Z</time></trkpt><trkpt lat="38.20578623748686" lon="-1.1400317327287437"><ele>261.0</ele><time>2026-04-07T09:29:01Z</time></trkpt><trkpt lat="38.20575534067419" lon="-1.139921885105162"><ele>261.0</ele><time>2026-04-07T09:29:02Z</time></trkpt><trkpt lat="38.20570197306512" lon="-1.1398263860272324"><ele>261.0</ele><time>2026-04-07T09:29:03Z</time></trkpt><trkpt lat="38.20565366168826" lon="-1.1397226529139584"><ele>261.0</ele><time>2026-04-07T09:29:04Z</time></trkpt><trkpt lat="38.20562783060365" lon="-1.1396057450258494"><ele>261.0</ele><time>2026-04-07T09:29:05Z</time></trkpt><trkpt lat="38.20561642485863" lon="-1.1394866871064486"><ele>259.8</ele><time>2026-04-07T09:29:06Z</time></trkpt><trkpt lat="38.205609435009904" lon="-1.1393704488058907"><ele>258.6</ele><time>2026-04-07T09:29:07Z</time></trkpt><trkpt lat="38.20560447484282" lon="-1.1392539693715509"><ele>257.4</ele><time>2026-04-07T09:29:08Z</time></trkpt><trkpt lat="38.20557236387902" lon="-1.1391398696246997"><ele>256.2</ele><time>2026-04-07T09:29:09Z</time></trkpt><trkpt lat="38.20554522870972" lon="-1.139032993824325"><ele>255.0</ele><time>2026-04-07T09:29:10Z</time></trkpt><trkpt lat="38.20549198299392" lon="-1.1389224528291197"><ele>254.2</ele><time>2026-04-07T09:29:11Z</time></trkpt><trkpt lat="38.20542346320097" lon="-1.138829188432883"><ele>253.4</ele><time>2026-04-07T09:29:12Z</time></trkpt><trkpt lat="38.20535620740697" lon="-1.1387519367387646"><ele>252.60000000000002</ele><time>2026-04-07T09:29:13Z</time></trkpt><trkpt lat="38.20529200070204" lon="-1.1386668877184625"><ele>251.8</ele><time>2026-04-07T09:29:14Z</time></trkpt><trkpt lat="38.20522117211331" lon="-1.1386012657414903"><ele>251.0</ele><time>2026-04-07T09:29:15Z</time></trkpt><trkpt lat="38.205147178564395" lon="-1.1385442182989478"><ele>251.0</ele><time>2026-04-07T09:29:16Z</time></trkpt><trkpt lat="38.20507582657044" lon="-1.1384829666948775"><ele>251.00000000000003</ele><time>2026-04-07T09:29:17Z</time></trkpt><trkpt lat="38.20499947868346" lon="-1.1384190907540204"><ele>251.00000000000003</ele><time>2026-04-07T09:29:18Z</time></trkpt><trkpt lat="38.20491610971321" lon="-1.138361835620587"><ele>251.0</ele><time>2026-04-07T09:29:19Z</time></trkpt><trkpt lat="38.20483226907568" lon="-1.1383189670020106"><ele>251.0</ele><time>2026-04-07T09:29:20Z</time></trkpt><trkpt lat="38.20474879142338" lon="-1.1382823561347417"><ele>249.8</ele><time>2026-04-07T09:29:21Z</time></trkpt><trkpt lat="38.204673208919715" lon="-1.1382448314216094"><ele>248.60000000000002</ele><time>2026-04-07T09:29:22Z</time></trkpt><trkpt lat="38.20457567235808" lon="-1.1382419449354562"><ele>247.4</ele><time>2026-04-07T09:29:23Z</time></trkpt><trkpt lat="38.204487488845366" lon="-1.1382551110513108"><ele>246.2</ele><time>2026-04-07T09:29:24Z</time></trkpt><trkpt lat="38.2043929315804" lon="-1.1382910327716325"><ele>245.0</ele><time>2026-04-07T09:29:25Z</time></trkpt><trkpt lat="38.20429451739313" lon="-1.1383388713423428"><ele>245.0</ele><time>2026-04-07T09:29:26Z</time></trkpt><trkpt lat="38.20419321170308" lon="-1.1383973573515012"><ele>245.0</ele><time>2026-04-07T09:29:27Z</time></trkpt><trkpt lat="38.204103177569905" lon="-1.1384518245147506"><ele>245.0</ele><time>2026-04-07T09:29:28Z</time></trkpt><trkpt lat="38.204015603343606" lon="-1.1385018005847727"><ele>245.0</ele><time>2026-04-07T09:29:29Z</time></trkpt><trkpt lat="38.203931106115625" lon="-1.1385421788186931"><ele>245.0</ele><time>2026-04-07T09:29:30Z</time></trkpt><trkpt lat="38.20383945673328" lon="-1.138564100826913"><ele>244.2</ele><time>2026-04-07T09:29:31Z</time></trkpt><trkpt lat="38.20373901625141" lon="-1.1385774405837885"><ele>243.4</ele><time>2026-04-07T09:29:32Z</time></trkpt><trkpt lat="38.20364314013395" lon="-1.1385846439885488"><ele>242.60000000000002</ele><time>2026-04-07T09:29:33Z</time></trkpt><trkpt lat="38.20354953115699" lon="-1.1385722737300656"><ele>241.8</ele><time>2026-04-07T09:29:34Z</time></trkpt><trkpt lat="38.20345111050721" lon="-1.1385485009186747"><ele>241.0</ele><time>2026-04-07T09:29:35Z</time></trkpt><trkpt lat="38.203353485661225" lon="-1.1385142604696914"><ele>241.0</ele><time>2026-04-07T09:29:36Z</time></trkpt><trkpt lat="38.20325395519171" lon="-1.1384812102630109"><ele>241.00000000000003</ele><time>2026-04-07T09:29:37Z</time></trkpt><trkpt lat="38.20315835878312" lon="-1.1384554963395215"><ele>241.00000000000003</ele><time>2026-04-07T09:29:38Z</time></trkpt><trkpt lat="38.20306806076213" lon="-1.1384203794154217"><ele>241.0</ele><time>2026-04-07T09:29:39Z</time></trkpt><trkpt lat="38.2029825694022" lon="-1.1383928873955178"><ele>241.0</ele><time>2026-04-07T09:29:40Z</time></trkpt><trkpt lat="38.202895923434525" lon="-1.138374349874121"><ele>240.20000000000002</ele><time>2026-04-07T09:29:41Z</time></trkpt><trkpt lat="38.202811924924106" lon="-1.1383600193370549"><ele>239.40000000000003</ele><time>2026-04-07T09:29:42Z</time></trkpt><trkpt lat="38.20273537264366" lon="-1.1383413590051061"><ele>238.6</ele><time>2026-04-07T09:29:43Z</time></trkpt><trkpt lat="38.20266901851493" lon="-1.1383362424626853"><ele>237.8</ele><time>2026-04-07T09:29:44Z</time></trkpt><trkpt lat="38.20260332557211" lon="-1.13832488258464"><ele>237.0</ele><time>2026-04-07T09:29:46Z</time></trkpt><trkpt lat="38.20256520034158" lon="-1.1381270399121048"><ele>237.0</ele><time>2026-04-07T09:29:50Z</time></trkpt><trkpt lat="38.202585582648425" lon="-1.1380471306842297"><ele>237.0</ele><time>2026-04-07T09:29:51Z</time></trkpt><trkpt lat="38.20260619602196" lon="-1.1379589290655432"><ele>237.0</ele><time>2026-04-07T09:29:52Z</time></trkpt><trkpt lat="38.20262949632074" lon="-1.137859689462667"><ele>237.0</ele><time>2026-04-07T09:29:53Z</time></trkpt><trkpt lat="38.20265322024374" lon="-1.1377586453276247"><ele>237.0</ele><time>2026-04-07T09:29:54Z</time></trkpt><trkpt lat="38.20267953372326" lon="-1.1376501343267245"><ele>237.0</ele><time>2026-04-07T09:29:55Z</time></trkpt><trkpt lat="38.20270710912447" lon="-1.1375372589382826"><ele>237.0</ele><time>2026-04-07T09:29:56Z</time></trkpt><trkpt lat="38.202734333907024" lon="-1.1374227546508258"><ele>237.0</ele><time>2026-04-07T09:29:57Z</time></trkpt><trkpt lat="38.20276007158153" lon="-1.137308449161246"><ele>237.0</ele><time>2026-04-07T09:29:58Z</time></trkpt><trkpt lat="38.20279962169779" lon="-1.1371997958071642"><ele>237.0</ele><time>2026-04-07T09:29:59Z</time></trkpt><trkpt lat="38.20282029612864" lon="-1.137081378346003"><ele>237.0</ele><time>2026-04-07T09:30:00Z</time></trkpt><trkpt lat="38.202845758392776" lon="-1.1369663885478156"><ele>236.8</ele><time>2026-04-07T09:30:01Z</time></trkpt><trkpt lat="38.20286916101796" lon="-1.1368455508787534"><ele>236.6</ele><time>2026-04-07T09:30:02Z</time></trkpt><trkpt lat="38.20289301402523" lon="-1.1367247510082408"><ele>236.40000000000003</ele><time>2026-04-07T09:30:03Z</time></trkpt><trkpt lat="38.20291254972139" lon="-1.136608671228322"><ele>236.20000000000002</ele><time>2026-04-07T09:30:04Z</time></trkpt><trkpt lat="38.202921763092355" lon="-1.1365035587791943"><ele>236.0</ele><time>2026-04-07T09:30:05Z</time></trkpt><trkpt lat="38.20292909797836" lon="-1.1363994060178573"><ele>236.0</ele><time>2026-04-07T09:30:06Z</time></trkpt><trkpt lat="38.202948014836984" lon="-1.1362848493793176"><ele>236.00000000000003</ele><time>2026-04-07T09:30:07Z</time></trkpt><trkpt lat="38.20297446594744" lon="-1.1361739696759612"><ele>236.00000000000003</ele><time>2026-04-07T09:30:08Z</time></trkpt><trkpt lat="38.20300774139558" lon="-1.136061958389756"><ele>236.0</ele><time>2026-04-07T09:30:09Z</time></trkpt><trkpt lat="38.203052722015265" lon="-1.1359538977204944"><ele>236.0</ele><time>2026-04-07T09:30:10Z</time></trkpt><trkpt lat="38.203095050616106" lon="-1.1358432044722724"><ele>236.0</ele><time>2026-04-07T09:30:11Z</time></trkpt><trkpt lat="38.20314847828367" lon="-1.1357509283289133"><ele>236.00000000000003</ele><time>2026-04-07T09:30:12Z</time></trkpt><trkpt lat="38.20320475195997" lon="-1.135660420200771"><ele>236.00000000000003</ele><time>2026-04-07T09:30:13Z</time></trkpt><trkpt lat="38.20326783207694" lon="-1.135567080928476"><ele>236.0</ele><time>2026-04-07T09:30:14Z</time></trkpt><trkpt lat="38.203333919677746" lon="-1.135472863736916"><ele>236.0</ele><time>2026-04-07T09:30:15Z</time></trkpt><trkpt lat="38.20334361711543" lon="-1.135341670213625"><ele>235.8</ele><time>2026-04-07T09:30:16Z</time></trkpt><trkpt lat="38.20336062626515" lon="-1.135202162843479"><ele>235.60000000000002</ele><time>2026-04-07T09:30:17Z</time></trkpt><trkpt lat="38.20338897869753" lon="-1.1350482389192993"><ele>235.4</ele><time>2026-04-07T09:30:18Z</time></trkpt><trkpt lat="38.20339681869172" lon="-1.1349090291976909"><ele>235.2</ele><time>2026-04-07T09:30:19Z</time></trkpt><trkpt lat="38.203395433812105" lon="-1.1347769539045738"><ele>235.0</ele><time>2026-04-07T09:30:20Z</time></trkpt><trkpt lat="38.20338501904882" lon="-1.1346466502029144"><ele>235.4</ele><time>2026-04-07T09:30:21Z</time></trkpt><trkpt lat="38.203379078125025" lon="-1.1345115691417034"><ele>235.8</ele><time>2026-04-07T09:30:22Z</time></trkpt><trkpt lat="38.203373025077205" lon="-1.134375936373998"><ele>236.2</ele><time>2026-04-07T09:30:23Z</time></trkpt><trkpt lat="38.20338344103087" lon="-1.134247150897961"><ele>236.6</ele><time>2026-04-07T09:30:24Z</time></trkpt><trkpt lat="38.203407845535544" lon="-1.134114002809554"><ele>237.0</ele><time>2026-04-07T09:30:25Z</time></trkpt><trkpt lat="38.20344362525287" lon="-1.1339833152800196"><ele>237.2</ele><time>2026-04-07T09:30:26Z</time></trkpt><trkpt lat="38.20345729413853" lon="-1.1338448186201"><ele>237.39999999999998</ele><time>2026-04-07T09:30:27Z</time></trkpt><trkpt lat="38.20350211038697" lon="-1.1337201428312806"><ele>237.60000000000002</ele><time>2026-04-07T09:30:28Z</time></trkpt><trkpt lat="38.20353087934222" lon="-1.1335928577492507"><ele>237.8</ele><time>2026-04-07T09:30:29Z</time></trkpt><trkpt lat="38.20355921156634" lon="-1.1334675668287517"><ele>238.0</ele><time>2026-04-07T09:30:30Z</time></trkpt><trkpt lat="38.203586510633954" lon="-1.133348284556351"><ele>237.99999999999997</ele><time>2026-04-07T09:30:31Z</time></trkpt><trkpt lat="38.20360620981062" lon="-1.1332272803650845"><ele>238.0</ele><time>2026-04-07T09:30:32Z</time></trkpt><trkpt lat="38.203613133855505" lon="-1.1331188391704545"><ele>238.0</ele><time>2026-04-07T09:30:33Z</time></trkpt><trkpt lat="38.20359563949274" lon="-1.133028761094848"><ele>238.0</ele><time>2026-04-07T09:30:34Z</time></trkpt><trkpt lat="38.20355275693155" lon="-1.132950966239674"><ele>237.99999999999997</ele><time>2026-04-07T09:30:35Z</time></trkpt><trkpt lat="38.20348379527251" lon="-1.1328914916506994"><ele>238.0</ele><time>2026-04-07T09:30:36Z</time></trkpt><trkpt lat="38.20340641379177" lon="-1.1328485688753902"><ele>238.16666666666666</ele><time>2026-04-07T09:30:37Z</time></trkpt><trkpt lat="38.203345815225184" lon="-1.1327812024779336"><ele>238.33333333333331</ele><time>2026-04-07T09:30:38Z</time></trkpt><trkpt lat="38.20331088798941" lon="-1.1326950017117259"><ele>238.5</ele><time>2026-04-07T09:30:39Z</time></trkpt><trkpt lat="38.20330177675931" lon="-1.132604513403104"><ele>238.66666666666669</ele><time>2026-04-07T09:30:40Z</time></trkpt><trkpt lat="38.203321975533015" lon="-1.1325080137847277"><ele>238.83333333333334</ele><time>2026-04-07T09:30:41Z</time></trkpt><trkpt lat="38.20334657362243" lon="-1.132397036357836"><ele>239.0</ele><time>2026-04-07T09:30:42Z</time></trkpt><trkpt lat="38.203377627819634" lon="-1.1322921670166968"><ele>238.2</ele><time>2026-04-07T09:30:43Z</time></trkpt><trkpt lat="38.20341847691735" lon="-1.1321971369182786"><ele>237.39999999999998</ele><time>2026-04-07T09:30:44Z</time></trkpt><trkpt lat="38.20342495396114" lon="-1.1320876613249915"><ele>236.6</ele><time>2026-04-07T09:30:45Z</time></trkpt><trkpt lat="38.20341672493755" lon="-1.1319581862897934"><ele>235.8</ele><time>2026-04-07T09:30:46Z</time></trkpt><trkpt lat="38.20339387806741" lon="-1.1318407625860807"><ele>235.0</ele><time>2026-04-07T09:30:47Z</time></trkpt><trkpt lat="38.203357640671676" lon="-1.131743210764812"><ele>234.99999999999997</ele><time>2026-04-07T09:30:48Z</time></trkpt><trkpt lat="38.203305962406915" lon="-1.131666999829253"><ele>235.0</ele><time>2026-04-07T09:30:49Z</time></trkpt><trkpt lat="38.20325166902232" lon="-1.1316099891837583"><ele>235.0</ele><time>2026-04-07T09:30:50Z</time></trkpt><trkpt lat="38.203212718592624" lon="-1.131541522723065"><ele>235.0</ele><time>2026-04-07T09:30:51Z</time></trkpt><trkpt lat="38.20317580377711" lon="-1.1314642337692737"><ele>234.99999999999997</ele><time>2026-04-07T09:30:52Z</time></trkpt><trkpt lat="38.20317971016742" lon="-1.1313576707280801"><ele>235.0</ele><time>2026-04-07T09:30:53Z</time></trkpt><trkpt lat="38.20324411710793" lon="-1.131261177523716"><ele>234.99999999999997</ele><time>2026-04-07T09:30:54Z</time></trkpt><trkpt lat="38.20325816619148" lon="-1.1311483658470995"><ele>235.0</ele><time>2026-04-07T09:30:55Z</time></trkpt><trkpt lat="38.203278871527246" lon="-1.131036090085329"><ele>235.0</ele><time>2026-04-07T09:30:56Z</time></trkpt><trkpt lat="38.203292755342574" lon="-1.1309288129945403"><ele>235.0</ele><time>2026-04-07T09:30:57Z</time></trkpt><trkpt lat="38.20332203761719" lon="-1.1308195845215352"><ele>234.99999999999997</ele><time>2026-04-07T09:30:58Z</time></trkpt><trkpt lat="38.20333453011775" lon="-1.1307202981640334"><ele>235.0</ele><time>2026-04-07T09:30:59Z</time></trkpt><trkpt lat="38.20334500219957" lon="-1.1306255924348454"><ele>234.99999999999997</ele><time>2026-04-07T09:31:00Z</time></trkpt><trkpt lat="38.20336017604672" lon="-1.1305363673718642"><ele>235.0</ele><time>2026-04-07T09:31:01Z</time></trkpt><trkpt lat="38.203362335982675" lon="-1.1304429410831642"><ele>235.0</ele><time>2026-04-07T09:31:02Z</time></trkpt><trkpt lat="38.20338826649541" lon="-1.1303607341166975"><ele>235.0</ele><time>2026-04-07T09:31:03Z</time></trkpt><trkpt lat="38.20340546297852" lon="-1.1302609095047895"><ele>234.99999999999997</ele><time>2026-04-07T09:31:05Z</time></trkpt><trkpt lat="38.20342744127828" lon="-1.1301626025461746"><ele>235.0</ele><time>2026-04-07T09:31:09Z</time></trkpt><trkpt lat="38.20355179825243" lon="-1.1301648803197322"><ele>235.0</ele><time>2026-04-07T09:31:10Z</time></trkpt><trkpt lat="38.20367675816742" lon="-1.1301565173084396"><ele>235.0</ele><time>2026-04-07T09:31:12Z</time></trkpt><trkpt lat="38.20374918410667" lon="-1.130150710748483"><ele>235.0</ele><time>2026-04-07T09:31:13Z</time></trkpt><trkpt lat="38.20383464775415" lon="-1.1301419775670885"><ele>235.0</ele><time>2026-04-07T09:31:14Z</time></trkpt><trkpt lat="38.20392435488041" lon="-1.130132172566783"><ele>235.0</ele><time>2026-04-07T09:31:15Z</time></trkpt><trkpt lat="38.20400331248888" lon="-1.1301247952724514"><ele>235.2</ele><time>2026-04-07T09:31:16Z</time></trkpt><trkpt lat="38.20407171964283" lon="-1.1301207988854505"><ele>235.4</ele><time>2026-04-07T09:31:17Z</time></trkpt><trkpt lat="38.20417858520657" lon="-1.1300951425495263"><ele>235.60000000000002</ele><time>2026-04-07T09:31:19Z</time></trkpt><trkpt lat="38.204241133945864" lon="-1.1299667734854215"><ele>235.8</ele><time>2026-04-07T09:31:21Z</time></trkpt><trkpt lat="38.204277472702834" lon="-1.129878085891563"><ele>236.0</ele><time>2026-04-07T09:31:22Z</time></trkpt><trkpt lat="38.20428348775026" lon="-1.1297747321549136"><ele>236.00000000000003</ele><time>2026-04-07T09:31:23Z</time></trkpt><trkpt lat="38.20428772453231" lon="-1.1296695076402175"><ele>236.0</ele><time>2026-04-07T09:31:24Z</time></trkpt><trkpt lat="38.20430111778225" lon="-1.1295608598103593"><ele>236.0</ele><time>2026-04-07T09:31:25Z</time></trkpt><trkpt lat="38.204325979784166" lon="-1.1294484362188606"><ele>236.0</ele><time>2026-04-07T09:31:26Z</time></trkpt><trkpt lat="38.20433660659541" lon="-1.1293306112264518"><ele>236.00000000000003</ele><time>2026-04-07T09:31:27Z</time></trkpt><trkpt lat="38.20435932283795" lon="-1.1292140501649248"><ele>236.0</ele><time>2026-04-07T09:31:28Z</time></trkpt><trkpt lat="38.20439752256942" lon="-1.129097630951827"><ele>235.60000000000002</ele><time>2026-04-07T09:31:29Z</time></trkpt><trkpt lat="38.20441824963251" lon="-1.128976946419341"><ele>235.20000000000002</ele><time>2026-04-07T09:31:30Z</time></trkpt><trkpt lat="38.2044396309875" lon="-1.1288549132340742"><ele>234.79999999999998</ele><time>2026-04-07T09:31:31Z</time></trkpt><trkpt lat="38.204466686758494" lon="-1.128725662698974"><ele>234.39999999999998</ele><time>2026-04-07T09:31:32Z</time></trkpt><trkpt lat="38.2044807864614" lon="-1.1285907987444894"><ele>234.0</ele><time>2026-04-07T09:31:33Z</time></trkpt><trkpt lat="38.20450450148409" lon="-1.1284691127336335"><ele>234.0</ele><time>2026-04-07T09:31:34Z</time></trkpt><trkpt lat="38.204534483552536" lon="-1.1283702551962789"><ele>233.99999999999997</ele><time>2026-04-07T09:31:35Z</time></trkpt><trkpt lat="38.20455831006521" lon="-1.128263294188395"><ele>233.99999999999997</ele><time>2026-04-07T09:31:36Z</time></trkpt><trkpt lat="38.20458146104519" lon="-1.1281467970890877"><ele>234.0</ele><time>2026-04-07T09:31:37Z</time></trkpt><trkpt lat="38.20459955567124" lon="-1.1280298695625532"><ele>234.0</ele><time>2026-04-07T09:31:38Z</time></trkpt><trkpt lat="38.2046176959975" lon="-1.127909065105161"><ele>234.0</ele><time>2026-04-07T09:31:39Z</time></trkpt><trkpt lat="38.20463988707478" lon="-1.1277845090327738"><ele>233.99999999999997</ele><time>2026-04-07T09:31:40Z</time></trkpt><trkpt lat="38.20466423446902" lon="-1.1276652377515684"><ele>233.99999999999997</ele><time>2026-04-07T09:31:41Z</time></trkpt><trkpt lat="38.20468571275696" lon="-1.127553801596527"><ele>234.0</ele><time>2026-04-07T09:31:42Z</time></trkpt><trkpt lat="38.20470670230093" lon="-1.1274377649034417"><ele>234.0</ele><time>2026-04-07T09:31:43Z</time></trkpt><trkpt lat="38.20473101758463" lon="-1.1273259023591597"><ele>234.0</ele><time>2026-04-07T09:31:44Z</time></trkpt><trkpt lat="38.204753429502475" lon="-1.127215307807543"><ele>234.0</ele><time>2026-04-07T09:31:45Z</time></trkpt><trkpt lat="38.204775095877174" lon="-1.1271052491079194"><ele>234.0</ele><time>2026-04-07T09:31:46Z</time></trkpt><trkpt lat="38.20479873365523" lon="-1.126995960927776"><ele>234.0</ele><time>2026-04-07T09:31:47Z</time></trkpt><trkpt lat="38.2048214583305" lon="-1.126890582736584"><ele>234.0</ele><time>2026-04-07T09:31:48Z</time></trkpt><trkpt lat="38.20484754676887" lon="-1.1267803262232816"><ele>234.0</ele><time>2026-04-07T09:31:49Z</time></trkpt><trkpt lat="38.204879884634394" lon="-1.12666711670402"><ele>235.0</ele><time>2026-04-07T09:31:50Z</time></trkpt><trkpt lat="38.20492095185683" lon="-1.126548696636405"><ele>236.0</ele><time>2026-04-07T09:31:51Z</time></trkpt><trkpt lat="38.20496758530495" lon="-1.1264255513030943"><ele>237.0</ele><time>2026-04-07T09:31:52Z</time></trkpt><trkpt lat="38.205020724516785" lon="-1.126289127114907"><ele>238.0</ele><time>2026-04-07T09:31:53Z</time></trkpt><trkpt lat="38.20507394511817" lon="-1.1261455502970197"><ele>238.0</ele><time>2026-04-07T09:31:54Z</time></trkpt><trkpt lat="38.20511941673218" lon="-1.1259985378084452"><ele>238.0</ele><time>2026-04-07T09:31:55Z</time></trkpt><trkpt lat="38.20515384048374" lon="-1.125864109091602"><ele>238.0</ele><time>2026-04-07T09:31:56Z</time></trkpt><trkpt lat="38.20519207433295" lon="-1.125743056842837"><ele>238.0</ele><time>2026-04-07T09:31:57Z</time></trkpt><trkpt lat="38.20523040797837" lon="-1.1256360866641257"><ele>238.0</ele><time>2026-04-07T09:31:58Z</time></trkpt><trkpt lat="38.20526648041951" lon="-1.1255337388822515"><ele>237.83333333333331</ele><time>2026-04-07T09:31:59Z</time></trkpt><trkpt lat="38.20530005546379" lon="-1.1254278181553172"><ele>237.66666666666666</ele><time>2026-04-07T09:32:00Z</time></trkpt><trkpt lat="38.205335738213556" lon="-1.125322962166947"><ele>237.5</ele><time>2026-04-07T09:32:01Z</time></trkpt><trkpt lat="38.20536611127064" lon="-1.1252259390809987"><ele>237.33333333333331</ele><time>2026-04-07T09:32:02Z</time></trkpt><trkpt lat="38.2053950818899" lon="-1.125137217701959"><ele>237.16666666666666</ele><time>2026-04-07T09:32:03Z</time></trkpt><trkpt lat="38.205427352817864" lon="-1.125057859491346"><ele>237.0</ele><time>2026-04-07T09:32:04Z</time></trkpt><trkpt lat="38.20545895054644" lon="-1.124986993092089"><ele>236.99999999999997</ele><time>2026-04-07T09:32:05Z</time></trkpt><trkpt lat="38.20549679761017" lon="-1.1249093667743668"><ele>237.0</ele><time>2026-04-07T09:32:06Z</time></trkpt><trkpt lat="38.205538742227816" lon="-1.1248250871058565"><ele>236.99999999999997</ele><time>2026-04-07T09:32:07Z</time></trkpt><trkpt lat="38.20556315353468" lon="-1.1247374718144454"><ele>236.99999999999997</ele><time>2026-04-07T09:32:08Z</time></trkpt><trkpt lat="38.20560047308174" lon="-1.1246629050470653"><ele>237.0</ele><time>2026-04-07T09:32:09Z</time></trkpt><trkpt lat="38.205649814625936" lon="-1.1246012932644556"><ele>236.99999999999997</ele><time>2026-04-07T09:32:10Z</time></trkpt><trkpt lat="38.205678320824404" lon="-1.124523964953563"><ele>236.99999999999997</ele><time>2026-04-07T09:32:11Z</time></trkpt><trkpt lat="38.20573717478121" lon="-1.1244050843765416"><ele>237.6</ele><time>2026-04-07T09:32:13Z</time></trkpt><trkpt lat="38.20578043251361" lon="-1.1243390790621663"><ele>238.2</ele><time>2026-04-07T09:32:15Z</time></trkpt><trkpt lat="38.20593702905126" lon="-1.1243655368123193"><ele>238.8</ele><time>2026-04-07T09:32:20Z</time></trkpt><trkpt lat="38.20602987637272" lon="-1.1244180949099205"><ele>239.4</ele><time>2026-04-07T09:32:22Z</time></trkpt><trkpt lat="38.20611548580014" lon="-1.1244760826333973"><ele>240.0</ele><time>2026-04-07T09:32:24Z</time></trkpt><trkpt lat="38.206205401403125" lon="-1.1245374428868815"><ele>240.0</ele><time>2026-04-07T09:32:26Z</time></trkpt><trkpt lat="38.20630398956759" lon="-1.124598720991506"><ele>240.0</ele><time>2026-04-07T09:32:28Z</time></trkpt><trkpt lat="38.20640650881292" lon="-1.1246565796889525"><ele>240.0</ele><time>2026-04-07T09:32:30Z</time></trkpt><trkpt lat="38.20651477327174" lon="-1.1247060225319307"><ele>240.0</ele><time>2026-04-07T09:32:32Z</time></trkpt><trkpt lat="38.206627067761154" lon="-1.1247469885790058"><ele>241.25</ele><time>2026-04-07T09:32:34Z</time></trkpt><trkpt lat="38.20673940779332" lon="-1.1247862893025633"><ele>242.5</ele><time>2026-04-07T09:32:36Z</time></trkpt><trkpt lat="38.20685046070899" lon="-1.1248234680303033"><ele>243.75</ele><time>2026-04-07T09:32:38Z</time></trkpt><trkpt lat="38.20696350817062" lon="-1.1248613144955488"><ele>245.0</ele><time>2026-04-07T09:32:40Z</time></trkpt><trkpt lat="38.207071150470284" lon="-1.124898435710779"><ele>245.0</ele><time>2026-04-07T09:32:42Z</time></trkpt><trkpt lat="38.20713678804184" lon="-1.1249299629702294"><ele>245.0</ele><time>2026-04-07T09:32:44Z</time></trkpt><trkpt lat="38.207180672910454" lon="-1.1246953021461585"><ele>245.0</ele><time>2026-04-07T09:32:49Z</time></trkpt><trkpt lat="38.20722413677862" lon="-1.1245944888286554"><ele>245.0</ele><time>2026-04-07T09:32:50Z</time></trkpt><trkpt lat="38.20726529324269" lon="-1.1244700610387515"><ele>245.00000000000003</ele><time>2026-04-07T09:32:52Z</time></trkpt><trkpt lat="38.20729019994671" lon="-1.1243897454479097"><ele>245.0</ele><time>2026-04-07T09:32:54Z</time></trkpt><trkpt lat="38.20730677177949" lon="-1.124300133380393"><ele>245.0</ele><time>2026-04-07T09:33:13Z</time></trkpt><trkpt lat="38.20730024381035" lon="-1.1241837197596514"><ele>245.0</ele><time>2026-04-07T09:33:15Z</time></trkpt><trkpt lat="38.20731012869029" lon="-1.1240800686521604"><ele>245.00000000000003</ele><time>2026-04-07T09:33:18Z</time></trkpt><trkpt lat="38.207320504129946" lon="-1.123917492557617"><ele>245.0</ele><time>2026-04-07T09:33:20Z</time></trkpt><trkpt lat="38.20734520484494" lon="-1.1238018230673708"><ele>246.0</ele><time>2026-04-07T09:33:22Z</time></trkpt><trkpt lat="38.20739983539963" lon="-1.1239119844759118"><ele>247.0</ele><time>2026-04-07T09:33:24Z</time></trkpt><trkpt lat="38.20736817542066" lon="-1.124030034634809"><ele>248.0</ele><time>2026-04-07T09:33:26Z</time></trkpt><trkpt lat="38.207368444318014" lon="-1.124134513093166"><ele>249.0</ele><time>2026-04-07T09:33:28Z</time></trkpt><trkpt lat="38.20735532016945" lon="-1.1242640204105163"><ele>250.0</ele><time>2026-04-07T09:33:31Z</time></trkpt><trkpt lat="38.20741705159986" lon="-1.1241655787028497"><ele>249.99999999999997</ele><time>2026-04-07T09:33:35Z</time></trkpt><trkpt lat="38.20743093694891" lon="-1.1240807107007882"><ele>250.0</ele><time>2026-04-07T09:33:37Z</time></trkpt><trkpt lat="38.20739932560611" lon="-1.123993525574783"><ele>250.0</ele><time>2026-04-07T09:33:40Z</time></trkpt><trkpt lat="38.20744167403426" lon="-1.1238947702279085"><ele>250.0</ele><time>2026-04-07T09:33:43Z</time></trkpt><trkpt lat="38.207518151847566" lon="-1.1238861135226617"><ele>249.99999999999997</ele><time>2026-04-07T09:33:47Z</time></trkpt><trkpt lat="38.20749407322531" lon="-1.124010215608872"><ele>250.0</ele><time>2026-04-07T09:33:50Z</time></trkpt><trkpt lat="38.20747417187999" lon="-1.124122380409848"><ele>250.16666666666666</ele><time>2026-04-07T09:33:52Z</time></trkpt><trkpt lat="38.20744672765542" lon="-1.1242026251222295"><ele>250.33333333333331</ele><time>2026-04-07T09:33:54Z</time></trkpt><trkpt lat="38.20742105765844" lon="-1.1243241026306972"><ele>250.5</ele><time>2026-04-07T09:33:56Z</time></trkpt><trkpt lat="38.20738169143779" lon="-1.1244193830795213"><ele>250.66666666666669</ele><time>2026-04-07T09:33:59Z</time></trkpt><trkpt lat="38.20732194302435" lon="-1.1243489472741595"><ele>250.83333333333334</ele><time>2026-04-07T09:34:02Z</time></trkpt><trkpt lat="38.20730091644312" lon="-1.124230459502465"><ele>251.0</ele><time>2026-04-07T09:34:05Z</time></trkpt><trkpt lat="38.207318517825755" lon="-1.1241353813479746"><ele>250.8</ele><time>2026-04-07T09:34:07Z</time></trkpt><trkpt lat="38.20732870168215" lon="-1.123987908387413"><ele>250.60000000000002</ele><time>2026-04-07T09:34:09Z</time></trkpt><trkpt lat="38.207337563939504" lon="-1.123846344825881"><ele>250.4</ele><time>2026-04-07T09:34:10Z</time></trkpt><trkpt lat="38.20738401687356" lon="-1.12377543692729"><ele>250.2</ele><time>2026-04-07T09:34:12Z</time></trkpt><trkpt lat="38.2074343880995" lon="-1.1239162290865663"><ele>250.0</ele><time>2026-04-07T09:34:14Z</time></trkpt><trkpt lat="38.207428713230286" lon="-1.1240084456750303"><ele>250.0</ele><time>2026-04-07T09:34:15Z</time></trkpt><trkpt lat="38.20741340732451" lon="-1.1240879008497215"><ele>250.0</ele><time>2026-04-07T09:34:16Z</time></trkpt><trkpt lat="38.20739993035042" lon="-1.124192602665835"><ele>250.0</ele><time>2026-04-07T09:34:18Z</time></trkpt><trkpt lat="38.207387386933284" lon="-1.124299795749044"><ele>250.0</ele><time>2026-04-07T09:34:20Z</time></trkpt><trkpt lat="38.207463019544335" lon="-1.1242476912208048"><ele>250.0</ele><time>2026-04-07T09:34:22Z</time></trkpt><trkpt lat="38.207444383001494" lon="-1.1240395828578642"><ele>249.99999999999997</ele><time>2026-04-07T09:34:23Z</time></trkpt><trkpt lat="38.207453060962344" lon="-1.123938209864748"><ele>250.0</ele><time>2026-04-07T09:34:24Z</time></trkpt><trkpt lat="38.207489174163534" lon="-1.123855258414873"><ele>250.0</ele><time>2026-04-07T09:34:26Z</time></trkpt><trkpt lat="38.20752082851552" lon="-1.1239482444085855"><ele>250.0</ele><time>2026-04-07T09:34:29Z</time></trkpt><trkpt lat="38.207485096711714" lon="-1.1240683395059872"><ele>249.99999999999997</ele><time>2026-04-07T09:34:31Z</time></trkpt><trkpt lat="38.20746201613841" lon="-1.1241528025861012"><ele>250.0</ele><time>2026-04-07T09:34:33Z</time></trkpt><trkpt lat="38.207440468854244" lon="-1.1242310872908345"><ele>250.2</ele><time>2026-04-07T09:34:35Z</time></trkpt><trkpt lat="38.207422691615406" lon="-1.1243287121625465"><ele>250.4</ele><time>2026-04-07T09:34:37Z</time></trkpt><trkpt lat="38.20738923768949" lon="-1.1244710088191114"><ele>250.60000000000002</ele><time>2026-04-07T09:34:41Z</time></trkpt><trkpt lat="38.20736475245217" lon="-1.1246232261160984"><ele>250.8</ele><time>2026-04-07T09:34:43Z</time></trkpt><trkpt lat="38.20734331495366" lon="-1.124707755954504"><ele>251.0</ele><time>2026-04-07T09:34:44Z</time></trkpt><trkpt lat="38.207310140218326" lon="-1.1248269530409334"><ele>250.16666666666669</ele><time>2026-04-07T09:34:45Z</time></trkpt><trkpt lat="38.207278569210835" lon="-1.124916879475241"><ele>249.33333333333334</ele><time>2026-04-07T09:34:46Z</time></trkpt><trkpt lat="38.20719844663453" lon="-1.124957320541944"><ele>248.5</ele><time>2026-04-07T09:34:48Z</time></trkpt><trkpt lat="38.20713559220439" lon="-1.1248320120900173"><ele>247.66666666666669</ele><time>2026-04-07T09:34:50Z</time></trkpt><trkpt lat="38.207164141371024" lon="-1.1247409974501228"><ele>246.83333333333334</ele><time>2026-04-07T09:34:51Z</time></trkpt><trkpt lat="38.20720503061633" lon="-1.1246397067107041"><ele>246.0</ele><time>2026-04-07T09:34:52Z</time></trkpt><trkpt lat="38.20729814073732" lon="-1.124402970285539"><ele>245.83333333333334</ele><time>2026-04-07T09:34:53Z</time></trkpt><trkpt lat="38.20732054155779" lon="-1.1242640041481253"><ele>245.66666666666669</ele><time>2026-04-07T09:34:54Z</time></trkpt><trkpt lat="38.20733381134152" lon="-1.1241765950605083"><ele>245.5</ele><time>2026-04-07T09:34:55Z</time></trkpt><trkpt lat="38.2073415532449" lon="-1.1242623565252763"><ele>245.33333333333334</ele><time>2026-04-07T09:35:12Z</time></trkpt><trkpt lat="38.2073174004254" lon="-1.124343310051412"><ele>245.16666666666669</ele><time>2026-04-07T09:35:56Z</time></trkpt><trkpt lat="38.20732787782685" lon="-1.124248292128642"><ele>245.0</ele><time>2026-04-07T09:38:43Z</time></trkpt><trkpt lat="38.207339349224824" lon="-1.12415485998359"><ele>245.71428571428572</ele><time>2026-04-07T09:38:49Z</time></trkpt><trkpt lat="38.20734570608252" lon="-1.1240710908759273"><ele>246.42857142857144</ele><time>2026-04-07T09:38:55Z</time></trkpt><trkpt lat="38.207367227775684" lon="-1.123984997844634"><ele>247.14285714285714</ele><time>2026-04-07T09:39:01Z</time></trkpt><trkpt lat="38.20741110821125" lon="-1.1239194248922606"><ele>247.85714285714286</ele><time>2026-04-07T09:39:07Z</time></trkpt><trkpt lat="38.20747574893349" lon="-1.1239486719885017"><ele>248.57142857142858</ele><time>2026-04-07T09:39:43Z</time></trkpt><trkpt lat="38.20744123036175" lon="-1.1240252772278685"><ele>249.28571428571428</ele><time>2026-04-07T09:42:32Z</time></trkpt><trkpt lat="38.20741908431211" lon="-1.1241044531447428"><ele>250.0</ele><time>2026-04-07T09:42:37Z</time></trkpt><trkpt lat="38.207408282243826" lon="-1.124186928537939"><ele>250.14285714285714</ele><time>2026-04-07T09:42:42Z</time></trkpt><trkpt lat="38.207354686078666" lon="-1.12424447871611"><ele>250.28571428571428</ele><time>2026-04-07T09:42:48Z</time></trkpt><trkpt lat="38.20734487125653" lon="-1.1243320161711523"><ele>250.42857142857142</ele><time>2026-04-07T09:42:54Z</time></trkpt><trkpt lat="38.20732144725021" lon="-1.124252754378767"><ele>250.57142857142856</ele><time>2026-04-07T09:43:18Z</time></trkpt><trkpt lat="38.207325343359486" lon="-1.1243387472226356"><ele>250.71428571428572</ele><time>2026-04-07T09:43:40Z</time></trkpt><trkpt lat="38.20731844021847" lon="-1.124256101020864"><ele>250.85714285714283</ele><time>2026-04-07T09:43:55Z</time></trkpt><trkpt lat="38.20732577286329" lon="-1.1241671334188899"><ele>250.99999999999997</ele><time>2026-04-07T09:44:00Z</time></trkpt><trkpt lat="38.207342035062666" lon="-1.1242456206105518"><ele>251.0</ele><time>2026-04-07T09:56:45Z</time></trkpt><trkpt lat="38.207325199377614" lon="-1.1243354576409634"><ele>251.00000000000003</ele><time>2026-04-07T09:56:50Z</time></trkpt><trkpt lat="38.20736475378088" lon="-1.1244301561007433"><ele>251.00000000000003</ele><time>2026-04-07T09:57:21Z</time></trkpt><trkpt lat="38.20735234009888" lon="-1.1245658262756582"><ele>251.0</ele><time>2026-04-07T09:57:24Z</time></trkpt><trkpt lat="38.20734001540966" lon="-1.1247370295621653"><ele>251.0</ele><time>2026-04-07T09:57:26Z</time></trkpt><trkpt lat="38.20731231229856" lon="-1.1248295263659362"><ele>250.99999999999997</ele><time>2026-04-07T09:57:27Z</time></trkpt><trkpt lat="38.2072596059937" lon="-1.1249014960993966"><ele>251.0</ele><time>2026-04-07T09:57:29Z</time></trkpt><trkpt lat="38.207190194249904" lon="-1.124934333666762"><ele>250.99999999999997</ele><time>2026-04-07T09:57:33Z</time></trkpt><trkpt lat="38.20722586576802" lon="-1.1250045688113388"><ele>250.99999999999997</ele><time>2026-04-07T09:57:35Z</time></trkpt><trkpt lat="38.207308794902694" lon="-1.1249857383900908"><ele>251.0</ele><time>2026-04-07T09:57:37Z</time></trkpt><trkpt lat="38.20736536908544" lon="-1.1249289431027596"><ele>250.99999999999997</ele><time>2026-04-07T09:57:38Z</time></trkpt><trkpt lat="38.207419228030645" lon="-1.1248667352776707"><ele>250.99999999999997</ele><time>2026-04-07T09:57:39Z</time></trkpt><trkpt lat="38.207508072671395" lon="-1.124767786638991"><ele>251.00000000000003</ele><time>2026-04-07T09:57:41Z</time></trkpt><trkpt lat="38.207586363587204" lon="-1.1247427509056203"><ele>251.0</ele><time>2026-04-07T09:57:43Z</time></trkpt><trkpt lat="38.20767300709325" lon="-1.1247764132280298"><ele>251.0</ele><time>2026-04-07T09:57:45Z</time></trkpt><trkpt lat="38.207776594651506" lon="-1.1247932601821704"><ele>251.0</ele><time>2026-04-07T09:57:47Z</time></trkpt><trkpt lat="38.20785245917513" lon="-1.1247880485045636"><ele>251.00000000000003</ele><time>2026-04-07T09:57:50Z</time></trkpt><trkpt lat="38.207910786402394" lon="-1.1247135391598881"><ele>251.0</ele><time>2026-04-07T09:57:53Z</time></trkpt><trkpt lat="38.207929291763605" lon="-1.124626526163184"><ele>251.00000000000003</ele><time>2026-04-07T09:57:55Z</time></trkpt><trkpt lat="38.20796476953282" lon="-1.124513389073766"><ele>251.0</ele><time>2026-04-07T09:58:21Z</time></trkpt><trkpt lat="38.20799693828913" lon="-1.1244282701729096"><ele>251.0</ele><time>2026-04-07T09:58:23Z</time></trkpt><trkpt lat="38.208088743600065" lon="-1.1244254766827957"><ele>251.0</ele><time>2026-04-07T09:58:25Z</time></trkpt><trkpt lat="38.20815118646128" lon="-1.1244141405214898"><ele>251.00000000000003</ele><time>2026-04-07T09:58:48Z</time></trkpt><trkpt lat="38.20818607726551" lon="-1.1245128048553221"><ele>251.0</ele><time>2026-04-07T09:59:16Z</time></trkpt><trkpt lat="38.20811580034049" lon="-1.1244380858435095"><ele>251.00000000000003</ele><time>2026-04-07T10:33:03Z</time></trkpt><trkpt lat="38.208158507986305" lon="-1.1243779221924075"><ele>251.0</ele><time>2026-04-07T10:36:26Z</time></trkpt><trkpt lat="38.208063851961896" lon="-1.1243889655142665"><ele>251.0</ele><time>2026-04-07T10:36:29Z</time></trkpt><trkpt lat="38.20798422806629" lon="-1.1244574062715997"><ele>251.0</ele><time>2026-04-07T10:36:31Z</time></trkpt><trkpt lat="38.207937405588304" lon="-1.1245794495695582"><ele>251.00000000000003</ele><time>2026-04-07T10:36:34Z</time></trkpt><trkpt lat="38.20793517582897" lon="-1.1246720650654196"><ele>251.0</ele><time>2026-04-07T10:36:35Z</time></trkpt><trkpt lat="38.207932185359965" lon="-1.1247671940590624"><ele>250.99999999999997</ele><time>2026-04-07T10:36:36Z</time></trkpt><trkpt lat="38.20791993600397" lon="-1.124853620621415"><ele>251.0</ele><time>2026-04-07T10:36:37Z</time></trkpt><trkpt lat="38.20790671307632" lon="-1.1249373776891745"><ele>250.99999999999997</ele><time>2026-04-07T10:36:38Z</time></trkpt><trkpt lat="38.20790214334731" lon="-1.1250223389514074"><ele>250.99999999999997</ele><time>2026-04-07T10:36:39Z</time></trkpt><trkpt lat="38.20789314962088" lon="-1.1251611201090843"><ele>251.0</ele><time>2026-04-07T10:36:41Z</time></trkpt><trkpt lat="38.20787398285794" lon="-1.1252452220736902"><ele>250.99999999999997</ele><time>2026-04-07T10:36:43Z</time></trkpt><trkpt lat="38.20783770598148" lon="-1.1253158076389662"><ele>250.99999999999997</ele><time>2026-04-07T10:36:46Z</time></trkpt><trkpt lat="38.20770067325853" lon="-1.1252497170992946"><ele>251.60000000000002</ele><time>2026-04-07T10:36:47Z</time></trkpt><trkpt lat="38.20762582018298" lon="-1.125195918466832"><ele>252.20000000000002</ele><time>2026-04-07T10:36:48Z</time></trkpt><trkpt lat="38.207548684700356" lon="-1.1251451150002156"><ele>252.79999999999998</ele><time>2026-04-07T10:36:49Z</time></trkpt><trkpt lat="38.2074346537002" lon="-1.1250965919577594"><ele>253.39999999999998</ele><time>2026-04-07T10:36:50Z</time></trkpt><trkpt lat="38.207348770157346" lon="-1.1250588226529796"><ele>254.0</ele><time>2026-04-07T10:36:51Z</time></trkpt><trkpt lat="38.2072608843292" lon="-1.125021313009983"><ele>252.66666666666669</ele><time>2026-04-07T10:36:52Z</time></trkpt><trkpt lat="38.20718840892067" lon="-1.1249833054758265"><ele>251.33333333333334</ele><time>2026-04-07T10:36:53Z</time></trkpt><trkpt lat="38.20709509332584" lon="-1.1249506043474051"><ele>250.0</ele><time>2026-04-07T10:36:54Z</time></trkpt><trkpt lat="38.20700762233926" lon="-1.1249168380363566"><ele>248.66666666666669</ele><time>2026-04-07T10:36:55Z</time></trkpt><trkpt lat="38.20693314144316" lon="-1.1248854641227024"><ele>247.33333333333334</ele><time>2026-04-07T10:36:56Z</time></trkpt><trkpt lat="38.20686356577759" lon="-1.124853233501834"><ele>246.0</ele><time>2026-04-07T10:36:57Z</time></trkpt><trkpt lat="38.20678450910203" lon="-1.1248450804412689"><ele>245.83333333333334</ele><time>2026-04-07T10:36:58Z</time></trkpt><trkpt lat="38.20670946926962" lon="-1.1248199583191134"><ele>245.66666666666669</ele><time>2026-04-07T10:36:59Z</time></trkpt><trkpt lat="38.20663234910508" lon="-1.1247927828166142"><ele>245.5</ele><time>2026-04-07T10:37:00Z</time></trkpt><trkpt lat="38.20655879088895" lon="-1.1247660034729474"><ele>245.33333333333334</ele><time>2026-04-07T10:37:01Z</time></trkpt><trkpt lat="38.20648992266293" lon="-1.1247400367719254"><ele>245.16666666666669</ele><time>2026-04-07T10:37:02Z</time></trkpt><trkpt lat="38.20641640996016" lon="-1.1246873090666947"><ele>245.0</ele><time>2026-04-07T10:37:03Z</time></trkpt><trkpt lat="38.20634447938289" lon="-1.1246523178680063"><ele>244.0</ele><time>2026-04-07T10:37:04Z</time></trkpt><trkpt lat="38.20626659299757" lon="-1.124607807361298"><ele>243.0</ele><time>2026-04-07T10:37:05Z</time></trkpt><trkpt lat="38.206153637017145" lon="-1.1245507508955486"><ele>242.0</ele><time>2026-04-07T10:37:06Z</time></trkpt><trkpt lat="38.20606539520442" lon="-1.1244894612830372"><ele>241.0</ele><time>2026-04-07T10:37:07Z</time></trkpt><trkpt lat="38.205997149892326" lon="-1.124424555897804"><ele>240.0</ele><time>2026-04-07T10:37:08Z</time></trkpt><trkpt lat="38.20593544682357" lon="-1.1243888005393432"><ele>240.0</ele><time>2026-04-07T10:37:09Z</time></trkpt><trkpt lat="38.2058495515649" lon="-1.124350935798486"><ele>240.0</ele><time>2026-04-07T10:37:11Z</time></trkpt><trkpt lat="38.20579402433956" lon="-1.1244028193102396"><ele>240.0</ele><time>2026-04-07T10:37:14Z</time></trkpt><trkpt lat="38.20573214335718" lon="-1.12451471561696"><ele>240.0</ele><time>2026-04-07T10:37:16Z</time></trkpt><trkpt lat="38.20568857611607" lon="-1.124579554898882"><ele>240.0</ele><time>2026-04-07T10:37:17Z</time></trkpt><trkpt lat="38.20565144243099" lon="-1.1246652125004575"><ele>240.0</ele><time>2026-04-07T10:37:18Z</time></trkpt><trkpt lat="38.20561054711734" lon="-1.1247371212806332"><ele>239.5</ele><time>2026-04-07T10:37:19Z</time></trkpt><trkpt lat="38.20556953752216" lon="-1.124812974068443"><ele>239.0</ele><time>2026-04-07T10:37:20Z</time></trkpt><trkpt lat="38.20552481027175" lon="-1.1249098006747642"><ele>238.5</ele><time>2026-04-07T10:37:21Z</time></trkpt><trkpt lat="38.2054797409257" lon="-1.1250100975927182"><ele>238.0</ele><time>2026-04-07T10:37:22Z</time></trkpt><trkpt lat="38.20543528169006" lon="-1.1251115343153013"><ele>237.5</ele><time>2026-04-07T10:37:23Z</time></trkpt><trkpt lat="38.205399192558744" lon="-1.125211004311255"><ele>237.0</ele><time>2026-04-07T10:37:24Z</time></trkpt><trkpt lat="38.205365309631325" lon="-1.1253236964466504"><ele>237.0</ele><time>2026-04-07T10:37:25Z</time></trkpt><trkpt lat="38.205333947130526" lon="-1.125437834458714"><ele>237.0</ele><time>2026-04-07T10:37:26Z</time></trkpt><trkpt lat="38.20529678519852" lon="-1.1255554243240902"><ele>237.0</ele><time>2026-04-07T10:37:27Z</time></trkpt><trkpt lat="38.20525353754136" lon="-1.1256736036365782"><ele>237.0</ele><time>2026-04-07T10:37:28Z</time></trkpt><trkpt lat="38.20521189871664" lon="-1.1257996628770786"><ele>237.0</ele><time>2026-04-07T10:37:29Z</time></trkpt><trkpt lat="38.205168587041406" lon="-1.1259315118128088"><ele>237.2</ele><time>2026-04-07T10:37:30Z</time></trkpt><trkpt lat="38.205121846549844" lon="-1.1260502547692561"><ele>237.39999999999998</ele><time>2026-04-07T10:37:31Z</time></trkpt><trkpt lat="38.20508400795686" lon="-1.1261837106437804"><ele>237.60000000000002</ele><time>2026-04-07T10:37:32Z</time></trkpt><trkpt lat="38.20505468846952" lon="-1.1263085970089757"><ele>237.8</ele><time>2026-04-07T10:37:33Z</time></trkpt><trkpt lat="38.20501944025579" lon="-1.12642978550163"><ele>238.0</ele><time>2026-04-07T10:37:34Z</time></trkpt><trkpt lat="38.20497914888765" lon="-1.1265462780686497"><ele>238.2</ele><time>2026-04-07T10:37:35Z</time></trkpt><trkpt lat="38.204937796987615" lon="-1.1266563344582614"><ele>238.4</ele><time>2026-04-07T10:37:36Z</time></trkpt><trkpt lat="38.204894020230554" lon="-1.1267671375037625"><ele>238.59999999999997</ele><time>2026-04-07T10:37:37Z</time></trkpt><trkpt lat="38.204856361613885" lon="-1.1268941626319102"><ele>238.79999999999998</ele><time>2026-04-07T10:37:38Z</time></trkpt><trkpt lat="38.204828688049204" lon="-1.1270286589512515"><ele>239.0</ele><time>2026-04-07T10:37:39Z</time></trkpt><trkpt lat="38.204800366678754" lon="-1.127153626957922"><ele>238.0</ele><time>2026-04-07T10:37:40Z</time></trkpt><trkpt lat="38.20477327225086" lon="-1.1272934972096758"><ele>237.0</ele><time>2026-04-07T10:37:41Z</time></trkpt><trkpt lat="38.204746803963275" lon="-1.1274355482611653"><ele>236.0</ele><time>2026-04-07T10:37:42Z</time></trkpt><trkpt lat="38.204720936440445" lon="-1.127586642357255"><ele>235.0</ele><time>2026-04-07T10:37:43Z</time></trkpt><trkpt lat="38.20468962117197" lon="-1.1277669729705895"><ele>235.0</ele><time>2026-04-07T10:37:44Z</time></trkpt><trkpt lat="38.204654088839504" lon="-1.1279641339226392"><ele>235.0</ele><time>2026-04-07T10:37:45Z</time></trkpt><trkpt lat="38.20460812257002" lon="-1.1282045051250547"><ele>235.0</ele><time>2026-04-07T10:37:46Z</time></trkpt><trkpt lat="38.20456027391236" lon="-1.1284544433273265"><ele>234.66666666666666</ele><time>2026-04-07T10:37:47Z</time></trkpt><trkpt lat="38.20450170048274" lon="-1.1287319516890548"><ele>234.33333333333331</ele><time>2026-04-07T10:37:48Z</time></trkpt><trkpt lat="38.204452172695134" lon="-1.1289684491886363"><ele>234.0</ele><time>2026-04-07T10:37:49Z</time></trkpt><trkpt lat="38.20440780473905" lon="-1.1291768687099557"><ele>234.39999999999998</ele><time>2026-04-07T10:37:50Z</time></trkpt><trkpt lat="38.20437910724721" lon="-1.1293213888224933"><ele>234.79999999999998</ele><time>2026-04-07T10:37:51Z</time></trkpt><trkpt lat="38.204364378934315" lon="-1.129433120884635"><ele>235.20000000000002</ele><time>2026-04-07T10:37:52Z</time></trkpt><trkpt lat="38.204348126992116" lon="-1.1295172422095747"><ele>235.60000000000002</ele><time>2026-04-07T10:37:53Z</time></trkpt><trkpt lat="38.204320603898324" lon="-1.1296175176616554"><ele>236.0</ele><time>2026-04-07T10:37:55Z</time></trkpt><trkpt lat="38.20430899501848" lon="-1.129768653733066"><ele>236.0</ele><time>2026-04-07T10:37:57Z</time></trkpt><trkpt lat="38.204292610227384" lon="-1.1298525337363285"><ele>236.00000000000003</ele><time>2026-04-07T10:37:58Z</time></trkpt><trkpt lat="38.20426684336642" lon="-1.129933390885265"><ele>236.00000000000003</ele><time>2026-04-07T10:38:00Z</time></trkpt><trkpt lat="38.204251512353494" lon="-1.1300404329314395"><ele>236.0</ele><time>2026-04-07T10:38:04Z</time></trkpt><trkpt lat="38.204178477805826" lon="-1.1301477196284178"><ele>236.0</ele><time>2026-04-07T10:38:06Z</time></trkpt><trkpt lat="38.2040405991457" lon="-1.1301665433429784"><ele>235.8</ele><time>2026-04-07T10:38:08Z</time></trkpt><trkpt lat="38.203953486582" lon="-1.1301621917881157"><ele>235.60000000000002</ele><time>2026-04-07T10:38:09Z</time></trkpt><trkpt lat="38.2038512572347" lon="-1.1301644479027197"><ele>235.4</ele><time>2026-04-07T10:38:10Z</time></trkpt><trkpt lat="38.203738248282065" lon="-1.1301939135513146"><ele>235.2</ele><time>2026-04-07T10:38:11Z</time></trkpt><trkpt lat="38.20364892478722" lon="-1.130200956650374"><ele>235.0</ele><time>2026-04-07T10:38:12Z</time></trkpt><trkpt lat="38.20356823327512" lon="-1.1302061234611558"><ele>234.99999999999997</ele><time>2026-04-07T10:38:13Z</time></trkpt><trkpt lat="38.20349883419628" lon="-1.130207925877422"><ele>235.0</ele><time>2026-04-07T10:38:14Z</time></trkpt><trkpt lat="38.2034323398916" lon="-1.1302046153949907"><ele>235.0</ele><time>2026-04-07T10:38:16Z</time></trkpt><trkpt lat="38.20340532339107" lon="-1.13037901810647"><ele>235.0</ele><time>2026-04-07T10:38:21Z</time></trkpt><trkpt lat="38.20338580193293" lon="-1.1304678979625487"><ele>234.99999999999997</ele><time>2026-04-07T10:38:22Z</time></trkpt><trkpt lat="38.20336592014187" lon="-1.1305552608345524"><ele>235.0</ele><time>2026-04-07T10:38:23Z</time></trkpt><trkpt lat="38.203352698745995" lon="-1.1306633102676915"><ele>234.4</ele><time>2026-04-07T10:38:24Z</time></trkpt><trkpt lat="38.203339290510584" lon="-1.1307805348815585"><ele>233.8</ele><time>2026-04-07T10:38:25Z</time></trkpt><trkpt lat="38.203330482807615" lon="-1.1309086591924096"><ele>233.2</ele><time>2026-04-07T10:38:26Z</time></trkpt><trkpt lat="38.2033140112544" lon="-1.1310325001253692"><ele>232.6</ele><time>2026-04-07T10:38:27Z</time></trkpt><trkpt lat="38.20328766052123" lon="-1.1311532971896248"><ele>232.0</ele><time>2026-04-07T10:38:28Z</time></trkpt><trkpt lat="38.203255857601555" lon="-1.1312717417267297"><ele>232.0</ele><time>2026-04-07T10:38:29Z</time></trkpt><trkpt lat="38.203224300776924" lon="-1.1313674757508174"><ele>232.0</ele><time>2026-04-07T10:38:30Z</time></trkpt><trkpt lat="38.20320876067363" lon="-1.1314604145826632"><ele>232.0</ele><time>2026-04-07T10:38:31Z</time></trkpt><trkpt lat="38.203273632441906" lon="-1.1316012618749545"><ele>232.0</ele><time>2026-04-07T10:38:33Z</time></trkpt><trkpt lat="38.20334161500256" lon="-1.1316649187089645"><ele>232.0</ele><time>2026-04-07T10:38:34Z</time></trkpt><trkpt lat="38.20340849381954" lon="-1.1317512731043824"><ele>232.6</ele><time>2026-04-07T10:38:35Z</time></trkpt><trkpt lat="38.20344916497227" lon="-1.1318607355018313"><ele>233.2</ele><time>2026-04-07T10:38:36Z</time></trkpt><trkpt lat="38.20346037058188" lon="-1.1319732517844057"><ele>233.8</ele><time>2026-04-07T10:38:37Z</time></trkpt><trkpt lat="38.20346350048228" lon="-1.1320924975030728"><ele>234.4</ele><time>2026-04-07T10:38:38Z</time></trkpt><trkpt lat="38.20344533396998" lon="-1.1322212851196742"><ele>235.0</ele><time>2026-04-07T10:38:39Z</time></trkpt><trkpt lat="38.203402608124925" lon="-1.1323444268103944"><ele>235.66666666666666</ele><time>2026-04-07T10:38:40Z</time></trkpt><trkpt lat="38.20335807249745" lon="-1.1324413687377584"><ele>236.33333333333331</ele><time>2026-04-07T10:38:41Z</time></trkpt><trkpt lat="38.203336043843024" lon="-1.1325366450536596"><ele>237.0</ele><time>2026-04-07T10:38:42Z</time></trkpt><trkpt lat="38.20333088243336" lon="-1.1326273174980988"><ele>237.66666666666669</ele><time>2026-04-07T10:38:43Z</time></trkpt><trkpt lat="38.2033828879022" lon="-1.1327667629113034"><ele>238.33333333333334</ele><time>2026-04-07T10:38:45Z</time></trkpt><trkpt lat="38.20345141879424" lon="-1.1328342994844185"><ele>239.0</ele><time>2026-04-07T10:38:46Z</time></trkpt><trkpt lat="38.20354779891286" lon="-1.1328634565415283"><ele>239.0</ele><time>2026-04-07T10:38:47Z</time></trkpt><trkpt lat="38.20362811398756" lon="-1.1329335480870355"><ele>238.99999999999997</ele><time>2026-04-07T10:38:48Z</time></trkpt><trkpt lat="38.20367208619519" lon="-1.1330168770340385"><ele>238.99999999999997</ele><time>2026-04-07T10:38:49Z</time></trkpt><trkpt lat="38.2036790066523" lon="-1.1331480501705715"><ele>239.0</ele><time>2026-04-07T10:38:50Z</time></trkpt><trkpt lat="38.20362546183669" lon="-1.1332996855525557"><ele>239.0</ele><time>2026-04-07T10:38:51Z</time></trkpt><trkpt lat="38.20357886480285" lon="-1.133441756254142"><ele>238.75</ele><time>2026-04-07T10:38:52Z</time></trkpt><trkpt lat="38.20354466852767" lon="-1.1335851621226773"><ele>238.5</ele><time>2026-04-07T10:38:53Z</time></trkpt><trkpt lat="38.203509663670005" lon="-1.1337377450235957"><ele>238.25</ele><time>2026-04-07T10:38:54Z</time></trkpt><trkpt lat="38.203474056226014" lon="-1.133902568677844"><ele>238.0</ele><time>2026-04-07T10:38:55Z</time></trkpt><trkpt lat="38.203439853094416" lon="-1.1340490355868322"><ele>237.8</ele><time>2026-04-07T10:38:56Z</time></trkpt><trkpt lat="38.20341372076929" lon="-1.134187251846604"><ele>237.60000000000002</ele><time>2026-04-07T10:38:57Z</time></trkpt><trkpt lat="38.203393838941366" lon="-1.134310074916627"><ele>237.39999999999998</ele><time>2026-04-07T10:38:58Z</time></trkpt><trkpt lat="38.203397269048445" lon="-1.1344461580270684"><ele>237.2</ele><time>2026-04-07T10:38:59Z</time></trkpt><trkpt lat="38.203415949470845" lon="-1.1345873153603607"><ele>237.0</ele><time>2026-04-07T10:39:00Z</time></trkpt><trkpt lat="38.20343132128086" lon="-1.1347315343967308"><ele>237.0</ele><time>2026-04-07T10:39:01Z</time></trkpt><trkpt lat="38.203428816204266" lon="-1.1348788320552854"><ele>237.0</ele><time>2026-04-07T10:39:02Z</time></trkpt><trkpt lat="38.20341641859353" lon="-1.135022720956301"><ele>237.0</ele><time>2026-04-07T10:39:03Z</time></trkpt><trkpt lat="38.20340278198507" lon="-1.1351689727707275"><ele>237.0</ele><time>2026-04-07T10:39:04Z</time></trkpt><trkpt lat="38.20338940141024" lon="-1.1352994064742032"><ele>237.0</ele><time>2026-04-07T10:39:05Z</time></trkpt><trkpt lat="38.20337447870665" lon="-1.1354225501834037"><ele>237.2</ele><time>2026-04-07T10:39:06Z</time></trkpt><trkpt lat="38.20334646418973" lon="-1.1355314490317174"><ele>237.39999999999998</ele><time>2026-04-07T10:39:07Z</time></trkpt><trkpt lat="38.203273520983906" lon="-1.1356349238466867"><ele>237.60000000000002</ele><time>2026-04-07T10:39:08Z</time></trkpt><trkpt lat="38.203191214925795" lon="-1.135745871181119"><ele>237.8</ele><time>2026-04-07T10:39:09Z</time></trkpt><trkpt lat="38.20313085716402" lon="-1.1358420201058965"><ele>238.0</ele><time>2026-04-07T10:39:10Z</time></trkpt><trkpt lat="38.20307985751736" lon="-1.135932744273667"><ele>237.66666666666666</ele><time>2026-04-07T10:39:11Z</time></trkpt><trkpt lat="38.203038492531924" lon="-1.1360297774304406"><ele>237.33333333333331</ele><time>2026-04-07T10:39:12Z</time></trkpt><trkpt lat="38.20301384097576" lon="-1.136129306799874"><ele>237.0</ele><time>2026-04-07T10:39:13Z</time></trkpt><trkpt lat="38.20299137065761" lon="-1.1362215066174484"><ele>236.66666666666669</ele><time>2026-04-07T10:39:14Z</time></trkpt><trkpt lat="38.202968588821655" lon="-1.136300115626153"><ele>236.33333333333334</ele><time>2026-04-07T10:39:15Z</time></trkpt><trkpt lat="38.202949007776816" lon="-1.13638836819059"><ele>236.0</ele><time>2026-04-07T10:39:17Z</time></trkpt><trkpt lat="38.20274103961551" lon="-1.1363106544569883"><ele>236.00000000000003</ele><time>2026-04-07T10:39:19Z</time></trkpt><trkpt lat="38.20267047945927" lon="-1.1362448462553962"><ele>236.0</ele><time>2026-04-07T10:39:20Z</time></trkpt><trkpt lat="38.20260304051628" lon="-1.1361915509509544"><ele>236.0</ele><time>2026-04-07T10:39:21Z</time></trkpt><trkpt lat="38.202528044315095" lon="-1.1361447847449722"><ele>236.0</ele><time>2026-04-07T10:39:22Z</time></trkpt><trkpt lat="38.20244510311715" lon="-1.1360909516244453"><ele>236.00000000000003</ele><time>2026-04-07T10:39:23Z</time></trkpt><trkpt lat="38.20235776211712" lon="-1.1360785240073574"><ele>236.0</ele><time>2026-04-07T10:39:24Z</time></trkpt><trkpt lat="38.202270049158514" lon="-1.1360621801396924"><ele>235.60000000000002</ele><time>2026-04-07T10:39:25Z</time></trkpt><trkpt lat="38.20217855431051" lon="-1.1360427917500926"><ele>235.20000000000002</ele><time>2026-04-07T10:39:26Z</time></trkpt><trkpt lat="38.20208918306784" lon="-1.1359758319660826"><ele>234.79999999999998</ele><time>2026-04-07T10:39:27Z</time></trkpt><trkpt lat="38.20200760678706" lon="-1.1358885690980987"><ele>234.39999999999998</ele><time>2026-04-07T10:39:28Z</time></trkpt><trkpt lat="38.2019212478688" lon="-1.1358004518379559"><ele>234.0</ele><time>2026-04-07T10:39:29Z</time></trkpt><trkpt lat="38.20183147803991" lon="-1.135709436877569"><ele>233.79999999999998</ele><time>2026-04-07T10:39:30Z</time></trkpt><trkpt lat="38.20175186289829" lon="-1.1356291810745789"><ele>233.59999999999997</ele><time>2026-04-07T10:39:31Z</time></trkpt><trkpt lat="38.20167783904082" lon="-1.1355413585913359"><ele>233.4</ele><time>2026-04-07T10:39:32Z</time></trkpt><trkpt lat="38.20158973750995" lon="-1.1354982231149673"><ele>233.2</ele><time>2026-04-07T10:39:33Z</time></trkpt><trkpt lat="38.20151201125247" lon="-1.1354396777471834"><ele>233.0</ele><time>2026-04-07T10:39:34Z</time></trkpt><trkpt lat="38.20143549955053" lon="-1.1353824853629184"><ele>232.2</ele><time>2026-04-07T10:39:35Z</time></trkpt><trkpt lat="38.201358557352776" lon="-1.1353289512620524"><ele>231.4</ele><time>2026-04-07T10:39:36Z</time></trkpt><trkpt lat="38.201286738381754" lon="-1.1352626491445492"><ele>230.59999999999997</ele><time>2026-04-07T10:39:37Z</time></trkpt><trkpt lat="38.201191793450235" lon="-1.135203965533696"><ele>229.79999999999998</ele><time>2026-04-07T10:39:38Z</time></trkpt><trkpt lat="38.20109617834134" lon="-1.1351372369548525"><ele>229.0</ele><time>2026-04-07T10:39:39Z</time></trkpt><trkpt lat="38.20099647844166" lon="-1.1350648693676568"><ele>228.99999999999997</ele><time>2026-04-07T10:39:40Z</time></trkpt><trkpt lat="38.20090397221313" lon="-1.135005078763"><ele>229.0</ele><time>2026-04-07T10:39:41Z</time></trkpt><trkpt lat="38.20081533425311" lon="-1.1349499399434249"><ele>229.0</ele><time>2026-04-07T10:39:42Z</time></trkpt><trkpt lat="38.200758809016" lon="-1.1349023322635168"><ele>229.0</ele><time>2026-04-07T10:39:43Z</time></trkpt><trkpt lat="38.20070725963285" lon="-1.134853728791223"><ele>228.99999999999997</ele><time>2026-04-07T10:39:45Z</time></trkpt><trkpt lat="38.200623462784684" lon="-1.1348139240291724"><ele>229.0</ele><time>2026-04-07T10:39:48Z</time></trkpt><trkpt lat="38.20056582206644" lon="-1.1347702924236922"><ele>228.0</ele><time>2026-04-07T10:39:49Z</time></trkpt><trkpt lat="38.20050029108135" lon="-1.134705204907456"><ele>226.99999999999997</ele><time>2026-04-07T10:39:50Z</time></trkpt><trkpt lat="38.200416510729774" lon="-1.1346508057589606"><ele>225.99999999999997</ele><time>2026-04-07T10:39:51Z</time></trkpt><trkpt lat="38.200338217385216" lon="-1.1345871433680215"><ele>225.0</ele><time>2026-04-07T10:39:52Z</time></trkpt><trkpt lat="38.20025212851028" lon="-1.1345257139069582"><ele>224.0</ele><time>2026-04-07T10:39:53Z</time></trkpt><trkpt lat="38.200164144600166" lon="-1.134445917256902"><ele>224.0</ele><time>2026-04-07T10:39:54Z</time></trkpt><trkpt lat="38.2000816472584" lon="-1.134350213949403"><ele>223.99999999999997</ele><time>2026-04-07T10:39:55Z</time></trkpt><trkpt lat="38.19999303982535" lon="-1.1342703451838796"><ele>223.99999999999997</ele><time>2026-04-07T10:39:56Z</time></trkpt><trkpt lat="38.19990202492256" lon="-1.1341933286202117"><ele>224.0</ele><time>2026-04-07T10:39:57Z</time></trkpt><trkpt lat="38.19980698014883" lon="-1.1341193520880575"><ele>224.0</ele><time>2026-04-07T10:39:58Z</time></trkpt><trkpt lat="38.199713582188515" lon="-1.1340465884308253"><ele>223.2</ele><time>2026-04-07T10:39:59Z</time></trkpt><trkpt lat="38.199614366518006" lon="-1.1339876334856784"><ele>222.39999999999998</ele><time>2026-04-07T10:40:00Z</time></trkpt><trkpt lat="38.19951065857764" lon="-1.133954258117807"><ele>221.6</ele><time>2026-04-07T10:40:01Z</time></trkpt><trkpt lat="38.19940954489378" lon="-1.1339344822664845"><ele>220.8</ele><time>2026-04-07T10:40:02Z</time></trkpt><trkpt lat="38.199308700120405" lon="-1.1339022321147647"><ele>220.0</ele><time>2026-04-07T10:40:03Z</time></trkpt><trkpt lat="38.19920795733871" lon="-1.1338529608147097"><ele>220.0</ele><time>2026-04-07T10:40:04Z</time></trkpt><trkpt lat="38.1991104633187" lon="-1.1337923722613532"><ele>220.0</ele><time>2026-04-07T10:40:05Z</time></trkpt><trkpt lat="38.19901268926321" lon="-1.1337348838978916"><ele>220.0</ele><time>2026-04-07T10:40:06Z</time></trkpt><trkpt lat="38.198917568320056" lon="-1.1336799906867308"><ele>220.0</ele><time>2026-04-07T10:40:07Z</time></trkpt><trkpt lat="38.198828397765666" lon="-1.1336166107745331"><ele>220.0</ele><time>2026-04-07T10:40:08Z</time></trkpt><trkpt lat="38.19873670780206" lon="-1.1335523416094948"><ele>219.6</ele><time>2026-04-07T10:40:09Z</time></trkpt><trkpt lat="38.19865237940045" lon="-1.1334800410705264"><ele>219.2</ele><time>2026-04-07T10:40:10Z</time></trkpt><trkpt lat="38.19856617391603" lon="-1.1334031980558277"><ele>218.8</ele><time>2026-04-07T10:40:11Z</time></trkpt><trkpt lat="38.19848087750974" lon="-1.1333217532000386"><ele>218.4</ele><time>2026-04-07T10:40:12Z</time></trkpt><trkpt lat="38.19840041075781" lon="-1.133234537121478"><ele>218.0</ele><time>2026-04-07T10:40:13Z</time></trkpt><trkpt lat="38.1983212611577" lon="-1.1331460568540621"><ele>217.0</ele><time>2026-04-07T10:40:14Z</time></trkpt><trkpt lat="38.198238362886535" lon="-1.1330600396495458"><ele>216.0</ele><time>2026-04-07T10:40:15Z</time></trkpt><trkpt lat="38.198158832609835" lon="-1.1329742921761286"><ele>215.0</ele><time>2026-04-07T10:40:16Z</time></trkpt><trkpt lat="38.19808229106027" lon="-1.132894684827856"><ele>214.0</ele><time>2026-04-07T10:40:17Z</time></trkpt><trkpt lat="38.19801424224948" lon="-1.1328162518823743"><ele>213.0</ele><time>2026-04-07T10:40:18Z</time></trkpt><trkpt lat="38.19794660059689" lon="-1.132742559349257"><ele>212.8</ele><time>2026-04-07T10:40:19Z</time></trkpt><trkpt lat="38.19788040813253" lon="-1.1326650964677865"><ele>212.60000000000002</ele><time>2026-04-07T10:40:20Z</time></trkpt><trkpt lat="38.197813166917385" lon="-1.1325746776039896"><ele>212.39999999999998</ele><time>2026-04-07T10:40:21Z</time></trkpt><trkpt lat="38.1977391412353" lon="-1.1324830540768986"><ele>212.2</ele><time>2026-04-07T10:40:22Z</time></trkpt><trkpt lat="38.19768625246874" lon="-1.132371028649152"><ele>212.0</ele><time>2026-04-07T10:40:23Z</time></trkpt><trkpt lat="38.197641887376356" lon="-1.1322538783815017"><ele>211.2</ele><time>2026-04-07T10:40:24Z</time></trkpt><trkpt lat="38.197605126896214" lon="-1.1321342412981008"><ele>210.39999999999998</ele><time>2026-04-07T10:40:25Z</time></trkpt><trkpt lat="38.19757728687316" lon="-1.1320085943955038"><ele>209.60000000000002</ele><time>2026-04-07T10:40:26Z</time></trkpt><trkpt lat="38.19751063043485" lon="-1.1319011295355992"><ele>208.8</ele><time>2026-04-07T10:40:27Z</time></trkpt><trkpt lat="38.197432413184835" lon="-1.1317926571821535"><ele>208.0</ele><time>2026-04-07T10:40:28Z</time></trkpt><trkpt lat="38.19735530926818" lon="-1.1316991003996746"><ele>207.60000000000002</ele><time>2026-04-07T10:40:29Z</time></trkpt><trkpt lat="38.19728278017126" lon="-1.1316093711154194"><ele>207.20000000000002</ele><time>2026-04-07T10:40:30Z</time></trkpt><trkpt lat="38.19720648068652" lon="-1.1315389395141804"><ele>206.8</ele><time>2026-04-07T10:40:31Z</time></trkpt><trkpt lat="38.19711952942687" lon="-1.1314922000986445"><ele>206.4</ele><time>2026-04-07T10:40:32Z</time></trkpt><trkpt lat="38.197024670732795" lon="-1.1314753650971003"><ele>206.0</ele><time>2026-04-07T10:40:33Z</time></trkpt><trkpt lat="38.196928267451526" lon="-1.1315165150319466"><ele>206.0</ele><time>2026-04-07T10:40:34Z</time></trkpt><trkpt lat="38.19684259808398" lon="-1.1315964716278124"><ele>206.0</ele><time>2026-04-07T10:40:35Z</time></trkpt><trkpt lat="38.19675488176756" lon="-1.1316880400412366"><ele>206.0</ele><time>2026-04-07T10:40:36Z</time></trkpt><trkpt lat="38.196664278918945" lon="-1.131788397945812"><ele>206.0</ele><time>2026-04-07T10:40:37Z</time></trkpt><trkpt lat="38.19658287533095" lon="-1.131877403498261"><ele>206.0</ele><time>2026-04-07T10:40:38Z</time></trkpt><trkpt lat="38.19649127865779" lon="-1.1319463965078322"><ele>206.75</ele><time>2026-04-07T10:40:39Z</time></trkpt><trkpt lat="38.1963880802525" lon="-1.1319999822382536"><ele>207.5</ele><time>2026-04-07T10:40:40Z</time></trkpt><trkpt lat="38.19627925840847" lon="-1.1320357397989997"><ele>208.25</ele><time>2026-04-07T10:40:41Z</time></trkpt><trkpt lat="38.19616129648961" lon="-1.1320521417224323"><ele>209.0</ele><time>2026-04-07T10:40:42Z</time></trkpt><trkpt lat="38.19603810254284" lon="-1.1320508665967242"><ele>209.00000000000003</ele><time>2026-04-07T10:40:43Z</time></trkpt><trkpt lat="38.195925575073964" lon="-1.1320371429208624"><ele>209.0</ele><time>2026-04-07T10:40:44Z</time></trkpt><trkpt lat="38.19583611770075" lon="-1.1320278166271998"><ele>209.0</ele><time>2026-04-07T10:40:45Z</time></trkpt><trkpt lat="38.19576384530924" lon="-1.1320369444259628"><ele>209.0</ele><time>2026-04-07T10:40:46Z</time></trkpt><trkpt lat="38.19571076711476" lon="-1.1320847224827997"><ele>209.00000000000003</ele><time>2026-04-07T10:40:49Z</time></trkpt><trkpt lat="38.19570772508125" lon="-1.1322004257515272"><ele>209.0</ele><time>2026-04-07T10:40:51Z</time></trkpt><trkpt lat="38.195724429058636" lon="-1.1323048290945268"><ele>209.00000000000003</ele><time>2026-04-07T10:40:53Z</time></trkpt><trkpt lat="38.195759322988195" lon="-1.1324149412211266"><ele>209.0</ele><time>2026-04-07T10:40:56Z</time></trkpt><trkpt lat="38.19570910881249" lon="-1.1323663211404371"><ele>209.0</ele><time>2026-04-07T10:41:01Z</time></trkpt><trkpt lat="38.19570929249091" lon="-1.132283497841475"><ele>209.0</ele><time>2026-04-07T10:41:02Z</time></trkpt><trkpt lat="38.19570363060608" lon="-1.1321955582426733"><ele>209.00000000000003</ele><time>2026-04-07T10:41:03Z</time></trkpt><trkpt lat="38.19570266378109" lon="-1.1320566822812714"><ele>209.0</ele><time>2026-04-07T10:41:05Z</time></trkpt><trkpt lat="38.19558317381256" lon="-1.132008366700085"><ele>208.79999999999998</ele><time>2026-04-07T10:41:07Z</time></trkpt><trkpt lat="38.19549974772843" lon="-1.131950287960444"><ele>208.6</ele><time>2026-04-07T10:41:08Z</time></trkpt><trkpt lat="38.19542758991979" lon="-1.1318311671136971"><ele>208.4</ele><time>2026-04-07T10:41:09Z</time></trkpt><trkpt lat="38.19534802111015" lon="-1.1317205224691131"><ele>208.2</ele><time>2026-04-07T10:41:10Z</time></trkpt><trkpt lat="38.19528531293413" lon="-1.1316265660112221"><ele>208.0</ele><time>2026-04-07T10:41:11Z</time></trkpt><trkpt lat="38.19521352770939" lon="-1.1315491368636357"><ele>208.0</ele><time>2026-04-07T10:41:12Z</time></trkpt><trkpt lat="38.19512213187987" lon="-1.131481552020811"><ele>208.0</ele><time>2026-04-07T10:41:13Z</time></trkpt><trkpt lat="38.19501264085326" lon="-1.1314098046327048"><ele>208.0</ele><time>2026-04-07T10:41:14Z</time></trkpt><trkpt lat="38.19490202668586" lon="-1.1313363618640635"><ele>208.0</ele><time>2026-04-07T10:41:15Z</time></trkpt><trkpt lat="38.194780635397066" lon="-1.1312520473063292"><ele>207.75</ele><time>2026-04-07T10:41:16Z</time></trkpt><trkpt lat="38.19468515849515" lon="-1.1311349888113107"><ele>207.5</ele><time>2026-04-07T10:41:17Z</time></trkpt><trkpt lat="38.194582033504396" lon="-1.1310447607005234"><ele>207.25</ele><time>2026-04-07T10:41:18Z</time></trkpt><trkpt lat="38.19449795624659" lon="-1.1309576521932831"><ele>207.0</ele><time>2026-04-07T10:41:19Z</time></trkpt><trkpt lat="38.19441232993802" lon="-1.130884233897957"><ele>207.0</ele><time>2026-04-07T10:41:20Z</time></trkpt><trkpt lat="38.194322873754" lon="-1.1308215127964922"><ele>207.0</ele><time>2026-04-07T10:41:21Z</time></trkpt><trkpt lat="38.1942305275742" lon="-1.130753468421683"><ele>207.0</ele><time>2026-04-07T10:41:22Z</time></trkpt><trkpt lat="38.19412051829548" lon="-1.1307337601048766"><ele>207.0</ele><time>2026-04-07T10:41:23Z</time></trkpt><trkpt lat="38.19400166330827" lon="-1.130710535478372"><ele>207.0</ele><time>2026-04-07T10:41:24Z</time></trkpt><trkpt lat="38.193881934328154" lon="-1.1306882952288002"><ele>206.75</ele><time>2026-04-07T10:41:25Z</time></trkpt><trkpt lat="38.19376249840177" lon="-1.1306696458178183"><ele>206.5</ele><time>2026-04-07T10:41:26Z</time></trkpt><trkpt lat="38.19363072927635" lon="-1.1306356220113079"><ele>206.25</ele><time>2026-04-07T10:41:27Z</time></trkpt><trkpt lat="38.193500511656495" lon="-1.1305875016489197"><ele>206.0</ele><time>2026-04-07T10:41:28Z</time></trkpt><trkpt lat="38.193378097807205" lon="-1.130473885807322"><ele>206.0</ele><time>2026-04-07T10:41:29Z</time></trkpt><trkpt lat="38.1932430841893" lon="-1.1303950370923668"><ele>206.0</ele><time>2026-04-07T10:41:30Z</time></trkpt><trkpt lat="38.19312101580816" lon="-1.130308282439538"><ele>206.0</ele><time>2026-04-07T10:41:31Z</time></trkpt><trkpt lat="38.19300247962698" lon="-1.1302228371615053"><ele>206.0</ele><time>2026-04-07T10:41:32Z</time></trkpt><trkpt lat="38.19288965433611" lon="-1.1301391351334702"><ele>206.5</ele><time>2026-04-07T10:41:33Z</time></trkpt><trkpt lat="38.192777709555315" lon="-1.1300560863408464"><ele>207.0</ele><time>2026-04-07T10:41:34Z</time></trkpt><trkpt lat="38.19267322569367" lon="-1.1299785725972868"><ele>207.5</ele><time>2026-04-07T10:41:35Z</time></trkpt><trkpt lat="38.19256865101914" lon="-1.1298988906149428"><ele>208.0</ele><time>2026-04-07T10:41:36Z</time></trkpt><trkpt lat="38.19246334108257" lon="-1.1298170683576587"><ele>207.75</ele><time>2026-04-07T10:41:37Z</time></trkpt><trkpt lat="38.192361048554616" lon="-1.1297317731153902"><ele>207.5</ele><time>2026-04-07T10:41:38Z</time></trkpt><trkpt lat="38.1922590249899" lon="-1.1296426628473295"><ele>207.25</ele><time>2026-04-07T10:41:39Z</time></trkpt><trkpt lat="38.19215336742832" lon="-1.1295360347429113"><ele>207.0</ele><time>2026-04-07T10:41:40Z</time></trkpt><trkpt lat="38.19205947220197" lon="-1.129422423199357"><ele>207.0</ele><time>2026-04-07T10:41:41Z</time></trkpt><trkpt lat="38.19198518548406" lon="-1.1293169872578963"><ele>207.0</ele><time>2026-04-07T10:41:42Z</time></trkpt><trkpt lat="38.19192230596582" lon="-1.1292077416296622"><ele>207.0</ele><time>2026-04-07T10:41:43Z</time></trkpt><trkpt lat="38.19187301486575" lon="-1.1290927601407788"><ele>207.0</ele><time>2026-04-07T10:41:44Z</time></trkpt><trkpt lat="38.191843696516614" lon="-1.1289814029620167"><ele>207.0</ele><time>2026-04-07T10:41:45Z</time></trkpt><trkpt lat="38.191806970095875" lon="-1.1288841772730267"><ele>206.2</ele><time>2026-04-07T10:41:46Z</time></trkpt><trkpt lat="38.19177248366866" lon="-1.1287905263307498"><ele>205.39999999999998</ele><time>2026-04-07T10:41:47Z</time></trkpt><trkpt lat="38.19171386900504" lon="-1.1287208182435882"><ele>204.60000000000002</ele><time>2026-04-07T10:41:48Z</time></trkpt><trkpt lat="38.1916380376562" lon="-1.128658591901663"><ele>203.8</ele><time>2026-04-07T10:41:49Z</time></trkpt><trkpt lat="38.191552584069626" lon="-1.1286030366490043"><ele>203.0</ele><time>2026-04-07T10:41:50Z</time></trkpt><trkpt lat="38.19145948826654" lon="-1.1285469981174798"><ele>203.0</ele><time>2026-04-07T10:41:51Z</time></trkpt><trkpt lat="38.19135001098402" lon="-1.1285127665353902"><ele>203.0</ele><time>2026-04-07T10:41:52Z</time></trkpt><trkpt lat="38.19124102655604" lon="-1.1284444309620434"><ele>203.0</ele><time>2026-04-07T10:41:53Z</time></trkpt><trkpt lat="38.191124608701294" lon="-1.1283967662265375"><ele>203.0</ele><time>2026-04-07T10:41:54Z</time></trkpt><trkpt lat="38.19100851655259" lon="-1.1283559880844765"><ele>203.0</ele><time>2026-04-07T10:41:55Z</time></trkpt><trkpt lat="38.19088503525362" lon="-1.1283095090032742"><ele>203.0</ele><time>2026-04-07T10:41:56Z</time></trkpt><trkpt lat="38.19074411695598" lon="-1.1282756711711517"><ele>203.0</ele><time>2026-04-07T10:41:57Z</time></trkpt><trkpt lat="38.19061763044035" lon="-1.128253570003793"><ele>203.0</ele><time>2026-04-07T10:41:58Z</time></trkpt><trkpt lat="38.190501712489784" lon="-1.1282345424275604"><ele>203.2</ele><time>2026-04-07T10:41:59Z</time></trkpt><trkpt lat="38.190395337117025" lon="-1.128214454662289"><ele>203.4</ele><time>2026-04-07T10:42:00Z</time></trkpt><trkpt lat="38.190318449232" lon="-1.1281873244889433"><ele>203.6</ele><time>2026-04-07T10:42:01Z</time></trkpt><trkpt lat="38.19022181533522" lon="-1.1281364245302643"><ele>203.79999999999998</ele><time>2026-04-07T10:42:03Z</time></trkpt><trkpt lat="38.1901538494924" lon="-1.1281095337532465"><ele>204.0</ele><time>2026-04-07T10:42:04Z</time></trkpt><trkpt lat="38.19005628293524" lon="-1.1280918051093485"><ele>204.0</ele><time>2026-04-07T10:42:05Z</time></trkpt><trkpt lat="38.189960281273315" lon="-1.1280789928315027"><ele>204.0</ele><time>2026-04-07T10:42:06Z</time></trkpt><trkpt lat="38.18986666652144" lon="-1.1280653062321877"><ele>204.0</ele><time>2026-04-07T10:42:07Z</time></trkpt><trkpt lat="38.18976922459319" lon="-1.1280535342600257"><ele>204.0</ele><time>2026-04-07T10:42:08Z</time></trkpt><trkpt lat="38.18967487591855" lon="-1.1280328869799892"><ele>204.0</ele><time>2026-04-07T10:42:09Z</time></trkpt><trkpt lat="38.189574168588265" lon="-1.1280117929315805"><ele>203.2</ele><time>2026-04-07T10:42:10Z</time></trkpt><trkpt lat="38.189472676735924" lon="-1.1279988222347308"><ele>202.39999999999998</ele><time>2026-04-07T10:42:11Z</time></trkpt><trkpt lat="38.18937490165018" lon="-1.1279898193404378"><ele>201.6</ele><time>2026-04-07T10:42:12Z</time></trkpt><trkpt lat="38.189275110206545" lon="-1.1279913505068258"><ele>200.8</ele><time>2026-04-07T10:42:13Z</time></trkpt><trkpt lat="38.18918237379767" lon="-1.127974139438282"><ele>200.0</ele><time>2026-04-07T10:42:14Z</time></trkpt><trkpt lat="38.18910238549086" lon="-1.1279314402887501"><ele>200.0</ele><time>2026-04-07T10:42:15Z</time></trkpt><trkpt lat="38.18903507193108" lon="-1.1278811358874687"><ele>200.0</ele><time>2026-04-07T10:42:16Z</time></trkpt><trkpt lat="38.18893745385482" lon="-1.1278238495319308"><ele>200.0</ele><time>2026-04-07T10:42:18Z</time></trkpt><trkpt lat="38.18887879756873" lon="-1.1277435282542085"><ele>200.0</ele><time>2026-04-07T10:42:20Z</time></trkpt><trkpt lat="38.18879445065575" lon="-1.1276109507028105"><ele>200.0</ele><time>2026-04-07T10:42:22Z</time></trkpt><trkpt lat="38.188734196187056" lon="-1.1275550522262543"><ele>200.0</ele><time>2026-04-07T10:42:23Z</time></trkpt><trkpt lat="38.18865982946709" lon="-1.1275060077107582"><ele>200.0</ele><time>2026-04-07T10:42:24Z</time></trkpt><trkpt lat="38.18859744604023" lon="-1.1274670749772107"><ele>200.0</ele><time>2026-04-07T10:42:25Z</time></trkpt><trkpt lat="38.18851195211959" lon="-1.127408917102761"><ele>200.0</ele><time>2026-04-07T10:42:27Z</time></trkpt><trkpt lat="38.18837135641673" lon="-1.1272702381710873"><ele>200.0</ele><time>2026-04-07T10:42:28Z</time></trkpt><trkpt lat="38.18824986502444" lon="-1.127254763073429"><ele>202.0</ele><time>2026-04-07T10:42:29Z</time></trkpt><trkpt lat="38.188248434388626" lon="-1.1279160970671456"><ele>201.49999999999997</ele><time>2026-04-07T10:42:32Z</time></trkpt><trkpt lat="38.188161498041254" lon="-1.1280114916792878"><ele>201.0</ele><time>2026-04-07T10:42:34Z</time></trkpt><trkpt lat="38.18810341843357" lon="-1.1280452304301378"><ele>200.5</ele><time>2026-04-07T10:42:35Z</time></trkpt><trkpt lat="38.18805760001112" lon="-1.1281377895229774"><ele>200.0</ele><time>2026-04-07T10:42:38Z</time></trkpt><trkpt lat="38.18801383093841" lon="-1.1282376738081752"><ele>199.49999999999997</ele><time>2026-04-07T10:42:40Z</time></trkpt><trkpt lat="38.1879879795419" lon="-1.1283480907651922"><ele>199.0</ele><time>2026-04-07T10:42:43Z</time></trkpt><trkpt lat="38.187968576864016" lon="-1.1284457989773238"><ele>198.39999999999998</ele><time>2026-04-07T10:42:44Z</time></trkpt><trkpt lat="38.18793982672403" lon="-1.1285698373184654"><ele>197.8</ele><time>2026-04-07T10:42:45Z</time></trkpt><trkpt lat="38.18788532451072" lon="-1.1286911763707361"><ele>197.2</ele><time>2026-04-07T10:42:46Z</time></trkpt><trkpt lat="38.18781512844803" lon="-1.1288047890574378"><ele>196.60000000000002</ele><time>2026-04-07T10:42:47Z</time></trkpt><trkpt lat="38.187758261509806" lon="-1.128893891401228"><ele>196.0</ele><time>2026-04-07T10:42:48Z</time></trkpt><trkpt lat="38.187710624021484" lon="-1.1289775469142376"><ele>196.0</ele><time>2026-04-07T10:42:49Z</time></trkpt><trkpt lat="38.18766668009787" lon="-1.1290554936771304"><ele>196.0</ele><time>2026-04-07T10:42:50Z</time></trkpt><trkpt lat="38.1876462320367" lon="-1.1291367428199899"><ele>196.0</ele><time>2026-04-07T10:42:51Z</time></trkpt><trkpt lat="38.18758357968497" lon="-1.1292376489853766"><ele>196.0</ele><time>2026-04-07T10:42:53Z</time></trkpt><trkpt lat="38.18729471114827" lon="-1.1292167965163766"><ele>197.4</ele><time>2026-04-07T10:42:55Z</time></trkpt><trkpt lat="38.18720642178434" lon="-1.1292427593375864"><ele>198.8</ele><time>2026-04-07T10:42:56Z</time></trkpt><trkpt lat="38.18711577904855" lon="-1.1292455623838817"><ele>200.20000000000002</ele><time>2026-04-07T10:42:57Z</time></trkpt><trkpt lat="38.18700673536798" lon="-1.1292478110606488"><ele>201.60000000000002</ele><time>2026-04-07T10:42:58Z</time></trkpt><trkpt lat="38.18689157481095" lon="-1.1292545313893465"><ele>203.0</ele><time>2026-04-07T10:42:59Z</time></trkpt><trkpt lat="38.18677975821522" lon="-1.1292566235747035"><ele>203.00000000000003</ele><time>2026-04-07T10:43:00Z</time></trkpt><trkpt lat="38.18668406395671" lon="-1.129262157696246"><ele>203.0</ele><time>2026-04-07T10:43:01Z</time></trkpt><trkpt lat="38.18660749841438" lon="-1.129241971397021"><ele>203.0</ele><time>2026-04-07T10:43:02Z</time></trkpt><trkpt lat="38.186496100304446" lon="-1.1292543479435684"><ele>203.0</ele><time>2026-04-07T10:43:04Z</time></trkpt><trkpt lat="38.1864257956785" lon="-1.129302511707404"><ele>203.00000000000003</ele><time>2026-04-07T10:43:05Z</time></trkpt><trkpt lat="38.18636605006198" lon="-1.1293673421268273"><ele>203.0</ele><time>2026-04-07T10:43:06Z</time></trkpt><trkpt lat="38.18630729117711" lon="-1.1294418272090267"><ele>204.0</ele><time>2026-04-07T10:43:07Z</time></trkpt><trkpt lat="38.186257856174066" lon="-1.1295050120870878"><ele>205.0</ele><time>2026-04-07T10:43:08Z</time></trkpt><trkpt lat="38.18617599538701" lon="-1.1295505741477265"><ele>206.0</ele><time>2026-04-07T10:43:10Z</time></trkpt><trkpt lat="38.18611471328452" lon="-1.129469276630029"><ele>207.0</ele><time>2026-04-07T10:43:12Z</time></trkpt><trkpt lat="38.18607484355399" lon="-1.1293378080923695"><ele>208.0</ele><time>2026-04-07T10:43:14Z</time></trkpt><trkpt lat="38.18594785144432" lon="-1.1293622229485516"><ele>207.99999999999997</ele><time>2026-04-07T10:43:16Z</time></trkpt><trkpt lat="38.18587754550073" lon="-1.129351435989838"><ele>208.0</ele><time>2026-04-07T10:43:17Z</time></trkpt><trkpt lat="38.18579600719461" lon="-1.1293389256833193"><ele>208.0</ele><time>2026-04-07T10:43:18Z</time></trkpt><trkpt lat="38.185711771524154" lon="-1.1293260015262843"><ele>208.0</ele><time>2026-04-07T10:43:19Z</time></trkpt><trkpt lat="38.18562409875707" lon="-1.1293122089291983"><ele>207.99999999999997</ele><time>2026-04-07T10:43:20Z</time></trkpt><trkpt lat="38.18554394695982" lon="-1.1292783232482662"><ele>208.0</ele><time>2026-04-07T10:43:21Z</time></trkpt><trkpt lat="38.18544951315142" lon="-1.1292844408364977"><ele>207.8</ele><time>2026-04-07T10:43:22Z</time></trkpt><trkpt lat="38.18536066884561" lon="-1.1292703100093087"><ele>207.60000000000002</ele><time>2026-04-07T10:43:23Z</time></trkpt><trkpt lat="38.18526724305584" lon="-1.129255106700992"><ele>207.39999999999998</ele><time>2026-04-07T10:43:24Z</time></trkpt><trkpt lat="38.18517134881353" lon="-1.1292277066928882"><ele>207.2</ele><time>2026-04-07T10:43:25Z</time></trkpt><trkpt lat="38.18507766231484" lon="-1.1292172202129322"><ele>207.0</ele><time>2026-04-07T10:43:26Z</time></trkpt><trkpt lat="38.18498638712922" lon="-1.1292069053109155"><ele>207.0</ele><time>2026-04-07T10:43:27Z</time></trkpt><trkpt lat="38.184903132417425" lon="-1.1291934825250152"><ele>207.0</ele><time>2026-04-07T10:43:28Z</time></trkpt><trkpt lat="38.18482790865084" lon="-1.1291857578730944"><ele>207.0</ele><time>2026-04-07T10:43:29Z</time></trkpt><trkpt lat="38.18476206053876" lon="-1.129184037970395"><ele>207.0</ele><time>2026-04-07T10:43:30Z</time></trkpt><trkpt lat="38.184685458764704" lon="-1.1292058251213934"><ele>207.0</ele><time>2026-04-07T10:43:32Z</time></trkpt><trkpt lat="38.18464396000854" lon="-1.1292948415814277"><ele>207.0</ele><time>2026-04-07T10:43:34Z</time></trkpt><trkpt lat="38.18462322532692" lon="-1.12938101204373"><ele>207.8</ele><time>2026-04-07T10:43:35Z</time></trkpt><trkpt lat="38.18460627629922" lon="-1.1294703389573966"><ele>208.6</ele><time>2026-04-07T10:43:36Z</time></trkpt><trkpt lat="38.18459330416627" lon="-1.1295503570840684"><ele>209.4</ele><time>2026-04-07T10:43:37Z</time></trkpt><trkpt lat="38.184576887675874" lon="-1.129708632051573"><ele>210.20000000000002</ele><time>2026-04-07T10:43:39Z</time></trkpt><trkpt lat="38.18458280200433" lon="-1.1297930629521813"><ele>211.0</ele><time>2026-04-07T10:43:40Z</time></trkpt><trkpt lat="38.18464723594813" lon="-1.1299523912780884"><ele>211.4</ele><time>2026-04-07T10:43:42Z</time></trkpt><trkpt lat="38.18469801714505" lon="-1.1300206297015332"><ele>211.8</ele><time>2026-04-07T10:43:43Z</time></trkpt><trkpt lat="38.18475386126336" lon="-1.130083367396854"><ele>212.20000000000002</ele><time>2026-04-07T10:43:44Z</time></trkpt><trkpt lat="38.184833787753526" lon="-1.1301902234965233"><ele>212.60000000000002</ele><time>2026-04-07T10:43:46Z</time></trkpt><trkpt lat="38.18479462623046" lon="-1.1303598667671928"><ele>213.0</ele><time>2026-04-07T10:43:48Z</time></trkpt><trkpt lat="38.18475210357535" lon="-1.130433901109271"><ele>213.0</ele><time>2026-04-07T10:43:49Z</time></trkpt><trkpt lat="38.18470424189526" lon="-1.1305109486474456"><ele>213.0</ele><time>2026-04-07T10:43:50Z</time></trkpt><trkpt lat="38.18467170071762" lon="-1.1306051390697394"><ele>213.0</ele><time>2026-04-07T10:43:51Z</time></trkpt><trkpt lat="38.18463259852169" lon="-1.1306811463698487"><ele>213.0</ele><time>2026-04-07T10:43:52Z</time></trkpt><trkpt lat="38.18457177603801" lon="-1.1307973261567188"><ele>213.0</ele><time>2026-04-07T10:43:54Z</time></trkpt><trkpt lat="38.1845458828705" lon="-1.1308752392911106"><ele>213.0</ele><time>2026-04-07T10:43:57Z</time></trkpt><trkpt lat="38.1845806072571" lon="-1.1310018607630488"><ele>212.5</ele><time>2026-04-07T10:43:59Z</time></trkpt><trkpt lat="38.184634477857635" lon="-1.1310792834685162"><ele>212.0</ele><time>2026-04-07T10:44:00Z</time></trkpt><trkpt lat="38.18467757608832" lon="-1.131162907246824"><ele>211.5</ele><time>2026-04-07T10:44:01Z</time></trkpt><trkpt lat="38.184722663281356" lon="-1.1312579306640396"><ele>211.0</ele><time>2026-04-07T10:44:02Z</time></trkpt><trkpt lat="38.18477161363856" lon="-1.131358561931513"><ele>210.5</ele><time>2026-04-07T10:44:03Z</time></trkpt><trkpt lat="38.184828039446806" lon="-1.1314659439337904"><ele>210.0</ele><time>2026-04-07T10:44:04Z</time></trkpt><trkpt lat="38.18489707500457" lon="-1.1315707880644816"><ele>210.0</ele><time>2026-04-07T10:44:05Z</time></trkpt><trkpt lat="38.18496563071022" lon="-1.1316712421752881"><ele>210.0</ele><time>2026-04-07T10:44:06Z</time></trkpt><trkpt lat="38.185029401108594" lon="-1.1317687993495693"><ele>210.0</ele><time>2026-04-07T10:44:07Z</time></trkpt><trkpt lat="38.18508275701645" lon="-1.1318568983921187"><ele>210.0</ele><time>2026-04-07T10:44:08Z</time></trkpt><trkpt lat="38.18513098650745" lon="-1.1319324813136074"><ele>210.0</ele><time>2026-04-07T10:44:09Z</time></trkpt><trkpt lat="38.18516456865701" lon="-1.1320051243935265"><ele>210.0</ele><time>2026-04-07T10:44:10Z</time></trkpt><trkpt lat="38.185206449223394" lon="-1.1320906850616959"><ele>210.0</ele><time>2026-04-07T10:44:12Z</time></trkpt><trkpt lat="38.185258138932845" lon="-1.1321721912012448"><ele>210.0</ele><time>2026-04-07T10:44:14Z</time></trkpt><trkpt lat="38.18534109420599" lon="-1.13229243436916"><ele>210.0</ele><time>2026-04-07T10:44:16Z</time></trkpt><trkpt lat="38.18539245147323" lon="-1.1323790490992856"><ele>210.0</ele><time>2026-04-07T10:44:17Z</time></trkpt><trkpt lat="38.18544346755829" lon="-1.132470525475552"><ele>210.0</ele><time>2026-04-07T10:44:18Z</time></trkpt><trkpt lat="38.18549595479912" lon="-1.1325764058498289"><ele>210.4</ele><time>2026-04-07T10:44:19Z</time></trkpt><trkpt lat="38.185545285272205" lon="-1.1326807812904052"><ele>210.8</ele><time>2026-04-07T10:44:20Z</time></trkpt><trkpt lat="38.18559715975322" lon="-1.1327865679177196"><ele>211.2</ele><time>2026-04-07T10:44:21Z</time></trkpt><trkpt lat="38.18564229050023" lon="-1.1329024643584553"><ele>211.6</ele><time>2026-04-07T10:44:22Z</time></trkpt><trkpt lat="38.185681826734914" lon="-1.1330230980766385"><ele>212.0</ele><time>2026-04-07T10:44:23Z</time></trkpt><trkpt lat="38.1857214103413" lon="-1.1331438574569548"><ele>212.6</ele><time>2026-04-07T10:44:24Z</time></trkpt><trkpt lat="38.18576536389382" lon="-1.1332567211628046"><ele>213.2</ele><time>2026-04-07T10:44:25Z</time></trkpt><trkpt lat="38.1858125542851" lon="-1.133368157216266"><ele>213.8</ele><time>2026-04-07T10:44:26Z</time></trkpt><trkpt lat="38.185853822411204" lon="-1.1334837220618756"><ele>214.4</ele><time>2026-04-07T10:44:27Z</time></trkpt><trkpt lat="38.18589495407158" lon="-1.1335934972808237"><ele>215.0</ele><time>2026-04-07T10:44:28Z</time></trkpt><trkpt lat="38.185938820293266" lon="-1.1337017509914555"><ele>215.00000000000003</ele><time>2026-04-07T10:44:29Z</time></trkpt><trkpt lat="38.185982642018246" lon="-1.1338066274975358"><ele>215.0</ele><time>2026-04-07T10:44:30Z</time></trkpt><trkpt lat="38.186025211312085" lon="-1.1339079288014764"><ele>215.0</ele><time>2026-04-07T10:44:31Z</time></trkpt><trkpt lat="38.18606780906699" lon="-1.1340082625784065"><ele>215.0</ele><time>2026-04-07T10:44:32Z</time></trkpt><trkpt lat="38.186106604396656" lon="-1.1341026891430936"><ele>215.00000000000003</ele><time>2026-04-07T10:44:33Z</time></trkpt><trkpt lat="38.186140190518046" lon="-1.134191093661331"><ele>215.0</ele><time>2026-04-07T10:44:34Z</time></trkpt><trkpt lat="38.18616724330482" lon="-1.1342741025071261"><ele>215.33333333333334</ele><time>2026-04-07T10:44:35Z</time></trkpt><trkpt lat="38.186204842080826" lon="-1.1343637274279774"><ele>215.66666666666669</ele><time>2026-04-07T10:44:36Z</time></trkpt><trkpt lat="38.186241364981235" lon="-1.1344462334580148"><ele>216.0</ele><time>2026-04-07T10:44:37Z</time></trkpt><trkpt lat="38.18627674079973" lon="-1.134532066393106"><ele>216.33333333333331</ele><time>2026-04-07T10:44:38Z</time></trkpt><trkpt lat="38.18630667955142" lon="-1.1346299068724972"><ele>216.66666666666666</ele><time>2026-04-07T10:44:39Z</time></trkpt><trkpt lat="38.18633609122876" lon="-1.1347319124687845"><ele>217.0</ele><time>2026-04-07T10:44:40Z</time></trkpt><trkpt lat="38.18636852234159" lon="-1.134835263922746"><ele>217.16666666666666</ele><time>2026-04-07T10:44:41Z</time></trkpt><trkpt lat="38.18640552325642" lon="-1.1349369373339857"><ele>217.33333333333331</ele><time>2026-04-07T10:44:42Z</time></trkpt><trkpt lat="38.18644372803503" lon="-1.1350382883448102"><ele>217.5</ele><time>2026-04-07T10:44:43Z</time></trkpt><trkpt lat="38.18647857656483" lon="-1.1351454434436248"><ele>217.66666666666669</ele><time>2026-04-07T10:44:44Z</time></trkpt><trkpt lat="38.18651421716407" lon="-1.1352521233427078"><ele>217.83333333333334</ele><time>2026-04-07T10:44:45Z</time></trkpt><trkpt lat="38.18654848517856" lon="-1.1353587785475943"><ele>218.0</ele><time>2026-04-07T10:44:46Z</time></trkpt><trkpt lat="38.18658489531633" lon="-1.1354678748994984"><ele>218.0</ele><time>2026-04-07T10:44:47Z</time></trkpt><trkpt lat="38.186624125853136" lon="-1.1355672454841832"><ele>218.0</ele><time>2026-04-07T10:44:48Z</time></trkpt><trkpt lat="38.18666889685775" lon="-1.1356534598155428"><ele>218.0</ele><time>2026-04-07T10:44:49Z</time></trkpt><trkpt lat="38.18669794601342" lon="-1.1357345669180885"><ele>218.0</ele><time>2026-04-07T10:44:50Z</time></trkpt><trkpt lat="38.18673758318567" lon="-1.1358420315475068"><ele>218.0</ele><time>2026-04-07T10:44:52Z</time></trkpt><trkpt lat="38.1866048550106" lon="-1.1359805823615925"><ele>218.16666666666669</ele><time>2026-04-07T10:44:54Z</time></trkpt><trkpt lat="38.18652193847752" lon="-1.1360199770967094"><ele>218.33333333333334</ele><time>2026-04-07T10:44:55Z</time></trkpt><trkpt lat="38.18645177798524" lon="-1.1360665003944812"><ele>218.5</ele><time>2026-04-07T10:44:56Z</time></trkpt><trkpt lat="38.18637469169566" lon="-1.1361146939764253"><ele>218.66666666666669</ele><time>2026-04-07T10:44:57Z</time></trkpt><trkpt lat="38.186294867383076" lon="-1.136173348854001"><ele>218.83333333333334</ele><time>2026-04-07T10:44:58Z</time></trkpt><trkpt lat="38.18622237583451" lon="-1.1362283342643897"><ele>219.0</ele><time>2026-04-07T10:44:59Z</time></trkpt><trkpt lat="38.18615297842989" lon="-1.1362794164027044"><ele>219.0</ele><time>2026-04-07T10:45:00Z</time></trkpt><trkpt lat="38.186090250352294" lon="-1.1363229928153449"><ele>218.99999999999997</ele><time>2026-04-07T10:45:01Z</time></trkpt><trkpt lat="38.18598105371042" lon="-1.1363777412797385"><ele>218.99999999999997</ele><time>2026-04-07T10:45:03Z</time></trkpt><trkpt lat="38.18591694989955" lon="-1.136401408207767"><ele>219.0</ele><time>2026-04-07T10:45:04Z</time></trkpt><trkpt lat="38.18583755973796" lon="-1.1363496333243366"><ele>219.0</ele><time>2026-04-07T10:45:05Z</time></trkpt><trkpt lat="38.18573376820937" lon="-1.136278014585933"><ele>218.83333333333334</ele><time>2026-04-07T10:45:07Z</time></trkpt><trkpt lat="38.18565367764004" lon="-1.136297832893745"><ele>218.66666666666669</ele><time>2026-04-07T10:45:08Z</time></trkpt><trkpt lat="38.18557828263979" lon="-1.1363439814870784"><ele>218.5</ele><time>2026-04-07T10:45:09Z</time></trkpt><trkpt lat="38.18549275851337" lon="-1.1363837456376915"><ele>218.33333333333334</ele><time>2026-04-07T10:45:10Z</time></trkpt><trkpt lat="38.1854049365194" lon="-1.1364307394695783"><ele>218.16666666666669</ele><time>2026-04-07T10:45:11Z</time></trkpt><trkpt lat="38.185325541141424" lon="-1.1364961233312985"><ele>218.0</ele><time>2026-04-07T10:45:12Z</time></trkpt><trkpt lat="38.18525117034088" lon="-1.1365744251535113"><ele>217.4</ele><time>2026-04-07T10:45:13Z</time></trkpt><trkpt lat="38.18518213793076" lon="-1.1366618802274808"><ele>216.8</ele><time>2026-04-07T10:45:14Z</time></trkpt><trkpt lat="38.18511869265831" lon="-1.1367574504117455"><ele>216.2</ele><time>2026-04-07T10:45:15Z</time></trkpt><trkpt lat="38.18505685937381" lon="-1.1368549376019341"><ele>215.6</ele><time>2026-04-07T10:45:16Z</time></trkpt><trkpt lat="38.18499389204504" lon="-1.136950903110414"><ele>215.0</ele><time>2026-04-07T10:45:17Z</time></trkpt><trkpt lat="38.1849279570407" lon="-1.1370405994865451"><ele>215.0</ele><time>2026-04-07T10:45:18Z</time></trkpt><trkpt lat="38.18486215410581" lon="-1.1371279959320653"><ele>215.0</ele><time>2026-04-07T10:45:19Z</time></trkpt><trkpt lat="38.184792885397435" lon="-1.1372116247721071"><ele>215.0</ele><time>2026-04-07T10:45:20Z</time></trkpt><trkpt lat="38.18472043152501" lon="-1.137302091936752"><ele>215.0</ele><time>2026-04-07T10:45:21Z</time></trkpt><trkpt lat="38.18464840969375" lon="-1.1373929372417895"><ele>215.0</ele><time>2026-04-07T10:45:22Z</time></trkpt><trkpt lat="38.18457603342518" lon="-1.1374869880708305"><ele>215.6</ele><time>2026-04-07T10:45:23Z</time></trkpt><trkpt lat="38.18449268943106" lon="-1.1375953273066293"><ele>216.2</ele><time>2026-04-07T10:45:24Z</time></trkpt><trkpt lat="38.18441773118246" lon="-1.137692951253573"><ele>216.8</ele><time>2026-04-07T10:45:25Z</time></trkpt><trkpt lat="38.18434557490563" lon="-1.1377951216876336"><ele>217.4</ele><time>2026-04-07T10:45:26Z</time></trkpt><trkpt lat="38.18427708172498" lon="-1.1378937476876039"><ele>218.0</ele><time>2026-04-07T10:45:27Z</time></trkpt><trkpt lat="38.1841963809166" lon="-1.1379762609576425"><ele>218.0</ele><time>2026-04-07T10:45:28Z</time></trkpt><trkpt lat="38.184099804736675" lon="-1.1380560317906443"><ele>218.0</ele><time>2026-04-07T10:45:29Z</time></trkpt><trkpt lat="38.184006381598536" lon="-1.1381337484212195"><ele>218.0</ele><time>2026-04-07T10:45:30Z</time></trkpt><trkpt lat="38.18392402007283" lon="-1.1382098195082881"><ele>218.0</ele><time>2026-04-07T10:45:31Z</time></trkpt><trkpt lat="38.183850737057504" lon="-1.1382770117454004"><ele>218.0</ele><time>2026-04-07T10:45:32Z</time></trkpt><trkpt lat="38.18378635751269" lon="-1.1383353415976596"><ele>218.14285714285714</ele><time>2026-04-07T10:45:33Z</time></trkpt><trkpt lat="38.18372199668022" lon="-1.1383857905448875"><ele>218.28571428571428</ele><time>2026-04-07T10:45:34Z</time></trkpt><trkpt lat="38.18365097237142" lon="-1.1384163753946666"><ele>218.42857142857144</ele><time>2026-04-07T10:45:35Z</time></trkpt><trkpt lat="38.183574230315976" lon="-1.138434796858629"><ele>218.57142857142856</ele><time>2026-04-07T10:45:36Z</time></trkpt><trkpt lat="38.18351080824843" lon="-1.1383729075351088"><ele>218.7142857142857</ele><time>2026-04-07T10:45:37Z</time></trkpt><trkpt lat="38.183447480618675" lon="-1.1383458687176469"><ele>218.85714285714286</ele><time>2026-04-07T10:45:38Z</time></trkpt><trkpt lat="38.18337472807939" lon="-1.1383494017248124"><ele>219.0</ele><time>2026-04-07T10:45:39Z</time></trkpt><trkpt lat="38.18331059627992" lon="-1.1383878385106818"><ele>219.0</ele><time>2026-04-07T10:45:40Z</time></trkpt><trkpt lat="38.18325603722235" lon="-1.1384758343887356"><ele>218.99999999999997</ele><time>2026-04-07T10:45:41Z</time></trkpt><trkpt lat="38.18321635825926" lon="-1.1385812072233379"><ele>218.99999999999997</ele><time>2026-04-07T10:45:42Z</time></trkpt><trkpt lat="38.18315397277015" lon="-1.13868773482456"><ele>219.0</ele><time>2026-04-07T10:45:43Z</time></trkpt><trkpt lat="38.18306262433824" lon="-1.138784150396451"><ele>219.0</ele><time>2026-04-07T10:45:44Z</time></trkpt><trkpt lat="38.1829671598271" lon="-1.138843582828507"><ele>218.83333333333334</ele><time>2026-04-07T10:45:45Z</time></trkpt><trkpt lat="38.182881377659335" lon="-1.138894137973103"><ele>218.66666666666669</ele><time>2026-04-07T10:45:46Z</time></trkpt><trkpt lat="38.18281571540483" lon="-1.138946445798057"><ele>218.5</ele><time>2026-04-07T10:45:47Z</time></trkpt><trkpt lat="38.182768885815406" lon="-1.1390042269053715"><ele>218.33333333333334</ele><time>2026-04-07T10:45:48Z</time></trkpt><trkpt lat="38.182723480701966" lon="-1.1390685692110327"><ele>218.16666666666669</ele><time>2026-04-07T10:45:50Z</time></trkpt><trkpt lat="38.18267711780699" lon="-1.1391241686071574"><ele>218.0</ele><time>2026-04-07T10:45:54Z</time></trkpt><trkpt lat="38.182785798684236" lon="-1.1392658561048152"><ele>218.00000000000003</ele><time>2026-04-07T10:45:55Z</time></trkpt><trkpt lat="38.18283002610021" lon="-1.139355303197451"><ele>218.0</ele><time>2026-04-07T10:45:56Z</time></trkpt><trkpt lat="38.182865469215635" lon="-1.1394589691307386"><ele>218.0</ele><time>2026-04-07T10:45:57Z</time></trkpt><trkpt lat="38.18290126254625" lon="-1.1395564607547466"><ele>218.0</ele><time>2026-04-07T10:45:58Z</time></trkpt><trkpt lat="38.18294113698069" lon="-1.1396709446198772"><ele>218.00000000000003</ele><time>2026-04-07T10:45:59Z</time></trkpt><trkpt lat="38.18297117373873" lon="-1.1397732358580255"><ele>218.0</ele><time>2026-04-07T10:46:00Z</time></trkpt><trkpt lat="38.18300820983754" lon="-1.1398691041012892"><ele>218.0</ele><time>2026-04-07T10:46:01Z</time></trkpt><trkpt lat="38.182876223228284" lon="-1.1400853969308749"><ele>218.0</ele><time>2026-04-07T10:46:03Z</time></trkpt><trkpt lat="38.182799582505865" lon="-1.140167394145575"><ele>218.0</ele><time>2026-04-07T10:46:04Z</time></trkpt><trkpt lat="38.18272908759361" lon="-1.1402617330369504"><ele>218.0</ele><time>2026-04-07T10:46:05Z</time></trkpt><trkpt lat="38.18264890320827" lon="-1.1403306098486243"><ele>218.0</ele><time>2026-04-07T10:46:06Z</time></trkpt><trkpt lat="38.182558092898354" lon="-1.1403636147679694"><ele>218.0</ele><time>2026-04-07T10:46:07Z</time></trkpt><trkpt lat="38.18246832580746" lon="-1.1403783446181823"><ele>218.0</ele><time>2026-04-07T10:46:08Z</time></trkpt><trkpt lat="38.18236988430234" lon="-1.1403859390402291"><ele>218.0</ele><time>2026-04-07T10:46:09Z</time></trkpt><trkpt lat="38.18227217321376" lon="-1.1404528049811082"><ele>218.0</ele><time>2026-04-07T10:46:10Z</time></trkpt><trkpt lat="38.18216687831951" lon="-1.140492184062883"><ele>217.60000000000002</ele><time>2026-04-07T10:46:11Z</time></trkpt><trkpt lat="38.18207439288325" lon="-1.140556481294316"><ele>217.20000000000002</ele><time>2026-04-07T10:46:12Z</time></trkpt><trkpt lat="38.18198581111181" lon="-1.1406250192972491"><ele>216.8</ele><time>2026-04-07T10:46:13Z</time></trkpt><trkpt lat="38.18190677835375" lon="-1.140703381625309"><ele>216.4</ele><time>2026-04-07T10:46:14Z</time></trkpt><trkpt lat="38.18183734736264" lon="-1.1408013834672737"><ele>216.0</ele><time>2026-04-07T10:46:15Z</time></trkpt><trkpt lat="38.1817791447107" lon="-1.140918901988952"><ele>215.4</ele><time>2026-04-07T10:46:16Z</time></trkpt><trkpt lat="38.181735337348734" lon="-1.141044838753104"><ele>214.8</ele><time>2026-04-07T10:46:17Z</time></trkpt><trkpt lat="38.181706640806716" lon="-1.1411657838582314"><ele>214.20000000000002</ele><time>2026-04-07T10:46:18Z</time></trkpt><trkpt lat="38.18168648458629" lon="-1.1412984614108246"><ele>213.60000000000002</ele><time>2026-04-07T10:46:19Z</time></trkpt><trkpt lat="38.18167696881659" lon="-1.1414395032154758"><ele>213.0</ele><time>2026-04-07T10:46:20Z</time></trkpt><trkpt lat="38.18168670630174" lon="-1.1415939204610583"><ele>213.0</ele><time>2026-04-07T10:46:21Z</time></trkpt><trkpt lat="38.181715457909" lon="-1.1417207845229587"><ele>213.0</ele><time>2026-04-07T10:46:22Z</time></trkpt><trkpt lat="38.18175013694388" lon="-1.1418327028771669"><ele>213.0</ele><time>2026-04-07T10:46:23Z</time></trkpt><trkpt lat="38.181774485661876" lon="-1.1419296989018484"><ele>213.0</ele><time>2026-04-07T10:46:24Z</time></trkpt><trkpt lat="38.181785878286185" lon="-1.1420135475870619"><ele>213.0</ele><time>2026-04-07T10:46:25Z</time></trkpt><trkpt lat="38.181791624741564" lon="-1.1421755580442037"><ele>213.0</ele><time>2026-04-07T10:46:27Z</time></trkpt><trkpt lat="38.181807055720746" lon="-1.1422719329693418"><ele>213.0</ele><time>2026-04-07T10:46:28Z</time></trkpt><trkpt lat="38.18183620595092" lon="-1.1423731689225753"><ele>213.0</ele><time>2026-04-07T10:46:29Z</time></trkpt><trkpt lat="38.1818635094944" lon="-1.1424951930249023"><ele>213.0</ele><time>2026-04-07T10:46:30Z</time></trkpt><trkpt lat="38.181886371109094" lon="-1.1426230757925673"><ele>213.0</ele><time>2026-04-07T10:46:31Z</time></trkpt><trkpt lat="38.18191045869116" lon="-1.1427524061770267"><ele>213.5</ele><time>2026-04-07T10:46:32Z</time></trkpt><trkpt lat="38.181931582682815" lon="-1.1428840078149065"><ele>214.0</ele><time>2026-04-07T10:46:33Z</time></trkpt><trkpt lat="38.181947702216476" lon="-1.1430278626740338"><ele>214.5</ele><time>2026-04-07T10:46:34Z</time></trkpt><trkpt lat="38.181959460266704" lon="-1.1431776427929166"><ele>215.0</ele><time>2026-04-07T10:46:35Z</time></trkpt><trkpt lat="38.18196587888078" lon="-1.1433276761014426"><ele>215.5</ele><time>2026-04-07T10:46:36Z</time></trkpt><trkpt lat="38.181964101869816" lon="-1.1434804398000236"><ele>216.0</ele><time>2026-04-07T10:46:37Z</time></trkpt><trkpt lat="38.181953781974094" lon="-1.1436382218092491"><ele>216.5</ele><time>2026-04-07T10:46:38Z</time></trkpt><trkpt lat="38.18193493543273" lon="-1.143797369869244"><ele>217.0</ele><time>2026-04-07T10:46:39Z</time></trkpt><trkpt lat="38.18190895623782" lon="-1.1439558159467316"><ele>216.0</ele><time>2026-04-07T10:46:40Z</time></trkpt><trkpt lat="38.181876188372506" lon="-1.1441155811847417"><ele>215.0</ele><time>2026-04-07T10:46:41Z</time></trkpt><trkpt lat="38.18184319372426" lon="-1.1442671976906145"><ele>214.0</ele><time>2026-04-07T10:46:42Z</time></trkpt><trkpt lat="38.18180903033022" lon="-1.1444059768475212"><ele>213.0</ele><time>2026-04-07T10:46:43Z</time></trkpt><trkpt lat="38.18176994705732" lon="-1.1445401761416383"><ele>213.0</ele><time>2026-04-07T10:46:44Z</time></trkpt><trkpt lat="38.18172712951653" lon="-1.1446618118722067"><ele>213.0</ele><time>2026-04-07T10:46:45Z</time></trkpt><trkpt lat="38.18168373434507" lon="-1.1447758615824266"><ele>213.0</ele><time>2026-04-07T10:46:46Z</time></trkpt><trkpt lat="38.18164083410397" lon="-1.144886144475786"><ele>213.0</ele><time>2026-04-07T10:46:47Z</time></trkpt><trkpt lat="38.1816008422143" lon="-1.1449947896778898"><ele>213.0</ele><time>2026-04-07T10:46:48Z</time></trkpt><trkpt lat="38.18156492251793" lon="-1.1451000758066676"><ele>213.0</ele><time>2026-04-07T10:46:49Z</time></trkpt><trkpt lat="38.18152991121422" lon="-1.1452094746615864"><ele>213.0</ele><time>2026-04-07T10:46:50Z</time></trkpt><trkpt lat="38.18149132352205" lon="-1.1453269984925107"><ele>213.0</ele><time>2026-04-07T10:46:51Z</time></trkpt><trkpt lat="38.18144652768391" lon="-1.1454526231080606"><ele>213.0</ele><time>2026-04-07T10:46:52Z</time></trkpt><trkpt lat="38.181400719956194" lon="-1.1455925841307535"><ele>213.0</ele><time>2026-04-07T10:46:53Z</time></trkpt><trkpt lat="38.18136967828213" lon="-1.1457313812347285"><ele>214.0</ele><time>2026-04-07T10:46:54Z</time></trkpt><trkpt lat="38.18134798107472" lon="-1.1458584086507784"><ele>215.0</ele><time>2026-04-07T10:46:55Z</time></trkpt><trkpt lat="38.18132718480023" lon="-1.1459719636975054"><ele>216.0</ele><time>2026-04-07T10:46:56Z</time></trkpt><trkpt lat="38.1813041070326" lon="-1.1460653738735747"><ele>217.0</ele><time>2026-04-07T10:46:57Z</time></trkpt><trkpt lat="38.181274494517986" lon="-1.146141121143961"><ele>218.0</ele><time>2026-04-07T10:46:58Z</time></trkpt><trkpt lat="38.1812772515919" lon="-1.1462368217760548"><ele>219.0</ele><time>2026-04-07T10:47:00Z</time></trkpt><trkpt lat="38.18126994905205" lon="-1.1463319646877037"><ele>219.0</ele><time>2026-04-07T10:47:02Z</time></trkpt><trkpt lat="38.18127023469181" lon="-1.1464566120805397"><ele>218.99999999999997</ele><time>2026-04-07T10:47:04Z</time></trkpt><trkpt lat="38.18116601335464" lon="-1.1465015846094724"><ele>218.99999999999997</ele><time>2026-04-07T10:47:05Z</time></trkpt><trkpt lat="38.1811157719052" lon="-1.1465697423837458"><ele>219.0</ele><time>2026-04-07T10:47:09Z</time></trkpt><trkpt lat="38.18116228311005" lon="-1.1464822453000172"><ele>219.0</ele><time>2026-04-07T10:47:14Z</time></trkpt><trkpt lat="38.18123820605956" lon="-1.1464254741005833"><ele>219.0</ele><time>2026-04-07T10:47:16Z</time></trkpt><trkpt lat="38.18116867617118" lon="-1.146199027875607"><ele>219.0</ele><time>2026-04-07T10:47:17Z</time></trkpt><trkpt lat="38.18116194950868" lon="-1.1460688543156514"><ele>219.0</ele><time>2026-04-07T10:47:18Z</time></trkpt><trkpt lat="38.18114257912288" lon="-1.1459160150479393"><ele>219.0</ele><time>2026-04-07T10:47:19Z</time></trkpt><trkpt lat="38.18112265574126" lon="-1.1457814575007705"><ele>217.79999999999998</ele><time>2026-04-07T10:47:20Z</time></trkpt><trkpt lat="38.18110305345434" lon="-1.145655681533431"><ele>216.59999999999997</ele><time>2026-04-07T10:47:21Z</time></trkpt><trkpt lat="38.18107860407672" lon="-1.1455354078196671"><ele>215.4</ele><time>2026-04-07T10:47:22Z</time></trkpt><trkpt lat="38.181041613871095" lon="-1.145405893633058"><ele>214.2</ele><time>2026-04-07T10:47:23Z</time></trkpt><trkpt lat="38.18100253156461" lon="-1.145269353583319"><ele>213.0</ele><time>2026-04-07T10:47:24Z</time></trkpt><trkpt lat="38.18096150279312" lon="-1.145156084340774"><ele>213.0</ele><time>2026-04-07T10:47:25Z</time></trkpt><trkpt lat="38.18092725748998" lon="-1.1450394187488546"><ele>213.0</ele><time>2026-04-07T10:47:26Z</time></trkpt><trkpt lat="38.180892987994966" lon="-1.1449195973252115"><ele>213.0</ele><time>2026-04-07T10:47:27Z</time></trkpt><trkpt lat="38.180860208333655" lon="-1.1448179855111968"><ele>213.0</ele><time>2026-04-07T10:47:28Z</time></trkpt><trkpt lat="38.180834499356905" lon="-1.1447308589661338"><ele>213.0</ele><time>2026-04-07T10:47:29Z</time></trkpt><trkpt lat="38.180806297400444" lon="-1.1446042464887798"><ele>213.16666666666666</ele><time>2026-04-07T10:47:31Z</time></trkpt><trkpt lat="38.180745283102674" lon="-1.1445550363828836"><ele>213.33333333333331</ele><time>2026-04-07T10:47:34Z</time></trkpt><trkpt lat="38.1806654333308" lon="-1.1445815519973497"><ele>213.5</ele><time>2026-04-07T10:47:36Z</time></trkpt><trkpt lat="38.180570742538066" lon="-1.144607474907557"><ele>213.66666666666666</ele><time>2026-04-07T10:47:38Z</time></trkpt><trkpt lat="38.180505414296086" lon="-1.1445818476393328"><ele>213.83333333333331</ele><time>2026-04-07T10:47:41Z</time></trkpt><trkpt lat="38.180460653314945" lon="-1.1444853305973421"><ele>214.0</ele><time>2026-04-07T10:47:43Z</time></trkpt><trkpt lat="38.18040820415388" lon="-1.1444297045256417"><ele>213.99999999999997</ele><time>2026-04-07T10:47:45Z</time></trkpt><trkpt lat="38.18036271992204" lon="-1.1443514926471985"><ele>214.0</ele><time>2026-04-07T10:47:48Z</time></trkpt><trkpt lat="38.18029822764729" lon="-1.144300450607053"><ele>214.0</ele><time>2026-04-07T10:47:50Z</time></trkpt><trkpt lat="38.18025291695771" lon="-1.1442447674903926"><ele>214.0</ele><time>2026-04-07T10:47:52Z</time></trkpt><trkpt lat="38.18020853897684" lon="-1.1441724811340335"><ele>213.99999999999997</ele><time>2026-04-07T10:47:55Z</time></trkpt><trkpt lat="38.180140808785445" lon="-1.1441288772973095"><ele>214.0</ele><time>2026-04-07T10:47:58Z</time></trkpt><trkpt lat="38.179962950030124" lon="-1.1440392340382481"><ele>213.83333333333331</ele><time>2026-04-07T10:48:00Z</time></trkpt><trkpt lat="38.17987350938229" lon="-1.1440009047856026"><ele>213.66666666666666</ele><time>2026-04-07T10:48:02Z</time></trkpt><trkpt lat="38.17981156023401" lon="-1.1439848869902463"><ele>213.5</ele><time>2026-04-07T10:48:06Z</time></trkpt><trkpt lat="38.17975239220797" lon="-1.1439503280104202"><ele>213.33333333333331</ele><time>2026-04-07T10:48:08Z</time></trkpt><trkpt lat="38.17966318834468" lon="-1.1439032787957248"><ele>213.16666666666666</ele><time>2026-04-07T10:48:10Z</time></trkpt><trkpt lat="38.17959106396944" lon="-1.1438259715062702"><ele>213.0</ele><time>2026-04-07T10:48:12Z</time></trkpt><trkpt lat="38.17961388618429" lon="-1.1437061557817023"><ele>213.0</ele><time>2026-04-07T10:48:14Z</time></trkpt><trkpt lat="38.17959510136807" lon="-1.143625129869092"><ele>213.0</ele><time>2026-04-07T10:48:16Z</time></trkpt><trkpt lat="38.179577602441114" lon="-1.1435434582186752"><ele>213.0</ele><time>2026-04-07T10:48:18Z</time></trkpt><trkpt lat="38.179564373992676" lon="-1.1434589449127814"><ele>213.0</ele><time>2026-04-07T10:48:21Z</time></trkpt><trkpt lat="38.17958316518048" lon="-1.1433718956477923"><ele>213.0</ele><time>2026-04-07T10:48:23Z</time></trkpt><trkpt lat="38.17957086232802" lon="-1.1432540867332381"><ele>213.0</ele><time>2026-04-07T10:48:25Z</time></trkpt><trkpt lat="38.17951413009179" lon="-1.1431672082995128"><ele>211.8</ele><time>2026-04-07T10:48:27Z</time></trkpt><trkpt lat="38.179435342592164" lon="-1.1430871646978826"><ele>210.60000000000002</ele><time>2026-04-07T10:48:29Z</time></trkpt><trkpt lat="38.179347821984976" lon="-1.1430179039792239"><ele>209.39999999999998</ele><time>2026-04-07T10:48:31Z</time></trkpt><trkpt lat="38.17929579813543" lon="-1.1429617915580663"><ele>208.2</ele><time>2026-04-07T10:48:33Z</time></trkpt><trkpt lat="38.179208311614275" lon="-1.1428918816985179"><ele>207.0</ele><time>2026-04-07T10:48:35Z</time></trkpt><trkpt lat="38.17910633130262" lon="-1.14285424590869"><ele>207.0</ele><time>2026-04-07T10:48:37Z</time></trkpt><trkpt lat="38.17904406902322" lon="-1.1428293533986178"><ele>207.0</ele><time>2026-04-07T10:48:38Z</time></trkpt><trkpt lat="38.17892806378752" lon="-1.1427794839907772"><ele>207.0</ele><time>2026-04-07T10:48:40Z</time></trkpt><trkpt lat="38.17880717269943" lon="-1.1427430350692416"><ele>207.0</ele><time>2026-04-07T10:48:42Z</time></trkpt><trkpt lat="38.17868563304879" lon="-1.1427467850392543"><ele>207.0</ele><time>2026-04-07T10:48:44Z</time></trkpt><trkpt lat="38.1785793333777" lon="-1.1427571575768578"><ele>207.83333333333334</ele><time>2026-04-07T10:48:46Z</time></trkpt><trkpt lat="38.1785037786043" lon="-1.1427679103680202"><ele>208.66666666666669</ele><time>2026-04-07T10:48:49Z</time></trkpt><trkpt lat="38.17846399823651" lon="-1.142870352044365"><ele>209.5</ele><time>2026-04-07T10:48:52Z</time></trkpt><trkpt lat="38.17842967456201" lon="-1.1430059803917665"><ele>210.33333333333334</ele><time>2026-04-07T10:48:54Z</time></trkpt><trkpt lat="38.1784020023815" lon="-1.1430815641414787"><ele>211.16666666666669</ele><time>2026-04-07T10:48:55Z</time></trkpt><trkpt lat="38.17836416245823" lon="-1.1431716001912104"><ele>212.0</ele><time>2026-04-07T10:48:56Z</time></trkpt><trkpt lat="38.17831936991277" lon="-1.1432783077419932"><ele>212.0</ele><time>2026-04-07T10:48:57Z</time></trkpt><trkpt lat="38.17827047206752" lon="-1.143407768590338"><ele>212.0</ele><time>2026-04-07T10:48:58Z</time></trkpt><trkpt lat="38.178214653224046" lon="-1.1435540225473628"><ele>212.0</ele><time>2026-04-07T10:48:59Z</time></trkpt><trkpt lat="38.17814202529852" lon="-1.1437351115383108"><ele>212.0</ele><time>2026-04-07T10:49:00Z</time></trkpt><trkpt lat="38.17807187756421" lon="-1.1439246503907383"><ele>212.0</ele><time>2026-04-07T10:49:01Z</time></trkpt><trkpt lat="38.17798847349475" lon="-1.1441393768452195"><ele>212.0</ele><time>2026-04-07T10:49:02Z</time></trkpt><trkpt lat="38.17791371219906" lon="-1.1443751791045913"><ele>212.0</ele><time>2026-04-07T10:49:03Z</time></trkpt><trkpt lat="38.17783601377708" lon="-1.1445798595651728"><ele>212.0</ele><time>2026-04-07T10:49:04Z</time></trkpt><trkpt lat="38.177758677398884" lon="-1.1447415956414553"><ele>212.0</ele><time>2026-04-07T10:49:05Z</time></trkpt><trkpt lat="38.17770054838043" lon="-1.1448923923838057"><ele>212.0</ele><time>2026-04-07T10:49:06Z</time></trkpt><trkpt lat="38.1776501354669" lon="-1.145010551470676"><ele>212.0</ele><time>2026-04-07T10:49:07Z</time></trkpt><trkpt lat="38.17760408274727" lon="-1.1451290030668324"><ele>212.00000000000003</ele><time>2026-04-07T10:49:08Z</time></trkpt><trkpt lat="38.17756378725904" lon="-1.1452405476325298"><ele>212.0</ele><time>2026-04-07T10:49:09Z</time></trkpt><trkpt lat="38.17754030770063" lon="-1.1453155293408428"><ele>212.0</ele><time>2026-04-07T10:49:10Z</time></trkpt><trkpt lat="38.17751976657034" lon="-1.1453914817069477"><ele>212.0</ele><time>2026-04-07T10:49:11Z</time></trkpt><trkpt lat="38.177508233082676" lon="-1.1454850195764124"><ele>212.00000000000003</ele><time>2026-04-07T10:49:13Z</time></trkpt><trkpt lat="38.177370842573026" lon="-1.1454652385368245"><ele>212.0</ele><time>2026-04-07T10:49:15Z</time></trkpt><trkpt lat="38.17729195424474" lon="-1.1454116339268359"><ele>212.0</ele><time>2026-04-07T10:49:16Z</time></trkpt><trkpt lat="38.17719807193365" lon="-1.145374984155944"><ele>212.0</ele><time>2026-04-07T10:49:17Z</time></trkpt><trkpt lat="38.1771072317232" lon="-1.1453185649063566"><ele>212.0</ele><time>2026-04-07T10:49:18Z</time></trkpt><trkpt lat="38.177022652954875" lon="-1.1452580940989288"><ele>212.0</ele><time>2026-04-07T10:49:19Z</time></trkpt><trkpt lat="38.17695426110595" lon="-1.1451922494628306"><ele>212.0</ele><time>2026-04-07T10:49:20Z</time></trkpt><trkpt lat="38.17689479572606" lon="-1.1451348610594627"><ele>212.00000000000003</ele><time>2026-04-07T10:49:21Z</time></trkpt><trkpt lat="38.17684135369587" lon="-1.145069624439765"><ele>212.0</ele><time>2026-04-07T10:49:22Z</time></trkpt><trkpt lat="38.17675861884229" lon="-1.1450530018373242"><ele>212.0</ele><time>2026-04-07T10:49:23Z</time></trkpt><trkpt lat="38.17667705410095" lon="-1.1451048039250153"><ele>212.0</ele><time>2026-04-07T10:49:24Z</time></trkpt><trkpt lat="38.17659936091683" lon="-1.145173348151903"><ele>212.00000000000003</ele><time>2026-04-07T10:49:25Z</time></trkpt><trkpt lat="38.17652256175044" lon="-1.145223576113727"><ele>212.0</ele><time>2026-04-07T10:49:26Z</time></trkpt><trkpt lat="38.17645440496867" lon="-1.1452883333799997"><ele>211.83333333333334</ele><time>2026-04-07T10:49:27Z</time></trkpt><trkpt lat="38.17638390776145" lon="-1.1453488089478339"><ele>211.66666666666669</ele><time>2026-04-07T10:49:28Z</time></trkpt><trkpt lat="38.17631291947175" lon="-1.1453788154570406"><ele>211.5</ele><time>2026-04-07T10:49:29Z</time></trkpt><trkpt lat="38.17624034839531" lon="-1.1453758040123247"><ele>211.33333333333331</ele><time>2026-04-07T10:49:30Z</time></trkpt><trkpt lat="38.17616643514506" lon="-1.1453320986654878"><ele>211.16666666666666</ele><time>2026-04-07T10:49:31Z</time></trkpt><trkpt lat="38.17609634413152" lon="-1.145266504682571"><ele>211.0</ele><time>2026-04-07T10:49:32Z</time></trkpt><trkpt lat="38.17601375286949" lon="-1.1452131525556615"><ele>211.0</ele><time>2026-04-07T10:49:33Z</time></trkpt><trkpt lat="38.17593469023436" lon="-1.1451463558562276"><ele>211.0</ele><time>2026-04-07T10:49:34Z</time></trkpt><trkpt lat="38.17585277141077" lon="-1.1450736052791552"><ele>211.0</ele><time>2026-04-07T10:49:35Z</time></trkpt><trkpt lat="38.17576876864236" lon="-1.1449972110364093"><ele>211.0</ele><time>2026-04-07T10:49:36Z</time></trkpt><trkpt lat="38.175688207222855" lon="-1.1449234061227314"><ele>211.0</ele><time>2026-04-07T10:49:37Z</time></trkpt><trkpt lat="38.175601293609866" lon="-1.1448435957571435"><ele>210.8</ele><time>2026-04-07T10:49:38Z</time></trkpt><trkpt lat="38.175512812600054" lon="-1.144754028247985"><ele>210.60000000000002</ele><time>2026-04-07T10:49:39Z</time></trkpt><trkpt lat="38.17542800703441" lon="-1.1446673253764466"><ele>210.4</ele><time>2026-04-07T10:49:40Z</time></trkpt><trkpt lat="38.175347875662446" lon="-1.144602919665243"><ele>210.2</ele><time>2026-04-07T10:49:41Z</time></trkpt><trkpt lat="38.17527716583613" lon="-1.1445420487779423"><ele>210.0</ele><time>2026-04-07T10:49:42Z</time></trkpt><trkpt lat="38.17518993574915" lon="-1.1445171166843526"><ele>210.0</ele><time>2026-04-07T10:49:43Z</time></trkpt><trkpt lat="38.17509727370991" lon="-1.1445136135936362"><ele>210.0</ele><time>2026-04-07T10:49:44Z</time></trkpt><trkpt lat="38.175005765669965" lon="-1.1445403739283864"><ele>210.0</ele><time>2026-04-07T10:49:45Z</time></trkpt><trkpt lat="38.17492606693529" lon="-1.1445835540114864"><ele>210.0</ele><time>2026-04-07T10:49:46Z</time></trkpt><trkpt lat="38.17486280034558" lon="-1.1446437542022116"><ele>210.0</ele><time>2026-04-07T10:49:47Z</time></trkpt><trkpt lat="38.17481519427148" lon="-1.1447209304996078"><ele>210.0</ele><time>2026-04-07T10:49:48Z</time></trkpt><trkpt lat="38.17477962024696" lon="-1.144787152189849"><ele>210.4</ele><time>2026-04-07T10:49:49Z</time></trkpt><trkpt lat="38.174715394574974" lon="-1.1448604998404017"><ele>210.8</ele><time>2026-04-07T10:49:51Z</time></trkpt><trkpt lat="38.17457018041703" lon="-1.1447858396947543"><ele>211.2</ele><time>2026-04-07T10:49:53Z</time></trkpt><trkpt lat="38.17451080951137" lon="-1.1447152658812696"><ele>211.6</ele><time>2026-04-07T10:49:54Z</time></trkpt><trkpt lat="38.17444319732142" lon="-1.1446478669455469"><ele>212.0</ele><time>2026-04-07T10:49:55Z</time></trkpt><trkpt lat="38.174370346522835" lon="-1.144558462438642"><ele>212.0</ele><time>2026-04-07T10:49:56Z</time></trkpt><trkpt lat="38.174284137343065" lon="-1.144494286291298"><ele>212.0</ele><time>2026-04-07T10:49:57Z</time></trkpt><trkpt lat="38.174187751531974" lon="-1.1444319957402918"><ele>212.0</ele><time>2026-04-07T10:49:58Z</time></trkpt><trkpt lat="38.17409227002425" lon="-1.1443448059548853"><ele>212.0</ele><time>2026-04-07T10:49:59Z</time></trkpt><trkpt lat="38.174007957168854" lon="-1.1442641031337337"><ele>212.0</ele><time>2026-04-07T10:50:00Z</time></trkpt><trkpt lat="38.17393776921739" lon="-1.1441969205182156"><ele>212.39999999999998</ele><time>2026-04-07T10:50:01Z</time></trkpt><trkpt lat="38.17387316265837" lon="-1.144133601012617"><ele>212.79999999999998</ele><time>2026-04-07T10:50:02Z</time></trkpt><trkpt lat="38.17383182917022" lon="-1.1440664745740563"><ele>213.2</ele><time>2026-04-07T10:50:03Z</time></trkpt><trkpt lat="38.17372817329668" lon="-1.1439894807749704"><ele>213.6</ele><time>2026-04-07T10:50:05Z</time></trkpt><trkpt lat="38.17366213096845" lon="-1.1439238326325503"><ele>214.0</ele><time>2026-04-07T10:50:06Z</time></trkpt><trkpt lat="38.173584077344444" lon="-1.1438462448253992"><ele>214.75</ele><time>2026-04-07T10:50:07Z</time></trkpt><trkpt lat="38.1734932402908" lon="-1.143755949969275"><ele>215.5</ele><time>2026-04-07T10:50:08Z</time></trkpt><trkpt lat="38.17341327293537" lon="-1.1436101359982445"><ele>216.25</ele><time>2026-04-07T10:50:09Z</time></trkpt><trkpt lat="38.17329411779695" lon="-1.1435056246057698"><ele>217.0</ele><time>2026-04-07T10:50:10Z</time></trkpt><trkpt lat="38.17319903242741" lon="-1.143420848667713"><ele>217.0</ele><time>2026-04-07T10:50:11Z</time></trkpt><trkpt lat="38.17311642591655" lon="-1.143341140225106"><ele>217.0</ele><time>2026-04-07T10:50:12Z</time></trkpt><trkpt lat="38.17304444217675" lon="-1.1432649524121"><ele>217.0</ele><time>2026-04-07T10:50:13Z</time></trkpt><trkpt lat="38.172986137659635" lon="-1.1431924492854257"><ele>217.0</ele><time>2026-04-07T10:50:14Z</time></trkpt><trkpt lat="38.172932892763086" lon="-1.1431116983047358"><ele>217.0</ele><time>2026-04-07T10:50:15Z</time></trkpt><trkpt lat="38.172867509566196" lon="-1.1430090781132498"><ele>217.0</ele><time>2026-04-07T10:50:16Z</time></trkpt><trkpt lat="38.172790901894345" lon="-1.1428877362744063"><ele>217.0</ele><time>2026-04-07T10:50:17Z</time></trkpt><trkpt lat="38.17271243956157" lon="-1.1427561869053122"><ele>217.0</ele><time>2026-04-07T10:50:18Z</time></trkpt><trkpt lat="38.172642965166325" lon="-1.1426315634175053"><ele>217.0</ele><time>2026-04-07T10:50:19Z</time></trkpt><trkpt lat="38.17259050812327" lon="-1.1425322147970247"><ele>216.99999999999997</ele><time>2026-04-07T10:50:20Z</time></trkpt><trkpt lat="38.17253974048483" lon="-1.142442668074835"><ele>217.0</ele><time>2026-04-07T10:50:21Z</time></trkpt><trkpt lat="38.17249402454285" lon="-1.1423568077590618"><ele>217.0</ele><time>2026-04-07T10:50:22Z</time></trkpt><trkpt lat="38.17245986577788" lon="-1.142265524213414"><ele>217.0</ele><time>2026-04-07T10:50:23Z</time></trkpt><trkpt lat="38.17243816687523" lon="-1.1421702805337912"><ele>216.99999999999997</ele><time>2026-04-07T10:50:24Z</time></trkpt><trkpt lat="38.17242743593126" lon="-1.1420515593564722"><ele>217.0</ele><time>2026-04-07T10:50:25Z</time></trkpt><trkpt lat="38.172410538573224" lon="-1.1419228358303795"><ele>216.8</ele><time>2026-04-07T10:50:26Z</time></trkpt><trkpt lat="38.17238959336757" lon="-1.141798022812058"><ele>216.6</ele><time>2026-04-07T10:50:27Z</time></trkpt><trkpt lat="38.17238957665475" lon="-1.141666550837396"><ele>216.40000000000003</ele><time>2026-04-07T10:50:28Z</time></trkpt><trkpt lat="38.17240706014777" lon="-1.141531824947654"><ele>216.20000000000002</ele><time>2026-04-07T10:50:29Z</time></trkpt><trkpt lat="38.17242941444115" lon="-1.141398533845794"><ele>216.0</ele><time>2026-04-07T10:50:30Z</time></trkpt><trkpt lat="38.172452011019516" lon="-1.141294849344929"><ele>215.5</ele><time>2026-04-07T10:50:31Z</time></trkpt><trkpt lat="38.17246656390092" lon="-1.1411875740929855"><ele>215.0</ele><time>2026-04-07T10:50:32Z</time></trkpt><trkpt lat="38.17245473582069" lon="-1.141086938607338"><ele>214.5</ele><time>2026-04-07T10:50:33Z</time></trkpt><trkpt lat="38.17240611389502" lon="-1.14100435774855"><ele>214.0</ele><time>2026-04-07T10:50:34Z</time></trkpt><trkpt lat="38.17233099791194" lon="-1.1409075940530446"><ele>213.5</ele><time>2026-04-07T10:50:35Z</time></trkpt><trkpt lat="38.17226927793672" lon="-1.1408314171103904"><ele>213.0</ele><time>2026-04-07T10:50:36Z</time></trkpt><trkpt lat="38.172208159810644" lon="-1.1407555399639449"><ele>211.99999999999997</ele><time>2026-04-07T10:50:37Z</time></trkpt><trkpt lat="38.172142325624094" lon="-1.1406974600652657"><ele>211.0</ele><time>2026-04-07T10:50:38Z</time></trkpt><trkpt lat="38.17207297047601" lon="-1.1406598169394524"><ele>210.0</ele><time>2026-04-07T10:50:39Z</time></trkpt><trkpt lat="38.17200032334234" lon="-1.1406540029733239"><ele>209.0</ele><time>2026-04-07T10:50:40Z</time></trkpt><trkpt lat="38.17192555440018" lon="-1.1406559241110612"><ele>208.0</ele><time>2026-04-07T10:50:41Z</time></trkpt><trkpt lat="38.17185968379655" lon="-1.1406439416239875"><ele>206.99999999999997</ele><time>2026-04-07T10:50:42Z</time></trkpt><trkpt lat="38.17179291520988" lon="-1.1405930173014984"><ele>206.0</ele><time>2026-04-07T10:50:43Z</time></trkpt><trkpt lat="38.17173499910554" lon="-1.1405218369645544"><ele>206.0</ele><time>2026-04-07T10:50:44Z</time></trkpt><trkpt lat="38.17168453103176" lon="-1.1404544608210665"><ele>206.0</ele><time>2026-04-07T10:50:45Z</time></trkpt><trkpt lat="38.171651550009344" lon="-1.1403537957326333"><ele>206.0</ele><time>2026-04-07T10:50:46Z</time></trkpt><trkpt lat="38.171632317163464" lon="-1.1402336109197977"><ele>206.0</ele><time>2026-04-07T10:50:47Z</time></trkpt><trkpt lat="38.17162418523735" lon="-1.1400985308315552"><ele>206.0</ele><time>2026-04-07T10:50:48Z</time></trkpt><trkpt lat="38.171609672971265" lon="-1.1399809805820842"><ele>205.50000000000003</ele><time>2026-04-07T10:50:49Z</time></trkpt><trkpt lat="38.171585122472266" lon="-1.1398720074020543"><ele>205.0</ele><time>2026-04-07T10:50:50Z</time></trkpt><trkpt lat="38.17155511952797" lon="-1.1397572759971568"><ele>204.5</ele><time>2026-04-07T10:50:51Z</time></trkpt><trkpt lat="38.17153196189285" lon="-1.1396462003228107"><ele>204.0</ele><time>2026-04-07T10:50:52Z</time></trkpt><trkpt lat="38.17151404887009" lon="-1.1395339134267408"><ele>203.50000000000003</ele><time>2026-04-07T10:50:53Z</time></trkpt><trkpt lat="38.171496077822766" lon="-1.1394348966777292"><ele>203.0</ele><time>2026-04-07T10:50:54Z</time></trkpt><trkpt lat="38.17147908375426" lon="-1.1393455355016564"><ele>202.83333333333334</ele><time>2026-04-07T10:50:55Z</time></trkpt><trkpt lat="38.17145586680323" lon="-1.1392661403848616"><ele>202.66666666666669</ele><time>2026-04-07T10:50:56Z</time></trkpt><trkpt lat="38.171409216025374" lon="-1.1392119213090894"><ele>202.5</ele><time>2026-04-07T10:50:57Z</time></trkpt><trkpt lat="38.17134133957981" lon="-1.1391756250112106"><ele>202.33333333333331</ele><time>2026-04-07T10:50:58Z</time></trkpt><trkpt lat="38.17124879601445" lon="-1.1391434001923513"><ele>202.16666666666666</ele><time>2026-04-07T10:50:59Z</time></trkpt><trkpt lat="38.17115364392602" lon="-1.1391290251874884"><ele>202.0</ele><time>2026-04-07T10:51:00Z</time></trkpt><trkpt lat="38.17105617101786" lon="-1.1391111743401166"><ele>202.0</ele><time>2026-04-07T10:51:01Z</time></trkpt><trkpt lat="38.170956793228456" lon="-1.139071374350849"><ele>202.0</ele><time>2026-04-07T10:51:02Z</time></trkpt><trkpt lat="38.17086017410314" lon="-1.139027868123374"><ele>202.0</ele><time>2026-04-07T10:51:03Z</time></trkpt><trkpt lat="38.17077056389212" lon="-1.1389889676668765"><ele>202.0</ele><time>2026-04-07T10:51:04Z</time></trkpt><trkpt lat="38.17068845806941" lon="-1.1389556561284304"><ele>202.0</ele><time>2026-04-07T10:51:05Z</time></trkpt><trkpt lat="38.17060988545618" lon="-1.1389325402929165"><ele>202.16666666666666</ele><time>2026-04-07T10:51:06Z</time></trkpt><trkpt lat="38.170538715458484" lon="-1.1389249383393998"><ele>202.33333333333331</ele><time>2026-04-07T10:51:07Z</time></trkpt><trkpt lat="38.17046843347945" lon="-1.1389371165816404"><ele>202.5</ele><time>2026-04-07T10:51:08Z</time></trkpt><trkpt lat="38.170408286098024" lon="-1.1389837402775316"><ele>202.66666666666669</ele><time>2026-04-07T10:51:09Z</time></trkpt><trkpt lat="38.170355273605594" lon="-1.1390763996240323"><ele>202.83333333333334</ele><time>2026-04-07T10:51:10Z</time></trkpt><trkpt lat="38.170324205583945" lon="-1.1391790612831"><ele>203.0</ele><time>2026-04-07T10:51:11Z</time></trkpt><trkpt lat="38.170294893445686" lon="-1.1392794051205208"><ele>203.0</ele><time>2026-04-07T10:51:12Z</time></trkpt><trkpt lat="38.17026268012007" lon="-1.1393762162058478"><ele>203.0</ele><time>2026-04-07T10:51:13Z</time></trkpt><trkpt lat="38.17023375746793" lon="-1.1395013470524729"><ele>203.0</ele><time>2026-04-07T10:51:14Z</time></trkpt><trkpt lat="38.17021812528505" lon="-1.1396404620967255"><ele>203.0</ele><time>2026-04-07T10:51:15Z</time></trkpt><trkpt lat="38.17020057319202" lon="-1.1397789613807667"><ele>203.0</ele><time>2026-04-07T10:51:16Z</time></trkpt><trkpt lat="38.17016898302105" lon="-1.1399351618745548"><ele>204.0</ele><time>2026-04-07T10:51:17Z</time></trkpt><trkpt lat="38.17014513798291" lon="-1.1400657424461884"><ele>205.0</ele><time>2026-04-07T10:51:18Z</time></trkpt><trkpt lat="38.170127207479034" lon="-1.1401981589459882"><ele>206.0</ele><time>2026-04-07T10:51:19Z</time></trkpt><trkpt lat="38.170105786374904" lon="-1.1403188952448444"><ele>207.0</ele><time>2026-04-07T10:51:20Z</time></trkpt><trkpt lat="38.17007584869938" lon="-1.1404184080798787"><ele>208.0</ele><time>2026-04-07T10:51:21Z</time></trkpt><trkpt lat="38.170025492138215" lon="-1.1405083732706036"><ele>208.0</ele><time>2026-04-07T10:51:22Z</time></trkpt><trkpt lat="38.16997194247072" lon="-1.1405748935361464"><ele>208.0</ele><time>2026-04-07T10:51:23Z</time></trkpt><trkpt lat="38.16988334050145" lon="-1.1406458306520775"><ele>208.0</ele><time>2026-04-07T10:51:24Z</time></trkpt><trkpt lat="38.16978257067162" lon="-1.140719058051637"><ele>208.0</ele><time>2026-04-07T10:51:25Z</time></trkpt><trkpt lat="38.16969434982356" lon="-1.1407788143223647"><ele>208.0</ele><time>2026-04-07T10:51:26Z</time></trkpt><trkpt lat="38.16959372254085" lon="-1.1408188152435959"><ele>208.2</ele><time>2026-04-07T10:51:27Z</time></trkpt><trkpt lat="38.169501025350236" lon="-1.1408758722988577"><ele>208.4</ele><time>2026-04-07T10:51:28Z</time></trkpt><trkpt lat="38.16940308101962" lon="-1.1409301802784677"><ele>208.6</ele><time>2026-04-07T10:51:29Z</time></trkpt><trkpt lat="38.16930494581899" lon="-1.1409878047925248"><ele>208.79999999999998</ele><time>2026-04-07T10:51:30Z</time></trkpt><trkpt lat="38.16920680281108" lon="-1.141060804745203"><ele>209.0</ele><time>2026-04-07T10:51:31Z</time></trkpt><trkpt lat="38.16912360443437" lon="-1.1411365230754211"><ele>209.0</ele><time>2026-04-07T10:51:32Z</time></trkpt><trkpt lat="38.16903697985704" lon="-1.1411883167832362"><ele>209.0</ele><time>2026-04-07T10:51:33Z</time></trkpt><trkpt lat="38.168945599946674" lon="-1.1412133670229496"><ele>209.0</ele><time>2026-04-07T10:51:34Z</time></trkpt><trkpt lat="38.16885284268306" lon="-1.1412218303626684"><ele>209.0</ele><time>2026-04-07T10:51:35Z</time></trkpt><trkpt lat="38.16876100413879" lon="-1.1412214115841695"><ele>209.0</ele><time>2026-04-07T10:51:36Z</time></trkpt><trkpt lat="38.16867401588567" lon="-1.1412268859174501"><ele>209.6</ele><time>2026-04-07T10:51:37Z</time></trkpt><trkpt lat="38.16857857198033" lon="-1.1412230300457225"><ele>210.2</ele><time>2026-04-07T10:51:38Z</time></trkpt><trkpt lat="38.16848852951676" lon="-1.1412418863031955"><ele>210.79999999999998</ele><time>2026-04-07T10:51:39Z</time></trkpt><trkpt lat="38.16839057468911" lon="-1.141236315013522"><ele>211.39999999999998</ele><time>2026-04-07T10:51:40Z</time></trkpt><trkpt lat="38.168298162143486" lon="-1.1412311410566638"><ele>212.0</ele><time>2026-04-07T10:51:41Z</time></trkpt><trkpt lat="38.168206212163916" lon="-1.1412282358896473"><ele>213.0</ele><time>2026-04-07T10:51:42Z</time></trkpt><trkpt lat="38.16811119954219" lon="-1.1412080888600729"><ele>214.0</ele><time>2026-04-07T10:51:43Z</time></trkpt><trkpt lat="38.16801587354742" lon="-1.1412274441866206"><ele>215.0</ele><time>2026-04-07T10:51:44Z</time></trkpt><trkpt lat="38.16791900747208" lon="-1.1412417102646308"><ele>216.0</ele><time>2026-04-07T10:51:45Z</time></trkpt><trkpt lat="38.16782054160309" lon="-1.1412610615924688"><ele>217.0</ele><time>2026-04-07T10:51:46Z</time></trkpt><trkpt lat="38.16771880332428" lon="-1.1412697219946664"><ele>217.0</ele><time>2026-04-07T10:51:47Z</time></trkpt><trkpt lat="38.16761353411346" lon="-1.1412851697255417"><ele>217.0</ele><time>2026-04-07T10:51:48Z</time></trkpt><trkpt lat="38.167509589902096" lon="-1.1413037296041175"><ele>217.0</ele><time>2026-04-07T10:51:49Z</time></trkpt><trkpt lat="38.167405897536995" lon="-1.1413243266516495"><ele>217.0</ele><time>2026-04-07T10:51:50Z</time></trkpt><trkpt lat="38.16730010917669" lon="-1.1413505612710075"><ele>217.0</ele><time>2026-04-07T10:51:51Z</time></trkpt><trkpt lat="38.1671922717328" lon="-1.141378803532286"><ele>217.6</ele><time>2026-04-07T10:51:52Z</time></trkpt><trkpt lat="38.16708483308038" lon="-1.1414112121991464"><ele>218.2</ele><time>2026-04-07T10:51:53Z</time></trkpt><trkpt lat="38.16697983648016" lon="-1.1414543915205266"><ele>218.8</ele><time>2026-04-07T10:51:54Z</time></trkpt><trkpt lat="38.166876596934785" lon="-1.141505077151243"><ele>219.4</ele><time>2026-04-07T10:51:55Z</time></trkpt><trkpt lat="38.16677767207005" lon="-1.1415591566893803"><ele>220.0</ele><time>2026-04-07T10:51:56Z</time></trkpt><trkpt lat="38.16668343448723" lon="-1.1416200513060029"><ele>219.99999999999997</ele><time>2026-04-07T10:51:57Z</time></trkpt><trkpt lat="38.16659807766046" lon="-1.1416841184110749"><ele>220.0</ele><time>2026-04-07T10:51:58Z</time></trkpt><trkpt lat="38.16652031686024" lon="-1.1417381147108188"><ele>220.0</ele><time>2026-04-07T10:51:59Z</time></trkpt><trkpt lat="38.16644999393218" lon="-1.141784108719406"><ele>220.0</ele><time>2026-04-07T10:52:00Z</time></trkpt><trkpt lat="38.16638943874145" lon="-1.1418268868484465"><ele>219.99999999999997</ele><time>2026-04-07T10:52:01Z</time></trkpt><trkpt lat="38.16633079224466" lon="-1.1418760668470023"><ele>220.0</ele><time>2026-04-07T10:52:02Z</time></trkpt><trkpt lat="38.16627269975489" lon="-1.1419257500661182"><ele>221.33333333333331</ele><time>2026-04-07T10:52:03Z</time></trkpt><trkpt lat="38.16621177529214" lon="-1.1419739677517926"><ele>222.66666666666666</ele><time>2026-04-07T10:52:04Z</time></trkpt><trkpt lat="38.16614964019" lon="-1.1420151821068678"><ele>224.0</ele><time>2026-04-07T10:52:05Z</time></trkpt><trkpt lat="38.16602264883415" lon="-1.1420436944509347"><ele>225.33333333333331</ele><time>2026-04-07T10:52:07Z</time></trkpt><trkpt lat="38.1659531422222" lon="-1.1420632405448237"><ele>226.66666666666666</ele><time>2026-04-07T10:52:08Z</time></trkpt><trkpt lat="38.16587811979514" lon="-1.1420422116683573"><ele>228.0</ele><time>2026-04-07T10:52:09Z</time></trkpt><trkpt lat="38.16580747096678" lon="-1.142053146618943"><ele>228.0</ele><time>2026-04-07T10:52:10Z</time></trkpt><trkpt lat="38.16573481751672" lon="-1.1420784247388445"><ele>228.0</ele><time>2026-04-07T10:52:11Z</time></trkpt><trkpt lat="38.16566339968197" lon="-1.142100498750459"><ele>228.0</ele><time>2026-04-07T10:52:12Z</time></trkpt><trkpt lat="38.16559875515518" lon="-1.142107922607349"><ele>228.0</ele><time>2026-04-07T10:52:13Z</time></trkpt><trkpt lat="38.16549910335182" lon="-1.1421411029808575"><ele>228.0</ele><time>2026-04-07T10:52:15Z</time></trkpt><trkpt lat="38.16534299387385" lon="-1.1420505750708456"><ele>227.8</ele><time>2026-04-07T10:52:17Z</time></trkpt><trkpt lat="38.165265520884695" lon="-1.1420727453006594"><ele>227.60000000000002</ele><time>2026-04-07T10:52:18Z</time></trkpt><trkpt lat="38.16518282125036" lon="-1.142110232440442"><ele>227.39999999999998</ele><time>2026-04-07T10:52:19Z</time></trkpt><trkpt lat="38.165094037056036" lon="-1.1421248427445634"><ele>227.2</ele><time>2026-04-07T10:52:20Z</time></trkpt><trkpt lat="38.164992261247036" lon="-1.1421374510120348"><ele>227.0</ele><time>2026-04-07T10:52:21Z</time></trkpt><trkpt lat="38.16488929133487" lon="-1.1421406365452849"><ele>226.83333333333334</ele><time>2026-04-07T10:52:22Z</time></trkpt><trkpt lat="38.16480496605367" lon="-1.1421315584040073"><ele>226.66666666666669</ele><time>2026-04-07T10:52:23Z</time></trkpt><trkpt lat="38.16472387099603" lon="-1.1421375782280927"><ele>226.5</ele><time>2026-04-07T10:52:24Z</time></trkpt><trkpt lat="38.164653836938825" lon="-1.142114037940123"><ele>226.33333333333331</ele><time>2026-04-07T10:52:25Z</time></trkpt><trkpt lat="38.1645871245612" lon="-1.1420629295326596"><ele>226.16666666666666</ele><time>2026-04-07T10:52:26Z</time></trkpt><trkpt lat="38.16452358410024" lon="-1.1419768809850561"><ele>226.0</ele><time>2026-04-07T10:52:27Z</time></trkpt><trkpt lat="38.16444725272378" lon="-1.1418784401530009"><ele>226.0</ele><time>2026-04-07T10:52:28Z</time></trkpt><trkpt lat="38.16439007454727" lon="-1.141749526604673"><ele>226.0</ele><time>2026-04-07T10:52:29Z</time></trkpt><trkpt lat="38.16431572063171" lon="-1.1416184604143507"><ele>226.0</ele><time>2026-04-07T10:52:30Z</time></trkpt><trkpt lat="38.164234766628134" lon="-1.1414996588831263"><ele>226.0</ele><time>2026-04-07T10:52:31Z</time></trkpt><trkpt lat="38.16415853324594" lon="-1.1413820241015278"><ele>226.0</ele><time>2026-04-07T10:52:32Z</time></trkpt><trkpt lat="38.16408398372384" lon="-1.1412449266141573"><ele>226.0</ele><time>2026-04-07T10:52:33Z</time></trkpt><trkpt lat="38.16398993361713" lon="-1.1411414327343457"><ele>226.0</ele><time>2026-04-07T10:52:34Z</time></trkpt><trkpt lat="38.163906704212465" lon="-1.1410216798012283"><ele>226.0</ele><time>2026-04-07T10:52:35Z</time></trkpt><trkpt lat="38.16383486103665" lon="-1.1408827029398585"><ele>225.25</ele><time>2026-04-07T10:52:36Z</time></trkpt><trkpt lat="38.16377226627923" lon="-1.14077930687221"><ele>224.5</ele><time>2026-04-07T10:52:37Z</time></trkpt><trkpt lat="38.163787744694034" lon="-1.140636690841066"><ele>223.75</ele><time>2026-04-07T10:52:38Z</time></trkpt><trkpt lat="38.16376254783251" lon="-1.1404694602956857"><ele>223.0</ele><time>2026-04-07T10:52:39Z</time></trkpt><trkpt lat="38.163759217395594" lon="-1.140340391100213"><ele>223.0</ele><time>2026-04-07T10:52:40Z</time></trkpt><trkpt lat="38.16378169628144" lon="-1.1402423013084406"><ele>223.0</ele><time>2026-04-07T10:52:41Z</time></trkpt><trkpt lat="38.163784505399676" lon="-1.140115632398843"><ele>223.0</ele><time>2026-04-07T10:52:42Z</time></trkpt><trkpt lat="38.163777782375476" lon="-1.1399935403958648"><ele>223.0</ele><time>2026-04-07T10:52:43Z</time></trkpt><trkpt lat="38.163768161300005" lon="-1.1398825247237345"><ele>223.0</ele><time>2026-04-07T10:52:44Z</time></trkpt><trkpt lat="38.16329593792851" lon="-1.139753522856117"><ele>222.2</ele><time>2026-04-07T10:52:45Z</time></trkpt><trkpt lat="38.16320016446314" lon="-1.139625139534985"><ele>221.4</ele><time>2026-04-07T10:52:46Z</time></trkpt><trkpt lat="38.16311452837025" lon="-1.139537069513192"><ele>220.59999999999997</ele><time>2026-04-07T10:52:47Z</time></trkpt><trkpt lat="38.163042779368126" lon="-1.139462288537138"><ele>219.79999999999998</ele><time>2026-04-07T10:52:48Z</time></trkpt><trkpt lat="38.162975000871974" lon="-1.1393936659639734"><ele>219.0</ele><time>2026-04-07T10:52:49Z</time></trkpt><trkpt lat="38.162867358907796" lon="-1.1393218066675823"><ele>219.0</ele><time>2026-04-07T10:52:51Z</time></trkpt><trkpt lat="38.16279498957206" lon="-1.1393116896719793"><ele>218.99999999999997</ele><time>2026-04-07T10:52:52Z</time></trkpt><trkpt lat="38.16270905234927" lon="-1.139303372558321"><ele>218.99999999999997</ele><time>2026-04-07T10:52:53Z</time></trkpt><trkpt lat="38.16260562248825" lon="-1.1392969962143749"><ele>219.0</ele><time>2026-04-07T10:52:54Z</time></trkpt><trkpt lat="38.162505476975326" lon="-1.1392852736092127"><ele>219.0</ele><time>2026-04-07T10:52:55Z</time></trkpt><trkpt lat="38.16241381875549" lon="-1.1392562586823796"><ele>218.0</ele><time>2026-04-07T10:52:56Z</time></trkpt><trkpt lat="38.162311477344105" lon="-1.139208517941142"><ele>217.0</ele><time>2026-04-07T10:52:57Z</time></trkpt><trkpt lat="38.162203438299876" lon="-1.1391553197828759"><ele>216.0</ele><time>2026-04-07T10:52:58Z</time></trkpt><trkpt lat="38.162095775582216" lon="-1.1391017503317422"><ele>215.0</ele><time>2026-04-07T10:52:59Z</time></trkpt><trkpt lat="38.16198574302817" lon="-1.139038986047558"><ele>214.25</ele><time>2026-04-07T10:53:00Z</time></trkpt><trkpt lat="38.16187082251939" lon="-1.1389661913315594"><ele>213.5</ele><time>2026-04-07T10:53:01Z</time></trkpt><trkpt lat="38.161745559724494" lon="-1.1388850254171081"><ele>212.75</ele><time>2026-04-07T10:53:02Z</time></trkpt><trkpt lat="38.16162867151814" lon="-1.1388135780483113"><ele>212.0</ele><time>2026-04-07T10:53:03Z</time></trkpt><trkpt lat="38.161512567915686" lon="-1.1387486029567353"><ele>211.0</ele><time>2026-04-07T10:53:04Z</time></trkpt><trkpt lat="38.161390388368446" lon="-1.1386823447661456"><ele>210.0</ele><time>2026-04-07T10:53:05Z</time></trkpt><trkpt lat="38.16127496887474" lon="-1.1386168051972156"><ele>209.0</ele><time>2026-04-07T10:53:06Z</time></trkpt><trkpt lat="38.16116556095594" lon="-1.1385529052996977"><ele>208.0</ele><time>2026-04-07T10:53:07Z</time></trkpt><trkpt lat="38.16106734288614" lon="-1.1384971972089724"><ele>208.0</ele><time>2026-04-07T10:53:08Z</time></trkpt><trkpt lat="38.16097880671067" lon="-1.1384426393162534"><ele>208.0</ele><time>2026-04-07T10:53:09Z</time></trkpt><trkpt lat="38.16089607156699" lon="-1.1383822224982123"><ele>208.0</ele><time>2026-04-07T10:53:10Z</time></trkpt><trkpt lat="38.16081005045477" lon="-1.138318732310472"><ele>208.0</ele><time>2026-04-07T10:53:11Z</time></trkpt><trkpt lat="38.16073170298609" lon="-1.1382586798239496"><ele>208.0</ele><time>2026-04-07T10:53:12Z</time></trkpt><trkpt lat="38.160664607231645" lon="-1.1382037397950189"><ele>207.42857142857142</ele><time>2026-04-07T10:53:13Z</time></trkpt><trkpt lat="38.16061178856636" lon="-1.1381540239273975"><ele>206.85714285714286</ele><time>2026-04-07T10:53:14Z</time></trkpt><trkpt lat="38.16055798040386" lon="-1.1380991999930952"><ele>206.28571428571428</ele><time>2026-04-07T10:53:15Z</time></trkpt><trkpt lat="38.16050396888752" lon="-1.138033699778639"><ele>205.71428571428572</ele><time>2026-04-07T10:53:16Z</time></trkpt><trkpt lat="38.16045200335433" lon="-1.137970885878199"><ele>205.14285714285717</ele><time>2026-04-07T10:53:17Z</time></trkpt><trkpt lat="38.16038859325634" lon="-1.1379079749538972"><ele>204.57142857142858</ele><time>2026-04-07T10:53:18Z</time></trkpt><trkpt lat="38.160320571108784" lon="-1.1378424708755575"><ele>204.0</ele><time>2026-04-07T10:53:19Z</time></trkpt><trkpt lat="38.16024023548763" lon="-1.1377768810481839"><ele>204.0</ele><time>2026-04-07T10:53:20Z</time></trkpt><trkpt lat="38.16014865770608" lon="-1.1377107942866977"><ele>204.0</ele><time>2026-04-07T10:53:21Z</time></trkpt><trkpt lat="38.16005077689559" lon="-1.1376425120434617"><ele>204.0</ele><time>2026-04-07T10:53:22Z</time></trkpt><trkpt lat="38.15995719020194" lon="-1.1375592067172378"><ele>204.0</ele><time>2026-04-07T10:53:23Z</time></trkpt><trkpt lat="38.159867138971556" lon="-1.1374673354873075"><ele>204.0</ele><time>2026-04-07T10:53:24Z</time></trkpt><trkpt lat="38.159795908152574" lon="-1.1373802325930717"><ele>203.75</ele><time>2026-04-07T10:53:25Z</time></trkpt><trkpt lat="38.159720924099695" lon="-1.1372977802789561"><ele>203.5</ele><time>2026-04-07T10:53:26Z</time></trkpt><trkpt lat="38.1596253734463" lon="-1.1372093382274118"><ele>203.25</ele><time>2026-04-07T10:53:27Z</time></trkpt><trkpt lat="38.159532139245506" lon="-1.1371144044014503"><ele>203.0</ele><time>2026-04-07T10:53:28Z</time></trkpt><trkpt lat="38.15944550117196" lon="-1.137001881207533"><ele>203.0</ele><time>2026-04-07T10:53:29Z</time></trkpt><trkpt lat="38.15936739468428" lon="-1.1368957258331458"><ele>203.0</ele><time>2026-04-07T10:53:30Z</time></trkpt><trkpt lat="38.15930142123426" lon="-1.1367976448994719"><ele>203.0</ele><time>2026-04-07T10:53:31Z</time></trkpt><trkpt lat="38.15924535157897" lon="-1.1367012370935545"><ele>203.0</ele><time>2026-04-07T10:53:32Z</time></trkpt><trkpt lat="38.15918798514235" lon="-1.136601495093241"><ele>203.0</ele><time>2026-04-07T10:53:33Z</time></trkpt><trkpt lat="38.15911013308083" lon="-1.136532343308056"><ele>202.16666666666669</ele><time>2026-04-07T10:53:34Z</time></trkpt><trkpt lat="38.1590484426699" lon="-1.1364591290974395"><ele>201.33333333333334</ele><time>2026-04-07T10:53:35Z</time></trkpt><trkpt lat="38.15899040652219" lon="-1.1363909199501014"><ele>200.5</ele><time>2026-04-07T10:53:36Z</time></trkpt><trkpt lat="38.15894026238301" lon="-1.1363203452446726"><ele>199.66666666666669</ele><time>2026-04-07T10:53:37Z</time></trkpt><trkpt lat="38.15887289494205" lon="-1.1362758340076549"><ele>198.83333333333334</ele><time>2026-04-07T10:53:38Z</time></trkpt><trkpt lat="38.15880524291784" lon="-1.1362335924019882"><ele>198.0</ele><time>2026-04-07T10:53:39Z</time></trkpt><trkpt lat="38.15873876784308" lon="-1.136188193550201"><ele>197.5</ele><time>2026-04-07T10:53:40Z</time></trkpt><trkpt lat="38.158678010453364" lon="-1.1361309020871058"><ele>197.0</ele><time>2026-04-07T10:53:41Z</time></trkpt><trkpt lat="38.15860913307045" lon="-1.1360760287783391"><ele>196.5</ele><time>2026-04-07T10:53:42Z</time></trkpt><trkpt lat="38.15855735233494" lon="-1.1360034562364691"><ele>196.0</ele><time>2026-04-07T10:53:43Z</time></trkpt><trkpt lat="38.158508410720124" lon="-1.1359306832071125"><ele>195.5</ele><time>2026-04-07T10:53:44Z</time></trkpt><trkpt lat="38.15846344439042" lon="-1.1358625384427403"><ele>195.0</ele><time>2026-04-07T10:53:45Z</time></trkpt><trkpt lat="38.158397661265084" lon="-1.1357328378485538"><ele>194.66666666666666</ele><time>2026-04-07T10:53:47Z</time></trkpt><trkpt lat="38.158381150317226" lon="-1.1356358619387272"><ele>194.33333333333331</ele><time>2026-04-07T10:53:48Z</time></trkpt><trkpt lat="38.158390059021826" lon="-1.1355255792054721"><ele>194.0</ele><time>2026-04-07T10:53:49Z</time></trkpt><trkpt lat="38.15838751142569" lon="-1.135395272048691"><ele>193.66666666666666</ele><time>2026-04-07T10:53:50Z</time></trkpt><trkpt lat="38.15837364779162" lon="-1.135283220104418"><ele>193.33333333333331</ele><time>2026-04-07T10:53:51Z</time></trkpt><trkpt lat="38.158348369625664" lon="-1.1351970121194657"><ele>193.0</ele><time>2026-04-07T10:53:52Z</time></trkpt><trkpt lat="38.15828257438757" lon="-1.135122544272269"><ele>191.8</ele><time>2026-04-07T10:53:54Z</time></trkpt><trkpt lat="38.15818027318135" lon="-1.135152905761836"><ele>190.60000000000002</ele><time>2026-04-07T10:53:56Z</time></trkpt><trkpt lat="38.15812347023097" lon="-1.135201272609942"><ele>189.39999999999998</ele><time>2026-04-07T10:53:57Z</time></trkpt><trkpt lat="38.158017017631586" lon="-1.1352417693204102"><ele>188.2</ele><time>2026-04-07T10:53:59Z</time></trkpt><trkpt lat="38.15794727503765" lon="-1.1352445770939683"><ele>187.0</ele><time>2026-04-07T10:54:02Z</time></trkpt><trkpt lat="38.15792042998208" lon="-1.1350650241874998"><ele>187.0</ele><time>2026-04-07T10:54:03Z</time></trkpt><trkpt lat="38.15790953376313" lon="-1.134959060077805"><ele>187.0</ele><time>2026-04-07T10:54:04Z</time></trkpt><trkpt lat="38.157912749573995" lon="-1.134836328449923"><ele>187.0</ele><time>2026-04-07T10:54:05Z</time></trkpt><trkpt lat="38.157918237229595" lon="-1.1347347089121835"><ele>187.0</ele><time>2026-04-07T10:54:06Z</time></trkpt><trkpt lat="38.15792499661358" lon="-1.134630899452984"><ele>187.0</ele><time>2026-04-07T10:54:07Z</time></trkpt><trkpt lat="38.15793231071033" lon="-1.1345229799486862"><ele>187.0</ele><time>2026-04-07T10:54:08Z</time></trkpt><trkpt lat="38.157939906768256" lon="-1.134410900131171"><ele>187.0</ele><time>2026-04-07T10:54:09Z</time></trkpt><trkpt lat="38.157933419177006" lon="-1.1343000864374726"><ele>187.0</ele><time>2026-04-07T10:54:10Z</time></trkpt><trkpt lat="38.15789933760126" lon="-1.1342098251080435"><ele>187.0</ele><time>2026-04-07T10:54:11Z</time></trkpt><trkpt lat="38.157854617443796" lon="-1.134089353668926"><ele>187.0</ele><time>2026-04-07T10:54:12Z</time></trkpt><trkpt lat="38.157802714088895" lon="-1.1339621713301684"><ele>187.0</ele><time>2026-04-07T10:54:13Z</time></trkpt><trkpt lat="38.15775991552148" lon="-1.1338535022162952"><ele>186.6</ele><time>2026-04-07T10:54:14Z</time></trkpt><trkpt lat="38.15772148393473" lon="-1.1337479495246665"><ele>186.2</ele><time>2026-04-07T10:54:15Z</time></trkpt><trkpt lat="38.157686573788354" lon="-1.1336421801946055"><ele>185.8</ele><time>2026-04-07T10:54:16Z</time></trkpt><trkpt lat="38.15764965167238" lon="-1.133528863784674"><ele>185.4</ele><time>2026-04-07T10:54:17Z</time></trkpt><trkpt lat="38.15761085741306" lon="-1.1334146908226883"><ele>185.0</ele><time>2026-04-07T10:54:18Z</time></trkpt><trkpt lat="38.1575726886872" lon="-1.1333125976362055"><ele>184.4</ele><time>2026-04-07T10:54:19Z</time></trkpt><trkpt lat="38.157535041610025" lon="-1.1332003499137344"><ele>183.8</ele><time>2026-04-07T10:54:20Z</time></trkpt><trkpt lat="38.15748646051401" lon="-1.1330915206955336"><ele>183.2</ele><time>2026-04-07T10:54:21Z</time></trkpt><trkpt lat="38.15742603220602" lon="-1.1329986415426345"><ele>182.6</ele><time>2026-04-07T10:54:22Z</time></trkpt><trkpt lat="38.157355252661475" lon="-1.1329123001035035"><ele>182.0</ele><time>2026-04-07T10:54:23Z</time></trkpt><trkpt lat="38.15727533458362" lon="-1.1328370120605353"><ele>181.8</ele><time>2026-04-07T10:54:24Z</time></trkpt><trkpt lat="38.15718899358942" lon="-1.1327878207902458"><ele>181.6</ele><time>2026-04-07T10:54:25Z</time></trkpt><trkpt lat="38.15709228442354" lon="-1.1327547150902109"><ele>181.4</ele><time>2026-04-07T10:54:26Z</time></trkpt><trkpt lat="38.15698261998352" lon="-1.132729270788017"><ele>181.20000000000002</ele><time>2026-04-07T10:54:27Z</time></trkpt><trkpt lat="38.156871385679985" lon="-1.1327054077942853"><ele>181.0</ele><time>2026-04-07T10:54:28Z</time></trkpt><trkpt lat="38.156765178051316" lon="-1.1326833770735079"><ele>181.0</ele><time>2026-04-07T10:54:29Z</time></trkpt><trkpt lat="38.15666094780629" lon="-1.1326691056886944"><ele>181.0</ele><time>2026-04-07T10:54:30Z</time></trkpt><trkpt lat="38.15656547579113" lon="-1.1326745370402744"><ele>181.0</ele><time>2026-04-07T10:54:31Z</time></trkpt><trkpt lat="38.15647102200386" lon="-1.132690165895839"><ele>181.0</ele><time>2026-04-07T10:54:32Z</time></trkpt><trkpt lat="38.156359625671854" lon="-1.1327375012425613"><ele>181.0</ele><time>2026-04-07T10:54:33Z</time></trkpt><trkpt lat="38.156252639626274" lon="-1.1328141995012733"><ele>180.5</ele><time>2026-04-07T10:54:34Z</time></trkpt><trkpt lat="38.156154121495504" lon="-1.1329067458121302"><ele>180.0</ele><time>2026-04-07T10:54:35Z</time></trkpt><trkpt lat="38.15606054557166" lon="-1.1330074773360463"><ele>179.5</ele><time>2026-04-07T10:54:36Z</time></trkpt><trkpt lat="38.15596490101108" lon="-1.133115121975698"><ele>179.0</ele><time>2026-04-07T10:54:37Z</time></trkpt><trkpt lat="38.155860319851904" lon="-1.1332251442482417"><ele>179.0</ele><time>2026-04-07T10:54:38Z</time></trkpt><trkpt lat="38.15573461045847" lon="-1.133330811327945"><ele>179.0</ele><time>2026-04-07T10:54:39Z</time></trkpt><trkpt lat="38.15563720357146" lon="-1.1334369253590961"><ele>179.0</ele><time>2026-04-07T10:54:40Z</time></trkpt><trkpt lat="38.15556675161842" lon="-1.133536015363399"><ele>179.0</ele><time>2026-04-07T10:54:41Z</time></trkpt><trkpt lat="38.15550281783816" lon="-1.1336316524547747"><ele>179.39999999999998</ele><time>2026-04-07T10:54:42Z</time></trkpt><trkpt lat="38.155428187256796" lon="-1.133697730247411"><ele>179.8</ele><time>2026-04-07T10:54:43Z</time></trkpt><trkpt lat="38.15533409521101" lon="-1.1337276853991294"><ele>180.2</ele><time>2026-04-07T10:54:44Z</time></trkpt><trkpt lat="38.15523549887124" lon="-1.1337256557211675"><ele>180.60000000000002</ele><time>2026-04-07T10:54:45Z</time></trkpt><trkpt lat="38.1551524505606" lon="-1.1336842418420336"><ele>181.0</ele><time>2026-04-07T10:54:46Z</time></trkpt><trkpt lat="38.15506349129653" lon="-1.133637341912305"><ele>181.0</ele><time>2026-04-07T10:54:47Z</time></trkpt><trkpt lat="38.154994108772165" lon="-1.1335828624819801"><ele>181.0</ele><time>2026-04-07T10:54:48Z</time></trkpt><trkpt lat="38.15493254443718" lon="-1.1335502699546032"><ele>181.0</ele><time>2026-04-07T10:54:49Z</time></trkpt><trkpt lat="38.15486030064376" lon="-1.1335750818335169"><ele>181.0</ele><time>2026-04-07T10:54:50Z</time></trkpt><trkpt lat="38.15478617846063" lon="-1.1336356242656347"><ele>181.0</ele><time>2026-04-07T10:54:51Z</time></trkpt><trkpt lat="38.15471076906167" lon="-1.1336915100441667"><ele>181.0</ele><time>2026-04-07T10:54:52Z</time></trkpt><trkpt lat="38.15463233241854" lon="-1.1337364531929317"><ele>180.4</ele><time>2026-04-07T10:54:53Z</time></trkpt><trkpt lat="38.154540152916546" lon="-1.1337752212312864"><ele>179.8</ele><time>2026-04-07T10:54:54Z</time></trkpt><trkpt lat="38.15443109789723" lon="-1.1338024454720346"><ele>179.20000000000002</ele><time>2026-04-07T10:54:55Z</time></trkpt><trkpt lat="38.1543176047033" lon="-1.1338221387262521"><ele>178.60000000000002</ele><time>2026-04-07T10:54:56Z</time></trkpt><trkpt lat="38.15419568295376" lon="-1.1338501315945144"><ele>178.0</ele><time>2026-04-07T10:54:57Z</time></trkpt><trkpt lat="38.154048576490126" lon="-1.133890031806107"><ele>177.0</ele><time>2026-04-07T10:54:58Z</time></trkpt><trkpt lat="38.15388581238601" lon="-1.133934099894675"><ele>176.0</ele><time>2026-04-07T10:54:59Z</time></trkpt><trkpt lat="38.15369043107419" lon="-1.1339863880901035"><ele>175.0</ele><time>2026-04-07T10:55:00Z</time></trkpt><trkpt lat="38.15350870347099" lon="-1.1340355461463605"><ele>175.75</ele><time>2026-04-07T10:55:01Z</time></trkpt><trkpt lat="38.15335576163463" lon="-1.1340715659853584"><ele>176.5</ele><time>2026-04-07T10:55:02Z</time></trkpt><trkpt lat="38.153215364332254" lon="-1.1341036937803801"><ele>177.25</ele><time>2026-04-07T10:55:03Z</time></trkpt><trkpt lat="38.15308252370093" lon="-1.134116953601132"><ele>178.0</ele><time>2026-04-07T10:55:04Z</time></trkpt><trkpt lat="38.15295843523255" lon="-1.1341136560108882"><ele>178.25</ele><time>2026-04-07T10:55:05Z</time></trkpt><trkpt lat="38.15284532824683" lon="-1.134105192332675"><ele>178.5</ele><time>2026-04-07T10:55:06Z</time></trkpt><trkpt lat="38.152724729940324" lon="-1.134112223336351"><ele>178.75</ele><time>2026-04-07T10:55:07Z</time></trkpt><trkpt lat="38.15258526989824" lon="-1.1341582511706514"><ele>179.0</ele><time>2026-04-07T10:55:08Z</time></trkpt><trkpt lat="38.15245882685106" lon="-1.1342270722030094"><ele>178.2</ele><time>2026-04-07T10:55:09Z</time></trkpt><trkpt lat="38.152362968977165" lon="-1.1342858512990153"><ele>177.39999999999998</ele><time>2026-04-07T10:55:10Z</time></trkpt><trkpt lat="38.152282556452086" lon="-1.1343384774996612"><ele>176.6</ele><time>2026-04-07T10:55:11Z</time></trkpt><trkpt lat="38.15219981852048" lon="-1.1343956687294148"><ele>175.8</ele><time>2026-04-07T10:55:12Z</time></trkpt><trkpt lat="38.152092088954646" lon="-1.1344735670420774"><ele>175.0</ele><time>2026-04-07T10:55:13Z</time></trkpt><trkpt lat="38.15197435444649" lon="-1.1345531237870652"><ele>175.0</ele><time>2026-04-07T10:55:14Z</time></trkpt><trkpt lat="38.1518692435871" lon="-1.1346191716407976"><ele>175.0</ele><time>2026-04-07T10:55:15Z</time></trkpt><trkpt lat="38.151762347460604" lon="-1.1346766493927964"><ele>175.0</ele><time>2026-04-07T10:55:16Z</time></trkpt><trkpt lat="38.151658738317785" lon="-1.1347343443951383"><ele>175.0</ele><time>2026-04-07T10:55:17Z</time></trkpt><trkpt lat="38.1515556357965" lon="-1.1348028544932953"><ele>174.25</ele><time>2026-04-07T10:55:18Z</time></trkpt><trkpt lat="38.15145183011594" lon="-1.1348823134644248"><ele>173.5</ele><time>2026-04-07T10:55:19Z</time></trkpt><trkpt lat="38.15134758967222" lon="-1.134963289523129"><ele>172.75</ele><time>2026-04-07T10:55:20Z</time></trkpt><trkpt lat="38.15124322058171" lon="-1.1350540160277764"><ele>172.0</ele><time>2026-04-07T10:55:21Z</time></trkpt><trkpt lat="38.15114791614398" lon="-1.1351592744612367"><ele>172.0</ele><time>2026-04-07T10:55:22Z</time></trkpt><trkpt lat="38.15104555569865" lon="-1.135261417358577"><ele>172.0</ele><time>2026-04-07T10:55:23Z</time></trkpt><trkpt lat="38.150953539057554" lon="-1.1353560061731274"><ele>172.0</ele><time>2026-04-07T10:55:24Z</time></trkpt><trkpt lat="38.150864545359546" lon="-1.135440433751678"><ele>172.0</ele><time>2026-04-07T10:55:25Z</time></trkpt><trkpt lat="38.150769003948476" lon="-1.1355102529431302"><ele>171.75</ele><time>2026-04-07T10:55:26Z</time></trkpt><trkpt lat="38.15067629654034" lon="-1.1355683214901857"><ele>171.5</ele><time>2026-04-07T10:55:27Z</time></trkpt><trkpt lat="38.15057216395029" lon="-1.1356186122030976"><ele>171.25</ele><time>2026-04-07T10:55:28Z</time></trkpt><trkpt lat="38.15046535382" lon="-1.1356821524211655"><ele>171.0</ele><time>2026-04-07T10:55:29Z</time></trkpt><trkpt lat="38.15034838896555" lon="-1.1357136374810437"><ele>171.25</ele><time>2026-04-07T10:55:30Z</time></trkpt><trkpt lat="38.15023329311612" lon="-1.1357424884924503"><ele>171.5</ele><time>2026-04-07T10:55:31Z</time></trkpt><trkpt lat="38.15012223123196" lon="-1.1358100931404063"><ele>171.75</ele><time>2026-04-07T10:55:32Z</time></trkpt><trkpt lat="38.15000700697382" lon="-1.1358868460263905"><ele>172.0</ele><time>2026-04-07T10:55:33Z</time></trkpt><trkpt lat="38.14989137497987" lon="-1.1359697652203817"><ele>172.33333333333334</ele><time>2026-04-07T10:55:34Z</time></trkpt><trkpt lat="38.14975171339542" lon="-1.1360668311825033"><ele>172.66666666666666</ele><time>2026-04-07T10:55:35Z</time></trkpt><trkpt lat="38.14959469948261" lon="-1.1361722025121992"><ele>173.0</ele><time>2026-04-07T10:55:36Z</time></trkpt><trkpt lat="38.149447397957815" lon="-1.1362616069172724"><ele>173.0</ele><time>2026-04-07T10:55:37Z</time></trkpt><trkpt lat="38.14927842492924" lon="-1.1363711434712525"><ele>173.0</ele><time>2026-04-07T10:55:38Z</time></trkpt><trkpt lat="38.14912059001232" lon="-1.1364533169797002"><ele>173.0</ele><time>2026-04-07T10:55:39Z</time></trkpt><trkpt lat="38.14897866389024" lon="-1.1365273773725015"><ele>173.0</ele><time>2026-04-07T10:55:40Z</time></trkpt><trkpt lat="38.14884384470112" lon="-1.1366099541569936"><ele>173.0</ele><time>2026-04-07T10:55:41Z</time></trkpt><trkpt lat="38.14871362997673" lon="-1.1366991788249317"><ele>173.0</ele><time>2026-04-07T10:55:42Z</time></trkpt><trkpt lat="38.148587866986645" lon="-1.1367966225396045"><ele>173.0</ele><time>2026-04-07T10:55:43Z</time></trkpt><trkpt lat="38.14846022534625" lon="-1.1368942308681897"><ele>173.0</ele><time>2026-04-07T10:55:44Z</time></trkpt><trkpt lat="38.14832611576492" lon="-1.1369869025890638"><ele>173.0</ele><time>2026-04-07T10:55:45Z</time></trkpt><trkpt lat="38.1481940895041" lon="-1.1370757897892934"><ele>173.0</ele><time>2026-04-07T10:55:46Z</time></trkpt><trkpt lat="38.14806950860059" lon="-1.1371632360822896"><ele>173.0</ele><time>2026-04-07T10:55:47Z</time></trkpt><trkpt lat="38.147962803838915" lon="-1.137248927067383"><ele>172.8</ele><time>2026-04-07T10:55:48Z</time></trkpt><trkpt lat="38.147857067619846" lon="-1.1373220048455115"><ele>172.60000000000002</ele><time>2026-04-07T10:55:49Z</time></trkpt><trkpt lat="38.14775994660626" lon="-1.1373875963471392"><ele>172.39999999999998</ele><time>2026-04-07T10:55:50Z</time></trkpt><trkpt lat="38.147676390186014" lon="-1.137451424902391"><ele>172.2</ele><time>2026-04-07T10:55:51Z</time></trkpt><trkpt lat="38.14761094991713" lon="-1.1374996491923843"><ele>172.0</ele><time>2026-04-07T10:55:52Z</time></trkpt><trkpt lat="38.14754905025021" lon="-1.1375234124660387"><ele>171.8</ele><time>2026-04-07T10:55:53Z</time></trkpt><trkpt lat="38.14747959630229" lon="-1.1375520052954138"><ele>171.6</ele><time>2026-04-07T10:55:54Z</time></trkpt><trkpt lat="38.14739523225514" lon="-1.1374587507513458"><ele>171.4</ele><time>2026-04-07T10:55:55Z</time></trkpt><trkpt lat="38.14730922366237" lon="-1.137365000468596"><ele>171.20000000000002</ele><time>2026-04-07T10:55:56Z</time></trkpt><trkpt lat="38.14720944002259" lon="-1.1372727637848232"><ele>171.0</ele><time>2026-04-07T10:55:57Z</time></trkpt><trkpt lat="38.147133048410666" lon="-1.1371850428149537"><ele>171.0</ele><time>2026-04-07T10:55:58Z</time></trkpt><trkpt lat="38.14706039056024" lon="-1.1370994736381568"><ele>171.0</ele><time>2026-04-07T10:55:59Z</time></trkpt><trkpt lat="38.146985826447384" lon="-1.1370109361532812"><ele>171.0</ele><time>2026-04-07T10:56:00Z</time></trkpt><trkpt lat="38.146918555114894" lon="-1.13692878161691"><ele>171.0</ele><time>2026-04-07T10:56:01Z</time></trkpt><trkpt lat="38.1468437059671" lon="-1.1368675387546312"><ele>171.0</ele><time>2026-04-07T10:56:02Z</time></trkpt><trkpt lat="38.146765873155196" lon="-1.1368190309753634"><ele>171.0</ele><time>2026-04-07T10:56:03Z</time></trkpt><trkpt lat="38.14667622880678" lon="-1.1368178106622486"><ele>171.0</ele><time>2026-04-07T10:56:04Z</time></trkpt><trkpt lat="38.14658820442435" lon="-1.136836744708998"><ele>171.0</ele><time>2026-04-07T10:56:05Z</time></trkpt><trkpt lat="38.146490236316296" lon="-1.136855342910291"><ele>171.0</ele><time>2026-04-07T10:56:06Z</time></trkpt><trkpt lat="38.14639482761566" lon="-1.136876987692899"><ele>171.0</ele><time>2026-04-07T10:56:07Z</time></trkpt><trkpt lat="38.146299761616326" lon="-1.1369089198769253"><ele>170.20000000000002</ele><time>2026-04-07T10:56:08Z</time></trkpt><trkpt lat="38.14620233188463" lon="-1.1369559206197137"><ele>169.4</ele><time>2026-04-07T10:56:09Z</time></trkpt><trkpt lat="38.146104448369215" lon="-1.1370062237924952"><ele>168.6</ele><time>2026-04-07T10:56:10Z</time></trkpt><trkpt lat="38.146009608574296" lon="-1.1370499890603964"><ele>167.8</ele><time>2026-04-07T10:56:11Z</time></trkpt><trkpt lat="38.145904943539314" lon="-1.1370920978706245"><ele>167.0</ele><time>2026-04-07T10:56:12Z</time></trkpt><trkpt lat="38.145794916818254" lon="-1.137144476303205"><ele>166.5</ele><time>2026-04-07T10:56:13Z</time></trkpt><trkpt lat="38.145664250882476" lon="-1.137168193852275"><ele>166.0</ele><time>2026-04-07T10:56:14Z</time></trkpt><trkpt lat="38.14551513048087" lon="-1.1371484036350654"><ele>165.5</ele><time>2026-04-07T10:56:15Z</time></trkpt><trkpt lat="38.14537900803746" lon="-1.1371355009714017"><ele>165.0</ele><time>2026-04-07T10:56:16Z</time></trkpt><trkpt lat="38.14523950000465" lon="-1.1371157483141412"><ele>165.0</ele><time>2026-04-07T10:56:17Z</time></trkpt><trkpt lat="38.14509824068552" lon="-1.1371192779532866"><ele>165.0</ele><time>2026-04-07T10:56:18Z</time></trkpt><trkpt lat="38.14496785147183" lon="-1.137105829989088"><ele>165.0</ele><time>2026-04-07T10:56:19Z</time></trkpt><trkpt lat="38.14484498715606" lon="-1.1370931580215042"><ele>165.0</ele><time>2026-04-07T10:56:20Z</time></trkpt><trkpt lat="38.14472417042655" lon="-1.1370739374580756"><ele>164.0</ele><time>2026-04-07T10:56:21Z</time></trkpt><trkpt lat="38.14462276931227" lon="-1.1370277526093273"><ele>163.0</ele><time>2026-04-07T10:56:22Z</time></trkpt><trkpt lat="38.1445372989533" lon="-1.1369989001747145"><ele>162.0</ele><time>2026-04-07T10:56:23Z</time></trkpt><trkpt lat="38.14445466075608" lon="-1.1369863054816451"><ele>161.0</ele><time>2026-04-07T10:56:24Z</time></trkpt><trkpt lat="38.14436520246011" lon="-1.136997208618423"><ele>160.0</ele><time>2026-04-07T10:56:25Z</time></trkpt><trkpt lat="38.14426621475731" lon="-1.137036847942117"><ele>160.0</ele><time>2026-04-07T10:56:26Z</time></trkpt><trkpt lat="38.14414845287244" lon="-1.1370906871793245"><ele>160.0</ele><time>2026-04-07T10:56:27Z</time></trkpt><trkpt lat="38.14402394594203" lon="-1.137149244505543"><ele>160.0</ele><time>2026-04-07T10:56:28Z</time></trkpt><trkpt lat="38.14389580010486" lon="-1.137206063670841"><ele>160.0</ele><time>2026-04-07T10:56:29Z</time></trkpt><trkpt lat="38.143776926906035" lon="-1.1372496904301572"><ele>159.0</ele><time>2026-04-07T10:56:30Z</time></trkpt><trkpt lat="38.14365645938804" lon="-1.1372735552973303"><ele>158.0</ele><time>2026-04-07T10:56:31Z</time></trkpt><trkpt lat="38.14352684447439" lon="-1.1372778231178853"><ele>157.0</ele><time>2026-04-07T10:56:32Z</time></trkpt><trkpt lat="38.143403551854654" lon="-1.1372735041373179"><ele>156.0</ele><time>2026-04-07T10:56:33Z</time></trkpt><trkpt lat="38.143291946406066" lon="-1.137262989848305"><ele>155.5</ele><time>2026-04-07T10:56:34Z</time></trkpt><trkpt lat="38.1431812657797" lon="-1.1372608693230286"><ele>155.0</ele><time>2026-04-07T10:56:35Z</time></trkpt><trkpt lat="38.143062515686125" lon="-1.13726939583917"><ele>154.5</ele><time>2026-04-07T10:56:36Z</time></trkpt><trkpt lat="38.142936865973354" lon="-1.1373067120171068"><ele>154.0</ele><time>2026-04-07T10:56:37Z</time></trkpt><trkpt lat="38.14280971609413" lon="-1.1373565218560422"><ele>153.5</ele><time>2026-04-07T10:56:38Z</time></trkpt><trkpt lat="38.14267736984752" lon="-1.1374151197773912"><ele>153.0</ele><time>2026-04-07T10:56:39Z</time></trkpt><trkpt lat="38.14253768566341" lon="-1.1374757489890581"><ele>152.5</ele><time>2026-04-07T10:56:40Z</time></trkpt><trkpt lat="38.14240244022184" lon="-1.1375411891420366"><ele>152.0</ele><time>2026-04-07T10:56:41Z</time></trkpt><trkpt lat="38.14227985764923" lon="-1.1376022430837538"><ele>151.5</ele><time>2026-04-07T10:56:42Z</time></trkpt><trkpt lat="38.142159698828756" lon="-1.1376530426103784"><ele>151.0</ele><time>2026-04-07T10:56:43Z</time></trkpt><trkpt lat="38.14202855938048" lon="-1.1376950227651679"><ele>150.5</ele><time>2026-04-07T10:56:44Z</time></trkpt><trkpt lat="38.14188767580904" lon="-1.137726706398607"><ele>150.0</ele><time>2026-04-07T10:56:45Z</time></trkpt><trkpt lat="38.141757423182234" lon="-1.137744968565782"><ele>150.0</ele><time>2026-04-07T10:56:46Z</time></trkpt><trkpt lat="38.14162419326684" lon="-1.13776246302341"><ele>150.0</ele><time>2026-04-07T10:56:47Z</time></trkpt><trkpt lat="38.14148853973359" lon="-1.1377679791971311"><ele>150.0</ele><time>2026-04-07T10:56:48Z</time></trkpt><trkpt lat="38.1413523583387" lon="-1.1377491432978537"><ele>150.0</ele><time>2026-04-07T10:56:49Z</time></trkpt><trkpt lat="38.14120730838108" lon="-1.137732428818248"><ele>149.5</ele><time>2026-04-07T10:56:50Z</time></trkpt><trkpt lat="38.14108036947354" lon="-1.137643854374915"><ele>149.0</ele><time>2026-04-07T10:56:51Z</time></trkpt><trkpt lat="38.140952538754334" lon="-1.1375875530233843"><ele>148.5</ele><time>2026-04-07T10:56:52Z</time></trkpt><trkpt lat="38.14084111642761" lon="-1.1375108077742777"><ele>148.0</ele><time>2026-04-07T10:56:53Z</time></trkpt><trkpt lat="38.14073317301906" lon="-1.1374466601739281"><ele>147.8</ele><time>2026-04-07T10:56:54Z</time></trkpt><trkpt lat="38.140627698781834" lon="-1.1373923468528855"><ele>147.60000000000002</ele><time>2026-04-07T10:56:55Z</time></trkpt><trkpt lat="38.14053016441145" lon="-1.1373338352197189"><ele>147.39999999999998</ele><time>2026-04-07T10:56:56Z</time></trkpt><trkpt lat="38.14042600804958" lon="-1.1373155095298553"><ele>147.2</ele><time>2026-04-07T10:56:57Z</time></trkpt><trkpt lat="38.1403208938129" lon="-1.1373090714400989"><ele>147.0</ele><time>2026-04-07T10:56:58Z</time></trkpt><trkpt lat="38.140215291272874" lon="-1.137293890201618"><ele>147.0</ele><time>2026-04-07T10:56:59Z</time></trkpt><trkpt lat="38.14011771741418" lon="-1.1372766555076834"><ele>147.0</ele><time>2026-04-07T10:57:00Z</time></trkpt><trkpt lat="38.14002102066102" lon="-1.1372196402981152"><ele>147.0</ele><time>2026-04-07T10:57:01Z</time></trkpt><trkpt lat="38.13992990331747" lon="-1.1371100929698539"><ele>147.0</ele><time>2026-04-07T10:57:02Z</time></trkpt><trkpt lat="38.139829469192925" lon="-1.1369999174538532"><ele>146.0</ele><time>2026-04-07T10:57:03Z</time></trkpt><trkpt lat="38.139714112078245" lon="-1.1369018236480881"><ele>145.0</ele><time>2026-04-07T10:57:04Z</time></trkpt><trkpt lat="38.13959053606143" lon="-1.1368132369568413"><ele>144.0</ele><time>2026-04-07T10:57:05Z</time></trkpt><trkpt lat="38.13947505868253" lon="-1.13673527924357"><ele>143.0</ele><time>2026-04-07T10:57:06Z</time></trkpt><trkpt lat="38.13937009048708" lon="-1.1366572613165389"><ele>143.0</ele><time>2026-04-07T10:57:07Z</time></trkpt><trkpt lat="38.139266766918055" lon="-1.136588827226282"><ele>143.0</ele><time>2026-04-07T10:57:08Z</time></trkpt><trkpt lat="38.139164824594" lon="-1.1365317218915743"><ele>143.0</ele><time>2026-04-07T10:57:09Z</time></trkpt><trkpt lat="38.139069204040034" lon="-1.1364872654140294"><ele>143.0</ele><time>2026-04-07T10:57:10Z</time></trkpt><trkpt lat="38.13897663201873" lon="-1.1364395342942777"><ele>143.0</ele><time>2026-04-07T10:57:11Z</time></trkpt><trkpt lat="38.13888672337457" lon="-1.1363569867581345"><ele>143.33333333333331</ele><time>2026-04-07T10:57:12Z</time></trkpt><trkpt lat="38.13881160094267" lon="-1.1362726937698486"><ele>143.66666666666666</ele><time>2026-04-07T10:57:13Z</time></trkpt><trkpt lat="38.138753655222146" lon="-1.1361912428654113"><ele>144.0</ele><time>2026-04-07T10:57:14Z</time></trkpt><trkpt lat="38.13868942848573" lon="-1.1361288844417512"><ele>144.33333333333334</ele><time>2026-04-07T10:57:15Z</time></trkpt><trkpt lat="38.13862106500249" lon="-1.1360851951459126"><ele>144.66666666666669</ele><time>2026-04-07T10:57:16Z</time></trkpt><trkpt lat="38.13854237771319" lon="-1.136027130441994"><ele>145.0</ele><time>2026-04-07T10:57:17Z</time></trkpt><trkpt lat="38.13843583623578" lon="-1.1360334384745687"><ele>145.0</ele><time>2026-04-07T10:57:18Z</time></trkpt><trkpt lat="38.13836370759734" lon="-1.1360201821752063"><ele>145.0</ele><time>2026-04-07T10:57:19Z</time></trkpt><trkpt lat="38.13829259683408" lon="-1.1360259332882017"><ele>145.0</ele><time>2026-04-07T10:57:20Z</time></trkpt><trkpt lat="38.13816276650963" lon="-1.1360209553745688"><ele>145.0</ele><time>2026-04-07T10:57:22Z</time></trkpt><trkpt lat="38.138033567056645" lon="-1.136026674836036"><ele>145.0</ele><time>2026-04-07T10:57:24Z</time></trkpt><trkpt lat="38.1379683917241" lon="-1.1360409991086682"><ele>144.5</ele><time>2026-04-07T10:57:25Z</time></trkpt><trkpt lat="38.13790527862711" lon="-1.136059314081101"><ele>144.0</ele><time>2026-04-07T10:57:26Z</time></trkpt><trkpt lat="38.13783914950356" lon="-1.1361303787638783"><ele>143.5</ele><time>2026-04-07T10:57:27Z</time></trkpt><trkpt lat="38.13776040794941" lon="-1.1361367847020576"><ele>143.0</ele><time>2026-04-07T10:57:28Z</time></trkpt><trkpt lat="38.13768909194323" lon="-1.1361005960404005"><ele>142.5</ele><time>2026-04-07T10:57:29Z</time></trkpt><trkpt lat="38.137614809806166" lon="-1.1360757740617358"><ele>142.0</ele><time>2026-04-07T10:57:30Z</time></trkpt><trkpt lat="38.13754290471963" lon="-1.1360200059220087"><ele>142.0</ele><time>2026-04-07T10:57:31Z</time></trkpt><trkpt lat="38.13747568110793" lon="-1.1359595035698786"><ele>142.0</ele><time>2026-04-07T10:57:32Z</time></trkpt><trkpt lat="38.13741128354435" lon="-1.1358978339699026"><ele>142.0</ele><time>2026-04-07T10:57:33Z</time></trkpt><trkpt lat="38.137349927802425" lon="-1.1358333736367117"><ele>142.0</ele><time>2026-04-07T10:57:34Z</time></trkpt><trkpt lat="38.13730818391781" lon="-1.1357591469782808"><ele>142.0</ele><time>2026-04-07T10:57:35Z</time></trkpt><trkpt lat="38.13725105999093" lon="-1.1357188737713069"><ele>142.0</ele><time>2026-04-07T10:57:36Z</time></trkpt><trkpt lat="38.13720020280253" lon="-1.1356375576995164"><ele>142.0</ele><time>2026-04-07T10:57:38Z</time></trkpt><trkpt lat="38.137077495286256" lon="-1.135601249969519"><ele>142.0</ele><time>2026-04-07T10:57:40Z</time></trkpt><trkpt lat="38.13700566361572" lon="-1.1356769729132592"><ele>142.0</ele><time>2026-04-07T10:57:42Z</time></trkpt><trkpt lat="38.136906842863795" lon="-1.13583924406423"><ele>142.0</ele><time>2026-04-07T10:57:44Z</time></trkpt><trkpt lat="38.13683107784124" lon="-1.1359022238378096"><ele>141.4</ele><time>2026-04-07T10:57:45Z</time></trkpt><trkpt lat="38.136734003304745" lon="-1.1359725314276024"><ele>140.79999999999998</ele><time>2026-04-07T10:57:46Z</time></trkpt><trkpt lat="38.136638709592425" lon="-1.1360390797701143"><ele>140.2</ele><time>2026-04-07T10:57:47Z</time></trkpt><trkpt lat="38.13656096857677" lon="-1.136109859517292"><ele>139.6</ele><time>2026-04-07T10:57:48Z</time></trkpt><trkpt lat="38.136501124711444" lon="-1.136189920797241"><ele>139.0</ele><time>2026-04-07T10:57:49Z</time></trkpt><trkpt lat="38.136453771595484" lon="-1.1362724083272429"><ele>138.5</ele><time>2026-04-07T10:57:50Z</time></trkpt><trkpt lat="38.13642402941743" lon="-1.1363507746606862"><ele>138.0</ele><time>2026-04-07T10:57:51Z</time></trkpt><trkpt lat="38.13640389065879" lon="-1.1364436836096095"><ele>137.5</ele><time>2026-04-07T10:57:52Z</time></trkpt><trkpt lat="38.13639874055712" lon="-1.1365564951464522"><ele>137.0</ele><time>2026-04-07T10:57:53Z</time></trkpt><trkpt lat="38.13640197630732" lon="-1.1366675884724105"><ele>136.5</ele><time>2026-04-07T10:57:54Z</time></trkpt><trkpt lat="38.13640969147951" lon="-1.1367630409652016"><ele>136.0</ele><time>2026-04-07T10:57:55Z</time></trkpt><trkpt lat="38.13641903649806" lon="-1.136844582163205"><ele>135.4</ele><time>2026-04-07T10:57:56Z</time></trkpt><trkpt lat="38.13643031193442" lon="-1.136974437913072"><ele>134.8</ele><time>2026-04-07T10:57:58Z</time></trkpt><trkpt lat="38.13642076702508" lon="-1.1370912901378123"><ele>134.20000000000002</ele><time>2026-04-07T10:58:00Z</time></trkpt><trkpt lat="38.136353778981636" lon="-1.137170787237573"><ele>133.6</ele><time>2026-04-07T10:58:02Z</time></trkpt><trkpt lat="38.136289479878315" lon="-1.1371674819388153"><ele>133.0</ele><time>2026-04-07T10:58:04Z</time></trkpt><trkpt lat="38.136205338452115" lon="-1.1370868626035526"><ele>133.0</ele><time>2026-04-07T10:58:06Z</time></trkpt><trkpt lat="38.13615253662568" lon="-1.1370205271279956"><ele>133.0</ele><time>2026-04-07T10:58:07Z</time></trkpt><trkpt lat="38.136087800563445" lon="-1.1369670077899827"><ele>133.0</ele><time>2026-04-07T10:58:08Z</time></trkpt><trkpt lat="38.13602555421787" lon="-1.1369129221470746"><ele>133.0</ele><time>2026-04-07T10:58:09Z</time></trkpt><trkpt lat="38.13596681011901" lon="-1.136864233050554"><ele>133.0</ele><time>2026-04-07T10:58:10Z</time></trkpt><trkpt lat="38.13590848769844" lon="-1.1368207679132143"><ele>133.0</ele><time>2026-04-07T10:58:11Z</time></trkpt><trkpt lat="38.13584838045074" lon="-1.136774694742597"><ele>133.0</ele><time>2026-04-07T10:58:12Z</time></trkpt><trkpt lat="38.135787632503664" lon="-1.1367252066445834"><ele>133.0</ele><time>2026-04-07T10:58:13Z</time></trkpt><trkpt lat="38.13572800960262" lon="-1.1366764722704763"><ele>133.0</ele><time>2026-04-07T10:58:14Z</time></trkpt><trkpt lat="38.13566379568198" lon="-1.136623001113658"><ele>133.0</ele><time>2026-04-07T10:58:15Z</time></trkpt><trkpt lat="38.1355620563933" lon="-1.1366235987917928"><ele>133.0</ele><time>2026-04-07T10:58:16Z</time></trkpt><trkpt lat="38.13553535877167" lon="-1.1365308021602858"><ele>133.0</ele><time>2026-04-07T10:58:17Z</time></trkpt><trkpt lat="38.13547351532381" lon="-1.1364932405855808"><ele>133.0</ele><time>2026-04-07T10:58:18Z</time></trkpt><trkpt lat="38.13539863716167" lon="-1.1364753056579209"><ele>132.66666666666669</ele><time>2026-04-07T10:58:19Z</time></trkpt><trkpt lat="38.1353165790546" lon="-1.1364256593794597"><ele>132.33333333333334</ele><time>2026-04-07T10:58:20Z</time></trkpt><trkpt lat="38.13525557970957" lon="-1.1363762305934926"><ele>132.0</ele><time>2026-04-07T10:58:21Z</time></trkpt><trkpt lat="38.13522595905944" lon="-1.1362765134613209"><ele>131.66666666666666</ele><time>2026-04-07T10:58:22Z</time></trkpt><trkpt lat="38.13515878956158" lon="-1.1362326681946098"><ele>131.33333333333331</ele><time>2026-04-07T10:58:23Z</time></trkpt><trkpt lat="38.135087228449194" lon="-1.1361867996889534"><ele>131.0</ele><time>2026-04-07T10:58:24Z</time></trkpt><trkpt lat="38.13500358072596" lon="-1.1361245030481222"><ele>131.0</ele><time>2026-04-07T10:58:25Z</time></trkpt><trkpt lat="38.134919619700185" lon="-1.1360405758230392"><ele>131.0</ele><time>2026-04-07T10:58:26Z</time></trkpt><trkpt lat="38.134834844711094" lon="-1.1360033368071958"><ele>131.0</ele><time>2026-04-07T10:58:27Z</time></trkpt><trkpt lat="38.13476484996946" lon="-1.1359543365373101"><ele>131.0</ele><time>2026-04-07T10:58:28Z</time></trkpt><trkpt lat="38.134697652483986" lon="-1.1359209576804634"><ele>131.0</ele><time>2026-04-07T10:58:29Z</time></trkpt><trkpt lat="38.134631486725354" lon="-1.1359057734153768"><ele>131.0</ele><time>2026-04-07T10:58:30Z</time></trkpt><trkpt lat="38.13456224718029" lon="-1.1359282607670171"><ele>130.16666666666666</ele><time>2026-04-07T10:58:31Z</time></trkpt><trkpt lat="38.134479077864626" lon="-1.1359445774874681"><ele>129.33333333333331</ele><time>2026-04-07T10:58:32Z</time></trkpt><trkpt lat="38.134396459541286" lon="-1.135935526616994"><ele>128.5</ele><time>2026-04-07T10:58:33Z</time></trkpt><trkpt lat="38.13432959966439" lon="-1.135933125275913"><ele>127.66666666666666</ele><time>2026-04-07T10:58:34Z</time></trkpt><trkpt lat="38.134267072416804" lon="-1.1359103360435048"><ele>126.83333333333333</ele><time>2026-04-07T10:58:35Z</time></trkpt><trkpt lat="38.134141520556135" lon="-1.1358630875410853"><ele>126.0</ele><time>2026-04-07T10:58:37Z</time></trkpt><trkpt lat="38.13407232497303" lon="-1.135852019781518"><ele>126.0</ele><time>2026-04-07T10:58:38Z</time></trkpt><trkpt lat="38.13400665075502" lon="-1.135839858491343"><ele>126.0</ele><time>2026-04-07T10:58:39Z</time></trkpt><trkpt lat="38.133890412644476" lon="-1.135785522901765"><ele>126.0</ele><time>2026-04-07T10:58:41Z</time></trkpt><trkpt lat="38.13377754342474" lon="-1.1357257914996262"><ele>126.0</ele><time>2026-04-07T10:58:43Z</time></trkpt><trkpt lat="38.13368749508031" lon="-1.1356822766129873"><ele>126.0</ele><time>2026-04-07T10:58:45Z</time></trkpt><trkpt lat="38.13361641881447" lon="-1.1356294246349836"><ele>125.83333333333333</ele><time>2026-04-07T10:58:47Z</time></trkpt><trkpt lat="38.1335289694811" lon="-1.135562117840606"><ele>125.66666666666666</ele><time>2026-04-07T10:58:49Z</time></trkpt><trkpt lat="38.13344822827327" lon="-1.1355166509359114"><ele>125.5</ele><time>2026-04-07T10:58:51Z</time></trkpt><trkpt lat="38.133384500613055" lon="-1.1354812543124344"><ele>125.33333333333333</ele><time>2026-04-07T10:58:53Z</time></trkpt><trkpt lat="38.13330525019622" lon="-1.1354406558016208"><ele>125.16666666666666</ele><time>2026-04-07T10:58:55Z</time></trkpt><trkpt lat="38.13324106031222" lon="-1.1353908534346702"><ele>125.0</ele><time>2026-04-07T10:58:58Z</time></trkpt><trkpt lat="38.133190119482784" lon="-1.1353406871072813"><ele>124.83333333333333</ele><time>2026-04-07T10:59:00Z</time></trkpt><trkpt lat="38.1331174375371" lon="-1.1353097034076705"><ele>124.66666666666666</ele><time>2026-04-07T10:59:14Z</time></trkpt><trkpt lat="38.133046277915895" lon="-1.1353154745983187"><ele>124.5</ele><time>2026-04-07T10:59:27Z</time></trkpt><trkpt lat="38.13301053909439" lon="-1.1352192508081635"><ele>124.33333333333334</ele><time>2026-04-07T10:59:38Z</time></trkpt><trkpt lat="38.13294674387636" lon="-1.1352087588392223"><ele>124.16666666666667</ele><time>2026-04-07T10:59:40Z</time></trkpt><trkpt lat="38.13284437292661" lon="-1.1352697445981683"><ele>124.0</ele><time>2026-04-07T10:59:42Z</time></trkpt><trkpt lat="38.1327738691616" lon="-1.1353012477894824"><ele>124.0</ele><time>2026-04-07T10:59:43Z</time></trkpt><trkpt lat="38.13268865718046" lon="-1.1353562019927392"><ele>124.0</ele><time>2026-04-07T10:59:44Z</time></trkpt><trkpt lat="38.1325931500979" lon="-1.1354373611130109"><ele>124.0</ele><time>2026-04-07T10:59:45Z</time></trkpt><trkpt lat="38.13250919236594" lon="-1.1355362956130939"><ele>124.0</ele><time>2026-04-07T10:59:46Z</time></trkpt><trkpt lat="38.13243744746252" lon="-1.135638514605456"><ele>124.0</ele><time>2026-04-07T10:59:47Z</time></trkpt><trkpt lat="38.132366332205706" lon="-1.1357517040424951"><ele>123.25</ele><time>2026-04-07T10:59:48Z</time></trkpt><trkpt lat="38.13229831432049" lon="-1.1358736606296667"><ele>122.5</ele><time>2026-04-07T10:59:49Z</time></trkpt><trkpt lat="38.132240439291046" lon="-1.136002109056719"><ele>121.75</ele><time>2026-04-07T10:59:50Z</time></trkpt><trkpt lat="38.132193728127795" lon="-1.1361428400582914"><ele>121.0</ele><time>2026-04-07T10:59:51Z</time></trkpt><trkpt lat="38.13214782522807" lon="-1.1362901380201067"><ele>121.0</ele><time>2026-04-07T10:59:52Z</time></trkpt><trkpt lat="38.132102714692046" lon="-1.1364397369554977"><ele>121.0</ele><time>2026-04-07T10:59:53Z</time></trkpt><trkpt lat="38.13205994188439" lon="-1.1365842925334002"><ele>121.0</ele><time>2026-04-07T10:59:54Z</time></trkpt><trkpt lat="38.132016586229085" lon="-1.1367106678526204"><ele>121.0</ele><time>2026-04-07T10:59:55Z</time></trkpt><trkpt lat="38.13197882127847" lon="-1.1368280244020312"><ele>121.50000000000001</ele><time>2026-04-07T10:59:56Z</time></trkpt><trkpt lat="38.13194088704437" lon="-1.1369401791342213"><ele>122.0</ele><time>2026-04-07T10:59:57Z</time></trkpt><trkpt lat="38.131906606673326" lon="-1.1370397986046183"><ele>122.5</ele><time>2026-04-07T10:59:58Z</time></trkpt><trkpt lat="38.131869061145224" lon="-1.13711009761723"><ele>123.0</ele><time>2026-04-07T10:59:59Z</time></trkpt><trkpt lat="38.13182438571624" lon="-1.1371745527374026"><ele>123.50000000000001</ele><time>2026-04-07T11:00:00Z</time></trkpt><trkpt lat="38.13173615206002" lon="-1.137270050016783"><ele>124.0</ele><time>2026-04-07T11:00:02Z</time></trkpt><trkpt lat="38.13161939562953" lon="-1.1372279326990449"><ele>124.2</ele><time>2026-04-07T11:00:04Z</time></trkpt><trkpt lat="38.13155077356913" lon="-1.137143463284523"><ele>124.4</ele><time>2026-04-07T11:00:05Z</time></trkpt><trkpt lat="38.13145434891818" lon="-1.1370375087462883"><ele>124.6</ele><time>2026-04-07T11:00:06Z</time></trkpt><trkpt lat="38.13137181878553" lon="-1.136946993970934"><ele>124.8</ele><time>2026-04-07T11:00:07Z</time></trkpt><trkpt lat="38.131299531223355" lon="-1.1368682077418857"><ele>125.0</ele><time>2026-04-07T11:00:08Z</time></trkpt><trkpt lat="38.13122620064662" lon="-1.1367956312700258"><ele>125.0</ele><time>2026-04-07T11:00:09Z</time></trkpt><trkpt lat="38.131146897322814" lon="-1.1367111721391143"><ele>125.0</ele><time>2026-04-07T11:00:10Z</time></trkpt><trkpt lat="38.13105120830623" lon="-1.1366489917127698"><ele>125.0</ele><time>2026-04-07T11:00:11Z</time></trkpt><trkpt lat="38.130932360389636" lon="-1.1365949273929696"><ele>125.0</ele><time>2026-04-07T11:00:12Z</time></trkpt><trkpt lat="38.13082254954243" lon="-1.1365459649017884"><ele>124.6</ele><time>2026-04-07T11:00:13Z</time></trkpt><trkpt lat="38.13071305314797" lon="-1.136489864696878"><ele>124.2</ele><time>2026-04-07T11:00:14Z</time></trkpt><trkpt lat="38.13059557419408" lon="-1.1364366389582936"><ele>123.80000000000001</ele><time>2026-04-07T11:00:15Z</time></trkpt><trkpt lat="38.13049921840404" lon="-1.1363943482494725"><ele>123.4</ele><time>2026-04-07T11:00:16Z</time></trkpt><trkpt lat="38.1304043206276" lon="-1.1363682468645262"><ele>123.0</ele><time>2026-04-07T11:00:17Z</time></trkpt><trkpt lat="38.13030877616717" lon="-1.1363506324387695"><ele>123.0</ele><time>2026-04-07T11:00:18Z</time></trkpt><trkpt lat="38.13022585563847" lon="-1.1363485097899861"><ele>123.0</ele><time>2026-04-07T11:00:19Z</time></trkpt><trkpt lat="38.13013792325719" lon="-1.1363538141345315"><ele>123.0</ele><time>2026-04-07T11:00:20Z</time></trkpt><trkpt lat="38.13005854982695" lon="-1.1363572102417994"><ele>123.0</ele><time>2026-04-07T11:00:21Z</time></trkpt><trkpt lat="38.129995150307856" lon="-1.136359863097676"><ele>123.0</ele><time>2026-04-07T11:00:22Z</time></trkpt><trkpt lat="38.12990851795925" lon="-1.1363599232767632"><ele>123.0</ele><time>2026-04-07T11:00:24Z</time></trkpt><trkpt lat="38.12980956633227" lon="-1.1363390259186406"><ele>122.80000000000001</ele><time>2026-04-07T11:00:26Z</time></trkpt><trkpt lat="38.129736056765054" lon="-1.1363154542045872"><ele>122.60000000000001</ele><time>2026-04-07T11:00:29Z</time></trkpt><trkpt lat="38.129680528360225" lon="-1.136520104905735"><ele>122.39999999999999</ele><time>2026-04-07T11:00:33Z</time></trkpt><trkpt lat="38.129667546075034" lon="-1.1366060128803583"><ele>122.19999999999999</ele><time>2026-04-07T11:00:34Z</time></trkpt><trkpt lat="38.12964621748606" lon="-1.13670657508687"><ele>122.0</ele><time>2026-04-07T11:00:35Z</time></trkpt><trkpt lat="38.12962755686457" lon="-1.1368238984541592"><ele>122.0</ele><time>2026-04-07T11:00:36Z</time></trkpt><trkpt lat="38.12961002787669" lon="-1.1369410604032373"><ele>121.99999999999999</ele><time>2026-04-07T11:00:37Z</time></trkpt><trkpt lat="38.12959023698292" lon="-1.1370660172251192"><ele>121.99999999999999</ele><time>2026-04-07T11:00:38Z</time></trkpt><trkpt lat="38.1295691417007" lon="-1.1371985062494525"><ele>122.0</ele><time>2026-04-07T11:00:39Z</time></trkpt><trkpt lat="38.12954704562956" lon="-1.1373285782806744"><ele>122.0</ele><time>2026-04-07T11:00:40Z</time></trkpt><trkpt lat="38.1295224755829" lon="-1.1374535264115515"><ele>122.39999999999999</ele><time>2026-04-07T11:00:41Z</time></trkpt><trkpt lat="38.12949953421255" lon="-1.1375817839747002"><ele>122.79999999999998</ele><time>2026-04-07T11:00:42Z</time></trkpt><trkpt lat="38.12948062444482" lon="-1.1377066435961052"><ele>123.2</ele><time>2026-04-07T11:00:43Z</time></trkpt><trkpt lat="38.12945913570161" lon="-1.1378335333388323"><ele>123.6</ele><time>2026-04-07T11:00:44Z</time></trkpt><trkpt lat="38.129436060355005" lon="-1.1379657999199477"><ele>124.0</ele><time>2026-04-07T11:00:45Z</time></trkpt><trkpt lat="38.129414958331004" lon="-1.138097921527179"><ele>124.80000000000001</ele><time>2026-04-07T11:00:46Z</time></trkpt><trkpt lat="38.12939501188139" lon="-1.138232753202957"><ele>125.60000000000001</ele><time>2026-04-07T11:00:47Z</time></trkpt><trkpt lat="38.129368696256655" lon="-1.1383624606930391"><ele>126.4</ele><time>2026-04-07T11:00:48Z</time></trkpt><trkpt lat="38.12933101582512" lon="-1.1384867561674634"><ele>127.2</ele><time>2026-04-07T11:00:49Z</time></trkpt><trkpt lat="38.12928317838711" lon="-1.1386052764733923"><ele>128.0</ele><time>2026-04-07T11:00:50Z</time></trkpt><trkpt lat="38.129224803914475" lon="-1.1387141287865343"><ele>128.0</ele><time>2026-04-07T11:00:51Z</time></trkpt><trkpt lat="38.129152500068635" lon="-1.1388105355155949"><ele>128.0</ele><time>2026-04-07T11:00:52Z</time></trkpt><trkpt lat="38.129071450400865" lon="-1.138897879382769"><ele>128.0</ele><time>2026-04-07T11:00:53Z</time></trkpt><trkpt lat="38.12898429124078" lon="-1.1389727666807148"><ele>128.0</ele><time>2026-04-07T11:00:54Z</time></trkpt><trkpt lat="38.12889562707504" lon="-1.1390548136462593"><ele>128.0</ele><time>2026-04-07T11:00:55Z</time></trkpt><trkpt lat="38.12879322433107" lon="-1.139102833715077"><ele>127.80000000000001</ele><time>2026-04-07T11:00:56Z</time></trkpt><trkpt lat="38.12868692492934" lon="-1.1391355464071424"><ele>127.60000000000001</ele><time>2026-04-07T11:00:57Z</time></trkpt><trkpt lat="38.128574462059085" lon="-1.1391466539620738"><ele>127.39999999999999</ele><time>2026-04-07T11:00:58Z</time></trkpt><trkpt lat="38.128464939214396" lon="-1.1391403101011799"><ele>127.19999999999999</ele><time>2026-04-07T11:00:59Z</time></trkpt><trkpt lat="38.128358028436715" lon="-1.1391231352158158"><ele>127.0</ele><time>2026-04-07T11:01:00Z</time></trkpt><trkpt lat="38.12825374963752" lon="-1.1391039850348068"><ele>127.0</ele><time>2026-04-07T11:01:01Z</time></trkpt><trkpt lat="38.12815084048217" lon="-1.1390813376067426"><ele>126.99999999999999</ele><time>2026-04-07T11:01:02Z</time></trkpt><trkpt lat="38.12804800102584" lon="-1.1390587055088586"><ele>126.99999999999999</ele><time>2026-04-07T11:01:03Z</time></trkpt><trkpt lat="38.12794910310008" lon="-1.1390185734367237"><ele>127.0</ele><time>2026-04-07T11:01:04Z</time></trkpt><trkpt lat="38.12784809831134" lon="-1.138998147633994"><ele>127.0</ele><time>2026-04-07T11:01:05Z</time></trkpt><trkpt lat="38.12774724742694" lon="-1.1389777042498779"><ele>127.0</ele><time>2026-04-07T11:01:06Z</time></trkpt><trkpt lat="38.12764531159268" lon="-1.1389750435856267"><ele>126.99999999999999</ele><time>2026-04-07T11:01:07Z</time></trkpt><trkpt lat="38.12754462379544" lon="-1.1389545391600426"><ele>126.99999999999999</ele><time>2026-04-07T11:01:08Z</time></trkpt><trkpt lat="38.12744656693922" lon="-1.1389129948251444"><ele>127.0</ele><time>2026-04-07T11:01:09Z</time></trkpt><trkpt lat="38.127342999738474" lon="-1.1388938961630404"><ele>127.0</ele><time>2026-04-07T11:01:10Z</time></trkpt><trkpt lat="38.12723992393596" lon="-1.1388683137256357"><ele>127.6</ele><time>2026-04-07T11:01:11Z</time></trkpt><trkpt lat="38.12713490028101" lon="-1.1388473467442488"><ele>128.2</ele><time>2026-04-07T11:01:12Z</time></trkpt><trkpt lat="38.12702983389447" lon="-1.1388300459831395"><ele>128.8</ele><time>2026-04-07T11:01:13Z</time></trkpt><trkpt lat="38.1269263806134" lon="-1.1388179089571293"><ele>129.4</ele><time>2026-04-07T11:01:14Z</time></trkpt><trkpt lat="38.12682248519474" lon="-1.1388173868017328"><ele>130.0</ele><time>2026-04-07T11:01:15Z</time></trkpt><trkpt lat="38.12671825331931" lon="-1.1388296031018244"><ele>130.0</ele><time>2026-04-07T11:01:16Z</time></trkpt><trkpt lat="38.12661673644442" lon="-1.1388540784701797"><ele>130.0</ele><time>2026-04-07T11:01:17Z</time></trkpt><trkpt lat="38.12651538291059" lon="-1.1388880176564602"><ele>130.0</ele><time>2026-04-07T11:01:18Z</time></trkpt><trkpt lat="38.12641890005067" lon="-1.1389303891438154"><ele>130.0</ele><time>2026-04-07T11:01:19Z</time></trkpt><trkpt lat="38.12632607046791" lon="-1.1389883097257878"><ele>130.0</ele><time>2026-04-07T11:01:20Z</time></trkpt><trkpt lat="38.12623794227917" lon="-1.1390574643136564"><ele>129.8</ele><time>2026-04-07T11:01:21Z</time></trkpt><trkpt lat="38.12615946123893" lon="-1.1391367550206601"><ele>129.6</ele><time>2026-04-07T11:01:22Z</time></trkpt><trkpt lat="38.12609166752307" lon="-1.1392304861267522"><ele>129.4</ele><time>2026-04-07T11:01:23Z</time></trkpt><trkpt lat="38.126029767525395" lon="-1.1393291983121754"><ele>129.2</ele><time>2026-04-07T11:01:24Z</time></trkpt><trkpt lat="38.12597185086359" lon="-1.1394332095683448"><ele>129.0</ele><time>2026-04-07T11:01:25Z</time></trkpt><trkpt lat="38.12591835055559" lon="-1.139543196111151"><ele>129.0</ele><time>2026-04-07T11:01:26Z</time></trkpt><trkpt lat="38.125871779958" lon="-1.139658906568766"><ele>129.0</ele><time>2026-04-07T11:01:27Z</time></trkpt><trkpt lat="38.12582964833754" lon="-1.1397814566376523"><ele>129.0</ele><time>2026-04-07T11:01:28Z</time></trkpt><trkpt lat="38.125787232134556" lon="-1.1399051602204733"><ele>129.0</ele><time>2026-04-07T11:01:29Z</time></trkpt><trkpt lat="38.125741814070494" lon="-1.140029321910513"><ele>129.0</ele><time>2026-04-07T11:01:30Z</time></trkpt><trkpt lat="38.12569332823391" lon="-1.140151990300136"><ele>128.4</ele><time>2026-04-07T11:01:31Z</time></trkpt><trkpt lat="38.12564624214819" lon="-1.1402739749204625"><ele>127.80000000000001</ele><time>2026-04-07T11:01:32Z</time></trkpt><trkpt lat="38.125599583848135" lon="-1.1403960191172091"><ele>127.19999999999999</ele><time>2026-04-07T11:01:33Z</time></trkpt><trkpt lat="38.12555254222539" lon="-1.1405171038642676"><ele>126.6</ele><time>2026-04-07T11:01:34Z</time></trkpt><trkpt lat="38.12550679765437" lon="-1.140636176550377"><ele>126.0</ele><time>2026-04-07T11:01:35Z</time></trkpt><trkpt lat="38.12546044700312" lon="-1.1407563295386596"><ele>126.0</ele><time>2026-04-07T11:01:36Z</time></trkpt><trkpt lat="38.1254127212351" lon="-1.1408727388800077"><ele>126.0</ele><time>2026-04-07T11:01:37Z</time></trkpt><trkpt lat="38.12536979920264" lon="-1.1409869716174115"><ele>126.0</ele><time>2026-04-07T11:01:38Z</time></trkpt><trkpt lat="38.12532444294845" lon="-1.141100642025562"><ele>126.0</ele><time>2026-04-07T11:01:39Z</time></trkpt><trkpt lat="38.12527993724652" lon="-1.1412160491084957"><ele>126.0</ele><time>2026-04-07T11:01:40Z</time></trkpt><trkpt lat="38.125234637772834" lon="-1.1413319332050473"><ele>126.0</ele><time>2026-04-07T11:01:41Z</time></trkpt><trkpt lat="38.12518773151429" lon="-1.1414480296321996"><ele>126.0</ele><time>2026-04-07T11:01:42Z</time></trkpt><trkpt lat="38.12514189458556" lon="-1.1415682223168184"><ele>126.0</ele><time>2026-04-07T11:01:43Z</time></trkpt><trkpt lat="38.12509708840543" lon="-1.14169134548763"><ele>126.0</ele><time>2026-04-07T11:01:44Z</time></trkpt><trkpt lat="38.125051916535135" lon="-1.1418159687373977"><ele>126.0</ele><time>2026-04-07T11:01:45Z</time></trkpt><trkpt lat="38.12500660846882" lon="-1.1419390404299359"><ele>126.0</ele><time>2026-04-07T11:01:46Z</time></trkpt><trkpt lat="38.12496094365837" lon="-1.1420547336584463"><ele>126.0</ele><time>2026-04-07T11:01:47Z</time></trkpt><trkpt lat="38.12491723490913" lon="-1.142164070329469"><ele>126.0</ele><time>2026-04-07T11:01:48Z</time></trkpt><trkpt lat="38.12487737665539" lon="-1.1422684335405233"><ele>126.0</ele><time>2026-04-07T11:01:49Z</time></trkpt><trkpt lat="38.12483889504694" lon="-1.1423678786612108"><ele>126.0</ele><time>2026-04-07T11:01:50Z</time></trkpt><trkpt lat="38.124800169340276" lon="-1.1424712020229508"><ele>126.16666666666667</ele><time>2026-04-07T11:01:51Z</time></trkpt><trkpt lat="38.12476561804275" lon="-1.142577532477075"><ele>126.33333333333334</ele><time>2026-04-07T11:01:52Z</time></trkpt><trkpt lat="38.12473744537017" lon="-1.1426784731503774"><ele>126.5</ele><time>2026-04-07T11:01:53Z</time></trkpt><trkpt lat="38.12471556306993" lon="-1.1427761858591758"><ele>126.66666666666667</ele><time>2026-04-07T11:01:54Z</time></trkpt><trkpt lat="38.12470729140067" lon="-1.1428723256154518"><ele>126.83333333333334</ele><time>2026-04-07T11:01:55Z</time></trkpt><trkpt lat="38.12470368807212" lon="-1.1429733778290332"><ele>127.0</ele><time>2026-04-07T11:01:56Z</time></trkpt><trkpt lat="38.12470328559609" lon="-1.1430863319973297"><ele>127.0</ele><time>2026-04-07T11:01:57Z</time></trkpt><trkpt lat="38.124707717034674" lon="-1.1432059480967738"><ele>126.99999999999999</ele><time>2026-04-07T11:01:58Z</time></trkpt><trkpt lat="38.124721814012524" lon="-1.1433346039814467"><ele>126.99999999999999</ele><time>2026-04-07T11:01:59Z</time></trkpt><trkpt lat="38.12474219354638" lon="-1.143473532254587"><ele>127.0</ele><time>2026-04-07T11:02:00Z</time></trkpt><trkpt lat="38.12476441720645" lon="-1.1436041912917745"><ele>127.0</ele><time>2026-04-07T11:02:01Z</time></trkpt><trkpt lat="38.12478711570054" lon="-1.1437373894089584"><ele>127.0</ele><time>2026-04-07T11:02:02Z</time></trkpt><trkpt lat="38.12480841029913" lon="-1.143875172588071"><ele>126.99999999999999</ele><time>2026-04-07T11:02:03Z</time></trkpt><trkpt lat="38.12482720608969" lon="-1.1440164406623161"><ele>126.99999999999999</ele><time>2026-04-07T11:02:04Z</time></trkpt><trkpt lat="38.12484555966668" lon="-1.1441562532283431"><ele>127.0</ele><time>2026-04-07T11:02:05Z</time></trkpt><trkpt lat="38.12486508520569" lon="-1.1442952464423168"><ele>127.0</ele><time>2026-04-07T11:02:06Z</time></trkpt><trkpt lat="38.124887422481216" lon="-1.144435956073918"><ele>128.0</ele><time>2026-04-07T11:02:07Z</time></trkpt><trkpt lat="38.12491024028741" lon="-1.1445728804670439"><ele>129.0</ele><time>2026-04-07T11:02:08Z</time></trkpt><trkpt lat="38.12492922142441" lon="-1.1447107325167893"><ele>130.0</ele><time>2026-04-07T11:02:09Z</time></trkpt><trkpt lat="38.124945332018825" lon="-1.1448504604885514"><ele>131.0</ele><time>2026-04-07T11:02:10Z</time></trkpt><trkpt lat="38.12495966829324" lon="-1.1449853906152336"><ele>132.0</ele><time>2026-04-07T11:02:11Z</time></trkpt><trkpt lat="38.124964459856564" lon="-1.1451251594750418"><ele>132.2</ele><time>2026-04-07T11:02:12Z</time></trkpt><trkpt lat="38.124952686016144" lon="-1.145265244956556"><ele>132.39999999999998</ele><time>2026-04-07T11:02:13Z</time></trkpt><trkpt lat="38.12492841394869" lon="-1.1454008762305203"><ele>132.60000000000002</ele><time>2026-04-07T11:02:14Z</time></trkpt><trkpt lat="38.12489195950913" lon="-1.1455326483656405"><ele>132.8</ele><time>2026-04-07T11:02:15Z</time></trkpt><trkpt lat="38.12484926177041" lon="-1.1456503738717552"><ele>133.0</ele><time>2026-04-07T11:02:16Z</time></trkpt><trkpt lat="38.12480255785129" lon="-1.14575596213134"><ele>133.33333333333334</ele><time>2026-04-07T11:02:17Z</time></trkpt><trkpt lat="38.12475418454356" lon="-1.145851435890389"><ele>133.66666666666669</ele><time>2026-04-07T11:02:18Z</time></trkpt><trkpt lat="38.12470876346492" lon="-1.1459371733210122"><ele>134.0</ele><time>2026-04-07T11:02:19Z</time></trkpt><trkpt lat="38.12466477358137" lon="-1.1460160820532765"><ele>134.33333333333334</ele><time>2026-04-07T11:02:20Z</time></trkpt><trkpt lat="38.124621751970885" lon="-1.1460923814122455"><ele>134.66666666666666</ele><time>2026-04-07T11:02:21Z</time></trkpt><trkpt lat="38.12457303435665" lon="-1.1461748424711309"><ele>135.0</ele><time>2026-04-07T11:02:22Z</time></trkpt><trkpt lat="38.124531414833804" lon="-1.1462518113575362"><ele>135.0</ele><time>2026-04-07T11:02:23Z</time></trkpt><trkpt lat="38.12447128267388" lon="-1.1463725794428337"><ele>135.0</ele><time>2026-04-07T11:02:25Z</time></trkpt><trkpt lat="38.12443932903775" lon="-1.1464645395121966"><ele>135.0</ele><time>2026-04-07T11:02:27Z</time></trkpt><trkpt lat="38.124358262677255" lon="-1.1465055075009754"><ele>135.0</ele><time>2026-04-07T11:02:32Z</time></trkpt><trkpt lat="38.1245457952061" lon="-1.1462245895392553"><ele>135.0</ele><time>2026-04-07T11:02:35Z</time></trkpt><trkpt lat="38.12450733987211" lon="-1.1460945077539368"><ele>135.0</ele><time>2026-04-07T11:02:38Z</time></trkpt><trkpt lat="38.12448402505387" lon="-1.146012184818759"><ele>135.0</ele><time>2026-04-07T11:02:39Z</time></trkpt><trkpt lat="38.12446209985698" lon="-1.1458904012777757"><ele>135.0</ele><time>2026-04-07T11:02:41Z</time></trkpt><trkpt lat="38.12442614735735" lon="-1.1457859746916252"><ele>135.0</ele><time>2026-04-07T11:02:44Z</time></trkpt><trkpt lat="38.12443679301215" lon="-1.1456886209215393"><ele>135.0</ele><time>2026-04-07T11:02:46Z</time></trkpt><trkpt lat="38.12443267777811" lon="-1.1456052946936144"><ele>134.16666666666666</ele><time>2026-04-07T11:02:48Z</time></trkpt><trkpt lat="38.12441044295313" lon="-1.145496681940448"><ele>133.33333333333334</ele><time>2026-04-07T11:02:50Z</time></trkpt><trkpt lat="38.124407743108144" lon="-1.1453985828486781"><ele>132.5</ele><time>2026-04-07T11:02:52Z</time></trkpt><trkpt lat="38.12437989539339" lon="-1.1452999857358939"><ele>131.66666666666669</ele><time>2026-04-07T11:02:55Z</time></trkpt><trkpt lat="38.124361287342744" lon="-1.1451996190081477"><ele>130.83333333333334</ele><time>2026-04-07T11:02:58Z</time></trkpt><trkpt lat="38.12436083202389" lon="-1.1450973367122812"><ele>130.0</ele><time>2026-04-07T11:03:01Z</time></trkpt><trkpt lat="38.124345092015005" lon="-1.1450103162296066"><ele>130.00000000000003</ele><time>2026-04-07T11:03:04Z</time></trkpt><trkpt lat="38.12435941464275" lon="-1.145105307940695"><ele>130.0</ele><time>2026-04-07T11:03:23Z</time></trkpt><trkpt lat="38.12428955269051" lon="-1.1451181838715707"><ele>130.0</ele><time>2026-04-07T11:03:31Z</time></trkpt><trkpt lat="38.12425950055824" lon="-1.1450260776069423"><ele>130.0</ele><time>2026-04-07T11:03:36Z</time></trkpt><trkpt lat="38.12423489275021" lon="-1.1449113899047134"><ele>130.0</ele><time>2026-04-07T11:03:40Z</time></trkpt><trkpt lat="38.12420142826642" lon="-1.144842422951448"><ele>130.00000000000003</ele><time>2026-04-07T11:03:47Z</time></trkpt><trkpt lat="38.12420138597927" lon="-1.1447593720360143"><ele>130.0</ele><time>2026-04-07T11:04:33Z</time></trkpt><trkpt lat="38.124188880016796" lon="-1.1448389865417383"><ele>130.0</ele><time>2026-04-07T11:05:22Z</time></trkpt><trkpt lat="38.12422631143791" lon="-1.1449235898434211"><ele>130.0</ele><time>2026-04-07T11:05:25Z</time></trkpt><trkpt lat="38.12424724828058" lon="-1.145019373269414"><ele>130.0</ele><time>2026-04-07T11:05:28Z</time></trkpt><trkpt lat="38.12428437147719" lon="-1.145091387484834"><ele>130.0</ele><time>2026-04-07T11:05:33Z</time></trkpt><trkpt lat="38.1243355025632" lon="-1.1451651012849018"><ele>130.0</ele><time>2026-04-07T11:05:38Z</time></trkpt><trkpt lat="38.124375297328086" lon="-1.1452681528243913"><ele>130.0</ele><time>2026-04-07T11:05:40Z</time></trkpt><trkpt lat="38.12440042517112" lon="-1.1453810603441257"><ele>130.0</ele><time>2026-04-07T11:05:42Z</time></trkpt><trkpt lat="38.12443129555091" lon="-1.1454810075304005"><ele>130.0</ele><time>2026-04-07T11:05:44Z</time></trkpt><trkpt lat="38.124447030193146" lon="-1.1455652638499703"><ele>130.0</ele><time>2026-04-07T11:05:46Z</time></trkpt><trkpt lat="38.12445548971197" lon="-1.1456484341780195"><ele>130.0</ele><time>2026-04-07T11:05:48Z</time></trkpt><trkpt lat="38.124439546903766" lon="-1.1457523986348088"><ele>130.0</ele><time>2026-04-07T11:05:50Z</time></trkpt><trkpt lat="38.12443000668452" lon="-1.1458492081002825"><ele>130.0</ele><time>2026-04-07T11:05:52Z</time></trkpt><trkpt lat="38.12447567158718" lon="-1.1459388816466969"><ele>131.25</ele><time>2026-04-07T11:05:54Z</time></trkpt><trkpt lat="38.124493598069975" lon="-1.1460210550730494"><ele>132.5</ele><time>2026-04-07T11:05:56Z</time></trkpt><trkpt lat="38.124522571935266" lon="-1.1461354240686596"><ele>133.75</ele><time>2026-04-07T11:05:58Z</time></trkpt><trkpt lat="38.1245237374468" lon="-1.1463418619924062"><ele>135.0</ele><time>2026-04-07T11:06:02Z</time></trkpt><trkpt lat="38.124449014706656" lon="-1.1464720947572782"><ele>135.0</ele><time>2026-04-07T11:06:04Z</time></trkpt><trkpt lat="38.12439663889495" lon="-1.1465366691274583"><ele>135.0</ele><time>2026-04-07T11:06:06Z</time></trkpt><trkpt lat="38.1243639311732" lon="-1.1466125479520382"><ele>135.0</ele><time>2026-04-07T11:06:10Z</time></trkpt><trkpt lat="38.12440246895469" lon="-1.1467065358611708"><ele>135.0</ele><time>2026-04-07T11:06:12Z</time></trkpt><trkpt lat="38.12450747678182" lon="-1.1467822490449004"><ele>135.0</ele><time>2026-04-07T11:06:14Z</time></trkpt><trkpt lat="38.12457250930253" lon="-1.146832417863367"><ele>135.0</ele><time>2026-04-07T11:06:15Z</time></trkpt><trkpt lat="38.12462612557288" lon="-1.1469009639078875"><ele>135.2</ele><time>2026-04-07T11:06:16Z</time></trkpt><trkpt lat="38.124657229871374" lon="-1.1469887079705947"><ele>135.4</ele><time>2026-04-07T11:06:17Z</time></trkpt><trkpt lat="38.1246663435837" lon="-1.1470961065031304"><ele>135.6</ele><time>2026-04-07T11:06:18Z</time></trkpt><trkpt lat="38.12464225768659" lon="-1.1472025724962172"><ele>135.8</ele><time>2026-04-07T11:06:19Z</time></trkpt><trkpt lat="38.12446328450433" lon="-1.147269186575113"><ele>136.0</ele><time>2026-04-07T11:06:20Z</time></trkpt><trkpt lat="38.12438422124126" lon="-1.1474180765880393"><ele>136.0</ele><time>2026-04-07T11:06:22Z</time></trkpt><trkpt lat="38.124317080233354" lon="-1.1475175078519866"><ele>136.0</ele><time>2026-04-07T11:06:23Z</time></trkpt><trkpt lat="38.12425769863101" lon="-1.1476223251901791"><ele>136.0</ele><time>2026-04-07T11:06:24Z</time></trkpt><trkpt lat="38.12420179168618" lon="-1.1477439177572792"><ele>136.0</ele><time>2026-04-07T11:06:25Z</time></trkpt><trkpt lat="38.1241544211771" lon="-1.1478742278334177"><ele>136.0</ele><time>2026-04-07T11:06:26Z</time></trkpt><trkpt lat="38.12410566955617" lon="-1.148005847354626"><ele>136.75</ele><time>2026-04-07T11:06:27Z</time></trkpt><trkpt lat="38.12404944231225" lon="-1.1481299551778639"><ele>137.5</ele><time>2026-04-07T11:06:28Z</time></trkpt><trkpt lat="38.12399434206021" lon="-1.148255057973424"><ele>138.25</ele><time>2026-04-07T11:06:29Z</time></trkpt><trkpt lat="38.12394760946933" lon="-1.148394628349152"><ele>139.0</ele><time>2026-04-07T11:06:30Z</time></trkpt><trkpt lat="38.12389836141014" lon="-1.1485291458326987"><ele>139.0</ele><time>2026-04-07T11:06:31Z</time></trkpt><trkpt lat="38.12384222169498" lon="-1.1486641164707119"><ele>139.0</ele><time>2026-04-07T11:06:32Z</time></trkpt><trkpt lat="38.123784949797525" lon="-1.148795877098724"><ele>139.0</ele><time>2026-04-07T11:06:33Z</time></trkpt><trkpt lat="38.1237294401257" lon="-1.1489299488218188"><ele>139.0</ele><time>2026-04-07T11:06:34Z</time></trkpt><trkpt lat="38.12367648218102" lon="-1.149062613126831"><ele>139.4</ele><time>2026-04-07T11:06:35Z</time></trkpt><trkpt lat="38.12361999426063" lon="-1.1491955184338558"><ele>139.8</ele><time>2026-04-07T11:06:36Z</time></trkpt><trkpt lat="38.12357231475875" lon="-1.1493255828899083"><ele>140.2</ele><time>2026-04-07T11:06:37Z</time></trkpt><trkpt lat="38.12353115207234" lon="-1.1494503514612384"><ele>140.6</ele><time>2026-04-07T11:06:38Z</time></trkpt><trkpt lat="38.123491341841486" lon="-1.149566802730256"><ele>141.0</ele><time>2026-04-07T11:06:39Z</time></trkpt><trkpt lat="38.123455843315575" lon="-1.14966231987035"><ele>141.0</ele><time>2026-04-07T11:06:40Z</time></trkpt><trkpt lat="38.123425572419194" lon="-1.149757414685448"><ele>141.0</ele><time>2026-04-07T11:06:41Z</time></trkpt><trkpt lat="38.123405406021774" lon="-1.1498483343829833"><ele>141.0</ele><time>2026-04-07T11:06:42Z</time></trkpt><trkpt lat="38.12339752852958" lon="-1.1499499370427466"><ele>141.0</ele><time>2026-04-07T11:06:43Z</time></trkpt><trkpt lat="38.12339320301786" lon="-1.1500518054177915"><ele>141.0</ele><time>2026-04-07T11:06:44Z</time></trkpt><trkpt lat="38.12339038804196" lon="-1.1501591901044068"><ele>141.0</ele><time>2026-04-07T11:06:45Z</time></trkpt><trkpt lat="38.12338494308075" lon="-1.1502820784534382"><ele>142.4</ele><time>2026-04-07T11:06:46Z</time></trkpt><trkpt lat="38.12338322572366" lon="-1.1503963214160597"><ele>143.8</ele><time>2026-04-07T11:06:47Z</time></trkpt><trkpt lat="38.123376961973186" lon="-1.150532099126259"><ele>145.20000000000002</ele><time>2026-04-07T11:06:48Z</time></trkpt><trkpt lat="38.12337301454631" lon="-1.1506613904022036"><ele>146.6</ele><time>2026-04-07T11:06:49Z</time></trkpt><trkpt lat="38.1233676533377" lon="-1.1507781373752726"><ele>148.0</ele><time>2026-04-07T11:06:50Z</time></trkpt><trkpt lat="38.12336416696217" lon="-1.150888171761729"><ele>148.5</ele><time>2026-04-07T11:06:51Z</time></trkpt><trkpt lat="38.123361152406936" lon="-1.1510191960744256"><ele>149.0</ele><time>2026-04-07T11:06:52Z</time></trkpt><trkpt lat="38.123358246889985" lon="-1.1511471648239724"><ele>149.5</ele><time>2026-04-07T11:06:53Z</time></trkpt><trkpt lat="38.12335171914797" lon="-1.1512614346188856"><ele>150.0</ele><time>2026-04-07T11:06:54Z</time></trkpt><trkpt lat="38.123350075860195" lon="-1.151363111135561"><ele>150.5</ele><time>2026-04-07T11:06:55Z</time></trkpt><trkpt lat="38.123351992397744" lon="-1.1514458511511048"><ele>151.0</ele><time>2026-04-07T11:06:56Z</time></trkpt><trkpt lat="38.1233477029254" lon="-1.1515330837501179"><ele>150.83333333333334</ele><time>2026-04-07T11:06:57Z</time></trkpt><trkpt lat="38.12333542368959" lon="-1.1516854223468873"><ele>150.66666666666669</ele><time>2026-04-07T11:06:59Z</time></trkpt><trkpt lat="38.123330843572816" lon="-1.151771974896176"><ele>150.5</ele><time>2026-04-07T11:07:00Z</time></trkpt><trkpt lat="38.12333202132436" lon="-1.1518698547876662"><ele>150.33333333333334</ele><time>2026-04-07T11:07:01Z</time></trkpt><trkpt lat="38.12333240652993" lon="-1.1519840706824835"><ele>150.16666666666666</ele><time>2026-04-07T11:07:02Z</time></trkpt><trkpt lat="38.123326884203465" lon="-1.1520860536667947"><ele>150.0</ele><time>2026-04-07T11:07:03Z</time></trkpt><trkpt lat="38.12332197929849" lon="-1.152180301048994"><ele>150.0</ele><time>2026-04-07T11:07:04Z</time></trkpt><trkpt lat="38.12331868904161" lon="-1.1522655482650948"><ele>150.0</ele><time>2026-04-07T11:07:05Z</time></trkpt><trkpt lat="38.12331286961725" lon="-1.1523508203191837"><ele>150.0</ele><time>2026-04-07T11:07:06Z</time></trkpt><trkpt lat="38.1233098561359" lon="-1.1524357047330505"><ele>150.0</ele><time>2026-04-07T11:07:07Z</time></trkpt><trkpt lat="38.123308027392845" lon="-1.1525273819467694"><ele>150.0</ele><time>2026-04-07T11:07:08Z</time></trkpt><trkpt lat="38.12330628914982" lon="-1.152646853726159"><ele>150.0</ele><time>2026-04-07T11:07:09Z</time></trkpt><trkpt lat="38.123304449263124" lon="-1.1527765806775332"><ele>149.33333333333334</ele><time>2026-04-07T11:07:10Z</time></trkpt><trkpt lat="38.12329675184554" lon="-1.1528902452616192"><ele>148.66666666666666</ele><time>2026-04-07T11:07:11Z</time></trkpt><trkpt lat="38.12328848135899" lon="-1.15299218385754"><ele>148.0</ele><time>2026-04-07T11:07:12Z</time></trkpt><trkpt lat="38.123281636626764" lon="-1.153083896110053"><ele>147.33333333333331</ele><time>2026-04-07T11:07:13Z</time></trkpt><trkpt lat="38.12328652558828" lon="-1.1532264917978852"><ele>146.66666666666666</ele><time>2026-04-07T11:07:15Z</time></trkpt><trkpt lat="38.12327870066881" lon="-1.1533207796963345"><ele>146.0</ele><time>2026-04-07T11:07:17Z</time></trkpt><trkpt lat="38.12326648840868" lon="-1.1534374855423817"><ele>145.8</ele><time>2026-04-07T11:07:21Z</time></trkpt><trkpt lat="38.123280250528424" lon="-1.1535500897485451"><ele>145.6</ele><time>2026-04-07T11:07:23Z</time></trkpt><trkpt lat="38.123141684141586" lon="-1.1536012809129494"><ele>145.4</ele><time>2026-04-07T11:07:24Z</time></trkpt><trkpt lat="38.12306514123138" lon="-1.1536479362539307"><ele>145.2</ele><time>2026-04-07T11:07:25Z</time></trkpt><trkpt lat="38.12297854495898" lon="-1.153688489807484"><ele>145.0</ele><time>2026-04-07T11:07:26Z</time></trkpt><trkpt lat="38.12288050546395" lon="-1.153742627743679"><ele>146.25</ele><time>2026-04-07T11:07:27Z</time></trkpt><trkpt lat="38.12278102990564" lon="-1.1537976952379705"><ele>147.5</ele><time>2026-04-07T11:07:28Z</time></trkpt><trkpt lat="38.12267584929976" lon="-1.153856976780348"><ele>148.75</ele><time>2026-04-07T11:07:29Z</time></trkpt><trkpt lat="38.12256884146356" lon="-1.1539162334318838"><ele>150.0</ele><time>2026-04-07T11:07:30Z</time></trkpt><trkpt lat="38.12246041540134" lon="-1.153971688549392"><ele>150.75</ele><time>2026-04-07T11:07:31Z</time></trkpt><trkpt lat="38.122352732709516" lon="-1.154031840188173"><ele>151.5</ele><time>2026-04-07T11:07:32Z</time></trkpt><trkpt lat="38.122243437528795" lon="-1.1540921390643806"><ele>152.25</ele><time>2026-04-07T11:07:33Z</time></trkpt><trkpt lat="38.12213717931853" lon="-1.1541546373474036"><ele>153.0</ele><time>2026-04-07T11:07:34Z</time></trkpt><trkpt lat="38.12202756249927" lon="-1.1542168911856832"><ele>153.0</ele><time>2026-04-07T11:07:35Z</time></trkpt><trkpt lat="38.12191624931972" lon="-1.1542800716548696"><ele>153.0</ele><time>2026-04-07T11:07:36Z</time></trkpt><trkpt lat="38.1218020514706" lon="-1.154347386638764"><ele>153.0</ele><time>2026-04-07T11:07:37Z</time></trkpt><trkpt lat="38.12168753753009" lon="-1.1544063099660267"><ele>153.0</ele><time>2026-04-07T11:07:38Z</time></trkpt><trkpt lat="38.12156972716438" lon="-1.1544703692735847"><ele>153.5</ele><time>2026-04-07T11:07:39Z</time></trkpt><trkpt lat="38.12145128198629" lon="-1.1545390459245497"><ele>154.0</ele><time>2026-04-07T11:07:40Z</time></trkpt><trkpt lat="38.12133145122708" lon="-1.1546045820028488"><ele>154.5</ele><time>2026-04-07T11:07:41Z</time></trkpt><trkpt lat="38.121204409637336" lon="-1.1546716323849753"><ele>155.0</ele><time>2026-04-07T11:07:42Z</time></trkpt><trkpt lat="38.12106638811083" lon="-1.1547446183370478"><ele>155.0</ele><time>2026-04-07T11:07:43Z</time></trkpt><trkpt lat="38.12092925403089" lon="-1.1548190692412588"><ele>155.0</ele><time>2026-04-07T11:07:44Z</time></trkpt><trkpt lat="38.12078537482059" lon="-1.1549035807135688"><ele>155.0</ele><time>2026-04-07T11:07:45Z</time></trkpt><trkpt lat="38.1206425925432" lon="-1.154983294281631"><ele>155.66666666666666</ele><time>2026-04-07T11:07:46Z</time></trkpt><trkpt lat="38.12048950639382" lon="-1.1550690968744088"><ele>156.33333333333334</ele><time>2026-04-07T11:07:47Z</time></trkpt><trkpt lat="38.12033196486244" lon="-1.155152217782497"><ele>157.0</ele><time>2026-04-07T11:07:48Z</time></trkpt><trkpt lat="38.1201738289108" lon="-1.1552376830314006"><ele>157.0</ele><time>2026-04-07T11:07:49Z</time></trkpt><trkpt lat="38.120017517620774" lon="-1.1553319765741952"><ele>157.0</ele><time>2026-04-07T11:07:50Z</time></trkpt><trkpt lat="38.11985949072327" lon="-1.1554244844309036"><ele>157.0</ele><time>2026-04-07T11:07:51Z</time></trkpt><trkpt lat="38.11970508684718" lon="-1.1555116076431624"><ele>158.0</ele><time>2026-04-07T11:07:52Z</time></trkpt><trkpt lat="38.1195499527343" lon="-1.1555978080493223"><ele>159.0</ele><time>2026-04-07T11:07:53Z</time></trkpt><trkpt lat="38.11939487240826" lon="-1.1556865454521543"><ele>160.0</ele><time>2026-04-07T11:07:54Z</time></trkpt><trkpt lat="38.119240886432095" lon="-1.1557702210043554"><ele>160.66666666666669</ele><time>2026-04-07T11:07:55Z</time></trkpt><trkpt lat="38.11909711053188" lon="-1.1558543761615092"><ele>161.33333333333334</ele><time>2026-04-07T11:07:56Z</time></trkpt><trkpt lat="38.118949169988475" lon="-1.1559353048191976"><ele>162.0</ele><time>2026-04-07T11:07:57Z</time></trkpt><trkpt lat="38.11879526026823" lon="-1.156017100619507"><ele>162.0</ele><time>2026-04-07T11:07:58Z</time></trkpt><trkpt lat="38.11863972389683" lon="-1.156098318859186"><ele>162.0</ele><time>2026-04-07T11:07:59Z</time></trkpt><trkpt lat="38.11848449299135" lon="-1.1561833887785256"><ele>162.0</ele><time>2026-04-07T11:08:00Z</time></trkpt><trkpt lat="38.11833195804012" lon="-1.1562710643534992"><ele>162.66666666666666</ele><time>2026-04-07T11:08:01Z</time></trkpt><trkpt lat="38.1181692776792" lon="-1.1563611669738019"><ele>163.33333333333331</ele><time>2026-04-07T11:08:02Z</time></trkpt><trkpt lat="38.11802510034876" lon="-1.156445817556224"><ele>164.0</ele><time>2026-04-07T11:08:03Z</time></trkpt><trkpt lat="38.11787667529412" lon="-1.1565233052089603"><ele>164.0</ele><time>2026-04-07T11:08:04Z</time></trkpt><trkpt lat="38.117730881526576" lon="-1.1566033956855455"><ele>164.0</ele><time>2026-04-07T11:08:05Z</time></trkpt><trkpt lat="38.117589752004854" lon="-1.1566827746573076"><ele>164.0</ele><time>2026-04-07T11:08:06Z</time></trkpt><trkpt lat="38.117465768860825" lon="-1.156753018698004"><ele>164.0</ele><time>2026-04-07T11:08:07Z</time></trkpt><trkpt lat="38.11736167701104" lon="-1.156809371705225"><ele>164.79999999999998</ele><time>2026-04-07T11:08:08Z</time></trkpt><trkpt lat="38.11726427808576" lon="-1.1568632186194066"><ele>165.6</ele><time>2026-04-07T11:08:09Z</time></trkpt><trkpt lat="38.1171729100076" lon="-1.1568996438529677"><ele>166.4</ele><time>2026-04-07T11:08:10Z</time></trkpt><trkpt lat="38.117104672586635" lon="-1.1569450147766234"><ele>167.2</ele><time>2026-04-07T11:08:11Z</time></trkpt><trkpt lat="38.11704243344612" lon="-1.1569937351853634"><ele>168.0</ele><time>2026-04-07T11:08:13Z</time></trkpt><trkpt lat="38.116948589491486" lon="-1.1568526901315825"><ele>168.0</ele><time>2026-04-07T11:08:14Z</time></trkpt><trkpt lat="38.11687731456196" lon="-1.156790545357383"><ele>168.0</ele><time>2026-04-07T11:08:16Z</time></trkpt><trkpt lat="38.116795350741214" lon="-1.1566906809555837"><ele>168.0</ele><time>2026-04-07T11:08:19Z</time></trkpt><trkpt lat="38.11674558515826" lon="-1.1566322447980166"><ele>168.0</ele><time>2026-04-07T11:08:20Z</time></trkpt><trkpt lat="38.11668603028602" lon="-1.1565647072490455"><ele>168.0</ele><time>2026-04-07T11:08:21Z</time></trkpt><trkpt lat="38.116607989155106" lon="-1.156480954239515"><ele>169.25</ele><time>2026-04-07T11:08:22Z</time></trkpt><trkpt lat="38.11652454715225" lon="-1.1563903831899764"><ele>170.5</ele><time>2026-04-07T11:08:23Z</time></trkpt><trkpt lat="38.11643959174727" lon="-1.15630553883546"><ele>171.75</ele><time>2026-04-07T11:08:24Z</time></trkpt><trkpt lat="38.11634069882194" lon="-1.1561902797005639"><ele>173.0</ele><time>2026-04-07T11:08:25Z</time></trkpt><trkpt lat="38.11624010960169" lon="-1.1560717941397534"><ele>173.0</ele><time>2026-04-07T11:08:26Z</time></trkpt><trkpt lat="38.11614490268641" lon="-1.155963447472367"><ele>173.0</ele><time>2026-04-07T11:08:27Z</time></trkpt><trkpt lat="38.11604402609737" lon="-1.1558480973693908"><ele>173.0</ele><time>2026-04-07T11:08:28Z</time></trkpt><trkpt lat="38.11594831553192" lon="-1.1557424979641886"><ele>173.0</ele><time>2026-04-07T11:08:29Z</time></trkpt><trkpt lat="38.115856579145415" lon="-1.1556440017583491"><ele>173.0</ele><time>2026-04-07T11:08:30Z</time></trkpt><trkpt lat="38.115778069773235" lon="-1.1555528561873332"><ele>173.0</ele><time>2026-04-07T11:08:31Z</time></trkpt><trkpt lat="38.11570367885397" lon="-1.155462584675732"><ele>173.0</ele><time>2026-04-07T11:08:32Z</time></trkpt><trkpt lat="38.11562592294466" lon="-1.1553703175906715"><ele>173.0</ele><time>2026-04-07T11:08:33Z</time></trkpt><trkpt lat="38.11554615621247" lon="-1.1552856357397743"><ele>173.0</ele><time>2026-04-07T11:08:34Z</time></trkpt><trkpt lat="38.11546129523667" lon="-1.1551969977728733"><ele>173.4</ele><time>2026-04-07T11:08:35Z</time></trkpt><trkpt lat="38.115387207643934" lon="-1.155103804432798"><ele>173.8</ele><time>2026-04-07T11:08:36Z</time></trkpt><trkpt lat="38.11530754417696" lon="-1.1550096808098378"><ele>174.2</ele><time>2026-04-07T11:08:37Z</time></trkpt><trkpt lat="38.11522546239369" lon="-1.1549194922874235"><ele>174.6</ele><time>2026-04-07T11:08:38Z</time></trkpt><trkpt lat="38.115142420894784" lon="-1.1548315739242805"><ele>175.0</ele><time>2026-04-07T11:08:39Z</time></trkpt><trkpt lat="38.115058145788694" lon="-1.1547426640857714"><ele>175.0</ele><time>2026-04-07T11:08:40Z</time></trkpt><trkpt lat="38.114963584502995" lon="-1.1546516474179143"><ele>175.0</ele><time>2026-04-07T11:08:41Z</time></trkpt><trkpt lat="38.11487468324866" lon="-1.1545595974747365"><ele>175.0</ele><time>2026-04-07T11:08:42Z</time></trkpt><trkpt lat="38.114793839668195" lon="-1.1544709276202016"><ele>175.0</ele><time>2026-04-07T11:08:43Z</time></trkpt><trkpt lat="38.11472317703351" lon="-1.1544002766692163"><ele>175.0</ele><time>2026-04-07T11:08:44Z</time></trkpt><trkpt lat="38.11466110202155" lon="-1.1543379039590116"><ele>176.0</ele><time>2026-04-07T11:08:45Z</time></trkpt><trkpt lat="38.11461674255417" lon="-1.1542776802318366"><ele>177.0</ele><time>2026-04-07T11:08:46Z</time></trkpt><trkpt lat="38.11452303773292" lon="-1.154171015211573"><ele>178.0</ele><time>2026-04-07T11:08:48Z</time></trkpt><trkpt lat="38.1144744296394" lon="-1.1541103871793097"><ele>179.0</ele><time>2026-04-07T11:08:49Z</time></trkpt><trkpt lat="38.1143866333859" lon="-1.1540318536161887"><ele>180.0</ele><time>2026-04-07T11:08:51Z</time></trkpt><trkpt lat="38.1143046857268" lon="-1.1539746844437337"><ele>180.0</ele><time>2026-04-07T11:08:53Z</time></trkpt><trkpt lat="38.11423894992124" lon="-1.15391461095658"><ele>180.0</ele><time>2026-04-07T11:08:55Z</time></trkpt><trkpt lat="38.11416027528042" lon="-1.153842712745738"><ele>180.0</ele><time>2026-04-07T11:08:58Z</time></trkpt><trkpt lat="38.11410908769119" lon="-1.1537959340634982"><ele>180.0</ele><time>2026-04-07T11:08:59Z</time></trkpt><trkpt lat="38.114194189469885" lon="-1.1535297200802233"><ele>180.0</ele><time>2026-04-07T11:09:00Z</time></trkpt><trkpt lat="38.11414865349853" lon="-1.153474438811349"><ele>180.0</ele><time>2026-04-07T11:09:01Z</time></trkpt><trkpt lat="38.11408355257518" lon="-1.1534366466617418"><ele>180.0</ele><time>2026-04-07T11:09:02Z</time></trkpt><trkpt lat="38.11398061943726" lon="-1.1534025717783771"><ele>180.0</ele><time>2026-04-07T11:09:04Z</time></trkpt><trkpt lat="38.11390887727669" lon="-1.153298767723756"><ele>180.0</ele><time>2026-04-07T11:09:06Z</time></trkpt><trkpt lat="38.11386254786" lon="-1.1532271173201962"><ele>180.0</ele><time>2026-04-07T11:09:08Z</time></trkpt><trkpt lat="38.113823926532675" lon="-1.1533071616288957"><ele>180.33333333333334</ele><time>2026-04-07T11:09:12Z</time></trkpt><trkpt lat="38.11386969591133" lon="-1.1533793196086488"><ele>180.66666666666666</ele><time>2026-04-07T11:09:14Z</time></trkpt><trkpt lat="38.113913699793486" lon="-1.1534545605137856"><ele>181.0</ele><time>2026-04-07T11:09:17Z</time></trkpt><trkpt lat="38.113973113910156" lon="-1.1534110184551254"><ele>181.33333333333331</ele><time>2026-04-07T11:09:20Z</time></trkpt><trkpt lat="38.11394327457306" lon="-1.153311769546886"><ele>181.66666666666666</ele><time>2026-04-07T11:09:22Z</time></trkpt><trkpt lat="38.113839278708504" lon="-1.1532140036292413"><ele>182.0</ele><time>2026-04-07T11:09:24Z</time></trkpt><trkpt lat="38.113798458530034" lon="-1.1531317178508564"><ele>182.14285714285714</ele><time>2026-04-07T11:09:25Z</time></trkpt><trkpt lat="38.11374867663055" lon="-1.1530749122470054"><ele>182.28571428571428</ele><time>2026-04-07T11:09:26Z</time></trkpt><trkpt lat="38.11369289753793" lon="-1.1530263560438143"><ele>182.42857142857144</ele><time>2026-04-07T11:09:27Z</time></trkpt><trkpt lat="38.11364281849293" lon="-1.1529645683198748"><ele>182.57142857142856</ele><time>2026-04-07T11:09:28Z</time></trkpt><trkpt lat="38.113586453297536" lon="-1.1529068733765642"><ele>182.71428571428572</ele><time>2026-04-07T11:09:29Z</time></trkpt><trkpt lat="38.11352180599829" lon="-1.1528512122703878"><ele>182.85714285714286</ele><time>2026-04-07T11:09:30Z</time></trkpt><trkpt lat="38.11345597283555" lon="-1.1527994431504685"><ele>183.0</ele><time>2026-04-07T11:09:31Z</time></trkpt><trkpt lat="38.113385430692475" lon="-1.1527482009320655"><ele>183.0</ele><time>2026-04-07T11:09:32Z</time></trkpt><trkpt lat="38.11332503342112" lon="-1.1526956538483142"><ele>183.0</ele><time>2026-04-07T11:09:33Z</time></trkpt><trkpt lat="38.11326076153025" lon="-1.1526544894430815"><ele>183.0</ele><time>2026-04-07T11:09:34Z</time></trkpt><trkpt lat="38.1131971939642" lon="-1.152612113531545"><ele>183.0</ele><time>2026-04-07T11:09:35Z</time></trkpt><trkpt lat="38.11311823818407" lon="-1.1525506534564645"><ele>183.0</ele><time>2026-04-07T11:09:36Z</time></trkpt><trkpt lat="38.113050753777856" lon="-1.1524942032990788"><ele>183.0</ele><time>2026-04-07T11:09:37Z</time></trkpt><trkpt lat="38.11298424643298" lon="-1.1524417363482018"><ele>184.0</ele><time>2026-04-07T11:09:38Z</time></trkpt><trkpt lat="38.11291023599715" lon="-1.1523948022049266"><ele>185.0</ele><time>2026-04-07T11:09:39Z</time></trkpt><trkpt lat="38.11282467847734" lon="-1.1523519323684017"><ele>186.0</ele><time>2026-04-07T11:09:40Z</time></trkpt><trkpt lat="38.11274453313964" lon="-1.1522917398388457"><ele>187.0</ele><time>2026-04-07T11:09:41Z</time></trkpt><trkpt lat="38.112685650497994" lon="-1.1522067818223134"><ele>188.0</ele><time>2026-04-07T11:09:42Z</time></trkpt><trkpt lat="38.11264923122781" lon="-1.1521177390551267"><ele>189.0</ele><time>2026-04-07T11:09:43Z</time></trkpt><trkpt lat="38.11257737130469" lon="-1.1520231772985166"><ele>189.0</ele><time>2026-04-07T11:09:45Z</time></trkpt><trkpt lat="38.11244467008498" lon="-1.1520783372289083"><ele>189.0</ele><time>2026-04-07T11:09:47Z</time></trkpt><trkpt lat="38.11236495065179" lon="-1.1521217532847394"><ele>189.0</ele><time>2026-04-07T11:09:48Z</time></trkpt><trkpt lat="38.112297932474405" lon="-1.1521523066485846"><ele>189.0</ele><time>2026-04-07T11:09:49Z</time></trkpt><trkpt lat="38.11223345967637" lon="-1.1521710400523586"><ele>189.0</ele><time>2026-04-07T11:09:50Z</time></trkpt><trkpt lat="38.112106039019615" lon="-1.1521312519958462"><ele>190.2</ele><time>2026-04-07T11:09:52Z</time></trkpt><trkpt lat="38.11202196254134" lon="-1.1520858410708814"><ele>191.39999999999998</ele><time>2026-04-07T11:09:53Z</time></trkpt><trkpt lat="38.11194070929094" lon="-1.1520061484735533"><ele>192.6</ele><time>2026-04-07T11:09:54Z</time></trkpt><trkpt lat="38.111873620103346" lon="-1.1519242483430847"><ele>193.8</ele><time>2026-04-07T11:09:55Z</time></trkpt><trkpt lat="38.11181573108387" lon="-1.1518480613416253"><ele>195.0</ele><time>2026-04-07T11:09:56Z</time></trkpt><trkpt lat="38.11175410062411" lon="-1.1517786497608735"><ele>195.0</ele><time>2026-04-07T11:09:57Z</time></trkpt><trkpt lat="38.11168447060417" lon="-1.1517157192979641"><ele>195.0</ele><time>2026-04-07T11:09:58Z</time></trkpt><trkpt lat="38.1116159097537" lon="-1.1516510893604017"><ele>195.0</ele><time>2026-04-07T11:09:59Z</time></trkpt><trkpt lat="38.111547977280516" lon="-1.1515837407713279"><ele>195.0</ele><time>2026-04-07T11:10:00Z</time></trkpt><trkpt lat="38.111476149794434" lon="-1.1515300727744349"><ele>195.0</ele><time>2026-04-07T11:10:01Z</time></trkpt><trkpt lat="38.11139545458429" lon="-1.151490749849278"><ele>195.0</ele><time>2026-04-07T11:10:02Z</time></trkpt><trkpt lat="38.11131035654996" lon="-1.1514674190870626"><ele>195.8</ele><time>2026-04-07T11:10:03Z</time></trkpt><trkpt lat="38.11122878205194" lon="-1.1514524487283122"><ele>196.6</ele><time>2026-04-07T11:10:04Z</time></trkpt><trkpt lat="38.11114966171126" lon="-1.1514425256957326"><ele>197.39999999999998</ele><time>2026-04-07T11:10:05Z</time></trkpt><trkpt lat="38.11104823458292" lon="-1.1514320674288865"><ele>198.2</ele><time>2026-04-07T11:10:06Z</time></trkpt><trkpt lat="38.1109456873081" lon="-1.1514361465474416"><ele>199.0</ele><time>2026-04-07T11:10:07Z</time></trkpt><trkpt lat="38.11085700292979" lon="-1.1514700695541569"><ele>199.0</ele><time>2026-04-07T11:10:08Z</time></trkpt><trkpt lat="38.11075650994118" lon="-1.151516584533515"><ele>199.0</ele><time>2026-04-07T11:10:09Z</time></trkpt><trkpt lat="38.11066423059093" lon="-1.151529460088417"><ele>199.0</ele><time>2026-04-07T11:10:10Z</time></trkpt><trkpt lat="38.11054649771945" lon="-1.1514983855802008"><ele>199.0</ele><time>2026-04-07T11:10:11Z</time></trkpt><trkpt lat="38.110415542616686" lon="-1.1514328456639833"><ele>200.6</ele><time>2026-04-07T11:10:12Z</time></trkpt><trkpt lat="38.11030607516047" lon="-1.1513630301320619"><ele>202.2</ele><time>2026-04-07T11:10:13Z</time></trkpt><trkpt lat="38.11022922361535" lon="-1.151302840394556"><ele>203.79999999999998</ele><time>2026-04-07T11:10:14Z</time></trkpt><trkpt lat="38.11017223578077" lon="-1.1512364422166943"><ele>205.39999999999998</ele><time>2026-04-07T11:10:15Z</time></trkpt><trkpt lat="38.110121412490265" lon="-1.1511504125626872"><ele>207.0</ele><time>2026-04-07T11:10:16Z</time></trkpt><trkpt lat="38.11006655748025" lon="-1.1510458119750233"><ele>207.0</ele><time>2026-04-07T11:10:17Z</time></trkpt><trkpt lat="38.110015231331" lon="-1.1509442543854307"><ele>207.0</ele><time>2026-04-07T11:10:18Z</time></trkpt><trkpt lat="38.1099646074491" lon="-1.1508344201470864"><ele>207.0</ele><time>2026-04-07T11:10:19Z</time></trkpt><trkpt lat="38.10991407008057" lon="-1.1507252530960659"><ele>207.0</ele><time>2026-04-07T11:10:20Z</time></trkpt><trkpt lat="38.10987980217699" lon="-1.1506425386299572"><ele>207.0</ele><time>2026-04-07T11:10:21Z</time></trkpt><trkpt lat="38.109854233266404" lon="-1.1505600662204594"><ele>207.0</ele><time>2026-04-07T11:10:22Z</time></trkpt><trkpt lat="38.10982211570528" lon="-1.1504527712052903"><ele>207.16666666666666</ele><time>2026-04-07T11:10:23Z</time></trkpt><trkpt lat="38.10979259968308" lon="-1.150334724674648"><ele>207.33333333333331</ele><time>2026-04-07T11:10:24Z</time></trkpt><trkpt lat="38.109769501430996" lon="-1.150233554858723"><ele>207.5</ele><time>2026-04-07T11:10:25Z</time></trkpt><trkpt lat="38.10973575320975" lon="-1.15014307822723"><ele>207.66666666666666</ele><time>2026-04-07T11:10:26Z</time></trkpt><trkpt lat="38.10968250266538" lon="-1.1500569549451094"><ele>207.83333333333331</ele><time>2026-04-07T11:10:27Z</time></trkpt><trkpt lat="38.10962123806748" lon="-1.1499843197692077"><ele>208.0</ele><time>2026-04-07T11:10:28Z</time></trkpt><trkpt lat="38.1095580661908" lon="-1.149920976200077"><ele>207.99999999999997</ele><time>2026-04-07T11:10:29Z</time></trkpt><trkpt lat="38.1094936299794" lon="-1.1498790456581116"><ele>208.0</ele><time>2026-04-07T11:10:30Z</time></trkpt><trkpt lat="38.10943610231742" lon="-1.1498398027565313"><ele>208.0</ele><time>2026-04-07T11:10:31Z</time></trkpt><trkpt lat="38.109334176791066" lon="-1.1497528069839376"><ele>208.0</ele><time>2026-04-07T11:10:33Z</time></trkpt><trkpt lat="38.10926366266454" lon="-1.149679407060932"><ele>207.99999999999997</ele><time>2026-04-07T11:10:34Z</time></trkpt><trkpt lat="38.10920604312775" lon="-1.1496109594172865"><ele>208.0</ele><time>2026-04-07T11:10:35Z</time></trkpt><trkpt lat="38.109159618639985" lon="-1.1495468458068347"><ele>207.66666666666666</ele><time>2026-04-07T11:10:36Z</time></trkpt><trkpt lat="38.10911210969174" lon="-1.1494660386320763"><ele>207.33333333333331</ele><time>2026-04-07T11:10:37Z</time></trkpt><trkpt lat="38.10906558388951" lon="-1.149381264041464"><ele>207.0</ele><time>2026-04-07T11:10:38Z</time></trkpt><trkpt lat="38.10902086466166" lon="-1.1493045160783628"><ele>206.66666666666669</ele><time>2026-04-07T11:10:39Z</time></trkpt><trkpt lat="38.10897637927138" lon="-1.1492426284572625"><ele>206.33333333333334</ele><time>2026-04-07T11:10:40Z</time></trkpt><trkpt lat="38.1089187827276" lon="-1.1491863849993973"><ele>206.0</ele><time>2026-04-07T11:10:41Z</time></trkpt><trkpt lat="38.108858407283805" lon="-1.149128261593498"><ele>207.00000000000003</ele><time>2026-04-07T11:10:42Z</time></trkpt><trkpt lat="38.10880286053272" lon="-1.1490892170690834"><ele>208.0</ele><time>2026-04-07T11:10:43Z</time></trkpt><trkpt lat="38.10874340498477" lon="-1.1490525756160865"><ele>209.0</ele><time>2026-04-07T11:10:44Z</time></trkpt><trkpt lat="38.1086449695196" lon="-1.1489906530886655"><ele>210.0</ele><time>2026-04-07T11:10:46Z</time></trkpt><trkpt lat="38.10854832660138" lon="-1.1489343047501523"><ele>211.00000000000003</ele><time>2026-04-07T11:10:48Z</time></trkpt><trkpt lat="38.10847964406418" lon="-1.1488959651856991"><ele>212.0</ele><time>2026-04-07T11:10:49Z</time></trkpt><trkpt lat="38.10841395786229" lon="-1.1488541152961929"><ele>212.0</ele><time>2026-04-07T11:10:50Z</time></trkpt><trkpt lat="38.10830666897284" lon="-1.148777942059582"><ele>212.0</ele><time>2026-04-07T11:10:52Z</time></trkpt><trkpt lat="38.108210023274566" lon="-1.1487058925888747"><ele>212.0</ele><time>2026-04-07T11:10:54Z</time></trkpt><trkpt lat="38.10813778976768" lon="-1.148579046917665"><ele>212.0</ele><time>2026-04-07T11:10:56Z</time></trkpt><trkpt lat="38.108080471243554" lon="-1.1484716673042006"><ele>212.83333333333334</ele><time>2026-04-07T11:10:58Z</time></trkpt><trkpt lat="38.10798910069957" lon="-1.1484177595717042"><ele>213.66666666666669</ele><time>2026-04-07T11:11:00Z</time></trkpt><trkpt lat="38.10792561361487" lon="-1.1484091989199412"><ele>214.5</ele><time>2026-04-07T11:11:01Z</time></trkpt><trkpt lat="38.107849124132116" lon="-1.1483996008557318"><ele>215.33333333333331</ele><time>2026-04-07T11:11:02Z</time></trkpt><trkpt lat="38.107770098977944" lon="-1.1483857920654295"><ele>216.16666666666666</ele><time>2026-04-07T11:11:03Z</time></trkpt><trkpt lat="38.10768736931387" lon="-1.1483689470743834"><ele>217.0</ele><time>2026-04-07T11:11:04Z</time></trkpt><trkpt lat="38.1076030905547" lon="-1.1483586879676713"><ele>216.99999999999997</ele><time>2026-04-07T11:11:05Z</time></trkpt><trkpt lat="38.107518688246486" lon="-1.1483662506405043"><ele>217.0</ele><time>2026-04-07T11:11:06Z</time></trkpt><trkpt lat="38.1074445120612" lon="-1.148386383156066"><ele>217.0</ele><time>2026-04-07T11:11:07Z</time></trkpt><trkpt lat="38.10737099448176" lon="-1.1484273048271427"><ele>217.0</ele><time>2026-04-07T11:11:08Z</time></trkpt><trkpt lat="38.10731016548931" lon="-1.148476802033296"><ele>216.99999999999997</ele><time>2026-04-07T11:11:09Z</time></trkpt><trkpt lat="38.1072598070867" lon="-1.1485316472087146"><ele>217.0</ele><time>2026-04-07T11:11:10Z</time></trkpt><trkpt lat="38.10720985096762" lon="-1.1486497478877853"><ele>217.8</ele><time>2026-04-07T11:11:12Z</time></trkpt><trkpt lat="38.10719515552245" lon="-1.1487341701964595"><ele>218.6</ele><time>2026-04-07T11:11:14Z</time></trkpt><trkpt lat="38.107229565758665" lon="-1.148878401155455"><ele>219.40000000000003</ele><time>2026-04-07T11:11:16Z</time></trkpt><trkpt lat="38.10724965167763" lon="-1.149004447472717"><ele>220.20000000000002</ele><time>2026-04-07T11:11:18Z</time></trkpt><trkpt lat="38.107244162267115" lon="-1.1491423813723136"><ele>221.0</ele><time>2026-04-07T11:11:20Z</time></trkpt><trkpt lat="38.107226312596445" lon="-1.1492378166711148"><ele>222.0</ele><time>2026-04-07T11:11:22Z</time></trkpt><trkpt lat="38.10718662648112" lon="-1.14932461168614"><ele>223.00000000000003</ele><time>2026-04-07T11:11:24Z</time></trkpt><trkpt lat="38.107097874306" lon="-1.149424211290271"><ele>224.00000000000003</ele><time>2026-04-07T11:11:26Z</time></trkpt><trkpt lat="38.10702326061179" lon="-1.1495303038286566"><ele>225.0</ele><time>2026-04-07T11:11:28Z</time></trkpt><trkpt lat="38.10700869318855" lon="-1.1496386313493627"><ele>226.0</ele><time>2026-04-07T11:11:30Z</time></trkpt><trkpt lat="38.107069665945055" lon="-1.149754773302135"><ele>225.99999999999997</ele><time>2026-04-07T11:11:32Z</time></trkpt><trkpt lat="38.10711480319421" lon="-1.149860958637098"><ele>226.0</ele><time>2026-04-07T11:11:34Z</time></trkpt><trkpt lat="38.10715302579772" lon="-1.1499602391776844"><ele>226.0</ele><time>2026-04-07T11:11:36Z</time></trkpt><trkpt lat="38.10713142708362" lon="-1.1500750062146927"><ele>226.0</ele><time>2026-04-07T11:11:38Z</time></trkpt><trkpt lat="38.10708479863585" lon="-1.1501577237263865"><ele>225.99999999999997</ele><time>2026-04-07T11:11:40Z</time></trkpt><trkpt lat="38.107099970235915" lon="-1.150269761027552"><ele>226.0</ele><time>2026-04-07T11:11:42Z</time></trkpt><trkpt lat="38.10708963900519" lon="-1.1503804576522374"><ele>226.28571428571428</ele><time>2026-04-07T11:11:44Z</time></trkpt><trkpt lat="38.10705129381431" lon="-1.1504643214241648"><ele>226.57142857142856</ele><time>2026-04-07T11:11:47Z</time></trkpt><trkpt lat="38.10707274183032" lon="-1.1505467795532012"><ele>226.85714285714283</ele><time>2026-04-07T11:11:52Z</time></trkpt><trkpt lat="38.10714180997669" lon="-1.1505635338631375"><ele>227.14285714285714</ele><time>2026-04-07T11:11:55Z</time></trkpt><trkpt lat="38.10720450569423" lon="-1.1506167730580583"><ele>227.4285714285714</ele><time>2026-04-07T11:11:58Z</time></trkpt><trkpt lat="38.10724620652023" lon="-1.1506853559322197"><ele>227.7142857142857</ele><time>2026-04-07T11:12:01Z</time></trkpt><trkpt lat="38.10726236130778" lon="-1.1507705863698225"><ele>228.0</ele><time>2026-04-07T11:12:03Z</time></trkpt><trkpt lat="38.10724424423995" lon="-1.1508512961533368"><ele>228.0</ele><time>2026-04-07T11:12:06Z</time></trkpt><trkpt lat="38.107199144376715" lon="-1.1509318163234707"><ele>228.0</ele><time>2026-04-07T11:12:09Z</time></trkpt><trkpt lat="38.10715696075315" lon="-1.1510215344858457"><ele>228.0</ele><time>2026-04-07T11:12:12Z</time></trkpt><trkpt lat="38.10713932245716" lon="-1.151102255426181"><ele>228.0</ele><time>2026-04-07T11:12:14Z</time></trkpt><trkpt lat="38.10711778589385" lon="-1.1511833919477754"><ele>228.0</ele><time>2026-04-07T11:12:15Z</time></trkpt><trkpt lat="38.1070854060825" lon="-1.1512777779116223"><ele>228.0</ele><time>2026-04-07T11:12:17Z</time></trkpt><trkpt lat="38.10703071561066" lon="-1.1513467580857624"><ele>228.0</ele><time>2026-04-07T11:12:19Z</time></trkpt><trkpt lat="38.106986378005956" lon="-1.151451700561573"><ele>228.0</ele><time>2026-04-07T11:12:21Z</time></trkpt><trkpt lat="38.106932245775184" lon="-1.1515244968287228"><ele>228.0</ele><time>2026-04-07T11:12:25Z</time></trkpt><trkpt lat="38.10684198999948" lon="-1.1515692189895117"><ele>228.0</ele><time>2026-04-07T11:12:30Z</time></trkpt><trkpt lat="38.1067613315612" lon="-1.1515608301085352"><ele>228.0</ele><time>2026-04-07T11:12:33Z</time></trkpt><trkpt lat="38.106688140701" lon="-1.1515662925704442"><ele>228.0</ele><time>2026-04-07T11:12:35Z</time></trkpt><trkpt lat="38.10661489656312" lon="-1.1515845456669864"><ele>227.85714285714283</ele><time>2026-04-07T11:12:37Z</time></trkpt><trkpt lat="38.10654981825465" lon="-1.1516305155978441"><ele>227.7142857142857</ele><time>2026-04-07T11:12:39Z</time></trkpt><trkpt lat="38.10648704170959" lon="-1.1516959732472178"><ele>227.57142857142856</ele><time>2026-04-07T11:12:41Z</time></trkpt><trkpt lat="38.10641720225007" lon="-1.1517200010841213"><ele>227.42857142857144</ele><time>2026-04-07T11:12:43Z</time></trkpt><trkpt lat="38.1063486074053" lon="-1.1517114099318364"><ele>227.2857142857143</ele><time>2026-04-07T11:12:46Z</time></trkpt><trkpt lat="38.10628084192158" lon="-1.1517180057766534"><ele>227.14285714285717</ele><time>2026-04-07T11:12:49Z</time></trkpt><trkpt lat="38.10620091795199" lon="-1.151736416612538"><ele>227.0</ele><time>2026-04-07T11:12:52Z</time></trkpt><trkpt lat="38.10612895176711" lon="-1.151728049484032"><ele>227.0</ele><time>2026-04-07T11:12:55Z</time></trkpt><trkpt lat="38.10605567342741" lon="-1.1516888170328743"><ele>227.00000000000003</ele><time>2026-04-07T11:12:59Z</time></trkpt><trkpt lat="38.105991267551424" lon="-1.1516827890550858"><ele>227.0</ele><time>2026-04-07T11:13:02Z</time></trkpt><trkpt lat="38.10591123419538" lon="-1.151684180604866"><ele>227.0</ele><time>2026-04-07T11:13:08Z</time></trkpt><trkpt lat="38.105876943436876" lon="-1.1516077769921216"><ele>227.00000000000003</ele><time>2026-04-07T11:13:11Z</time></trkpt><trkpt lat="38.10587418207515" lon="-1.1515130529064863"><ele>227.0</ele><time>2026-04-07T11:13:12Z</time></trkpt><trkpt lat="38.10587448075161" lon="-1.151418416890823"><ele>227.0</ele><time>2026-04-07T11:13:13Z</time></trkpt><trkpt lat="38.10587079877098" lon="-1.1512952825707776"><ele>227.39999999999998</ele><time>2026-04-07T11:13:14Z</time></trkpt><trkpt lat="38.10586110606512" lon="-1.1511669633856854"><ele>227.79999999999998</ele><time>2026-04-07T11:13:15Z</time></trkpt><trkpt lat="38.105845937775435" lon="-1.151027989817387"><ele>228.2</ele><time>2026-04-07T11:13:16Z</time></trkpt><trkpt lat="38.10582959252897" lon="-1.150883154314004"><ele>228.6</ele><time>2026-04-07T11:13:17Z</time></trkpt><trkpt lat="38.10580810082178" lon="-1.1507650260346323"><ele>229.0</ele><time>2026-04-07T11:13:18Z</time></trkpt><trkpt lat="38.10577723072459" lon="-1.150646517835209"><ele>228.0</ele><time>2026-04-07T11:13:19Z</time></trkpt><trkpt lat="38.105742187762075" lon="-1.1505366156114663"><ele>226.99999999999997</ele><time>2026-04-07T11:13:20Z</time></trkpt><trkpt lat="38.105712562547005" lon="-1.1504376065163568"><ele>225.99999999999997</ele><time>2026-04-07T11:13:21Z</time></trkpt><trkpt lat="38.10569708868822" lon="-1.150330179415075"><ele>225.0</ele><time>2026-04-07T11:13:22Z</time></trkpt><trkpt lat="38.105676038192804" lon="-1.1502060267358594"><ele>224.0</ele><time>2026-04-07T11:13:23Z</time></trkpt><trkpt lat="38.10567331407038" lon="-1.150061002421467"><ele>224.0</ele><time>2026-04-07T11:13:24Z</time></trkpt><trkpt lat="38.10568294133208" lon="-1.1499032371028215"><ele>224.0</ele><time>2026-04-07T11:13:25Z</time></trkpt><trkpt lat="38.105687145373366" lon="-1.149720049688159"><ele>224.0</ele><time>2026-04-07T11:13:26Z</time></trkpt><trkpt lat="38.105667147267056" lon="-1.1495086435015376"><ele>224.0</ele><time>2026-04-07T11:13:27Z</time></trkpt><trkpt lat="38.105588516317255" lon="-1.1493181907651768"><ele>224.5</ele><time>2026-04-07T11:13:28Z</time></trkpt><trkpt lat="38.10556024415768" lon="-1.1491423615679677"><ele>225.0</ele><time>2026-04-07T11:13:29Z</time></trkpt><trkpt lat="38.10553288056803" lon="-1.1489714917055647"><ele>225.5</ele><time>2026-04-07T11:13:30Z</time></trkpt><trkpt lat="38.10550912294305" lon="-1.1488197130978546"><ele>226.0</ele><time>2026-04-07T11:13:31Z</time></trkpt><trkpt lat="38.10548611281018" lon="-1.148672709931313"><ele>226.0</ele><time>2026-04-07T11:13:32Z</time></trkpt><trkpt lat="38.105467473488815" lon="-1.148553630365138"><ele>226.00000000000003</ele><time>2026-04-07T11:13:33Z</time></trkpt><trkpt lat="38.105448360017675" lon="-1.1484337329445018"><ele>226.00000000000003</ele><time>2026-04-07T11:13:34Z</time></trkpt><trkpt lat="38.10542713506152" lon="-1.1483092602428875"><ele>226.0</ele><time>2026-04-07T11:13:35Z</time></trkpt><trkpt lat="38.10540661047669" lon="-1.1481914176243864"><ele>226.0</ele><time>2026-04-07T11:13:36Z</time></trkpt><trkpt lat="38.10538242764417" lon="-1.1480675561815314"><ele>226.49999999999997</ele><time>2026-04-07T11:13:37Z</time></trkpt><trkpt lat="38.10535562242957" lon="-1.1479483425710975"><ele>227.0</ele><time>2026-04-07T11:13:38Z</time></trkpt><trkpt lat="38.105324869398316" lon="-1.147846204350177"><ele>227.5</ele><time>2026-04-07T11:13:39Z</time></trkpt><trkpt lat="38.105290946654904" lon="-1.1477521014576884"><ele>228.0</ele><time>2026-04-07T11:13:40Z</time></trkpt><trkpt lat="38.10524526010663" lon="-1.1476640338332567"><ele>228.49999999999997</ele><time>2026-04-07T11:13:41Z</time></trkpt><trkpt lat="38.105172917568346" lon="-1.1475925445777448"><ele>229.0</ele><time>2026-04-07T11:13:42Z</time></trkpt><trkpt lat="38.10508350893462" lon="-1.1475129504612729"><ele>229.0</ele><time>2026-04-07T11:13:43Z</time></trkpt><trkpt lat="38.10499488323049" lon="-1.1474181434711122"><ele>229.0</ele><time>2026-04-07T11:13:44Z</time></trkpt><trkpt lat="38.10489893507611" lon="-1.147324314126137"><ele>229.0</ele><time>2026-04-07T11:13:45Z</time></trkpt><trkpt lat="38.10480166110123" lon="-1.147226800530177"><ele>229.0</ele><time>2026-04-07T11:13:46Z</time></trkpt><trkpt lat="38.104696770140066" lon="-1.1471277089992744"><ele>227.25</ele><time>2026-04-07T11:13:47Z</time></trkpt><trkpt lat="38.104595310230344" lon="-1.1470310323660742"><ele>225.5</ele><time>2026-04-07T11:13:48Z</time></trkpt><trkpt lat="38.10449901696982" lon="-1.1469400272937458"><ele>223.75</ele><time>2026-04-07T11:13:49Z</time></trkpt><trkpt lat="38.10439955626091" lon="-1.1468485027048188"><ele>222.0</ele><time>2026-04-07T11:13:50Z</time></trkpt><trkpt lat="38.10429583464319" lon="-1.146754457900667"><ele>222.0</ele><time>2026-04-07T11:13:51Z</time></trkpt><trkpt lat="38.10418404699213" lon="-1.1466876950253004"><ele>222.0</ele><time>2026-04-07T11:13:52Z</time></trkpt><trkpt lat="38.10409061581092" lon="-1.1466080430966459"><ele>222.0</ele><time>2026-04-07T11:13:53Z</time></trkpt><trkpt lat="38.10401129063291" lon="-1.146510283349008"><ele>222.0</ele><time>2026-04-07T11:13:54Z</time></trkpt><trkpt lat="38.103914695919265" lon="-1.1464332648277031"><ele>222.5</ele><time>2026-04-07T11:13:55Z</time></trkpt><trkpt lat="38.10381327049877" lon="-1.1463556975048843"><ele>223.0</ele><time>2026-04-07T11:13:56Z</time></trkpt><trkpt lat="38.10370758452851" lon="-1.1462688641285836"><ele>223.5</ele><time>2026-04-07T11:13:57Z</time></trkpt><trkpt lat="38.103600222514224" lon="-1.146172723094212"><ele>224.0</ele><time>2026-04-07T11:13:58Z</time></trkpt><trkpt lat="38.10349799309617" lon="-1.1460767596858878"><ele>224.0</ele><time>2026-04-07T11:13:59Z</time></trkpt><trkpt lat="38.1033927197597" lon="-1.1459714568354002"><ele>224.0</ele><time>2026-04-07T11:14:00Z</time></trkpt><trkpt lat="38.10328016350049" lon="-1.14586686696465"><ele>224.0</ele><time>2026-04-07T11:14:01Z</time></trkpt><trkpt lat="38.10317382505894" lon="-1.1457369131980573"><ele>224.0</ele><time>2026-04-07T11:14:02Z</time></trkpt><trkpt lat="38.10307750838007" lon="-1.1456047098624607"><ele>224.75</ele><time>2026-04-07T11:14:03Z</time></trkpt><trkpt lat="38.102997731193895" lon="-1.145487954356725"><ele>225.5</ele><time>2026-04-07T11:14:04Z</time></trkpt><trkpt lat="38.10290165534269" lon="-1.145408479128741"><ele>226.25</ele><time>2026-04-07T11:14:05Z</time></trkpt><trkpt lat="38.10281570976467" lon="-1.1453065644248945"><ele>227.0</ele><time>2026-04-07T11:14:06Z</time></trkpt><trkpt lat="38.10270865881242" lon="-1.1452128552350056"><ele>227.0</ele><time>2026-04-07T11:14:07Z</time></trkpt><trkpt lat="38.10260831375814" lon="-1.1451008499867614"><ele>227.0</ele><time>2026-04-07T11:14:08Z</time></trkpt><trkpt lat="38.1025211083325" lon="-1.1449860749875869"><ele>227.0</ele><time>2026-04-07T11:14:09Z</time></trkpt><trkpt lat="38.1024363430781" lon="-1.1448726139870486"><ele>227.0</ele><time>2026-04-07T11:14:10Z</time></trkpt><trkpt lat="38.10235765204041" lon="-1.1447603268974131"><ele>227.75</ele><time>2026-04-07T11:14:11Z</time></trkpt><trkpt lat="38.10227301979928" lon="-1.1446468216694228"><ele>228.5</ele><time>2026-04-07T11:14:12Z</time></trkpt><trkpt lat="38.10218631813509" lon="-1.144540188550585"><ele>229.25</ele><time>2026-04-07T11:14:13Z</time></trkpt><trkpt lat="38.10210079798663" lon="-1.1444335734269462"><ele>230.0</ele><time>2026-04-07T11:14:14Z</time></trkpt><trkpt lat="38.10201130661101" lon="-1.144331634916686"><ele>230.0</ele><time>2026-04-07T11:14:15Z</time></trkpt><trkpt lat="38.10191582238842" lon="-1.1442176993395627"><ele>230.0</ele><time>2026-04-07T11:14:16Z</time></trkpt><trkpt lat="38.10181558168651" lon="-1.144103964051109"><ele>230.0</ele><time>2026-04-07T11:14:17Z</time></trkpt><trkpt lat="38.10172007998226" lon="-1.1439973386407563"><ele>230.0</ele><time>2026-04-07T11:14:18Z</time></trkpt><trkpt lat="38.101643308953726" lon="-1.1439049517220468"><ele>230.0</ele><time>2026-04-07T11:14:19Z</time></trkpt><trkpt lat="38.10159114630254" lon="-1.143810000580029"><ele>230.0</ele><time>2026-04-07T11:14:20Z</time></trkpt><trkpt lat="38.1015779647695" lon="-1.143700619581909"><ele>230.0</ele><time>2026-04-07T11:14:21Z</time></trkpt><trkpt lat="38.101588474449436" lon="-1.1435477920767831"><ele>230.0</ele><time>2026-04-07T11:14:22Z</time></trkpt><trkpt lat="38.10161049542538" lon="-1.1433835487367807"><ele>230.0</ele><time>2026-04-07T11:14:23Z</time></trkpt><trkpt lat="38.101634800898225" lon="-1.1432475558232353"><ele>229.4</ele><time>2026-04-07T11:14:24Z</time></trkpt><trkpt lat="38.101635689935975" lon="-1.1431377971963395"><ele>228.8</ele><time>2026-04-07T11:14:25Z</time></trkpt><trkpt lat="38.10160446969741" lon="-1.1430308803037181"><ele>228.2</ele><time>2026-04-07T11:14:26Z</time></trkpt><trkpt lat="38.1015347857663" lon="-1.1429339519881143"><ele>227.6</ele><time>2026-04-07T11:14:27Z</time></trkpt><trkpt lat="38.101455711718316" lon="-1.1428506303104116"><ele>227.0</ele><time>2026-04-07T11:14:28Z</time></trkpt><trkpt lat="38.10136667876887" lon="-1.1427818978588393"><ele>228.5</ele><time>2026-04-07T11:14:29Z</time></trkpt><trkpt lat="38.10125724671403" lon="-1.1427215258474155"><ele>230.0</ele><time>2026-04-07T11:14:30Z</time></trkpt><trkpt lat="38.101128773743824" lon="-1.142666220676713"><ele>231.5</ele><time>2026-04-07T11:14:31Z</time></trkpt><trkpt lat="38.10101479906796" lon="-1.1425905849447269"><ele>233.0</ele><time>2026-04-07T11:14:32Z</time></trkpt><trkpt lat="38.10091208380547" lon="-1.1424851977988446"><ele>233.0</ele><time>2026-04-07T11:14:33Z</time></trkpt><trkpt lat="38.10082240101799" lon="-1.142392368326351"><ele>233.0</ele><time>2026-04-07T11:14:34Z</time></trkpt><trkpt lat="38.100716619744986" lon="-1.1423304463338453"><ele>233.0</ele><time>2026-04-07T11:14:35Z</time></trkpt><trkpt lat="38.100581055442625" lon="-1.1423103608559337"><ele>233.0</ele><time>2026-04-07T11:14:36Z</time></trkpt><trkpt lat="38.10042929820058" lon="-1.1422832143017696"><ele>233.5</ele><time>2026-04-07T11:14:37Z</time></trkpt><trkpt lat="38.10027838505273" lon="-1.1422451123673674"><ele>234.0</ele><time>2026-04-07T11:14:38Z</time></trkpt><trkpt lat="38.10014619281917" lon="-1.142201779485381"><ele>234.5</ele><time>2026-04-07T11:14:39Z</time></trkpt><trkpt lat="38.10001799286907" lon="-1.1421514305097125"><ele>235.0</ele><time>2026-04-07T11:14:40Z</time></trkpt><trkpt lat="38.0998947445954" lon="-1.1420923779072474"><ele>235.2</ele><time>2026-04-07T11:14:41Z</time></trkpt><trkpt lat="38.09978608948677" lon="-1.1420326156332428"><ele>235.4</ele><time>2026-04-07T11:14:42Z</time></trkpt><trkpt lat="38.09968286665018" lon="-1.1419861908775608"><ele>235.60000000000002</ele><time>2026-04-07T11:14:43Z</time></trkpt><trkpt lat="38.09958047159777" lon="-1.1419708281198768"><ele>235.8</ele><time>2026-04-07T11:14:44Z</time></trkpt><trkpt lat="38.099481627738015" lon="-1.141975603764842"><ele>236.0</ele><time>2026-04-07T11:14:45Z</time></trkpt><trkpt lat="38.09940157362263" lon="-1.1419948027760234"><ele>236.0</ele><time>2026-04-07T11:14:46Z</time></trkpt><trkpt lat="38.09933202211923" lon="-1.142018112822688"><ele>236.00000000000003</ele><time>2026-04-07T11:14:47Z</time></trkpt><trkpt lat="38.09924967376518" lon="-1.1421246136471779"><ele>236.00000000000003</ele><time>2026-04-07T11:14:49Z</time></trkpt><trkpt lat="38.09916078853706" lon="-1.1422355212535533"><ele>236.0</ele><time>2026-04-07T11:14:51Z</time></trkpt><trkpt lat="38.099082482797215" lon="-1.1423066915146627"><ele>236.0</ele><time>2026-04-07T11:14:52Z</time></trkpt><trkpt lat="38.09900491451067" lon="-1.1423668727542033"><ele>236.60000000000002</ele><time>2026-04-07T11:14:53Z</time></trkpt><trkpt lat="38.09891585154546" lon="-1.142408024692789"><ele>237.20000000000002</ele><time>2026-04-07T11:14:54Z</time></trkpt><trkpt lat="38.098822815086265" lon="-1.1424140033418018"><ele>237.79999999999998</ele><time>2026-04-07T11:14:55Z</time></trkpt><trkpt lat="38.09872514047864" lon="-1.1424068550419182"><ele>238.39999999999998</ele><time>2026-04-07T11:14:56Z</time></trkpt><trkpt lat="38.09862538173105" lon="-1.1423927751545493"><ele>239.0</ele><time>2026-04-07T11:14:57Z</time></trkpt><trkpt lat="38.09850710943945" lon="-1.1423647403165815"><ele>239.0</ele><time>2026-04-07T11:14:58Z</time></trkpt><trkpt lat="38.09838562455128" lon="-1.1423362862518738"><ele>238.99999999999997</ele><time>2026-04-07T11:14:59Z</time></trkpt><trkpt lat="38.09828271316883" lon="-1.1423031646755606"><ele>238.99999999999997</ele><time>2026-04-07T11:15:00Z</time></trkpt><trkpt lat="38.09818195346416" lon="-1.1422615270746057"><ele>239.0</ele><time>2026-04-07T11:15:01Z</time></trkpt><trkpt lat="38.098083751894734" lon="-1.1422095634021485"><ele>239.0</ele><time>2026-04-07T11:15:02Z</time></trkpt><trkpt lat="38.09798321888842" lon="-1.1421388582093688"><ele>240.79999999999998</ele><time>2026-04-07T11:15:03Z</time></trkpt><trkpt lat="38.097881699217446" lon="-1.1420618947712975"><ele>242.59999999999997</ele><time>2026-04-07T11:15:04Z</time></trkpt><trkpt lat="38.09777020850502" lon="-1.1419819313557638"><ele>244.4</ele><time>2026-04-07T11:15:05Z</time></trkpt><trkpt lat="38.097668746377614" lon="-1.1419221392146897"><ele>246.2</ele><time>2026-04-07T11:15:06Z</time></trkpt><trkpt lat="38.097586570781054" lon="-1.1418714313470202"><ele>248.0</ele><time>2026-04-07T11:15:07Z</time></trkpt><trkpt lat="38.097517540699585" lon="-1.1418112384787427"><ele>248.0</ele><time>2026-04-07T11:15:08Z</time></trkpt><trkpt lat="38.097443312485616" lon="-1.1417438937405102"><ele>248.0</ele><time>2026-04-07T11:15:09Z</time></trkpt><trkpt lat="38.09736187207113" lon="-1.1416907794599866"><ele>248.0</ele><time>2026-04-07T11:15:10Z</time></trkpt><trkpt lat="38.09727996786516" lon="-1.1416322031844524"><ele>248.0</ele><time>2026-04-07T11:15:11Z</time></trkpt><trkpt lat="38.09720491877506" lon="-1.1415450237111593"><ele>248.0</ele><time>2026-04-07T11:15:12Z</time></trkpt><trkpt lat="38.097143733705835" lon="-1.1414586148920962"><ele>249.16666666666669</ele><time>2026-04-07T11:15:13Z</time></trkpt><trkpt lat="38.097086521307766" lon="-1.1413785954155653"><ele>250.33333333333334</ele><time>2026-04-07T11:15:14Z</time></trkpt><trkpt lat="38.09703264473259" lon="-1.141304603606252"><ele>251.5</ele><time>2026-04-07T11:15:15Z</time></trkpt><trkpt lat="38.09697908077239" lon="-1.1412356918765085"><ele>252.66666666666669</ele><time>2026-04-07T11:15:16Z</time></trkpt><trkpt lat="38.096918071803884" lon="-1.1411412887766894"><ele>253.83333333333334</ele><time>2026-04-07T11:15:17Z</time></trkpt><trkpt lat="38.09685611803873" lon="-1.1410512848680672"><ele>255.0</ele><time>2026-04-07T11:15:18Z</time></trkpt><trkpt lat="38.09677503229976" lon="-1.1409746464233093"><ele>255.0</ele><time>2026-04-07T11:15:19Z</time></trkpt><trkpt lat="38.09667006924712" lon="-1.14089007189907"><ele>255.0</ele><time>2026-04-07T11:15:20Z</time></trkpt><trkpt lat="38.09656226762882" lon="-1.140810773844567"><ele>255.0</ele><time>2026-04-07T11:15:21Z</time></trkpt><trkpt lat="38.09645029818862" lon="-1.1407656988171613"><ele>255.0</ele><time>2026-04-07T11:15:22Z</time></trkpt><trkpt lat="38.09633544101977" lon="-1.1407492052738624"><ele>257.25</ele><time>2026-04-07T11:15:23Z</time></trkpt><trkpt lat="38.09622431849343" lon="-1.1407343191755457"><ele>259.5</ele><time>2026-04-07T11:15:24Z</time></trkpt><trkpt lat="38.096121261321585" lon="-1.1407015220638865"><ele>261.75</ele><time>2026-04-07T11:15:25Z</time></trkpt><trkpt lat="38.09601711971523" lon="-1.1406393159357164"><ele>264.0</ele><time>2026-04-07T11:15:26Z</time></trkpt><trkpt lat="38.095892550519096" lon="-1.140614785715959"><ele>264.0</ele><time>2026-04-07T11:15:27Z</time></trkpt><trkpt lat="38.09576622889049" lon="-1.1405782114338685"><ele>264.0</ele><time>2026-04-07T11:15:28Z</time></trkpt><trkpt lat="38.09563729489289" lon="-1.1405486909670484"><ele>264.0</ele><time>2026-04-07T11:15:29Z</time></trkpt><trkpt lat="38.095493358409094" lon="-1.1404919563471394"><ele>264.0</ele><time>2026-04-07T11:15:30Z</time></trkpt><trkpt lat="38.09534977728877" lon="-1.1404486308372557"><ele>264.8</ele><time>2026-04-07T11:15:31Z</time></trkpt><trkpt lat="38.09522732156735" lon="-1.1404165982501797"><ele>265.59999999999997</ele><time>2026-04-07T11:15:32Z</time></trkpt><trkpt lat="38.09511738916366" lon="-1.1404067689449324"><ele>266.4</ele><time>2026-04-07T11:15:33Z</time></trkpt><trkpt lat="38.09502769335776" lon="-1.1404211533263031"><ele>267.2</ele><time>2026-04-07T11:15:34Z</time></trkpt><trkpt lat="38.09495802034121" lon="-1.1404479944424708"><ele>268.0</ele><time>2026-04-07T11:15:35Z</time></trkpt><trkpt lat="38.094814892901375" lon="-1.140431929665288"><ele>268.2</ele><time>2026-04-07T11:15:37Z</time></trkpt><trkpt lat="38.094738709364854" lon="-1.1403937688308814"><ele>268.4</ele><time>2026-04-07T11:15:38Z</time></trkpt><trkpt lat="38.09465995462661" lon="-1.140342048093979"><ele>268.59999999999997</ele><time>2026-04-07T11:15:39Z</time></trkpt><trkpt lat="38.09457568466486" lon="-1.1402708489275055"><ele>268.8</ele><time>2026-04-07T11:15:40Z</time></trkpt><trkpt lat="38.09450296154209" lon="-1.1401877161074323"><ele>269.0</ele><time>2026-04-07T11:15:41Z</time></trkpt><trkpt lat="38.094432317484475" lon="-1.140120384197226"><ele>269.0</ele><time>2026-04-07T11:15:42Z</time></trkpt><trkpt lat="38.09435693267908" lon="-1.1400722688842324"><ele>269.0</ele><time>2026-04-07T11:15:43Z</time></trkpt><trkpt lat="38.09428623037993" lon="-1.1400405479623634"><ele>269.0</ele><time>2026-04-07T11:15:44Z</time></trkpt><trkpt lat="38.094188201553386" lon="-1.1399595998358962"><ele>269.0</ele><time>2026-04-07T11:15:46Z</time></trkpt><trkpt lat="38.09411263749867" lon="-1.139823426973305"><ele>269.0</ele><time>2026-04-07T11:15:48Z</time></trkpt><trkpt lat="38.09406975241479" lon="-1.1397374409389498"><ele>270.0</ele><time>2026-04-07T11:15:49Z</time></trkpt><trkpt lat="38.094020170516565" lon="-1.1396458753862455"><ele>271.0</ele><time>2026-04-07T11:15:50Z</time></trkpt><trkpt lat="38.09396708425691" lon="-1.1395645047026008"><ele>272.0</ele><time>2026-04-07T11:15:51Z</time></trkpt><trkpt lat="38.09389946164372" lon="-1.1394823020029579"><ele>273.0</ele><time>2026-04-07T11:15:52Z</time></trkpt><trkpt lat="38.0938225532325" lon="-1.139396079997026"><ele>274.0</ele><time>2026-04-07T11:15:53Z</time></trkpt><trkpt lat="38.09374049246228" lon="-1.1393092570648296"><ele>274.0</ele><time>2026-04-07T11:15:54Z</time></trkpt><trkpt lat="38.09365845241184" lon="-1.13923515743082"><ele>274.0</ele><time>2026-04-07T11:15:55Z</time></trkpt><trkpt lat="38.09357145165471" lon="-1.1391502560600233"><ele>274.0</ele><time>2026-04-07T11:15:56Z</time></trkpt><trkpt lat="38.09348096297601" lon="-1.1390564835203425"><ele>274.0</ele><time>2026-04-07T11:15:57Z</time></trkpt><trkpt lat="38.09339666342063" lon="-1.138963389895253"><ele>274.0</ele><time>2026-04-07T11:15:58Z</time></trkpt><trkpt lat="38.093318927149035" lon="-1.1388798694344622"><ele>274.16666666666663</ele><time>2026-04-07T11:15:59Z</time></trkpt><trkpt lat="38.09324284853901" lon="-1.1388223616250783"><ele>274.3333333333333</ele><time>2026-04-07T11:16:00Z</time></trkpt><trkpt lat="38.09316013125897" lon="-1.1387965631236607"><ele>274.5</ele><time>2026-04-07T11:16:01Z</time></trkpt><trkpt lat="38.09307084332411" lon="-1.1387913005366472"><ele>274.6666666666667</ele><time>2026-04-07T11:16:02Z</time></trkpt><trkpt lat="38.09300266231058" lon="-1.1387780932560314"><ele>274.83333333333337</ele><time>2026-04-07T11:16:03Z</time></trkpt><trkpt lat="38.09295034097831" lon="-1.1387209367249334"><ele>275.0</ele><time>2026-04-07T11:16:04Z</time></trkpt><trkpt lat="38.09288620166336" lon="-1.1386342562266625"><ele>275.0</ele><time>2026-04-07T11:16:05Z</time></trkpt><trkpt lat="38.09281400350755" lon="-1.1385217205939853"><ele>275.0</ele><time>2026-04-07T11:16:06Z</time></trkpt><trkpt lat="38.092747986397264" lon="-1.1384118470240554"><ele>275.0</ele><time>2026-04-07T11:16:07Z</time></trkpt><trkpt lat="38.09269098561798" lon="-1.1383176346664818"><ele>275.0</ele><time>2026-04-07T11:16:08Z</time></trkpt><trkpt lat="38.09264645842412" lon="-1.1382287458372369"><ele>275.0</ele><time>2026-04-07T11:16:09Z</time></trkpt><trkpt lat="38.09260669688337" lon="-1.1381310007256376"><ele>275.4</ele><time>2026-04-07T11:16:10Z</time></trkpt><trkpt lat="38.09255544936415" lon="-1.1380349214630072"><ele>275.8</ele><time>2026-04-07T11:16:11Z</time></trkpt><trkpt lat="38.09249351466412" lon="-1.1379512652896955"><ele>276.2</ele><time>2026-04-07T11:16:12Z</time></trkpt><trkpt lat="38.092427778301" lon="-1.1378942075845644"><ele>276.6</ele><time>2026-04-07T11:16:13Z</time></trkpt><trkpt lat="38.092348185957825" lon="-1.1378411219130466"><ele>277.0</ele><time>2026-04-07T11:16:14Z</time></trkpt><trkpt lat="38.09223279279349" lon="-1.1377993368087875"><ele>277.5</ele><time>2026-04-07T11:16:15Z</time></trkpt><trkpt lat="38.09211488177018" lon="-1.137748946137717"><ele>278.0</ele><time>2026-04-07T11:16:16Z</time></trkpt><trkpt lat="38.09202012630365" lon="-1.1376665063929585"><ele>278.5</ele><time>2026-04-07T11:16:17Z</time></trkpt><trkpt lat="38.091933165513915" lon="-1.1375590531529596"><ele>279.0</ele><time>2026-04-07T11:16:18Z</time></trkpt><trkpt lat="38.091863003447514" lon="-1.137436957071764"><ele>279.0</ele><time>2026-04-07T11:16:19Z</time></trkpt><trkpt lat="38.091802747209165" lon="-1.13734962235601"><ele>279.0</ele><time>2026-04-07T11:16:20Z</time></trkpt><trkpt lat="38.091732588222875" lon="-1.1372689765097135"><ele>279.0</ele><time>2026-04-07T11:16:21Z</time></trkpt><trkpt lat="38.091652739447134" lon="-1.1371855117979954"><ele>279.0</ele><time>2026-04-07T11:16:22Z</time></trkpt><trkpt lat="38.0915663896152" lon="-1.137099858766186"><ele>279.0</ele><time>2026-04-07T11:16:23Z</time></trkpt><trkpt lat="38.09147016897973" lon="-1.1370210259306077"><ele>279.0</ele><time>2026-04-07T11:16:24Z</time></trkpt><trkpt lat="38.091364762588434" lon="-1.1369513150278108"><ele>279.0</ele><time>2026-04-07T11:16:25Z</time></trkpt><trkpt lat="38.09125728569943" lon="-1.1368879986025329"><ele>279.0</ele><time>2026-04-07T11:16:26Z</time></trkpt><trkpt lat="38.091158028223184" lon="-1.1368296164996738"><ele>279.0</ele><time>2026-04-07T11:16:27Z</time></trkpt><trkpt lat="38.09106535836516" lon="-1.1367835507545772"><ele>279.0</ele><time>2026-04-07T11:16:28Z</time></trkpt><trkpt lat="38.09097624159373" lon="-1.1367433084565126"><ele>279.0</ele><time>2026-04-07T11:16:29Z</time></trkpt><trkpt lat="38.09087753952845" lon="-1.1366933937435413"><ele>279.0</ele><time>2026-04-07T11:16:30Z</time></trkpt><trkpt lat="38.090770984139496" lon="-1.1366227072081352"><ele>279.0</ele><time>2026-04-07T11:16:31Z</time></trkpt><trkpt lat="38.09067296021135" lon="-1.136550542459717"><ele>279.0</ele><time>2026-04-07T11:16:32Z</time></trkpt><trkpt lat="38.090581260937" lon="-1.13647198337708"><ele>279.0</ele><time>2026-04-07T11:16:33Z</time></trkpt><trkpt lat="38.09049318824472" lon="-1.1363978289863745"><ele>279.0</ele><time>2026-04-07T11:16:34Z</time></trkpt><trkpt lat="38.09040182958642" lon="-1.1363406124858115"><ele>279.0</ele><time>2026-04-07T11:16:35Z</time></trkpt><trkpt lat="38.09030701622339" lon="-1.136297573973145"><ele>279.0</ele><time>2026-04-07T11:16:36Z</time></trkpt><trkpt lat="38.09021295254625" lon="-1.1362568433034481"><ele>279.0</ele><time>2026-04-07T11:16:37Z</time></trkpt><trkpt lat="38.090115494468385" lon="-1.1362303442689965"><ele>279.0</ele><time>2026-04-07T11:16:38Z</time></trkpt><trkpt lat="38.090019273600696" lon="-1.136229138853864"><ele>279.0</ele><time>2026-04-07T11:16:39Z</time></trkpt><trkpt lat="38.08991818216051" lon="-1.1362540137853365"><ele>279.0</ele><time>2026-04-07T11:16:40Z</time></trkpt><trkpt lat="38.0898143896764" lon="-1.136289247374937"><ele>279.0</ele><time>2026-04-07T11:16:41Z</time></trkpt><trkpt lat="38.089710858452925" lon="-1.1363350551628988"><ele>279.0</ele><time>2026-04-07T11:16:42Z</time></trkpt><trkpt lat="38.089607823133775" lon="-1.1363869232795885"><ele>279.4</ele><time>2026-04-07T11:16:43Z</time></trkpt><trkpt lat="38.08949447225935" lon="-1.1364426564587675"><ele>279.79999999999995</ele><time>2026-04-07T11:16:44Z</time></trkpt><trkpt lat="38.08938230272082" lon="-1.1364921599957836"><ele>280.20000000000005</ele><time>2026-04-07T11:16:45Z</time></trkpt><trkpt lat="38.08928323824476" lon="-1.136534641732529"><ele>280.6</ele><time>2026-04-07T11:16:46Z</time></trkpt><trkpt lat="38.08921234469574" lon="-1.1365782374980429"><ele>281.0</ele><time>2026-04-07T11:16:47Z</time></trkpt><trkpt lat="38.089153365063616" lon="-1.136653551136899"><ele>281.8</ele><time>2026-04-07T11:16:48Z</time></trkpt><trkpt lat="38.08909864225104" lon="-1.1367654344196798"><ele>282.6</ele><time>2026-04-07T11:16:49Z</time></trkpt><trkpt lat="38.08903696072797" lon="-1.136852461007073"><ele>283.4</ele><time>2026-04-07T11:16:50Z</time></trkpt><trkpt lat="38.088951715495675" lon="-1.136905044442529"><ele>284.2</ele><time>2026-04-07T11:16:51Z</time></trkpt><trkpt lat="38.08882916852655" lon="-1.1369368679610463"><ele>285.0</ele><time>2026-04-07T11:16:52Z</time></trkpt><trkpt lat="38.08870429649718" lon="-1.1369777516506052"><ele>285.0</ele><time>2026-04-07T11:16:53Z</time></trkpt><trkpt lat="38.08858983368468" lon="-1.1370330084900366"><ele>285.0</ele><time>2026-04-07T11:16:54Z</time></trkpt><trkpt lat="38.08848982029388" lon="-1.13710038720478"><ele>285.0</ele><time>2026-04-07T11:16:55Z</time></trkpt><trkpt lat="38.0884037868271" lon="-1.1371866471586196"><ele>285.0</ele><time>2026-04-07T11:16:56Z</time></trkpt><trkpt lat="38.08832109584847" lon="-1.1372644928829958"><ele>285.0</ele><time>2026-04-07T11:16:57Z</time></trkpt><trkpt lat="38.08824612885069" lon="-1.1373040586652796"><ele>285.1428571428571</ele><time>2026-04-07T11:16:58Z</time></trkpt><trkpt lat="38.0881796225709" lon="-1.1373080385254053"><ele>285.2857142857143</ele><time>2026-04-07T11:16:59Z</time></trkpt><trkpt lat="38.08811515909677" lon="-1.1372812095244471"><ele>285.42857142857144</ele><time>2026-04-07T11:17:00Z</time></trkpt><trkpt lat="38.08805456170146" lon="-1.137222368685005"><ele>285.57142857142856</ele><time>2026-04-07T11:17:01Z</time></trkpt><trkpt lat="38.088003132056514" lon="-1.1371399251091778"><ele>285.7142857142857</ele><time>2026-04-07T11:17:02Z</time></trkpt><trkpt lat="38.0879611108089" lon="-1.1370644569399493"><ele>285.85714285714283</ele><time>2026-04-07T11:17:03Z</time></trkpt><trkpt lat="38.087913596144276" lon="-1.1370007755491993"><ele>286.0</ele><time>2026-04-07T11:17:04Z</time></trkpt><trkpt lat="38.08786446234291" lon="-1.1369477250391478"><ele>286.0</ele><time>2026-04-07T11:17:05Z</time></trkpt><trkpt lat="38.087754105750314" lon="-1.1368828531600876"><ele>286.0</ele><time>2026-04-07T11:17:07Z</time></trkpt><trkpt lat="38.08768067705274" lon="-1.136870904209262"><ele>286.0</ele><time>2026-04-07T11:17:08Z</time></trkpt><trkpt lat="38.087607154075286" lon="-1.136876786290264"><ele>286.0</ele><time>2026-04-07T11:17:09Z</time></trkpt><trkpt lat="38.08752489208948" lon="-1.1368952998276516"><ele>286.0</ele><time>2026-04-07T11:17:11Z</time></trkpt><trkpt lat="38.08745512665058" lon="-1.136864603979542"><ele>286.0</ele><time>2026-04-07T11:17:13Z</time></trkpt><trkpt lat="38.08734804212939" lon="-1.1368241544118796"><ele>285.6</ele><time>2026-04-07T11:17:15Z</time></trkpt><trkpt lat="38.08724201963465" lon="-1.1367963454646857"><ele>285.20000000000005</ele><time>2026-04-07T11:17:17Z</time></trkpt><trkpt lat="38.08715067818795" lon="-1.1368216722911926"><ele>284.79999999999995</ele><time>2026-04-07T11:17:18Z</time></trkpt><trkpt lat="38.08703889151944" lon="-1.1368523904050851"><ele>284.4</ele><time>2026-04-07T11:17:19Z</time></trkpt><trkpt lat="38.08693390186031" lon="-1.1368710859051316"><ele>284.0</ele><time>2026-04-07T11:17:20Z</time></trkpt><trkpt lat="38.086842561997834" lon="-1.136875326632308"><ele>284.0</ele><time>2026-04-07T11:17:21Z</time></trkpt><trkpt lat="38.08676326355897" lon="-1.136855771839287"><ele>284.0</ele><time>2026-04-07T11:17:22Z</time></trkpt><trkpt lat="38.08667713888659" lon="-1.1368224713904405"><ele>284.0</ele><time>2026-04-07T11:17:23Z</time></trkpt><trkpt lat="38.08659142583629" lon="-1.1367567603478135"><ele>284.0</ele><time>2026-04-07T11:17:24Z</time></trkpt><trkpt lat="38.08650029502765" lon="-1.1366814308784183"><ele>284.0</ele><time>2026-04-07T11:17:25Z</time></trkpt><trkpt lat="38.086410674723204" lon="-1.1366071254325305"><ele>282.8</ele><time>2026-04-07T11:17:26Z</time></trkpt><trkpt lat="38.08631861962598" lon="-1.1365490786924266"><ele>281.59999999999997</ele><time>2026-04-07T11:17:27Z</time></trkpt><trkpt lat="38.08623773899543" lon="-1.136501990638497"><ele>280.4</ele><time>2026-04-07T11:17:28Z</time></trkpt><trkpt lat="38.086133174887635" lon="-1.136472351927008"><ele>279.2</ele><time>2026-04-07T11:17:29Z</time></trkpt><trkpt lat="38.086029155988555" lon="-1.1364479593692451"><ele>278.0</ele><time>2026-04-07T11:17:30Z</time></trkpt><trkpt lat="38.085914026025954" lon="-1.1364286934942054"><ele>278.0</ele><time>2026-04-07T11:17:31Z</time></trkpt><trkpt lat="38.08580379836307" lon="-1.1364208686097275"><ele>278.0</ele><time>2026-04-07T11:17:32Z</time></trkpt><trkpt lat="38.08569714000042" lon="-1.136429457535218"><ele>278.0</ele><time>2026-04-07T11:17:33Z</time></trkpt><trkpt lat="38.085580503261774" lon="-1.136450420229644"><ele>278.0</ele><time>2026-04-07T11:17:34Z</time></trkpt><trkpt lat="38.085468357199844" lon="-1.136465052807823"><ele>278.0</ele><time>2026-04-07T11:17:35Z</time></trkpt><trkpt lat="38.08536729338578" lon="-1.1364667007758997"><ele>277.6</ele><time>2026-04-07T11:17:36Z</time></trkpt><trkpt lat="38.085271075861215" lon="-1.1364700291519751"><ele>277.20000000000005</ele><time>2026-04-07T11:17:37Z</time></trkpt><trkpt lat="38.08518460521945" lon="-1.136479566912776"><ele>276.8</ele><time>2026-04-07T11:17:38Z</time></trkpt><trkpt lat="38.08509294823397" lon="-1.1365102408750962"><ele>276.40000000000003</ele><time>2026-04-07T11:17:39Z</time></trkpt><trkpt lat="38.085004667092676" lon="-1.1365668230862265"><ele>276.0</ele><time>2026-04-07T11:17:40Z</time></trkpt><trkpt lat="38.08492048646954" lon="-1.136646833147551"><ele>276.0</ele><time>2026-04-07T11:17:41Z</time></trkpt><trkpt lat="38.0848372194632" lon="-1.136756797922895"><ele>276.0</ele><time>2026-04-07T11:17:42Z</time></trkpt><trkpt lat="38.08475966756708" lon="-1.1368634008130698"><ele>276.0</ele><time>2026-04-07T11:17:43Z</time></trkpt><trkpt lat="38.08468890644767" lon="-1.1369888788573794"><ele>276.0</ele><time>2026-04-07T11:17:44Z</time></trkpt><trkpt lat="38.08461739316715" lon="-1.1370890743668034"><ele>276.0</ele><time>2026-04-07T11:17:45Z</time></trkpt><trkpt lat="38.084520474719014" lon="-1.137183533907251"><ele>276.0</ele><time>2026-04-07T11:17:46Z</time></trkpt><trkpt lat="38.08440298929717" lon="-1.1372729861030877"><ele>276.0</ele><time>2026-04-07T11:17:47Z</time></trkpt><trkpt lat="38.08429951773512" lon="-1.1373605919887022"><ele>276.0</ele><time>2026-04-07T11:17:48Z</time></trkpt><trkpt lat="38.08419824243559" lon="-1.1374503944571124"><ele>277.2</ele><time>2026-04-07T11:17:49Z</time></trkpt><trkpt lat="38.0841018835834" lon="-1.1375298430375378"><ele>278.40000000000003</ele><time>2026-04-07T11:17:50Z</time></trkpt><trkpt lat="38.083999987043846" lon="-1.1375794117121607"><ele>279.6</ele><time>2026-04-07T11:17:51Z</time></trkpt><trkpt lat="38.08390984818603" lon="-1.137610183224004"><ele>280.8</ele><time>2026-04-07T11:17:52Z</time></trkpt><trkpt lat="38.08382985574413" lon="-1.1376416558000828"><ele>282.0</ele><time>2026-04-07T11:17:53Z</time></trkpt><trkpt lat="38.083756862410574" lon="-1.137631470337436"><ele>282.0</ele><time>2026-04-07T11:17:54Z</time></trkpt><trkpt lat="38.08369361339196" lon="-1.1375649119974884"><ele>282.0</ele><time>2026-04-07T11:17:55Z</time></trkpt><trkpt lat="38.083611265837746" lon="-1.137507996086139"><ele>282.0</ele><time>2026-04-07T11:17:56Z</time></trkpt><trkpt lat="38.08351921005731" lon="-1.137443841282203"><ele>282.0</ele><time>2026-04-07T11:17:57Z</time></trkpt><trkpt lat="38.08341895871812" lon="-1.1373771523327372"><ele>282.0</ele><time>2026-04-07T11:17:58Z</time></trkpt><trkpt lat="38.08332020083656" lon="-1.1373146235021099"><ele>282.8</ele><time>2026-04-07T11:17:59Z</time></trkpt><trkpt lat="38.0832193530147" lon="-1.1372566510047075"><ele>283.6</ele><time>2026-04-07T11:18:00Z</time></trkpt><trkpt lat="38.08311998492606" lon="-1.1372054302587933"><ele>284.40000000000003</ele><time>2026-04-07T11:18:01Z</time></trkpt><trkpt lat="38.08302022175453" lon="-1.1371487182171272"><ele>285.2</ele><time>2026-04-07T11:18:02Z</time></trkpt><trkpt lat="38.08291894518264" lon="-1.1370746877632867"><ele>286.0</ele><time>2026-04-07T11:18:03Z</time></trkpt><trkpt lat="38.08281757423598" lon="-1.1370022242531181"><ele>286.0</ele><time>2026-04-07T11:18:04Z</time></trkpt><trkpt lat="38.08272283114198" lon="-1.1369404197610302"><ele>286.0</ele><time>2026-04-07T11:18:05Z</time></trkpt><trkpt lat="38.082623684894195" lon="-1.1369016047912708"><ele>286.0</ele><time>2026-04-07T11:18:06Z</time></trkpt><trkpt lat="38.08253765230493" lon="-1.1368368770451687"><ele>286.0</ele><time>2026-04-07T11:18:07Z</time></trkpt><trkpt lat="38.08245454275703" lon="-1.1368048013580838"><ele>286.0</ele><time>2026-04-07T11:18:08Z</time></trkpt><trkpt lat="38.082378634733324" lon="-1.1367836190703202"><ele>285.66666666666663</ele><time>2026-04-07T11:18:09Z</time></trkpt><trkpt lat="38.082298928293504" lon="-1.1367793259885672"><ele>285.3333333333333</ele><time>2026-04-07T11:18:10Z</time></trkpt><trkpt lat="38.082218719461544" lon="-1.1368026056011633"><ele>285.0</ele><time>2026-04-07T11:18:11Z</time></trkpt><trkpt lat="38.08213924412093" lon="-1.1368448308880434"><ele>284.6666666666667</ele><time>2026-04-07T11:18:12Z</time></trkpt><trkpt lat="38.08206759277679" lon="-1.136882307474462"><ele>284.33333333333337</ele><time>2026-04-07T11:18:13Z</time></trkpt><trkpt lat="38.081984812360616" lon="-1.1368946297493983"><ele>284.0</ele><time>2026-04-07T11:18:14Z</time></trkpt><trkpt lat="38.081878210360486" lon="-1.136901357074106"><ele>284.0</ele><time>2026-04-07T11:18:15Z</time></trkpt><trkpt lat="38.0817754055109" lon="-1.1369135179347305"><ele>284.0</ele><time>2026-04-07T11:18:16Z</time></trkpt><trkpt lat="38.081672305786235" lon="-1.1369386454650563"><ele>284.0</ele><time>2026-04-07T11:18:17Z</time></trkpt><trkpt lat="38.08156893361228" lon="-1.1369665663422002"><ele>284.0</ele><time>2026-04-07T11:18:18Z</time></trkpt><trkpt lat="38.08146734105403" lon="-1.136997863627652"><ele>284.0</ele><time>2026-04-07T11:18:19Z</time></trkpt><trkpt lat="38.08136759871632" lon="-1.1370303690537913"><ele>282.4</ele><time>2026-04-07T11:18:20Z</time></trkpt><trkpt lat="38.08126979043832" lon="-1.1370712192251422"><ele>280.79999999999995</ele><time>2026-04-07T11:18:21Z</time></trkpt><trkpt lat="38.08118453581617" lon="-1.1371151605135519"><ele>279.20000000000005</ele><time>2026-04-07T11:18:22Z</time></trkpt><trkpt lat="38.08109945148809" lon="-1.1371721497779708"><ele>277.6</ele><time>2026-04-07T11:18:23Z</time></trkpt><trkpt lat="38.081021888275096" lon="-1.1372331503104587"><ele>276.0</ele><time>2026-04-07T11:18:24Z</time></trkpt><trkpt lat="38.080943298035734" lon="-1.1373022131611565"><ele>276.0</ele><time>2026-04-07T11:18:25Z</time></trkpt><trkpt lat="38.08086546577659" lon="-1.137380986703177"><ele>276.0</ele><time>2026-04-07T11:18:26Z</time></trkpt><trkpt lat="38.08078744210844" lon="-1.1374637177717095"><ele>276.0</ele><time>2026-04-07T11:18:27Z</time></trkpt><trkpt lat="38.08071720885807" lon="-1.1375427004899217"><ele>276.0</ele><time>2026-04-07T11:18:28Z</time></trkpt><trkpt lat="38.080648610030025" lon="-1.1376193348354937"><ele>276.0</ele><time>2026-04-07T11:18:29Z</time></trkpt><trkpt lat="38.08059033799542" lon="-1.1376959795690014"><ele>273.2</ele><time>2026-04-07T11:18:30Z</time></trkpt><trkpt lat="38.08055342334532" lon="-1.1377747829163034"><ele>270.40000000000003</ele><time>2026-04-07T11:18:31Z</time></trkpt><trkpt lat="38.08053252394379" lon="-1.1379007173242133"><ele>267.6</ele><time>2026-04-07T11:18:33Z</time></trkpt><trkpt lat="38.08053811722761" lon="-1.1380045650915462"><ele>264.8</ele><time>2026-04-07T11:18:35Z</time></trkpt><trkpt lat="38.08056189004334" lon="-1.1380965466518107"><ele>262.0</ele><time>2026-04-07T11:18:37Z</time></trkpt><trkpt lat="38.080464867000444" lon="-1.1382068842719477"><ele>264.3333333333333</ele><time>2026-04-07T11:18:40Z</time></trkpt><trkpt lat="38.08043155629947" lon="-1.1382937851563373"><ele>266.66666666666663</ele><time>2026-04-07T11:18:43Z</time></trkpt><trkpt lat="38.08039772138427" lon="-1.138376684866552"><ele>269.0</ele><time>2026-04-07T11:18:45Z</time></trkpt><trkpt lat="38.08034467988663" lon="-1.138460941836319"><ele>271.3333333333333</ele><time>2026-04-07T11:18:47Z</time></trkpt><trkpt lat="38.080272732299626" lon="-1.1385532240000142"><ele>273.6666666666667</ele><time>2026-04-07T11:18:49Z</time></trkpt><trkpt lat="38.080240124626265" lon="-1.1386285967746235"><ele>276.0</ele><time>2026-04-07T11:18:50Z</time></trkpt><trkpt lat="38.080201152439024" lon="-1.138695122696969"><ele>276.0</ele><time>2026-04-07T11:18:51Z</time></trkpt><trkpt lat="38.08013227807801" lon="-1.1388538204486163"><ele>276.0</ele><time>2026-04-07T11:18:53Z</time></trkpt><trkpt lat="38.08002533342923" lon="-1.1387829743343916"><ele>276.0</ele><time>2026-04-07T11:18:54Z</time></trkpt><trkpt lat="38.0799448582017" lon="-1.1388140230154642"><ele>276.0</ele><time>2026-04-07T11:18:55Z</time></trkpt><trkpt lat="38.07987401952126" lon="-1.1388461103073386"><ele>276.0</ele><time>2026-04-07T11:18:56Z</time></trkpt><trkpt lat="38.07980661024218" lon="-1.138887404195834"><ele>276.0</ele><time>2026-04-07T11:18:57Z</time></trkpt><trkpt lat="38.079748754671066" lon="-1.138929639281585"><ele>276.0</ele><time>2026-04-07T11:18:58Z</time></trkpt><trkpt lat="38.07969978981392" lon="-1.1389867629143042"><ele>276.0</ele><time>2026-04-07T11:18:59Z</time></trkpt><trkpt lat="38.07966105143437" lon="-1.1390539821918726"><ele>276.0</ele><time>2026-04-07T11:19:00Z</time></trkpt><trkpt lat="38.07963731394889" lon="-1.1391292329317897"><ele>276.0</ele><time>2026-04-07T11:19:01Z</time></trkpt><trkpt lat="38.079623623748965" lon="-1.1392438884219864"><ele>276.0</ele><time>2026-04-07T11:19:03Z</time></trkpt><trkpt lat="38.07969343803597" lon="-1.139387504782979"><ele>277.3333333333333</ele><time>2026-04-07T11:19:05Z</time></trkpt><trkpt lat="38.07973161259374" lon="-1.1395279690617026"><ele>278.6666666666667</ele><time>2026-04-07T11:19:07Z</time></trkpt><trkpt lat="38.0797333534381" lon="-1.139610624034043"><ele>280.0</ele><time>2026-04-07T11:19:08Z</time></trkpt><trkpt lat="38.07972455353971" lon="-1.1396947164510072"><ele>281.33333333333337</ele><time>2026-04-07T11:19:09Z</time></trkpt><trkpt lat="38.07970566627148" lon="-1.1397734162739632"><ele>282.6666666666667</ele><time>2026-04-07T11:19:10Z</time></trkpt><trkpt lat="38.07967587837299" lon="-1.1398449065247815"><ele>284.0</ele><time>2026-04-07T11:19:11Z</time></trkpt><trkpt lat="38.079642223353986" lon="-1.1399285265565235"><ele>284.4</ele><time>2026-04-07T11:19:12Z</time></trkpt><trkpt lat="38.07960233218264" lon="-1.1400024123527328"><ele>284.79999999999995</ele><time>2026-04-07T11:19:13Z</time></trkpt><trkpt lat="38.07954494810106" lon="-1.1400718179454221"><ele>285.20000000000005</ele><time>2026-04-07T11:19:14Z</time></trkpt><trkpt lat="38.079468793497895" lon="-1.1401457494033276"><ele>285.6</ele><time>2026-04-07T11:19:15Z</time></trkpt><trkpt lat="38.07937311037932" lon="-1.140219304244723"><ele>286.0</ele><time>2026-04-07T11:19:16Z</time></trkpt><trkpt lat="38.07927349412941" lon="-1.1402955569292463"><ele>286.0</ele><time>2026-04-07T11:19:17Z</time></trkpt><trkpt lat="38.07918557221112" lon="-1.1403715602055096"><ele>286.0</ele><time>2026-04-07T11:19:18Z</time></trkpt><trkpt lat="38.07910386090099" lon="-1.140451686994872"><ele>286.0</ele><time>2026-04-07T11:19:19Z</time></trkpt><trkpt lat="38.07902864192369" lon="-1.1405165959649166"><ele>286.0</ele><time>2026-04-07T11:19:20Z</time></trkpt><trkpt lat="38.07894636702884" lon="-1.1405962252263964"><ele>286.0</ele><time>2026-04-07T11:19:21Z</time></trkpt><trkpt lat="38.07886497552256" lon="-1.1406828343328634"><ele>283.8</ele><time>2026-04-07T11:19:22Z</time></trkpt><trkpt lat="38.07879729297093" lon="-1.140781704335574"><ele>281.6</ele><time>2026-04-07T11:19:23Z</time></trkpt><trkpt lat="38.07874553856175" lon="-1.140879477092529"><ele>279.4</ele><time>2026-04-07T11:19:24Z</time></trkpt><trkpt lat="38.078691183903466" lon="-1.1409929137306136"><ele>277.2</ele><time>2026-04-07T11:19:25Z</time></trkpt><trkpt lat="38.07864422743376" lon="-1.1411106646182294"><ele>275.0</ele><time>2026-04-07T11:19:26Z</time></trkpt><trkpt lat="38.078605689043115" lon="-1.1412166302038744"><ele>275.0</ele><time>2026-04-07T11:19:27Z</time></trkpt><trkpt lat="38.07856849794255" lon="-1.1413046206846136"><ele>275.0</ele><time>2026-04-07T11:19:28Z</time></trkpt><trkpt lat="38.07853256497101" lon="-1.1413947325793818"><ele>275.0</ele><time>2026-04-07T11:19:29Z</time></trkpt><trkpt lat="38.078501492723376" lon="-1.1414829869625143"><ele>275.0</ele><time>2026-04-07T11:19:30Z</time></trkpt><trkpt lat="38.07848096477878" lon="-1.1415857205875763"><ele>275.0</ele><time>2026-04-07T11:19:31Z</time></trkpt><trkpt lat="38.07846298860192" lon="-1.141689315751243"><ele>275.0</ele><time>2026-04-07T11:19:32Z</time></trkpt><trkpt lat="38.07844740787975" lon="-1.141789503215099"><ele>274.0</ele><time>2026-04-07T11:19:33Z</time></trkpt><trkpt lat="38.07841814515983" lon="-1.1418837050355979"><ele>273.0</ele><time>2026-04-07T11:19:34Z</time></trkpt><trkpt lat="38.078377774601314" lon="-1.14197162526211"><ele>272.0</ele><time>2026-04-07T11:19:35Z</time></trkpt><trkpt lat="38.0783366018478" lon="-1.1420527449202071"><ele>271.0</ele><time>2026-04-07T11:19:36Z</time></trkpt><trkpt lat="38.0782635782161" lon="-1.1420982682377994"><ele>270.0</ele><time>2026-04-07T11:19:37Z</time></trkpt><trkpt lat="38.07818269231901" lon="-1.1421111807788187"><ele>269.0</ele><time>2026-04-07T11:19:38Z</time></trkpt><trkpt lat="38.07811918000439" lon="-1.1421533593828814"><ele>267.2</ele><time>2026-04-07T11:19:39Z</time></trkpt><trkpt lat="38.07806467970755" lon="-1.1422689922283402"><ele>265.4</ele><time>2026-04-07T11:19:41Z</time></trkpt><trkpt lat="38.07812024627409" lon="-1.1424258398491154"><ele>263.6</ele><time>2026-04-07T11:19:43Z</time></trkpt><trkpt lat="38.07815623941984" lon="-1.142519427955675"><ele>261.8</ele><time>2026-04-07T11:19:44Z</time></trkpt><trkpt lat="38.078167013529416" lon="-1.1426403689138582"><ele>260.0</ele><time>2026-04-07T11:19:45Z</time></trkpt><trkpt lat="38.07816057482729" lon="-1.1427752462736958"><ele>260.0</ele><time>2026-04-07T11:19:46Z</time></trkpt><trkpt lat="38.07814523646287" lon="-1.1429471286916397"><ele>260.0</ele><time>2026-04-07T11:19:47Z</time></trkpt><trkpt lat="38.078133202948656" lon="-1.1431357477626793"><ele>260.0</ele><time>2026-04-07T11:19:48Z</time></trkpt><trkpt lat="38.07811735321827" lon="-1.1432888080793775"><ele>260.0</ele><time>2026-04-07T11:19:49Z</time></trkpt><trkpt lat="38.07808252628031" lon="-1.143430842618859"><ele>261.6</ele><time>2026-04-07T11:19:50Z</time></trkpt><trkpt lat="38.07804944514031" lon="-1.1435523382058443"><ele>263.2</ele><time>2026-04-07T11:19:51Z</time></trkpt><trkpt lat="38.07802045390994" lon="-1.1436718610243173"><ele>264.8</ele><time>2026-04-07T11:19:52Z</time></trkpt><trkpt lat="38.07799936400572" lon="-1.143769668377697"><ele>266.4</ele><time>2026-04-07T11:19:53Z</time></trkpt><trkpt lat="38.07796531355876" lon="-1.1438458540028877"><ele>268.0</ele><time>2026-04-07T11:19:54Z</time></trkpt><trkpt lat="38.07786548509682" lon="-1.143875546103134"><ele>268.0</ele><time>2026-04-07T11:19:55Z</time></trkpt><trkpt lat="38.07779684769935" lon="-1.1439249823103352"><ele>268.0</ele><time>2026-04-07T11:19:56Z</time></trkpt><trkpt lat="38.07773505130929" lon="-1.1440479956402962"><ele>268.0</ele><time>2026-04-07T11:19:58Z</time></trkpt><trkpt lat="38.077752012387585" lon="-1.1441341597355899"><ele>268.0</ele><time>2026-04-07T11:19:59Z</time></trkpt><trkpt lat="38.07775591829363" lon="-1.1442274625685764"><ele>268.0</ele><time>2026-04-07T11:20:00Z</time></trkpt><trkpt lat="38.077788621750194" lon="-1.1443466382871974"><ele>268.0</ele><time>2026-04-07T11:20:01Z</time></trkpt><trkpt lat="38.077820099778044" lon="-1.1444521755628836"><ele>268.6</ele><time>2026-04-07T11:20:02Z</time></trkpt><trkpt lat="38.07784656865151" lon="-1.1445722249788277"><ele>269.20000000000005</ele><time>2026-04-07T11:20:03Z</time></trkpt><trkpt lat="38.07786375621193" lon="-1.1446821367654385"><ele>269.8</ele><time>2026-04-07T11:20:04Z</time></trkpt><trkpt lat="38.077893592236244" lon="-1.144797514392941"><ele>270.40000000000003</ele><time>2026-04-07T11:20:05Z</time></trkpt><trkpt lat="38.077934323608886" lon="-1.1449228672751985"><ele>271.0</ele><time>2026-04-07T11:20:06Z</time></trkpt><trkpt lat="38.07796751633546" lon="-1.1450523708009708"><ele>271.0</ele><time>2026-04-07T11:20:07Z</time></trkpt><trkpt lat="38.077990603289265" lon="-1.145171512354144"><ele>271.0</ele><time>2026-04-07T11:20:08Z</time></trkpt><trkpt lat="38.07800666482162" lon="-1.1452776201809796"><ele>271.0</ele><time>2026-04-07T11:20:09Z</time></trkpt><trkpt lat="38.07800595390515" lon="-1.1453909876358777"><ele>271.0</ele><time>2026-04-07T11:20:10Z</time></trkpt><trkpt lat="38.07798707577261" lon="-1.1455260956533688"><ele>271.0</ele><time>2026-04-07T11:20:11Z</time></trkpt><trkpt lat="38.077976921480214" lon="-1.1456630016529052"><ele>271.0</ele><time>2026-04-07T11:20:12Z</time></trkpt><trkpt lat="38.077986213964515" lon="-1.14575773379597"><ele>271.0</ele><time>2026-04-07T11:20:13Z</time></trkpt><trkpt lat="38.07798393512416" lon="-1.1458392970097415"><ele>271.0</ele><time>2026-04-07T11:20:14Z</time></trkpt><trkpt lat="38.07795819349437" lon="-1.1459207606679354"><ele>271.0</ele><time>2026-04-07T11:20:15Z</time></trkpt><trkpt lat="38.077912113129" lon="-1.1460127258032686"><ele>271.0</ele><time>2026-04-07T11:20:16Z</time></trkpt><trkpt lat="38.07786368422556" lon="-1.1460901453482022"><ele>271.0</ele><time>2026-04-07T11:20:17Z</time></trkpt><trkpt lat="38.07776838741408" lon="-1.1461747363937096"><ele>271.0</ele><time>2026-04-07T11:20:19Z</time></trkpt><trkpt lat="38.07770146515813" lon="-1.1462082274923753"><ele>271.0</ele><time>2026-04-07T11:20:20Z</time></trkpt><trkpt lat="38.07763216024044" lon="-1.1462047363185393"><ele>271.0</ele><time>2026-04-07T11:20:21Z</time></trkpt><trkpt lat="38.077529626640384" lon="-1.1462645790565846"><ele>271.0</ele><time>2026-04-07T11:20:23Z</time></trkpt><trkpt lat="38.077490572037284" lon="-1.1463718918066876"><ele>271.0</ele><time>2026-04-07T11:20:24Z</time></trkpt><trkpt lat="38.077415805729586" lon="-1.1464425288813893"><ele>271.0</ele><time>2026-04-07T11:20:25Z</time></trkpt><trkpt lat="38.07733954095373" lon="-1.1465163685461146"><ele>270.5</ele><time>2026-04-07T11:20:26Z</time></trkpt><trkpt lat="38.07727210275091" lon="-1.1465798516640286"><ele>270.0</ele><time>2026-04-07T11:20:27Z</time></trkpt><trkpt lat="38.077216858088725" lon="-1.1466511994503685"><ele>269.5</ele><time>2026-04-07T11:20:28Z</time></trkpt><trkpt lat="38.07716235905681" lon="-1.1467120067464203"><ele>269.0</ele><time>2026-04-07T11:20:29Z</time></trkpt><trkpt lat="38.077087700941114" lon="-1.1467428425877098"><ele>268.5</ele><time>2026-04-07T11:20:30Z</time></trkpt><trkpt lat="38.0770082110519" lon="-1.1467649889439622"><ele>268.0</ele><time>2026-04-07T11:20:31Z</time></trkpt><trkpt lat="38.07692527327773" lon="-1.1467920822925906"><ele>268.0</ele><time>2026-04-07T11:20:32Z</time></trkpt><trkpt lat="38.07685602000364" lon="-1.1468339304712563"><ele>268.0</ele><time>2026-04-07T11:20:33Z</time></trkpt><trkpt lat="38.076787926005736" lon="-1.1468520591308198"><ele>268.0</ele><time>2026-04-07T11:20:34Z</time></trkpt><trkpt lat="38.076718393084086" lon="-1.1468491726780208"><ele>268.0</ele><time>2026-04-07T11:20:35Z</time></trkpt><trkpt lat="38.07665202513216" lon="-1.146855954211821"><ele>268.0</ele><time>2026-04-07T11:20:36Z</time></trkpt><trkpt lat="38.0765887990842" lon="-1.1468453105106793"><ele>268.0</ele><time>2026-04-07T11:20:37Z</time></trkpt><trkpt lat="38.07650899623524" lon="-1.1469083684572146"><ele>268.0</ele><time>2026-04-07T11:20:39Z</time></trkpt><trkpt lat="38.07642926590545" lon="-1.1469484732308524"><ele>268.0</ele><time>2026-04-07T11:20:42Z</time></trkpt><trkpt lat="38.07633957219534" lon="-1.147015255248764"><ele>268.0</ele><time>2026-04-07T11:20:44Z</time></trkpt><trkpt lat="38.076290084256016" lon="-1.147072478893134"><ele>268.0</ele><time>2026-04-07T11:20:45Z</time></trkpt><trkpt lat="38.07624980956764" lon="-1.1471600582416148"><ele>268.0</ele><time>2026-04-07T11:20:46Z</time></trkpt><trkpt lat="38.076220830730925" lon="-1.1472680450677082"><ele>268.0</ele><time>2026-04-07T11:20:47Z</time></trkpt><trkpt lat="38.07619056250024" lon="-1.1474078944910222"><ele>268.0</ele><time>2026-04-07T11:20:48Z</time></trkpt><trkpt lat="38.076158059211714" lon="-1.147579857237118"><ele>268.0</ele><time>2026-04-07T11:20:49Z</time></trkpt><trkpt lat="38.07612242652026" lon="-1.1477495163920293"><ele>268.0</ele><time>2026-04-07T11:20:50Z</time></trkpt><trkpt lat="38.07608917044995" lon="-1.1478872724415279"><ele>268.0</ele><time>2026-04-07T11:20:51Z</time></trkpt><trkpt lat="38.076055955774294" lon="-1.1480321583267703"><ele>268.0</ele><time>2026-04-07T11:20:52Z</time></trkpt><trkpt lat="38.076025994034644" lon="-1.1481781810975435"><ele>268.0</ele><time>2026-04-07T11:20:53Z</time></trkpt><trkpt lat="38.076001747027334" lon="-1.1483185420569832"><ele>268.0</ele><time>2026-04-07T11:20:54Z</time></trkpt><trkpt lat="38.07598270760755" lon="-1.1484547589760572"><ele>268.0</ele><time>2026-04-07T11:20:55Z</time></trkpt><trkpt lat="38.07596695924898" lon="-1.1485810893999528"><ele>268.0</ele><time>2026-04-07T11:20:56Z</time></trkpt><trkpt lat="38.07594603108245" lon="-1.1487110987983702"><ele>268.0</ele><time>2026-04-07T11:20:57Z</time></trkpt><trkpt lat="38.075924114524646" lon="-1.1488289683283484"><ele>268.0</ele><time>2026-04-07T11:20:58Z</time></trkpt><trkpt lat="38.07589934117157" lon="-1.148964136563337"><ele>268.0</ele><time>2026-04-07T11:20:59Z</time></trkpt><trkpt lat="38.07587773454496" lon="-1.1490929376293775"><ele>268.0</ele><time>2026-04-07T11:21:00Z</time></trkpt><trkpt lat="38.07585744064248" lon="-1.1492127639676821"><ele>268.0</ele><time>2026-04-07T11:21:01Z</time></trkpt><trkpt lat="38.07584423325302" lon="-1.1493288757844011"><ele>267.0</ele><time>2026-04-07T11:21:02Z</time></trkpt><trkpt lat="38.07579644329316" lon="-1.149415522158182"><ele>266.0</ele><time>2026-04-07T11:21:03Z</time></trkpt><trkpt lat="38.07575543279876" lon="-1.1494988164769242"><ele>265.0</ele><time>2026-04-07T11:21:04Z</time></trkpt><trkpt lat="38.0757114861585" lon="-1.1495675523939677"><ele>264.0</ele><time>2026-04-07T11:21:05Z</time></trkpt><trkpt lat="38.07564059573999" lon="-1.1496756046338088"><ele>263.0</ele><time>2026-04-07T11:21:07Z</time></trkpt><trkpt lat="38.075619063404424" lon="-1.14976791275531"><ele>262.0</ele><time>2026-04-07T11:21:09Z</time></trkpt><trkpt lat="38.07560974292851" lon="-1.1498479772089398"><ele>261.8333333333333</ele><time>2026-04-07T11:21:11Z</time></trkpt><trkpt lat="38.07565767843559" lon="-1.1499100954447223"><ele>261.66666666666663</ele><time>2026-04-07T11:21:13Z</time></trkpt><trkpt lat="38.07564004002957" lon="-1.1500105378982683"><ele>261.5</ele><time>2026-04-07T11:21:14Z</time></trkpt><trkpt lat="38.07570986133959" lon="-1.1500430396777348"><ele>261.3333333333333</ele><time>2026-04-07T11:21:15Z</time></trkpt><trkpt lat="38.075637148243906" lon="-1.1501843122725148"><ele>261.1666666666667</ele><time>2026-04-07T11:21:16Z</time></trkpt><trkpt lat="38.07565368262926" lon="-1.150269706841508"><ele>261.0</ele><time>2026-04-07T11:21:17Z</time></trkpt><trkpt lat="38.07566349875073" lon="-1.1503874023245135"><ele>261.0</ele><time>2026-04-07T11:21:19Z</time></trkpt><trkpt lat="38.07568029713725" lon="-1.1505208997725358"><ele>261.0</ele><time>2026-04-07T11:21:21Z</time></trkpt><trkpt lat="38.075697834035196" lon="-1.1506241791570644"><ele>261.0</ele><time>2026-04-07T11:21:23Z</time></trkpt><trkpt lat="38.07570975930678" lon="-1.150736407570693"><ele>261.0</ele><time>2026-04-07T11:21:26Z</time></trkpt><trkpt lat="38.07573519204819" lon="-1.1508883932558345"><ele>261.0</ele><time>2026-04-07T11:21:28Z</time></trkpt><trkpt lat="38.07574631237933" lon="-1.1509852720785323"><ele>262.0</ele><time>2026-04-07T11:21:29Z</time></trkpt><trkpt lat="38.07574211584882" lon="-1.1510857384191067"><ele>263.0</ele><time>2026-04-07T11:21:30Z</time></trkpt><trkpt lat="38.07572726139001" lon="-1.1511940691977423"><ele>264.0</ele><time>2026-04-07T11:21:31Z</time></trkpt><trkpt lat="38.07571095032657" lon="-1.1513150098016534"><ele>265.0</ele><time>2026-04-07T11:21:32Z</time></trkpt><trkpt lat="38.07569767388752" lon="-1.1514334131917523"><ele>266.0</ele><time>2026-04-07T11:21:33Z</time></trkpt><trkpt lat="38.07568481535403" lon="-1.1515499910239886"><ele>267.0</ele><time>2026-04-07T11:21:34Z</time></trkpt><trkpt lat="38.075670226672464" lon="-1.151667606391758"><ele>267.6666666666667</ele><time>2026-04-07T11:21:35Z</time></trkpt><trkpt lat="38.07566184899323" lon="-1.1517717786403745"><ele>268.3333333333333</ele><time>2026-04-07T11:21:36Z</time></trkpt><trkpt lat="38.07564897252771" lon="-1.1518785632907644"><ele>269.0</ele><time>2026-04-07T11:21:37Z</time></trkpt><trkpt lat="38.075634945005405" lon="-1.1519887324253875"><ele>269.66666666666663</ele><time>2026-04-07T11:21:38Z</time></trkpt><trkpt lat="38.07562033247023" lon="-1.1520929769633745"><ele>270.3333333333333</ele><time>2026-04-07T11:21:39Z</time></trkpt><trkpt lat="38.07561484083606" lon="-1.1521762109646927"><ele>271.0</ele><time>2026-04-07T11:21:40Z</time></trkpt><trkpt lat="38.07558118869817" lon="-1.1523317116242735"><ele>271.8333333333333</ele><time>2026-04-07T11:21:42Z</time></trkpt><trkpt lat="38.075545073610904" lon="-1.1524204335750012"><ele>272.66666666666663</ele><time>2026-04-07T11:21:43Z</time></trkpt><trkpt lat="38.075516880681576" lon="-1.152492678471949"><ele>273.5</ele><time>2026-04-07T11:21:44Z</time></trkpt><trkpt lat="38.075479609467294" lon="-1.1525629267191086"><ele>274.3333333333333</ele><time>2026-04-07T11:21:45Z</time></trkpt><trkpt lat="38.07542898730393" lon="-1.1526700024846661"><ele>275.1666666666667</ele><time>2026-04-07T11:21:47Z</time></trkpt><trkpt lat="38.075406924961854" lon="-1.1527551531616056"><ele>276.0</ele><time>2026-04-07T11:21:49Z</time></trkpt><trkpt lat="38.0753479391466" lon="-1.1528579115585882"><ele>276.0</ele><time>2026-04-07T11:21:51Z</time></trkpt><trkpt lat="38.075256413574486" lon="-1.1529045438772345"><ele>276.0</ele><time>2026-04-07T11:21:53Z</time></trkpt><trkpt lat="38.07519159738273" lon="-1.1529493563892657"><ele>276.0</ele><time>2026-04-07T11:21:55Z</time></trkpt><trkpt lat="38.07509551002691" lon="-1.1530552800288998"><ele>276.0</ele><time>2026-04-07T11:21:57Z</time></trkpt><trkpt lat="38.07501335879966" lon="-1.153093930430817"><ele>276.0</ele><time>2026-04-07T11:21:58Z</time></trkpt><trkpt lat="38.074922252938194" lon="-1.1531148466779348"><ele>275.1666666666667</ele><time>2026-04-07T11:21:59Z</time></trkpt><trkpt lat="38.07482437502539" lon="-1.1531278291891032"><ele>274.3333333333333</ele><time>2026-04-07T11:22:00Z</time></trkpt><trkpt lat="38.07473163340271" lon="-1.1531494932536996"><ele>273.5</ele><time>2026-04-07T11:22:01Z</time></trkpt><trkpt lat="38.074651690994564" lon="-1.153187338752211"><ele>272.66666666666663</ele><time>2026-04-07T11:22:02Z</time></trkpt><trkpt lat="38.074592808870605" lon="-1.1532526125398501"><ele>271.8333333333333</ele><time>2026-04-07T11:22:03Z</time></trkpt><trkpt lat="38.07453467530391" lon="-1.1533264130825562"><ele>271.0</ele><time>2026-04-07T11:22:04Z</time></trkpt><trkpt lat="38.07448695393905" lon="-1.1534112324616177"><ele>271.0</ele><time>2026-04-07T11:22:05Z</time></trkpt><trkpt lat="38.07444020191752" lon="-1.1535101419856733"><ele>271.0</ele><time>2026-04-07T11:22:06Z</time></trkpt><trkpt lat="38.07440458984935" lon="-1.153612618451028"><ele>271.0</ele><time>2026-04-07T11:22:07Z</time></trkpt><trkpt lat="38.0743706376467" lon="-1.1537101682134312"><ele>271.0</ele><time>2026-04-07T11:22:08Z</time></trkpt><trkpt lat="38.07432847773163" lon="-1.1537891220244725"><ele>271.0</ele><time>2026-04-07T11:22:09Z</time></trkpt><trkpt lat="38.07426561202929" lon="-1.1538644149859572"><ele>271.0</ele><time>2026-04-07T11:22:10Z</time></trkpt><trkpt lat="38.07419413183971" lon="-1.1539432723308427"><ele>271.0</ele><time>2026-04-07T11:22:11Z</time></trkpt><trkpt lat="38.07412260550475" lon="-1.1540275032253187"><ele>271.0</ele><time>2026-04-07T11:22:12Z</time></trkpt><trkpt lat="38.0740512436501" lon="-1.1541261832311547"><ele>271.0</ele><time>2026-04-07T11:22:13Z</time></trkpt><trkpt lat="38.07398411701439" lon="-1.154208610455391"><ele>271.0</ele><time>2026-04-07T11:22:14Z</time></trkpt><trkpt lat="38.07393670670452" lon="-1.1542932990859647"><ele>271.0</ele><time>2026-04-07T11:22:15Z</time></trkpt><trkpt lat="38.07388451775345" lon="-1.1543818280010691"><ele>271.2</ele><time>2026-04-07T11:22:16Z</time></trkpt><trkpt lat="38.07382281611889" lon="-1.1544556873723755"><ele>271.40000000000003</ele><time>2026-04-07T11:22:17Z</time></trkpt><trkpt lat="38.07376704206745" lon="-1.1545300416846835"><ele>271.6</ele><time>2026-04-07T11:22:18Z</time></trkpt><trkpt lat="38.0737065861718" lon="-1.1546072080361443"><ele>271.8</ele><time>2026-04-07T11:22:19Z</time></trkpt><trkpt lat="38.073619306225865" lon="-1.1546888879423474"><ele>272.0</ele><time>2026-04-07T11:22:21Z</time></trkpt><trkpt lat="38.07351508177633" lon="-1.154754433436157"><ele>272.0</ele><time>2026-04-07T11:22:23Z</time></trkpt><trkpt lat="38.07347580692993" lon="-1.1548201685381918"><ele>272.0</ele><time>2026-04-07T11:22:24Z</time></trkpt><trkpt lat="38.073400819958145" lon="-1.154942848209929"><ele>272.0</ele><time>2026-04-07T11:22:26Z</time></trkpt><trkpt lat="38.073322450501415" lon="-1.155008426591594"><ele>272.0</ele><time>2026-04-07T11:22:28Z</time></trkpt><trkpt lat="38.07326105300309" lon="-1.1550801831993007"><ele>272.0</ele><time>2026-04-07T11:22:30Z</time></trkpt><trkpt lat="38.07326214281219" lon="-1.1552128134036006"><ele>269.2</ele><time>2026-04-07T11:22:32Z</time></trkpt><trkpt lat="38.07325379017486" lon="-1.1553072425191055"><ele>266.4</ele><time>2026-04-07T11:22:33Z</time></trkpt><trkpt lat="38.07321224058133" lon="-1.1554057597286376"><ele>263.6</ele><time>2026-04-07T11:22:34Z</time></trkpt><trkpt lat="38.07315302492203" lon="-1.1555481056532704"><ele>260.8</ele><time>2026-04-07T11:22:35Z</time></trkpt><trkpt lat="38.07308744463985" lon="-1.1557081792860093"><ele>258.0</ele><time>2026-04-07T11:22:36Z</time></trkpt><trkpt lat="38.0730281392776" lon="-1.1558466384652397"><ele>258.0</ele><time>2026-04-07T11:22:37Z</time></trkpt><trkpt lat="38.072974389231945" lon="-1.1559787372253523"><ele>258.0</ele><time>2026-04-07T11:22:38Z</time></trkpt><trkpt lat="38.072928111551754" lon="-1.1561109399391465"><ele>258.0</ele><time>2026-04-07T11:22:39Z</time></trkpt><trkpt lat="38.072888769418824" lon="-1.1562320331495637"><ele>258.0</ele><time>2026-04-07T11:22:40Z</time></trkpt><trkpt lat="38.07285018628513" lon="-1.1563503229351797"><ele>258.0</ele><time>2026-04-07T11:22:41Z</time></trkpt><trkpt lat="38.07279761978365" lon="-1.1564962946223871"><ele>259.4</ele><time>2026-04-07T11:22:42Z</time></trkpt><trkpt lat="38.072746621579626" lon="-1.1566359219815017"><ele>260.8</ele><time>2026-04-07T11:22:43Z</time></trkpt><trkpt lat="38.07270290619183" lon="-1.1567511541985684"><ele>262.2</ele><time>2026-04-07T11:22:44Z</time></trkpt><trkpt lat="38.07266866758897" lon="-1.156857170217727"><ele>263.6</ele><time>2026-04-07T11:22:45Z</time></trkpt><trkpt lat="38.072640094348955" lon="-1.156969044245599"><ele>265.0</ele><time>2026-04-07T11:22:46Z</time></trkpt><trkpt lat="38.072616454593565" lon="-1.1570791969553837"><ele>265.0</ele><time>2026-04-07T11:22:47Z</time></trkpt><trkpt lat="38.072585100446645" lon="-1.1571808696064165"><ele>265.0</ele><time>2026-04-07T11:22:48Z</time></trkpt><trkpt lat="38.07254544821266" lon="-1.1572879230315711"><ele>265.0</ele><time>2026-04-07T11:22:49Z</time></trkpt><trkpt lat="38.0725097395362" lon="-1.157399538138303"><ele>265.0</ele><time>2026-04-07T11:22:50Z</time></trkpt><trkpt lat="38.07247443090013" lon="-1.1575229167669343"><ele>265.0</ele><time>2026-04-07T11:22:51Z</time></trkpt><trkpt lat="38.07244516969728" lon="-1.1576451832320298"><ele>262.8333333333333</ele><time>2026-04-07T11:22:52Z</time></trkpt><trkpt lat="38.072423499733205" lon="-1.1577507566763316"><ele>260.66666666666663</ele><time>2026-04-07T11:22:53Z</time></trkpt><trkpt lat="38.072407132696725" lon="-1.1578386740955"><ele>258.5</ele><time>2026-04-07T11:22:54Z</time></trkpt><trkpt lat="38.07238754934954" lon="-1.1579167332986524"><ele>256.3333333333333</ele><time>2026-04-07T11:22:55Z</time></trkpt><trkpt lat="38.072327450225345" lon="-1.1580278458540447"><ele>254.16666666666666</ele><time>2026-04-07T11:22:57Z</time></trkpt><trkpt lat="38.07223015693235" lon="-1.1580744583688118"><ele>252.0</ele><time>2026-04-07T11:22:59Z</time></trkpt><trkpt lat="38.072138893925356" lon="-1.1580926807090453"><ele>252.0</ele><time>2026-04-07T11:23:01Z</time></trkpt><trkpt lat="38.072055098490836" lon="-1.1581500578690451"><ele>252.0</ele><time>2026-04-07T11:23:03Z</time></trkpt><trkpt lat="38.072004104683366" lon="-1.1582445068996647"><ele>252.0</ele><time>2026-04-07T11:23:05Z</time></trkpt><trkpt lat="38.071909894922186" lon="-1.1582580700455962"><ele>252.0</ele><time>2026-04-07T11:23:08Z</time></trkpt><trkpt lat="38.0718188811988" lon="-1.1583069225789713"><ele>252.0</ele><time>2026-04-07T11:23:11Z</time></trkpt><trkpt lat="38.071726401542364" lon="-1.1583335036976457"><ele>253.2</ele><time>2026-04-07T11:23:13Z</time></trkpt><trkpt lat="38.071619190287876" lon="-1.1583479757684376"><ele>254.39999999999998</ele><time>2026-04-07T11:23:15Z</time></trkpt><trkpt lat="38.07151884891783" lon="-1.1583532685377604"><ele>255.60000000000002</ele><time>2026-04-07T11:23:17Z</time></trkpt><trkpt lat="38.07143174177061" lon="-1.1584042816607136"><ele>256.8</ele><time>2026-04-07T11:23:19Z</time></trkpt><trkpt lat="38.071363308416196" lon="-1.158435812404188"><ele>258.0</ele><time>2026-04-07T11:23:22Z</time></trkpt><trkpt lat="38.0712757293881" lon="-1.158444701894659"><ele>256.1428571428571</ele><time>2026-04-07T11:23:25Z</time></trkpt><trkpt lat="38.07122263863583" lon="-1.1584995597282257"><ele>254.28571428571428</ele><time>2026-04-07T11:23:28Z</time></trkpt><trkpt lat="38.071180052699034" lon="-1.1585607741074129"><ele>252.42857142857142</ele><time>2026-04-07T11:23:30Z</time></trkpt><trkpt lat="38.07111929566066" lon="-1.15858770072549"><ele>250.57142857142856</ele><time>2026-04-07T11:23:32Z</time></trkpt><trkpt lat="38.07104205768237" lon="-1.1585429538153944"><ele>248.71428571428572</ele><time>2026-04-07T11:23:36Z</time></trkpt><trkpt lat="38.0709667589959" lon="-1.1585137422344503"><ele>246.85714285714286</ele><time>2026-04-07T11:23:39Z</time></trkpt><trkpt lat="38.070894730264435" lon="-1.1584972334201165"><ele>245.0</ele><time>2026-04-07T11:23:52Z</time></trkpt><trkpt lat="38.07083044973188" lon="-1.1584600320129324"><ele>243.50000000000003</ele><time>2026-04-07T11:23:56Z</time></trkpt><trkpt lat="38.07073976214304" lon="-1.1584640710294192"><ele>242.0</ele><time>2026-04-07T11:23:58Z</time></trkpt><trkpt lat="38.070674264320466" lon="-1.1585124529872646"><ele>240.5</ele><time>2026-04-07T11:23:59Z</time></trkpt><trkpt lat="38.070606180849175" lon="-1.1585465756301778"><ele>239.0</ele><time>2026-04-07T11:24:00Z</time></trkpt><trkpt lat="38.07053830062767" lon="-1.1585906989759802"><ele>237.50000000000003</ele><time>2026-04-07T11:24:01Z</time></trkpt><trkpt lat="38.070505113466474" lon="-1.158668087582913"><ele>236.0</ele><time>2026-04-07T11:24:02Z</time></trkpt><trkpt lat="38.070501767879165" lon="-1.158763635926784"><ele>236.0</ele><time>2026-04-07T11:24:03Z</time></trkpt><trkpt lat="38.070534318357694" lon="-1.1588598679029825"><ele>236.00000000000003</ele><time>2026-04-07T11:24:04Z</time></trkpt><trkpt lat="38.07059147137539" lon="-1.1589515868168414"><ele>236.00000000000003</ele><time>2026-04-07T11:24:05Z</time></trkpt><trkpt lat="38.070674603050456" lon="-1.1590253558458983"><ele>236.0</ele><time>2026-04-07T11:24:06Z</time></trkpt><trkpt lat="38.07076498136791" lon="-1.1590734391962576"><ele>236.0</ele><time>2026-04-07T11:24:07Z</time></trkpt><trkpt lat="38.07085613001889" lon="-1.1590949440946492"><ele>237.16666666666669</ele><time>2026-04-07T11:24:08Z</time></trkpt><trkpt lat="38.07094580572623" lon="-1.1591179036777397"><ele>238.33333333333334</ele><time>2026-04-07T11:24:09Z</time></trkpt><trkpt lat="38.071024726961475" lon="-1.1591397759958801"><ele>239.5</ele><time>2026-04-07T11:24:10Z</time></trkpt><trkpt lat="38.07110983424586" lon="-1.159168692296281"><ele>240.66666666666669</ele><time>2026-04-07T11:24:11Z</time></trkpt><trkpt lat="38.07118813442162" lon="-1.1591825847826334"><ele>241.83333333333334</ele><time>2026-04-07T11:24:12Z</time></trkpt><trkpt lat="38.0712702571954" lon="-1.1592122527493542"><ele>243.0</ele><time>2026-04-07T11:24:13Z</time></trkpt><trkpt lat="38.071333267227594" lon="-1.1592624456199354"><ele>243.0</ele><time>2026-04-07T11:24:14Z</time></trkpt><trkpt lat="38.07138201140932" lon="-1.1593251233755852"><ele>243.0</ele><time>2026-04-07T11:24:15Z</time></trkpt><trkpt lat="38.07140662244798" lon="-1.1593996532783823"><ele>243.0</ele><time>2026-04-07T11:24:16Z</time></trkpt><trkpt lat="38.07138762608028" lon="-1.159540090003704"><ele>243.0</ele><time>2026-04-07T11:24:18Z</time></trkpt><trkpt lat="38.07136167063381" lon="-1.1596266546517426"><ele>243.0</ele><time>2026-04-07T11:24:19Z</time></trkpt><trkpt lat="38.071324528641625" lon="-1.1597011106198656"><ele>243.0</ele><time>2026-04-07T11:24:20Z</time></trkpt><trkpt lat="38.071269685838196" lon="-1.1597676417040947"><ele>243.0</ele><time>2026-04-07T11:24:21Z</time></trkpt><trkpt lat="38.071197014219244" lon="-1.159798235407216"><ele>243.0</ele><time>2026-04-07T11:24:22Z</time></trkpt><trkpt lat="38.07111030907779" lon="-1.1598274545091958"><ele>243.0</ele><time>2026-04-07T11:24:23Z</time></trkpt><trkpt lat="38.07102105647726" lon="-1.1598501640508514"><ele>243.0</ele><time>2026-04-07T11:24:24Z</time></trkpt><trkpt lat="38.07093321838809" lon="-1.159901460762512"><ele>243.0</ele><time>2026-04-07T11:24:25Z</time></trkpt><trkpt lat="38.07085901484815" lon="-1.159981987196703"><ele>242.60000000000002</ele><time>2026-04-07T11:24:26Z</time></trkpt><trkpt lat="38.07080692596097" lon="-1.1600836805193397"><ele>242.20000000000002</ele><time>2026-04-07T11:24:27Z</time></trkpt><trkpt lat="38.07077227213469" lon="-1.1602003444464526"><ele>241.8</ele><time>2026-04-07T11:24:28Z</time></trkpt><trkpt lat="38.07076826857599" lon="-1.160310301886341"><ele>241.4</ele><time>2026-04-07T11:24:29Z</time></trkpt><trkpt lat="38.07077900875751" lon="-1.1604246582774214"><ele>241.0</ele><time>2026-04-07T11:24:30Z</time></trkpt><trkpt lat="38.07081538934323" lon="-1.160523154383971"><ele>241.0</ele><time>2026-04-07T11:24:31Z</time></trkpt><trkpt lat="38.07088333265249" lon="-1.1606061661146276"><ele>241.00000000000003</ele><time>2026-04-07T11:24:32Z</time></trkpt><trkpt lat="38.07096466956214" lon="-1.1606882658097029"><ele>241.00000000000003</ele><time>2026-04-07T11:24:33Z</time></trkpt><trkpt lat="38.071038321533145" lon="-1.1607651608563483"><ele>241.0</ele><time>2026-04-07T11:24:34Z</time></trkpt><trkpt lat="38.071102592249886" lon="-1.1608393008501525"><ele>241.0</ele><time>2026-04-07T11:24:35Z</time></trkpt><trkpt lat="38.071173179722436" lon="-1.1609728443609453"><ele>240.8</ele><time>2026-04-07T11:24:37Z</time></trkpt><trkpt lat="38.07112648138916" lon="-1.1611090594087425"><ele>240.60000000000002</ele><time>2026-04-07T11:24:39Z</time></trkpt><trkpt lat="38.07106034276652" lon="-1.161161036965296"><ele>240.4</ele><time>2026-04-07T11:24:40Z</time></trkpt><trkpt lat="38.07099180129197" lon="-1.161220717654399"><ele>240.2</ele><time>2026-04-07T11:24:41Z</time></trkpt><trkpt lat="38.0709466597773" lon="-1.1613186125098558"><ele>240.0</ele><time>2026-04-07T11:24:42Z</time></trkpt><trkpt lat="38.07088068543622" lon="-1.16140925343049"><ele>240.0</ele><time>2026-04-07T11:24:43Z</time></trkpt><trkpt lat="38.070795103203295" lon="-1.1614569836713229"><ele>240.0</ele><time>2026-04-07T11:24:44Z</time></trkpt><trkpt lat="38.070706521310186" lon="-1.1614897693495032"><ele>240.0</ele><time>2026-04-07T11:24:45Z</time></trkpt><trkpt lat="38.07061356758028" lon="-1.1615449464800751"><ele>240.0</ele><time>2026-04-07T11:24:46Z</time></trkpt><trkpt lat="38.07050719700066" lon="-1.1615690735041788"><ele>240.0</ele><time>2026-04-07T11:24:47Z</time></trkpt><trkpt lat="38.07040685320152" lon="-1.161614842358973"><ele>240.66666666666666</ele><time>2026-04-07T11:24:48Z</time></trkpt><trkpt lat="38.07031698860602" lon="-1.1616740245837656"><ele>241.33333333333331</ele><time>2026-04-07T11:24:49Z</time></trkpt><trkpt lat="38.070235678524064" lon="-1.1617094130146244"><ele>242.0</ele><time>2026-04-07T11:24:50Z</time></trkpt><trkpt lat="38.07016721555675" lon="-1.1617376048119814"><ele>242.66666666666666</ele><time>2026-04-07T11:24:51Z</time></trkpt><trkpt lat="38.07009865152264" lon="-1.1617523247155095"><ele>243.33333333333331</ele><time>2026-04-07T11:24:53Z</time></trkpt><trkpt lat="38.07003599852203" lon="-1.1617977243723179"><ele>244.0</ele><time>2026-04-07T11:24:56Z</time></trkpt><trkpt lat="38.0700396784626" lon="-1.1620384668108528"><ele>243.99999999999997</ele><time>2026-04-07T11:24:59Z</time></trkpt><trkpt lat="38.070091375020475" lon="-1.1621339630312955"><ele>244.0</ele><time>2026-04-07T11:25:02Z</time></trkpt><trkpt lat="38.070059857272106" lon="-1.1622094300715229"><ele>244.0</ele><time>2026-04-07T11:25:05Z</time></trkpt><trkpt lat="38.06999876338999" lon="-1.162177371407269"><ele>244.0</ele><time>2026-04-07T11:25:07Z</time></trkpt><trkpt lat="38.06994834082551" lon="-1.1622322140679926"><ele>243.99999999999997</ele><time>2026-04-07T11:25:09Z</time></trkpt><trkpt lat="38.069909922681035" lon="-1.1623222230881587"><ele>244.0</ele><time>2026-04-07T11:25:11Z</time></trkpt><trkpt lat="38.06984077660548" lon="-1.1623702329432588"><ele>243.39999999999998</ele><time>2026-04-07T11:25:13Z</time></trkpt><trkpt lat="38.069771470784545" lon="-1.1623783322053367"><ele>242.79999999999998</ele><time>2026-04-07T11:25:15Z</time></trkpt><trkpt lat="38.06967923049089" lon="-1.1623741700468107"><ele>242.20000000000002</ele><time>2026-04-07T11:25:17Z</time></trkpt><trkpt lat="38.06960076663105" lon="-1.162463179893821"><ele>241.60000000000002</ele><time>2026-04-07T11:25:19Z</time></trkpt><trkpt lat="38.069522539836356" lon="-1.1625399035942396"><ele>241.0</ele><time>2026-04-07T11:25:21Z</time></trkpt><trkpt lat="38.06946689156141" lon="-1.1626395976322614"><ele>241.0</ele><time>2026-04-07T11:25:23Z</time></trkpt><trkpt lat="38.069426847420026" lon="-1.1627606661373495"><ele>241.00000000000003</ele><time>2026-04-07T11:25:25Z</time></trkpt><trkpt lat="38.06943252803685" lon="-1.1629061165156462"><ele>241.00000000000003</ele><time>2026-04-07T11:25:27Z</time></trkpt><trkpt lat="38.06940534497724" lon="-1.163021708037793"><ele>241.0</ele><time>2026-04-07T11:25:29Z</time></trkpt><trkpt lat="38.069323122841176" lon="-1.163069754349069"><ele>241.0</ele><time>2026-04-07T11:25:31Z</time></trkpt><trkpt lat="38.06927382786519" lon="-1.1631575070323352"><ele>240.0</ele><time>2026-04-07T11:25:33Z</time></trkpt><trkpt lat="38.06925768792429" lon="-1.163271004039481"><ele>239.00000000000003</ele><time>2026-04-07T11:25:35Z</time></trkpt><trkpt lat="38.06918690394815" lon="-1.1633269010127842"><ele>238.00000000000003</ele><time>2026-04-07T11:25:37Z</time></trkpt><trkpt lat="38.06914099711519" lon="-1.1634797759944413"><ele>237.0</ele><time>2026-04-07T11:25:39Z</time></trkpt><trkpt lat="38.06911734730786" lon="-1.163556895790125"><ele>236.0</ele><time>2026-04-07T11:25:40Z</time></trkpt><trkpt lat="38.06906274312239" lon="-1.1636625226814683"><ele>236.00000000000003</ele><time>2026-04-07T11:25:42Z</time></trkpt><trkpt lat="38.06901351091706" lon="-1.1637466525200573"><ele>236.0</ele><time>2026-04-07T11:25:44Z</time></trkpt><trkpt lat="38.06896202435899" lon="-1.1638125013640173"><ele>236.0</ele><time>2026-04-07T11:25:47Z</time></trkpt><trkpt lat="38.06889850874298" lon="-1.1639097198039268"><ele>236.0</ele><time>2026-04-07T11:25:49Z</time></trkpt><trkpt lat="38.06881677714341" lon="-1.1639635566575965"><ele>236.00000000000003</ele><time>2026-04-07T11:25:51Z</time></trkpt><trkpt lat="38.06876841280533" lon="-1.16405770722108"><ele>236.0</ele><time>2026-04-07T11:25:53Z</time></trkpt><trkpt lat="38.068677575511096" lon="-1.1641460798159453"><ele>235.20000000000002</ele><time>2026-04-07T11:25:55Z</time></trkpt><trkpt lat="38.068600287131446" lon="-1.1642677750931536"><ele>234.40000000000003</ele><time>2026-04-07T11:25:57Z</time></trkpt><trkpt lat="38.0685636706831" lon="-1.1643369974060411"><ele>233.6</ele><time>2026-04-07T11:25:58Z</time></trkpt><trkpt lat="38.068490116589736" lon="-1.164460452161655"><ele>232.8</ele><time>2026-04-07T11:26:00Z</time></trkpt><trkpt lat="38.068406508168" lon="-1.1645649055808684"><ele>232.0</ele><time>2026-04-07T11:26:02Z</time></trkpt><trkpt lat="38.068345405596574" lon="-1.164654598340666"><ele>231.99999999999997</ele><time>2026-04-07T11:26:04Z</time></trkpt><trkpt lat="38.06830618898437" lon="-1.1647202668681185"><ele>232.0</ele><time>2026-04-07T11:26:06Z</time></trkpt><trkpt lat="38.06823461095635" lon="-1.1647822145856086"><ele>232.0</ele><time>2026-04-07T11:26:08Z</time></trkpt><trkpt lat="38.06816834529737" lon="-1.1648738951276238"><ele>232.0</ele><time>2026-04-07T11:26:10Z</time></trkpt><trkpt lat="38.06809811582961" lon="-1.1649461909106305"><ele>231.99999999999997</ele><time>2026-04-07T11:26:12Z</time></trkpt><trkpt lat="38.068008270127585" lon="-1.1650195562650651"><ele>232.0</ele><time>2026-04-07T11:26:15Z</time></trkpt><trkpt lat="38.06795220642894" lon="-1.1650727269956813"><ele>230.66666666666666</ele><time>2026-04-07T11:26:16Z</time></trkpt><trkpt lat="38.06790283406431" lon="-1.165129783746811"><ele>229.33333333333331</ele><time>2026-04-07T11:26:17Z</time></trkpt><trkpt lat="38.06781645562031" lon="-1.1652351822489775"><ele>228.0</ele><time>2026-04-07T11:26:19Z</time></trkpt><trkpt lat="38.067745106751225" lon="-1.1652604540319704"><ele>226.66666666666669</ele><time>2026-04-07T11:26:20Z</time></trkpt><trkpt lat="38.06765957509" lon="-1.165274821153089"><ele>225.33333333333334</ele><time>2026-04-07T11:26:21Z</time></trkpt><trkpt lat="38.067595111561296" lon="-1.1652992396813622"><ele>224.0</ele><time>2026-04-07T11:26:22Z</time></trkpt><trkpt lat="38.06752073180332" lon="-1.165394728205803"><ele>224.00000000000003</ele><time>2026-04-07T11:26:24Z</time></trkpt><trkpt lat="38.06746600723103" lon="-1.1654525275289485"><ele>224.0</ele><time>2026-04-07T11:26:26Z</time></trkpt><trkpt lat="38.06735221436631" lon="-1.1654654971454914"><ele>224.0</ele><time>2026-04-07T11:26:28Z</time></trkpt><trkpt lat="38.06728860474974" lon="-1.165483047326361"><ele>224.0</ele><time>2026-04-07T11:26:29Z</time></trkpt><trkpt lat="38.06718507153467" lon="-1.1655411177753592"><ele>224.00000000000003</ele><time>2026-04-07T11:26:31Z</time></trkpt><trkpt lat="38.06713077272861" lon="-1.1656031875556765"><ele>224.0</ele><time>2026-04-07T11:26:32Z</time></trkpt><trkpt lat="38.06708222443942" lon="-1.1656683330102526"><ele>223.16666666666669</ele><time>2026-04-07T11:26:33Z</time></trkpt><trkpt lat="38.0670490584817" lon="-1.1657440164021895"><ele>222.33333333333334</ele><time>2026-04-07T11:26:34Z</time></trkpt><trkpt lat="38.06695614662588" lon="-1.1658410824287635"><ele>221.5</ele><time>2026-04-07T11:26:36Z</time></trkpt><trkpt lat="38.066880301308316" lon="-1.1658871537571514"><ele>220.66666666666669</ele><time>2026-04-07T11:26:37Z</time></trkpt><trkpt lat="38.066808962946055" lon="-1.165934547713867"><ele>219.83333333333334</ele><time>2026-04-07T11:26:38Z</time></trkpt><trkpt lat="38.06674185545967" lon="-1.1659788159135267"><ele>219.0</ele><time>2026-04-07T11:26:39Z</time></trkpt><trkpt lat="38.066687018909185" lon="-1.1660190201144802"><ele>220.0</ele><time>2026-04-07T11:26:40Z</time></trkpt><trkpt lat="38.06658288690266" lon="-1.1661008070525056"><ele>221.0</ele><time>2026-04-07T11:26:42Z</time></trkpt><trkpt lat="38.06646656485081" lon="-1.166170201478422"><ele>222.0</ele><time>2026-04-07T11:26:44Z</time></trkpt><trkpt lat="38.06639293198165" lon="-1.166314001716162"><ele>223.0</ele><time>2026-04-07T11:26:46Z</time></trkpt><trkpt lat="38.06635742255253" lon="-1.166403235090353"><ele>223.0</ele><time>2026-04-07T11:26:47Z</time></trkpt><trkpt lat="38.06631434860442" lon="-1.1664899650993161"><ele>223.0</ele><time>2026-04-07T11:26:48Z</time></trkpt><trkpt lat="38.06627190837951" lon="-1.1665705871590302"><ele>223.0</ele><time>2026-04-07T11:26:49Z</time></trkpt><trkpt lat="38.06622854432033" lon="-1.1666415318899686"><ele>223.0</ele><time>2026-04-07T11:26:50Z</time></trkpt><trkpt lat="38.0661825427272" lon="-1.1667084623453547"><ele>223.0</ele><time>2026-04-07T11:26:51Z</time></trkpt><trkpt lat="38.06613158956315" lon="-1.1667716462297788"><ele>223.0</ele><time>2026-04-07T11:26:52Z</time></trkpt><trkpt lat="38.06608690368572" lon="-1.1668388098281248"><ele>223.0</ele><time>2026-04-07T11:26:53Z</time></trkpt><trkpt lat="38.06603435612711" lon="-1.1669550654376382"><ele>221.8</ele><time>2026-04-07T11:26:55Z</time></trkpt><trkpt lat="38.065974593677566" lon="-1.1670607703776914"><ele>220.60000000000002</ele><time>2026-04-07T11:26:57Z</time></trkpt><trkpt lat="38.06594007971983" lon="-1.1671806884957798"><ele>219.39999999999998</ele><time>2026-04-07T11:26:59Z</time></trkpt><trkpt lat="38.065958391494775" lon="-1.167315410937208"><ele>218.2</ele><time>2026-04-07T11:27:01Z</time></trkpt><trkpt lat="38.06590502429321" lon="-1.1674347837251104"><ele>217.0</ele><time>2026-04-07T11:27:03Z</time></trkpt><trkpt lat="38.06584448636719" lon="-1.1674762814276411"><ele>216.49999999999997</ele><time>2026-04-07T11:27:04Z</time></trkpt><trkpt lat="38.06573100483673" lon="-1.167527346572401"><ele>216.0</ele><time>2026-04-07T11:27:06Z</time></trkpt><trkpt lat="38.06564036063838" lon="-1.1676174417882157"><ele>215.5</ele><time>2026-04-07T11:27:08Z</time></trkpt><trkpt lat="38.06561024938838" lon="-1.1676950574645195"><ele>215.0</ele><time>2026-04-07T11:27:09Z</time></trkpt><trkpt lat="38.06560114296087" lon="-1.1677844197269047"><ele>214.49999999999997</ele><time>2026-04-07T11:27:10Z</time></trkpt><trkpt lat="38.065588890073435" lon="-1.1678745341824284"><ele>214.0</ele><time>2026-04-07T11:27:11Z</time></trkpt><trkpt lat="38.065575990768075" lon="-1.1679528353885387"><ele>214.0</ele><time>2026-04-07T11:27:12Z</time></trkpt><trkpt lat="38.06552580167689" lon="-1.168072744072004"><ele>213.99999999999997</ele><time>2026-04-07T11:27:14Z</time></trkpt><trkpt lat="38.0654458539657" lon="-1.1681437548012248"><ele>213.99999999999997</ele><time>2026-04-07T11:27:16Z</time></trkpt><trkpt lat="38.06536832061781" lon="-1.1681854720629081"><ele>214.0</ele><time>2026-04-07T11:27:18Z</time></trkpt><trkpt lat="38.065284825135834" lon="-1.168165996366551"><ele>214.0</ele><time>2026-04-07T11:27:20Z</time></trkpt><trkpt lat="38.06522322603026" lon="-1.1680847171659356"><ele>213.99999999999997</ele><time>2026-04-07T11:27:22Z</time></trkpt><trkpt lat="38.06517449961603" lon="-1.1680285494607818"><ele>214.0</ele><time>2026-04-07T11:27:24Z</time></trkpt><trkpt lat="38.06511166168446" lon="-1.1680210919638645"><ele>214.0</ele><time>2026-04-07T11:27:26Z</time></trkpt><trkpt lat="38.06502093066491" lon="-1.168024006222052"><ele>214.0</ele><time>2026-04-07T11:27:29Z</time></trkpt><trkpt lat="38.064954890741134" lon="-1.167960799722668"><ele>213.99999999999997</ele><time>2026-04-07T11:27:34Z</time></trkpt><trkpt lat="38.06493545214172" lon="-1.1678785835064638"><ele>214.0</ele><time>2026-04-07T11:27:36Z</time></trkpt><trkpt lat="38.06490762923494" lon="-1.1677699014744816"><ele>212.49999999999997</ele><time>2026-04-07T11:27:39Z</time></trkpt><trkpt lat="38.0648745114399" lon="-1.1676821661971324"><ele>211.0</ele><time>2026-04-07T11:27:41Z</time></trkpt><trkpt lat="38.06484093229729" lon="-1.16758725685317"><ele>209.5</ele><time>2026-04-07T11:27:43Z</time></trkpt><trkpt lat="38.06480024250103" lon="-1.1674855827365793"><ele>208.0</ele><time>2026-04-07T11:27:45Z</time></trkpt><trkpt lat="38.064820779671805" lon="-1.167348786288078"><ele>206.49999999999997</ele><time>2026-04-07T11:27:48Z</time></trkpt><trkpt lat="38.064849535336876" lon="-1.1672717385214262"><ele>205.0</ele><time>2026-04-07T11:27:49Z</time></trkpt><trkpt lat="38.064878013184945" lon="-1.167141939683729"><ele>204.2</ele><time>2026-04-07T11:27:51Z</time></trkpt><trkpt lat="38.06488946924868" lon="-1.1670250757313765"><ele>203.4</ele><time>2026-04-07T11:27:53Z</time></trkpt><trkpt lat="38.06490778922961" lon="-1.1669220644423144"><ele>202.60000000000002</ele><time>2026-04-07T11:27:55Z</time></trkpt><trkpt lat="38.06497101556574" lon="-1.1668849999521305"><ele>201.8</ele><time>2026-04-07T11:27:57Z</time></trkpt><trkpt lat="38.065095524355705" lon="-1.1668629535161756"><ele>201.0</ele><time>2026-04-07T11:27:59Z</time></trkpt><trkpt lat="38.065174782685425" lon="-1.1668414972988468"><ele>204.0</ele><time>2026-04-07T11:28:00Z</time></trkpt><trkpt lat="38.06525446216637" lon="-1.1668204228807644"><ele>207.0</ele><time>2026-04-07T11:28:01Z</time></trkpt><trkpt lat="38.065334210590585" lon="-1.166790442820431"><ele>210.0</ele><time>2026-04-07T11:28:02Z</time></trkpt><trkpt lat="38.06540117184134" lon="-1.1667546922510612"><ele>213.0</ele><time>2026-04-07T11:28:03Z</time></trkpt><trkpt lat="38.065460485546225" lon="-1.1666972364019876"><ele>216.0</ele><time>2026-04-07T11:28:04Z</time></trkpt><trkpt lat="38.065525959755924" lon="-1.1666245252764536"><ele>219.0</ele><time>2026-04-07T11:28:05Z</time></trkpt><trkpt lat="38.06559239811407" lon="-1.1665500707669318"><ele>219.57142857142858</ele><time>2026-04-07T11:28:06Z</time></trkpt><trkpt lat="38.06564907372235" lon="-1.1664800488889293"><ele>220.14285714285714</ele><time>2026-04-07T11:28:07Z</time></trkpt><trkpt lat="38.06569504571809" lon="-1.1664129975560984"><ele>220.71428571428572</ele><time>2026-04-07T11:28:08Z</time></trkpt><trkpt lat="38.06573143748171" lon="-1.166343348996218"><ele>221.28571428571428</ele><time>2026-04-07T11:28:09Z</time></trkpt><trkpt lat="38.06575076951666" lon="-1.1662604071325853"><ele>221.85714285714283</ele><time>2026-04-07T11:28:10Z</time></trkpt><trkpt lat="38.06577452253756" lon="-1.1661823029132468"><ele>222.42857142857142</ele><time>2026-04-07T11:28:11Z</time></trkpt><trkpt lat="38.065816132061514" lon="-1.1661210349414968"><ele>223.0</ele><time>2026-04-07T11:28:12Z</time></trkpt><trkpt lat="38.06586227638542" lon="-1.1660638984019813"><ele>222.99999999999997</ele><time>2026-04-07T11:28:13Z</time></trkpt><trkpt lat="38.06590145839688" lon="-1.1659872667549671"><ele>223.0</ele><time>2026-04-07T11:28:14Z</time></trkpt><trkpt lat="38.065944499824525" lon="-1.165904141403459"><ele>223.0</ele><time>2026-04-07T11:28:15Z</time></trkpt><trkpt lat="38.065982597578305" lon="-1.1658185551032492"><ele>223.0</ele><time>2026-04-07T11:28:16Z</time></trkpt><trkpt lat="38.066014589763036" lon="-1.1657309706955823"><ele>222.99999999999997</ele><time>2026-04-07T11:28:17Z</time></trkpt><trkpt lat="38.06604686890053" lon="-1.1656350679827086"><ele>223.0</ele><time>2026-04-07T11:28:18Z</time></trkpt><trkpt lat="38.06607484146795" lon="-1.1655422540981664"><ele>223.0</ele><time>2026-04-07T11:28:19Z</time></trkpt><trkpt lat="38.066110044353415" lon="-1.165452350059942"><ele>223.0</ele><time>2026-04-07T11:28:20Z</time></trkpt><trkpt lat="38.06615697245228" lon="-1.165372068651429"><ele>223.0</ele><time>2026-04-07T11:28:21Z</time></trkpt><trkpt lat="38.06619968624579" lon="-1.1652939707797323"><ele>223.0</ele><time>2026-04-07T11:28:22Z</time></trkpt><trkpt lat="38.066235543619705" lon="-1.165223896979797"><ele>223.0</ele><time>2026-04-07T11:28:23Z</time></trkpt><trkpt lat="38.06627796123486" lon="-1.1651571773954081"><ele>223.0</ele><time>2026-04-07T11:28:24Z</time></trkpt><trkpt lat="38.0663313265999" lon="-1.1650863117510084"><ele>223.0</ele><time>2026-04-07T11:28:25Z</time></trkpt><trkpt lat="38.06639749081606" lon="-1.1650309932530452"><ele>223.0</ele><time>2026-04-07T11:28:26Z</time></trkpt><trkpt lat="38.066464785247845" lon="-1.1649778573429936"><ele>223.0</ele><time>2026-04-07T11:28:27Z</time></trkpt><trkpt lat="38.06651862267846" lon="-1.164929584256044"><ele>223.0</ele><time>2026-04-07T11:28:28Z</time></trkpt><trkpt lat="38.06659136982053" lon="-1.1647870694684044"><ele>223.0</ele><time>2026-04-07T11:28:30Z</time></trkpt><trkpt lat="38.066623439326506" lon="-1.1647049047678206"><ele>223.0</ele><time>2026-04-07T11:28:31Z</time></trkpt><trkpt lat="38.06668488891409" lon="-1.1645598774903039"><ele>224.33333333333331</ele><time>2026-04-07T11:28:33Z</time></trkpt><trkpt lat="38.066727927522884" lon="-1.1644836118621247"><ele>225.66666666666666</ele><time>2026-04-07T11:28:34Z</time></trkpt><trkpt lat="38.06678348010737" lon="-1.1644009145995435"><ele>227.0</ele><time>2026-04-07T11:28:35Z</time></trkpt><trkpt lat="38.06685823558372" lon="-1.1643190152990062"><ele>228.33333333333331</ele><time>2026-04-07T11:28:36Z</time></trkpt><trkpt lat="38.06693268727906" lon="-1.1642605234674626"><ele>229.66666666666666</ele><time>2026-04-07T11:28:37Z</time></trkpt><trkpt lat="38.06700124896548" lon="-1.1641972524341624"><ele>231.0</ele><time>2026-04-07T11:28:38Z</time></trkpt><trkpt lat="38.06706694249782" lon="-1.1641452014084372"><ele>231.0</ele><time>2026-04-07T11:28:39Z</time></trkpt><trkpt lat="38.06713310687131" lon="-1.1641092286600334"><ele>231.0</ele><time>2026-04-07T11:28:40Z</time></trkpt><trkpt lat="38.06719021337135" lon="-1.16407268741061"><ele>231.0</ele><time>2026-04-07T11:28:41Z</time></trkpt><trkpt lat="38.06724880296552" lon="-1.1640355727528457"><ele>231.0</ele><time>2026-04-07T11:28:42Z</time></trkpt><trkpt lat="38.06732518136119" lon="-1.1640094849193374"><ele>231.0</ele><time>2026-04-07T11:28:43Z</time></trkpt><trkpt lat="38.06740837621029" lon="-1.1639901242758721"><ele>231.0</ele><time>2026-04-07T11:28:44Z</time></trkpt><trkpt lat="38.0674876583755" lon="-1.1639473854519002"><ele>231.83333333333334</ele><time>2026-04-07T11:28:45Z</time></trkpt><trkpt lat="38.06755405168598" lon="-1.1638902076527704"><ele>232.66666666666669</ele><time>2026-04-07T11:28:46Z</time></trkpt><trkpt lat="38.067605794668346" lon="-1.1638263226764516"><ele>233.5</ele><time>2026-04-07T11:28:47Z</time></trkpt><trkpt lat="38.06769849894713" lon="-1.1637459757835895"><ele>234.33333333333334</ele><time>2026-04-07T11:28:49Z</time></trkpt><trkpt lat="38.06775857399927" lon="-1.1636990704399273"><ele>235.16666666666669</ele><time>2026-04-07T11:28:51Z</time></trkpt><trkpt lat="38.06781644416855" lon="-1.1636441239571462"><ele>236.0</ele><time>2026-04-07T11:28:53Z</time></trkpt><trkpt lat="38.06791000225167" lon="-1.163581097560093"><ele>236.0</ele><time>2026-04-07T11:28:55Z</time></trkpt><trkpt lat="38.067977648706304" lon="-1.1635325712903264"><ele>236.00000000000003</ele><time>2026-04-07T11:28:56Z</time></trkpt><trkpt lat="38.06806238860341" lon="-1.1634715354792295"><ele>236.00000000000003</ele><time>2026-04-07T11:28:57Z</time></trkpt><trkpt lat="38.068160999295955" lon="-1.1634125100595043"><ele>236.0</ele><time>2026-04-07T11:28:58Z</time></trkpt><trkpt lat="38.06826610533023" lon="-1.1633649379071747"><ele>236.0</ele><time>2026-04-07T11:28:59Z</time></trkpt><trkpt lat="38.06835376046038" lon="-1.1633067240991233"><ele>236.0</ele><time>2026-04-07T11:29:00Z</time></trkpt><trkpt lat="38.06841401977629" lon="-1.1632310182413885"><ele>236.00000000000003</ele><time>2026-04-07T11:29:01Z</time></trkpt><trkpt lat="38.06845143622998" lon="-1.1631201129668014"><ele>236.00000000000003</ele><time>2026-04-07T11:29:02Z</time></trkpt><trkpt lat="38.06847708078467" lon="-1.1629701972412514"><ele>236.0</ele><time>2026-04-07T11:29:03Z</time></trkpt><trkpt lat="38.06849133497509" lon="-1.162818255958296"><ele>236.0</ele><time>2026-04-07T11:29:04Z</time></trkpt><trkpt lat="38.068523161213406" lon="-1.162701039235967"><ele>236.0</ele><time>2026-04-07T11:29:05Z</time></trkpt><trkpt lat="38.06857406129972" lon="-1.162573203645972"><ele>236.00000000000003</ele><time>2026-04-07T11:29:06Z</time></trkpt><trkpt lat="38.06861195971259" lon="-1.1624803214685986"><ele>236.00000000000003</ele><time>2026-04-07T11:29:07Z</time></trkpt><trkpt lat="38.068568218968004" lon="-1.1624097333395647"><ele>236.0</ele><time>2026-04-07T11:29:11Z</time></trkpt><trkpt lat="38.06843088793879" lon="-1.162397923020344"><ele>236.0</ele><time>2026-04-07T11:29:13Z</time></trkpt><trkpt lat="38.06831838582044" lon="-1.1623457635775372"><ele>234.8</ele><time>2026-04-07T11:29:14Z</time></trkpt><trkpt lat="38.06820539001849" lon="-1.1622960362094181"><ele>233.60000000000002</ele><time>2026-04-07T11:29:15Z</time></trkpt><trkpt lat="38.06810180357465" lon="-1.1622520990554848"><ele>232.4</ele><time>2026-04-07T11:29:16Z</time></trkpt><trkpt lat="38.06800726251765" lon="-1.1622234335444748"><ele>231.2</ele><time>2026-04-07T11:29:17Z</time></trkpt><trkpt lat="38.067931848226976" lon="-1.1621852681655893"><ele>230.0</ele><time>2026-04-07T11:29:18Z</time></trkpt><trkpt lat="38.06785391069704" lon="-1.1621282851764423"><ele>230.00000000000003</ele><time>2026-04-07T11:29:19Z</time></trkpt><trkpt lat="38.067773783480966" lon="-1.162071959221235"><ele>230.0</ele><time>2026-04-07T11:29:20Z</time></trkpt><trkpt lat="38.067692597099835" lon="-1.1620349156356864"><ele>230.0</ele><time>2026-04-07T11:29:21Z</time></trkpt><trkpt lat="38.0676139437748" lon="-1.1620141017132701"><ele>230.0</ele><time>2026-04-07T11:29:22Z</time></trkpt><trkpt lat="38.06754862727123" lon="-1.16199653615914"><ele>230.00000000000003</ele><time>2026-04-07T11:29:23Z</time></trkpt><trkpt lat="38.06743033009604" lon="-1.1619774282063244"><ele>230.0</ele><time>2026-04-07T11:29:25Z</time></trkpt><trkpt lat="38.06736711987065" lon="-1.1619629625730221"><ele>228.16666666666669</ele><time>2026-04-07T11:29:26Z</time></trkpt><trkpt lat="38.0673016231892" lon="-1.1619390270552106"><ele>226.33333333333334</ele><time>2026-04-07T11:29:27Z</time></trkpt><trkpt lat="38.067231689714724" lon="-1.1619145346137512"><ele>224.5</ele><time>2026-04-07T11:29:28Z</time></trkpt><trkpt lat="38.06716114227134" lon="-1.1619017274757002"><ele>222.66666666666669</ele><time>2026-04-07T11:29:29Z</time></trkpt><trkpt lat="38.06709319111096" lon="-1.1618896631604854"><ele>220.83333333333334</ele><time>2026-04-07T11:29:30Z</time></trkpt><trkpt lat="38.06697603973845" lon="-1.1618465267308176"><ele>219.0</ele><time>2026-04-07T11:29:32Z</time></trkpt><trkpt lat="38.06685036186226" lon="-1.1618107363805026"><ele>219.0</ele><time>2026-04-07T11:29:34Z</time></trkpt><trkpt lat="38.066741351447206" lon="-1.16177753099047"><ele>218.99999999999997</ele><time>2026-04-07T11:29:36Z</time></trkpt><trkpt lat="38.06664613623257" lon="-1.161735093101142"><ele>218.99999999999997</ele><time>2026-04-07T11:29:38Z</time></trkpt><trkpt lat="38.06658648253898" lon="-1.161679745736944"><ele>219.0</ele><time>2026-04-07T11:29:40Z</time></trkpt><trkpt lat="38.06654499435893" lon="-1.1615817459068283"><ele>219.0</ele><time>2026-04-07T11:29:43Z</time></trkpt><trkpt lat="38.066493682290925" lon="-1.161494382375513"><ele>217.39999999999998</ele><time>2026-04-07T11:29:45Z</time></trkpt><trkpt lat="38.066447020758616" lon="-1.1614166561805321"><ele>215.79999999999998</ele><time>2026-04-07T11:29:47Z</time></trkpt><trkpt lat="38.06640987951026" lon="-1.1612976289821009"><ele>214.2</ele><time>2026-04-07T11:29:49Z</time></trkpt><trkpt lat="38.06633898405366" lon="-1.1611977525308899"><ele>212.60000000000002</ele><time>2026-04-07T11:29:51Z</time></trkpt><trkpt lat="38.066253633288056" lon="-1.161167989420167"><ele>211.0</ele><time>2026-04-07T11:29:53Z</time></trkpt><trkpt lat="38.06615303848966" lon="-1.16122801113471"><ele>210.99999999999997</ele><time>2026-04-07T11:29:55Z</time></trkpt><trkpt lat="38.0661043274719" lon="-1.1612825071080444"><ele>211.0</ele><time>2026-04-07T11:29:56Z</time></trkpt><trkpt lat="38.06604836892056" lon="-1.1613229996420869"><ele>211.0</ele><time>2026-04-07T11:29:57Z</time></trkpt><trkpt lat="38.06599198367358" lon="-1.1613626896782812"><ele>211.0</ele><time>2026-04-07T11:29:58Z</time></trkpt><trkpt lat="38.06592553939645" lon="-1.1614165977709192"><ele>210.99999999999997</ele><time>2026-04-07T11:29:59Z</time></trkpt><trkpt lat="38.065856031068726" lon="-1.1614554988732548"><ele>211.0</ele><time>2026-04-07T11:30:00Z</time></trkpt><trkpt lat="38.06576165524155" lon="-1.1615162233922047"><ele>213.4</ele><time>2026-04-07T11:30:02Z</time></trkpt><trkpt lat="38.06571614466888" lon="-1.1616005715542774"><ele>215.8</ele><time>2026-04-07T11:30:04Z</time></trkpt><trkpt lat="38.06573576795694" lon="-1.161728948519411"><ele>218.20000000000002</ele><time>2026-04-07T11:30:06Z</time></trkpt><trkpt lat="38.06574836679335" lon="-1.1618627221395337"><ele>220.60000000000002</ele><time>2026-04-07T11:30:08Z</time></trkpt><trkpt lat="38.06575075109274" lon="-1.161997114384014"><ele>223.0</ele><time>2026-04-07T11:30:10Z</time></trkpt><trkpt lat="38.065741270828234" lon="-1.1621117008680542"><ele>222.99999999999997</ele><time>2026-04-07T11:30:12Z</time></trkpt><trkpt lat="38.065722430299836" lon="-1.1621905592999435"><ele>223.0</ele><time>2026-04-07T11:30:14Z</time></trkpt><trkpt lat="38.06568305880841" lon="-1.162278748326788"><ele>223.0</ele><time>2026-04-07T11:30:16Z</time></trkpt><trkpt lat="38.06568819408857" lon="-1.1623744717945292"><ele>223.0</ele><time>2026-04-07T11:30:18Z</time></trkpt><trkpt lat="38.06563392522385" lon="-1.162485462982043"><ele>222.99999999999997</ele><time>2026-04-07T11:30:20Z</time></trkpt><trkpt lat="38.06556286990023" lon="-1.16259236218763"><ele>223.0</ele><time>2026-04-07T11:30:22Z</time></trkpt><trkpt lat="38.06549020689424" lon="-1.162676996042358"><ele>220.60000000000002</ele><time>2026-04-07T11:30:24Z</time></trkpt><trkpt lat="38.06545609559263" lon="-1.1627462734676084"><ele>218.20000000000002</ele><time>2026-04-07T11:30:27Z</time></trkpt><trkpt lat="38.06541090845862" lon="-1.1628674405696104"><ele>215.8</ele><time>2026-04-07T11:30:30Z</time></trkpt><trkpt lat="38.06534199987523" lon="-1.163007045052716"><ele>213.4</ele><time>2026-04-07T11:30:31Z</time></trkpt><trkpt lat="38.06529671398021" lon="-1.1630896905165793"><ele>211.0</ele><time>2026-04-07T11:30:32Z</time></trkpt><trkpt lat="38.065260860047886" lon="-1.1631711256068107"><ele>210.66666666666666</ele><time>2026-04-07T11:30:33Z</time></trkpt><trkpt lat="38.06522360244831" lon="-1.1632491611720444"><ele>210.33333333333331</ele><time>2026-04-07T11:30:34Z</time></trkpt><trkpt lat="38.065180759438064" lon="-1.1633134125449296"><ele>210.0</ele><time>2026-04-07T11:30:35Z</time></trkpt><trkpt lat="38.06513128787056" lon="-1.1633765512536272"><ele>209.66666666666669</ele><time>2026-04-07T11:30:36Z</time></trkpt><trkpt lat="38.065075728190685" lon="-1.1634661837356686"><ele>209.33333333333334</ele><time>2026-04-07T11:30:37Z</time></trkpt><trkpt lat="38.06501069598123" lon="-1.1635648909017322"><ele>209.0</ele><time>2026-04-07T11:30:39Z</time></trkpt><trkpt lat="38.06492115210307" lon="-1.1635445403943023"><ele>209.00000000000003</ele><time>2026-04-07T11:30:41Z</time></trkpt><trkpt lat="38.064853569355655" lon="-1.1635164839198466"><ele>209.0</ele><time>2026-04-07T11:30:42Z</time></trkpt><trkpt lat="38.06479286203758" lon="-1.16348839342171"><ele>209.0</ele><time>2026-04-07T11:30:43Z</time></trkpt><trkpt lat="38.064731528695916" lon="-1.16347014530427"><ele>209.0</ele><time>2026-04-07T11:30:44Z</time></trkpt><trkpt lat="38.064644779349884" lon="-1.1634440251125344"><ele>209.00000000000003</ele><time>2026-04-07T11:30:46Z</time></trkpt><trkpt lat="38.0645706134419" lon="-1.1634158294128312"><ele>209.0</ele><time>2026-04-07T11:30:48Z</time></trkpt><trkpt lat="38.06449760217169" lon="-1.163558470633387"><ele>209.00000000000003</ele><time>2026-04-07T11:30:51Z</time></trkpt><trkpt lat="38.06443699295611" lon="-1.1636358658944586"><ele>209.0</ele><time>2026-04-07T11:30:53Z</time></trkpt><trkpt lat="38.064435597349345" lon="-1.1637442231903266"><ele>209.0</ele><time>2026-04-07T11:30:55Z</time></trkpt><trkpt lat="38.064491794520684" lon="-1.163864649902323"><ele>209.0</ele><time>2026-04-07T11:30:57Z</time></trkpt><trkpt lat="38.06452759089727" lon="-1.1639378593422027"><ele>209.00000000000003</ele><time>2026-04-07T11:30:59Z</time></trkpt><trkpt lat="38.06455806220204" lon="-1.1640132385465918"><ele>209.0</ele><time>2026-04-07T11:31:00Z</time></trkpt><trkpt lat="38.06460544665911" lon="-1.1641186147328046"><ele>208.33333333333334</ele><time>2026-04-07T11:31:02Z</time></trkpt><trkpt lat="38.064627673331856" lon="-1.1642199280101375"><ele>207.66666666666669</ele><time>2026-04-07T11:31:04Z</time></trkpt><trkpt lat="38.06461757734743" lon="-1.1643185805392222"><ele>207.0</ele><time>2026-04-07T11:31:07Z</time></trkpt><trkpt lat="38.06462621824575" lon="-1.1643978764890544"><ele>206.33333333333331</ele><time>2026-04-07T11:31:09Z</time></trkpt><trkpt lat="38.064641060299024" lon="-1.1645237050181272"><ele>205.66666666666666</ele><time>2026-04-07T11:31:11Z</time></trkpt><trkpt lat="38.06464368957367" lon="-1.1646225355046103"><ele>205.0</ele><time>2026-04-07T11:31:12Z</time></trkpt><trkpt lat="38.06464838347782" lon="-1.1647374338106797"><ele>205.0</ele><time>2026-04-07T11:31:14Z</time></trkpt><trkpt lat="38.064624898487175" lon="-1.1648495460954733"><ele>205.0</ele><time>2026-04-07T11:31:16Z</time></trkpt><trkpt lat="38.06458465513965" lon="-1.1649314213429351"><ele>205.0</ele><time>2026-04-07T11:31:17Z</time></trkpt><trkpt lat="38.06453820712087" lon="-1.1650238669683186"><ele>205.0</ele><time>2026-04-07T11:31:18Z</time></trkpt><trkpt lat="38.064469490971696" lon="-1.1651329441193072"><ele>205.0</ele><time>2026-04-07T11:31:19Z</time></trkpt><trkpt lat="38.06440048841205" lon="-1.1652284993450752"><ele>203.83333333333331</ele><time>2026-04-07T11:31:20Z</time></trkpt><trkpt lat="38.06435176948557" lon="-1.1653118194246046"><ele>202.66666666666666</ele><time>2026-04-07T11:31:21Z</time></trkpt><trkpt lat="38.06430939256064" lon="-1.1654039191315049"><ele>201.5</ele><time>2026-04-07T11:31:22Z</time></trkpt><trkpt lat="38.064272117907436" lon="-1.165491688223057"><ele>200.33333333333331</ele><time>2026-04-07T11:31:23Z</time></trkpt><trkpt lat="38.06424594853672" lon="-1.165575783391742"><ele>199.16666666666666</ele><time>2026-04-07T11:31:24Z</time></trkpt><trkpt lat="38.06422439553445" lon="-1.1656537530809277"><ele>198.0</ele><time>2026-04-07T11:31:25Z</time></trkpt><trkpt lat="38.06413847313756" lon="-1.165774950565228"><ele>198.33333333333334</ele><time>2026-04-07T11:31:27Z</time></trkpt><trkpt lat="38.06408315649297" lon="-1.1658263746463815"><ele>198.66666666666669</ele><time>2026-04-07T11:31:28Z</time></trkpt><trkpt lat="38.06402836828227" lon="-1.1658696493725138"><ele>199.0</ele><time>2026-04-07T11:31:29Z</time></trkpt><trkpt lat="38.063940042013854" lon="-1.1659231386070983"><ele>199.33333333333334</ele><time>2026-04-07T11:31:31Z</time></trkpt><trkpt lat="38.06384768467314" lon="-1.1659546414317228"><ele>199.66666666666669</ele><time>2026-04-07T11:31:33Z</time></trkpt><trkpt lat="38.06375904851768" lon="-1.1659766090673527"><ele>200.0</ele><time>2026-04-07T11:31:35Z</time></trkpt><trkpt lat="38.06369423869813" lon="-1.1659753329272886"><ele>200.0</ele><time>2026-04-07T11:31:38Z</time></trkpt><trkpt lat="38.0635998951646" lon="-1.1660607153838534"><ele>200.0</ele><time>2026-04-07T11:31:40Z</time></trkpt><trkpt lat="38.0635678127975" lon="-1.1661770712173452"><ele>200.0</ele><time>2026-04-07T11:31:42Z</time></trkpt><trkpt lat="38.063549567577375" lon="-1.1662711455983386"><ele>200.0</ele><time>2026-04-07T11:31:44Z</time></trkpt><trkpt lat="38.063527652528144" lon="-1.1663597110202788"><ele>200.0</ele><time>2026-04-07T11:31:47Z</time></trkpt><trkpt lat="38.06352073725725" lon="-1.1664705731696805"><ele>198.2</ele><time>2026-04-07T11:31:49Z</time></trkpt><trkpt lat="38.06350984008163" lon="-1.1666384725891188"><ele>196.4</ele><time>2026-04-07T11:31:51Z</time></trkpt><trkpt lat="38.06348975637086" lon="-1.166737431267606"><ele>194.60000000000002</ele><time>2026-04-07T11:31:52Z</time></trkpt><trkpt lat="38.06347377747623" lon="-1.1668399970262746"><ele>192.8</ele><time>2026-04-07T11:31:53Z</time></trkpt><trkpt lat="38.06345635292998" lon="-1.1669448523185313"><ele>191.0</ele><time>2026-04-07T11:31:54Z</time></trkpt><trkpt lat="38.063424619911835" lon="-1.1670452624955217"><ele>191.0</ele><time>2026-04-07T11:31:55Z</time></trkpt><trkpt lat="38.063401345729986" lon="-1.167129751451919"><ele>191.0</ele><time>2026-04-07T11:31:56Z</time></trkpt><trkpt lat="38.06334107701995" lon="-1.1672263502885771"><ele>191.0</ele><time>2026-04-07T11:31:58Z</time></trkpt><trkpt lat="38.06321703332409" lon="-1.1672170687260595"><ele>191.0</ele><time>2026-04-07T11:32:00Z</time></trkpt><trkpt lat="38.06315299998538" lon="-1.16719783688265"><ele>191.0</ele><time>2026-04-07T11:32:01Z</time></trkpt><trkpt lat="38.063060321269056" lon="-1.167185608035193"><ele>192.33333333333331</ele><time>2026-04-07T11:32:03Z</time></trkpt><trkpt lat="38.06299402098654" lon="-1.1672528716160917"><ele>193.66666666666666</ele><time>2026-04-07T11:32:05Z</time></trkpt><trkpt lat="38.062915761681154" lon="-1.1672713097490552"><ele>195.0</ele><time>2026-04-07T11:32:06Z</time></trkpt><trkpt lat="38.06282195892562" lon="-1.16727236078759"><ele>196.33333333333331</ele><time>2026-04-07T11:32:07Z</time></trkpt><trkpt lat="38.06274451325747" lon="-1.1672705657894558"><ele>197.66666666666666</ele><time>2026-04-07T11:32:08Z</time></trkpt><trkpt lat="38.06268130332971" lon="-1.1672711599233556"><ele>199.0</ele><time>2026-04-07T11:32:09Z</time></trkpt><trkpt lat="38.062573195652284" lon="-1.1672999239135973"><ele>198.99999999999997</ele><time>2026-04-07T11:32:11Z</time></trkpt><trkpt lat="38.0625123846855" lon="-1.1673427701291015"><ele>199.0</ele><time>2026-04-07T11:32:12Z</time></trkpt><trkpt lat="38.06244160301007" lon="-1.167368564531731"><ele>199.0</ele><time>2026-04-07T11:32:13Z</time></trkpt><trkpt lat="38.06237555088823" lon="-1.1673631875808324"><ele>199.0</ele><time>2026-04-07T11:32:14Z</time></trkpt><trkpt lat="38.06230782293952" lon="-1.167332901835103"><ele>199.0</ele><time>2026-04-07T11:32:15Z</time></trkpt><trkpt lat="38.0622333260696" lon="-1.1672931856885542"><ele>198.99999999999997</ele><time>2026-04-07T11:32:16Z</time></trkpt><trkpt lat="38.062165275176014" lon="-1.167272224894527"><ele>199.0</ele><time>2026-04-07T11:32:17Z</time></trkpt><trkpt lat="38.06205911038205" lon="-1.1672903488237925"><ele>196.33333333333331</ele><time>2026-04-07T11:32:19Z</time></trkpt><trkpt lat="38.062019866616815" lon="-1.1674503695579657"><ele>193.66666666666666</ele><time>2026-04-07T11:32:21Z</time></trkpt><trkpt lat="38.06199299450999" lon="-1.1675344405130823"><ele>191.0</ele><time>2026-04-07T11:32:22Z</time></trkpt><trkpt lat="38.06193933642868" lon="-1.1675847961537724"><ele>188.33333333333331</ele><time>2026-04-07T11:32:23Z</time></trkpt><trkpt lat="38.0618675474582" lon="-1.167613291960197"><ele>185.66666666666666</ele><time>2026-04-07T11:32:24Z</time></trkpt><trkpt lat="38.061780248802" lon="-1.1676176133778524"><ele>183.0</ele><time>2026-04-07T11:32:25Z</time></trkpt><trkpt lat="38.06170689116617" lon="-1.1676442794542852"><ele>183.0</ele><time>2026-04-07T11:32:26Z</time></trkpt><trkpt lat="38.06165120845942" lon="-1.1676915573414228"><ele>183.0</ele><time>2026-04-07T11:32:27Z</time></trkpt><trkpt lat="38.06157528375891" lon="-1.1678024145230763"><ele>183.0</ele><time>2026-04-07T11:32:29Z</time></trkpt><trkpt lat="38.06154833041897" lon="-1.1678933139559833"><ele>183.0</ele><time>2026-04-07T11:32:31Z</time></trkpt><trkpt lat="38.06148668151577" lon="-1.1680026526285587"><ele>183.0</ele><time>2026-04-07T11:32:33Z</time></trkpt><trkpt lat="38.06144879171494" lon="-1.1680697585915827"><ele>183.0</ele><time>2026-04-07T11:32:34Z</time></trkpt><trkpt lat="38.06138835247527" lon="-1.1681344203420794"><ele>182.2</ele><time>2026-04-07T11:32:35Z</time></trkpt><trkpt lat="38.061326783948644" lon="-1.168185023170115"><ele>181.4</ele><time>2026-04-07T11:32:36Z</time></trkpt><trkpt lat="38.061246630414416" lon="-1.1682979219376572"><ele>180.6</ele><time>2026-04-07T11:32:38Z</time></trkpt><trkpt lat="38.061156848716195" lon="-1.1684063193367673"><ele>179.79999999999998</ele><time>2026-04-07T11:32:40Z</time></trkpt><trkpt lat="38.061096949716784" lon="-1.1684586590684474"><ele>179.0</ele><time>2026-04-07T11:32:41Z</time></trkpt><trkpt lat="38.061030486223345" lon="-1.1685013700469973"><ele>179.0</ele><time>2026-04-07T11:32:42Z</time></trkpt><trkpt lat="38.06098186601194" lon="-1.1685639064172109"><ele>179.0</ele><time>2026-04-07T11:32:43Z</time></trkpt><trkpt lat="38.060942200243424" lon="-1.1686621301005793"><ele>179.0</ele><time>2026-04-07T11:32:44Z</time></trkpt><trkpt lat="38.060897072137486" lon="-1.1687481653336484"><ele>179.0</ele><time>2026-04-07T11:32:45Z</time></trkpt><trkpt lat="38.06085958231938" lon="-1.168823964415628"><ele>179.0</ele><time>2026-04-07T11:32:46Z</time></trkpt><trkpt lat="38.06082780260841" lon="-1.1689001750582686"><ele>179.0</ele><time>2026-04-07T11:32:47Z</time></trkpt><trkpt lat="38.060766165876444" lon="-1.1689685180500418"><ele>179.71428571428572</ele><time>2026-04-07T11:32:48Z</time></trkpt><trkpt lat="38.06069580050024" lon="-1.1690160244114023"><ele>180.42857142857144</ele><time>2026-04-07T11:32:49Z</time></trkpt><trkpt lat="38.06062998871133" lon="-1.1690547119026262"><ele>181.14285714285717</ele><time>2026-04-07T11:32:50Z</time></trkpt><trkpt lat="38.0605691430001" lon="-1.169080320790773"><ele>181.85714285714286</ele><time>2026-04-07T11:32:51Z</time></trkpt><trkpt lat="38.06050834252645" lon="-1.1691062766267524"><ele>182.57142857142856</ele><time>2026-04-07T11:32:52Z</time></trkpt><trkpt lat="38.06044236264699" lon="-1.1691060811425562"><ele>183.2857142857143</ele><time>2026-04-07T11:32:53Z</time></trkpt><trkpt lat="38.06037655165095" lon="-1.1690848504329054"><ele>184.0</ele><time>2026-04-07T11:32:54Z</time></trkpt><trkpt lat="38.06031344129928" lon="-1.1690623192912348"><ele>184.0</ele><time>2026-04-07T11:32:55Z</time></trkpt><trkpt lat="38.060216702026466" lon="-1.169014127422788"><ele>184.0</ele><time>2026-04-07T11:32:57Z</time></trkpt><trkpt lat="38.060177064532866" lon="-1.1689058628779396"><ele>184.0</ele><time>2026-04-07T11:32:59Z</time></trkpt><trkpt lat="38.06007001079224" lon="-1.168896649055049"><ele>184.0</ele><time>2026-04-07T11:33:01Z</time></trkpt><trkpt lat="38.05999223180072" lon="-1.1688776032679655"><ele>184.0</ele><time>2026-04-07T11:33:02Z</time></trkpt><trkpt lat="38.05991918464939" lon="-1.1688533004358634"><ele>183.66666666666669</ele><time>2026-04-07T11:33:03Z</time></trkpt><trkpt lat="38.05980283848674" lon="-1.1688075818073849"><ele>183.33333333333334</ele><time>2026-04-07T11:33:05Z</time></trkpt><trkpt lat="38.05971671772192" lon="-1.168757226325008"><ele>183.0</ele><time>2026-04-07T11:33:07Z</time></trkpt><trkpt lat="38.05965802552478" lon="-1.1687266759562058"><ele>182.66666666666666</ele><time>2026-04-07T11:33:22Z</time></trkpt><trkpt lat="38.05959031744161" lon="-1.1687283193194031"><ele>182.33333333333331</ele><time>2026-04-07T11:33:39Z</time></trkpt><trkpt lat="38.05949977701227" lon="-1.1687734891493786"><ele>182.0</ele><time>2026-04-07T11:33:41Z</time></trkpt><trkpt lat="38.059453201655124" lon="-1.1688276005241705"><ele>182.0</ele><time>2026-04-07T11:33:42Z</time></trkpt><trkpt lat="38.05937348470591" lon="-1.1689357825773141"><ele>182.0</ele><time>2026-04-07T11:33:44Z</time></trkpt><trkpt lat="38.059330562132615" lon="-1.169014752803486"><ele>182.0</ele><time>2026-04-07T11:33:45Z</time></trkpt><trkpt lat="38.05929503718413" lon="-1.169093583198385"><ele>182.0</ele><time>2026-04-07T11:33:46Z</time></trkpt><trkpt lat="38.05925799670571" lon="-1.169169999969633"><ele>182.0</ele><time>2026-04-07T11:33:47Z</time></trkpt><trkpt lat="38.05921696695321" lon="-1.1692419246851282"><ele>182.0</ele><time>2026-04-07T11:33:48Z</time></trkpt><trkpt lat="38.05918340925601" lon="-1.169317859873953"><ele>180.66666666666666</ele><time>2026-04-07T11:33:49Z</time></trkpt><trkpt lat="38.05916406050008" lon="-1.1694091319356306"><ele>179.33333333333331</ele><time>2026-04-07T11:33:50Z</time></trkpt><trkpt lat="38.0591581010528" lon="-1.1694953729007393"><ele>178.0</ele><time>2026-04-07T11:33:51Z</time></trkpt><trkpt lat="38.059154050951065" lon="-1.1695752211828412"><ele>176.66666666666666</ele><time>2026-04-07T11:33:52Z</time></trkpt><trkpt lat="38.05912489535683" lon="-1.1697260184672127"><ele>175.33333333333334</ele><time>2026-04-07T11:33:54Z</time></trkpt><trkpt lat="38.059081719367725" lon="-1.1697906890867407"><ele>174.0</ele><time>2026-04-07T11:33:55Z</time></trkpt><trkpt lat="38.059030893202305" lon="-1.1698437254810736"><ele>172.66666666666666</ele><time>2026-04-07T11:33:56Z</time></trkpt><trkpt lat="38.058903339880644" lon="-1.169900739228209"><ele>171.33333333333334</ele><time>2026-04-07T11:33:58Z</time></trkpt><trkpt lat="38.05883215914028" lon="-1.1699025669034375"><ele>170.0</ele><time>2026-04-07T11:33:59Z</time></trkpt><trkpt lat="38.058762271467955" lon="-1.1698941147200508"><ele>168.66666666666669</ele><time>2026-04-07T11:34:00Z</time></trkpt><trkpt lat="38.05868948648723" lon="-1.1698832178526262"><ele>167.33333333333334</ele><time>2026-04-07T11:34:01Z</time></trkpt><trkpt lat="38.05862371343472" lon="-1.169893664662344"><ele>166.0</ele><time>2026-04-07T11:34:02Z</time></trkpt><trkpt lat="38.058532432924295" lon="-1.1699215434073693"><ele>166.0</ele><time>2026-04-07T11:34:04Z</time></trkpt><trkpt lat="38.05846743638109" lon="-1.1699338224556046"><ele>166.0</ele><time>2026-04-07T11:34:06Z</time></trkpt><trkpt lat="38.05839842579738" lon="-1.1699916622339754"><ele>166.0</ele><time>2026-04-07T11:34:08Z</time></trkpt><trkpt lat="38.05832806926156" lon="-1.169995425050286"><ele>166.0</ele><time>2026-04-07T11:34:10Z</time></trkpt><trkpt lat="38.05822780927401" lon="-1.1699490280921838"><ele>166.0</ele><time>2026-04-07T11:34:12Z</time></trkpt><trkpt lat="38.0581297080255" lon="-1.1699387100873957"><ele>166.0</ele><time>2026-04-07T11:34:14Z</time></trkpt><trkpt lat="38.05804151588126" lon="-1.1699099488055282"><ele>165.8</ele><time>2026-04-07T11:34:18Z</time></trkpt><trkpt lat="38.05795739306241" lon="-1.1698646936595674"><ele>165.60000000000002</ele><time>2026-04-07T11:34:21Z</time></trkpt><trkpt lat="38.05787174844191" lon="-1.1698756191494173"><ele>165.4</ele><time>2026-04-07T11:34:24Z</time></trkpt><trkpt lat="38.05779199587362" lon="-1.1699124549047075"><ele>165.2</ele><time>2026-04-07T11:34:27Z</time></trkpt><trkpt lat="38.05763255779247" lon="-1.1699649402033463"><ele>165.0</ele><time>2026-04-07T11:34:29Z</time></trkpt><trkpt lat="38.05760872074728" lon="-1.1700517496774148"><ele>165.0</ele><time>2026-04-07T11:34:33Z</time></trkpt><trkpt lat="38.05758915858805" lon="-1.170153301193873"><ele>165.0</ele><time>2026-04-07T11:34:35Z</time></trkpt><trkpt lat="38.05753157349995" lon="-1.170242779733143"><ele>165.0</ele><time>2026-04-07T11:34:37Z</time></trkpt><trkpt lat="38.05746522991813" lon="-1.1703255595221056"><ele>165.0</ele><time>2026-04-07T11:34:39Z</time></trkpt><trkpt lat="38.05741367766729" lon="-1.1704099447185927"><ele>165.0</ele><time>2026-04-07T11:34:41Z</time></trkpt><trkpt lat="38.057377252693456" lon="-1.1704932944267596"><ele>165.0</ele><time>2026-04-07T11:34:43Z</time></trkpt><trkpt lat="38.05735027659417" lon="-1.1705712909073083"><ele>165.2</ele><time>2026-04-07T11:34:45Z</time></trkpt><trkpt lat="38.05732039359857" lon="-1.1706622701255303"><ele>165.4</ele><time>2026-04-07T11:34:48Z</time></trkpt><trkpt lat="38.057258134304625" lon="-1.1707333955879213"><ele>165.60000000000002</ele><time>2026-04-07T11:34:50Z</time></trkpt><trkpt lat="38.05719822079705" lon="-1.1708028716536845"><ele>165.8</ele><time>2026-04-07T11:34:51Z</time></trkpt><trkpt lat="38.05712431422507" lon="-1.1709063608454917"><ele>166.0</ele><time>2026-04-07T11:34:53Z</time></trkpt><trkpt lat="38.05704708083717" lon="-1.1709899718580108"><ele>166.0</ele><time>2026-04-07T11:34:55Z</time></trkpt><trkpt lat="38.05701136764334" lon="-1.171071051595141"><ele>166.0</ele><time>2026-04-07T11:34:59Z</time></trkpt><trkpt lat="38.05690004939528" lon="-1.1710836393072963"><ele>166.0</ele><time>2026-04-07T11:35:02Z</time></trkpt><trkpt lat="38.05682028989758" lon="-1.1711092320993937"><ele>166.0</ele><time>2026-04-07T11:35:03Z</time></trkpt><trkpt lat="38.05675770764593" lon="-1.1711321464007398"><ele>166.0</ele><time>2026-04-07T11:35:04Z</time></trkpt><trkpt lat="38.05669376898303" lon="-1.1711553355997162"><ele>166.0</ele><time>2026-04-07T11:35:05Z</time></trkpt><trkpt lat="38.05661195412392" lon="-1.1711842502309129"><ele>165.66666666666669</ele><time>2026-04-07T11:35:07Z</time></trkpt><trkpt lat="38.05654820424377" lon="-1.1711941141112459"><ele>165.33333333333334</ele><time>2026-04-07T11:35:09Z</time></trkpt><trkpt lat="38.05649050133087" lon="-1.1711564317197365"><ele>165.0</ele><time>2026-04-07T11:35:11Z</time></trkpt><trkpt lat="38.056406203423094" lon="-1.1710590065014317"><ele>164.66666666666666</ele><time>2026-04-07T11:35:13Z</time></trkpt><trkpt lat="38.056347991374096" lon="-1.1710013964810113"><ele>164.33333333333331</ele><time>2026-04-07T11:35:15Z</time></trkpt><trkpt lat="38.056281875361464" lon="-1.171074142490286"><ele>164.0</ele><time>2026-04-07T11:35:20Z</time></trkpt><trkpt lat="38.05629797005332" lon="-1.1711656389348335"><ele>164.0</ele><time>2026-04-07T11:35:21Z</time></trkpt><trkpt lat="38.056357321020904" lon="-1.1713241453338938"><ele>164.0</ele><time>2026-04-07T11:35:22Z</time></trkpt><trkpt lat="38.056474360378765" lon="-1.1715150319651613"><ele>164.0</ele><time>2026-04-07T11:35:23Z</time></trkpt><trkpt lat="38.05653090086597" lon="-1.1715955487897685"><ele>164.0</ele><time>2026-04-07T11:35:24Z</time></trkpt><trkpt lat="38.056579795544735" lon="-1.1717115288185846"><ele>162.79999999999998</ele><time>2026-04-07T11:35:25Z</time></trkpt><trkpt lat="38.056636374768566" lon="-1.1718587890495313"><ele>161.6</ele><time>2026-04-07T11:35:26Z</time></trkpt><trkpt lat="38.05668213934308" lon="-1.1719880524165824"><ele>160.4</ele><time>2026-04-07T11:35:27Z</time></trkpt><trkpt lat="38.05672187369739" lon="-1.172101193022939"><ele>159.2</ele><time>2026-04-07T11:35:28Z</time></trkpt><trkpt lat="38.05675903338288" lon="-1.1722178307540083"><ele>158.0</ele><time>2026-04-07T11:35:29Z</time></trkpt><trkpt lat="38.05679075615631" lon="-1.1723174217084302"><ele>157.5</ele><time>2026-04-07T11:35:30Z</time></trkpt><trkpt lat="38.05681849208235" lon="-1.1724121408090822"><ele>157.0</ele><time>2026-04-07T11:35:31Z</time></trkpt><trkpt lat="38.05683514082981" lon="-1.172490300038989"><ele>156.5</ele><time>2026-04-07T11:35:32Z</time></trkpt><trkpt lat="38.05684484719097" lon="-1.172581002075694"><ele>156.0</ele><time>2026-04-07T11:35:33Z</time></trkpt><trkpt lat="38.05683348449452" lon="-1.1726597780342505"><ele>155.5</ele><time>2026-04-07T11:35:34Z</time></trkpt><trkpt lat="38.05683611865134" lon="-1.1727442418938732"><ele>155.0</ele><time>2026-04-07T11:35:36Z</time></trkpt><trkpt lat="38.05670524550362" lon="-1.17275130729595"><ele>155.0</ele><time>2026-04-07T11:35:38Z</time></trkpt><trkpt lat="38.05664203220657" lon="-1.172762143309614"><ele>155.0</ele><time>2026-04-07T11:35:39Z</time></trkpt><trkpt lat="38.0565718799834" lon="-1.1727962776006258"><ele>155.0</ele><time>2026-04-07T11:35:40Z</time></trkpt><trkpt lat="38.056518437916026" lon="-1.1728555841432295"><ele>155.0</ele><time>2026-04-07T11:35:41Z</time></trkpt><trkpt lat="38.05648258047185" lon="-1.1729383794229669"><ele>155.0</ele><time>2026-04-07T11:35:42Z</time></trkpt><trkpt lat="38.05645427995372" lon="-1.173026379552418"><ele>155.0</ele><time>2026-04-07T11:35:43Z</time></trkpt><trkpt lat="38.056429659109824" lon="-1.17310195649259"><ele>155.0</ele><time>2026-04-07T11:35:44Z</time></trkpt><trkpt lat="38.05634669877231" lon="-1.173189212807092"><ele>155.0</ele><time>2026-04-07T11:35:46Z</time></trkpt><trkpt lat="38.05635382331903" lon="-1.1733145634463655"><ele>155.0</ele><time>2026-04-07T11:35:48Z</time></trkpt><trkpt lat="38.056388535595715" lon="-1.1733931198071648"><ele>155.0</ele><time>2026-04-07T11:35:49Z</time></trkpt><trkpt lat="38.05642447854929" lon="-1.1734600831103978"><ele>155.0</ele><time>2026-04-07T11:35:50Z</time></trkpt><trkpt lat="38.05648365382145" lon="-1.1735766374044638"><ele>155.0</ele><time>2026-04-07T11:35:52Z</time></trkpt><trkpt lat="38.05650759929231" lon="-1.1736912354355726"><ele>155.0</ele><time>2026-04-07T11:35:54Z</time></trkpt><trkpt lat="38.056435273707216" lon="-1.173819429312739"><ele>155.0</ele><time>2026-04-07T11:35:56Z</time></trkpt><trkpt lat="38.056402044644145" lon="-1.1739806818170755"><ele>155.0</ele><time>2026-04-07T11:35:58Z</time></trkpt><trkpt lat="38.05634900839341" lon="-1.1740510509486124"><ele>155.0</ele><time>2026-04-07T11:35:59Z</time></trkpt><trkpt lat="38.05626660990464" lon="-1.174131698999956"><ele>155.0</ele><time>2026-04-07T11:36:01Z</time></trkpt><trkpt lat="38.05624559888748" lon="-1.1742076569657995"><ele>155.0</ele><time>2026-04-07T11:36:02Z</time></trkpt><trkpt lat="38.05621453230571" lon="-1.1742832038767874"><ele>155.0</ele><time>2026-04-07T11:36:03Z</time></trkpt><trkpt lat="38.056127085151886" lon="-1.1743840981367721"><ele>154.71428571428572</ele><time>2026-04-07T11:36:05Z</time></trkpt><trkpt lat="38.05605485292899" lon="-1.1744200549115804"><ele>154.42857142857142</ele><time>2026-04-07T11:36:06Z</time></trkpt><trkpt lat="38.05599019591916" lon="-1.174471568574165"><ele>154.14285714285714</ele><time>2026-04-07T11:36:07Z</time></trkpt><trkpt lat="38.05592191293725" lon="-1.1745144187815337"><ele>153.85714285714286</ele><time>2026-04-07T11:36:08Z</time></trkpt><trkpt lat="38.055857556431015" lon="-1.174536947120569"><ele>153.57142857142858</ele><time>2026-04-07T11:36:09Z</time></trkpt><trkpt lat="38.055794427389536" lon="-1.1745649173275698"><ele>153.28571428571428</ele><time>2026-04-07T11:36:10Z</time></trkpt><trkpt lat="38.055726394777054" lon="-1.174604351505444"><ele>153.0</ele><time>2026-04-07T11:36:11Z</time></trkpt><trkpt lat="38.05565796972683" lon="-1.1746468084582864"><ele>153.0</ele><time>2026-04-07T11:36:12Z</time></trkpt><trkpt lat="38.05556638694449" lon="-1.1746742556792642"><ele>153.0</ele><time>2026-04-07T11:36:13Z</time></trkpt><trkpt lat="38.05549243162139" lon="-1.174692296065435"><ele>153.0</ele><time>2026-04-07T11:36:14Z</time></trkpt><trkpt lat="38.05538915431984" lon="-1.1747493667069366"><ele>153.0</ele><time>2026-04-07T11:36:16Z</time></trkpt><trkpt lat="38.05530441277223" lon="-1.1748693727398616"><ele>153.0</ele><time>2026-04-07T11:36:18Z</time></trkpt><trkpt lat="38.05524504376205" lon="-1.1749190634400304"><ele>153.66666666666666</ele><time>2026-04-07T11:36:19Z</time></trkpt><trkpt lat="38.05517963134715" lon="-1.1749653142617573"><ele>154.33333333333334</ele><time>2026-04-07T11:36:20Z</time></trkpt><trkpt lat="38.05511426779624" lon="-1.1749992860490237"><ele>155.0</ele><time>2026-04-07T11:36:21Z</time></trkpt><trkpt lat="38.05503569835974" lon="-1.175022537507668"><ele>155.66666666666669</ele><time>2026-04-07T11:36:22Z</time></trkpt><trkpt lat="38.05496829483687" lon="-1.1750531977190797"><ele>156.33333333333334</ele><time>2026-04-07T11:36:23Z</time></trkpt><trkpt lat="38.05487624254227" lon="-1.1751422156007374"><ele>157.0</ele><time>2026-04-07T11:36:25Z</time></trkpt><trkpt lat="38.054835978461504" lon="-1.1752464752601886"><ele>157.0</ele><time>2026-04-07T11:36:27Z</time></trkpt><trkpt lat="38.0548444345297" lon="-1.1753527706749718"><ele>157.0</ele><time>2026-04-07T11:36:29Z</time></trkpt><trkpt lat="38.0548151119995" lon="-1.1754719245085998"><ele>157.0</ele><time>2026-04-07T11:36:32Z</time></trkpt><trkpt lat="38.05478691707439" lon="-1.1755770630468587"><ele>157.0</ele><time>2026-04-07T11:36:33Z</time></trkpt><trkpt lat="38.054736209726016" lon="-1.1757270566184579"><ele>157.0</ele><time>2026-04-07T11:36:34Z</time></trkpt><trkpt lat="38.05464469140782" lon="-1.1758242223586748"><ele>154.25</ele><time>2026-04-07T11:36:36Z</time></trkpt><trkpt lat="38.05454146662773" lon="-1.1758559431889286"><ele>151.5</ele><time>2026-04-07T11:36:38Z</time></trkpt><trkpt lat="38.054492017133214" lon="-1.1759868618517895"><ele>148.75</ele><time>2026-04-07T11:36:40Z</time></trkpt><trkpt lat="38.05445947113401" lon="-1.1761409961527627"><ele>146.0</ele><time>2026-04-07T11:36:42Z</time></trkpt><trkpt lat="38.05444698340192" lon="-1.1763045853274268"><ele>146.0</ele><time>2026-04-07T11:36:44Z</time></trkpt><trkpt lat="38.054436573808275" lon="-1.176400476976534"><ele>146.0</ele><time>2026-04-07T11:36:45Z</time></trkpt><trkpt lat="38.054430567941225" lon="-1.1765461480695134"><ele>146.0</ele><time>2026-04-07T11:36:47Z</time></trkpt><trkpt lat="38.054332137863064" lon="-1.1766015180902556"><ele>146.0</ele><time>2026-04-07T11:36:49Z</time></trkpt><trkpt lat="38.05431764379388" lon="-1.1767084741697056"><ele>146.0</ele><time>2026-04-07T11:36:51Z</time></trkpt><trkpt lat="38.05437875538081" lon="-1.1768038200180586"><ele>145.5</ele><time>2026-04-07T11:36:53Z</time></trkpt><trkpt lat="38.054451156803836" lon="-1.1768462204692807"><ele>145.0</ele><time>2026-04-07T11:36:54Z</time></trkpt><trkpt lat="38.054528628632625" lon="-1.1768749985364377"><ele>144.5</ele><time>2026-04-07T11:36:55Z</time></trkpt><trkpt lat="38.054600238474656" lon="-1.1768710439728045"><ele>144.0</ele><time>2026-04-07T11:36:56Z</time></trkpt><trkpt lat="38.05467380392024" lon="-1.1768560757186748"><ele>143.5</ele><time>2026-04-07T11:36:58Z</time></trkpt><trkpt lat="38.05478703981465" lon="-1.1768639574786464"><ele>143.0</ele><time>2026-04-07T11:37:00Z</time></trkpt><trkpt lat="38.05489144998634" lon="-1.1768812378096443"><ele>142.4</ele><time>2026-04-07T11:37:02Z</time></trkpt><trkpt lat="38.0549921012838" lon="-1.1769411968546706"><ele>141.8</ele><time>2026-04-07T11:37:04Z</time></trkpt><trkpt lat="38.05507431244168" lon="-1.1770531719986148"><ele>141.2</ele><time>2026-04-07T11:37:06Z</time></trkpt><trkpt lat="38.05512207717243" lon="-1.1771751559104902"><ele>140.6</ele><time>2026-04-07T11:37:08Z</time></trkpt><trkpt lat="38.05509650299012" lon="-1.177284724227731"><ele>140.0</ele><time>2026-04-07T11:37:10Z</time></trkpt><trkpt lat="38.05500368566144" lon="-1.1773233306126625"><ele>140.0</ele><time>2026-04-07T11:37:12Z</time></trkpt><trkpt lat="38.054945764601364" lon="-1.1773591357410367"><ele>140.0</ele><time>2026-04-07T11:37:13Z</time></trkpt><trkpt lat="38.054881346190626" lon="-1.1773984239421216"><ele>140.0</ele><time>2026-04-07T11:37:14Z</time></trkpt><trkpt lat="38.054810470077626" lon="-1.1774308847988286"><ele>140.0</ele><time>2026-04-07T11:37:15Z</time></trkpt><trkpt lat="38.05474059460286" lon="-1.177469309105193"><ele>140.0</ele><time>2026-04-07T11:37:16Z</time></trkpt><trkpt lat="38.054676330542705" lon="-1.177514037073654"><ele>140.0</ele><time>2026-04-07T11:37:17Z</time></trkpt><trkpt lat="38.05460689067198" lon="-1.1775471844696155"><ele>140.0</ele><time>2026-04-07T11:37:18Z</time></trkpt><trkpt lat="38.054536173819585" lon="-1.1775764209864235"><ele>140.0</ele><time>2026-04-07T11:37:19Z</time></trkpt><trkpt lat="38.05447036410386" lon="-1.1776218078783778"><ele>140.0</ele><time>2026-04-07T11:37:20Z</time></trkpt><trkpt lat="38.05441983086502" lon="-1.1776744477201881"><ele>140.0</ele><time>2026-04-07T11:37:21Z</time></trkpt><trkpt lat="38.054372973559836" lon="-1.1778030920873606"><ele>140.0</ele><time>2026-04-07T11:37:23Z</time></trkpt><trkpt lat="38.05440239284802" lon="-1.1779474118350233"><ele>140.0</ele><time>2026-04-07T11:37:25Z</time></trkpt><trkpt lat="38.05444198382129" lon="-1.1780286224284164"><ele>140.0</ele><time>2026-04-07T11:37:26Z</time></trkpt><trkpt lat="38.05449777204676" lon="-1.1781021220444787"><ele>140.0</ele><time>2026-04-07T11:37:27Z</time></trkpt><trkpt lat="38.05457640556707" lon="-1.178180627533153"><ele>140.0</ele><time>2026-04-07T11:37:28Z</time></trkpt><trkpt lat="38.05466512063087" lon="-1.1782670518871998"><ele>140.0</ele><time>2026-04-07T11:37:29Z</time></trkpt><trkpt lat="38.054736938434246" lon="-1.1783418503593988"><ele>140.0</ele><time>2026-04-07T11:37:30Z</time></trkpt><trkpt lat="38.05479692472649" lon="-1.1784009690958193"><ele>140.0</ele><time>2026-04-07T11:37:31Z</time></trkpt><trkpt lat="38.05485884818114" lon="-1.1785567138941728"><ele>140.0</ele><time>2026-04-07T11:37:33Z</time></trkpt><trkpt lat="38.05489070166555" lon="-1.178660061238445"><ele>140.0</ele><time>2026-04-07T11:37:34Z</time></trkpt><trkpt lat="38.05491960276941" lon="-1.1787428609986892"><ele>140.0</ele><time>2026-04-07T11:37:35Z</time></trkpt><trkpt lat="38.05493052574341" lon="-1.1788291652621852"><ele>140.0</ele><time>2026-04-07T11:37:36Z</time></trkpt><trkpt lat="38.054925427042384" lon="-1.1789378075149435"><ele>140.0</ele><time>2026-04-07T11:37:37Z</time></trkpt><trkpt lat="38.0549133908265" lon="-1.1790412129673298"><ele>140.0</ele><time>2026-04-07T11:37:38Z</time></trkpt><trkpt lat="38.05489566441836" lon="-1.1791388341153122"><ele>140.0</ele><time>2026-04-07T11:37:39Z</time></trkpt><trkpt lat="38.05487690878517" lon="-1.179229402236188"><ele>140.0</ele><time>2026-04-07T11:37:40Z</time></trkpt><trkpt lat="38.05485907755857" lon="-1.1793099905048274"><ele>140.0</ele><time>2026-04-07T11:37:41Z</time></trkpt><trkpt lat="38.054792114407654" lon="-1.1793989858851084"><ele>140.0</ele><time>2026-04-07T11:37:43Z</time></trkpt><trkpt lat="38.05475559865083" lon="-1.1795208941670041"><ele>140.0</ele><time>2026-04-07T11:37:45Z</time></trkpt><trkpt lat="38.05472103716446" lon="-1.1796070514459462"><ele>140.0</ele><time>2026-04-07T11:37:46Z</time></trkpt><trkpt lat="38.05468057145668" lon="-1.1796814095612078"><ele>140.0</ele><time>2026-04-07T11:37:47Z</time></trkpt><trkpt lat="38.05464560709472" lon="-1.1797495928408253"><ele>140.0</ele><time>2026-04-07T11:37:48Z</time></trkpt><trkpt lat="38.05462912346535" lon="-1.1798435476267424"><ele>140.0</ele><time>2026-04-07T11:37:49Z</time></trkpt><trkpt lat="38.054631305029964" lon="-1.1799378971793713"><ele>140.0</ele><time>2026-04-07T11:37:50Z</time></trkpt><trkpt lat="38.05462572933384" lon="-1.18002224774147"><ele>140.0</ele><time>2026-04-07T11:37:51Z</time></trkpt><trkpt lat="38.05457349897528" lon="-1.1801349573763966"><ele>140.0</ele><time>2026-04-07T11:37:53Z</time></trkpt><trkpt lat="38.05454239657085" lon="-1.1802785519709638"><ele>139.16666666666666</ele><time>2026-04-07T11:37:55Z</time></trkpt><trkpt lat="38.054562404621166" lon="-1.1804188732653829"><ele>138.33333333333331</ele><time>2026-04-07T11:37:57Z</time></trkpt><trkpt lat="38.05461073398965" lon="-1.180490370563299"><ele>137.5</ele><time>2026-04-07T11:37:58Z</time></trkpt><trkpt lat="38.05466230024749" lon="-1.1805725210975233"><ele>136.66666666666666</ele><time>2026-04-07T11:37:59Z</time></trkpt><trkpt lat="38.054694631450566" lon="-1.1806680909849794"><ele>135.83333333333334</ele><time>2026-04-07T11:38:00Z</time></trkpt><trkpt lat="38.054712644698014" lon="-1.1807573522826724"><ele>135.0</ele><time>2026-04-07T11:38:01Z</time></trkpt><trkpt lat="38.05472837490573" lon="-1.1808479084328338"><ele>134.5</ele><time>2026-04-07T11:38:02Z</time></trkpt><trkpt lat="38.054737470192414" lon="-1.1809332332939428"><ele>134.0</ele><time>2026-04-07T11:38:03Z</time></trkpt><trkpt lat="38.05474833608682" lon="-1.1810165532509622"><ele>133.5</ele><time>2026-04-07T11:38:04Z</time></trkpt><trkpt lat="38.05470061737993" lon="-1.1811029530230759"><ele>133.0</ele><time>2026-04-07T11:38:05Z</time></trkpt><trkpt lat="38.05468676458292" lon="-1.1811835773570143"><ele>132.5</ele><time>2026-04-07T11:38:07Z</time></trkpt><trkpt lat="38.054616613864596" lon="-1.1813109689923242"><ele>132.0</ele><time>2026-04-07T11:38:09Z</time></trkpt><trkpt lat="38.05454134251211" lon="-1.1813620099675706"><ele>132.0</ele><time>2026-04-07T11:38:10Z</time></trkpt><trkpt lat="38.05447590131492" lon="-1.1814132554967196"><ele>132.0</ele><time>2026-04-07T11:38:11Z</time></trkpt><trkpt lat="38.05441288594208" lon="-1.1814729896619611"><ele>132.0</ele><time>2026-04-07T11:38:12Z</time></trkpt><trkpt lat="38.05434909228834" lon="-1.1815306613090624"><ele>132.0</ele><time>2026-04-07T11:38:13Z</time></trkpt><trkpt lat="38.05428248238567" lon="-1.1815900618994322"><ele>132.0</ele><time>2026-04-07T11:38:14Z</time></trkpt><trkpt lat="38.05420538149763" lon="-1.1816625522213227"><ele>132.0</ele><time>2026-04-07T11:38:15Z</time></trkpt><trkpt lat="38.05415426925708" lon="-1.1817103091027847"><ele>131.4</ele><time>2026-04-07T11:38:16Z</time></trkpt><trkpt lat="38.05415847634162" lon="-1.1818117101712087"><ele>130.79999999999998</ele><time>2026-04-07T11:38:17Z</time></trkpt><trkpt lat="38.05427494650024" lon="-1.1817023337085002"><ele>130.2</ele><time>2026-04-07T11:38:18Z</time></trkpt><trkpt lat="38.05426156318813" lon="-1.1817929127737135"><ele>129.6</ele><time>2026-04-07T11:38:30Z</time></trkpt><trkpt lat="38.054233207905135" lon="-1.181884494653883"><ele>129.0</ele><time>2026-04-07T11:38:54Z</time></trkpt><trkpt lat="38.05419001337119" lon="-1.1819900404331787"><ele>129.0</ele><time>2026-04-07T11:38:57Z</time></trkpt><trkpt lat="38.05416443122023" lon="-1.1820893983159182"><ele>129.0</ele><time>2026-04-07T11:38:59Z</time></trkpt><trkpt lat="38.05414624755688" lon="-1.182180091528208"><ele>129.0</ele><time>2026-04-07T11:39:01Z</time></trkpt><trkpt lat="38.05412223611205" lon="-1.1822643758002962"><ele>129.0</ele><time>2026-04-07T11:39:03Z</time></trkpt><trkpt lat="38.05408447429654" lon="-1.1823392693034744"><ele>129.0</ele><time>2026-04-07T11:39:05Z</time></trkpt><trkpt lat="38.054044166209216" lon="-1.1824309529170867"><ele>129.0</ele><time>2026-04-07T11:39:07Z</time></trkpt><trkpt lat="38.05400245236214" lon="-1.1825300790542"><ele>128.14285714285714</ele><time>2026-04-07T11:39:11Z</time></trkpt><trkpt lat="38.053972034220784" lon="-1.1826177252224657"><ele>127.28571428571428</ele><time>2026-04-07T11:39:14Z</time></trkpt><trkpt lat="38.05396058469924" lon="-1.1827138052952073"><ele>126.42857142857143</ele><time>2026-04-07T11:39:17Z</time></trkpt><trkpt lat="38.05398273792357" lon="-1.1827993978145424"><ele>125.57142857142857</ele><time>2026-04-07T11:39:20Z</time></trkpt><trkpt lat="38.053978572257115" lon="-1.1828990461714555"><ele>124.71428571428572</ele><time>2026-04-07T11:39:23Z</time></trkpt><trkpt lat="38.05398106581186" lon="-1.1829950844970223"><ele>123.85714285714288</ele><time>2026-04-07T11:39:25Z</time></trkpt><trkpt lat="38.053978068001975" lon="-1.183084522095582"><ele>123.00000000000001</ele><time>2026-04-07T11:39:27Z</time></trkpt><trkpt lat="38.05397032325086" lon="-1.1831682477472605"><ele>123.75</ele><time>2026-04-07T11:39:29Z</time></trkpt><trkpt lat="38.053954212643276" lon="-1.1832671791806226"><ele>124.5</ele><time>2026-04-07T11:39:31Z</time></trkpt><trkpt lat="38.053988009619864" lon="-1.1834042167685732"><ele>125.25</ele><time>2026-04-07T11:39:33Z</time></trkpt><trkpt lat="38.054015486124584" lon="-1.1836781816194353"><ele>126.0</ele><time>2026-04-07T11:39:37Z</time></trkpt><trkpt lat="38.05409242451956" lon="-1.1838480110457108"><ele>125.19999999999999</ele><time>2026-04-07T11:39:39Z</time></trkpt><trkpt lat="38.054148502063946" lon="-1.183923405374895"><ele>124.39999999999999</ele><time>2026-04-07T11:39:40Z</time></trkpt><trkpt lat="38.05420861786114" lon="-1.1839968407311667"><ele>123.6</ele><time>2026-04-07T11:39:41Z</time></trkpt><trkpt lat="38.05427758670916" lon="-1.184087206398721"><ele>122.8</ele><time>2026-04-07T11:39:42Z</time></trkpt><trkpt lat="38.05437757612704" lon="-1.1841725122519486"><ele>122.0</ele><time>2026-04-07T11:39:43Z</time></trkpt><trkpt lat="38.05441991357677" lon="-1.1842559093107732"><ele>121.99999999999999</ele><time>2026-04-07T11:39:44Z</time></trkpt><trkpt lat="38.054443007096076" lon="-1.1843596651484087"><ele>122.0</ele><time>2026-04-07T11:39:45Z</time></trkpt><trkpt lat="38.054477753326" lon="-1.1844393500840638"><ele>122.0</ele><time>2026-04-07T11:39:46Z</time></trkpt><trkpt lat="38.05452202260241" lon="-1.184507863042333"><ele>122.0</ele><time>2026-04-07T11:39:47Z</time></trkpt><trkpt lat="38.054554871767024" lon="-1.1845985660454108"><ele>121.99999999999999</ele><time>2026-04-07T11:39:48Z</time></trkpt><trkpt lat="38.0545808234103" lon="-1.1846731288284709"><ele>122.0</ele><time>2026-04-07T11:39:49Z</time></trkpt><trkpt lat="38.05465811813352" lon="-1.1847899659455823"><ele>121.99999999999999</ele><time>2026-04-07T11:39:51Z</time></trkpt><trkpt lat="38.05471967969616" lon="-1.1848398240112734"><ele>122.0</ele><time>2026-04-07T11:39:52Z</time></trkpt><trkpt lat="38.054779670845654" lon="-1.1849978859121486"><ele>122.0</ele><time>2026-04-07T11:39:54Z</time></trkpt><trkpt lat="38.05480019272771" lon="-1.1850756874786461"><ele>122.0</ele><time>2026-04-07T11:39:55Z</time></trkpt><trkpt lat="38.05485799886476" lon="-1.1851424127562094"><ele>121.99999999999999</ele><time>2026-04-07T11:39:56Z</time></trkpt><trkpt lat="38.054861118343844" lon="-1.185224017162162"><ele>122.0</ele><time>2026-04-07T11:39:57Z</time></trkpt><trkpt lat="38.05483954363768" lon="-1.1853046559981746"><ele>122.39999999999999</ele><time>2026-04-07T11:39:58Z</time></trkpt><trkpt lat="38.05480427786771" lon="-1.1854069739698996"><ele>122.79999999999998</ele><time>2026-04-07T11:40:00Z</time></trkpt><trkpt lat="38.05479974799917" lon="-1.185518386434395"><ele>123.2</ele><time>2026-04-07T11:40:02Z</time></trkpt><trkpt lat="38.05479372317835" lon="-1.1856093355816484"><ele>123.6</ele><time>2026-04-07T11:40:04Z</time></trkpt><trkpt lat="38.05471962595599" lon="-1.1857094613953056"><ele>124.0</ele><time>2026-04-07T11:40:07Z</time></trkpt><trkpt lat="38.054631470169035" lon="-1.1858053890335558"><ele>124.00000000000001</ele><time>2026-04-07T11:40:09Z</time></trkpt><trkpt lat="38.05460507540156" lon="-1.1859428745835945"><ele>124.0</ele><time>2026-04-07T11:40:11Z</time></trkpt><trkpt lat="38.05453986961539" lon="-1.18599768724236"><ele>124.0</ele><time>2026-04-07T11:40:13Z</time></trkpt><trkpt lat="38.05447283851279" lon="-1.186037433232001"><ele>124.0</ele><time>2026-04-07T11:40:16Z</time></trkpt><trkpt lat="38.05441650068572" lon="-1.1860778564860446"><ele>124.00000000000001</ele><time>2026-04-07T11:40:20Z</time></trkpt><trkpt lat="38.05434355675138" lon="-1.1861597246853288"><ele>124.0</ele><time>2026-04-07T11:40:23Z</time></trkpt><trkpt lat="38.05427217877072" lon="-1.1861404781918188"><ele>124.00000000000001</ele><time>2026-04-07T11:40:27Z</time></trkpt><trkpt lat="38.054246752596455" lon="-1.1860444911775163"><ele>124.0</ele><time>2026-04-07T11:40:29Z</time></trkpt><trkpt lat="38.054254272855644" lon="-1.1859416996012615"><ele>124.0</ele><time>2026-04-07T11:40:32Z</time></trkpt><trkpt lat="38.05427139245479" lon="-1.185845270395517"><ele>124.0</ele><time>2026-04-07T11:40:34Z</time></trkpt><trkpt lat="38.0542807800635" lon="-1.1857650463024239"><ele>124.00000000000001</ele><time>2026-04-07T11:40:36Z</time></trkpt><trkpt lat="38.054234139708626" lon="-1.185672674907033"><ele>124.0</ele><time>2026-04-07T11:40:39Z</time></trkpt><trkpt lat="38.05416076715195" lon="-1.1855084890175154"><ele>125.83333333333334</ele><time>2026-04-07T11:40:41Z</time></trkpt><trkpt lat="38.054120050062934" lon="-1.1853899656279336"><ele>127.66666666666667</ele><time>2026-04-07T11:40:43Z</time></trkpt><trkpt lat="38.05404194754133" lon="-1.1853666251703716"><ele>129.5</ele><time>2026-04-07T11:40:47Z</time></trkpt><trkpt lat="38.05395046808783" lon="-1.1853510588324887"><ele>131.33333333333334</ele><time>2026-04-07T11:40:50Z</time></trkpt><trkpt lat="38.05387399121005" lon="-1.1853297714048618"><ele>133.16666666666666</ele><time>2026-04-07T11:40:52Z</time></trkpt><trkpt lat="38.053810465651225" lon="-1.1853036840426094"><ele>135.0</ele><time>2026-04-07T11:40:54Z</time></trkpt><trkpt lat="38.053725223872036" lon="-1.1853157176602125"><ele>135.0</ele><time>2026-04-07T11:40:58Z</time></trkpt><trkpt lat="38.053682609773546" lon="-1.1852520427123152"><ele>135.0</ele><time>2026-04-07T11:41:01Z</time></trkpt><trkpt lat="38.05363214607658" lon="-1.1851966225694808"><ele>135.0</ele><time>2026-04-07T11:41:03Z</time></trkpt><trkpt lat="38.05357005498755" lon="-1.1852491514081098"><ele>135.0</ele><time>2026-04-07T11:41:06Z</time></trkpt><trkpt lat="38.05352771098841" lon="-1.1853478759856249"><ele>135.0</ele><time>2026-04-07T11:41:08Z</time></trkpt><trkpt lat="38.053457222581955" lon="-1.1854749607198718"><ele>135.0</ele><time>2026-04-07T11:41:10Z</time></trkpt><trkpt lat="38.05340142924583" lon="-1.1855895756901629"><ele>135.2</ele><time>2026-04-07T11:41:12Z</time></trkpt><trkpt lat="38.05333985530255" lon="-1.1856863559750959"><ele>135.4</ele><time>2026-04-07T11:41:14Z</time></trkpt><trkpt lat="38.05325295311211" lon="-1.1857791002593976"><ele>135.6</ele><time>2026-04-07T11:41:16Z</time></trkpt><trkpt lat="38.05319773523038" lon="-1.1858851895405795"><ele>135.8</ele><time>2026-04-07T11:41:18Z</time></trkpt><trkpt lat="38.05318373295689" lon="-1.1859795199933423"><ele>136.0</ele><time>2026-04-07T11:41:20Z</time></trkpt><trkpt lat="38.053159693093676" lon="-1.1860959905858466"><ele>138.6</ele><time>2026-04-07T11:41:21Z</time></trkpt><trkpt lat="38.05314648117523" lon="-1.1861886963249095"><ele>141.2</ele><time>2026-04-07T11:41:22Z</time></trkpt><trkpt lat="38.0531470782424" lon="-1.186327927567367"><ele>143.8</ele><time>2026-04-07T11:41:24Z</time></trkpt><trkpt lat="38.05315609622348" lon="-1.1864674588110882"><ele>146.4</ele><time>2026-04-07T11:41:26Z</time></trkpt><trkpt lat="38.05316505181532" lon="-1.1865951970380129"><ele>149.0</ele><time>2026-04-07T11:41:28Z</time></trkpt><trkpt lat="38.053110468147594" lon="-1.1867126268577581"><ele>149.0</ele><time>2026-04-07T11:41:30Z</time></trkpt><trkpt lat="38.053025105018705" lon="-1.1868003013954003"><ele>149.0</ele><time>2026-04-07T11:41:32Z</time></trkpt><trkpt lat="38.05294542033215" lon="-1.18688573962298"><ele>149.0</ele><time>2026-04-07T11:41:34Z</time></trkpt><trkpt lat="38.05290310498839" lon="-1.186957212149221"><ele>149.0</ele><time>2026-04-07T11:41:35Z</time></trkpt><trkpt lat="38.05289129081194" lon="-1.1870753709578217"><ele>149.0</ele><time>2026-04-07T11:41:37Z</time></trkpt><trkpt lat="38.052879164961276" lon="-1.1871664128766586"><ele>149.0</ele><time>2026-04-07T11:41:40Z</time></trkpt><trkpt lat="38.052864432730466" lon="-1.187258414572842"><ele>149.0</ele><time>2026-04-07T11:41:41Z</time></trkpt><trkpt lat="38.05284600708548" lon="-1.1873353923930854"><ele>149.0</ele><time>2026-04-07T11:41:43Z</time></trkpt><trkpt lat="38.05283305997281" lon="-1.1874193768769294"><ele>149.0</ele><time>2026-04-07T11:41:45Z</time></trkpt><trkpt lat="38.05281616909754" lon="-1.187496465635509"><ele>149.0</ele><time>2026-04-07T11:41:47Z</time></trkpt><trkpt lat="38.05277966606122" lon="-1.1875766399095886"><ele>149.0</ele><time>2026-04-07T11:41:49Z</time></trkpt><trkpt lat="38.052582604662646" lon="-1.1875570838570417"><ele>149.33333333333331</ele><time>2026-04-07T11:41:52Z</time></trkpt><trkpt lat="38.05245992396859" lon="-1.1875954638918587"><ele>149.66666666666666</ele><time>2026-04-07T11:41:54Z</time></trkpt><trkpt lat="38.05240061955056" lon="-1.1875574010675574"><ele>150.0</ele><time>2026-04-07T11:41:55Z</time></trkpt><trkpt lat="38.05236462059602" lon="-1.1874755645885544"><ele>150.33333333333334</ele><time>2026-04-07T11:41:56Z</time></trkpt><trkpt lat="38.0523750144475" lon="-1.187385998406238"><ele>150.66666666666669</ele><time>2026-04-07T11:41:57Z</time></trkpt><trkpt lat="38.05238076945972" lon="-1.1873035289067344"><ele>151.0</ele><time>2026-04-07T11:41:58Z</time></trkpt><trkpt lat="38.052344234009205" lon="-1.1872046483694167"><ele>151.0</ele><time>2026-04-07T11:41:59Z</time></trkpt><trkpt lat="38.052295115470905" lon="-1.1870771381915188"><ele>151.0</ele><time>2026-04-07T11:42:00Z</time></trkpt><trkpt lat="38.052282850473965" lon="-1.1869656651067935"><ele>151.0</ele><time>2026-04-07T11:42:01Z</time></trkpt><trkpt lat="38.05225839091136" lon="-1.1868707246242802"><ele>151.0</ele><time>2026-04-07T11:42:02Z</time></trkpt><trkpt lat="38.05220928122356" lon="-1.1868029015827648"><ele>151.0</ele><time>2026-04-07T11:42:03Z</time></trkpt><trkpt lat="38.052130390066864" lon="-1.1867479347991299"><ele>151.0</ele><time>2026-04-07T11:42:04Z</time></trkpt><trkpt lat="38.05201618627992" lon="-1.1867165678737082"><ele>151.0</ele><time>2026-04-07T11:42:05Z</time></trkpt><trkpt lat="38.05192391047734" lon="-1.1866904735567732"><ele>151.0</ele><time>2026-04-07T11:42:06Z</time></trkpt><trkpt lat="38.05183357753365" lon="-1.186649421959178"><ele>151.0</ele><time>2026-04-07T11:42:07Z</time></trkpt><trkpt lat="38.051760583493255" lon="-1.186633978592866"><ele>151.0</ele><time>2026-04-07T11:42:08Z</time></trkpt><trkpt lat="38.05167354831026" lon="-1.1866126050922714"><ele>151.0</ele><time>2026-04-07T11:42:09Z</time></trkpt><trkpt lat="38.051593383223675" lon="-1.186576235247664"><ele>151.0</ele><time>2026-04-07T11:42:10Z</time></trkpt><trkpt lat="38.05152110055024" lon="-1.186511231381194"><ele>152.75</ele><time>2026-04-07T11:42:11Z</time></trkpt><trkpt lat="38.051418070006356" lon="-1.18639037739931"><ele>154.5</ele><time>2026-04-07T11:42:13Z</time></trkpt><trkpt lat="38.05135486827759" lon="-1.186294630145664"><ele>156.25</ele><time>2026-04-07T11:42:14Z</time></trkpt><trkpt lat="38.05129380261929" lon="-1.1861811748179762"><ele>158.0</ele><time>2026-04-07T11:42:15Z</time></trkpt><trkpt lat="38.05121641652945" lon="-1.1860765274011777"><ele>158.0</ele><time>2026-04-07T11:42:16Z</time></trkpt><trkpt lat="38.051135155063534" lon="-1.1859856481443216"><ele>158.0</ele><time>2026-04-07T11:42:17Z</time></trkpt><trkpt lat="38.051043420593444" lon="-1.1858901306941632"><ele>158.0</ele><time>2026-04-07T11:42:18Z</time></trkpt><trkpt lat="38.050966506243036" lon="-1.1858126747586433"><ele>158.0</ele><time>2026-04-07T11:42:19Z</time></trkpt><trkpt lat="38.05088694309858" lon="-1.18575706708738"><ele>158.0</ele><time>2026-04-07T11:42:20Z</time></trkpt><trkpt lat="38.050794281648294" lon="-1.1857207243387637"><ele>157.66666666666666</ele><time>2026-04-07T11:42:21Z</time></trkpt><trkpt lat="38.05068761648472" lon="-1.1856860538994984"><ele>157.33333333333331</ele><time>2026-04-07T11:42:22Z</time></trkpt><trkpt lat="38.050590439352625" lon="-1.1856556841284032"><ele>157.0</ele><time>2026-04-07T11:42:23Z</time></trkpt><trkpt lat="38.050511959297005" lon="-1.1856276509951216"><ele>156.66666666666666</ele><time>2026-04-07T11:42:24Z</time></trkpt><trkpt lat="38.05043937058088" lon="-1.1855940044639621"><ele>156.33333333333334</ele><time>2026-04-07T11:42:25Z</time></trkpt><trkpt lat="38.05036496176273" lon="-1.185589179151015"><ele>156.0</ele><time>2026-04-07T11:42:26Z</time></trkpt><trkpt lat="38.050301850205514" lon="-1.1856261823101362"><ele>156.0</ele><time>2026-04-07T11:42:27Z</time></trkpt><trkpt lat="38.05023039404483" lon="-1.185704064013413"><ele>156.0</ele><time>2026-04-07T11:42:28Z</time></trkpt><trkpt lat="38.05016315539012" lon="-1.1858090099074257"><ele>156.0</ele><time>2026-04-07T11:42:29Z</time></trkpt><trkpt lat="38.05011472276472" lon="-1.185903902208246"><ele>156.0</ele><time>2026-04-07T11:42:30Z</time></trkpt><trkpt lat="38.05005843346832" lon="-1.1859853917863532"><ele>156.0</ele><time>2026-04-07T11:42:31Z</time></trkpt><trkpt lat="38.05000511714263" lon="-1.18606235007508"><ele>156.0</ele><time>2026-04-07T11:42:32Z</time></trkpt><trkpt lat="38.0499683709157" lon="-1.1861386416532382"><ele>156.0</ele><time>2026-04-07T11:42:33Z</time></trkpt><trkpt lat="38.04994057460067" lon="-1.1862131401006448"><ele>156.0</ele><time>2026-04-07T11:42:34Z</time></trkpt><trkpt lat="38.04990842694515" lon="-1.186284510702829"><ele>156.0</ele><time>2026-04-07T11:42:36Z</time></trkpt><trkpt lat="38.04984239080428" lon="-1.1864150739712476"><ele>156.0</ele><time>2026-04-07T11:42:38Z</time></trkpt><trkpt lat="38.04979680030171" lon="-1.1865125803341658"><ele>156.0</ele><time>2026-04-07T11:42:39Z</time></trkpt><trkpt lat="38.049769832246525" lon="-1.186617490227143"><ele>154.75</ele><time>2026-04-07T11:42:40Z</time></trkpt><trkpt lat="38.04976576548576" lon="-1.1867558019845574"><ele>153.5</ele><time>2026-04-07T11:42:41Z</time></trkpt><trkpt lat="38.04977304135868" lon="-1.186939189476418"><ele>152.25</ele><time>2026-04-07T11:42:42Z</time></trkpt><trkpt lat="38.0497633768498" lon="-1.1871249903797048"><ele>151.0</ele><time>2026-04-07T11:42:43Z</time></trkpt><trkpt lat="38.049738675954316" lon="-1.1872739286140883"><ele>151.83333333333334</ele><time>2026-04-07T11:42:44Z</time></trkpt><trkpt lat="38.04971271893061" lon="-1.1873907275666529"><ele>152.66666666666669</ele><time>2026-04-07T11:42:45Z</time></trkpt><trkpt lat="38.049667648795015" lon="-1.1874804010269895"><ele>153.5</ele><time>2026-04-07T11:42:46Z</time></trkpt><trkpt lat="38.049605930457666" lon="-1.1875432454554524"><ele>154.33333333333334</ele><time>2026-04-07T11:42:47Z</time></trkpt><trkpt lat="38.04953341082727" lon="-1.1875880866254875"><ele>155.16666666666666</ele><time>2026-04-07T11:42:48Z</time></trkpt><trkpt lat="38.04946445127057" lon="-1.1876141493290147"><ele>156.0</ele><time>2026-04-07T11:42:49Z</time></trkpt><trkpt lat="38.04940333181717" lon="-1.1876370745844573"><ele>156.0</ele><time>2026-04-07T11:42:50Z</time></trkpt><trkpt lat="38.04931392587624" lon="-1.1877361248794938"><ele>156.0</ele><time>2026-04-07T11:42:52Z</time></trkpt><trkpt lat="38.049272770757874" lon="-1.1878290739390303"><ele>156.0</ele><time>2026-04-07T11:42:53Z</time></trkpt><trkpt lat="38.04920550799347" lon="-1.18793073304197"><ele>156.0</ele><time>2026-04-07T11:42:54Z</time></trkpt><trkpt lat="38.04914310638959" lon="-1.1880045349404735"><ele>156.0</ele><time>2026-04-07T11:42:55Z</time></trkpt><trkpt lat="38.04907786175538" lon="-1.1880573193020725"><ele>154.0</ele><time>2026-04-07T11:42:56Z</time></trkpt><trkpt lat="38.049004196213" lon="-1.188108485408228"><ele>152.0</ele><time>2026-04-07T11:42:57Z</time></trkpt><trkpt lat="38.04892189326682" lon="-1.1881507133663831"><ele>150.0</ele><time>2026-04-07T11:42:58Z</time></trkpt><trkpt lat="38.04881447339664" lon="-1.188177331326695"><ele>148.0</ele><time>2026-04-07T11:42:59Z</time></trkpt><trkpt lat="38.048711406145735" lon="-1.1882018961420893"><ele>146.0</ele><time>2026-04-07T11:43:00Z</time></trkpt><trkpt lat="38.04862254894271" lon="-1.1882367329820964"><ele>146.0</ele><time>2026-04-07T11:43:01Z</time></trkpt><trkpt lat="38.04853437106248" lon="-1.1882730434569915"><ele>146.0</ele><time>2026-04-07T11:43:02Z</time></trkpt><trkpt lat="38.04844320759886" lon="-1.188285331185896"><ele>146.0</ele><time>2026-04-07T11:43:03Z</time></trkpt><trkpt lat="38.04835075297178" lon="-1.1883002785308272"><ele>146.0</ele><time>2026-04-07T11:43:04Z</time></trkpt><trkpt lat="38.04825882524164" lon="-1.1883271138135947"><ele>146.0</ele><time>2026-04-07T11:43:05Z</time></trkpt><trkpt lat="38.048165978364835" lon="-1.1883604656055546"><ele>143.4</ele><time>2026-04-07T11:43:06Z</time></trkpt><trkpt lat="38.04807283870095" lon="-1.1883836491837938"><ele>140.8</ele><time>2026-04-07T11:43:07Z</time></trkpt><trkpt lat="38.04797726929504" lon="-1.188399740133704"><ele>138.20000000000002</ele><time>2026-04-07T11:43:08Z</time></trkpt><trkpt lat="38.0478829133553" lon="-1.1884045509225307"><ele>135.6</ele><time>2026-04-07T11:43:09Z</time></trkpt><trkpt lat="38.04778685390158" lon="-1.1884071714612323"><ele>133.0</ele><time>2026-04-07T11:43:10Z</time></trkpt><trkpt lat="38.047697835443934" lon="-1.188406837904048"><ele>133.0</ele><time>2026-04-07T11:43:11Z</time></trkpt><trkpt lat="38.04760717215315" lon="-1.1883919691781157"><ele>133.0</ele><time>2026-04-07T11:43:12Z</time></trkpt><trkpt lat="38.047523073793975" lon="-1.188387035970791"><ele>133.0</ele><time>2026-04-07T11:43:13Z</time></trkpt><trkpt lat="38.04744545446153" lon="-1.1883911783844348"><ele>133.0</ele><time>2026-04-07T11:43:14Z</time></trkpt><trkpt lat="38.04736838928613" lon="-1.1884129327036002"><ele>133.0</ele><time>2026-04-07T11:43:15Z</time></trkpt><trkpt lat="38.04730421445658" lon="-1.1884734975096354"><ele>133.0</ele><time>2026-04-07T11:43:16Z</time></trkpt><trkpt lat="38.04725566310462" lon="-1.188560585838264"><ele>132.33333333333334</ele><time>2026-04-07T11:43:17Z</time></trkpt><trkpt lat="38.047202919970914" lon="-1.1886517721356626"><ele>131.66666666666669</ele><time>2026-04-07T11:43:18Z</time></trkpt><trkpt lat="38.04714499053111" lon="-1.1887250009578942"><ele>131.0</ele><time>2026-04-07T11:43:19Z</time></trkpt><trkpt lat="38.04706466711004" lon="-1.188773856286274"><ele>130.33333333333334</ele><time>2026-04-07T11:43:20Z</time></trkpt><trkpt lat="38.04697369487434" lon="-1.1888086724633447"><ele>129.66666666666666</ele><time>2026-04-07T11:43:21Z</time></trkpt><trkpt lat="38.04689022530416" lon="-1.188823082651739"><ele>129.0</ele><time>2026-04-07T11:43:22Z</time></trkpt><trkpt lat="38.046812256091826" lon="-1.1888245051457853"><ele>129.0</ele><time>2026-04-07T11:43:23Z</time></trkpt><trkpt lat="38.04674214605409" lon="-1.1888607537119"><ele>129.0</ele><time>2026-04-07T11:43:24Z</time></trkpt><trkpt lat="38.046670871562426" lon="-1.188901234948297"><ele>129.0</ele><time>2026-04-07T11:43:25Z</time></trkpt><trkpt lat="38.046596959287164" lon="-1.1889299842774874"><ele>129.0</ele><time>2026-04-07T11:43:26Z</time></trkpt><trkpt lat="38.046525603350915" lon="-1.1889569981206212"><ele>129.0</ele><time>2026-04-07T11:43:27Z</time></trkpt><trkpt lat="38.04645644460503" lon="-1.1889779113669272"><ele>129.0</ele><time>2026-04-07T11:43:28Z</time></trkpt><trkpt lat="38.04636063232822" lon="-1.189013399533342"><ele>127.16666666666667</ele><time>2026-04-07T11:43:30Z</time></trkpt><trkpt lat="38.04631408086249" lon="-1.189075061448031"><ele>125.33333333333334</ele><time>2026-04-07T11:43:33Z</time></trkpt><trkpt lat="38.04624549208014" lon="-1.1891452329297536"><ele>123.5</ele><time>2026-04-07T11:43:36Z</time></trkpt><trkpt lat="38.04617143467884" lon="-1.1891837799216196"><ele>121.66666666666667</ele><time>2026-04-07T11:43:40Z</time></trkpt><trkpt lat="38.04611470573813" lon="-1.1892399239643838"><ele>119.83333333333334</ele><time>2026-04-07T11:43:43Z</time></trkpt><trkpt lat="38.04606000861924" lon="-1.189313680655179"><ele>118.0</ele><time>2026-04-07T11:43:46Z</time></trkpt><trkpt lat="38.046023527998244" lon="-1.1894523988899917"><ele>118.00000000000001</ele><time>2026-04-07T11:43:49Z</time></trkpt><trkpt lat="38.046003150007145" lon="-1.1895395959354547"><ele>118.0</ele><time>2026-04-07T11:43:50Z</time></trkpt><trkpt lat="38.04596661869231" lon="-1.1896348747100256"><ele>118.0</ele><time>2026-04-07T11:43:52Z</time></trkpt><trkpt lat="38.045939992046854" lon="-1.1897263994192766"><ele>118.0</ele><time>2026-04-07T11:43:55Z</time></trkpt><trkpt lat="38.04593950576543" lon="-1.1898425672012145"><ele>118.00000000000001</ele><time>2026-04-07T11:43:58Z</time></trkpt><trkpt lat="38.04598122299195" lon="-1.1899861442353232"><ele>118.0</ele><time>2026-04-07T11:44:00Z</time></trkpt><trkpt lat="38.04602019901772" lon="-1.1901286878998933"><ele>118.50000000000001</ele><time>2026-04-07T11:44:01Z</time></trkpt><trkpt lat="38.04606384857376" lon="-1.1902216921823978"><ele>119.0</ele><time>2026-04-07T11:44:02Z</time></trkpt><trkpt lat="38.04609469513526" lon="-1.1903126148786458"><ele>119.5</ele><time>2026-04-07T11:44:03Z</time></trkpt><trkpt lat="38.046108030688394" lon="-1.190417507148135"><ele>120.0</ele><time>2026-04-07T11:44:04Z</time></trkpt><trkpt lat="38.046109116193385" lon="-1.1905299980875006"><ele>120.50000000000001</ele><time>2026-04-07T11:44:05Z</time></trkpt><trkpt lat="38.046108876483736" lon="-1.1906282096084275"><ele>121.0</ele><time>2026-04-07T11:44:06Z</time></trkpt><trkpt lat="38.04610553255122" lon="-1.1907193813968227"><ele>122.8</ele><time>2026-04-07T11:44:07Z</time></trkpt><trkpt lat="38.046059420875885" lon="-1.190853105033324"><ele>124.6</ele><time>2026-04-07T11:44:09Z</time></trkpt><trkpt lat="38.04606143413404" lon="-1.1909619821632706"><ele>126.4</ele><time>2026-04-07T11:44:11Z</time></trkpt><trkpt lat="38.046149947746656" lon="-1.1910807154632694"><ele>128.2</ele><time>2026-04-07T11:44:13Z</time></trkpt><trkpt lat="38.04617954705187" lon="-1.1911535042859116"><ele>130.0</ele><time>2026-04-07T11:44:14Z</time></trkpt><trkpt lat="38.046186357577426" lon="-1.1912333390255578"><ele>130.0</ele><time>2026-04-07T11:44:15Z</time></trkpt><trkpt lat="38.046214575734226" lon="-1.1913797402061475"><ele>130.0</ele><time>2026-04-07T11:44:17Z</time></trkpt><trkpt lat="38.04623402798668" lon="-1.1914739861864794"><ele>130.0</ele><time>2026-04-07T11:44:18Z</time></trkpt><trkpt lat="38.046241842239255" lon="-1.1915603065199174"><ele>130.0</ele><time>2026-04-07T11:44:19Z</time></trkpt><trkpt lat="38.046251242865836" lon="-1.1916488143921613"><ele>130.0</ele><time>2026-04-07T11:44:20Z</time></trkpt><trkpt lat="38.046266891644144" lon="-1.1917465165470362"><ele>130.0</ele><time>2026-04-07T11:44:21Z</time></trkpt><trkpt lat="38.046280993308244" lon="-1.1918400353386613"><ele>130.0</ele><time>2026-04-07T11:44:22Z</time></trkpt><trkpt lat="38.046295111556226" lon="-1.1919360314188947"><ele>130.0</ele><time>2026-04-07T11:44:23Z</time></trkpt><trkpt lat="38.04630811634867" lon="-1.1920430839052714"><ele>130.0</ele><time>2026-04-07T11:44:24Z</time></trkpt><trkpt lat="38.04631142052601" lon="-1.1921489661562634"><ele>130.0</ele><time>2026-04-07T11:44:25Z</time></trkpt><trkpt lat="38.04630954351719" lon="-1.1922591363479755"><ele>130.0</ele><time>2026-04-07T11:44:26Z</time></trkpt><trkpt lat="38.04629939711726" lon="-1.1923806859068078"><ele>130.0</ele><time>2026-04-07T11:44:27Z</time></trkpt><trkpt lat="38.04627242230148" lon="-1.192484076429895"><ele>131.0</ele><time>2026-04-07T11:44:28Z</time></trkpt><trkpt lat="38.0462435505161" lon="-1.1925867916339825"><ele>132.0</ele><time>2026-04-07T11:44:29Z</time></trkpt><trkpt lat="38.04623120189356" lon="-1.1926819073214354"><ele>133.0</ele><time>2026-04-07T11:44:30Z</time></trkpt><trkpt lat="38.046224603902516" lon="-1.192778267587651"><ele>134.0</ele><time>2026-04-07T11:44:31Z</time></trkpt><trkpt lat="38.04622173252683" lon="-1.1928731783387323"><ele>135.0</ele><time>2026-04-07T11:44:32Z</time></trkpt><trkpt lat="38.046181094431105" lon="-1.1929994298904694"><ele>136.0</ele><time>2026-04-07T11:44:34Z</time></trkpt><trkpt lat="38.04615089458384" lon="-1.1930722105611271"><ele>135.99999999999997</ele><time>2026-04-07T11:44:35Z</time></trkpt><trkpt lat="38.04609192036558" lon="-1.1931538615562303"><ele>136.0</ele><time>2026-04-07T11:44:36Z</time></trkpt><trkpt lat="38.04602046308169" lon="-1.1932053969569243"><ele>136.0</ele><time>2026-04-07T11:44:37Z</time></trkpt><trkpt lat="38.045948326039905" lon="-1.1932428782862288"><ele>136.0</ele><time>2026-04-07T11:44:38Z</time></trkpt><trkpt lat="38.04589369294639" lon="-1.1932844054226366"><ele>136.0</ele><time>2026-04-07T11:44:39Z</time></trkpt><trkpt lat="38.04585146700129" lon="-1.193347290098566"><ele>135.99999999999997</ele><time>2026-04-07T11:44:40Z</time></trkpt><trkpt lat="38.04583111658414" lon="-1.1934335156229476"><ele>136.0</ele><time>2026-04-07T11:44:41Z</time></trkpt><trkpt lat="38.04581535786292" lon="-1.1935258396505724"><ele>135.66666666666669</ele><time>2026-04-07T11:44:42Z</time></trkpt><trkpt lat="38.04582951448185" lon="-1.1936746962785685"><ele>135.33333333333334</ele><time>2026-04-07T11:44:44Z</time></trkpt><trkpt lat="38.04587122062627" lon="-1.1937454824656408"><ele>135.0</ele><time>2026-04-07T11:44:45Z</time></trkpt><trkpt lat="38.045926720724204" lon="-1.1938081579156825"><ele>134.66666666666666</ele><time>2026-04-07T11:44:46Z</time></trkpt><trkpt lat="38.04597616099794" lon="-1.1938723724117646"><ele>134.33333333333331</ele><time>2026-04-07T11:44:47Z</time></trkpt><trkpt lat="38.04602851488152" lon="-1.1939777551746649"><ele>134.0</ele><time>2026-04-07T11:44:49Z</time></trkpt><trkpt lat="38.046123094539226" lon="-1.1940748861240047"><ele>133.33333333333331</ele><time>2026-04-07T11:44:51Z</time></trkpt><trkpt lat="38.04618281077778" lon="-1.1941247639708927"><ele>132.66666666666666</ele><time>2026-04-07T11:44:52Z</time></trkpt><trkpt lat="38.04622982328203" lon="-1.1941920431044784"><ele>132.0</ele><time>2026-04-07T11:44:53Z</time></trkpt><trkpt lat="38.046263784339935" lon="-1.1942820324527217"><ele>131.33333333333334</ele><time>2026-04-07T11:44:54Z</time></trkpt><trkpt lat="38.04629859164129" lon="-1.194392706673607"><ele>130.66666666666669</ele><time>2026-04-07T11:44:55Z</time></trkpt><trkpt lat="38.046342275376155" lon="-1.1944859274725161"><ele>130.0</ele><time>2026-04-07T11:44:56Z</time></trkpt><trkpt lat="38.04637255171062" lon="-1.1945809424920226"><ele>130.0</ele><time>2026-04-07T11:44:57Z</time></trkpt><trkpt lat="38.04640745478566" lon="-1.1946648610314932"><ele>130.0</ele><time>2026-04-07T11:44:58Z</time></trkpt><trkpt lat="38.04644228478053" lon="-1.194748087545775"><ele>130.0</ele><time>2026-04-07T11:44:59Z</time></trkpt><trkpt lat="38.046480111017864" lon="-1.1948310008914043"><ele>130.0</ele><time>2026-04-07T11:45:00Z</time></trkpt><trkpt lat="38.046514716254194" lon="-1.1949004928459173"><ele>130.0</ele><time>2026-04-07T11:45:01Z</time></trkpt><trkpt lat="38.04659436837338" lon="-1.1949809584376436"><ele>130.0</ele><time>2026-04-07T11:45:03Z</time></trkpt><trkpt lat="38.04665872959576" lon="-1.194996680079312"><ele>129.2</ele><time>2026-04-07T11:45:05Z</time></trkpt><trkpt lat="38.046717129669666" lon="-1.194918681201485"><ele>128.4</ele><time>2026-04-07T11:45:06Z</time></trkpt><trkpt lat="38.04685079060782" lon="-1.1949556749180459"><ele>127.6</ele><time>2026-04-07T11:45:08Z</time></trkpt><trkpt lat="38.046886245495855" lon="-1.195044846601938"><ele>126.8</ele><time>2026-04-07T11:45:09Z</time></trkpt><trkpt lat="38.04697206932259" lon="-1.1951043956281682"><ele>126.0</ele><time>2026-04-07T11:45:11Z</time></trkpt><trkpt lat="38.04703381983027" lon="-1.1951411783652761"><ele>126.0</ele><time>2026-04-07T11:45:13Z</time></trkpt><trkpt lat="38.047097042919255" lon="-1.1951853252093456"><ele>126.0</ele><time>2026-04-07T11:45:16Z</time></trkpt><trkpt lat="38.047187249236906" lon="-1.1956885420334373"><ele>126.4</ele><time>2026-04-07T11:45:21Z</time></trkpt><trkpt lat="38.04716412705856" lon="-1.195802874995555"><ele>126.8</ele><time>2026-04-07T11:45:22Z</time></trkpt><trkpt lat="38.04720903592594" lon="-1.1959319043613923"><ele>127.20000000000002</ele><time>2026-04-07T11:45:23Z</time></trkpt><trkpt lat="38.047250466236804" lon="-1.196069787592365"><ele>127.60000000000001</ele><time>2026-04-07T11:45:24Z</time></trkpt><trkpt lat="38.0472993543307" lon="-1.1961674515985872"><ele>128.0</ele><time>2026-04-07T11:45:25Z</time></trkpt><trkpt lat="38.04732453190705" lon="-1.1962912045646075"><ele>128.0</ele><time>2026-04-07T11:45:26Z</time></trkpt><trkpt lat="38.047330437614534" lon="-1.196420482992781"><ele>128.0</ele><time>2026-04-07T11:45:27Z</time></trkpt><trkpt lat="38.04733206744077" lon="-1.1965406576359772"><ele>128.0</ele><time>2026-04-07T11:45:28Z</time></trkpt><trkpt lat="38.04735225406273" lon="-1.1966344750433706"><ele>128.0</ele><time>2026-04-07T11:45:29Z</time></trkpt><trkpt lat="38.04745485826336" lon="-1.1967353964932441"><ele>128.0</ele><time>2026-04-07T11:45:31Z</time></trkpt><trkpt lat="38.04752546962375" lon="-1.1968253469417707"><ele>127.0</ele><time>2026-04-07T11:45:33Z</time></trkpt><trkpt lat="38.04753932161889" lon="-1.1969232652155561"><ele>126.00000000000001</ele><time>2026-04-07T11:45:35Z</time></trkpt><trkpt lat="38.04747368819605" lon="-1.197039008999509"><ele>125.00000000000001</ele><time>2026-04-07T11:45:37Z</time></trkpt><trkpt lat="38.04740218611828" lon="-1.197138652463165"><ele>124.0</ele><time>2026-04-07T11:45:39Z</time></trkpt><trkpt lat="38.047427893885235" lon="-1.1972507348335266"><ele>123.0</ele><time>2026-04-07T11:45:42Z</time></trkpt><trkpt lat="38.04746956421498" lon="-1.1973946487559841"><ele>122.60000000000001</ele><time>2026-04-07T11:45:44Z</time></trkpt><trkpt lat="38.04745976042149" lon="-1.1975374800934255"><ele>122.20000000000002</ele><time>2026-04-07T11:45:46Z</time></trkpt><trkpt lat="38.04744624909131" lon="-1.197624132183755"><ele>121.8</ele><time>2026-04-07T11:45:48Z</time></trkpt><trkpt lat="38.047436026212424" lon="-1.1977623250593303"><ele>121.4</ele><time>2026-04-07T11:45:50Z</time></trkpt><trkpt lat="38.04749587337551" lon="-1.197873135469954"><ele>121.0</ele><time>2026-04-07T11:45:52Z</time></trkpt><trkpt lat="38.04750610108994" lon="-1.1979751405132923"><ele>121.00000000000001</ele><time>2026-04-07T11:45:54Z</time></trkpt><trkpt lat="38.04752459776537" lon="-1.1980683439522781"><ele>121.0</ele><time>2026-04-07T11:45:55Z</time></trkpt><trkpt lat="38.04754315084509" lon="-1.1981619193540525"><ele>121.0</ele><time>2026-04-07T11:45:56Z</time></trkpt><trkpt lat="38.0475464586054" lon="-1.1982460178072376"><ele>121.0</ele><time>2026-04-07T11:45:57Z</time></trkpt><trkpt lat="38.04752211508558" lon="-1.1983944531721527"><ele>121.00000000000001</ele><time>2026-04-07T11:45:59Z</time></trkpt><trkpt lat="38.04753156944564" lon="-1.1984798100267036"><ele>121.0</ele><time>2026-04-07T11:46:00Z</time></trkpt><trkpt lat="38.047545874996224" lon="-1.1985768160360464"><ele>120.71428571428571</ele><time>2026-04-07T11:46:01Z</time></trkpt><trkpt lat="38.04754399994556" lon="-1.1986705209902087"><ele>120.42857142857142</ele><time>2026-04-07T11:46:02Z</time></trkpt><trkpt lat="38.047552812991064" lon="-1.198750804124126"><ele>120.14285714285714</ele><time>2026-04-07T11:46:03Z</time></trkpt><trkpt lat="38.04757227044746" lon="-1.198830430195469"><ele>119.85714285714286</ele><time>2026-04-07T11:46:04Z</time></trkpt><trkpt lat="38.04758364305784" lon="-1.198926087500241"><ele>119.57142857142857</ele><time>2026-04-07T11:46:05Z</time></trkpt><trkpt lat="38.04759139337771" lon="-1.1990381691697087"><ele>119.28571428571428</ele><time>2026-04-07T11:46:06Z</time></trkpt><trkpt lat="38.047592204544436" lon="-1.1991400791698819"><ele>119.0</ele><time>2026-04-07T11:46:07Z</time></trkpt><trkpt lat="38.04758004439305" lon="-1.1992346519227854"><ele>117.99999999999999</ele><time>2026-04-07T11:46:08Z</time></trkpt><trkpt lat="38.04754138484517" lon="-1.1993155391217152"><ele>117.0</ele><time>2026-04-07T11:46:09Z</time></trkpt><trkpt lat="38.047497326583574" lon="-1.1993823104481798"><ele>116.0</ele><time>2026-04-07T11:46:10Z</time></trkpt><trkpt lat="38.04742697986125" lon="-1.1994792967136965"><ele>115.0</ele><time>2026-04-07T11:46:12Z</time></trkpt><trkpt lat="38.04735457018959" lon="-1.1995059784317228"><ele>113.99999999999999</ele><time>2026-04-07T11:46:14Z</time></trkpt><trkpt lat="38.04727570769473" lon="-1.1995022384201168"><ele>113.0</ele><time>2026-04-07T11:46:17Z</time></trkpt><trkpt lat="38.04719856833773" lon="-1.1994040645302688"><ele>112.80000000000001</ele><time>2026-04-07T11:46:19Z</time></trkpt><trkpt lat="38.04707002330733" lon="-1.1993565597991547"><ele>112.60000000000001</ele><time>2026-04-07T11:46:21Z</time></trkpt><trkpt lat="38.04696575854714" lon="-1.1993345814335703"><ele>112.39999999999999</ele><time>2026-04-07T11:46:23Z</time></trkpt><trkpt lat="38.04690369707116" lon="-1.1993072151038393"><ele>112.19999999999999</ele><time>2026-04-07T11:46:26Z</time></trkpt><trkpt lat="38.04691346833677" lon="-1.1992142736693714"><ele>112.0</ele><time>2026-04-07T11:47:55.025Z</time></trkpt><trkpt lat="38.04691631816146" lon="-1.1988536361616093"><ele>112.0</ele><time>2026-04-07T11:48:04Z</time></trkpt><trkpt lat="38.046936811914854" lon="-1.198762441055103"><ele>112.0</ele><time>2026-04-07T11:48:15Z</time></trkpt><trkpt lat="38.04689414802771" lon="-1.1988305021088559"><ele>112.0</ele><time>2026-04-07T11:48:22Z</time></trkpt><trkpt lat="38.04683936584449" lon="-1.1991943050851246"><ele>112.0</ele><time>2026-04-07T11:48:23Z</time></trkpt><trkpt lat="38.04689414802771" lon="-1.1988305021088559"><ele>112.0</ele><time>2026-04-07T11:48:46Z</time></trkpt><trkpt lat="38.04685006956909" lon="-1.1991411678782036"><ele>112.0</ele><time>2026-04-07T11:48:51Z</time></trkpt><trkpt lat="38.046862187709834" lon="-1.1990622893940626"><ele>112.0</ele><time>2026-04-07T11:49:19Z</time></trkpt><trkpt lat="38.04686163826531" lon="-1.1989739262445527"><ele>112.0</ele><time>2026-04-07T11:49:33Z</time></trkpt><trkpt lat="38.046857655177206" lon="-1.1991350437238317"><ele>111.19999999999999</ele><time>2026-04-07T11:49:34Z</time></trkpt><trkpt lat="38.04685967950767" lon="-1.1990283378074629"><ele>110.39999999999999</ele><time>2026-04-07T11:49:36Z</time></trkpt><trkpt lat="38.04685047919617" lon="-1.1992812125675119"><ele>109.60000000000001</ele><time>2026-04-07T11:51:06Z</time></trkpt><trkpt lat="38.0468478267782" lon="-1.1991997701057995"><ele>108.80000000000001</ele><time>2026-04-07T11:51:58Z</time></trkpt><trkpt lat="38.04685493503147" lon="-1.1992934662035166"><ele>108.0</ele><time>2026-04-07T11:52:06Z</time></trkpt><trkpt lat="38.04688563573896" lon="-1.1992155021293482"><ele>108.0</ele><time>2026-04-07T11:52:11Z</time></trkpt></trkseg></trk></gpx>